<?xml version='1.0' encoding='UTF-8'?><gpx version="1.1" creator="JPX - https://github.com/jenetics/jpx" xmlns="http://www.topografix.com/GPX/1/1"><trk><trkseg><trkpt lat="43.88637994079273" lon="10.770332988355168"><ele>42.0</ele><time>2026-05-02T07:26:13.932Z</time></trkpt><trkpt lat="43.886219021109795" lon="10.770821565194673"><ele>42.0</ele><time>2026-05-02T07:26:20.196Z</time></trkpt><trkpt lat="43.88646885384931" lon="10.77043863056064"><ele>41.0</ele><time>2026-05-02T07:26:34.031Z</time></trkpt><trkpt lat="43.886362710436565" lon="10.770098459705"><ele>40.0</ele><time>2026-05-02T07:26:39.973Z</time></trkpt><trkpt lat="43.88640675670833" lon="10.769922177965395"><ele>39.0</ele><time>2026-05-02T07:26:41.973Z</time></trkpt><trkpt lat="43.8864241738987" lon="10.769835020272279"><ele>39.0</ele><time>2026-05-02T07:26:42.973Z</time></trkpt><trkpt lat="43.88644959579249" lon="10.769730579043161"><ele>39.0</ele><time>2026-05-02T07:26:44.973Z</time></trkpt><trkpt lat="43.88647261445742" lon="10.769626921915163"><ele>39.0</ele><time>2026-05-02T07:26:47.001Z</time></trkpt><trkpt lat="43.88650496444763" lon="10.769485393991559"><ele>39.0</ele><time>2026-05-02T07:26:49.001Z</time></trkpt><trkpt lat="43.88655041164254" lon="10.769260974856596"><ele>39.0</ele><time>2026-05-02T07:26:52.001Z</time></trkpt><trkpt lat="43.88659042750022" lon="10.76910724376994"><ele>38.25</ele><time>2026-05-02T07:26:54.001Z</time></trkpt><trkpt lat="43.88664233231456" lon="10.768960583488148"><ele>37.5</ele><time>2026-05-02T07:26:56.001Z</time></trkpt><trkpt lat="43.88666438535073" lon="10.768817749475744"><ele>36.75</ele><time>2026-05-02T07:26:58.001Z</time></trkpt><trkpt lat="43.886702362350874" lon="10.768667228122236"><ele>36.0</ele><time>2026-05-02T07:27:00.001Z</time></trkpt><trkpt lat="43.886737940922465" lon="10.768518923149985"><ele>36.25</ele><time>2026-05-02T07:27:02.001Z</time></trkpt><trkpt lat="43.886778840952914" lon="10.768368451412972"><ele>36.5</ele><time>2026-05-02T07:27:04Z</time></trkpt><trkpt lat="43.88680604800295" lon="10.768213292487648"><ele>36.75</ele><time>2026-05-02T07:27:06Z</time></trkpt><trkpt lat="43.88685273039195" lon="10.76806808626707"><ele>37.0</ele><time>2026-05-02T07:27:08Z</time></trkpt><trkpt lat="43.88688470458811" lon="10.767922717802666"><ele>37.0</ele><time>2026-05-02T07:27:10Z</time></trkpt><trkpt lat="43.88691144724789" lon="10.76777534298853"><ele>37.0</ele><time>2026-05-02T07:27:12Z</time></trkpt><trkpt lat="43.886944892974824" lon="10.767616827105707"><ele>37.0</ele><time>2026-05-02T07:27:14Z</time></trkpt><trkpt lat="43.88696602578968" lon="10.767525905563744"><ele>37.0</ele><time>2026-05-02T07:27:15Z</time></trkpt><trkpt lat="43.886998654440724" lon="10.767423252439833"><ele>37.0</ele><time>2026-05-02T07:27:16Z</time></trkpt><trkpt lat="43.8870198349291" lon="10.767294218789024"><ele>36.800000000000004</ele><time>2026-05-02T07:27:17Z</time></trkpt><trkpt lat="43.88706733700976" lon="10.76711105891594"><ele>36.6</ele><time>2026-05-02T07:27:19Z</time></trkpt><trkpt lat="43.8870951733162" lon="10.767004859504981"><ele>36.400000000000006</ele><time>2026-05-02T07:27:20Z</time></trkpt><trkpt lat="43.88711803392588" lon="10.766898962982328"><ele>36.2</ele><time>2026-05-02T07:27:21Z</time></trkpt><trkpt lat="43.887143794806626" lon="10.766790906568055"><ele>36.0</ele><time>2026-05-02T07:27:22Z</time></trkpt><trkpt lat="43.887166246794955" lon="10.766673243122153"><ele>35.833333333333336</ele><time>2026-05-02T07:27:23Z</time></trkpt><trkpt lat="43.88719416575049" lon="10.766562723625546"><ele>35.666666666666664</ele><time>2026-05-02T07:27:24Z</time></trkpt><trkpt lat="43.887241251381326" lon="10.766393078705999"><ele>35.5</ele><time>2026-05-02T07:27:26Z</time></trkpt><trkpt lat="43.88726546432566" lon="10.766298105383228"><ele>35.33333333333333</ele><time>2026-05-02T07:27:27Z</time></trkpt><trkpt lat="43.887285855662995" lon="10.76619696336429"><ele>35.166666666666664</ele><time>2026-05-02T07:27:28Z</time></trkpt><trkpt lat="43.88731325222582" lon="10.766101708256263"><ele>35.0</ele><time>2026-05-02T07:27:28.999Z</time></trkpt><trkpt lat="43.887343924098346" lon="10.765995804805623"><ele>35.33333333333333</ele><time>2026-05-02T07:27:29.999Z</time></trkpt><trkpt lat="43.88736529783123" lon="10.765889350955304"><ele>35.666666666666664</ele><time>2026-05-02T07:27:30.999Z</time></trkpt><trkpt lat="43.88738573695696" lon="10.76579297492242"><ele>36.0</ele><time>2026-05-02T07:27:31.999Z</time></trkpt><trkpt lat="43.88742245302839" lon="10.765645886351459"><ele>36.333333333333336</ele><time>2026-05-02T07:27:33.999Z</time></trkpt><trkpt lat="43.887420149807994" lon="10.76553913432031"><ele>36.66666666666667</ele><time>2026-05-02T07:27:37.999Z</time></trkpt><trkpt lat="43.88735650378586" lon="10.76544395022511"><ele>37.0</ele><time>2026-05-02T07:27:39.999Z</time></trkpt><trkpt lat="43.88729308263593" lon="10.765414435374637"><ele>37.0</ele><time>2026-05-02T07:27:40.999Z</time></trkpt><trkpt lat="43.88722373019646" lon="10.765382159993468"><ele>37.0</ele><time>2026-05-02T07:27:41.999Z</time></trkpt><trkpt lat="43.88714505075814" lon="10.765345543965312"><ele>37.0</ele><time>2026-05-02T07:27:42.999Z</time></trkpt><trkpt lat="43.88705734903281" lon="10.76532508034717"><ele>37.0</ele><time>2026-05-02T07:27:43.999Z</time></trkpt><trkpt lat="43.8869692439179" lon="10.76528331202757"><ele>37.0</ele><time>2026-05-02T07:27:44.999Z</time></trkpt><trkpt lat="43.88687809623711" lon="10.765240840828074"><ele>37.0</ele><time>2026-05-02T07:27:45.999Z</time></trkpt><trkpt lat="43.88679268209186" lon="10.765199918474726"><ele>36.66666666666667</ele><time>2026-05-02T07:27:46.999Z</time></trkpt><trkpt lat="43.88670514436754" lon="10.765151162115835"><ele>36.333333333333336</ele><time>2026-05-02T07:27:47.999Z</time></trkpt><trkpt lat="43.88661303753573" lon="10.7651128945898"><ele>36.0</ele><time>2026-05-02T07:27:48.999Z</time></trkpt><trkpt lat="43.88652916506959" lon="10.765070231264174"><ele>35.666666666666664</ele><time>2026-05-02T07:27:49.999Z</time></trkpt><trkpt lat="43.88644777227914" lon="10.765033331166444"><ele>35.33333333333333</ele><time>2026-05-02T07:27:50.999Z</time></trkpt><trkpt lat="43.8863746818556" lon="10.764994177096252"><ele>35.0</ele><time>2026-05-02T07:27:51.999Z</time></trkpt><trkpt lat="43.88630296554024" lon="10.764962118866258"><ele>35.0</ele><time>2026-05-02T07:27:52.999Z</time></trkpt><trkpt lat="43.886240711081626" lon="10.764929233940611"><ele>35.0</ele><time>2026-05-02T07:27:53.999Z</time></trkpt><trkpt lat="43.88614354666967" lon="10.764878667002554"><ele>35.0</ele><time>2026-05-02T07:27:55.999Z</time></trkpt><trkpt lat="43.88608166336417" lon="10.764855154732473"><ele>35.0</ele><time>2026-05-02T07:29:01Z</time></trkpt><trkpt lat="43.886007914679645" lon="10.764820670835016"><ele>35.0</ele><time>2026-05-02T07:29:05Z</time></trkpt><trkpt lat="43.885939572534696" lon="10.764792030787303"><ele>35.0</ele><time>2026-05-02T07:29:07Z</time></trkpt><trkpt lat="43.88583973842294" lon="10.76474383700611"><ele>35.0</ele><time>2026-05-02T07:29:09Z</time></trkpt><trkpt lat="43.88573181955553" lon="10.764684389768018"><ele>35.0</ele><time>2026-05-02T07:29:11Z</time></trkpt><trkpt lat="43.8856298416977" lon="10.764634969815958"><ele>35.0</ele><time>2026-05-02T07:29:13Z</time></trkpt><trkpt lat="43.88555340166957" lon="10.764575549956467"><ele>35.0</ele><time>2026-05-02T07:29:15Z</time></trkpt><trkpt lat="43.8855660486879" lon="10.764387436777808"><ele>35.0</ele><time>2026-05-02T07:29:17Z</time></trkpt><trkpt lat="43.88558714290646" lon="10.764283965364303"><ele>35.0</ele><time>2026-05-02T07:29:18Z</time></trkpt><trkpt lat="43.885607313149336" lon="10.764173436785361"><ele>35.0</ele><time>2026-05-02T07:29:19Z</time></trkpt><trkpt lat="43.88562414468723" lon="10.764051090561802"><ele>35.0</ele><time>2026-05-02T07:29:20Z</time></trkpt><trkpt lat="43.885641858105515" lon="10.763917412710821"><ele>35.0</ele><time>2026-05-02T07:29:21Z</time></trkpt><trkpt lat="43.885662204140644" lon="10.7637769175382"><ele>35.0</ele><time>2026-05-02T07:29:22Z</time></trkpt><trkpt lat="43.88568559671226" lon="10.76362929357176"><ele>35.25</ele><time>2026-05-02T07:29:23Z</time></trkpt><trkpt lat="43.88571114290248" lon="10.763472441992102"><ele>35.5</ele><time>2026-05-02T07:29:24Z</time></trkpt><trkpt lat="43.885734552487186" lon="10.76330768815664"><ele>35.75</ele><time>2026-05-02T07:29:25Z</time></trkpt><trkpt lat="43.88575612864493" lon="10.763141136861753"><ele>36.0</ele><time>2026-05-02T07:29:26Z</time></trkpt><trkpt lat="43.88577957228439" lon="10.762976887096563"><ele>36.0</ele><time>2026-05-02T07:29:27Z</time></trkpt><trkpt lat="43.88580524827337" lon="10.762805363484391"><ele>36.0</ele><time>2026-05-02T07:29:27.999Z</time></trkpt><trkpt lat="43.88583007614174" lon="10.762632830939449"><ele>36.0</ele><time>2026-05-02T07:29:28.999Z</time></trkpt><trkpt lat="43.88585795568797" lon="10.762453784214038"><ele>36.0</ele><time>2026-05-02T07:29:29.999Z</time></trkpt><trkpt lat="43.88588585147109" lon="10.762273314160451"><ele>36.5</ele><time>2026-05-02T07:29:30.999Z</time></trkpt><trkpt lat="43.8859153817064" lon="10.762091327179562"><ele>37.0</ele><time>2026-05-02T07:29:31.999Z</time></trkpt><trkpt lat="43.88594294536985" lon="10.761913264926655"><ele>37.5</ele><time>2026-05-02T07:29:32.999Z</time></trkpt><trkpt lat="43.885968560834264" lon="10.761735838840732"><ele>38.0</ele><time>2026-05-02T07:29:33.999Z</time></trkpt><trkpt lat="43.885995755022506" lon="10.761559097973917"><ele>38.0</ele><time>2026-05-02T07:29:34.999Z</time></trkpt><trkpt lat="43.886023921960096" lon="10.761392356362322"><ele>38.0</ele><time>2026-05-02T07:29:35.999Z</time></trkpt><trkpt lat="43.886054970879485" lon="10.761233801121277"><ele>38.0</ele><time>2026-05-02T07:29:36.999Z</time></trkpt><trkpt lat="43.88608675148456" lon="10.76110508679925"><ele>38.0</ele><time>2026-05-02T07:29:37.999Z</time></trkpt><trkpt lat="43.88611018899347" lon="10.76101423196237"><ele>38.0</ele><time>2026-05-02T07:29:38.999Z</time></trkpt><trkpt lat="43.886132998160775" lon="10.76092399205415"><ele>38.0</ele><time>2026-05-02T07:29:40.999Z</time></trkpt><trkpt lat="43.88615986374775" lon="10.760791069065025"><ele>38.0</ele><time>2026-05-02T07:29:42.999Z</time></trkpt><trkpt lat="43.88618509831104" lon="10.760697758352968"><ele>38.0</ele><time>2026-05-02T07:29:43.999Z</time></trkpt><trkpt lat="43.88621268863699" lon="10.760596958309602"><ele>38.0</ele><time>2026-05-02T07:29:44.999Z</time></trkpt><trkpt lat="43.88623739398594" lon="10.76050080095708"><ele>38.0</ele><time>2026-05-02T07:29:45.999Z</time></trkpt><trkpt lat="43.88625898834906" lon="10.760417306559368"><ele>38.0</ele><time>2026-05-02T07:29:46.999Z</time></trkpt><trkpt lat="43.886311017300336" lon="10.76028770263185"><ele>37.4</ele><time>2026-05-02T07:29:48.999Z</time></trkpt><trkpt lat="43.886408546933886" lon="10.760199078071363"><ele>36.8</ele><time>2026-05-02T07:29:50.999Z</time></trkpt><trkpt lat="43.88647713406505" lon="10.760091503642933"><ele>36.2</ele><time>2026-05-02T07:29:52.999Z</time></trkpt><trkpt lat="43.88651316802654" lon="10.759982363883061"><ele>35.6</ele><time>2026-05-02T07:29:54.999Z</time></trkpt><trkpt lat="43.88647346824086" lon="10.759874261536446"><ele>35.0</ele><time>2026-05-02T07:29:55.999Z</time></trkpt><trkpt lat="43.886465362703284" lon="10.759787500260764"><ele>35.0</ele><time>2026-05-02T07:29:56.999Z</time></trkpt><trkpt lat="43.88645691753109" lon="10.75969405756027"><ele>35.0</ele><time>2026-05-02T07:29:57.999Z</time></trkpt><trkpt lat="43.886448595106856" lon="10.759602761737703"><ele>35.0</ele><time>2026-05-02T07:29:58.999Z</time></trkpt><trkpt lat="43.88643878773405" lon="10.75950340463982"><ele>35.0</ele><time>2026-05-02T07:29:59.999Z</time></trkpt><trkpt lat="43.886429383131436" lon="10.759400901888226"><ele>35.0</ele><time>2026-05-02T07:30:00.999Z</time></trkpt><trkpt lat="43.88641833734326" lon="10.759292910880767"><ele>35.0</ele><time>2026-05-02T07:30:01.999Z</time></trkpt><trkpt lat="43.88640570233149" lon="10.759172754950832"><ele>35.0</ele><time>2026-05-02T07:30:02.999Z</time></trkpt><trkpt lat="43.88639394226141" lon="10.759045387446003"><ele>34.8</ele><time>2026-05-02T07:30:03.999Z</time></trkpt><trkpt lat="43.886383600283914" lon="10.758913693212953"><ele>34.6</ele><time>2026-05-02T07:30:04.999Z</time></trkpt><trkpt lat="43.886375898969085" lon="10.758777469832765"><ele>34.4</ele><time>2026-05-02T07:30:05.999Z</time></trkpt><trkpt lat="43.88637208790469" lon="10.758638385157424"><ele>34.2</ele><time>2026-05-02T07:30:06.999Z</time></trkpt><trkpt lat="43.886370014959084" lon="10.758491355462045"><ele>34.0</ele><time>2026-05-02T07:30:07.999Z</time></trkpt><trkpt lat="43.88636878665752" lon="10.758341820443972"><ele>33.2</ele><time>2026-05-02T07:30:08.998Z</time></trkpt><trkpt lat="43.88636572501872" lon="10.758195371622477"><ele>32.4</ele><time>2026-05-02T07:30:09.998Z</time></trkpt><trkpt lat="43.88636078456635" lon="10.758053503305442"><ele>31.6</ele><time>2026-05-02T07:30:10.998Z</time></trkpt><trkpt lat="43.88635596674904" lon="10.757909297011468"><ele>30.8</ele><time>2026-05-02T07:30:11.998Z</time></trkpt><trkpt lat="43.88635192115376" lon="10.75776635985985"><ele>30.0</ele><time>2026-05-02T07:30:12.998Z</time></trkpt><trkpt lat="43.886347372843595" lon="10.757624917101559"><ele>29.6</ele><time>2026-05-02T07:30:13.998Z</time></trkpt><trkpt lat="43.88634574281661" lon="10.757485985825946"><ele>29.2</ele><time>2026-05-02T07:30:14.998Z</time></trkpt><trkpt lat="43.886346068893666" lon="10.757346420835324"><ele>28.799999999999997</ele><time>2026-05-02T07:30:15.998Z</time></trkpt><trkpt lat="43.88634777011575" lon="10.757208216415814"><ele>28.4</ele><time>2026-05-02T07:30:16.998Z</time></trkpt><trkpt lat="43.88635030886644" lon="10.757071441277851"><ele>28.0</ele><time>2026-05-02T07:30:17.998Z</time></trkpt><trkpt lat="43.88635227518393" lon="10.75694202938837"><ele>28.333333333333336</ele><time>2026-05-02T07:30:18.998Z</time></trkpt><trkpt lat="43.88635388310194" lon="10.75681796913355"><ele>28.666666666666668</ele><time>2026-05-02T07:30:19.998Z</time></trkpt><trkpt lat="43.886354977601236" lon="10.756700156632522"><ele>29.0</ele><time>2026-05-02T07:30:20.998Z</time></trkpt><trkpt lat="43.88636089140886" lon="10.756594239066752"><ele>29.333333333333336</ele><time>2026-05-02T07:30:21.997Z</time></trkpt><trkpt lat="43.88637870505791" lon="10.756498898365825"><ele>29.666666666666668</ele><time>2026-05-02T07:30:22.997Z</time></trkpt><trkpt lat="43.88641478388728" lon="10.75642040989904"><ele>30.0</ele><time>2026-05-02T07:30:23.997Z</time></trkpt><trkpt lat="43.88649359390968" lon="10.756294564896793"><ele>30.0</ele><time>2026-05-02T07:30:25.997Z</time></trkpt><trkpt lat="43.88653401888471" lon="10.756227066098328"><ele>30.0</ele><time>2026-05-02T07:30:27.997Z</time></trkpt><trkpt lat="43.88647412092822" lon="10.756102853766139"><ele>30.0</ele><time>2026-05-02T07:30:28.997Z</time></trkpt><trkpt lat="43.886396869050664" lon="10.756035763213495"><ele>30.0</ele><time>2026-05-02T07:30:30.997Z</time></trkpt><trkpt lat="43.886324172849434" lon="10.755980045577033"><ele>30.0</ele><time>2026-05-02T07:30:32.997Z</time></trkpt><trkpt lat="43.886317947252195" lon="10.755888872510647"><ele>30.0</ele><time>2026-05-02T07:30:33.997Z</time></trkpt><trkpt lat="43.88631014872127" lon="10.755767032652674"><ele>30.0</ele><time>2026-05-02T07:30:35.997Z</time></trkpt><trkpt lat="43.88630416231258" lon="10.755627147779903"><ele>30.0</ele><time>2026-05-02T07:30:37.997Z</time></trkpt><trkpt lat="43.88627698996651" lon="10.755460546961066"><ele>30.0</ele><time>2026-05-02T07:30:39.997Z</time></trkpt><trkpt lat="43.886255589340585" lon="10.755369287207111"><ele>30.0</ele><time>2026-05-02T07:30:40.997Z</time></trkpt><trkpt lat="43.886229764248256" lon="10.75527393118111"><ele>30.0</ele><time>2026-05-02T07:30:41.997Z</time></trkpt><trkpt lat="43.88620481814938" lon="10.75517687290526"><ele>30.0</ele><time>2026-05-02T07:30:42.997Z</time></trkpt><trkpt lat="43.88618024042445" lon="10.755074311353775"><ele>30.0</ele><time>2026-05-02T07:30:43.997Z</time></trkpt><trkpt lat="43.886150471281105" lon="10.754968432488287"><ele>30.0</ele><time>2026-05-02T07:30:44.997Z</time></trkpt><trkpt lat="43.88611443845269" lon="10.754860978534138"><ele>30.0</ele><time>2026-05-02T07:30:45.997Z</time></trkpt><trkpt lat="43.88607729520585" lon="10.754750081908014"><ele>30.0</ele><time>2026-05-02T07:30:46.996Z</time></trkpt><trkpt lat="43.88604052025732" lon="10.754637645119274"><ele>30.0</ele><time>2026-05-02T07:30:47.996Z</time></trkpt><trkpt lat="43.88600155058832" lon="10.754522109939312"><ele>30.0</ele><time>2026-05-02T07:30:48.996Z</time></trkpt><trkpt lat="43.88596433248692" lon="10.754407610551608"><ele>29.6</ele><time>2026-05-02T07:30:49.996Z</time></trkpt><trkpt lat="43.8859291234328" lon="10.754291884376336"><ele>29.2</ele><time>2026-05-02T07:30:50.996Z</time></trkpt><trkpt lat="43.88589319128595" lon="10.754178098282695"><ele>28.799999999999997</ele><time>2026-05-02T07:30:51.996Z</time></trkpt><trkpt lat="43.88585513744771" lon="10.754064876147122"><ele>28.4</ele><time>2026-05-02T07:30:52.996Z</time></trkpt><trkpt lat="43.885818144368194" lon="10.753948090201819"><ele>28.0</ele><time>2026-05-02T07:30:53.996Z</time></trkpt><trkpt lat="43.885780737886854" lon="10.753827042551718"><ele>28.0</ele><time>2026-05-02T07:30:54.996Z</time></trkpt><trkpt lat="43.88574171760125" lon="10.753704239136406"><ele>27.999999999999996</ele><time>2026-05-02T07:30:55.996Z</time></trkpt><trkpt lat="43.885705276869885" lon="10.753574237405171"><ele>27.999999999999996</ele><time>2026-05-02T07:30:56.996Z</time></trkpt><trkpt lat="43.88567010146361" lon="10.753450789519679"><ele>28.0</ele><time>2026-05-02T07:30:57.996Z</time></trkpt><trkpt lat="43.8856376355113" lon="10.753331134790448"><ele>28.0</ele><time>2026-05-02T07:30:58.998Z</time></trkpt><trkpt lat="43.885606281121646" lon="10.753215016531556"><ele>28.2</ele><time>2026-05-02T07:30:59.998Z</time></trkpt><trkpt lat="43.88557557195662" lon="10.753100376162202"><ele>28.4</ele><time>2026-05-02T07:31:00.998Z</time></trkpt><trkpt lat="43.88553972010334" lon="10.752986503510982"><ele>28.599999999999998</ele><time>2026-05-02T07:31:01.998Z</time></trkpt><trkpt lat="43.88550470306126" lon="10.752867255763325"><ele>28.799999999999997</ele><time>2026-05-02T07:31:02.998Z</time></trkpt><trkpt lat="43.88546951227969" lon="10.75274337098164"><ele>29.0</ele><time>2026-05-02T07:31:03.998Z</time></trkpt><trkpt lat="43.88543399854344" lon="10.75261706081417"><ele>29.4</ele><time>2026-05-02T07:31:04.998Z</time></trkpt><trkpt lat="43.885394455653454" lon="10.75249536126363"><ele>29.799999999999997</ele><time>2026-05-02T07:31:05.998Z</time></trkpt><trkpt lat="43.88534863350619" lon="10.752377796544454"><ele>30.200000000000003</ele><time>2026-05-02T07:31:06.998Z</time></trkpt><trkpt lat="43.88529865360323" lon="10.75226351137335"><ele>30.6</ele><time>2026-05-02T07:31:07.998Z</time></trkpt><trkpt lat="43.885245055240325" lon="10.752156075722038"><ele>31.0</ele><time>2026-05-02T07:31:08.998Z</time></trkpt><trkpt lat="43.8851899023342" lon="10.752053876010121"><ele>31.0</ele><time>2026-05-02T07:31:09.998Z</time></trkpt><trkpt lat="43.885135041427" lon="10.751954803781459"><ele>31.0</ele><time>2026-05-02T07:31:10.999Z</time></trkpt><trkpt lat="43.88508119129549" lon="10.75185575682386"><ele>31.0</ele><time>2026-05-02T07:31:11.999Z</time></trkpt><trkpt lat="43.88502925784308" lon="10.751757031108546"><ele>31.0</ele><time>2026-05-02T07:31:12.999Z</time></trkpt><trkpt lat="43.8849757753998" lon="10.751653216506291"><ele>31.0</ele><time>2026-05-02T07:31:13.999Z</time></trkpt><trkpt lat="43.88491859116126" lon="10.751542566866487"><ele>31.0</ele><time>2026-05-02T07:31:14.999Z</time></trkpt><trkpt lat="43.884868365696185" lon="10.751431055131347"><ele>31.0</ele><time>2026-05-02T07:31:15.999Z</time></trkpt><trkpt lat="43.884826038007404" lon="10.75132018362985"><ele>31.0</ele><time>2026-05-02T07:31:16.999Z</time></trkpt><trkpt lat="43.884786563328106" lon="10.751207840858775"><ele>31.0</ele><time>2026-05-02T07:31:17.999Z</time></trkpt><trkpt lat="43.884744743797796" lon="10.751085746958559"><ele>31.0</ele><time>2026-05-02T07:31:18.999Z</time></trkpt><trkpt lat="43.88470504408913" lon="10.75096136575222"><ele>31.0</ele><time>2026-05-02T07:31:19.999Z</time></trkpt><trkpt lat="43.8846624094965" lon="10.750832358496016"><ele>31.0</ele><time>2026-05-02T07:31:20.999Z</time></trkpt><trkpt lat="43.88461238300576" lon="10.750708273943681"><ele>31.0</ele><time>2026-05-02T07:31:21.999Z</time></trkpt><trkpt lat="43.88455746297154" lon="10.750591628868651"><ele>31.0</ele><time>2026-05-02T07:31:22.998Z</time></trkpt><trkpt lat="43.884500934157046" lon="10.750477680143828"><ele>31.0</ele><time>2026-05-02T07:31:23.998Z</time></trkpt><trkpt lat="43.884445062681195" lon="10.750365050462737"><ele>31.0</ele><time>2026-05-02T07:31:24.998Z</time></trkpt><trkpt lat="43.88438703958317" lon="10.750249075858672"><ele>31.0</ele><time>2026-05-02T07:31:25.998Z</time></trkpt><trkpt lat="43.884325282072446" lon="10.750141187865015"><ele>31.0</ele><time>2026-05-02T07:31:26.998Z</time></trkpt><trkpt lat="43.8842637229256" lon="10.750014399206348"><ele>31.0</ele><time>2026-05-02T07:31:27.998Z</time></trkpt><trkpt lat="43.884202508160044" lon="10.7498941745606"><ele>31.0</ele><time>2026-05-02T07:31:28.998Z</time></trkpt><trkpt lat="43.88413492136589" lon="10.749775424097319"><ele>31.0</ele><time>2026-05-02T07:31:29.998Z</time></trkpt><trkpt lat="43.88406517626395" lon="10.749658125083952"><ele>31.0</ele><time>2026-05-02T07:31:30.998Z</time></trkpt><trkpt lat="43.88398608685626" lon="10.749536751190684"><ele>31.0</ele><time>2026-05-02T07:31:31.998Z</time></trkpt><trkpt lat="43.88389540439683" lon="10.749413972707835"><ele>31.0</ele><time>2026-05-02T07:31:32.998Z</time></trkpt><trkpt lat="43.88379955656204" lon="10.749291526421212"><ele>31.0</ele><time>2026-05-02T07:31:33.998Z</time></trkpt><trkpt lat="43.883702097259324" lon="10.74917260830133"><ele>31.0</ele><time>2026-05-02T07:31:34.998Z</time></trkpt><trkpt lat="43.88360476253332" lon="10.749055741708037"><ele>31.0</ele><time>2026-05-02T07:31:35.998Z</time></trkpt><trkpt lat="43.883508370564144" lon="10.748941126572591"><ele>31.0</ele><time>2026-05-02T07:31:36.998Z</time></trkpt><trkpt lat="43.88341484378953" lon="10.748826690154937"><ele>31.0</ele><time>2026-05-02T07:31:37.998Z</time></trkpt><trkpt lat="43.88332306717261" lon="10.748713521977535"><ele>31.0</ele><time>2026-05-02T07:31:38.998Z</time></trkpt><trkpt lat="43.88323182937524" lon="10.748603932388923"><ele>31.0</ele><time>2026-05-02T07:31:39.998Z</time></trkpt><trkpt lat="43.883146400244875" lon="10.748500781135094"><ele>31.0</ele><time>2026-05-02T07:31:40.998Z</time></trkpt><trkpt lat="43.88307313045559" lon="10.748408950993941"><ele>31.000000000000004</ele><time>2026-05-02T07:31:41.998Z</time></trkpt><trkpt lat="43.88300918929473" lon="10.748326838035693"><ele>31.0</ele><time>2026-05-02T07:31:42.998Z</time></trkpt><trkpt lat="43.882958177744285" lon="10.748239931313888"><ele>31.0</ele><time>2026-05-02T07:31:43.998Z</time></trkpt><trkpt lat="43.882921425198475" lon="10.748145795086785"><ele>31.0</ele><time>2026-05-02T07:31:44.998Z</time></trkpt><trkpt lat="43.88290129842068" lon="10.74804743887585"><ele>31.000000000000004</ele><time>2026-05-02T07:31:45.998Z</time></trkpt><trkpt lat="43.88288743583897" lon="10.747956134379697"><ele>31.0</ele><time>2026-05-02T07:31:46.998Z</time></trkpt><trkpt lat="43.882824023628245" lon="10.747830773411803"><ele>31.0</ele><time>2026-05-02T07:31:48.998Z</time></trkpt><trkpt lat="43.882762357802996" lon="10.747796677513344"><ele>31.0</ele><time>2026-05-02T07:31:49.998Z</time></trkpt><trkpt lat="43.88267891502973" lon="10.747772013758448"><ele>31.0</ele><time>2026-05-02T07:31:50.998Z</time></trkpt><trkpt lat="43.88258457474777" lon="10.747742329545185"><ele>31.0</ele><time>2026-05-02T07:31:51.998Z</time></trkpt><trkpt lat="43.882484644437305" lon="10.74768481204086"><ele>31.0</ele><time>2026-05-02T07:31:52.998Z</time></trkpt><trkpt lat="43.88238326936471" lon="10.747586375524925"><ele>30.5</ele><time>2026-05-02T07:31:53.998Z</time></trkpt><trkpt lat="43.88228431881153" lon="10.747463450033827"><ele>30.0</ele><time>2026-05-02T07:31:54.998Z</time></trkpt><trkpt lat="43.8821924911511" lon="10.747341842924111"><ele>29.5</ele><time>2026-05-02T07:31:55.998Z</time></trkpt><trkpt lat="43.88209234420262" lon="10.747210039202082"><ele>29.0</ele><time>2026-05-02T07:31:56.998Z</time></trkpt><trkpt lat="43.88198561180642" lon="10.747079172352167"><ele>29.0</ele><time>2026-05-02T07:31:57.998Z</time></trkpt><trkpt lat="43.881875947986174" lon="10.74694867838839"><ele>29.0</ele><time>2026-05-02T07:31:58.998Z</time></trkpt><trkpt lat="43.88176353519959" lon="10.746816521188826"><ele>29.0</ele><time>2026-05-02T07:31:59.998Z</time></trkpt><trkpt lat="43.881652711814006" lon="10.746687342285435"><ele>29.0</ele><time>2026-05-02T07:32:00.998Z</time></trkpt><trkpt lat="43.88153779510175" lon="10.746564722082136"><ele>28.5</ele><time>2026-05-02T07:32:01.998Z</time></trkpt><trkpt lat="43.88141284075912" lon="10.746461596307293"><ele>28.0</ele><time>2026-05-02T07:32:02.998Z</time></trkpt><trkpt lat="43.881276573238914" lon="10.746384106414373"><ele>27.5</ele><time>2026-05-02T07:32:03.998Z</time></trkpt><trkpt lat="43.88113324613907" lon="10.746332171801335"><ele>27.0</ele><time>2026-05-02T07:32:04.998Z</time></trkpt><trkpt lat="43.88098619988586" lon="10.746301110306435"><ele>26.666666666666664</ele><time>2026-05-02T07:32:05.998Z</time></trkpt><trkpt lat="43.88083740967997" lon="10.746253229289973"><ele>26.333333333333332</ele><time>2026-05-02T07:32:06.998Z</time></trkpt><trkpt lat="43.880699137940034" lon="10.746176062300512"><ele>26.0</ele><time>2026-05-02T07:32:07.998Z</time></trkpt><trkpt lat="43.88056408459908" lon="10.746083391733405"><ele>26.25</ele><time>2026-05-02T07:32:08.998Z</time></trkpt><trkpt lat="43.88043851719123" lon="10.745970676847271"><ele>26.5</ele><time>2026-05-02T07:32:09.998Z</time></trkpt><trkpt lat="43.880319072922134" lon="10.745846427873177"><ele>26.75</ele><time>2026-05-02T07:32:10.998Z</time></trkpt><trkpt lat="43.88020359983071" lon="10.745719185824994"><ele>27.0</ele><time>2026-05-02T07:32:11.998Z</time></trkpt><trkpt lat="43.88008589504045" lon="10.745591878918326"><ele>27.0</ele><time>2026-05-02T07:32:12.997Z</time></trkpt><trkpt lat="43.87996830093129" lon="10.74545896166852"><ele>27.0</ele><time>2026-05-02T07:32:13.997Z</time></trkpt><trkpt lat="43.87985460564289" lon="10.745334081929279"><ele>27.0</ele><time>2026-05-02T07:32:14.997Z</time></trkpt><trkpt lat="43.879744618229516" lon="10.745209422519403"><ele>27.0</ele><time>2026-05-02T07:32:15.997Z</time></trkpt><trkpt lat="43.87963946445815" lon="10.745081567728086"><ele>27.25</ele><time>2026-05-02T07:32:16.997Z</time></trkpt><trkpt lat="43.87954166903517" lon="10.74495399593389"><ele>27.5</ele><time>2026-05-02T07:32:17.997Z</time></trkpt><trkpt lat="43.87945268354274" lon="10.744832211272271"><ele>27.75</ele><time>2026-05-02T07:32:18.997Z</time></trkpt><trkpt lat="43.87937042684562" lon="10.744716408897737"><ele>28.0</ele><time>2026-05-02T07:32:19.997Z</time></trkpt><trkpt lat="43.87929254818219" lon="10.744607638557842"><ele>27.799999999999997</ele><time>2026-05-02T07:32:20.997Z</time></trkpt><trkpt lat="43.8792211163389" lon="10.744499885916811"><ele>27.599999999999998</ele><time>2026-05-02T07:32:21.997Z</time></trkpt><trkpt lat="43.87915300913716" lon="10.744387178419897"><ele>27.400000000000002</ele><time>2026-05-02T07:32:22.997Z</time></trkpt><trkpt lat="43.879084504425194" lon="10.744274074591699"><ele>27.200000000000003</ele><time>2026-05-02T07:32:23.997Z</time></trkpt><trkpt lat="43.87901251071223" lon="10.744156895138902"><ele>27.0</ele><time>2026-05-02T07:32:24.997Z</time></trkpt><trkpt lat="43.878940051465854" lon="10.744035945321722"><ele>27.0</ele><time>2026-05-02T07:32:25.997Z</time></trkpt><trkpt lat="43.8788653534889" lon="10.743912124929004"><ele>27.0</ele><time>2026-05-02T07:32:26.997Z</time></trkpt><trkpt lat="43.87879019158632" lon="10.743783373991938"><ele>27.0</ele><time>2026-05-02T07:32:27.997Z</time></trkpt><trkpt lat="43.87871759019579" lon="10.743649463432348"><ele>27.0</ele><time>2026-05-02T07:32:28.997Z</time></trkpt><trkpt lat="43.878645940753046" lon="10.743510365905772"><ele>27.0</ele><time>2026-05-02T07:32:29.997Z</time></trkpt><trkpt lat="43.87858026350495" lon="10.743364514986673"><ele>27.0</ele><time>2026-05-02T07:32:30.997Z</time></trkpt><trkpt lat="43.878520673326406" lon="10.743215418436176"><ele>27.0</ele><time>2026-05-02T07:32:31.997Z</time></trkpt><trkpt lat="43.878470478367554" lon="10.743056972672912"><ele>27.0</ele><time>2026-05-02T07:32:32.997Z</time></trkpt><trkpt lat="43.87843002912521" lon="10.74289121148617"><ele>26.25</ele><time>2026-05-02T07:32:33.997Z</time></trkpt><trkpt lat="43.87840268356285" lon="10.74272582458308"><ele>25.5</ele><time>2026-05-02T07:32:34.997Z</time></trkpt><trkpt lat="43.87839259826575" lon="10.742554699884744"><ele>24.75</ele><time>2026-05-02T07:32:35.997Z</time></trkpt><trkpt lat="43.87840017541651" lon="10.742387520853041"><ele>24.0</ele><time>2026-05-02T07:32:36.997Z</time></trkpt><trkpt lat="43.87841499957619" lon="10.742222468893916"><ele>23.75</ele><time>2026-05-02T07:32:37.997Z</time></trkpt><trkpt lat="43.87843247303026" lon="10.742060462863565"><ele>23.5</ele><time>2026-05-02T07:32:38.997Z</time></trkpt><trkpt lat="43.87844958995142" lon="10.741896922332568"><ele>23.25</ele><time>2026-05-02T07:32:39.997Z</time></trkpt><trkpt lat="43.878464322844714" lon="10.741736245803956"><ele>23.0</ele><time>2026-05-02T07:32:40.997Z</time></trkpt><trkpt lat="43.87847796859173" lon="10.741576369917247"><ele>23.599999999999998</ele><time>2026-05-02T07:32:41.997Z</time></trkpt><trkpt lat="43.87848714644448" lon="10.74142796690168"><ele>24.2</ele><time>2026-05-02T07:32:42.997Z</time></trkpt><trkpt lat="43.87849568198984" lon="10.741284151102022"><ele>24.8</ele><time>2026-05-02T07:32:43.997Z</time></trkpt><trkpt lat="43.878504027142895" lon="10.741141659815138"><ele>25.4</ele><time>2026-05-02T07:32:44.997Z</time></trkpt><trkpt lat="43.87851249086485" lon="10.741001855678292"><ele>26.0</ele><time>2026-05-02T07:32:45.997Z</time></trkpt><trkpt lat="43.878527294043614" lon="10.740853512784804"><ele>26.4</ele><time>2026-05-02T07:32:46.997Z</time></trkpt><trkpt lat="43.878550870943656" lon="10.740711222302417"><ele>26.8</ele><time>2026-05-02T07:32:47.997Z</time></trkpt><trkpt lat="43.87858222297303" lon="10.74056878898351"><ele>27.199999999999996</ele><time>2026-05-02T07:32:48.997Z</time></trkpt><trkpt lat="43.878619660194104" lon="10.740422205157122"><ele>27.599999999999998</ele><time>2026-05-02T07:32:49.997Z</time></trkpt><trkpt lat="43.87865979263101" lon="10.740275011532416"><ele>28.0</ele><time>2026-05-02T07:32:50.997Z</time></trkpt><trkpt lat="43.87870401764231" lon="10.740128323233165"><ele>28.0</ele><time>2026-05-02T07:32:51.997Z</time></trkpt><trkpt lat="43.87875198044881" lon="10.739984912084743"><ele>28.0</ele><time>2026-05-02T07:32:52.997Z</time></trkpt><trkpt lat="43.87880262963054" lon="10.739842473763472"><ele>28.0</ele><time>2026-05-02T07:32:53.996Z</time></trkpt><trkpt lat="43.87885327780644" lon="10.739697382873832"><ele>28.0</ele><time>2026-05-02T07:32:54.996Z</time></trkpt><trkpt lat="43.87889791888047" lon="10.739545130237927"><ele>28.0</ele><time>2026-05-02T07:32:55.996Z</time></trkpt><trkpt lat="43.87893146574393" lon="10.739389552395222"><ele>27.999999999999996</ele><time>2026-05-02T07:32:56.996Z</time></trkpt><trkpt lat="43.878955008885214" lon="10.739235235506172"><ele>27.999999999999996</ele><time>2026-05-02T07:32:57.996Z</time></trkpt><trkpt lat="43.878966903629234" lon="10.739088551810926"><ele>28.0</ele><time>2026-05-02T07:32:58.996Z</time></trkpt><trkpt lat="43.8789731545353" lon="10.738948802754223"><ele>28.0</ele><time>2026-05-02T07:32:59.996Z</time></trkpt><trkpt lat="43.878976141174554" lon="10.73882003350332"><ele>28.166666666666668</ele><time>2026-05-02T07:33:00.996Z</time></trkpt><trkpt lat="43.87897824410721" lon="10.738715259408998"><ele>28.333333333333336</ele><time>2026-05-02T07:33:01.996Z</time></trkpt><trkpt lat="43.87897818593872" lon="10.738617233383014"><ele>28.5</ele><time>2026-05-02T07:33:02.996Z</time></trkpt><trkpt lat="43.878975882993" lon="10.738528155775812"><ele>28.666666666666664</ele><time>2026-05-02T07:33:03.996Z</time></trkpt><trkpt lat="43.87896781679501" lon="10.738367770643373"><ele>28.833333333333332</ele><time>2026-05-02T07:33:05.998Z</time></trkpt><trkpt lat="43.87895168297711" lon="10.738234113204216"><ele>29.0</ele><time>2026-05-02T07:33:07.998Z</time></trkpt><trkpt lat="43.878933704406144" lon="10.738087237792469"><ele>28.999999999999996</ele><time>2026-05-02T07:33:09.998Z</time></trkpt><trkpt lat="43.87894154953799" lon="10.737995680472142"><ele>29.0</ele><time>2026-05-02T07:33:10.998Z</time></trkpt><trkpt lat="43.87896108477309" lon="10.737895504527497"><ele>29.0</ele><time>2026-05-02T07:33:11.998Z</time></trkpt><trkpt lat="43.87895813792132" lon="10.737781251163865"><ele>29.0</ele><time>2026-05-02T07:33:12.998Z</time></trkpt><trkpt lat="43.87895053533533" lon="10.73766149888594"><ele>28.999999999999996</ele><time>2026-05-02T07:33:13.998Z</time></trkpt><trkpt lat="43.87895588174234" lon="10.737546934596695"><ele>29.0</ele><time>2026-05-02T07:33:14.998Z</time></trkpt><trkpt lat="43.87896872711452" lon="10.737435819740359"><ele>29.4</ele><time>2026-05-02T07:33:15.998Z</time></trkpt><trkpt lat="43.87898004263595" lon="10.737324297293778"><ele>29.799999999999997</ele><time>2026-05-02T07:33:16.998Z</time></trkpt><trkpt lat="43.878985715896825" lon="10.73719030378236"><ele>30.200000000000003</ele><time>2026-05-02T07:33:17.998Z</time></trkpt><trkpt lat="43.87900288164015" lon="10.737028447085587"><ele>30.6</ele><time>2026-05-02T07:33:18.998Z</time></trkpt><trkpt lat="43.87900819947065" lon="10.736845034844693"><ele>31.0</ele><time>2026-05-02T07:33:19.998Z</time></trkpt><trkpt lat="43.87898814435068" lon="10.736648452153066"><ele>31.25</ele><time>2026-05-02T07:33:20.998Z</time></trkpt><trkpt lat="43.87899030498709" lon="10.73645917009086"><ele>31.5</ele><time>2026-05-02T07:33:21.998Z</time></trkpt><trkpt lat="43.87898956446622" lon="10.736281578825826"><ele>31.75</ele><time>2026-05-02T07:33:22.998Z</time></trkpt><trkpt lat="43.87898778812384" lon="10.73610906910521"><ele>32.0</ele><time>2026-05-02T07:33:23.998Z</time></trkpt><trkpt lat="43.878989004987545" lon="10.73593915238968"><ele>32.0</ele><time>2026-05-02T07:33:24.998Z</time></trkpt><trkpt lat="43.87898601546891" lon="10.735772847412024"><ele>32.0</ele><time>2026-05-02T07:33:25.998Z</time></trkpt><trkpt lat="43.87898216013565" lon="10.73560974322994"><ele>32.0</ele><time>2026-05-02T07:33:26.998Z</time></trkpt><trkpt lat="43.87896905127588" lon="10.735449965327483"><ele>32.0</ele><time>2026-05-02T07:33:27.998Z</time></trkpt><trkpt lat="43.878934023236134" lon="10.735291600276502"><ele>32.5</ele><time>2026-05-02T07:33:28.998Z</time></trkpt><trkpt lat="43.87887689132733" lon="10.73513109847618"><ele>33.0</ele><time>2026-05-02T07:33:29.998Z</time></trkpt><trkpt lat="43.878807885591605" lon="10.735004788390912"><ele>33.5</ele><time>2026-05-02T07:33:30.998Z</time></trkpt><trkpt lat="43.878734276013034" lon="10.734900721350735"><ele>34.0</ele><time>2026-05-02T07:33:31.998Z</time></trkpt><trkpt lat="43.8786626980565" lon="10.734799416108492"><ele>34.0</ele><time>2026-05-02T07:33:32.998Z</time></trkpt><trkpt lat="43.87859122331323" lon="10.734702552585459"><ele>34.0</ele><time>2026-05-02T07:33:33.998Z</time></trkpt><trkpt lat="43.87851622010664" lon="10.734604083578484"><ele>34.0</ele><time>2026-05-02T07:33:34.998Z</time></trkpt><trkpt lat="43.878438450742486" lon="10.734504872233146"><ele>34.0</ele><time>2026-05-02T07:33:35.998Z</time></trkpt><trkpt lat="43.878363469399666" lon="10.734403386604118"><ele>34.0</ele><time>2026-05-02T07:33:36.998Z</time></trkpt><trkpt lat="43.87829026721181" lon="10.73429947737323"><ele>34.16666666666667</ele><time>2026-05-02T07:33:37.998Z</time></trkpt><trkpt lat="43.87821827783464" lon="10.734191052364524"><ele>34.333333333333336</ele><time>2026-05-02T07:33:38.998Z</time></trkpt><trkpt lat="43.8781514938322" lon="10.734088669286958"><ele>34.5</ele><time>2026-05-02T07:33:39.998Z</time></trkpt><trkpt lat="43.8780877601142" lon="10.734011464969994"><ele>34.666666666666664</ele><time>2026-05-02T07:33:40.998Z</time></trkpt><trkpt lat="43.87802348214592" lon="10.733957697518553"><ele>34.83333333333333</ele><time>2026-05-02T07:33:41.998Z</time></trkpt><trkpt lat="43.87795825147342" lon="10.7339082352471"><ele>35.0</ele><time>2026-05-02T07:33:42.998Z</time></trkpt><trkpt lat="43.87789371417638" lon="10.73383370885147"><ele>35.0</ele><time>2026-05-02T07:33:43.998Z</time></trkpt><trkpt lat="43.8778374389512" lon="10.733734037181968"><ele>35.0</ele><time>2026-05-02T07:33:44.998Z</time></trkpt><trkpt lat="43.877798476868065" lon="10.73360674972064"><ele>35.0</ele><time>2026-05-02T07:33:45.998Z</time></trkpt><trkpt lat="43.87777417618147" lon="10.733469479002965"><ele>35.0</ele><time>2026-05-02T07:33:46.998Z</time></trkpt><trkpt lat="43.87774818324024" lon="10.733326532751317"><ele>35.0</ele><time>2026-05-02T07:33:47.998Z</time></trkpt><trkpt lat="43.87770789712714" lon="10.73318672225046"><ele>35.0</ele><time>2026-05-02T07:33:48.998Z</time></trkpt><trkpt lat="43.87766071436813" lon="10.73305007758548"><ele>35.0</ele><time>2026-05-02T07:33:49.998Z</time></trkpt><trkpt lat="43.87761710108889" lon="10.732910999597173"><ele>35.0</ele><time>2026-05-02T07:33:50.998Z</time></trkpt><trkpt lat="43.87757878401266" lon="10.732770453648413"><ele>35.0</ele><time>2026-05-02T07:33:51.998Z</time></trkpt><trkpt lat="43.877542853093374" lon="10.732635368998785"><ele>35.0</ele><time>2026-05-02T07:33:52.998Z</time></trkpt><trkpt lat="43.877510985475766" lon="10.732518470502212"><ele>35.0</ele><time>2026-05-02T07:33:53.998Z</time></trkpt><trkpt lat="43.87748548809079" lon="10.732412548747263"><ele>35.0</ele><time>2026-05-02T07:33:54.998Z</time></trkpt><trkpt lat="43.877465430707666" lon="10.732310553997422"><ele>35.0</ele><time>2026-05-02T07:33:55.998Z</time></trkpt><trkpt lat="43.877446149674405" lon="10.732216796960799"><ele>35.0</ele><time>2026-05-02T07:33:56.998Z</time></trkpt><trkpt lat="43.87742687336724" lon="10.732095076801519"><ele>35.0</ele><time>2026-05-02T07:33:58.998Z</time></trkpt><trkpt lat="43.87741025711225" lon="10.732001368337093"><ele>35.0</ele><time>2026-05-02T07:34:00.998Z</time></trkpt><trkpt lat="43.87739960639364" lon="10.731897561528328"><ele>35.166666666666664</ele><time>2026-05-02T07:34:02.998Z</time></trkpt><trkpt lat="43.877397301096096" lon="10.731787202080476"><ele>35.33333333333333</ele><time>2026-05-02T07:34:05.998Z</time></trkpt><trkpt lat="43.877391737131006" lon="10.731637932579527"><ele>35.5</ele><time>2026-05-02T07:34:40.997Z</time></trkpt><trkpt lat="43.87739051358877" lon="10.731549368505306"><ele>35.666666666666664</ele><time>2026-05-02T07:34:41.997Z</time></trkpt><trkpt lat="43.877389742039256" lon="10.731456532196177"><ele>35.833333333333336</ele><time>2026-05-02T07:34:42.997Z</time></trkpt><trkpt lat="43.87739109331588" lon="10.731355364894466"><ele>36.0</ele><time>2026-05-02T07:34:43.997Z</time></trkpt><trkpt lat="43.87739332077581" lon="10.73124261457077"><ele>36.0</ele><time>2026-05-02T07:34:44.997Z</time></trkpt><trkpt lat="43.877395040257625" lon="10.731119068382359"><ele>36.0</ele><time>2026-05-02T07:34:45.997Z</time></trkpt><trkpt lat="43.877400222801526" lon="10.7309860961366"><ele>36.0</ele><time>2026-05-02T07:34:46.997Z</time></trkpt><trkpt lat="43.877410730789265" lon="10.730849725675576"><ele>36.0</ele><time>2026-05-02T07:34:47.997Z</time></trkpt><trkpt lat="43.877424950051946" lon="10.730703051634897"><ele>36.0</ele><time>2026-05-02T07:34:48.997Z</time></trkpt><trkpt lat="43.87744022473496" lon="10.730550440837247"><ele>36.25</ele><time>2026-05-02T07:34:49.997Z</time></trkpt><trkpt lat="43.877458482160726" lon="10.730394309481254"><ele>36.5</ele><time>2026-05-02T07:34:50.997Z</time></trkpt><trkpt lat="43.87747825994383" lon="10.730238000367464"><ele>36.75</ele><time>2026-05-02T07:34:51.997Z</time></trkpt><trkpt lat="43.87750014179359" lon="10.730079187691118"><ele>37.0</ele><time>2026-05-02T07:34:52.997Z</time></trkpt><trkpt lat="43.8775231440252" lon="10.729919499852125"><ele>36.25</ele><time>2026-05-02T07:34:53.997Z</time></trkpt><trkpt lat="43.877545911382526" lon="10.729758949712547"><ele>35.5</ele><time>2026-05-02T07:34:54.997Z</time></trkpt><trkpt lat="43.877567424766106" lon="10.729598041312132"><ele>34.75</ele><time>2026-05-02T07:34:55.997Z</time></trkpt><trkpt lat="43.87759054649391" lon="10.72943549339896"><ele>34.0</ele><time>2026-05-02T07:34:56.997Z</time></trkpt><trkpt lat="43.8776146285948" lon="10.729268531302473"><ele>33.75</ele><time>2026-05-02T07:34:57.997Z</time></trkpt><trkpt lat="43.87763797488042" lon="10.729104680410986"><ele>33.5</ele><time>2026-05-02T07:34:58.997Z</time></trkpt><trkpt lat="43.877657623976134" lon="10.728937970576423"><ele>33.25</ele><time>2026-05-02T07:34:59.997Z</time></trkpt><trkpt lat="43.877681241767775" lon="10.728774877605419"><ele>33.0</ele><time>2026-05-02T07:35:00.997Z</time></trkpt><trkpt lat="43.877705654624265" lon="10.728610095013199"><ele>33.5</ele><time>2026-05-02T07:35:01.997Z</time></trkpt><trkpt lat="43.87772701960087" lon="10.728449881984494"><ele>34.0</ele><time>2026-05-02T07:35:02.997Z</time></trkpt><trkpt lat="43.8777498595724" lon="10.728290429719278"><ele>34.5</ele><time>2026-05-02T07:35:03.997Z</time></trkpt><trkpt lat="43.877768565627036" lon="10.728135227091373"><ele>35.0</ele><time>2026-05-02T07:35:04.997Z</time></trkpt><trkpt lat="43.877792969063044" lon="10.72797827458373"><ele>35.0</ele><time>2026-05-02T07:35:05.997Z</time></trkpt><trkpt lat="43.8778166819474" lon="10.72782203173075"><ele>35.0</ele><time>2026-05-02T07:35:06.997Z</time></trkpt><trkpt lat="43.87784098079659" lon="10.727667374285245"><ele>35.0</ele><time>2026-05-02T07:35:07.997Z</time></trkpt><trkpt lat="43.87786383006164" lon="10.727513900317676"><ele>35.0</ele><time>2026-05-02T07:35:08.997Z</time></trkpt><trkpt lat="43.87788335002297" lon="10.727376708016235"><ele>35.0</ele><time>2026-05-02T07:35:09.996Z</time></trkpt><trkpt lat="43.877896648646406" lon="10.727266887684245"><ele>35.166666666666664</ele><time>2026-05-02T07:35:10.998Z</time></trkpt><trkpt lat="43.87791458825096" lon="10.727120367226018"><ele>35.33333333333333</ele><time>2026-05-02T07:35:12.998Z</time></trkpt><trkpt lat="43.877930227408626" lon="10.727031546119305"><ele>35.5</ele><time>2026-05-02T07:35:14.998Z</time></trkpt><trkpt lat="43.877946841982876" lon="10.726943813662379"><ele>35.666666666666664</ele><time>2026-05-02T07:35:17.998Z</time></trkpt><trkpt lat="43.877952489791824" lon="10.726847310463176"><ele>35.833333333333336</ele><time>2026-05-02T07:35:40.999Z</time></trkpt><trkpt lat="43.87797898388464" lon="10.726676945067636"><ele>36.0</ele><time>2026-05-02T07:35:42.999Z</time></trkpt><trkpt lat="43.87799251294914" lon="10.726583026835852"><ele>36.0</ele><time>2026-05-02T07:35:43.999Z</time></trkpt><trkpt lat="43.878006736075235" lon="10.72648153494514"><ele>36.0</ele><time>2026-05-02T07:35:44.999Z</time></trkpt><trkpt lat="43.878021743486954" lon="10.726372588863073"><ele>36.0</ele><time>2026-05-02T07:35:45.999Z</time></trkpt><trkpt lat="43.87803708046957" lon="10.726257696846908"><ele>36.0</ele><time>2026-05-02T07:35:46.999Z</time></trkpt><trkpt lat="43.87804715045628" lon="10.726143350890798"><ele>36.0</ele><time>2026-05-02T07:35:47.999Z</time></trkpt><trkpt lat="43.87805566632202" lon="10.7260267921558"><ele>36.0</ele><time>2026-05-02T07:35:48.999Z</time></trkpt><trkpt lat="43.87807360233148" lon="10.725904207705938"><ele>36.8</ele><time>2026-05-02T07:35:49.999Z</time></trkpt><trkpt lat="43.87809910106777" lon="10.725773412814819"><ele>37.6</ele><time>2026-05-02T07:35:50.999Z</time></trkpt><trkpt lat="43.878124823907555" lon="10.725634299840943"><ele>38.4</ele><time>2026-05-02T07:35:51.999Z</time></trkpt><trkpt lat="43.87814874039453" lon="10.725489182380155"><ele>39.2</ele><time>2026-05-02T07:35:52.999Z</time></trkpt><trkpt lat="43.87817625824815" lon="10.725343900678183"><ele>40.0</ele><time>2026-05-02T07:35:53.999Z</time></trkpt><trkpt lat="43.87820908530626" lon="10.725192716921145"><ele>41.25</ele><time>2026-05-02T07:35:54.998Z</time></trkpt><trkpt lat="43.87824542179421" lon="10.725036713033827"><ele>42.5</ele><time>2026-05-02T07:35:55.998Z</time></trkpt><trkpt lat="43.87828541350896" lon="10.724875994948665"><ele>43.75</ele><time>2026-05-02T07:35:56.998Z</time></trkpt><trkpt lat="43.878329266742526" lon="10.724713712191836"><ele>45.0</ele><time>2026-05-02T07:35:57.998Z</time></trkpt><trkpt lat="43.87837971631281" lon="10.724548607034986"><ele>44.0</ele><time>2026-05-02T07:35:58.998Z</time></trkpt><trkpt lat="43.87843451238869" lon="10.724381027251937"><ele>43.0</ele><time>2026-05-02T07:35:59.998Z</time></trkpt><trkpt lat="43.87849500701759" lon="10.724214288524553"><ele>42.0</ele><time>2026-05-02T07:36:00.998Z</time></trkpt><trkpt lat="43.878558945063496" lon="10.724046864831168"><ele>41.0</ele><time>2026-05-02T07:36:01.998Z</time></trkpt><trkpt lat="43.87862671289585" lon="10.723879531315411"><ele>40.75</ele><time>2026-05-02T07:36:02.998Z</time></trkpt><trkpt lat="43.8786935715214" lon="10.723708774906854"><ele>40.5</ele><time>2026-05-02T07:36:03.998Z</time></trkpt><trkpt lat="43.87876291650125" lon="10.723533294187387"><ele>40.25</ele><time>2026-05-02T07:36:04.998Z</time></trkpt><trkpt lat="43.87883132592952" lon="10.72335602227265"><ele>40.0</ele><time>2026-05-02T07:36:05.998Z</time></trkpt><trkpt lat="43.87890132090274" lon="10.723177423205401"><ele>39.0</ele><time>2026-05-02T07:36:06.998Z</time></trkpt><trkpt lat="43.87897404359907" lon="10.722996025209726"><ele>38.0</ele><time>2026-05-02T07:36:07.998Z</time></trkpt><trkpt lat="43.879045594139605" lon="10.722814903557346"><ele>37.0</ele><time>2026-05-02T07:36:08.998Z</time></trkpt><trkpt lat="43.87911962497884" lon="10.722630281805168"><ele>36.75</ele><time>2026-05-02T07:36:09.998Z</time></trkpt><trkpt lat="43.87919272192856" lon="10.72244809102253"><ele>36.5</ele><time>2026-05-02T07:36:10.998Z</time></trkpt><trkpt lat="43.879265636665025" lon="10.722266733514335"><ele>36.25</ele><time>2026-05-02T07:36:11.998Z</time></trkpt><trkpt lat="43.87933706754428" lon="10.722086948263264"><ele>36.0</ele><time>2026-05-02T07:36:12.998Z</time></trkpt><trkpt lat="43.87940831779147" lon="10.721908879807895"><ele>35.75</ele><time>2026-05-02T07:36:13.998Z</time></trkpt><trkpt lat="43.879479944089" lon="10.72173803746659"><ele>35.5</ele><time>2026-05-02T07:36:14.998Z</time></trkpt><trkpt lat="43.87954693445006" lon="10.721569545198141"><ele>35.25</ele><time>2026-05-02T07:36:15.998Z</time></trkpt><trkpt lat="43.87961090830599" lon="10.72140968019303"><ele>35.0</ele><time>2026-05-02T07:36:16.998Z</time></trkpt><trkpt lat="43.87966613883443" lon="10.72126091386978"><ele>35.0</ele><time>2026-05-02T07:36:17.998Z</time></trkpt><trkpt lat="43.879717214315335" lon="10.721109715109687"><ele>35.0</ele><time>2026-05-02T07:36:18.998Z</time></trkpt><trkpt lat="43.879766348687475" lon="10.720953968853266"><ele>35.0</ele><time>2026-05-02T07:36:19.998Z</time></trkpt><trkpt lat="43.87981233996242" lon="10.720799713828072"><ele>35.0</ele><time>2026-05-02T07:36:20.998Z</time></trkpt><trkpt lat="43.87985874945486" lon="10.720647528636508"><ele>35.0</ele><time>2026-05-02T07:36:21.998Z</time></trkpt><trkpt lat="43.87989979641801" lon="10.720492627587516"><ele>35.0</ele><time>2026-05-02T07:36:22.998Z</time></trkpt><trkpt lat="43.87992762126842" lon="10.7203315246593"><ele>35.0</ele><time>2026-05-02T07:36:23.998Z</time></trkpt><trkpt lat="43.879935288787024" lon="10.720169538863903"><ele>35.0</ele><time>2026-05-02T07:36:24.998Z</time></trkpt><trkpt lat="43.87994340798621" lon="10.720000266217907"><ele>35.0</ele><time>2026-05-02T07:36:25.998Z</time></trkpt><trkpt lat="43.87995208682446" lon="10.719829572904631"><ele>35.0</ele><time>2026-05-02T07:36:26.998Z</time></trkpt><trkpt lat="43.879962313498766" lon="10.719654920716911"><ele>35.0</ele><time>2026-05-02T07:36:27.998Z</time></trkpt><trkpt lat="43.87997278386655" lon="10.719478180787268"><ele>35.0</ele><time>2026-05-02T07:36:28.998Z</time></trkpt><trkpt lat="43.87998327158525" lon="10.71929711707303"><ele>35.0</ele><time>2026-05-02T07:36:29.998Z</time></trkpt><trkpt lat="43.87999460710104" lon="10.719114346974925"><ele>35.0</ele><time>2026-05-02T07:36:30.998Z</time></trkpt><trkpt lat="43.880003470606916" lon="10.718929467455773"><ele>35.0</ele><time>2026-05-02T07:36:31.998Z</time></trkpt><trkpt lat="43.88001516725217" lon="10.718744662333544"><ele>35.0</ele><time>2026-05-02T07:36:32.998Z</time></trkpt><trkpt lat="43.880033965513206" lon="10.718560542850154"><ele>35.0</ele><time>2026-05-02T07:36:33.998Z</time></trkpt><trkpt lat="43.88005730179325" lon="10.718377879250369"><ele>35.0</ele><time>2026-05-02T07:36:34.998Z</time></trkpt><trkpt lat="43.88008174045708" lon="10.718195183438086"><ele>35.0</ele><time>2026-05-02T07:36:35.998Z</time></trkpt><trkpt lat="43.880109300984145" lon="10.718012482514437"><ele>35.0</ele><time>2026-05-02T07:36:36.998Z</time></trkpt><trkpt lat="43.88013630984216" lon="10.717829705166873"><ele>35.25</ele><time>2026-05-02T07:36:37.998Z</time></trkpt><trkpt lat="43.880163123490895" lon="10.717648369915052"><ele>35.5</ele><time>2026-05-02T07:36:38.998Z</time></trkpt><trkpt lat="43.88018973295224" lon="10.717464842272793"><ele>35.75</ele><time>2026-05-02T07:36:39.998Z</time></trkpt><trkpt lat="43.880217987916524" lon="10.71728220876223"><ele>36.0</ele><time>2026-05-02T07:36:40.998Z</time></trkpt><trkpt lat="43.88024726599009" lon="10.7171005027515"><ele>36.0</ele><time>2026-05-02T07:36:41.998Z</time></trkpt><trkpt lat="43.88027673529916" lon="10.716917930362984"><ele>36.0</ele><time>2026-05-02T07:36:42.998Z</time></trkpt><trkpt lat="43.880304548404986" lon="10.716732784696234"><ele>36.0</ele><time>2026-05-02T07:36:43.998Z</time></trkpt><trkpt lat="43.88033078717737" lon="10.71654775254594"><ele>36.0</ele><time>2026-05-02T07:36:44.998Z</time></trkpt><trkpt lat="43.88035897901952" lon="10.71636472944749"><ele>35.75</ele><time>2026-05-02T07:36:45.998Z</time></trkpt><trkpt lat="43.88038763290187" lon="10.71618208163717"><ele>35.5</ele><time>2026-05-02T07:36:46.998Z</time></trkpt><trkpt lat="43.88041534316592" lon="10.716001656450855"><ele>35.25</ele><time>2026-05-02T07:36:47.998Z</time></trkpt><trkpt lat="43.880441547213394" lon="10.715819779590095"><ele>35.0</ele><time>2026-05-02T07:36:48.998Z</time></trkpt><trkpt lat="43.88046833616318" lon="10.715639980045074"><ele>35.5</ele><time>2026-05-02T07:36:49.998Z</time></trkpt><trkpt lat="43.880495207560735" lon="10.715462793394481"><ele>36.0</ele><time>2026-05-02T07:36:50.998Z</time></trkpt><trkpt lat="43.88052208258522" lon="10.715286439554765"><ele>36.5</ele><time>2026-05-02T07:36:51.997Z</time></trkpt><trkpt lat="43.88055323836192" lon="10.715110210331497"><ele>37.0</ele><time>2026-05-02T07:36:52.997Z</time></trkpt><trkpt lat="43.88058366764545" lon="10.714934321977218"><ele>37.5</ele><time>2026-05-02T07:36:53.997Z</time></trkpt><trkpt lat="43.88061237141535" lon="10.714761440349157"><ele>38.0</ele><time>2026-05-02T07:36:54.997Z</time></trkpt><trkpt lat="43.88063956313124" lon="10.714586397532107"><ele>38.5</ele><time>2026-05-02T07:36:55.997Z</time></trkpt><trkpt lat="43.88066611283628" lon="10.714412972682274"><ele>39.0</ele><time>2026-05-02T07:36:56.997Z</time></trkpt><trkpt lat="43.88069137361777" lon="10.714240356838697"><ele>39.0</ele><time>2026-05-02T07:36:57.997Z</time></trkpt><trkpt lat="43.88071150692703" lon="10.714073590624578"><ele>39.0</ele><time>2026-05-02T07:36:58.997Z</time></trkpt><trkpt lat="43.88072061136039" lon="10.713916797693658"><ele>39.0</ele><time>2026-05-02T07:36:59.997Z</time></trkpt><trkpt lat="43.88071581047002" lon="10.713769332143299"><ele>39.0</ele><time>2026-05-02T07:37:00.997Z</time></trkpt><trkpt lat="43.880693061586165" lon="10.713638328233204"><ele>39.0</ele><time>2026-05-02T07:37:01.997Z</time></trkpt><trkpt lat="43.88066440540586" lon="10.713535116553418"><ele>39.285714285714285</ele><time>2026-05-02T07:37:02.997Z</time></trkpt><trkpt lat="43.8806385923361" lon="10.71342210025752"><ele>39.57142857142857</ele><time>2026-05-02T07:37:04.997Z</time></trkpt><trkpt lat="43.88067150821082" lon="10.713328064734336"><ele>39.857142857142854</ele><time>2026-05-02T07:37:06.997Z</time></trkpt><trkpt lat="43.88070242807211" lon="10.713243244301934"><ele>40.14285714285714</ele><time>2026-05-02T07:37:07.997Z</time></trkpt><trkpt lat="43.88070731059566" lon="10.713132542508516"><ele>40.42857142857143</ele><time>2026-05-02T07:37:08.997Z</time></trkpt><trkpt lat="43.88068704392119" lon="10.713045605427835"><ele>40.71428571428571</ele><time>2026-05-02T07:37:09.997Z</time></trkpt><trkpt lat="43.88064923704784" lon="10.712962188752346"><ele>41.0</ele><time>2026-05-02T07:37:10.997Z</time></trkpt><trkpt lat="43.88060640358616" lon="10.71289531542452"><ele>41.0</ele><time>2026-05-02T07:37:11.997Z</time></trkpt><trkpt lat="43.88057425690339" lon="10.712818865958592"><ele>41.0</ele><time>2026-05-02T07:37:12.997Z</time></trkpt><trkpt lat="43.88057302216804" lon="10.712644398608928"><ele>41.0</ele><time>2026-05-02T07:37:14.997Z</time></trkpt><trkpt lat="43.88059639915214" lon="10.712560598313598"><ele>41.0</ele><time>2026-05-02T07:37:15.997Z</time></trkpt><trkpt lat="43.880626121209595" lon="10.712482635741091"><ele>41.0</ele><time>2026-05-02T07:37:16.999Z</time></trkpt><trkpt lat="43.88068597635614" lon="10.712339668355662"><ele>41.0</ele><time>2026-05-02T07:37:18.999Z</time></trkpt><trkpt lat="43.88067336244676" lon="10.712236165651847"><ele>41.0</ele><time>2026-05-02T07:37:19.999Z</time></trkpt><trkpt lat="43.880658208339256" lon="10.712105436864325"><ele>41.0</ele><time>2026-05-02T07:37:20.999Z</time></trkpt><trkpt lat="43.88066350755876" lon="10.711953151536388"><ele>41.0</ele><time>2026-05-02T07:37:21.999Z</time></trkpt><trkpt lat="43.880645617486074" lon="10.711789500032685"><ele>41.0</ele><time>2026-05-02T07:37:22.999Z</time></trkpt><trkpt lat="43.880625791807006" lon="10.711611202884196"><ele>41.25</ele><time>2026-05-02T07:37:23.999Z</time></trkpt><trkpt lat="43.88060601836163" lon="10.711435765059855"><ele>41.5</ele><time>2026-05-02T07:37:24.999Z</time></trkpt><trkpt lat="43.8805840177451" lon="10.711247412933789"><ele>41.75</ele><time>2026-05-02T07:37:25.999Z</time></trkpt><trkpt lat="43.880561910895665" lon="10.71105112706033"><ele>42.0</ele><time>2026-05-02T07:37:26.999Z</time></trkpt><trkpt lat="43.88053963149735" lon="10.710843561240988"><ele>42.5</ele><time>2026-05-02T07:37:27.999Z</time></trkpt><trkpt lat="43.88051796974676" lon="10.710642406900785"><ele>43.0</ele><time>2026-05-02T07:37:28.999Z</time></trkpt><trkpt lat="43.8804949929965" lon="10.710442989893984"><ele>43.5</ele><time>2026-05-02T07:37:29.999Z</time></trkpt><trkpt lat="43.8804748651979" lon="10.710256640717995"><ele>44.0</ele><time>2026-05-02T07:37:30.999Z</time></trkpt><trkpt lat="43.88045627384031" lon="10.710079978015541"><ele>44.0</ele><time>2026-05-02T07:37:31.999Z</time></trkpt><trkpt lat="43.88043555635605" lon="10.709899409987395"><ele>44.0</ele><time>2026-05-02T07:37:32.999Z</time></trkpt><trkpt lat="43.88041365670179" lon="10.709715719402999"><ele>44.0</ele><time>2026-05-02T07:37:33.999Z</time></trkpt><trkpt lat="43.88039585810948" lon="10.709539546574826"><ele>44.0</ele><time>2026-05-02T07:37:34.999Z</time></trkpt><trkpt lat="43.88037843939341" lon="10.709358303065068"><ele>44.0</ele><time>2026-05-02T07:37:35.999Z</time></trkpt><trkpt lat="43.88036168118974" lon="10.709175858306825"><ele>44.0</ele><time>2026-05-02T07:37:36.999Z</time></trkpt><trkpt lat="43.88034029443112" lon="10.708992369019098"><ele>44.0</ele><time>2026-05-02T07:37:37.999Z</time></trkpt><trkpt lat="43.88031841220156" lon="10.708806335954195"><ele>44.0</ele><time>2026-05-02T07:37:38.999Z</time></trkpt><trkpt lat="43.88029511478117" lon="10.708618298211116"><ele>43.5</ele><time>2026-05-02T07:37:39.999Z</time></trkpt><trkpt lat="43.88027304206656" lon="10.70842662651265"><ele>43.0</ele><time>2026-05-02T07:37:40.999Z</time></trkpt><trkpt lat="43.88024996345153" lon="10.708233894669613"><ele>42.5</ele><time>2026-05-02T07:37:41.999Z</time></trkpt><trkpt lat="43.880227022503654" lon="10.708034304770944"><ele>42.0</ele><time>2026-05-02T07:37:42.999Z</time></trkpt><trkpt lat="43.88020293129012" lon="10.707837656613872"><ele>42.25</ele><time>2026-05-02T07:37:43.999Z</time></trkpt><trkpt lat="43.88018099401619" lon="10.707639610256434"><ele>42.5</ele><time>2026-05-02T07:37:44.999Z</time></trkpt><trkpt lat="43.88016200572392" lon="10.707446043014222"><ele>42.75</ele><time>2026-05-02T07:37:45.999Z</time></trkpt><trkpt lat="43.88013971684552" lon="10.707266360877504"><ele>43.0</ele><time>2026-05-02T07:37:46.999Z</time></trkpt><trkpt lat="43.8801183714285" lon="10.70708791503518"><ele>42.25</ele><time>2026-05-02T07:37:47.999Z</time></trkpt><trkpt lat="43.880097702487845" lon="10.70691031465757"><ele>41.5</ele><time>2026-05-02T07:37:48.999Z</time></trkpt><trkpt lat="43.88007625548465" lon="10.706730618602602"><ele>40.75</ele><time>2026-05-02T07:37:49.999Z</time></trkpt><trkpt lat="43.88005395542912" lon="10.706545190459382"><ele>40.0</ele><time>2026-05-02T07:37:50.999Z</time></trkpt><trkpt lat="43.880032524623395" lon="10.706358133705159"><ele>40.0</ele><time>2026-05-02T07:37:51.999Z</time></trkpt><trkpt lat="43.88001135469572" lon="10.706169545951369"><ele>40.0</ele><time>2026-05-02T07:37:52.999Z</time></trkpt><trkpt lat="43.879988441163405" lon="10.705979342187488"><ele>40.0</ele><time>2026-05-02T07:37:53.999Z</time></trkpt><trkpt lat="43.879967547860645" lon="10.705787947319415"><ele>40.0</ele><time>2026-05-02T07:37:54.999Z</time></trkpt><trkpt lat="43.87994942170638" lon="10.705599508026632"><ele>39.0</ele><time>2026-05-02T07:37:55.999Z</time></trkpt><trkpt lat="43.87993230661389" lon="10.705414208804134"><ele>38.0</ele><time>2026-05-02T07:37:56.999Z</time></trkpt><trkpt lat="43.87991385648164" lon="10.705233376494233"><ele>37.0</ele><time>2026-05-02T07:37:57.999Z</time></trkpt><trkpt lat="43.879889932992995" lon="10.705057231149787"><ele>36.0</ele><time>2026-05-02T07:37:58.999Z</time></trkpt><trkpt lat="43.87985811761303" lon="10.704884223188003"><ele>35.25</ele><time>2026-05-02T07:37:59.999Z</time></trkpt><trkpt lat="43.879809590746795" lon="10.704716193952864"><ele>34.5</ele><time>2026-05-02T07:38:00.999Z</time></trkpt><trkpt lat="43.87975795250716" lon="10.704552099690853"><ele>33.75</ele><time>2026-05-02T07:38:01.999Z</time></trkpt><trkpt lat="43.879701554284104" lon="10.704380082544189"><ele>33.0</ele><time>2026-05-02T07:38:02.999Z</time></trkpt><trkpt lat="43.8796439284356" lon="10.70420193092396"><ele>32.5</ele><time>2026-05-02T07:38:03.999Z</time></trkpt><trkpt lat="43.879584086439124" lon="10.704027066455621"><ele>32.0</ele><time>2026-05-02T07:38:04.999Z</time></trkpt><trkpt lat="43.879519722243806" lon="10.703853936777929"><ele>31.5</ele><time>2026-05-02T07:38:05.999Z</time></trkpt><trkpt lat="43.879454053837534" lon="10.703683094727921"><ele>31.0</ele><time>2026-05-02T07:38:06.999Z</time></trkpt><trkpt lat="43.87938796275216" lon="10.70351834278357"><ele>31.0</ele><time>2026-05-02T07:38:07.999Z</time></trkpt><trkpt lat="43.87931952132123" lon="10.703353833554633"><ele>31.0</ele><time>2026-05-02T07:38:08.999Z</time></trkpt><trkpt lat="43.879253055166785" lon="10.70319475410918"><ele>31.0</ele><time>2026-05-02T07:38:09.999Z</time></trkpt><trkpt lat="43.87918941552047" lon="10.70303825039871"><ele>31.0</ele><time>2026-05-02T07:38:10.999Z</time></trkpt><trkpt lat="43.879129738536676" lon="10.702885314541371"><ele>30.75</ele><time>2026-05-02T07:38:11.999Z</time></trkpt><trkpt lat="43.87907592513862" lon="10.702734523847909"><ele>30.5</ele><time>2026-05-02T07:38:12.999Z</time></trkpt><trkpt lat="43.87902860802704" lon="10.702582967956642"><ele>30.25</ele><time>2026-05-02T07:38:13.999Z</time></trkpt><trkpt lat="43.87899049465039" lon="10.70242595556067"><ele>30.0</ele><time>2026-05-02T07:38:14.999Z</time></trkpt><trkpt lat="43.87896148222476" lon="10.702270969529975"><ele>30.0</ele><time>2026-05-02T07:38:15.999Z</time></trkpt><trkpt lat="43.878936629158346" lon="10.702125143694373"><ele>30.0</ele><time>2026-05-02T07:38:16.999Z</time></trkpt><trkpt lat="43.878924965641914" lon="10.701984879144396"><ele>30.0</ele><time>2026-05-02T07:38:17.999Z</time></trkpt><trkpt lat="43.87891187279962" lon="10.701836811049178"><ele>30.0</ele><time>2026-05-02T07:38:18.999Z</time></trkpt><trkpt lat="43.87890308595253" lon="10.701691507815394"><ele>30.0</ele><time>2026-05-02T07:38:19.999Z</time></trkpt><trkpt lat="43.878902731197975" lon="10.701552388263627"><ele>30.0</ele><time>2026-05-02T07:38:20.999Z</time></trkpt><trkpt lat="43.87891041475003" lon="10.701415043788236"><ele>30.0</ele><time>2026-05-02T07:38:21.999Z</time></trkpt><trkpt lat="43.878925191320214" lon="10.70128776436473"><ele>30.0</ele><time>2026-05-02T07:38:22.999Z</time></trkpt><trkpt lat="43.87894010415149" lon="10.70116410119932"><ele>30.0</ele><time>2026-05-02T07:38:23.999Z</time></trkpt><trkpt lat="43.87895514746305" lon="10.701046722580662"><ele>30.0</ele><time>2026-05-02T07:38:24.999Z</time></trkpt><trkpt lat="43.87896830300471" lon="10.70093243183171"><ele>30.0</ele><time>2026-05-02T07:38:25.999Z</time></trkpt><trkpt lat="43.87897986685157" lon="10.700810232919387"><ele>30.0</ele><time>2026-05-02T07:38:26.999Z</time></trkpt><trkpt lat="43.87898913895402" lon="10.700684767895005"><ele>30.0</ele><time>2026-05-02T07:38:27.999Z</time></trkpt><trkpt lat="43.87899644424413" lon="10.700560956845278"><ele>30.0</ele><time>2026-05-02T07:38:28.999Z</time></trkpt><trkpt lat="43.87899897336399" lon="10.700442778600658"><ele>30.0</ele><time>2026-05-02T07:38:29.998Z</time></trkpt><trkpt lat="43.87898859130022" lon="10.700329019980288"><ele>30.0</ele><time>2026-05-02T07:38:30.998Z</time></trkpt><trkpt lat="43.87898570690608" lon="10.700213539851621"><ele>30.0</ele><time>2026-05-02T07:38:31.998Z</time></trkpt><trkpt lat="43.87895803105561" lon="10.700118440991343"><ele>30.0</ele><time>2026-05-02T07:38:32.998Z</time></trkpt><trkpt lat="43.87892333727038" lon="10.700033395452884"><ele>30.0</ele><time>2026-05-02T07:38:33.998Z</time></trkpt><trkpt lat="43.878898943811684" lon="10.699942021626386"><ele>30.0</ele><time>2026-05-02T07:38:34.998Z</time></trkpt><trkpt lat="43.878894873881194" lon="10.699843119583182"><ele>30.0</ele><time>2026-05-02T07:38:35.998Z</time></trkpt><trkpt lat="43.878911111390074" lon="10.699741643546352"><ele>30.0</ele><time>2026-05-02T07:38:36.998Z</time></trkpt><trkpt lat="43.878925112711464" lon="10.699651870413982"><ele>30.0</ele><time>2026-05-02T07:38:37.998Z</time></trkpt><trkpt lat="43.87894020027386" lon="10.699554127381793"><ele>30.0</ele><time>2026-05-02T07:38:38.998Z</time></trkpt><trkpt lat="43.87895989487265" lon="10.699420853720461"><ele>30.0</ele><time>2026-05-02T07:38:39.998Z</time></trkpt><trkpt lat="43.87897486000713" lon="10.699271536951406"><ele>30.0</ele><time>2026-05-02T07:38:40.998Z</time></trkpt><trkpt lat="43.878986114920174" lon="10.699096368271022"><ele>30.0</ele><time>2026-05-02T07:38:41.998Z</time></trkpt><trkpt lat="43.87899732565064" lon="10.698903517122323"><ele>29.666666666666664</ele><time>2026-05-02T07:38:42.998Z</time></trkpt><trkpt lat="43.87900870245515" lon="10.69869679124544"><ele>29.333333333333332</ele><time>2026-05-02T07:38:43.998Z</time></trkpt><trkpt lat="43.87902149281564" lon="10.698493067042506"><ele>29.0</ele><time>2026-05-02T07:38:44.998Z</time></trkpt><trkpt lat="43.87904203255984" lon="10.698279604849764"><ele>29.0</ele><time>2026-05-02T07:38:45.998Z</time></trkpt><trkpt lat="43.87907827946284" lon="10.698066209272165"><ele>29.0</ele><time>2026-05-02T07:38:46.998Z</time></trkpt><trkpt lat="43.87913187264095" lon="10.697855034345418"><ele>29.0</ele><time>2026-05-02T07:38:47.998Z</time></trkpt><trkpt lat="43.87919231382275" lon="10.69764414975452"><ele>29.333333333333332</ele><time>2026-05-02T07:38:48.998Z</time></trkpt><trkpt lat="43.87924172538706" lon="10.6974257267287"><ele>29.666666666666664</ele><time>2026-05-02T07:38:49.998Z</time></trkpt><trkpt lat="43.879257775507945" lon="10.697208630852666"><ele>30.0</ele><time>2026-05-02T07:38:50.998Z</time></trkpt><trkpt lat="43.87924703906613" lon="10.697001991616625"><ele>30.5</ele><time>2026-05-02T07:38:51.998Z</time></trkpt><trkpt lat="43.879216992063355" lon="10.696809081338058"><ele>31.0</ele><time>2026-05-02T07:38:52.998Z</time></trkpt><trkpt lat="43.879168141551695" lon="10.69663009128167"><ele>31.5</ele><time>2026-05-02T07:38:53.998Z</time></trkpt><trkpt lat="43.87907981978804" lon="10.69646775507576"><ele>32.0</ele><time>2026-05-02T07:38:54.998Z</time></trkpt><trkpt lat="43.879014431150914" lon="10.696313099397482"><ele>32.0</ele><time>2026-05-02T07:38:55.998Z</time></trkpt><trkpt lat="43.878954475384816" lon="10.69617023361812"><ele>32.0</ele><time>2026-05-02T07:38:56.998Z</time></trkpt><trkpt lat="43.8789053233967" lon="10.696045758317737"><ele>32.0</ele><time>2026-05-02T07:38:57.998Z</time></trkpt><trkpt lat="43.87885978110535" lon="10.695919315936841"><ele>32.0</ele><time>2026-05-02T07:38:58.998Z</time></trkpt><trkpt lat="43.87880737419488" lon="10.695781915425439"><ele>32.0</ele><time>2026-05-02T07:38:59.998Z</time></trkpt><trkpt lat="43.87875101327116" lon="10.695634738145008"><ele>31.75</ele><time>2026-05-02T07:39:00.998Z</time></trkpt><trkpt lat="43.87869232409163" lon="10.695481472549412"><ele>31.5</ele><time>2026-05-02T07:39:01.998Z</time></trkpt><trkpt lat="43.878631872719104" lon="10.695321708563826"><ele>31.25</ele><time>2026-05-02T07:39:02.998Z</time></trkpt><trkpt lat="43.878571934958835" lon="10.695157526483891"><ele>31.0</ele><time>2026-05-02T07:39:03.998Z</time></trkpt><trkpt lat="43.8785099533867" lon="10.69499428596663"><ele>31.0</ele><time>2026-05-02T07:39:04.998Z</time></trkpt><trkpt lat="43.87844724787394" lon="10.694832769827578"><ele>31.0</ele><time>2026-05-02T07:39:05.998Z</time></trkpt><trkpt lat="43.878386352235786" lon="10.694673409034555"><ele>31.0</ele><time>2026-05-02T07:39:06.998Z</time></trkpt><trkpt lat="43.87832615862556" lon="10.694512318725698"><ele>31.0</ele><time>2026-05-02T07:39:07.998Z</time></trkpt><trkpt lat="43.87826665609552" lon="10.694353231440918"><ele>30.5</ele><time>2026-05-02T07:39:08.998Z</time></trkpt><trkpt lat="43.87820883049813" lon="10.694194471282904"><ele>30.0</ele><time>2026-05-02T07:39:09.998Z</time></trkpt><trkpt lat="43.878152284558524" lon="10.694035099267778"><ele>29.5</ele><time>2026-05-02T07:39:10.998Z</time></trkpt><trkpt lat="43.87810285913766" lon="10.693871838715832"><ele>29.0</ele><time>2026-05-02T07:39:11.998Z</time></trkpt><trkpt lat="43.878072550576796" lon="10.693700872199537"><ele>28.5</ele><time>2026-05-02T07:39:12.998Z</time></trkpt><trkpt lat="43.87806513541758" lon="10.693529151080801"><ele>28.0</ele><time>2026-05-02T07:39:13.998Z</time></trkpt><trkpt lat="43.8780725253948" lon="10.693364960081116"><ele>27.5</ele><time>2026-05-02T07:39:14.998Z</time></trkpt><trkpt lat="43.87808711753178" lon="10.693219998652893"><ele>27.0</ele><time>2026-05-02T07:39:15.998Z</time></trkpt><trkpt lat="43.87811109287801" lon="10.693082906764335"><ele>27.0</ele><time>2026-05-02T07:39:16.998Z</time></trkpt><trkpt lat="43.878141264767144" lon="10.692947054389931"><ele>27.000000000000004</ele><time>2026-05-02T07:39:17.998Z</time></trkpt><trkpt lat="43.878179855160646" lon="10.692807903023951"><ele>27.000000000000004</ele><time>2026-05-02T07:39:18.998Z</time></trkpt><trkpt lat="43.878225948116786" lon="10.69267539808511"><ele>27.0</ele><time>2026-05-02T07:39:19.998Z</time></trkpt><trkpt lat="43.87827375776393" lon="10.6925497444952"><ele>27.0</ele><time>2026-05-02T07:39:20.998Z</time></trkpt><trkpt lat="43.878322695407824" lon="10.692417494324792"><ele>27.400000000000002</ele><time>2026-05-02T07:39:21.998Z</time></trkpt><trkpt lat="43.87836960045763" lon="10.692284938349463"><ele>27.800000000000004</ele><time>2026-05-02T07:39:22.999Z</time></trkpt><trkpt lat="43.87841525868324" lon="10.692153231360763"><ele>28.2</ele><time>2026-05-02T07:39:23.999Z</time></trkpt><trkpt lat="43.87846262244256" lon="10.692024957242282"><ele>28.6</ele><time>2026-05-02T07:39:24.999Z</time></trkpt><trkpt lat="43.878509626841876" lon="10.69189280359539"><ele>29.0</ele><time>2026-05-02T07:39:25.999Z</time></trkpt><trkpt lat="43.8785552624884" lon="10.691762134769423"><ele>29.2</ele><time>2026-05-02T07:39:26.999Z</time></trkpt><trkpt lat="43.87860311706269" lon="10.691634036764631"><ele>29.4</ele><time>2026-05-02T07:39:27.999Z</time></trkpt><trkpt lat="43.87865015949893" lon="10.69150710569357"><ele>29.6</ele><time>2026-05-02T07:39:28.999Z</time></trkpt><trkpt lat="43.87869594275508" lon="10.691377444109138"><ele>29.8</ele><time>2026-05-02T07:39:29.999Z</time></trkpt><trkpt lat="43.878743508519264" lon="10.69124735432984"><ele>30.0</ele><time>2026-05-02T07:39:30.999Z</time></trkpt><trkpt lat="43.878786765105005" lon="10.69112070066632"><ele>30.0</ele><time>2026-05-02T07:39:31.999Z</time></trkpt><trkpt lat="43.878824060280046" lon="10.690999525209214"><ele>30.0</ele><time>2026-05-02T07:39:32.999Z</time></trkpt><trkpt lat="43.87886777063659" lon="10.690875727987182"><ele>30.0</ele><time>2026-05-02T07:39:33.999Z</time></trkpt><trkpt lat="43.878910810312675" lon="10.69075812089691"><ele>30.0</ele><time>2026-05-02T07:39:34.999Z</time></trkpt><trkpt lat="43.878956748752614" lon="10.690637693566906"><ele>30.0</ele><time>2026-05-02T07:39:35.999Z</time></trkpt><trkpt lat="43.8789991580862" lon="10.69052516430401"><ele>30.0</ele><time>2026-05-02T07:39:36.999Z</time></trkpt><trkpt lat="43.87904076670943" lon="10.690415825371904"><ele>30.0</ele><time>2026-05-02T07:39:37.999Z</time></trkpt><trkpt lat="43.879081593343855" lon="10.690304513532494"><ele>30.0</ele><time>2026-05-02T07:39:38.999Z</time></trkpt><trkpt lat="43.879114806157" lon="10.690197806455926"><ele>30.0</ele><time>2026-05-02T07:39:39.999Z</time></trkpt><trkpt lat="43.87915086252291" lon="10.69009626492301"><ele>30.0</ele><time>2026-05-02T07:39:40.999Z</time></trkpt><trkpt lat="43.87918508061984" lon="10.690003189791565"><ele>30.0</ele><time>2026-05-02T07:39:41.999Z</time></trkpt><trkpt lat="43.87922039296738" lon="10.68986681019281"><ele>30.166666666666668</ele><time>2026-05-02T07:39:43.999Z</time></trkpt><trkpt lat="43.879252826318684" lon="10.689788008745603"><ele>30.333333333333336</ele><time>2026-05-02T07:39:54.999Z</time></trkpt><trkpt lat="43.879285783082345" lon="10.68969203664791"><ele>30.5</ele><time>2026-05-02T07:39:56.999Z</time></trkpt><trkpt lat="43.879296515231474" lon="10.68956171045586"><ele>30.666666666666668</ele><time>2026-05-02T07:39:58.999Z</time></trkpt><trkpt lat="43.87931379532421" lon="10.689477455629254"><ele>30.833333333333336</ele><time>2026-05-02T07:39:59.999Z</time></trkpt><trkpt lat="43.879344819542595" lon="10.689340557902463"><ele>31.0</ele><time>2026-05-02T07:40:01.999Z</time></trkpt><trkpt lat="43.87936810850627" lon="10.689205519374218"><ele>31.500000000000004</ele><time>2026-05-02T07:40:03.999Z</time></trkpt><trkpt lat="43.87938783854191" lon="10.689067536484124"><ele>32.0</ele><time>2026-05-02T07:40:05.999Z</time></trkpt><trkpt lat="43.87940832187273" lon="10.688940161753203"><ele>32.5</ele><time>2026-05-02T07:40:07.999Z</time></trkpt><trkpt lat="43.87941495114867" lon="10.688841322458279"><ele>33.0</ele><time>2026-05-02T07:40:09.999Z</time></trkpt><trkpt lat="43.879423975058074" lon="10.688752306315171"><ele>33.5</ele><time>2026-05-02T07:40:11.999Z</time></trkpt><trkpt lat="43.87943312832539" lon="10.688628627265402"><ele>34.0</ele><time>2026-05-02T07:40:45.999Z</time></trkpt><trkpt lat="43.87944398910876" lon="10.688495006610017"><ele>34.2</ele><time>2026-05-02T07:40:47.999Z</time></trkpt><trkpt lat="43.87945095959378" lon="10.688360593391533"><ele>34.4</ele><time>2026-05-02T07:40:49.998Z</time></trkpt><trkpt lat="43.87945365435832" lon="10.688213331663826"><ele>34.6</ele><time>2026-05-02T07:40:51.998Z</time></trkpt><trkpt lat="43.87950059124395" lon="10.688056367564547"><ele>34.8</ele><time>2026-05-02T07:40:53.998Z</time></trkpt><trkpt lat="43.87956014247165" lon="10.688007653396365"><ele>35.0</ele><time>2026-05-02T07:40:54.998Z</time></trkpt><trkpt lat="43.87962553597889" lon="10.687969119599384"><ele>35.0</ele><time>2026-05-02T07:40:55.998Z</time></trkpt><trkpt lat="43.87968898788728" lon="10.68792764100269"><ele>35.0</ele><time>2026-05-02T07:40:56.998Z</time></trkpt><trkpt lat="43.879752011631794" lon="10.687886507410393"><ele>35.0</ele><time>2026-05-02T07:40:57.998Z</time></trkpt><trkpt lat="43.87981629062331" lon="10.687849851488846"><ele>35.0</ele><time>2026-05-02T07:40:58.998Z</time></trkpt><trkpt lat="43.87987813623776" lon="10.68782235354895"><ele>35.0</ele><time>2026-05-02T07:40:59.998Z</time></trkpt><trkpt lat="43.87994306794845" lon="10.687800987857822"><ele>35.0</ele><time>2026-05-02T07:41:00.998Z</time></trkpt><trkpt lat="43.88001485038068" lon="10.687785396703251"><ele>35.0</ele><time>2026-05-02T07:41:01.998Z</time></trkpt><trkpt lat="43.88009430470984" lon="10.687769107677324"><ele>35.33333333333333</ele><time>2026-05-02T07:41:02.998Z</time></trkpt><trkpt lat="43.880176611981476" lon="10.687755861644817"><ele>35.666666666666664</ele><time>2026-05-02T07:41:03.998Z</time></trkpt><trkpt lat="43.880261491904676" lon="10.687746453187923"><ele>36.0</ele><time>2026-05-02T07:41:04.998Z</time></trkpt><trkpt lat="43.880341773039" lon="10.687737871688935"><ele>36.333333333333336</ele><time>2026-05-02T07:41:05.998Z</time></trkpt><trkpt lat="43.880418124370664" lon="10.6877570662642"><ele>36.66666666666667</ele><time>2026-05-02T07:41:06.998Z</time></trkpt><trkpt lat="43.88049922666428" lon="10.687730100759302"><ele>37.0</ele><time>2026-05-02T07:41:07.998Z</time></trkpt><trkpt lat="43.8805816050013" lon="10.687724049179467"><ele>37.0</ele><time>2026-05-02T07:41:08.998Z</time></trkpt><trkpt lat="43.88066670817285" lon="10.687719476757671"><ele>37.0</ele><time>2026-05-02T07:41:09.998Z</time></trkpt><trkpt lat="43.88074680016626" lon="10.6877129453726"><ele>37.0</ele><time>2026-05-02T07:41:10.998Z</time></trkpt><trkpt lat="43.880827568449554" lon="10.687710254425108"><ele>37.0</ele><time>2026-05-02T07:41:11.998Z</time></trkpt><trkpt lat="43.88090832475914" lon="10.687711160931817"><ele>37.0</ele><time>2026-05-02T07:41:12.998Z</time></trkpt><trkpt lat="43.88098195449881" lon="10.68770612736734"><ele>37.0</ele><time>2026-05-02T07:41:13.998Z</time></trkpt><trkpt lat="43.8810469825754" lon="10.687700415116213"><ele>37.0</ele><time>2026-05-02T07:41:14.998Z</time></trkpt><trkpt lat="43.88111043131438" lon="10.68769575912289"><ele>37.0</ele><time>2026-05-02T07:41:15.998Z</time></trkpt><trkpt lat="43.88123130346651" lon="10.687696123881736"><ele>37.0</ele><time>2026-05-02T07:41:17.998Z</time></trkpt><trkpt lat="43.88130029096865" lon="10.687697878245771"><ele>37.0</ele><time>2026-05-02T07:41:18.998Z</time></trkpt><trkpt lat="43.881373839695314" lon="10.687697302253802"><ele>37.0</ele><time>2026-05-02T07:41:19.998Z</time></trkpt><trkpt lat="43.881451587890886" lon="10.687696817316745"><ele>37.0</ele><time>2026-05-02T07:41:20.998Z</time></trkpt><trkpt lat="43.881526997602215" lon="10.687701063021978"><ele>37.0</ele><time>2026-05-02T07:41:21.998Z</time></trkpt><trkpt lat="43.881604397306496" lon="10.687699225491707"><ele>37.0</ele><time>2026-05-02T07:41:22.998Z</time></trkpt><trkpt lat="43.88168911665499" lon="10.687704922067745"><ele>37.0</ele><time>2026-05-02T07:41:23.998Z</time></trkpt><trkpt lat="43.88177594329901" lon="10.687710463377343"><ele>37.0</ele><time>2026-05-02T07:41:24.998Z</time></trkpt><trkpt lat="43.881863168404834" lon="10.687711338197326"><ele>37.0</ele><time>2026-05-02T07:41:25.998Z</time></trkpt><trkpt lat="43.88195159561783" lon="10.687711813773662"><ele>37.0</ele><time>2026-05-02T07:41:26.998Z</time></trkpt><trkpt lat="43.882037017616184" lon="10.687713512240942"><ele>37.142857142857146</ele><time>2026-05-02T07:41:28Z</time></trkpt><trkpt lat="43.88211685551729" lon="10.68771695640553"><ele>37.285714285714285</ele><time>2026-05-02T07:41:29Z</time></trkpt><trkpt lat="43.88219809386755" lon="10.687717915673721"><ele>37.42857142857143</ele><time>2026-05-02T07:41:30Z</time></trkpt><trkpt lat="43.88227318219499" lon="10.68771640870683"><ele>37.57142857142857</ele><time>2026-05-02T07:41:31Z</time></trkpt><trkpt lat="43.88234483656581" lon="10.687715073986045"><ele>37.714285714285715</ele><time>2026-05-02T07:41:32Z</time></trkpt><trkpt lat="43.88241317455221" lon="10.687722217474851"><ele>37.857142857142854</ele><time>2026-05-02T07:41:33Z</time></trkpt><trkpt lat="43.88247804439897" lon="10.687725006439447"><ele>38.0</ele><time>2026-05-02T07:41:34Z</time></trkpt><trkpt lat="43.88256129558718" lon="10.687712172585815"><ele>38.199999999999996</ele><time>2026-05-02T07:41:36Z</time></trkpt><trkpt lat="43.88262990469432" lon="10.687685866022413"><ele>38.4</ele><time>2026-05-02T07:41:38Z</time></trkpt><trkpt lat="43.882696541858756" lon="10.687676090146171"><ele>38.599999999999994</ele><time>2026-05-02T07:41:40Z</time></trkpt><trkpt lat="43.88280332605907" lon="10.687696396887207"><ele>38.8</ele><time>2026-05-02T07:41:42Z</time></trkpt><trkpt lat="43.88289328868554" lon="10.687579039875308"><ele>39.0</ele><time>2026-05-02T07:41:44Z</time></trkpt><trkpt lat="43.882882542764904" lon="10.687463750611219"><ele>39.0</ele><time>2026-05-02T07:41:45Z</time></trkpt><trkpt lat="43.882899259010806" lon="10.68732477593598"><ele>39.0</ele><time>2026-05-02T07:41:46Z</time></trkpt><trkpt lat="43.88290520735968" lon="10.687170866883951"><ele>39.0</ele><time>2026-05-02T07:41:47Z</time></trkpt><trkpt lat="43.88293932240707" lon="10.687000229999336"><ele>39.0</ele><time>2026-05-02T07:41:48Z</time></trkpt><trkpt lat="43.882976994947384" lon="10.686809712078489"><ele>39.0</ele><time>2026-05-02T07:41:49Z</time></trkpt><trkpt lat="43.88301223334301" lon="10.686601697615668"><ele>39.0</ele><time>2026-05-02T07:41:50Z</time></trkpt><trkpt lat="43.88304656331902" lon="10.686390367151533"><ele>39.0</ele><time>2026-05-02T07:41:51Z</time></trkpt><trkpt lat="43.88308377535615" lon="10.686184291443547"><ele>39.0</ele><time>2026-05-02T07:41:52Z</time></trkpt><trkpt lat="43.883121654304595" lon="10.685982058124699"><ele>39.0</ele><time>2026-05-02T07:41:53Z</time></trkpt><trkpt lat="43.883161865856955" lon="10.685789834661122"><ele>39.0</ele><time>2026-05-02T07:41:54Z</time></trkpt><trkpt lat="43.88320735862835" lon="10.685605961152474"><ele>39.0</ele><time>2026-05-02T07:41:55Z</time></trkpt><trkpt lat="43.883255334462575" lon="10.685439437400605"><ele>39.0</ele><time>2026-05-02T07:41:56Z</time></trkpt><trkpt lat="43.88330424343439" lon="10.685301299706124"><ele>39.0</ele><time>2026-05-02T07:41:57Z</time></trkpt><trkpt lat="43.88335355848306" lon="10.685194430100461"><ele>39.0</ele><time>2026-05-02T07:41:58Z</time></trkpt><trkpt lat="43.883415066126915" lon="10.685106347322584"><ele>39.0</ele><time>2026-05-02T07:41:59Z</time></trkpt><trkpt lat="43.88347517128617" lon="10.685001112859938"><ele>39.0</ele><time>2026-05-02T07:42:00Z</time></trkpt><trkpt lat="43.88358664892234" lon="10.684934423501224"><ele>39.25</ele><time>2026-05-02T07:42:01Z</time></trkpt><trkpt lat="43.883654459837686" lon="10.68478972353676"><ele>39.5</ele><time>2026-05-02T07:42:02Z</time></trkpt><trkpt lat="43.88368248520771" lon="10.684614041470088"><ele>39.75</ele><time>2026-05-02T07:42:03Z</time></trkpt><trkpt lat="43.88379026584486" lon="10.684501687331284"><ele>40.0</ele><time>2026-05-02T07:42:04Z</time></trkpt><trkpt lat="43.88390082647278" lon="10.684423735022479"><ele>40.25</ele><time>2026-05-02T07:42:05Z</time></trkpt><trkpt lat="43.884035137682524" lon="10.684365527460466"><ele>40.5</ele><time>2026-05-02T07:42:06Z</time></trkpt><trkpt lat="43.8841828720133" lon="10.684314860257697"><ele>40.75</ele><time>2026-05-02T07:42:07Z</time></trkpt><trkpt lat="43.88433487689323" lon="10.684272812119318"><ele>41.0</ele><time>2026-05-02T07:42:08Z</time></trkpt><trkpt lat="43.8844975817056" lon="10.684242147246325"><ele>41.0</ele><time>2026-05-02T07:42:09Z</time></trkpt><trkpt lat="43.88466187062315" lon="10.68420252057282"><ele>41.0</ele><time>2026-05-02T07:42:10Z</time></trkpt><trkpt lat="43.88482315514407" lon="10.684146437745719"><ele>41.0</ele><time>2026-05-02T07:42:11Z</time></trkpt><trkpt lat="43.884970050242046" lon="10.684054220208315"><ele>41.666666666666664</ele><time>2026-05-02T07:42:11.999Z</time></trkpt><trkpt lat="43.88509621310518" lon="10.683916357045879"><ele>42.333333333333336</ele><time>2026-05-02T07:42:12.999Z</time></trkpt><trkpt lat="43.885198233063754" lon="10.683746391480879"><ele>43.0</ele><time>2026-05-02T07:42:13.999Z</time></trkpt><trkpt lat="43.88527481711633" lon="10.68355357927934"><ele>44.0</ele><time>2026-05-02T07:42:14.999Z</time></trkpt><trkpt lat="43.88532376772233" lon="10.683350240989299"><ele>45.0</ele><time>2026-05-02T07:42:15.999Z</time></trkpt><trkpt lat="43.88531721793176" lon="10.68313028362522"><ele>46.0</ele><time>2026-05-02T07:42:16.999Z</time></trkpt><trkpt lat="43.885292694642466" lon="10.682918317679983"><ele>46.25</ele><time>2026-05-02T07:42:17.999Z</time></trkpt><trkpt lat="43.88524342781943" lon="10.682717086256858"><ele>46.5</ele><time>2026-05-02T07:42:18.999Z</time></trkpt><trkpt lat="43.885188213100626" lon="10.682530545669698"><ele>46.75</ele><time>2026-05-02T07:42:19.999Z</time></trkpt><trkpt lat="43.88513519801965" lon="10.6823549629634"><ele>47.0</ele><time>2026-05-02T07:42:20.999Z</time></trkpt><trkpt lat="43.88508649681643" lon="10.682194807627518"><ele>47.6</ele><time>2026-05-02T07:42:21.999Z</time></trkpt><trkpt lat="43.88504359528722" lon="10.68204619863285"><ele>48.2</ele><time>2026-05-02T07:42:22.999Z</time></trkpt><trkpt lat="43.8850156082817" lon="10.68191035019958"><ele>48.8</ele><time>2026-05-02T07:42:23.999Z</time></trkpt><trkpt lat="43.88501849987349" lon="10.681789280809724"><ele>49.4</ele><time>2026-05-02T07:42:24.999Z</time></trkpt><trkpt lat="43.88505570197151" lon="10.681686118762919"><ele>50.0</ele><time>2026-05-02T07:42:25.999Z</time></trkpt><trkpt lat="43.885113705475256" lon="10.681582407741494"><ele>51.0</ele><time>2026-05-02T07:42:26.999Z</time></trkpt><trkpt lat="43.88517269922665" lon="10.681466383728864"><ele>52.0</ele><time>2026-05-02T07:42:27.999Z</time></trkpt><trkpt lat="43.88523011125365" lon="10.681348799975442"><ele>53.0</ele><time>2026-05-02T07:42:28.999Z</time></trkpt><trkpt lat="43.88528343596852" lon="10.681241700772782"><ele>54.0</ele><time>2026-05-02T07:42:29.999Z</time></trkpt><trkpt lat="43.885332139825024" lon="10.681146954963937"><ele>55.0</ele><time>2026-05-02T07:42:30.999Z</time></trkpt><trkpt lat="43.88537695914167" lon="10.681053838218858"><ele>55.8</ele><time>2026-05-02T07:42:31.999Z</time></trkpt><trkpt lat="43.88542558331089" lon="10.680955791877732"><ele>56.6</ele><time>2026-05-02T07:42:32.999Z</time></trkpt><trkpt lat="43.88547661320645" lon="10.680853328499067"><ele>57.400000000000006</ele><time>2026-05-02T07:42:33.999Z</time></trkpt><trkpt lat="43.8855322133095" lon="10.680750146328602"><ele>58.2</ele><time>2026-05-02T07:42:34.999Z</time></trkpt><trkpt lat="43.88558665598186" lon="10.680642836628683"><ele>59.0</ele><time>2026-05-02T07:42:35.999Z</time></trkpt><trkpt lat="43.88563947139168" lon="10.68053563919365"><ele>59.0</ele><time>2026-05-02T07:42:36.999Z</time></trkpt><trkpt lat="43.88569505350283" lon="10.6804247880756"><ele>59.00000000000001</ele><time>2026-05-02T07:42:37.999Z</time></trkpt><trkpt lat="43.88575163598041" lon="10.680320062557497"><ele>59.00000000000001</ele><time>2026-05-02T07:42:38.999Z</time></trkpt><trkpt lat="43.885804789262856" lon="10.680218976664008"><ele>59.0</ele><time>2026-05-02T07:42:39.999Z</time></trkpt><trkpt lat="43.88586068967821" lon="10.680117922380784"><ele>59.0</ele><time>2026-05-02T07:42:40.999Z</time></trkpt><trkpt lat="43.88591657984899" lon="10.680027196220891"><ele>58.833333333333336</ele><time>2026-05-02T07:42:41.999Z</time></trkpt><trkpt lat="43.88596904220682" lon="10.679947928855489"><ele>58.66666666666667</ele><time>2026-05-02T07:42:42.999Z</time></trkpt><trkpt lat="43.88602241240493" lon="10.679868162781695"><ele>58.5</ele><time>2026-05-02T07:42:43.999Z</time></trkpt><trkpt lat="43.88607179948094" lon="10.679788596784386"><ele>58.33333333333333</ele><time>2026-05-02T07:42:44.999Z</time></trkpt><trkpt lat="43.886114965916974" lon="10.679714144025315"><ele>58.166666666666664</ele><time>2026-05-02T07:42:45.999Z</time></trkpt><trkpt lat="43.886192373296254" lon="10.679573084581058"><ele>58.0</ele><time>2026-05-02T07:42:47.999Z</time></trkpt><trkpt lat="43.88624948954704" lon="10.679508753159382"><ele>58.599999999999994</ele><time>2026-05-02T07:42:48.999Z</time></trkpt><trkpt lat="43.88630898009669" lon="10.679412209342733"><ele>59.199999999999996</ele><time>2026-05-02T07:42:49.999Z</time></trkpt><trkpt lat="43.88636514317152" lon="10.679299126739702"><ele>59.8</ele><time>2026-05-02T07:42:50.999Z</time></trkpt><trkpt lat="43.88643939479017" lon="10.679190595049102"><ele>60.4</ele><time>2026-05-02T07:42:51.999Z</time></trkpt><trkpt lat="43.8865036406313" lon="10.679074504745705"><ele>61.0</ele><time>2026-05-02T07:42:52.999Z</time></trkpt><trkpt lat="43.88655487803754" lon="10.678977677591375"><ele>61.0</ele><time>2026-05-02T07:42:53.999Z</time></trkpt><trkpt lat="43.886633341512024" lon="10.678861070908154"><ele>60.99999999999999</ele><time>2026-05-02T07:42:55.999Z</time></trkpt><trkpt lat="43.88673539714373" lon="10.678823704264"><ele>60.99999999999999</ele><time>2026-05-02T07:42:57.999Z</time></trkpt><trkpt lat="43.88683062384311" lon="10.678833180516724"><ele>61.0</ele><time>2026-05-02T07:42:59.999Z</time></trkpt><trkpt lat="43.88688862611093" lon="10.678726313309202"><ele>61.0</ele><time>2026-05-02T07:43:01.999Z</time></trkpt><trkpt lat="43.886879134333185" lon="10.678622775904397"><ele>60.8</ele><time>2026-05-02T07:43:02.999Z</time></trkpt><trkpt lat="43.886855218424" lon="10.678517705974919"><ele>60.599999999999994</ele><time>2026-05-02T07:43:03.999Z</time></trkpt><trkpt lat="43.88684405821474" lon="10.678397367972426"><ele>60.4</ele><time>2026-05-02T07:43:04.999Z</time></trkpt><trkpt lat="43.88684095686531" lon="10.67826659658716"><ele>60.2</ele><time>2026-05-02T07:43:05.999Z</time></trkpt><trkpt lat="43.88683999837139" lon="10.678136202670073"><ele>60.0</ele><time>2026-05-02T07:43:06.999Z</time></trkpt><trkpt lat="43.88684422306641" lon="10.678003330975152"><ele>60.0</ele><time>2026-05-02T07:43:07.999Z</time></trkpt><trkpt lat="43.88685205030717" lon="10.677860015942324"><ele>60.0</ele><time>2026-05-02T07:43:08.999Z</time></trkpt><trkpt lat="43.886855955019875" lon="10.677709248819706"><ele>60.0</ele><time>2026-05-02T07:43:09.999Z</time></trkpt><trkpt lat="43.88685565347666" lon="10.677555821763884"><ele>60.0</ele><time>2026-05-02T07:43:10.999Z</time></trkpt><trkpt lat="43.886860063490374" lon="10.677399452837802"><ele>60.0</ele><time>2026-05-02T07:43:11.999Z</time></trkpt><trkpt lat="43.88687171214136" lon="10.677243293759645"><ele>61.0</ele><time>2026-05-02T07:43:12.999Z</time></trkpt><trkpt lat="43.88687986083517" lon="10.677092649762697"><ele>62.0</ele><time>2026-05-02T07:43:13.999Z</time></trkpt><trkpt lat="43.886887089867486" lon="10.676936255781097"><ele>63.0</ele><time>2026-05-02T07:43:14.999Z</time></trkpt><trkpt lat="43.88689635537731" lon="10.676778139821305"><ele>64.0</ele><time>2026-05-02T07:43:15.999Z</time></trkpt><trkpt lat="43.88690481059674" lon="10.676619986201537"><ele>64.75</ele><time>2026-05-02T07:43:16.999Z</time></trkpt><trkpt lat="43.886915532404316" lon="10.676458505866854"><ele>65.5</ele><time>2026-05-02T07:43:17.999Z</time></trkpt><trkpt lat="43.88692856998778" lon="10.6762948198773"><ele>66.25</ele><time>2026-05-02T07:43:18.999Z</time></trkpt><trkpt lat="43.88694274992302" lon="10.676141529359388"><ele>67.0</ele><time>2026-05-02T07:43:19.998Z</time></trkpt><trkpt lat="43.88695308232065" lon="10.675998827186142"><ele>67.0</ele><time>2026-05-02T07:43:20.998Z</time></trkpt><trkpt lat="43.886960253478144" lon="10.675864770839542"><ele>67.0</ele><time>2026-05-02T07:43:21.998Z</time></trkpt><trkpt lat="43.886961860622584" lon="10.675764077842617"><ele>67.0</ele><time>2026-05-02T07:43:22.998Z</time></trkpt><trkpt lat="43.88697127708006" lon="10.675621530279813"><ele>67.0</ele><time>2026-05-02T07:43:24.998Z</time></trkpt><trkpt lat="43.886994909674" lon="10.675439690075219"><ele>67.0</ele><time>2026-05-02T07:43:26.998Z</time></trkpt><trkpt lat="43.8870064777655" lon="10.675317154719774"><ele>66.25</ele><time>2026-05-02T07:43:27.998Z</time></trkpt><trkpt lat="43.88701801260303" lon="10.675175838308396"><ele>65.5</ele><time>2026-05-02T07:43:28.998Z</time></trkpt><trkpt lat="43.887037245010916" lon="10.675018810651913"><ele>64.75</ele><time>2026-05-02T07:43:29.998Z</time></trkpt><trkpt lat="43.88706172333735" lon="10.674850376953113"><ele>64.0</ele><time>2026-05-02T07:43:30.998Z</time></trkpt><trkpt lat="43.88709117405614" lon="10.67466843220836"><ele>64.0</ele><time>2026-05-02T07:43:31.998Z</time></trkpt><trkpt lat="43.88712512559803" lon="10.674483309511558"><ele>64.0</ele><time>2026-05-02T07:43:32.998Z</time></trkpt><trkpt lat="43.88716241119432" lon="10.6742871580465"><ele>64.0</ele><time>2026-05-02T07:43:34Z</time></trkpt><trkpt lat="43.88720267607469" lon="10.674084851209043"><ele>64.0</ele><time>2026-05-02T07:43:35Z</time></trkpt><trkpt lat="43.887247136063166" lon="10.673880068294508"><ele>64.0</ele><time>2026-05-02T07:43:36Z</time></trkpt><trkpt lat="43.8872942183008" lon="10.673670746607252"><ele>64.0</ele><time>2026-05-02T07:43:37Z</time></trkpt><trkpt lat="43.88733995964744" lon="10.673462318429761"><ele>64.0</ele><time>2026-05-02T07:43:38Z</time></trkpt><trkpt lat="43.887383845147156" lon="10.673256820730936"><ele>64.25</ele><time>2026-05-02T07:43:39Z</time></trkpt><trkpt lat="43.88742764845261" lon="10.6730569196565"><ele>64.5</ele><time>2026-05-02T07:43:40Z</time></trkpt><trkpt lat="43.88747157404744" lon="10.672860526136068"><ele>64.75</ele><time>2026-05-02T07:43:41Z</time></trkpt><trkpt lat="43.88751540107134" lon="10.672671986474331"><ele>65.0</ele><time>2026-05-02T07:43:42Z</time></trkpt><trkpt lat="43.88756026167358" lon="10.672481542675063"><ele>65.0</ele><time>2026-05-02T07:43:43Z</time></trkpt><trkpt lat="43.887608064662075" lon="10.67228996250878"><ele>65.0</ele><time>2026-05-02T07:43:44Z</time></trkpt><trkpt lat="43.88765698756266" lon="10.672097036252497"><ele>65.0</ele><time>2026-05-02T07:43:45Z</time></trkpt><trkpt lat="43.887703585494364" lon="10.67189979161571"><ele>65.0</ele><time>2026-05-02T07:43:46Z</time></trkpt><trkpt lat="43.88774865900859" lon="10.671698229484054"><ele>66.0</ele><time>2026-05-02T07:43:47Z</time></trkpt><trkpt lat="43.88779263557887" lon="10.671497455468021"><ele>67.0</ele><time>2026-05-02T07:43:48Z</time></trkpt><trkpt lat="43.88783993562917" lon="10.671298161378822"><ele>68.0</ele><time>2026-05-02T07:43:49Z</time></trkpt><trkpt lat="43.88788721821995" lon="10.671098734299154"><ele>68.5</ele><time>2026-05-02T07:43:50Z</time></trkpt><trkpt lat="43.88793664341694" lon="10.670903027407922"><ele>69.0</ele><time>2026-05-02T07:43:51Z</time></trkpt><trkpt lat="43.88798725300025" lon="10.670709678769118"><ele>69.5</ele><time>2026-05-02T07:43:52Z</time></trkpt><trkpt lat="43.88804711938653" lon="10.670519664890806"><ele>70.0</ele><time>2026-05-02T07:43:53Z</time></trkpt><trkpt lat="43.888119839324034" lon="10.67033674047963"><ele>70.0</ele><time>2026-05-02T07:43:54Z</time></trkpt><trkpt lat="43.88820879384408" lon="10.670168931214548"><ele>70.0</ele><time>2026-05-02T07:43:55Z</time></trkpt><trkpt lat="43.88830614607665" lon="10.670010806488452"><ele>70.0</ele><time>2026-05-02T07:43:56Z</time></trkpt><trkpt lat="43.88841126807721" lon="10.669854580953361"><ele>71.0</ele><time>2026-05-02T07:43:57Z</time></trkpt><trkpt lat="43.8885177177367" lon="10.669699734958373"><ele>72.0</ele><time>2026-05-02T07:43:58Z</time></trkpt><trkpt lat="43.8886255409945" lon="10.66954123062504"><ele>73.0</ele><time>2026-05-02T07:43:59Z</time></trkpt><trkpt lat="43.88873518887009" lon="10.669384777414392"><ele>73.0</ele><time>2026-05-02T07:44:00Z</time></trkpt><trkpt lat="43.88884400101426" lon="10.669227434970042"><ele>73.0</ele><time>2026-05-02T07:44:01Z</time></trkpt><trkpt lat="43.888951353480486" lon="10.669068093591493"><ele>73.0</ele><time>2026-05-02T07:44:02Z</time></trkpt><trkpt lat="43.88906078840695" lon="10.668907810861016"><ele>73.0</ele><time>2026-05-02T07:44:03Z</time></trkpt><trkpt lat="43.889168412023174" lon="10.668750454084057"><ele>73.0</ele><time>2026-05-02T07:44:04Z</time></trkpt><trkpt lat="43.88927569710963" lon="10.668593303260257"><ele>73.0</ele><time>2026-05-02T07:44:05Z</time></trkpt><trkpt lat="43.889382930270294" lon="10.6684372830337"><ele>74.33333333333333</ele><time>2026-05-02T07:44:06Z</time></trkpt><trkpt lat="43.88949043319823" lon="10.668280273757263"><ele>75.66666666666667</ele><time>2026-05-02T07:44:07Z</time></trkpt><trkpt lat="43.88959978818495" lon="10.668122703888404"><ele>77.0</ele><time>2026-05-02T07:44:08Z</time></trkpt><trkpt lat="43.88970980774122" lon="10.667965734318438"><ele>77.0</ele><time>2026-05-02T07:44:09Z</time></trkpt><trkpt lat="43.889819874951634" lon="10.667808524335882"><ele>77.0</ele><time>2026-05-02T07:44:10Z</time></trkpt><trkpt lat="43.88993136272624" lon="10.667649927113915"><ele>77.0</ele><time>2026-05-02T07:44:11Z</time></trkpt><trkpt lat="43.89004029928798" lon="10.667491513120213"><ele>78.66666666666667</ele><time>2026-05-02T07:44:12Z</time></trkpt><trkpt lat="43.890149224471536" lon="10.667333705174803"><ele>80.33333333333333</ele><time>2026-05-02T07:44:13Z</time></trkpt><trkpt lat="43.890260439349156" lon="10.667173489145394"><ele>82.0</ele><time>2026-05-02T07:44:14Z</time></trkpt><trkpt lat="43.89036779770209" lon="10.66701622872827"><ele>81.75</ele><time>2026-05-02T07:44:15Z</time></trkpt><trkpt lat="43.8904698614643" lon="10.666863292194371"><ele>81.5</ele><time>2026-05-02T07:44:16Z</time></trkpt><trkpt lat="43.89057211851706" lon="10.66671497180576"><ele>81.25</ele><time>2026-05-02T07:44:17Z</time></trkpt><trkpt lat="43.890672554925395" lon="10.66656835729117"><ele>81.0</ele><time>2026-05-02T07:44:18Z</time></trkpt><trkpt lat="43.89076977573708" lon="10.666426017698793"><ele>81.0</ele><time>2026-05-02T07:44:19Z</time></trkpt><trkpt lat="43.890863686170434" lon="10.666288415192096"><ele>81.0</ele><time>2026-05-02T07:44:19.999Z</time></trkpt><trkpt lat="43.89095554158968" lon="10.666154456381618"><ele>81.0</ele><time>2026-05-02T07:44:20.999Z</time></trkpt><trkpt lat="43.89104480714769" lon="10.666023224145851"><ele>81.0</ele><time>2026-05-02T07:44:21.999Z</time></trkpt><trkpt lat="43.89113257385647" lon="10.665896972628213"><ele>82.0</ele><time>2026-05-02T07:44:22.999Z</time></trkpt><trkpt lat="43.891216362806965" lon="10.665775742887282"><ele>83.0</ele><time>2026-05-02T07:44:23.999Z</time></trkpt><trkpt lat="43.89129795235819" lon="10.665656984801437"><ele>84.0</ele><time>2026-05-02T07:44:24.999Z</time></trkpt><trkpt lat="43.89137627608125" lon="10.66554200754361"><ele>85.0</ele><time>2026-05-02T07:44:25.999Z</time></trkpt><trkpt lat="43.89145082860867" lon="10.66543525382598"><ele>85.0</ele><time>2026-05-02T07:44:26.999Z</time></trkpt><trkpt lat="43.89152336512354" lon="10.665333946624084"><ele>85.0</ele><time>2026-05-02T07:44:27.999Z</time></trkpt><trkpt lat="43.891595142852104" lon="10.665234143389428"><ele>85.0</ele><time>2026-05-02T07:44:28.999Z</time></trkpt><trkpt lat="43.89166618665928" lon="10.665129462694594"><ele>85.0</ele><time>2026-05-02T07:44:29.999Z</time></trkpt><trkpt lat="43.891732720044786" lon="10.665024686254759"><ele>85.0</ele><time>2026-05-02T07:44:30.999Z</time></trkpt><trkpt lat="43.891796445147904" lon="10.664923988268953"><ele>85.33333333333333</ele><time>2026-05-02T07:44:31.999Z</time></trkpt><trkpt lat="43.89185533228537" lon="10.66482924506099"><ele>85.66666666666666</ele><time>2026-05-02T07:44:32.999Z</time></trkpt><trkpt lat="43.891904145858724" lon="10.664741725188444"><ele>86.0</ele><time>2026-05-02T07:44:33.999Z</time></trkpt><trkpt lat="43.89194305371326" lon="10.664654988669914"><ele>86.33333333333333</ele><time>2026-05-02T07:44:34.999Z</time></trkpt><trkpt lat="43.89197615229096" lon="10.664575106133293"><ele>86.66666666666667</ele><time>2026-05-02T07:44:35.999Z</time></trkpt><trkpt lat="43.892027790452715" lon="10.66446089955666"><ele>87.0</ele><time>2026-05-02T07:44:37.999Z</time></trkpt><trkpt lat="43.89211608959325" lon="10.664385414220122"><ele>87.19999999999999</ele><time>2026-05-02T07:44:39.999Z</time></trkpt><trkpt lat="43.89223005619146" lon="10.664322410353812"><ele>87.4</ele><time>2026-05-02T07:44:41.999Z</time></trkpt><trkpt lat="43.89228779055413" lon="10.664182826826835"><ele>87.6</ele><time>2026-05-02T07:44:43.999Z</time></trkpt><trkpt lat="43.892252768781226" lon="10.664023795703693"><ele>87.80000000000001</ele><time>2026-05-02T07:44:45.999Z</time></trkpt><trkpt lat="43.89219992287664" lon="10.663954284170005"><ele>88.0</ele><time>2026-05-02T07:44:46.999Z</time></trkpt><trkpt lat="43.892138953110916" lon="10.663880525246563"><ele>88.0</ele><time>2026-05-02T07:44:47.999Z</time></trkpt><trkpt lat="43.89207814318236" lon="10.663795526790015"><ele>88.0</ele><time>2026-05-02T07:44:48.999Z</time></trkpt><trkpt lat="43.892024753192246" lon="10.66369303666826"><ele>88.0</ele><time>2026-05-02T07:44:49.999Z</time></trkpt><trkpt lat="43.89196307782484" lon="10.663584000998746"><ele>88.0</ele><time>2026-05-02T07:44:50.999Z</time></trkpt><trkpt lat="43.89190198878872" lon="10.66346508761418"><ele>88.0</ele><time>2026-05-02T07:44:51.999Z</time></trkpt><trkpt lat="43.891841450918236" lon="10.663339306305309"><ele>88.0</ele><time>2026-05-02T07:44:52.999Z</time></trkpt><trkpt lat="43.89177885523978" lon="10.663208428078258"><ele>88.0</ele><time>2026-05-02T07:44:53.999Z</time></trkpt><trkpt lat="43.89171542943948" lon="10.663073528336403"><ele>88.0</ele><time>2026-05-02T07:44:54.999Z</time></trkpt><trkpt lat="43.89164975833066" lon="10.66293824816212"><ele>88.0</ele><time>2026-05-02T07:44:55.999Z</time></trkpt><trkpt lat="43.891587218740625" lon="10.662801772377446"><ele>88.5</ele><time>2026-05-02T07:44:56.999Z</time></trkpt><trkpt lat="43.89152595007733" lon="10.662665464039696"><ele>89.0</ele><time>2026-05-02T07:44:57.999Z</time></trkpt><trkpt lat="43.891464716527516" lon="10.662531719737807"><ele>89.5</ele><time>2026-05-02T07:44:58.999Z</time></trkpt><trkpt lat="43.89140349595907" lon="10.662400861389541"><ele>90.0</ele><time>2026-05-02T07:44:59.999Z</time></trkpt><trkpt lat="43.89134446992834" lon="10.662270359201628"><ele>90.0</ele><time>2026-05-02T07:45:00.999Z</time></trkpt><trkpt lat="43.89128295430137" lon="10.662143301452272"><ele>90.0</ele><time>2026-05-02T07:45:01.999Z</time></trkpt><trkpt lat="43.891223520600526" lon="10.662017446722254"><ele>90.0</ele><time>2026-05-02T07:45:02.999Z</time></trkpt><trkpt lat="43.89116451246309" lon="10.661886838196768"><ele>90.0</ele><time>2026-05-02T07:45:03.999Z</time></trkpt><trkpt lat="43.89110483892628" lon="10.661756376356527"><ele>90.0</ele><time>2026-05-02T07:45:04.999Z</time></trkpt><trkpt lat="43.8910479279399" lon="10.661638007776453"><ele>90.16666666666667</ele><time>2026-05-02T07:45:05.999Z</time></trkpt><trkpt lat="43.89099610940303" lon="10.661532370516527"><ele>90.33333333333333</ele><time>2026-05-02T07:45:06.999Z</time></trkpt><trkpt lat="43.89095018806911" lon="10.66143848601294"><ele>90.5</ele><time>2026-05-02T07:45:07.999Z</time></trkpt><trkpt lat="43.89090959501869" lon="10.661347125565246"><ele>90.66666666666666</ele><time>2026-05-02T07:45:08.999Z</time></trkpt><trkpt lat="43.890873249437796" lon="10.6612683736112"><ele>90.83333333333333</ele><time>2026-05-02T07:45:09.999Z</time></trkpt><trkpt lat="43.89082051892663" lon="10.661152873118011"><ele>91.0</ele><time>2026-05-02T07:45:11.999Z</time></trkpt><trkpt lat="43.89078317055533" lon="10.661081434559689"><ele>90.6</ele><time>2026-05-02T07:45:14.999Z</time></trkpt><trkpt lat="43.89070221760507" lon="10.660968270634308"><ele>90.19999999999999</ele><time>2026-05-02T07:45:51Z</time></trkpt><trkpt lat="43.89065958891063" lon="10.660878371971423"><ele>89.80000000000001</ele><time>2026-05-02T07:45:52Z</time></trkpt><trkpt lat="43.890604711268814" lon="10.660779198933549"><ele>89.4</ele><time>2026-05-02T07:45:53Z</time></trkpt><trkpt lat="43.89054528791131" lon="10.6606821845692"><ele>89.0</ele><time>2026-05-02T07:45:54Z</time></trkpt><trkpt lat="43.890476549832144" lon="10.660572951112453"><ele>89.0</ele><time>2026-05-02T07:45:55Z</time></trkpt><trkpt lat="43.89039724580285" lon="10.660426987584877"><ele>89.0</ele><time>2026-05-02T07:45:56Z</time></trkpt><trkpt lat="43.89030163345184" lon="10.660304779564468"><ele>89.0</ele><time>2026-05-02T07:45:57Z</time></trkpt><trkpt lat="43.89020234034616" lon="10.660206356869821"><ele>89.0</ele><time>2026-05-02T07:45:58Z</time></trkpt><trkpt lat="43.8901058796206" lon="10.660135183754136"><ele>90.6</ele><time>2026-05-02T07:45:59Z</time></trkpt><trkpt lat="43.88999890370466" lon="10.660099419097929"><ele>92.2</ele><time>2026-05-02T07:46:00Z</time></trkpt><trkpt lat="43.88989765581262" lon="10.660038665412422"><ele>93.8</ele><time>2026-05-02T07:46:01Z</time></trkpt><trkpt lat="43.88979699623273" lon="10.659974264702251"><ele>95.39999999999999</ele><time>2026-05-02T07:46:02Z</time></trkpt><trkpt lat="43.8896933899922" lon="10.659903735526829"><ele>97.0</ele><time>2026-05-02T07:46:03Z</time></trkpt><trkpt lat="43.88958900709344" lon="10.659832573407629"><ele>97.0</ele><time>2026-05-02T07:46:04Z</time></trkpt><trkpt lat="43.88948018318149" lon="10.659756008388008"><ele>97.0</ele><time>2026-05-02T07:46:05Z</time></trkpt><trkpt lat="43.889367695461615" lon="10.659675931630222"><ele>97.0</ele><time>2026-05-02T07:46:06Z</time></trkpt><trkpt lat="43.88925508396169" lon="10.659591174463035"><ele>97.0</ele><time>2026-05-02T07:46:07Z</time></trkpt><trkpt lat="43.88914772519699" lon="10.659502662329556"><ele>97.5</ele><time>2026-05-02T07:46:08Z</time></trkpt><trkpt lat="43.88904904272761" lon="10.659412724828279"><ele>98.0</ele><time>2026-05-02T07:46:09Z</time></trkpt><trkpt lat="43.88895630610897" lon="10.659317158852522"><ele>98.5</ele><time>2026-05-02T07:46:10Z</time></trkpt><trkpt lat="43.888869964056894" lon="10.659215109413308"><ele>99.0</ele><time>2026-05-02T07:46:11Z</time></trkpt><trkpt lat="43.88879682775939" lon="10.659099078889959"><ele>99.0</ele><time>2026-05-02T07:46:12Z</time></trkpt><trkpt lat="43.88873592246625" lon="10.65897299651803"><ele>99.0</ele><time>2026-05-02T07:46:13Z</time></trkpt><trkpt lat="43.88868807239452" lon="10.658832170028411"><ele>99.0</ele><time>2026-05-02T07:46:14Z</time></trkpt><trkpt lat="43.88864752281051" lon="10.658682632181158"><ele>99.0</ele><time>2026-05-02T07:46:15Z</time></trkpt><trkpt lat="43.88861525283701" lon="10.658524254801474"><ele>100.2</ele><time>2026-05-02T07:46:16Z</time></trkpt><trkpt lat="43.88858232142505" lon="10.658366260554834"><ele>101.4</ele><time>2026-05-02T07:46:17Z</time></trkpt><trkpt lat="43.888546775728614" lon="10.65821082807811"><ele>102.6</ele><time>2026-05-02T07:46:18Z</time></trkpt><trkpt lat="43.888508550359525" lon="10.658071229456354"><ele>103.8</ele><time>2026-05-02T07:46:19Z</time></trkpt><trkpt lat="43.888462446453964" lon="10.657947678928542"><ele>105.0</ele><time>2026-05-02T07:46:20Z</time></trkpt><trkpt lat="43.88840920227032" lon="10.657834781829889"><ele>104.5</ele><time>2026-05-02T07:46:21Z</time></trkpt><trkpt lat="43.88834700040922" lon="10.65772305376957"><ele>104.0</ele><time>2026-05-02T07:46:22Z</time></trkpt><trkpt lat="43.88827056460778" lon="10.657616034872257"><ele>103.5</ele><time>2026-05-02T07:46:23Z</time></trkpt><trkpt lat="43.888183069320114" lon="10.65751093650261"><ele>103.0</ele><time>2026-05-02T07:46:23.999Z</time></trkpt><trkpt lat="43.888080658155914" lon="10.657411345691113"><ele>103.0</ele><time>2026-05-02T07:46:24.999Z</time></trkpt><trkpt lat="43.88797226968904" lon="10.657321142900072"><ele>103.0</ele><time>2026-05-02T07:46:25.999Z</time></trkpt><trkpt lat="43.88785016769684" lon="10.657234236953434"><ele>103.0</ele><time>2026-05-02T07:46:26.999Z</time></trkpt><trkpt lat="43.887718515651464" lon="10.657151562916848"><ele>103.0</ele><time>2026-05-02T07:46:27.999Z</time></trkpt><trkpt lat="43.887577717269934" lon="10.657080802331066"><ele>103.66666666666667</ele><time>2026-05-02T07:46:28.999Z</time></trkpt><trkpt lat="43.887432584022314" lon="10.657016011850926"><ele>104.33333333333334</ele><time>2026-05-02T07:46:29.999Z</time></trkpt><trkpt lat="43.887288127261634" lon="10.65695366043621"><ele>105.0</ele><time>2026-05-02T07:46:30.999Z</time></trkpt><trkpt lat="43.88714731364414" lon="10.656880158863597"><ele>103.33333333333334</ele><time>2026-05-02T07:46:31.999Z</time></trkpt><trkpt lat="43.88701269437798" lon="10.656789760215311"><ele>101.66666666666667</ele><time>2026-05-02T07:46:32.999Z</time></trkpt><trkpt lat="43.88688660248359" lon="10.656674160922508"><ele>100.0</ele><time>2026-05-02T07:46:33.999Z</time></trkpt><trkpt lat="43.886773872674326" lon="10.656531355348656"><ele>98.0</ele><time>2026-05-02T07:46:34.999Z</time></trkpt><trkpt lat="43.88667767367216" lon="10.656370946668385"><ele>96.0</ele><time>2026-05-02T07:46:35.999Z</time></trkpt><trkpt lat="43.88658095510246" lon="10.65620816171525"><ele>94.0</ele><time>2026-05-02T07:46:36.999Z</time></trkpt><trkpt lat="43.886482096236115" lon="10.65604931932609"><ele>93.0</ele><time>2026-05-02T07:46:37.999Z</time></trkpt><trkpt lat="43.88638320432035" lon="10.655890289084287"><ele>92.0</ele><time>2026-05-02T07:46:38.999Z</time></trkpt><trkpt lat="43.88630069462287" lon="10.655723617926062"><ele>91.0</ele><time>2026-05-02T07:46:39.999Z</time></trkpt><trkpt lat="43.88623951606275" lon="10.655540801089264"><ele>90.0</ele><time>2026-05-02T07:46:40.999Z</time></trkpt><trkpt lat="43.886198501580324" lon="10.655343528495361"><ele>87.33333333333333</ele><time>2026-05-02T07:46:41.999Z</time></trkpt><trkpt lat="43.88616895441288" lon="10.65514159497842"><ele>84.66666666666666</ele><time>2026-05-02T07:46:42.999Z</time></trkpt><trkpt lat="43.8861524089287" lon="10.654927088312395"><ele>82.0</ele><time>2026-05-02T07:46:43.999Z</time></trkpt><trkpt lat="43.88613495467726" lon="10.654709531256247"><ele>82.0</ele><time>2026-05-02T07:46:44.999Z</time></trkpt><trkpt lat="43.886114641381866" lon="10.654487269052089"><ele>82.0</ele><time>2026-05-02T07:46:45.999Z</time></trkpt><trkpt lat="43.88609759058289" lon="10.654263616876147"><ele>82.0</ele><time>2026-05-02T07:46:46.999Z</time></trkpt><trkpt lat="43.88608342633672" lon="10.65403862394411"><ele>80.66666666666666</ele><time>2026-05-02T07:46:47.999Z</time></trkpt><trkpt lat="43.886065800444854" lon="10.65381769699607"><ele>79.33333333333333</ele><time>2026-05-02T07:46:48.999Z</time></trkpt><trkpt lat="43.886050500566654" lon="10.65359880352301"><ele>78.0</ele><time>2026-05-02T07:46:49.999Z</time></trkpt><trkpt lat="43.88603480909538" lon="10.653378124292542"><ele>77.0</ele><time>2026-05-02T07:46:50.999Z</time></trkpt><trkpt lat="43.88601784988488" lon="10.653157680426771"><ele>76.0</ele><time>2026-05-02T07:46:51.999Z</time></trkpt><trkpt lat="43.88599873612002" lon="10.65293397923779"><ele>75.0</ele><time>2026-05-02T07:46:52.999Z</time></trkpt><trkpt lat="43.88598253016517" lon="10.652706023523274"><ele>75.0</ele><time>2026-05-02T07:46:53.999Z</time></trkpt><trkpt lat="43.88596744886043" lon="10.652477551766436"><ele>75.0</ele><time>2026-05-02T07:46:54.999Z</time></trkpt><trkpt lat="43.885947740212394" lon="10.652251084958051"><ele>75.0</ele><time>2026-05-02T07:46:55.999Z</time></trkpt><trkpt lat="43.8859267548105" lon="10.652025600753968"><ele>75.0</ele><time>2026-05-02T07:46:56.999Z</time></trkpt><trkpt lat="43.885903249230864" lon="10.651804970435071"><ele>75.0</ele><time>2026-05-02T07:46:57.999Z</time></trkpt><trkpt lat="43.88586385401887" lon="10.65158495753242"><ele>75.0</ele><time>2026-05-02T07:46:58.999Z</time></trkpt><trkpt lat="43.88580864528046" lon="10.651367255091904"><ele>75.0</ele><time>2026-05-02T07:46:59.999Z</time></trkpt><trkpt lat="43.88574689242325" lon="10.651149160204046"><ele>75.0</ele><time>2026-05-02T07:47:00.999Z</time></trkpt><trkpt lat="43.88568873658642" lon="10.650930764703833"><ele>75.0</ele><time>2026-05-02T07:47:01.999Z</time></trkpt><trkpt lat="43.885630265363375" lon="10.650709345059406"><ele>73.33333333333333</ele><time>2026-05-02T07:47:02.999Z</time></trkpt><trkpt lat="43.88557397047483" lon="10.650491190869637"><ele>71.66666666666666</ele><time>2026-05-02T07:47:03.999Z</time></trkpt><trkpt lat="43.88552223375199" lon="10.650280376596783"><ele>70.0</ele><time>2026-05-02T07:47:04.999Z</time></trkpt><trkpt lat="43.8854710093877" lon="10.650073999815588"><ele>69.5</ele><time>2026-05-02T07:47:05.999Z</time></trkpt><trkpt lat="43.885419759343186" lon="10.649876679566452"><ele>69.0</ele><time>2026-05-02T07:47:06.999Z</time></trkpt><trkpt lat="43.88536488269715" lon="10.649692044361906"><ele>68.5</ele><time>2026-05-02T07:47:07.999Z</time></trkpt><trkpt lat="43.88530128677556" lon="10.649523452363548"><ele>68.0</ele><time>2026-05-02T07:47:08.998Z</time></trkpt><trkpt lat="43.885225571253784" lon="10.649367135172783"><ele>68.0</ele><time>2026-05-02T07:47:09.998Z</time></trkpt><trkpt lat="43.885136806734" lon="10.649225080341422"><ele>68.0</ele><time>2026-05-02T07:47:10.998Z</time></trkpt><trkpt lat="43.88503043036386" lon="10.649101407168526"><ele>68.0</ele><time>2026-05-02T07:47:11.998Z</time></trkpt><trkpt lat="43.88491085736183" lon="10.648991965587653"><ele>68.0</ele><time>2026-05-02T07:47:12.998Z</time></trkpt><trkpt lat="43.88478518190267" lon="10.648887021633618"><ele>67.33333333333334</ele><time>2026-05-02T07:47:13.998Z</time></trkpt><trkpt lat="43.8846566435544" lon="10.648775656819037"><ele>66.66666666666667</ele><time>2026-05-02T07:47:14.998Z</time></trkpt><trkpt lat="43.884525175515286" lon="10.648657471629383"><ele>66.0</ele><time>2026-05-02T07:47:15.998Z</time></trkpt><trkpt lat="43.88439104905648" lon="10.648537629831889"><ele>65.0</ele><time>2026-05-02T07:47:16.998Z</time></trkpt><trkpt lat="43.884254914322725" lon="10.648418039109991"><ele>64.0</ele><time>2026-05-02T07:47:17.998Z</time></trkpt><trkpt lat="43.884121248259085" lon="10.64829688986095"><ele>63.0</ele><time>2026-05-02T07:47:18.998Z</time></trkpt><trkpt lat="43.88398653120078" lon="10.648175481321099"><ele>63.0</ele><time>2026-05-02T07:47:19.998Z</time></trkpt><trkpt lat="43.883854666505194" lon="10.64805837849379"><ele>63.0</ele><time>2026-05-02T07:47:20.998Z</time></trkpt><trkpt lat="43.883724451070975" lon="10.647942465735126"><ele>63.0</ele><time>2026-05-02T07:47:21.998Z</time></trkpt><trkpt lat="43.88359335154236" lon="10.647824355135073"><ele>62.66666666666667</ele><time>2026-05-02T07:47:22.998Z</time></trkpt><trkpt lat="43.88346378045838" lon="10.647707149050525"><ele>62.333333333333336</ele><time>2026-05-02T07:47:23.998Z</time></trkpt><trkpt lat="43.88333286224681" lon="10.647587547548065"><ele>62.0</ele><time>2026-05-02T07:47:24.998Z</time></trkpt><trkpt lat="43.883204523938645" lon="10.64746972576991"><ele>62.0</ele><time>2026-05-02T07:47:25.998Z</time></trkpt><trkpt lat="43.883077702896585" lon="10.647345934718459"><ele>62.0</ele><time>2026-05-02T07:47:26.998Z</time></trkpt><trkpt lat="43.88295631680765" lon="10.647215713391537"><ele>62.0</ele><time>2026-05-02T07:47:27.998Z</time></trkpt><trkpt lat="43.882839430683966" lon="10.647080731247337"><ele>60.66666666666667</ele><time>2026-05-02T07:47:28.998Z</time></trkpt><trkpt lat="43.88272498489177" lon="10.646944950164121"><ele>59.33333333333333</ele><time>2026-05-02T07:47:29.998Z</time></trkpt><trkpt lat="43.88260824027132" lon="10.646807395004178"><ele>58.0</ele><time>2026-05-02T07:47:30.998Z</time></trkpt><trkpt lat="43.88249290313362" lon="10.646671615717441"><ele>58.0</ele><time>2026-05-02T07:47:31.998Z</time></trkpt><trkpt lat="43.882378835454666" lon="10.646529598238349"><ele>58.0</ele><time>2026-05-02T07:47:32.998Z</time></trkpt><trkpt lat="43.88226608260801" lon="10.646391709814482"><ele>58.0</ele><time>2026-05-02T07:47:33.998Z</time></trkpt><trkpt lat="43.882154374341546" lon="10.646254454701213"><ele>58.0</ele><time>2026-05-02T07:47:34.998Z</time></trkpt><trkpt lat="43.882040860256176" lon="10.6461173914875"><ele>58.0</ele><time>2026-05-02T07:47:35.998Z</time></trkpt><trkpt lat="43.88192773972928" lon="10.64598021569353"><ele>58.0</ele><time>2026-05-02T07:47:36.998Z</time></trkpt><trkpt lat="43.88181410274717" lon="10.645844365805948"><ele>57.75</ele><time>2026-05-02T07:47:37.998Z</time></trkpt><trkpt lat="43.88170153716109" lon="10.645714422390345"><ele>57.5</ele><time>2026-05-02T07:47:38.998Z</time></trkpt><trkpt lat="43.88158987981659" lon="10.645591443458777"><ele>57.25</ele><time>2026-05-02T07:47:39.998Z</time></trkpt><trkpt lat="43.88147973564945" lon="10.645463910253682"><ele>57.0</ele><time>2026-05-02T07:47:40.998Z</time></trkpt><trkpt lat="43.88137326177136" lon="10.64533393571043"><ele>57.25</ele><time>2026-05-02T07:47:41.998Z</time></trkpt><trkpt lat="43.88126558429817" lon="10.645203171423645"><ele>57.5</ele><time>2026-05-02T07:47:42.998Z</time></trkpt><trkpt lat="43.881159590224065" lon="10.645069833276184"><ele>57.75</ele><time>2026-05-02T07:47:43.997Z</time></trkpt><trkpt lat="43.88105271570512" lon="10.644932567857436"><ele>58.0</ele><time>2026-05-02T07:47:44.997Z</time></trkpt><trkpt lat="43.88094327391386" lon="10.644794730018202"><ele>57.33333333333333</ele><time>2026-05-02T07:47:45.999Z</time></trkpt><trkpt lat="43.88083104968514" lon="10.644657748247543"><ele>56.66666666666667</ele><time>2026-05-02T07:47:46.999Z</time></trkpt><trkpt lat="43.88071625545491" lon="10.644519759946212"><ele>56.0</ele><time>2026-05-02T07:47:47.999Z</time></trkpt><trkpt lat="43.8806004398474" lon="10.64437948962394"><ele>56.0</ele><time>2026-05-02T07:47:48.999Z</time></trkpt><trkpt lat="43.88048238229703" lon="10.644238948141648"><ele>56.0</ele><time>2026-05-02T07:47:49.999Z</time></trkpt><trkpt lat="43.8803655722273" lon="10.644098286002404"><ele>56.0</ele><time>2026-05-02T07:47:50.999Z</time></trkpt><trkpt lat="43.88024747156181" lon="10.643954938486416"><ele>56.0</ele><time>2026-05-02T07:47:51.999Z</time></trkpt><trkpt lat="43.88012929065597" lon="10.643811897327534"><ele>56.0</ele><time>2026-05-02T07:47:52.999Z</time></trkpt><trkpt lat="43.880009114159826" lon="10.643664101573401"><ele>56.0</ele><time>2026-05-02T07:47:53.999Z</time></trkpt><trkpt lat="43.879890484260585" lon="10.643519189943238"><ele>56.66666666666667</ele><time>2026-05-02T07:47:54.999Z</time></trkpt><trkpt lat="43.87977168733527" lon="10.643376910073716"><ele>57.33333333333333</ele><time>2026-05-02T07:47:55.999Z</time></trkpt><trkpt lat="43.879649438196196" lon="10.643238940577575"><ele>58.0</ele><time>2026-05-02T07:47:56.999Z</time></trkpt><trkpt lat="43.87952272381524" lon="10.643108108145361"><ele>58.0</ele><time>2026-05-02T07:47:57.999Z</time></trkpt><trkpt lat="43.879385315581004" lon="10.642999325838995"><ele>58.0</ele><time>2026-05-02T07:47:58.999Z</time></trkpt><trkpt lat="43.87923428639892" lon="10.642911185904234"><ele>58.0</ele><time>2026-05-02T07:47:59.999Z</time></trkpt><trkpt lat="43.87907958490188" lon="10.642839664690374"><ele>57.33333333333333</ele><time>2026-05-02T07:48:00.999Z</time></trkpt><trkpt lat="43.878919634176945" lon="10.64278627967289"><ele>56.66666666666667</ele><time>2026-05-02T07:48:01.999Z</time></trkpt><trkpt lat="43.87875750861703" lon="10.642740531458276"><ele>56.0</ele><time>2026-05-02T07:48:02.999Z</time></trkpt><trkpt lat="43.878593507823524" lon="10.64271474496513"><ele>56.66666666666667</ele><time>2026-05-02T07:48:03.999Z</time></trkpt><trkpt lat="43.87842653803518" lon="10.642709253951715"><ele>57.33333333333333</ele><time>2026-05-02T07:48:04.999Z</time></trkpt><trkpt lat="43.87826099844608" lon="10.64272492864649"><ele>58.0</ele><time>2026-05-02T07:48:05.999Z</time></trkpt><trkpt lat="43.878097901765216" lon="10.642758989468163"><ele>58.0</ele><time>2026-05-02T07:48:06.999Z</time></trkpt><trkpt lat="43.87792984232986" lon="10.642792048900489"><ele>58.0</ele><time>2026-05-02T07:48:07.999Z</time></trkpt><trkpt lat="43.87776363786482" lon="10.64281226758741"><ele>58.0</ele><time>2026-05-02T07:48:08.999Z</time></trkpt><trkpt lat="43.87759530938448" lon="10.642807983454786"><ele>58.33333333333333</ele><time>2026-05-02T07:48:09.999Z</time></trkpt><trkpt lat="43.8774290137968" lon="10.64278292679799"><ele>58.66666666666667</ele><time>2026-05-02T07:48:10.999Z</time></trkpt><trkpt lat="43.877263461982174" lon="10.642753432197908"><ele>59.0</ele><time>2026-05-02T07:48:11.999Z</time></trkpt><trkpt lat="43.877098714420505" lon="10.64271610047159"><ele>59.0</ele><time>2026-05-02T07:48:12.999Z</time></trkpt><trkpt lat="43.87694065868383" lon="10.642668442342869"><ele>59.0</ele><time>2026-05-02T07:48:13.999Z</time></trkpt><trkpt lat="43.876782506982806" lon="10.64260856988483"><ele>59.0</ele><time>2026-05-02T07:48:14.999Z</time></trkpt><trkpt lat="43.87662782269903" lon="10.642533322232632"><ele>57.333333333333336</ele><time>2026-05-02T07:48:15.999Z</time></trkpt><trkpt lat="43.87648214587434" lon="10.642436752407244"><ele>55.66666666666667</ele><time>2026-05-02T07:48:16.999Z</time></trkpt><trkpt lat="43.87635114086282" lon="10.642317100352418"><ele>54.0</ele><time>2026-05-02T07:48:17.999Z</time></trkpt><trkpt lat="43.87622916699615" lon="10.64217485672512"><ele>54.0</ele><time>2026-05-02T07:48:18.999Z</time></trkpt><trkpt lat="43.87611983091583" lon="10.642020510272461"><ele>54.0</ele><time>2026-05-02T07:48:19.999Z</time></trkpt><trkpt lat="43.87601263270874" lon="10.641853024404831"><ele>54.0</ele><time>2026-05-02T07:48:20.999Z</time></trkpt><trkpt lat="43.87590507990906" lon="10.641680305431786"><ele>53.75</ele><time>2026-05-02T07:48:21.999Z</time></trkpt><trkpt lat="43.87580127530906" lon="10.641514675486619"><ele>53.5</ele><time>2026-05-02T07:48:22.999Z</time></trkpt><trkpt lat="43.87570385942581" lon="10.641367643023907"><ele>53.25</ele><time>2026-05-02T07:48:23.999Z</time></trkpt><trkpt lat="43.87561761814665" lon="10.641239175948293"><ele>53.0</ele><time>2026-05-02T07:48:24.999Z</time></trkpt><trkpt lat="43.87554439113638" lon="10.64112078995378"><ele>53.0</ele><time>2026-05-02T07:48:25.999Z</time></trkpt><trkpt lat="43.87547310829717" lon="10.641006309981803"><ele>53.0</ele><time>2026-05-02T07:48:26.999Z</time></trkpt><trkpt lat="43.87540459282769" lon="10.640894660965317"><ele>53.0</ele><time>2026-05-02T07:48:27.999Z</time></trkpt><trkpt lat="43.87533513774478" lon="10.640780909348807"><ele>53.0</ele><time>2026-05-02T07:48:28.999Z</time></trkpt><trkpt lat="43.875257392745254" lon="10.640663248642806"><ele>53.0</ele><time>2026-05-02T07:48:29.999Z</time></trkpt><trkpt lat="43.875169960241" lon="10.640546361695723"><ele>53.0</ele><time>2026-05-02T07:48:30.999Z</time></trkpt><trkpt lat="43.87507612400464" lon="10.640425751987628"><ele>53.0</ele><time>2026-05-02T07:48:31.999Z</time></trkpt><trkpt lat="43.874975518626705" lon="10.640301501791757"><ele>53.0</ele><time>2026-05-02T07:48:32.999Z</time></trkpt><trkpt lat="43.87486896431325" lon="10.640174248546964"><ele>53.0</ele><time>2026-05-02T07:48:33.999Z</time></trkpt><trkpt lat="43.87475678064767" lon="10.640045380961075"><ele>53.0</ele><time>2026-05-02T07:48:34.999Z</time></trkpt><trkpt lat="43.87464046046844" lon="10.639916002532926"><ele>53.0</ele><time>2026-05-02T07:48:35.999Z</time></trkpt><trkpt lat="43.87452080285385" lon="10.639787228728546"><ele>53.0</ele><time>2026-05-02T07:48:36.999Z</time></trkpt><trkpt lat="43.874398212155114" lon="10.63966473874028"><ele>53.0</ele><time>2026-05-02T07:48:37.999Z</time></trkpt><trkpt lat="43.87427235643057" lon="10.639544607771542"><ele>53.0</ele><time>2026-05-02T07:48:38.999Z</time></trkpt><trkpt lat="43.87414224782798" lon="10.639429863474707"><ele>53.0</ele><time>2026-05-02T07:48:39.999Z</time></trkpt><trkpt lat="43.87400792448935" lon="10.639318831191998"><ele>53.333333333333336</ele><time>2026-05-02T07:48:40.999Z</time></trkpt><trkpt lat="43.87387003967536" lon="10.639210464572027"><ele>53.66666666666667</ele><time>2026-05-02T07:48:41.999Z</time></trkpt><trkpt lat="43.87372680815628" lon="10.639105478044192"><ele>54.0</ele><time>2026-05-02T07:48:42.999Z</time></trkpt><trkpt lat="43.87358250101481" lon="10.63900331102255"><ele>52.66666666666667</ele><time>2026-05-02T07:48:43.999Z</time></trkpt><trkpt lat="43.87343421211932" lon="10.638904112653025"><ele>51.333333333333336</ele><time>2026-05-02T07:48:44.999Z</time></trkpt><trkpt lat="43.87328117951985" lon="10.63880928134823"><ele>50.0</ele><time>2026-05-02T07:48:45.999Z</time></trkpt><trkpt lat="43.87312299797356" lon="10.63871804948427"><ele>50.66666666666667</ele><time>2026-05-02T07:48:46.999Z</time></trkpt><trkpt lat="43.8729627019425" lon="10.63863430685526"><ele>51.33333333333333</ele><time>2026-05-02T07:48:47.999Z</time></trkpt><trkpt lat="43.87279868056894" lon="10.638550178681248"><ele>52.0</ele><time>2026-05-02T07:48:48.999Z</time></trkpt><trkpt lat="43.87263184648037" lon="10.638472210459675"><ele>51.33333333333333</ele><time>2026-05-02T07:48:49.999Z</time></trkpt><trkpt lat="43.87246623139038" lon="10.63840485502738"><ele>50.66666666666667</ele><time>2026-05-02T07:48:50.999Z</time></trkpt><trkpt lat="43.872302076655835" lon="10.63834477013721"><ele>50.0</ele><time>2026-05-02T07:48:51.999Z</time></trkpt><trkpt lat="43.87213686524124" lon="10.638283249622237"><ele>50.0</ele><time>2026-05-02T07:48:52.999Z</time></trkpt><trkpt lat="43.87197272876682" lon="10.638223248891112"><ele>50.0</ele><time>2026-05-02T07:48:53.999Z</time></trkpt><trkpt lat="43.87181258449138" lon="10.638164774642737"><ele>50.0</ele><time>2026-05-02T07:48:54.999Z</time></trkpt><trkpt lat="43.87165460658193" lon="10.63810684308916"><ele>50.66666666666667</ele><time>2026-05-02T07:48:55.999Z</time></trkpt><trkpt lat="43.871497385824846" lon="10.638047869545014"><ele>51.33333333333333</ele><time>2026-05-02T07:48:56.999Z</time></trkpt><trkpt lat="43.87134037982272" lon="10.637989472312706"><ele>52.0</ele><time>2026-05-02T07:48:57.999Z</time></trkpt><trkpt lat="43.87118400436194" lon="10.637932750354228"><ele>52.0</ele><time>2026-05-02T07:48:58.999Z</time></trkpt><trkpt lat="43.87103177580167" lon="10.637878930221133"><ele>52.0</ele><time>2026-05-02T07:48:59.999Z</time></trkpt><trkpt lat="43.87088740740544" lon="10.637823491901115"><ele>52.0</ele><time>2026-05-02T07:49:00.998Z</time></trkpt><trkpt lat="43.870752228301235" lon="10.63776589802556"><ele>52.0</ele><time>2026-05-02T07:49:01.998Z</time></trkpt><trkpt lat="43.870621704374514" lon="10.637718018323238"><ele>52.75</ele><time>2026-05-02T07:49:02.998Z</time></trkpt><trkpt lat="43.870496868116646" lon="10.637674037203219"><ele>53.5</ele><time>2026-05-02T07:49:03.998Z</time></trkpt><trkpt lat="43.870373961262956" lon="10.637632708356893"><ele>54.25</ele><time>2026-05-02T07:49:04.998Z</time></trkpt><trkpt lat="43.870250542537974" lon="10.63758854685915"><ele>55.0</ele><time>2026-05-02T07:49:05.998Z</time></trkpt><trkpt lat="43.87012694733318" lon="10.637544690000686"><ele>54.0</ele><time>2026-05-02T07:49:06.998Z</time></trkpt><trkpt lat="43.87000104595238" lon="10.637498509190626"><ele>53.0</ele><time>2026-05-02T07:49:07.998Z</time></trkpt><trkpt lat="43.86987308262469" lon="10.63743157179505"><ele>52.0</ele><time>2026-05-02T07:49:08.998Z</time></trkpt><trkpt lat="43.8697394900376" lon="10.63738317552962"><ele>51.0</ele><time>2026-05-02T07:49:09.998Z</time></trkpt><trkpt lat="43.86959888969861" lon="10.637352043244135"><ele>51.0</ele><time>2026-05-02T07:49:10.998Z</time></trkpt><trkpt lat="43.86946143718029" lon="10.637298639579162"><ele>51.0</ele><time>2026-05-02T07:49:11.998Z</time></trkpt><trkpt lat="43.869317991655606" lon="10.63724542503301"><ele>51.0</ele><time>2026-05-02T07:49:12.998Z</time></trkpt><trkpt lat="43.869173975419365" lon="10.637193041334509"><ele>51.0</ele><time>2026-05-02T07:49:13.998Z</time></trkpt><trkpt lat="43.86903108953178" lon="10.63714261530193"><ele>49.333333333333336</ele><time>2026-05-02T07:49:14.998Z</time></trkpt><trkpt lat="43.86888443572005" lon="10.637089944671308"><ele>47.66666666666667</ele><time>2026-05-02T07:49:15.998Z</time></trkpt><trkpt lat="43.868739239660805" lon="10.637038010567672"><ele>46.0</ele><time>2026-05-02T07:49:16.998Z</time></trkpt><trkpt lat="43.86859132288917" lon="10.636983862739532"><ele>46.5</ele><time>2026-05-02T07:49:17.998Z</time></trkpt><trkpt lat="43.868450610963876" lon="10.636931352485092"><ele>47.0</ele><time>2026-05-02T07:49:18.998Z</time></trkpt><trkpt lat="43.868316473683116" lon="10.636878978991984"><ele>47.5</ele><time>2026-05-02T07:49:19.998Z</time></trkpt><trkpt lat="43.8681875781518" lon="10.636829386185193"><ele>48.0</ele><time>2026-05-02T07:49:20.998Z</time></trkpt><trkpt lat="43.8680674666418" lon="10.636781219828377"><ele>48.0</ele><time>2026-05-02T07:49:21.998Z</time></trkpt><trkpt lat="43.86795109929752" lon="10.636731790454904"><ele>48.0</ele><time>2026-05-02T07:49:22.998Z</time></trkpt><trkpt lat="43.867836734304575" lon="10.636678168183586"><ele>48.0</ele><time>2026-05-02T07:49:23.998Z</time></trkpt><trkpt lat="43.86771858317029" lon="10.636623940406148"><ele>48.0</ele><time>2026-05-02T07:49:24.998Z</time></trkpt><trkpt lat="43.86759944013883" lon="10.636569768553606"><ele>46.75</ele><time>2026-05-02T07:49:25.998Z</time></trkpt><trkpt lat="43.86747862266763" lon="10.636510352205063"><ele>45.5</ele><time>2026-05-02T07:49:26.998Z</time></trkpt><trkpt lat="43.86735611673774" lon="10.636446849025747"><ele>44.25</ele><time>2026-05-02T07:49:27.998Z</time></trkpt><trkpt lat="43.867235711137944" lon="10.636380209604118"><ele>43.0</ele><time>2026-05-02T07:49:28.998Z</time></trkpt><trkpt lat="43.867117562371995" lon="10.636310018678357"><ele>43.0</ele><time>2026-05-02T07:49:29.998Z</time></trkpt><trkpt lat="43.86700327614305" lon="10.636231219460198"><ele>43.0</ele><time>2026-05-02T07:49:30.998Z</time></trkpt><trkpt lat="43.86689264455796" lon="10.636146372891607"><ele>43.0</ele><time>2026-05-02T07:49:31.998Z</time></trkpt><trkpt lat="43.86678334930668" lon="10.636054127921597"><ele>43.0</ele><time>2026-05-02T07:49:32.998Z</time></trkpt><trkpt lat="43.86667654732444" lon="10.635956869369052"><ele>43.5</ele><time>2026-05-02T07:49:33.998Z</time></trkpt><trkpt lat="43.86657126725569" lon="10.635853220789203"><ele>44.0</ele><time>2026-05-02T07:49:34.998Z</time></trkpt><trkpt lat="43.86647046227632" lon="10.635743477900505"><ele>44.5</ele><time>2026-05-02T07:49:35.998Z</time></trkpt><trkpt lat="43.866370692751325" lon="10.635628669940472"><ele>45.0</ele><time>2026-05-02T07:49:36.998Z</time></trkpt><trkpt lat="43.86627511325533" lon="10.635507189838789"><ele>45.0</ele><time>2026-05-02T07:49:37.998Z</time></trkpt><trkpt lat="43.866180935289435" lon="10.635379216315807"><ele>45.0</ele><time>2026-05-02T07:49:38.998Z</time></trkpt><trkpt lat="43.866087151262924" lon="10.635250731716887"><ele>45.0</ele><time>2026-05-02T07:49:39.998Z</time></trkpt><trkpt lat="43.865997852809095" lon="10.635116823763326"><ele>45.0</ele><time>2026-05-02T07:49:40.998Z</time></trkpt><trkpt lat="43.86591014460914" lon="10.634978667401652"><ele>46.0</ele><time>2026-05-02T07:49:41.998Z</time></trkpt><trkpt lat="43.86582749696457" lon="10.63483816002248"><ele>47.0</ele><time>2026-05-02T07:49:42.998Z</time></trkpt><trkpt lat="43.86575178514041" lon="10.634701660130727"><ele>48.0</ele><time>2026-05-02T07:49:43.998Z</time></trkpt><trkpt lat="43.865680002793894" lon="10.634561881284837"><ele>49.0</ele><time>2026-05-02T07:49:44.998Z</time></trkpt><trkpt lat="43.86561497003543" lon="10.63442067247319"><ele>49.800000000000004</ele><time>2026-05-02T07:49:45.998Z</time></trkpt><trkpt lat="43.865557329655196" lon="10.6342813348218"><ele>50.6</ele><time>2026-05-02T07:49:46.998Z</time></trkpt><trkpt lat="43.86550411973591" lon="10.634145749557693"><ele>51.4</ele><time>2026-05-02T07:49:47.998Z</time></trkpt><trkpt lat="43.86545692073688" lon="10.63400745844843"><ele>52.2</ele><time>2026-05-02T07:49:48.998Z</time></trkpt><trkpt lat="43.86541104896944" lon="10.633869533119631"><ele>53.0</ele><time>2026-05-02T07:49:49.998Z</time></trkpt><trkpt lat="43.8653667307069" lon="10.633731832647957"><ele>53.8</ele><time>2026-05-02T07:49:50.999Z</time></trkpt><trkpt lat="43.86533265481734" lon="10.63359824034511"><ele>54.599999999999994</ele><time>2026-05-02T07:49:51.999Z</time></trkpt><trkpt lat="43.86530164994976" lon="10.633466785451374"><ele>55.400000000000006</ele><time>2026-05-02T07:49:52.999Z</time></trkpt><trkpt lat="43.8652710389786" lon="10.633344427574901"><ele>56.2</ele><time>2026-05-02T07:49:53.999Z</time></trkpt><trkpt lat="43.865245439326415" lon="10.633227710650239"><ele>57.0</ele><time>2026-05-02T07:49:54.999Z</time></trkpt><trkpt lat="43.865219991868436" lon="10.633092121320791"><ele>57.0</ele><time>2026-05-02T07:49:55.999Z</time></trkpt><trkpt lat="43.865190321192216" lon="10.632943314999084"><ele>57.0</ele><time>2026-05-02T07:49:56.999Z</time></trkpt><trkpt lat="43.86515950679966" lon="10.632781508526469"><ele>57.0</ele><time>2026-05-02T07:49:57.999Z</time></trkpt><trkpt lat="43.86512683394213" lon="10.632609083398338"><ele>57.0</ele><time>2026-05-02T07:49:58.999Z</time></trkpt><trkpt lat="43.86509385386138" lon="10.632434956113219"><ele>57.25</ele><time>2026-05-02T07:49:59.999Z</time></trkpt><trkpt lat="43.86505964477571" lon="10.632255253180505"><ele>57.5</ele><time>2026-05-02T07:50:00.999Z</time></trkpt><trkpt lat="43.86502712969436" lon="10.632070646305673"><ele>57.75</ele><time>2026-05-02T07:50:01.999Z</time></trkpt><trkpt lat="43.864997216061866" lon="10.63188225323247"><ele>58.0</ele><time>2026-05-02T07:50:02.999Z</time></trkpt><trkpt lat="43.86496737010042" lon="10.631693646395577"><ele>56.75</ele><time>2026-05-02T07:50:03.999Z</time></trkpt><trkpt lat="43.86493512364097" lon="10.63150629592447"><ele>55.5</ele><time>2026-05-02T07:50:04.999Z</time></trkpt><trkpt lat="43.86490022076469" lon="10.631316344219247"><ele>54.25</ele><time>2026-05-02T07:50:05.999Z</time></trkpt><trkpt lat="43.86486396079284" lon="10.631124014297946"><ele>53.0</ele><time>2026-05-02T07:50:06.999Z</time></trkpt><trkpt lat="43.8648268525212" lon="10.630915688839094"><ele>52.75</ele><time>2026-05-02T07:50:07.999Z</time></trkpt><trkpt lat="43.8647912938367" lon="10.630708340322201"><ele>52.5</ele><time>2026-05-02T07:50:08.999Z</time></trkpt><trkpt lat="43.86475545900553" lon="10.630514437680345"><ele>52.25</ele><time>2026-05-02T07:50:09.999Z</time></trkpt><trkpt lat="43.86472111394596" lon="10.630323070076516"><ele>52.0</ele><time>2026-05-02T07:50:10.999Z</time></trkpt><trkpt lat="43.86468493058741" lon="10.630141307032353"><ele>51.5</ele><time>2026-05-02T07:50:11.999Z</time></trkpt><trkpt lat="43.86465453140615" lon="10.629956675147916"><ele>51.0</ele><time>2026-05-02T07:50:12.999Z</time></trkpt><trkpt lat="43.8646157977469" lon="10.629777567319286"><ele>50.5</ele><time>2026-05-02T07:50:13.999Z</time></trkpt><trkpt lat="43.8645717303777" lon="10.629601252929014"><ele>50.0</ele><time>2026-05-02T07:50:14.999Z</time></trkpt><trkpt lat="43.86452295042345" lon="10.629428748372158"><ele>50.0</ele><time>2026-05-02T07:50:15.999Z</time></trkpt><trkpt lat="43.86446983536897" lon="10.629269155136557"><ele>50.0</ele><time>2026-05-02T07:50:16.999Z</time></trkpt><trkpt lat="43.86441366681458" lon="10.629123259969239"><ele>50.0</ele><time>2026-05-02T07:50:17.999Z</time></trkpt><trkpt lat="43.86435520135147" lon="10.62898096718819"><ele>50.0</ele><time>2026-05-02T07:50:18.999Z</time></trkpt><trkpt lat="43.86428994780052" lon="10.628841212742932"><ele>50.0</ele><time>2026-05-02T07:50:19.999Z</time></trkpt><trkpt lat="43.864220697098844" lon="10.628708920028858"><ele>50.0</ele><time>2026-05-02T07:50:20.999Z</time></trkpt><trkpt lat="43.86414724220587" lon="10.628582028014792"><ele>50.0</ele><time>2026-05-02T07:50:21.999Z</time></trkpt><trkpt lat="43.864069367845275" lon="10.628460522158385"><ele>50.0</ele><time>2026-05-02T07:50:22.999Z</time></trkpt><trkpt lat="43.863988405175114" lon="10.62834521018273"><ele>50.0</ele><time>2026-05-02T07:50:23.999Z</time></trkpt><trkpt lat="43.86390536297495" lon="10.62823332506715"><ele>50.0</ele><time>2026-05-02T07:50:24.999Z</time></trkpt><trkpt lat="43.863816996229154" lon="10.628135431876586"><ele>50.0</ele><time>2026-05-02T07:50:25.999Z</time></trkpt><trkpt lat="43.86372671876888" lon="10.628038998188407"><ele>50.0</ele><time>2026-05-02T07:50:26.999Z</time></trkpt><trkpt lat="43.86363131836194" lon="10.627942678604672"><ele>50.0</ele><time>2026-05-02T07:50:27.999Z</time></trkpt><trkpt lat="43.863532769979486" lon="10.627839872139965"><ele>50.0</ele><time>2026-05-02T07:50:28.999Z</time></trkpt><trkpt lat="43.86342862445042" lon="10.627727437427536"><ele>50.0</ele><time>2026-05-02T07:50:29.999Z</time></trkpt><trkpt lat="43.863325287931765" lon="10.627607657734144"><ele>50.0</ele><time>2026-05-02T07:50:30.999Z</time></trkpt><trkpt lat="43.86322819579464" lon="10.627481546716346"><ele>48.5</ele><time>2026-05-02T07:50:31.999Z</time></trkpt><trkpt lat="43.8631382374683" lon="10.627347224420921"><ele>47.0</ele><time>2026-05-02T07:50:32.999Z</time></trkpt><trkpt lat="43.863055573176965" lon="10.62721605193135"><ele>45.5</ele><time>2026-05-02T07:50:33.999Z</time></trkpt><trkpt lat="43.86297721158123" lon="10.627083824072601"><ele>44.0</ele><time>2026-05-02T07:50:34.999Z</time></trkpt><trkpt lat="43.862904537001114" lon="10.626950410946518"><ele>42.75</ele><time>2026-05-02T07:50:35.999Z</time></trkpt><trkpt lat="43.86283240633697" lon="10.626809154539496"><ele>41.5</ele><time>2026-05-02T07:50:36.999Z</time></trkpt><trkpt lat="43.86276352712318" lon="10.62666178684186"><ele>40.25</ele><time>2026-05-02T07:50:37.999Z</time></trkpt><trkpt lat="43.86269788820259" lon="10.626510032202278"><ele>39.0</ele><time>2026-05-02T07:50:38.999Z</time></trkpt><trkpt lat="43.86263648983702" lon="10.626359343144912"><ele>40.0</ele><time>2026-05-02T07:50:39.999Z</time></trkpt><trkpt lat="43.862578290779005" lon="10.626214099942711"><ele>41.0</ele><time>2026-05-02T07:50:40.999Z</time></trkpt><trkpt lat="43.86252098291207" lon="10.626070641105347"><ele>42.0</ele><time>2026-05-02T07:50:41.999Z</time></trkpt><trkpt lat="43.86246459027975" lon="10.62592671256632"><ele>43.0</ele><time>2026-05-02T07:50:42.999Z</time></trkpt><trkpt lat="43.862409779049926" lon="10.62578276044243"><ele>43.0</ele><time>2026-05-02T07:50:43.999Z</time></trkpt><trkpt lat="43.86235720008762" lon="10.625635603885403"><ele>43.0</ele><time>2026-05-02T07:50:44.999Z</time></trkpt><trkpt lat="43.862306314511386" lon="10.625482271847245"><ele>43.0</ele><time>2026-05-02T07:50:45.999Z</time></trkpt><trkpt lat="43.86225955878419" lon="10.62532657287251"><ele>43.0</ele><time>2026-05-02T07:50:46.999Z</time></trkpt><trkpt lat="43.86221409301952" lon="10.625169049693213"><ele>40.25</ele><time>2026-05-02T07:50:47.999Z</time></trkpt><trkpt lat="43.86216715035443" lon="10.625007856895333"><ele>37.5</ele><time>2026-05-02T07:50:48.999Z</time></trkpt><trkpt lat="43.862119753173225" lon="10.624841796982134"><ele>34.75</ele><time>2026-05-02T07:50:49.999Z</time></trkpt><trkpt lat="43.86207153888096" lon="10.624676056271145"><ele>32.0</ele><time>2026-05-02T07:50:50.999Z</time></trkpt><trkpt lat="43.862025758546885" lon="10.624512383064491"><ele>31.25</ele><time>2026-05-02T07:50:51.999Z</time></trkpt><trkpt lat="43.86198305242951" lon="10.62434720689991"><ele>30.5</ele><time>2026-05-02T07:50:52.999Z</time></trkpt><trkpt lat="43.861941765680825" lon="10.624180871601691"><ele>29.75</ele><time>2026-05-02T07:50:53.999Z</time></trkpt><trkpt lat="43.86189820291638" lon="10.624011260363533"><ele>29.0</ele><time>2026-05-02T07:50:54.999Z</time></trkpt><trkpt lat="43.86185285620187" lon="10.6238345432762"><ele>29.0</ele><time>2026-05-02T07:50:55.999Z</time></trkpt><trkpt lat="43.861808463847616" lon="10.62365391509986"><ele>29.0</ele><time>2026-05-02T07:50:56.999Z</time></trkpt><trkpt lat="43.86176321337976" lon="10.623463743217517"><ele>29.0</ele><time>2026-05-02T07:50:57.999Z</time></trkpt><trkpt lat="43.86171716419655" lon="10.623268808987394"><ele>29.0</ele><time>2026-05-02T07:50:58.999Z</time></trkpt><trkpt lat="43.86167079566289" lon="10.623071274840402"><ele>28.666666666666664</ele><time>2026-05-02T07:50:59.999Z</time></trkpt><trkpt lat="43.86162242256743" lon="10.62286510460212"><ele>28.333333333333336</ele><time>2026-05-02T07:51:00.999Z</time></trkpt><trkpt lat="43.861576577963234" lon="10.622657292762913"><ele>28.0</ele><time>2026-05-02T07:51:01.999Z</time></trkpt><trkpt lat="43.86153290164646" lon="10.622450680136962"><ele>27.666666666666668</ele><time>2026-05-02T07:51:02.999Z</time></trkpt><trkpt lat="43.86148918915683" lon="10.622247214880824"><ele>27.333333333333336</ele><time>2026-05-02T07:51:03.999Z</time></trkpt><trkpt lat="43.861446272498924" lon="10.622046754385094"><ele>27.0</ele><time>2026-05-02T07:51:04.999Z</time></trkpt><trkpt lat="43.861403351140375" lon="10.621842578792876"><ele>26.333333333333336</ele><time>2026-05-02T07:51:05.999Z</time></trkpt><trkpt lat="43.861357836446736" lon="10.621633268399425"><ele>25.666666666666668</ele><time>2026-05-02T07:51:06.999Z</time></trkpt><trkpt lat="43.86131083748674" lon="10.621425154349755"><ele>25.0</ele><time>2026-05-02T07:51:07.999Z</time></trkpt><trkpt lat="43.861276482756956" lon="10.621198792644707"><ele>25.0</ele><time>2026-05-02T07:51:08.999Z</time></trkpt><trkpt lat="43.8612278749215" lon="10.620968242848127"><ele>25.0</ele><time>2026-05-02T07:51:09.999Z</time></trkpt><trkpt lat="43.86117786394418" lon="10.620731181717787"><ele>25.0</ele><time>2026-05-02T07:51:10.999Z</time></trkpt><trkpt lat="43.86111256735638" lon="10.620502177572064"><ele>24.666666666666668</ele><time>2026-05-02T07:51:11.999Z</time></trkpt><trkpt lat="43.86106757688897" lon="10.620279607911307"><ele>24.333333333333336</ele><time>2026-05-02T07:51:12.999Z</time></trkpt><trkpt lat="43.86102524786171" lon="10.620073527505612"><ele>24.0</ele><time>2026-05-02T07:51:13.999Z</time></trkpt><trkpt lat="43.86098478075598" lon="10.619882314583982"><ele>24.0</ele><time>2026-05-02T07:51:14.999Z</time></trkpt><trkpt lat="43.86094679408839" lon="10.619697420359726"><ele>24.0</ele><time>2026-05-02T07:51:15.999Z</time></trkpt><trkpt lat="43.86091001280097" lon="10.619517717061035"><ele>24.0</ele><time>2026-05-02T07:51:16.999Z</time></trkpt><trkpt lat="43.86087190435084" lon="10.619336244682817"><ele>24.0</ele><time>2026-05-02T07:51:17.999Z</time></trkpt><trkpt lat="43.860823489516505" lon="10.619142079426217"><ele>24.0</ele><time>2026-05-02T07:51:18.999Z</time></trkpt><trkpt lat="43.86079140750087" lon="10.618920293544308"><ele>24.0</ele><time>2026-05-02T07:51:19.999Z</time></trkpt><trkpt lat="43.86074231475375" lon="10.61868939013948"><ele>24.0</ele><time>2026-05-02T07:51:20.999Z</time></trkpt><trkpt lat="43.860681399007014" lon="10.618458432719835"><ele>23.666666666666668</ele><time>2026-05-02T07:51:21.999Z</time></trkpt><trkpt lat="43.86063961242135" lon="10.618215939016311"><ele>23.333333333333336</ele><time>2026-05-02T07:51:22.999Z</time></trkpt><trkpt lat="43.860597894276125" lon="10.617975909261014"><ele>23.0</ele><time>2026-05-02T07:51:23.999Z</time></trkpt><trkpt lat="43.86055643231984" lon="10.617734158785868"><ele>24.0</ele><time>2026-05-02T07:51:24.999Z</time></trkpt><trkpt lat="43.8605197108643" lon="10.61749408808733"><ele>25.0</ele><time>2026-05-02T07:51:25.999Z</time></trkpt><trkpt lat="43.86049325451206" lon="10.617255614552143"><ele>26.0</ele><time>2026-05-02T07:51:26.999Z</time></trkpt><trkpt lat="43.86047911323339" lon="10.61702382246918"><ele>26.333333333333332</ele><time>2026-05-02T07:51:27.999Z</time></trkpt><trkpt lat="43.860473779062076" lon="10.616795589617524"><ele>26.666666666666664</ele><time>2026-05-02T07:51:28.999Z</time></trkpt><trkpt lat="43.86047891533972" lon="10.616563024532432"><ele>27.0</ele><time>2026-05-02T07:51:29.999Z</time></trkpt><trkpt lat="43.86048873087427" lon="10.616326356404338"><ele>26.333333333333336</ele><time>2026-05-02T07:51:30.999Z</time></trkpt><trkpt lat="43.86049453243757" lon="10.616090743545813"><ele>25.666666666666668</ele><time>2026-05-02T07:51:31.999Z</time></trkpt><trkpt lat="43.860506055560215" lon="10.61585089148685"><ele>25.0</ele><time>2026-05-02T07:51:32.999Z</time></trkpt><trkpt lat="43.86051448023183" lon="10.615612874290086"><ele>25.0</ele><time>2026-05-02T07:51:33.999Z</time></trkpt><trkpt lat="43.860522799265695" lon="10.615371181235053"><ele>25.0</ele><time>2026-05-02T07:51:34.999Z</time></trkpt><trkpt lat="43.860529554236294" lon="10.615128801746822"><ele>25.0</ele><time>2026-05-02T07:51:35.999Z</time></trkpt><trkpt lat="43.860538397135976" lon="10.614887239191301"><ele>24.0</ele><time>2026-05-02T07:51:36.999Z</time></trkpt><trkpt lat="43.860550386761" lon="10.614643754773303"><ele>23.0</ele><time>2026-05-02T07:51:37.999Z</time></trkpt><trkpt lat="43.86056142387041" lon="10.61440181609835"><ele>22.0</ele><time>2026-05-02T07:51:38.999Z</time></trkpt><trkpt lat="43.86057011829484" lon="10.614162363401968"><ele>21.666666666666664</ele><time>2026-05-02T07:51:39.999Z</time></trkpt><trkpt lat="43.86057936014985" lon="10.613922454732375"><ele>21.333333333333332</ele><time>2026-05-02T07:51:40.999Z</time></trkpt><trkpt lat="43.86058856272108" lon="10.61368809329401"><ele>21.0</ele><time>2026-05-02T07:51:41.999Z</time></trkpt><trkpt lat="43.86059797507817" lon="10.6134572909523"><ele>21.0</ele><time>2026-05-02T07:51:42.999Z</time></trkpt><trkpt lat="43.86060635957551" lon="10.613224737208641"><ele>21.0</ele><time>2026-05-02T07:51:43.999Z</time></trkpt><trkpt lat="43.86061702489789" lon="10.61299166727591"><ele>21.0</ele><time>2026-05-02T07:51:44.999Z</time></trkpt><trkpt lat="43.860626268808204" lon="10.612762488052148"><ele>20.0</ele><time>2026-05-02T07:51:45.998Z</time></trkpt><trkpt lat="43.86063428399379" lon="10.612537996751641"><ele>19.0</ele><time>2026-05-02T07:51:46.998Z</time></trkpt><trkpt lat="43.86064422469364" lon="10.612314098133421"><ele>18.0</ele><time>2026-05-02T07:51:47.998Z</time></trkpt><trkpt lat="43.860654560826816" lon="10.612095864441464"><ele>19.0</ele><time>2026-05-02T07:51:48.998Z</time></trkpt><trkpt lat="43.86066335695236" lon="10.611877716325674"><ele>20.0</ele><time>2026-05-02T07:51:49.998Z</time></trkpt><trkpt lat="43.86067078525131" lon="10.611668225963916"><ele>21.0</ele><time>2026-05-02T07:51:50.998Z</time></trkpt><trkpt lat="43.86067753327102" lon="10.611459186868172"><ele>21.0</ele><time>2026-05-02T07:51:51.998Z</time></trkpt><trkpt lat="43.86068426170029" lon="10.611254300462114"><ele>21.0</ele><time>2026-05-02T07:51:52.998Z</time></trkpt><trkpt lat="43.86069063616728" lon="10.61105500438534"><ele>21.0</ele><time>2026-05-02T07:51:53.998Z</time></trkpt><trkpt lat="43.86069918090643" lon="10.610857402894489"><ele>21.0</ele><time>2026-05-02T07:51:54.998Z</time></trkpt><trkpt lat="43.860707779406525" lon="10.610668756916438"><ele>21.0</ele><time>2026-05-02T07:51:55.998Z</time></trkpt><trkpt lat="43.86071606219549" lon="10.610484239997664"><ele>21.0</ele><time>2026-05-02T07:51:57Z</time></trkpt><trkpt lat="43.86072358145282" lon="10.610302189523471"><ele>21.0</ele><time>2026-05-02T07:51:58Z</time></trkpt><trkpt lat="43.86073164020518" lon="10.610118950290273"><ele>21.0</ele><time>2026-05-02T07:51:59Z</time></trkpt><trkpt lat="43.8607399600384" lon="10.609935243683339"><ele>21.0</ele><time>2026-05-02T07:52:00Z</time></trkpt><trkpt lat="43.86075013273831" lon="10.609752204261929"><ele>21.0</ele><time>2026-05-02T07:52:01Z</time></trkpt><trkpt lat="43.86076087445456" lon="10.6095653430619"><ele>21.0</ele><time>2026-05-02T07:52:02Z</time></trkpt><trkpt lat="43.86077063805825" lon="10.609377017286477"><ele>21.0</ele><time>2026-05-02T07:52:03Z</time></trkpt><trkpt lat="43.86077972510773" lon="10.609184401280496"><ele>21.25</ele><time>2026-05-02T07:52:04Z</time></trkpt><trkpt lat="43.86079004419855" lon="10.60899197873969"><ele>21.5</ele><time>2026-05-02T07:52:05Z</time></trkpt><trkpt lat="43.86080482532973" lon="10.608798117992945"><ele>21.75</ele><time>2026-05-02T07:52:06Z</time></trkpt><trkpt lat="43.86082162051341" lon="10.608604495825823"><ele>22.0</ele><time>2026-05-02T07:52:07Z</time></trkpt><trkpt lat="43.860835011652675" lon="10.608410556301202"><ele>21.5</ele><time>2026-05-02T07:52:08Z</time></trkpt><trkpt lat="43.86084020336852" lon="10.608215259922616"><ele>21.0</ele><time>2026-05-02T07:52:09Z</time></trkpt><trkpt lat="43.860835841724544" lon="10.608016860897651"><ele>20.5</ele><time>2026-05-02T07:52:10Z</time></trkpt><trkpt lat="43.860824304695754" lon="10.607818945175525"><ele>20.0</ele><time>2026-05-02T07:52:11Z</time></trkpt><trkpt lat="43.8608052567412" lon="10.60762252972276"><ele>20.0</ele><time>2026-05-02T07:52:12Z</time></trkpt><trkpt lat="43.860782814951364" lon="10.607423672436601"><ele>20.0</ele><time>2026-05-02T07:52:13Z</time></trkpt><trkpt lat="43.86075669743713" lon="10.607222951096517"><ele>20.0</ele><time>2026-05-02T07:52:14Z</time></trkpt><trkpt lat="43.860729999408285" lon="10.607019301064417"><ele>20.0</ele><time>2026-05-02T07:52:15Z</time></trkpt><trkpt lat="43.860702900741444" lon="10.60681404848612"><ele>19.333333333333336</ele><time>2026-05-02T07:52:16Z</time></trkpt><trkpt lat="43.860675895620325" lon="10.606608261814317"><ele>18.666666666666668</ele><time>2026-05-02T07:52:17Z</time></trkpt><trkpt lat="43.86065047850719" lon="10.60639616393502"><ele>18.0</ele><time>2026-05-02T07:52:18Z</time></trkpt><trkpt lat="43.86062467578565" lon="10.606185060830109"><ele>17.333333333333332</ele><time>2026-05-02T07:52:19Z</time></trkpt><trkpt lat="43.860598894026964" lon="10.60597194956672"><ele>16.666666666666664</ele><time>2026-05-02T07:52:20Z</time></trkpt><trkpt lat="43.86057289460858" lon="10.605755970244891"><ele>16.0</ele><time>2026-05-02T07:52:21Z</time></trkpt><trkpt lat="43.8605458184018" lon="10.605540553220212"><ele>16.666666666666664</ele><time>2026-05-02T07:52:22Z</time></trkpt><trkpt lat="43.86051790985847" lon="10.605328393384022"><ele>17.333333333333332</ele><time>2026-05-02T07:52:23Z</time></trkpt><trkpt lat="43.860490695327755" lon="10.60511346572313"><ele>18.0</ele><time>2026-05-02T07:52:24Z</time></trkpt><trkpt lat="43.86046472808969" lon="10.604897371709976"><ele>18.0</ele><time>2026-05-02T07:52:25Z</time></trkpt><trkpt lat="43.86043903690351" lon="10.604685369916046"><ele>18.0</ele><time>2026-05-02T07:52:26Z</time></trkpt><trkpt lat="43.86041291324333" lon="10.604475923396107"><ele>18.0</ele><time>2026-05-02T07:52:27Z</time></trkpt><trkpt lat="43.860387497740206" lon="10.604263097674023"><ele>17.666666666666668</ele><time>2026-05-02T07:52:28Z</time></trkpt><trkpt lat="43.86036088872784" lon="10.604051175436561"><ele>17.333333333333336</ele><time>2026-05-02T07:52:29Z</time></trkpt><trkpt lat="43.86033545273991" lon="10.603842193597163"><ele>17.0</ele><time>2026-05-02T07:52:30Z</time></trkpt><trkpt lat="43.860311631364276" lon="10.603631659844343"><ele>17.666666666666668</ele><time>2026-05-02T07:52:31Z</time></trkpt><trkpt lat="43.86028607428516" lon="10.603421963146271"><ele>18.333333333333332</ele><time>2026-05-02T07:52:32Z</time></trkpt><trkpt lat="43.8602607385435" lon="10.6032123880931"><ele>19.0</ele><time>2026-05-02T07:52:33Z</time></trkpt><trkpt lat="43.860235802985436" lon="10.603002886876993"><ele>18.333333333333332</ele><time>2026-05-02T07:52:34Z</time></trkpt><trkpt lat="43.860210515716986" lon="10.602794529841495"><ele>17.666666666666668</ele><time>2026-05-02T07:52:35Z</time></trkpt><trkpt lat="43.86018475996175" lon="10.602586895695742"><ele>17.0</ele><time>2026-05-02T07:52:36Z</time></trkpt><trkpt lat="43.86016025144292" lon="10.602379803423322"><ele>17.0</ele><time>2026-05-02T07:52:36.999Z</time></trkpt><trkpt lat="43.86013359227375" lon="10.602174625502462"><ele>17.0</ele><time>2026-05-02T07:52:37.999Z</time></trkpt><trkpt lat="43.86010761704079" lon="10.6019708504277"><ele>17.0</ele><time>2026-05-02T07:52:38.999Z</time></trkpt><trkpt lat="43.86008171436472" lon="10.601770851800676"><ele>17.0</ele><time>2026-05-02T07:52:39.999Z</time></trkpt><trkpt lat="43.86005890099339" lon="10.601568140191741"><ele>16.75</ele><time>2026-05-02T07:52:40.999Z</time></trkpt><trkpt lat="43.860033269074634" lon="10.601368418121574"><ele>16.5</ele><time>2026-05-02T07:52:41.999Z</time></trkpt><trkpt lat="43.86000750116841" lon="10.601167737291886"><ele>16.25</ele><time>2026-05-02T07:52:42.999Z</time></trkpt><trkpt lat="43.85998290237488" lon="10.600967239189142"><ele>16.0</ele><time>2026-05-02T07:52:43.999Z</time></trkpt><trkpt lat="43.85996076821345" lon="10.600768341193286"><ele>16.75</ele><time>2026-05-02T07:52:44.999Z</time></trkpt><trkpt lat="43.85993707814413" lon="10.60057219737909"><ele>17.5</ele><time>2026-05-02T07:52:45.999Z</time></trkpt><trkpt lat="43.85991221745059" lon="10.600373419909092"><ele>18.25</ele><time>2026-05-02T07:52:46.999Z</time></trkpt><trkpt lat="43.85988785589855" lon="10.600172095557143"><ele>19.0</ele><time>2026-05-02T07:52:47.999Z</time></trkpt><trkpt lat="43.859863578462985" lon="10.599966952692682"><ele>19.0</ele><time>2026-05-02T07:52:48.999Z</time></trkpt><trkpt lat="43.85983772042549" lon="10.599765179468482"><ele>19.0</ele><time>2026-05-02T07:52:49.999Z</time></trkpt><trkpt lat="43.85981168913964" lon="10.599561661482698"><ele>19.0</ele><time>2026-05-02T07:52:50.999Z</time></trkpt><trkpt lat="43.859787843109494" lon="10.599359473944329"><ele>19.0</ele><time>2026-05-02T07:52:51.999Z</time></trkpt><trkpt lat="43.85976386498797" lon="10.599157081449865"><ele>18.75</ele><time>2026-05-02T07:52:52.999Z</time></trkpt><trkpt lat="43.8597405246892" lon="10.598952512401786"><ele>18.5</ele><time>2026-05-02T07:52:53.999Z</time></trkpt><trkpt lat="43.85971676181749" lon="10.598748181417701"><ele>18.25</ele><time>2026-05-02T07:52:54.999Z</time></trkpt><trkpt lat="43.8596919758503" lon="10.598543044144073"><ele>18.0</ele><time>2026-05-02T07:52:55.999Z</time></trkpt><trkpt lat="43.85966690741994" lon="10.598335320608935"><ele>18.0</ele><time>2026-05-02T07:52:56.999Z</time></trkpt><trkpt lat="43.859641592152556" lon="10.59812850031494"><ele>18.0</ele><time>2026-05-02T07:52:57.999Z</time></trkpt><trkpt lat="43.859617138502635" lon="10.597923683459245"><ele>18.0</ele><time>2026-05-02T07:52:58.999Z</time></trkpt><trkpt lat="43.859590684399166" lon="10.597717567013174"><ele>18.0</ele><time>2026-05-02T07:52:59.999Z</time></trkpt><trkpt lat="43.85956482014354" lon="10.597512546439152"><ele>18.0</ele><time>2026-05-02T07:53:00.999Z</time></trkpt><trkpt lat="43.8595399340734" lon="10.597305924427493"><ele>18.0</ele><time>2026-05-02T07:53:01.999Z</time></trkpt><trkpt lat="43.8595150928399" lon="10.597101370209801"><ele>18.0</ele><time>2026-05-02T07:53:02.999Z</time></trkpt><trkpt lat="43.85948817066796" lon="10.596898355425843"><ele>18.0</ele><time>2026-05-02T07:53:03.999Z</time></trkpt><trkpt lat="43.85946267235725" lon="10.596699446490208"><ele>18.0</ele><time>2026-05-02T07:53:04.999Z</time></trkpt><trkpt lat="43.859436523743334" lon="10.596508235047912"><ele>18.0</ele><time>2026-05-02T07:53:05.999Z</time></trkpt><trkpt lat="43.8594118042768" lon="10.596320437521918"><ele>18.0</ele><time>2026-05-02T07:53:06.999Z</time></trkpt><trkpt lat="43.8593895514457" lon="10.596139599678569"><ele>18.0</ele><time>2026-05-02T07:53:07.999Z</time></trkpt><trkpt lat="43.85936788985795" lon="10.595965133755708"><ele>18.0</ele><time>2026-05-02T07:53:08.999Z</time></trkpt><trkpt lat="43.85934811481706" lon="10.595799507658294"><ele>18.0</ele><time>2026-05-02T07:53:09.999Z</time></trkpt><trkpt lat="43.85932892601503" lon="10.595640817326297"><ele>18.0</ele><time>2026-05-02T07:53:10.999Z</time></trkpt><trkpt lat="43.85930863787682" lon="10.595483988999465"><ele>18.0</ele><time>2026-05-02T07:53:11.999Z</time></trkpt><trkpt lat="43.85928716299305" lon="10.595327327290304"><ele>18.0</ele><time>2026-05-02T07:53:12.999Z</time></trkpt><trkpt lat="43.85926908540055" lon="10.595169474384328"><ele>18.0</ele><time>2026-05-02T07:53:13.999Z</time></trkpt><trkpt lat="43.85925334593453" lon="10.595007876659247"><ele>18.0</ele><time>2026-05-02T07:53:14.999Z</time></trkpt><trkpt lat="43.859234872177424" lon="10.594842649286473"><ele>18.0</ele><time>2026-05-02T07:53:15.999Z</time></trkpt><trkpt lat="43.859214563027706" lon="10.594672470660166"><ele>18.0</ele><time>2026-05-02T07:53:16.999Z</time></trkpt><trkpt lat="43.85919398174844" lon="10.594500876983995"><ele>18.0</ele><time>2026-05-02T07:53:17.999Z</time></trkpt><trkpt lat="43.85917404696636" lon="10.594331554733147"><ele>18.0</ele><time>2026-05-02T07:53:18.999Z</time></trkpt><trkpt lat="43.85915456979231" lon="10.594173656902825"><ele>18.0</ele><time>2026-05-02T07:53:19.999Z</time></trkpt><trkpt lat="43.85913614922758" lon="10.594027356263252"><ele>18.0</ele><time>2026-05-02T07:53:20.999Z</time></trkpt><trkpt lat="43.85911872589388" lon="10.593890899506574"><ele>18.0</ele><time>2026-05-02T07:53:21.999Z</time></trkpt><trkpt lat="43.85910352679098" lon="10.593766710967492"><ele>18.0</ele><time>2026-05-02T07:53:22.999Z</time></trkpt><trkpt lat="43.859090416473286" lon="10.593660546469655"><ele>18.28571428571429</ele><time>2026-05-02T07:53:23.999Z</time></trkpt><trkpt lat="43.859079974738066" lon="10.593568554351675"><ele>18.571428571428573</ele><time>2026-05-02T07:53:24.999Z</time></trkpt><trkpt lat="43.859068083540095" lon="10.593465303113287"><ele>18.857142857142858</ele><time>2026-05-02T07:53:26.999Z</time></trkpt><trkpt lat="43.85905124966321" lon="10.59334637772754"><ele>19.142857142857146</ele><time>2026-05-02T07:53:31.999Z</time></trkpt><trkpt lat="43.85903801066318" lon="10.593254053010654"><ele>19.42857142857143</ele><time>2026-05-02T07:53:33.999Z</time></trkpt><trkpt lat="43.85903128992264" lon="10.59316031999734"><ele>19.714285714285715</ele><time>2026-05-02T07:53:36.999Z</time></trkpt><trkpt lat="43.85902826887306" lon="10.593058150805037"><ele>20.0</ele><time>2026-05-02T07:53:40.999Z</time></trkpt><trkpt lat="43.859062980173505" lon="10.592923420750145"><ele>19.75</ele><time>2026-05-02T07:53:42.999Z</time></trkpt><trkpt lat="43.85911292938705" lon="10.592790577081473"><ele>19.5</ele><time>2026-05-02T07:53:44.999Z</time></trkpt><trkpt lat="43.85910033038881" lon="10.592656435246436"><ele>19.25</ele><time>2026-05-02T07:53:46.999Z</time></trkpt><trkpt lat="43.85901520498972" lon="10.59253976298945"><ele>19.0</ele><time>2026-05-02T07:53:48.999Z</time></trkpt><trkpt lat="43.85894515107019" lon="10.592387460838575"><ele>19.0</ele><time>2026-05-02T07:53:50.999Z</time></trkpt><trkpt lat="43.858929801678315" lon="10.592291622587586"><ele>19.0</ele><time>2026-05-02T07:53:51.999Z</time></trkpt><trkpt lat="43.85891699558004" lon="10.592197719501701"><ele>19.0</ele><time>2026-05-02T07:53:52.999Z</time></trkpt><trkpt lat="43.85890530386882" lon="10.592105529700271"><ele>19.0</ele><time>2026-05-02T07:53:53.999Z</time></trkpt><trkpt lat="43.858891287241576" lon="10.592009716289672"><ele>19.0</ele><time>2026-05-02T07:53:54.999Z</time></trkpt><trkpt lat="43.85888011572287" lon="10.591909559341627"><ele>19.0</ele><time>2026-05-02T07:53:55.999Z</time></trkpt><trkpt lat="43.858869892818106" lon="10.591816861001892"><ele>19.0</ele><time>2026-05-02T07:53:56.999Z</time></trkpt><trkpt lat="43.8588450988153" lon="10.59166173966969"><ele>18.833333333333332</ele><time>2026-05-02T07:53:58.999Z</time></trkpt><trkpt lat="43.85882893038704" lon="10.591537687985182"><ele>18.666666666666664</ele><time>2026-05-02T07:54:00.999Z</time></trkpt><trkpt lat="43.858828604844774" lon="10.591432531823557"><ele>18.5</ele><time>2026-05-02T07:54:05Z</time></trkpt><trkpt lat="43.85881620895933" lon="10.59133482520908"><ele>18.333333333333332</ele><time>2026-05-02T07:54:08Z</time></trkpt><trkpt lat="43.85878573966036" lon="10.591221029659293"><ele>18.166666666666668</ele><time>2026-05-02T07:54:10Z</time></trkpt><trkpt lat="43.85877028919591" lon="10.591099325801766"><ele>18.0</ele><time>2026-05-02T07:54:12Z</time></trkpt><trkpt lat="43.85875062466671" lon="10.590924800600638"><ele>18.0</ele><time>2026-05-02T07:54:14Z</time></trkpt><trkpt lat="43.858742127993935" lon="10.590834143083347"><ele>18.0</ele><time>2026-05-02T07:54:15Z</time></trkpt><trkpt lat="43.858731736937735" lon="10.590737249710322"><ele>18.0</ele><time>2026-05-02T07:54:16Z</time></trkpt><trkpt lat="43.858719852710415" lon="10.59063119293406"><ele>18.0</ele><time>2026-05-02T07:54:17Z</time></trkpt><trkpt lat="43.85870371596068" lon="10.590512796958736"><ele>18.0</ele><time>2026-05-02T07:54:18Z</time></trkpt><trkpt lat="43.858685895863836" lon="10.590389234171475"><ele>18.0</ele><time>2026-05-02T07:54:19Z</time></trkpt><trkpt lat="43.85866882552007" lon="10.590260896119851"><ele>18.0</ele><time>2026-05-02T07:54:20Z</time></trkpt><trkpt lat="43.85865352697571" lon="10.59012942877495"><ele>18.0</ele><time>2026-05-02T07:54:21Z</time></trkpt><trkpt lat="43.858637195775465" lon="10.589993823503734"><ele>18.0</ele><time>2026-05-02T07:54:22Z</time></trkpt><trkpt lat="43.85862092348188" lon="10.589855669242171"><ele>18.0</ele><time>2026-05-02T07:54:23Z</time></trkpt><trkpt lat="43.85860387744269" lon="10.589719514842715"><ele>18.0</ele><time>2026-05-02T07:54:24Z</time></trkpt><trkpt lat="43.85858710020144" lon="10.589584780914342"><ele>17.8</ele><time>2026-05-02T07:54:25Z</time></trkpt><trkpt lat="43.85856892172539" lon="10.58945113206034"><ele>17.6</ele><time>2026-05-02T07:54:26Z</time></trkpt><trkpt lat="43.85855103306807" lon="10.589318215563083"><ele>17.4</ele><time>2026-05-02T07:54:27Z</time></trkpt><trkpt lat="43.85853643162221" lon="10.589189794835896"><ele>17.2</ele><time>2026-05-02T07:54:28Z</time></trkpt><trkpt lat="43.85852196615621" lon="10.589064238069666"><ele>17.0</ele><time>2026-05-02T07:54:29Z</time></trkpt><trkpt lat="43.85850869648393" lon="10.588937571676622"><ele>17.0</ele><time>2026-05-02T07:54:30Z</time></trkpt><trkpt lat="43.85849324964171" lon="10.588811126912018"><ele>17.0</ele><time>2026-05-02T07:54:31Z</time></trkpt><trkpt lat="43.858476184884104" lon="10.588684691355937"><ele>17.0</ele><time>2026-05-02T07:54:32Z</time></trkpt><trkpt lat="43.858459318067695" lon="10.588559319472669"><ele>17.0</ele><time>2026-05-02T07:54:33Z</time></trkpt><trkpt lat="43.85844388292621" lon="10.588429762064688"><ele>17.0</ele><time>2026-05-02T07:54:34Z</time></trkpt><trkpt lat="43.85842838665817" lon="10.588291167672057"><ele>17.2</ele><time>2026-05-02T07:54:35Z</time></trkpt><trkpt lat="43.8584124897396" lon="10.588148065612629"><ele>17.4</ele><time>2026-05-02T07:54:36Z</time></trkpt><trkpt lat="43.85839658325144" lon="10.588009102223616"><ele>17.6</ele><time>2026-05-02T07:54:37Z</time></trkpt><trkpt lat="43.8583769481244" lon="10.587861458724577"><ele>17.8</ele><time>2026-05-02T07:54:38Z</time></trkpt><trkpt lat="43.858357089736046" lon="10.587707188329022"><ele>18.0</ele><time>2026-05-02T07:54:39Z</time></trkpt><trkpt lat="43.85833688850895" lon="10.587549614618046"><ele>18.25</ele><time>2026-05-02T07:54:40Z</time></trkpt><trkpt lat="43.8583178697472" lon="10.587387759156732"><ele>18.5</ele><time>2026-05-02T07:54:41Z</time></trkpt><trkpt lat="43.858299254684454" lon="10.587223358749048"><ele>18.75</ele><time>2026-05-02T07:54:42Z</time></trkpt><trkpt lat="43.858282089745856" lon="10.587059519700796"><ele>19.0</ele><time>2026-05-02T07:54:43Z</time></trkpt><trkpt lat="43.85826478962649" lon="10.586896781798597"><ele>18.4</ele><time>2026-05-02T07:54:44Z</time></trkpt><trkpt lat="43.858245369338576" lon="10.586736765164305"><ele>17.799999999999997</ele><time>2026-05-02T07:54:45Z</time></trkpt><trkpt lat="43.85822583589548" lon="10.586582578043338"><ele>17.200000000000003</ele><time>2026-05-02T07:54:46Z</time></trkpt><trkpt lat="43.85820838336753" lon="10.586435235727249"><ele>16.6</ele><time>2026-05-02T07:54:47Z</time></trkpt><trkpt lat="43.858195661195644" lon="10.58630587695952"><ele>16.0</ele><time>2026-05-02T07:54:48Z</time></trkpt><trkpt lat="43.858182507322375" lon="10.586193440808279"><ele>16.0</ele><time>2026-05-02T07:54:49Z</time></trkpt><trkpt lat="43.858168522996166" lon="10.586088662876518"><ele>15.999999999999998</ele><time>2026-05-02T07:54:50Z</time></trkpt><trkpt lat="43.858156562037436" lon="10.585990783145103"><ele>16.0</ele><time>2026-05-02T07:54:51Z</time></trkpt><trkpt lat="43.85814389829917" lon="10.585893364935096"><ele>16.0</ele><time>2026-05-02T07:54:52Z</time></trkpt><trkpt lat="43.858130878801724" lon="10.585799449050434"><ele>15.999999999999998</ele><time>2026-05-02T07:54:53Z</time></trkpt><trkpt lat="43.858120568878604" lon="10.585707985543308"><ele>16.0</ele><time>2026-05-02T07:54:54Z</time></trkpt><trkpt lat="43.85811071664369" lon="10.585615783093019"><ele>16.0</ele><time>2026-05-02T07:54:55Z</time></trkpt><trkpt lat="43.85809934284138" lon="10.585515661338864"><ele>16.0</ele><time>2026-05-02T07:54:56Z</time></trkpt><trkpt lat="43.85808504922228" lon="10.585413788375838"><ele>15.999999999999998</ele><time>2026-05-02T07:54:57Z</time></trkpt><trkpt lat="43.858073001038214" lon="10.585314925923491"><ele>16.0</ele><time>2026-05-02T07:54:58Z</time></trkpt><trkpt lat="43.858067275025455" lon="10.585217673812695"><ele>16.0</ele><time>2026-05-02T07:54:59Z</time></trkpt><trkpt lat="43.85806852950937" lon="10.585126054036772"><ele>15.999999999999998</ele><time>2026-05-02T07:55:00Z</time></trkpt><trkpt lat="43.858081410194224" lon="10.585035439829662"><ele>16.0</ele><time>2026-05-02T07:55:01Z</time></trkpt><trkpt lat="43.85811143810927" lon="10.584945263423174"><ele>16.0</ele><time>2026-05-02T07:55:01.999Z</time></trkpt><trkpt lat="43.85816469275515" lon="10.584860952822005"><ele>16.0</ele><time>2026-05-02T07:55:02.999Z</time></trkpt><trkpt lat="43.85823555638085" lon="10.584780357171995"><ele>16.0</ele><time>2026-05-02T07:55:03.999Z</time></trkpt><trkpt lat="43.8583143173329" lon="10.584704695094157"><ele>16.0</ele><time>2026-05-02T07:55:04.999Z</time></trkpt><trkpt lat="43.85841047617993" lon="10.584621322081974"><ele>16.0</ele><time>2026-05-02T07:55:05.999Z</time></trkpt><trkpt lat="43.858510100226916" lon="10.584541462452238"><ele>16.0</ele><time>2026-05-02T07:55:06.999Z</time></trkpt><trkpt lat="43.8586133110301" lon="10.584463492914995"><ele>16.0</ele><time>2026-05-02T07:55:07.999Z</time></trkpt><trkpt lat="43.85871785272214" lon="10.58438715965339"><ele>16.0</ele><time>2026-05-02T07:55:08.999Z</time></trkpt><trkpt lat="43.85881900352995" lon="10.584303400717067"><ele>16.0</ele><time>2026-05-02T07:55:09.999Z</time></trkpt><trkpt lat="43.85892321929027" lon="10.58422417802173"><ele>16.0</ele><time>2026-05-02T07:55:10.999Z</time></trkpt><trkpt lat="43.859029345770615" lon="10.584142079445655"><ele>16.0</ele><time>2026-05-02T07:55:11.999Z</time></trkpt><trkpt lat="43.85913907395339" lon="10.584061996449599"><ele>16.0</ele><time>2026-05-02T07:55:12.999Z</time></trkpt><trkpt lat="43.8592516980978" lon="10.583977151373107"><ele>16.0</ele><time>2026-05-02T07:55:13.999Z</time></trkpt><trkpt lat="43.85936353545451" lon="10.583888696079695"><ele>16.0</ele><time>2026-05-02T07:55:14.999Z</time></trkpt><trkpt lat="43.859478149293984" lon="10.583800690422983"><ele>16.5</ele><time>2026-05-02T07:55:15.999Z</time></trkpt><trkpt lat="43.85959607731538" lon="10.583712352498399"><ele>17.0</ele><time>2026-05-02T07:55:16.999Z</time></trkpt><trkpt lat="43.85971468140643" lon="10.58361872279051"><ele>17.5</ele><time>2026-05-02T07:55:17.999Z</time></trkpt><trkpt lat="43.85983734020477" lon="10.583524573537572"><ele>18.0</ele><time>2026-05-02T07:55:18.999Z</time></trkpt><trkpt lat="43.859961653679804" lon="10.583425756188168"><ele>18.0</ele><time>2026-05-02T07:55:19.999Z</time></trkpt><trkpt lat="43.86008889714455" lon="10.583326083575773"><ele>18.0</ele><time>2026-05-02T07:55:20.999Z</time></trkpt><trkpt lat="43.86021511372913" lon="10.583227515813773"><ele>18.0</ele><time>2026-05-02T07:55:21.999Z</time></trkpt><trkpt lat="43.86034241617098" lon="10.583127368298427"><ele>18.0</ele><time>2026-05-02T07:55:22.999Z</time></trkpt><trkpt lat="43.86047131936136" lon="10.5830261816222"><ele>18.0</ele><time>2026-05-02T07:55:23.999Z</time></trkpt><trkpt lat="43.860604384323324" lon="10.582919151983834"><ele>18.0</ele><time>2026-05-02T07:55:24.999Z</time></trkpt><trkpt lat="43.860734927033995" lon="10.582817968309202"><ele>18.0</ele><time>2026-05-02T07:55:25.999Z</time></trkpt><trkpt lat="43.86086485993555" lon="10.58271725492024"><ele>18.0</ele><time>2026-05-02T07:55:26.999Z</time></trkpt><trkpt lat="43.860993164113275" lon="10.582619201773744"><ele>18.0</ele><time>2026-05-02T07:55:27.999Z</time></trkpt><trkpt lat="43.86111700499971" lon="10.582523707793664"><ele>18.0</ele><time>2026-05-02T07:55:28.999Z</time></trkpt><trkpt lat="43.86123474343625" lon="10.582435047696716"><ele>18.0</ele><time>2026-05-02T07:55:29.999Z</time></trkpt><trkpt lat="43.8613422788667" lon="10.582347599327004"><ele>18.0</ele><time>2026-05-02T07:55:30.999Z</time></trkpt><trkpt lat="43.86144293605084" lon="10.582267922029446"><ele>18.0</ele><time>2026-05-02T07:55:31.999Z</time></trkpt><trkpt lat="43.86153653340467" lon="10.582199552726973"><ele>18.0</ele><time>2026-05-02T07:55:32.999Z</time></trkpt><trkpt lat="43.86161183623242" lon="10.582147441560407"><ele>18.0</ele><time>2026-05-02T07:55:33.999Z</time></trkpt><trkpt lat="43.86166887797734" lon="10.582107099329491"><ele>18.0</ele><time>2026-05-02T07:55:34.999Z</time></trkpt><trkpt lat="43.86174849436084" lon="10.58205329491766"><ele>18.0</ele><time>2026-05-02T07:55:36.999Z</time></trkpt><trkpt lat="43.86182555506994" lon="10.58203246411388"><ele>18.0</ele><time>2026-05-02T07:55:38.999Z</time></trkpt><trkpt lat="43.8618905972577" lon="10.581970109085237"><ele>18.0</ele><time>2026-05-02T07:55:40.999Z</time></trkpt><trkpt lat="43.861954547270045" lon="10.581916365473115"><ele>18.0</ele><time>2026-05-02T07:55:42.999Z</time></trkpt><trkpt lat="43.86201371119503" lon="10.581862951400979"><ele>18.0</ele><time>2026-05-02T07:55:44.999Z</time></trkpt><trkpt lat="43.86207408200097" lon="10.581789601150282"><ele>18.0</ele><time>2026-05-02T07:55:50.999Z</time></trkpt><trkpt lat="43.86213827587438" lon="10.581739939641306"><ele>18.0</ele><time>2026-05-02T07:55:51.999Z</time></trkpt><trkpt lat="43.862212598125375" lon="10.581659150370704"><ele>18.0</ele><time>2026-05-02T07:55:52.999Z</time></trkpt><trkpt lat="43.862306440200385" lon="10.581589311623699"><ele>18.0</ele><time>2026-05-02T07:55:53.999Z</time></trkpt><trkpt lat="43.86241059223474" lon="10.581509870484389"><ele>18.0</ele><time>2026-05-02T07:55:54.999Z</time></trkpt><trkpt lat="43.86253238821696" lon="10.581422406036959"><ele>18.0</ele><time>2026-05-02T07:55:55.999Z</time></trkpt><trkpt lat="43.862655888060985" lon="10.58133363256724"><ele>18.0</ele><time>2026-05-02T07:55:56.999Z</time></trkpt><trkpt lat="43.86276910766761" lon="10.581248441818484"><ele>18.0</ele><time>2026-05-02T07:55:57.999Z</time></trkpt><trkpt lat="43.862871590160346" lon="10.58116961923356"><ele>18.0</ele><time>2026-05-02T07:55:58.999Z</time></trkpt><trkpt lat="43.86296501692503" lon="10.581100836695683"><ele>18.166666666666668</ele><time>2026-05-02T07:55:59.999Z</time></trkpt><trkpt lat="43.86305058310341" lon="10.581038242390255"><ele>18.333333333333332</ele><time>2026-05-02T07:56:00.999Z</time></trkpt><trkpt lat="43.86312936355404" lon="10.580982412212453"><ele>18.5</ele><time>2026-05-02T07:56:01.999Z</time></trkpt><trkpt lat="43.86320654069101" lon="10.580926774797465"><ele>18.666666666666664</ele><time>2026-05-02T07:56:02.999Z</time></trkpt><trkpt lat="43.863282779434655" lon="10.58087187060916"><ele>18.833333333333332</ele><time>2026-05-02T07:56:03.999Z</time></trkpt><trkpt lat="43.86335510286726" lon="10.58081780197853"><ele>19.0</ele><time>2026-05-02T07:56:04.999Z</time></trkpt><trkpt lat="43.86342710291685" lon="10.580762489792956"><ele>19.333333333333332</ele><time>2026-05-02T07:56:05.999Z</time></trkpt><trkpt lat="43.863501088770704" lon="10.580701852302212"><ele>19.666666666666664</ele><time>2026-05-02T07:56:06.999Z</time></trkpt><trkpt lat="43.863576548129764" lon="10.5806416468324"><ele>20.0</ele><time>2026-05-02T07:56:07.999Z</time></trkpt><trkpt lat="43.86365430420681" lon="10.580584554357705"><ele>20.333333333333332</ele><time>2026-05-02T07:56:09Z</time></trkpt><trkpt lat="43.86373111124508" lon="10.580529293330182"><ele>20.666666666666668</ele><time>2026-05-02T07:56:10Z</time></trkpt><trkpt lat="43.86380532458899" lon="10.580472295810115"><ele>21.0</ele><time>2026-05-02T07:56:11Z</time></trkpt><trkpt lat="43.86388051885023" lon="10.580412815176159"><ele>21.0</ele><time>2026-05-02T07:56:12Z</time></trkpt><trkpt lat="43.86395079640372" lon="10.580353235974815"><ele>21.0</ele><time>2026-05-02T07:56:13Z</time></trkpt><trkpt lat="43.864016552883236" lon="10.580301058260714"><ele>21.0</ele><time>2026-05-02T07:56:14Z</time></trkpt><trkpt lat="43.86408057185896" lon="10.580251973859367"><ele>21.0</ele><time>2026-05-02T07:56:15Z</time></trkpt><trkpt lat="43.86414715992389" lon="10.580198330661704"><ele>21.0</ele><time>2026-05-02T07:56:16Z</time></trkpt><trkpt lat="43.864214329197615" lon="10.580144583320104"><ele>21.0</ele><time>2026-05-02T07:56:17Z</time></trkpt><trkpt lat="43.86428561550218" lon="10.580087725411717"><ele>20.5</ele><time>2026-05-02T07:56:18Z</time></trkpt><trkpt lat="43.864358227274145" lon="10.580028142023535"><ele>20.0</ele><time>2026-05-02T07:56:19Z</time></trkpt><trkpt lat="43.86443133704366" lon="10.57996800891878"><ele>19.5</ele><time>2026-05-02T07:56:20Z</time></trkpt><trkpt lat="43.864509781487136" lon="10.579908645871152"><ele>19.0</ele><time>2026-05-02T07:56:21Z</time></trkpt><trkpt lat="43.864592231543426" lon="10.579848820787841"><ele>18.5</ele><time>2026-05-02T07:56:22Z</time></trkpt><trkpt lat="43.86467561210337" lon="10.57978804950382"><ele>18.0</ele><time>2026-05-02T07:56:23Z</time></trkpt><trkpt lat="43.86475546828708" lon="10.579734581662564"><ele>18.0</ele><time>2026-05-02T07:56:24Z</time></trkpt><trkpt lat="43.864834998243666" lon="10.579696486700788"><ele>18.0</ele><time>2026-05-02T07:56:25Z</time></trkpt><trkpt lat="43.86491597709155" lon="10.579638328637092"><ele>18.0</ele><time>2026-05-02T07:56:26Z</time></trkpt><trkpt lat="43.86500541574687" lon="10.579547591428776"><ele>18.0</ele><time>2026-05-02T07:56:27Z</time></trkpt><trkpt lat="43.865107399103515" lon="10.579454912004943"><ele>18.0</ele><time>2026-05-02T07:56:28Z</time></trkpt><trkpt lat="43.86522245576513" lon="10.579367851628193"><ele>18.25</ele><time>2026-05-02T07:56:29Z</time></trkpt><trkpt lat="43.86533960504624" lon="10.579279630755043"><ele>18.5</ele><time>2026-05-02T07:56:30Z</time></trkpt><trkpt lat="43.8654611733059" lon="10.579185628465797"><ele>18.75</ele><time>2026-05-02T07:56:31Z</time></trkpt><trkpt lat="43.865578920825314" lon="10.579096030108571"><ele>19.0</ele><time>2026-05-02T07:56:32Z</time></trkpt><trkpt lat="43.865686244231085" lon="10.57901364177017"><ele>19.0</ele><time>2026-05-02T07:56:33Z</time></trkpt><trkpt lat="43.865788132920706" lon="10.578934122512209"><ele>19.0</ele><time>2026-05-02T07:56:34Z</time></trkpt><trkpt lat="43.865886358473496" lon="10.578857080230563"><ele>19.0</ele><time>2026-05-02T07:56:35Z</time></trkpt><trkpt lat="43.86598100619856" lon="10.578781300160816"><ele>19.0</ele><time>2026-05-02T07:56:36Z</time></trkpt><trkpt lat="43.866075435613084" lon="10.578705862871969"><ele>19.0</ele><time>2026-05-02T07:56:37Z</time></trkpt><trkpt lat="43.866171942760204" lon="10.578629466448744"><ele>19.5</ele><time>2026-05-02T07:56:38Z</time></trkpt><trkpt lat="43.86627120523343" lon="10.57855301509805"><ele>20.0</ele><time>2026-05-02T07:56:39Z</time></trkpt><trkpt lat="43.866371702910506" lon="10.578475640654446"><ele>20.5</ele><time>2026-05-02T07:56:40Z</time></trkpt><trkpt lat="43.86647337832667" lon="10.578397128598798"><ele>21.0</ele><time>2026-05-02T07:56:41Z</time></trkpt><trkpt lat="43.866576869257145" lon="10.578317186295216"><ele>21.0</ele><time>2026-05-02T07:56:42Z</time></trkpt><trkpt lat="43.86668271130749" lon="10.57823668703612"><ele>21.0</ele><time>2026-05-02T07:56:43Z</time></trkpt><trkpt lat="43.866790450179586" lon="10.578154620677147"><ele>21.0</ele><time>2026-05-02T07:56:44Z</time></trkpt><trkpt lat="43.86689927838973" lon="10.578071311396933"><ele>21.0</ele><time>2026-05-02T07:56:45Z</time></trkpt><trkpt lat="43.86700875538223" lon="10.577985861119659"><ele>21.0</ele><time>2026-05-02T07:56:46Z</time></trkpt><trkpt lat="43.86712039960987" lon="10.577899083512504"><ele>21.0</ele><time>2026-05-02T07:56:47Z</time></trkpt><trkpt lat="43.86723118358467" lon="10.577813001627595"><ele>21.0</ele><time>2026-05-02T07:56:48Z</time></trkpt><trkpt lat="43.86733903511996" lon="10.577728012134827"><ele>21.0</ele><time>2026-05-02T07:56:49Z</time></trkpt><trkpt lat="43.867444304642426" lon="10.577645284556532"><ele>21.0</ele><time>2026-05-02T07:56:50Z</time></trkpt><trkpt lat="43.867547835582" lon="10.577564867748773"><ele>21.0</ele><time>2026-05-02T07:56:51Z</time></trkpt><trkpt lat="43.86765068802094" lon="10.577487078405813"><ele>21.0</ele><time>2026-05-02T07:56:52Z</time></trkpt><trkpt lat="43.86775248868766" lon="10.577410061180746"><ele>21.0</ele><time>2026-05-02T07:56:53Z</time></trkpt><trkpt lat="43.867853469804636" lon="10.57733430344108"><ele>21.0</ele><time>2026-05-02T07:56:54Z</time></trkpt><trkpt lat="43.86795151274184" lon="10.577260803995465"><ele>21.0</ele><time>2026-05-02T07:56:55Z</time></trkpt><trkpt lat="43.868040919201356" lon="10.577192297365384"><ele>21.0</ele><time>2026-05-02T07:56:56Z</time></trkpt><trkpt lat="43.86812276310086" lon="10.577126037242106"><ele>21.0</ele><time>2026-05-02T07:56:57Z</time></trkpt><trkpt lat="43.868200571848554" lon="10.57706251039416"><ele>21.0</ele><time>2026-05-02T07:56:58Z</time></trkpt><trkpt lat="43.86827172627272" lon="10.577002545825144"><ele>21.0</ele><time>2026-05-02T07:56:59Z</time></trkpt><trkpt lat="43.86834209784476" lon="10.576945120965707"><ele>21.0</ele><time>2026-05-02T07:57:00Z</time></trkpt><trkpt lat="43.86841269400257" lon="10.576888431789607"><ele>21.0</ele><time>2026-05-02T07:57:01Z</time></trkpt><trkpt lat="43.868485458870246" lon="10.576830171450903"><ele>21.0</ele><time>2026-05-02T07:57:01.999Z</time></trkpt><trkpt lat="43.868558304424845" lon="10.576772697438692"><ele>21.0</ele><time>2026-05-02T07:57:02.999Z</time></trkpt><trkpt lat="43.8686288789214" lon="10.576717300319423"><ele>21.0</ele><time>2026-05-02T07:57:03.999Z</time></trkpt><trkpt lat="43.86869831317862" lon="10.576663034346565"><ele>21.0</ele><time>2026-05-02T07:57:04.999Z</time></trkpt><trkpt lat="43.86876558272833" lon="10.576611983028744"><ele>21.0</ele><time>2026-05-02T07:57:05.999Z</time></trkpt><trkpt lat="43.86883849152678" lon="10.576558726705978"><ele>21.0</ele><time>2026-05-02T07:57:06.999Z</time></trkpt><trkpt lat="43.868916864577194" lon="10.57650116540123"><ele>21.0</ele><time>2026-05-02T07:57:07.999Z</time></trkpt><trkpt lat="43.86899908252566" lon="10.576437412699306"><ele>21.0</ele><time>2026-05-02T07:57:08.999Z</time></trkpt><trkpt lat="43.8690842362049" lon="10.576367767723779"><ele>21.0</ele><time>2026-05-02T07:57:09.999Z</time></trkpt><trkpt lat="43.86917013245562" lon="10.576301538586147"><ele>21.0</ele><time>2026-05-02T07:57:10.999Z</time></trkpt><trkpt lat="43.86925775870856" lon="10.576235306735581"><ele>21.0</ele><time>2026-05-02T07:57:11.999Z</time></trkpt><trkpt lat="43.869350164893724" lon="10.576163326953653"><ele>21.0</ele><time>2026-05-02T07:57:12.999Z</time></trkpt><trkpt lat="43.86944567178191" lon="10.576091083474758"><ele>21.0</ele><time>2026-05-02T07:57:13.999Z</time></trkpt><trkpt lat="43.86954369875429" lon="10.57601648180866"><ele>21.0</ele><time>2026-05-02T07:57:14.999Z</time></trkpt><trkpt lat="43.86964337446355" lon="10.575940179600044"><ele>21.25</ele><time>2026-05-02T07:57:15.999Z</time></trkpt><trkpt lat="43.86974687594972" lon="10.575863754706363"><ele>21.5</ele><time>2026-05-02T07:57:16.999Z</time></trkpt><trkpt lat="43.869850711950285" lon="10.575785274019635"><ele>21.75</ele><time>2026-05-02T07:57:17.999Z</time></trkpt><trkpt lat="43.86995471342774" lon="10.57570186850685"><ele>22.0</ele><time>2026-05-02T07:57:18.999Z</time></trkpt><trkpt lat="43.870056776227365" lon="10.575619789736995"><ele>22.0</ele><time>2026-05-02T07:57:19.999Z</time></trkpt><trkpt lat="43.8701564335245" lon="10.575537605449242"><ele>22.0</ele><time>2026-05-02T07:57:20.999Z</time></trkpt><trkpt lat="43.87025466867307" lon="10.575459973879898"><ele>22.0</ele><time>2026-05-02T07:57:21.999Z</time></trkpt><trkpt lat="43.87034861103475" lon="10.575385334155348"><ele>22.0</ele><time>2026-05-02T07:57:22.999Z</time></trkpt><trkpt lat="43.87041816498148" lon="10.575327792806323"><ele>22.0</ele><time>2026-05-02T07:57:23.999Z</time></trkpt><trkpt lat="43.87049112020089" lon="10.575244916461438"><ele>22.0</ele><time>2026-05-02T07:57:25.999Z</time></trkpt><trkpt lat="43.87059633986229" lon="10.575167249245196"><ele>22.0</ele><time>2026-05-02T07:57:27.999Z</time></trkpt><trkpt lat="43.87066965754143" lon="10.575114614650536"><ele>22.0</ele><time>2026-05-02T07:57:28.999Z</time></trkpt><trkpt lat="43.87074723536207" lon="10.575057647054045"><ele>22.0</ele><time>2026-05-02T07:57:29.999Z</time></trkpt><trkpt lat="43.87082137315697" lon="10.575004667929838"><ele>22.0</ele><time>2026-05-02T07:57:30.999Z</time></trkpt><trkpt lat="43.87089495252181" lon="10.574954018803345"><ele>22.142857142857142</ele><time>2026-05-02T07:57:31.999Z</time></trkpt><trkpt lat="43.870964067289975" lon="10.574902583348821"><ele>22.285714285714285</ele><time>2026-05-02T07:57:32.999Z</time></trkpt><trkpt lat="43.87103143082673" lon="10.574851592442185"><ele>22.42857142857143</ele><time>2026-05-02T07:57:33.999Z</time></trkpt><trkpt lat="43.871092492734455" lon="10.574806844387153"><ele>22.57142857142857</ele><time>2026-05-02T07:57:34.999Z</time></trkpt><trkpt lat="43.87115085929895" lon="10.574762910239038"><ele>22.71428571428571</ele><time>2026-05-02T07:57:35.999Z</time></trkpt><trkpt lat="43.8712099537313" lon="10.57471495134584"><ele>22.857142857142858</ele><time>2026-05-02T07:57:36.999Z</time></trkpt><trkpt lat="43.87127566922038" lon="10.574660651543432"><ele>23.0</ele><time>2026-05-02T07:57:37.999Z</time></trkpt><trkpt lat="43.87135013271088" lon="10.574607310074292"><ele>23.0</ele><time>2026-05-02T07:57:38.999Z</time></trkpt><trkpt lat="43.87143369173931" lon="10.57455048822473"><ele>23.0</ele><time>2026-05-02T07:57:39.999Z</time></trkpt><trkpt lat="43.87152277538655" lon="10.574479315535251"><ele>23.0</ele><time>2026-05-02T07:57:40.999Z</time></trkpt><trkpt lat="43.87161720726391" lon="10.574404340353722"><ele>23.0</ele><time>2026-05-02T07:57:41.999Z</time></trkpt><trkpt lat="43.87170913003348" lon="10.574329567819976"><ele>23.0</ele><time>2026-05-02T07:57:42.999Z</time></trkpt><trkpt lat="43.87180816537399" lon="10.574251525361248"><ele>22.5</ele><time>2026-05-02T07:57:43.999Z</time></trkpt><trkpt lat="43.871911141339645" lon="10.574169887199837"><ele>22.0</ele><time>2026-05-02T07:57:44.999Z</time></trkpt><trkpt lat="43.87201750862632" lon="10.574087811277789"><ele>21.5</ele><time>2026-05-02T07:57:45.999Z</time></trkpt><trkpt lat="43.872128094673386" lon="10.574004523056974"><ele>21.0</ele><time>2026-05-02T07:57:46.999Z</time></trkpt><trkpt lat="43.87224178649998" lon="10.573916643284033"><ele>21.0</ele><time>2026-05-02T07:57:47.999Z</time></trkpt><trkpt lat="43.87235907854488" lon="10.573825926440458"><ele>21.0</ele><time>2026-05-02T07:57:48.999Z</time></trkpt><trkpt lat="43.87248028188251" lon="10.573732810351464"><ele>21.0</ele><time>2026-05-02T07:57:49.999Z</time></trkpt><trkpt lat="43.872606635310916" lon="10.573636237033416"><ele>21.0</ele><time>2026-05-02T07:57:50.999Z</time></trkpt><trkpt lat="43.872734919921136" lon="10.573539819535016"><ele>21.5</ele><time>2026-05-02T07:57:51.999Z</time></trkpt><trkpt lat="43.87286394104923" lon="10.573441529256467"><ele>22.0</ele><time>2026-05-02T07:57:52.999Z</time></trkpt><trkpt lat="43.87299377263874" lon="10.573341278155963"><ele>22.5</ele><time>2026-05-02T07:57:53.999Z</time></trkpt><trkpt lat="43.87312386973609" lon="10.57323995498088"><ele>23.0</ele><time>2026-05-02T07:57:54.999Z</time></trkpt><trkpt lat="43.87325606626803" lon="10.573136721917402"><ele>23.0</ele><time>2026-05-02T07:57:55.999Z</time></trkpt><trkpt lat="43.87338640919113" lon="10.573033207188864"><ele>23.0</ele><time>2026-05-02T07:57:56.999Z</time></trkpt><trkpt lat="43.87351893863375" lon="10.57293279146088"><ele>23.0</ele><time>2026-05-02T07:57:57.999Z</time></trkpt><trkpt lat="43.8736487985468" lon="10.57283302400315"><ele>23.75</ele><time>2026-05-02T07:57:58.999Z</time></trkpt><trkpt lat="43.87377794269016" lon="10.572734727130097"><ele>24.5</ele><time>2026-05-02T07:57:59.999Z</time></trkpt><trkpt lat="43.87390581095307" lon="10.572636066867442"><ele>25.25</ele><time>2026-05-02T07:58:00.999Z</time></trkpt><trkpt lat="43.874033755148126" lon="10.572533933770808"><ele>26.0</ele><time>2026-05-02T07:58:01.999Z</time></trkpt><trkpt lat="43.874164544873636" lon="10.572433026069369"><ele>26.25</ele><time>2026-05-02T07:58:02.999Z</time></trkpt><trkpt lat="43.87429525460134" lon="10.572331909480667"><ele>26.5</ele><time>2026-05-02T07:58:03.999Z</time></trkpt><trkpt lat="43.87442309866912" lon="10.572228134022218"><ele>26.75</ele><time>2026-05-02T07:58:04.999Z</time></trkpt><trkpt lat="43.874555095971026" lon="10.572125732964025"><ele>27.0</ele><time>2026-05-02T07:58:05.999Z</time></trkpt><trkpt lat="43.87468452465869" lon="10.572025186691697"><ele>26.666666666666664</ele><time>2026-05-02T07:58:06.999Z</time></trkpt><trkpt lat="43.87481800374812" lon="10.571923657981696"><ele>26.333333333333332</ele><time>2026-05-02T07:58:07.999Z</time></trkpt><trkpt lat="43.87494841988885" lon="10.571825971877304"><ele>26.0</ele><time>2026-05-02T07:58:08.999Z</time></trkpt><trkpt lat="43.87508180834556" lon="10.571724568275917"><ele>25.666666666666664</ele><time>2026-05-02T07:58:09.999Z</time></trkpt><trkpt lat="43.8752140674865" lon="10.571622319527533"><ele>25.333333333333336</ele><time>2026-05-02T07:58:10.999Z</time></trkpt><trkpt lat="43.875346305206065" lon="10.571516251989683"><ele>25.0</ele><time>2026-05-02T07:58:11.999Z</time></trkpt><trkpt lat="43.87547786565513" lon="10.571411666483199"><ele>25.0</ele><time>2026-05-02T07:58:12.999Z</time></trkpt><trkpt lat="43.87561268697071" lon="10.571308586806204"><ele>25.0</ele><time>2026-05-02T07:58:13.999Z</time></trkpt><trkpt lat="43.87574620336944" lon="10.571205364093819"><ele>25.0</ele><time>2026-05-02T07:58:15Z</time></trkpt><trkpt lat="43.87587847015798" lon="10.571103706666827"><ele>24.666666666666668</ele><time>2026-05-02T07:58:16Z</time></trkpt><trkpt lat="43.876010922964745" lon="10.571000623850281"><ele>24.333333333333336</ele><time>2026-05-02T07:58:17Z</time></trkpt><trkpt lat="43.87614462238126" lon="10.570896612916977"><ele>24.0</ele><time>2026-05-02T07:58:18Z</time></trkpt><trkpt lat="43.87627905503449" lon="10.570792900800281"><ele>24.0</ele><time>2026-05-02T07:58:19Z</time></trkpt><trkpt lat="43.87641467247017" lon="10.570687228023367"><ele>24.0</ele><time>2026-05-02T07:58:20Z</time></trkpt><trkpt lat="43.876548425804664" lon="10.570582677852013"><ele>24.0</ele><time>2026-05-02T07:58:21Z</time></trkpt><trkpt lat="43.87668303653106" lon="10.570478496658277"><ele>24.333333333333336</ele><time>2026-05-02T07:58:22Z</time></trkpt><trkpt lat="43.87681714531618" lon="10.57037503832591"><ele>24.666666666666668</ele><time>2026-05-02T07:58:23Z</time></trkpt><trkpt lat="43.87694950369163" lon="10.570272201099863"><ele>25.0</ele><time>2026-05-02T07:58:24Z</time></trkpt><trkpt lat="43.87708397759654" lon="10.570171309196166"><ele>25.25</ele><time>2026-05-02T07:58:25Z</time></trkpt><trkpt lat="43.87721849835547" lon="10.570070083286035"><ele>25.5</ele><time>2026-05-02T07:58:26Z</time></trkpt><trkpt lat="43.877347171204576" lon="10.569973687174654"><ele>25.75</ele><time>2026-05-02T07:58:27Z</time></trkpt><trkpt lat="43.8774699578194" lon="10.569879119050714"><ele>26.0</ele><time>2026-05-02T07:58:28Z</time></trkpt><trkpt lat="43.8775938408901" lon="10.569779241649217"><ele>26.0</ele><time>2026-05-02T07:58:29Z</time></trkpt><trkpt lat="43.87771628059533" lon="10.569680892870256"><ele>26.0</ele><time>2026-05-02T07:58:30Z</time></trkpt><trkpt lat="43.87783807351189" lon="10.56958377536477"><ele>26.0</ele><time>2026-05-02T07:58:31Z</time></trkpt><trkpt lat="43.8779608205423" lon="10.569488091935739"><ele>26.0</ele><time>2026-05-02T07:58:32Z</time></trkpt><trkpt lat="43.87808384505657" lon="10.569386744945563"><ele>26.0</ele><time>2026-05-02T07:58:33Z</time></trkpt><trkpt lat="43.87820785331005" lon="10.56928288022262"><ele>26.0</ele><time>2026-05-02T07:58:34Z</time></trkpt><trkpt lat="43.8783337886021" lon="10.569181729627749"><ele>26.0</ele><time>2026-05-02T07:58:35Z</time></trkpt><trkpt lat="43.87845930643974" lon="10.569082118085953"><ele>26.0</ele><time>2026-05-02T07:58:36Z</time></trkpt><trkpt lat="43.87858695361234" lon="10.56898122478659"><ele>26.0</ele><time>2026-05-02T07:58:37Z</time></trkpt><trkpt lat="43.87871586571211" lon="10.568882931247883"><ele>26.0</ele><time>2026-05-02T07:58:38Z</time></trkpt><trkpt lat="43.878848711172054" lon="10.568781342168812"><ele>26.0</ele><time>2026-05-02T07:58:39Z</time></trkpt><trkpt lat="43.87898417247275" lon="10.56868103722251"><ele>26.0</ele><time>2026-05-02T07:58:40Z</time></trkpt><trkpt lat="43.87912152768867" lon="10.568580055388802"><ele>26.0</ele><time>2026-05-02T07:58:41Z</time></trkpt><trkpt lat="43.87925891384104" lon="10.568477270319452"><ele>26.0</ele><time>2026-05-02T07:58:42Z</time></trkpt><trkpt lat="43.87939731509759" lon="10.568370571924381"><ele>26.0</ele><time>2026-05-02T07:58:43Z</time></trkpt><trkpt lat="43.87953716162939" lon="10.568263656734654"><ele>26.0</ele><time>2026-05-02T07:58:44Z</time></trkpt><trkpt lat="43.8796786001106" lon="10.568154993354549"><ele>26.0</ele><time>2026-05-02T07:58:45Z</time></trkpt><trkpt lat="43.87982146359086" lon="10.568045589165456"><ele>26.0</ele><time>2026-05-02T07:58:46Z</time></trkpt><trkpt lat="43.87996128811556" lon="10.567938315809462"><ele>26.0</ele><time>2026-05-02T07:58:47Z</time></trkpt><trkpt lat="43.88010387669274" lon="10.567829979459843"><ele>26.0</ele><time>2026-05-02T07:58:48Z</time></trkpt><trkpt lat="43.88024796537162" lon="10.567718887279865"><ele>26.0</ele><time>2026-05-02T07:58:49Z</time></trkpt><trkpt lat="43.88039353735231" lon="10.567607238417304"><ele>26.0</ele><time>2026-05-02T07:58:50Z</time></trkpt><trkpt lat="43.88053854687507" lon="10.567493431393045"><ele>26.0</ele><time>2026-05-02T07:58:51Z</time></trkpt><trkpt lat="43.880683965320166" lon="10.567379767400245"><ele>26.0</ele><time>2026-05-02T07:58:52Z</time></trkpt><trkpt lat="43.88083137197758" lon="10.567264892818837"><ele>26.0</ele><time>2026-05-02T07:58:53Z</time></trkpt><trkpt lat="43.880974819311014" lon="10.567149475323081"><ele>26.0</ele><time>2026-05-02T07:58:54Z</time></trkpt><trkpt lat="43.88112060544599" lon="10.567037923294343"><ele>27.0</ele><time>2026-05-02T07:58:55Z</time></trkpt><trkpt lat="43.881266577194786" lon="10.566924462654036"><ele>28.0</ele><time>2026-05-02T07:58:56Z</time></trkpt><trkpt lat="43.881410221780214" lon="10.56681212407907"><ele>29.0</ele><time>2026-05-02T07:58:57Z</time></trkpt><trkpt lat="43.88155763506066" lon="10.566698951295846"><ele>29.0</ele><time>2026-05-02T07:58:58Z</time></trkpt><trkpt lat="43.881701818465" lon="10.56658570074207"><ele>29.0</ele><time>2026-05-02T07:58:59Z</time></trkpt><trkpt lat="43.88184941489738" lon="10.566469829739244"><ele>29.0</ele><time>2026-05-02T07:59:00Z</time></trkpt><trkpt lat="43.88199394585167" lon="10.566353106962973"><ele>29.0</ele><time>2026-05-02T07:59:01Z</time></trkpt><trkpt lat="43.882143438825906" lon="10.566234798557748"><ele>29.0</ele><time>2026-05-02T07:59:02Z</time></trkpt><trkpt lat="43.882290110605" lon="10.56611875761391"><ele>29.0</ele><time>2026-05-02T07:59:03Z</time></trkpt><trkpt lat="43.882441489430484" lon="10.566001375585842"><ele>29.333333333333332</ele><time>2026-05-02T07:59:03.999Z</time></trkpt><trkpt lat="43.88259412617587" lon="10.565885109020655"><ele>29.666666666666664</ele><time>2026-05-02T07:59:04.999Z</time></trkpt><trkpt lat="43.88274220585057" lon="10.565769383397239"><ele>30.0</ele><time>2026-05-02T07:59:05.999Z</time></trkpt><trkpt lat="43.88289367771149" lon="10.565653740746162"><ele>30.0</ele><time>2026-05-02T07:59:06.999Z</time></trkpt><trkpt lat="43.88304644924416" lon="10.565537270925732"><ele>30.0</ele><time>2026-05-02T07:59:07.999Z</time></trkpt><trkpt lat="43.88319380837621" lon="10.565422700714716"><ele>30.0</ele><time>2026-05-02T07:59:08.999Z</time></trkpt><trkpt lat="43.883343933354936" lon="10.565306805738004"><ele>30.0</ele><time>2026-05-02T07:59:09.999Z</time></trkpt><trkpt lat="43.88349263269504" lon="10.565193666826367"><ele>30.0</ele><time>2026-05-02T07:59:10.999Z</time></trkpt><trkpt lat="43.88363652801326" lon="10.565083143287467"><ele>30.0</ele><time>2026-05-02T07:59:11.999Z</time></trkpt><trkpt lat="43.883768309470696" lon="10.564982629395772"><ele>30.0</ele><time>2026-05-02T07:59:12.999Z</time></trkpt><trkpt lat="43.883879500165655" lon="10.564894515662393"><ele>30.0</ele><time>2026-05-02T07:59:13.999Z</time></trkpt><trkpt lat="43.8839848969674" lon="10.564809580029255"><ele>30.0</ele><time>2026-05-02T07:59:14.999Z</time></trkpt><trkpt lat="43.884081404324675" lon="10.56473071392405"><ele>30.0</ele><time>2026-05-02T07:59:15.999Z</time></trkpt><trkpt lat="43.8841753934441" lon="10.564658321594441"><ele>30.0</ele><time>2026-05-02T07:59:16.999Z</time></trkpt><trkpt lat="43.884259814332225" lon="10.564589791622252"><ele>30.0</ele><time>2026-05-02T07:59:17.999Z</time></trkpt><trkpt lat="43.88434327159763" lon="10.564525582242672"><ele>30.0</ele><time>2026-05-02T07:59:18.999Z</time></trkpt><trkpt lat="43.88442824019483" lon="10.564459428140347"><ele>30.0</ele><time>2026-05-02T07:59:19.999Z</time></trkpt><trkpt lat="43.884517843049345" lon="10.564389146088256"><ele>30.0</ele><time>2026-05-02T07:59:20.999Z</time></trkpt><trkpt lat="43.884609019053826" lon="10.564317410218724"><ele>29.75</ele><time>2026-05-02T07:59:21.999Z</time></trkpt><trkpt lat="43.88470510786671" lon="10.564239220156232"><ele>29.5</ele><time>2026-05-02T07:59:22.999Z</time></trkpt><trkpt lat="43.88480631553817" lon="10.564160771593158"><ele>29.25</ele><time>2026-05-02T07:59:23.999Z</time></trkpt><trkpt lat="43.884909727532666" lon="10.564081147311951"><ele>29.0</ele><time>2026-05-02T07:59:24.999Z</time></trkpt><trkpt lat="43.8850098556847" lon="10.564004974098617"><ele>29.0</ele><time>2026-05-02T07:59:25.999Z</time></trkpt><trkpt lat="43.885103763173504" lon="10.563937648799998"><ele>29.0</ele><time>2026-05-02T07:59:26.999Z</time></trkpt><trkpt lat="43.885191406329504" lon="10.563871174609318"><ele>29.0</ele><time>2026-05-02T07:59:27.999Z</time></trkpt><trkpt lat="43.88527427069342" lon="10.56380566109601"><ele>29.0</ele><time>2026-05-02T07:59:28.999Z</time></trkpt><trkpt lat="43.88535103118895" lon="10.563745979785509"><ele>29.0</ele><time>2026-05-02T07:59:29.999Z</time></trkpt><trkpt lat="43.885423145150874" lon="10.563689546942424"><ele>29.2</ele><time>2026-05-02T07:59:30.999Z</time></trkpt><trkpt lat="43.88549728403407" lon="10.563637485019301"><ele>29.4</ele><time>2026-05-02T07:59:31.999Z</time></trkpt><trkpt lat="43.88555681220915" lon="10.563591729744749"><ele>29.6</ele><time>2026-05-02T07:59:32.999Z</time></trkpt><trkpt lat="43.88564696494137" lon="10.56351372418056"><ele>29.8</ele><time>2026-05-02T07:59:34.999Z</time></trkpt><trkpt lat="43.8857386940324" lon="10.563449502402603"><ele>30.0</ele><time>2026-05-02T07:59:36.999Z</time></trkpt><trkpt lat="43.88584461050139" lon="10.563372241488558"><ele>30.0</ele><time>2026-05-02T07:59:38.999Z</time></trkpt><trkpt lat="43.88590225569493" lon="10.563321072292474"><ele>30.0</ele><time>2026-05-02T07:59:39.999Z</time></trkpt><trkpt lat="43.88596475284359" lon="10.563269604446166"><ele>30.0</ele><time>2026-05-02T07:59:40.999Z</time></trkpt><trkpt lat="43.88602855642294" lon="10.563221190151259"><ele>30.0</ele><time>2026-05-02T07:59:41.999Z</time></trkpt><trkpt lat="43.886100125914226" lon="10.563164972770524"><ele>30.0</ele><time>2026-05-02T07:59:42.999Z</time></trkpt><trkpt lat="43.88617511246293" lon="10.563105907866696"><ele>30.0</ele><time>2026-05-02T07:59:43.999Z</time></trkpt><trkpt lat="43.8862558062368" lon="10.563045953006782"><ele>30.2</ele><time>2026-05-02T07:59:44.999Z</time></trkpt><trkpt lat="43.88633853309801" lon="10.56298600013793"><ele>30.4</ele><time>2026-05-02T07:59:45.999Z</time></trkpt><trkpt lat="43.88642573220381" lon="10.562924803466586"><ele>30.6</ele><time>2026-05-02T07:59:46.999Z</time></trkpt><trkpt lat="43.886517772551976" lon="10.562857984440793"><ele>30.8</ele><time>2026-05-02T07:59:47.999Z</time></trkpt><trkpt lat="43.8866135053983" lon="10.56278635757097"><ele>31.0</ele><time>2026-05-02T07:59:48.999Z</time></trkpt><trkpt lat="43.886711622011816" lon="10.562711537721174"><ele>31.25</ele><time>2026-05-02T07:59:49.999Z</time></trkpt><trkpt lat="43.88680961700142" lon="10.562631586529786"><ele>31.5</ele><time>2026-05-02T07:59:50.999Z</time></trkpt><trkpt lat="43.886913295934434" lon="10.562550725249595"><ele>31.75</ele><time>2026-05-02T07:59:51.999Z</time></trkpt><trkpt lat="43.887014030213464" lon="10.56246756602353"><ele>32.0</ele><time>2026-05-02T07:59:52.999Z</time></trkpt><trkpt lat="43.88712260428717" lon="10.562381832287432"><ele>32.0</ele><time>2026-05-02T07:59:53.999Z</time></trkpt><trkpt lat="43.88723583647781" lon="10.562295291566333"><ele>32.0</ele><time>2026-05-02T07:59:54.999Z</time></trkpt><trkpt lat="43.887355169850885" lon="10.562205918118343"><ele>32.0</ele><time>2026-05-02T07:59:55.999Z</time></trkpt><trkpt lat="43.88747594075401" lon="10.562112494050306"><ele>32.0</ele><time>2026-05-02T07:59:56.999Z</time></trkpt><trkpt lat="43.887598817348035" lon="10.562013479184161"><ele>32.25</ele><time>2026-05-02T07:59:57.999Z</time></trkpt><trkpt lat="43.88772464738605" lon="10.561914969715586"><ele>32.5</ele><time>2026-05-02T07:59:58.999Z</time></trkpt><trkpt lat="43.88785071289089" lon="10.561816945983331"><ele>32.75</ele><time>2026-05-02T07:59:59.999Z</time></trkpt><trkpt lat="43.8879742354348" lon="10.561718582333016"><ele>33.0</ele><time>2026-05-02T08:00:00.999Z</time></trkpt><trkpt lat="43.888101346591135" lon="10.561619768342274"><ele>33.0</ele><time>2026-05-02T08:00:01.999Z</time></trkpt><trkpt lat="43.88822828027879" lon="10.561522326181224"><ele>33.0</ele><time>2026-05-02T08:00:02.999Z</time></trkpt><trkpt lat="43.88835717169402" lon="10.561425446845558"><ele>33.0</ele><time>2026-05-02T08:00:03.999Z</time></trkpt><trkpt lat="43.88848755418856" lon="10.561326873418519"><ele>33.0</ele><time>2026-05-02T08:00:04.999Z</time></trkpt><trkpt lat="43.88862079145268" lon="10.561224774188082"><ele>33.333333333333336</ele><time>2026-05-02T08:00:05.999Z</time></trkpt><trkpt lat="43.88876051769465" lon="10.561121049874808"><ele>33.66666666666667</ele><time>2026-05-02T08:00:06.999Z</time></trkpt><trkpt lat="43.88890118283449" lon="10.561009062331102"><ele>34.0</ele><time>2026-05-02T08:00:07.999Z</time></trkpt><trkpt lat="43.889037348214956" lon="10.560902844472198"><ele>34.0</ele><time>2026-05-02T08:00:08.999Z</time></trkpt><trkpt lat="43.889166384617674" lon="10.560803169928487"><ele>34.0</ele><time>2026-05-02T08:00:09.999Z</time></trkpt><trkpt lat="43.88928980194372" lon="10.560703912490183"><ele>34.0</ele><time>2026-05-02T08:00:10.999Z</time></trkpt><trkpt lat="43.889409771832625" lon="10.560611546395643"><ele>34.0</ele><time>2026-05-02T08:00:11.999Z</time></trkpt><trkpt lat="43.889527265752065" lon="10.5605201637127"><ele>34.25</ele><time>2026-05-02T08:00:12.999Z</time></trkpt><trkpt lat="43.88964053925483" lon="10.56042950920713"><ele>34.5</ele><time>2026-05-02T08:00:13.999Z</time></trkpt><trkpt lat="43.88975234268161" lon="10.560342568529856"><ele>34.75</ele><time>2026-05-02T08:00:14.999Z</time></trkpt><trkpt lat="43.88986858670459" lon="10.560254007066241"><ele>35.0</ele><time>2026-05-02T08:00:15.999Z</time></trkpt><trkpt lat="43.889986592728874" lon="10.560163785041675"><ele>35.25</ele><time>2026-05-02T08:00:16.999Z</time></trkpt><trkpt lat="43.89010599974173" lon="10.560075022568176"><ele>35.5</ele><time>2026-05-02T08:00:17.999Z</time></trkpt><trkpt lat="43.890225635090985" lon="10.559984687337202"><ele>35.75</ele><time>2026-05-02T08:00:18.999Z</time></trkpt><trkpt lat="43.89034453342845" lon="10.559892937788618"><ele>36.0</ele><time>2026-05-02T08:00:20Z</time></trkpt><trkpt lat="43.89046298439003" lon="10.55980176642232"><ele>36.0</ele><time>2026-05-02T08:00:21Z</time></trkpt><trkpt lat="43.8905810518896" lon="10.559709509129181"><ele>36.0</ele><time>2026-05-02T08:00:22Z</time></trkpt><trkpt lat="43.89069805758013" lon="10.559615905987156"><ele>36.0</ele><time>2026-05-02T08:00:23Z</time></trkpt><trkpt lat="43.89081265701403" lon="10.5595245068796"><ele>36.0</ele><time>2026-05-02T08:00:24Z</time></trkpt><trkpt lat="43.89092789613938" lon="10.559435716194377"><ele>36.25</ele><time>2026-05-02T08:00:25Z</time></trkpt><trkpt lat="43.891046219067064" lon="10.559349732979932"><ele>36.5</ele><time>2026-05-02T08:00:26Z</time></trkpt><trkpt lat="43.8911669531105" lon="10.559260864955636"><ele>36.75</ele><time>2026-05-02T08:00:27Z</time></trkpt><trkpt lat="43.89128712185536" lon="10.559172726591546"><ele>37.0</ele><time>2026-05-02T08:00:28Z</time></trkpt><trkpt lat="43.89140731157956" lon="10.55908108932517"><ele>37.0</ele><time>2026-05-02T08:00:29Z</time></trkpt><trkpt lat="43.89152374995738" lon="10.55898998620306"><ele>37.0</ele><time>2026-05-02T08:00:30Z</time></trkpt><trkpt lat="43.891633167971285" lon="10.558902213493754"><ele>37.0</ele><time>2026-05-02T08:00:31Z</time></trkpt><trkpt lat="43.89173598614215" lon="10.558818129074757"><ele>37.0</ele><time>2026-05-02T08:00:32Z</time></trkpt><trkpt lat="43.891834334752765" lon="10.558730718175939"><ele>37.2</ele><time>2026-05-02T08:00:33Z</time></trkpt><trkpt lat="43.89192457513737" lon="10.55863961935467"><ele>37.400000000000006</ele><time>2026-05-02T08:00:34Z</time></trkpt><trkpt lat="43.892007836111084" lon="10.558538563204927"><ele>37.599999999999994</ele><time>2026-05-02T08:00:35Z</time></trkpt><trkpt lat="43.89208559189193" lon="10.558429698308428"><ele>37.8</ele><time>2026-05-02T08:00:36Z</time></trkpt><trkpt lat="43.892155604423" lon="10.558310352031514"><ele>38.0</ele><time>2026-05-02T08:00:37Z</time></trkpt><trkpt lat="43.892218957684946" lon="10.558179352314443"><ele>38.0</ele><time>2026-05-02T08:00:38Z</time></trkpt><trkpt lat="43.89226999276995" lon="10.558034043399791"><ele>38.0</ele><time>2026-05-02T08:00:39Z</time></trkpt><trkpt lat="43.892308982456676" lon="10.557877755573958"><ele>38.0</ele><time>2026-05-02T08:00:40Z</time></trkpt><trkpt lat="43.892341774433966" lon="10.557719596235152"><ele>38.0</ele><time>2026-05-02T08:00:41Z</time></trkpt><trkpt lat="43.892369125355266" lon="10.557554755089342"><ele>38.25</ele><time>2026-05-02T08:00:42Z</time></trkpt><trkpt lat="43.89239269239064" lon="10.55738612035613"><ele>38.5</ele><time>2026-05-02T08:00:43Z</time></trkpt><trkpt lat="43.892415286172344" lon="10.557216885662411"><ele>38.75</ele><time>2026-05-02T08:00:44Z</time></trkpt><trkpt lat="43.89243764711232" lon="10.557044661872933"><ele>39.0</ele><time>2026-05-02T08:00:45Z</time></trkpt><trkpt lat="43.892459603098274" lon="10.556872687661397"><ele>39.0</ele><time>2026-05-02T08:00:46Z</time></trkpt><trkpt lat="43.89248232463022" lon="10.556701487978168"><ele>39.0</ele><time>2026-05-02T08:00:47Z</time></trkpt><trkpt lat="43.89250238655477" lon="10.556533259769417"><ele>39.0</ele><time>2026-05-02T08:00:48Z</time></trkpt><trkpt lat="43.892520801914394" lon="10.556366645034577"><ele>39.0</ele><time>2026-05-02T08:00:49Z</time></trkpt><trkpt lat="43.892538583014854" lon="10.556205133847902"><ele>39.2</ele><time>2026-05-02T08:00:50Z</time></trkpt><trkpt lat="43.89255605736503" lon="10.556048436269286"><ele>39.4</ele><time>2026-05-02T08:00:51Z</time></trkpt><trkpt lat="43.89257265652134" lon="10.555897942414193"><ele>39.6</ele><time>2026-05-02T08:00:52Z</time></trkpt><trkpt lat="43.892587221416136" lon="10.555758043477988"><ele>39.8</ele><time>2026-05-02T08:00:53Z</time></trkpt><trkpt lat="43.892599541944094" lon="10.555638632963039"><ele>40.0</ele><time>2026-05-02T08:00:54Z</time></trkpt><trkpt lat="43.89260658750565" lon="10.555544483414645"><ele>40.0</ele><time>2026-05-02T08:00:55Z</time></trkpt><trkpt lat="43.89261611678224" lon="10.55544411543638"><ele>40.0</ele><time>2026-05-02T08:00:57Z</time></trkpt><trkpt lat="43.89263029283467" lon="10.555347855545989"><ele>40.0</ele><time>2026-05-02T08:01:30Z</time></trkpt><trkpt lat="43.89264090503285" lon="10.555206352662204"><ele>40.0</ele><time>2026-05-02T08:01:32Z</time></trkpt><trkpt lat="43.892666796562416" lon="10.555027886432013"><ele>40.0</ele><time>2026-05-02T08:01:34Z</time></trkpt><trkpt lat="43.89268172687766" lon="10.554933526459852"><ele>40.0</ele><time>2026-05-02T08:01:35Z</time></trkpt><trkpt lat="43.892698335558954" lon="10.554827039852624"><ele>40.0</ele><time>2026-05-02T08:01:35.999Z</time></trkpt><trkpt lat="43.89271399692744" lon="10.554710397364332"><ele>40.0</ele><time>2026-05-02T08:01:36.999Z</time></trkpt><trkpt lat="43.89273170053309" lon="10.554582383043574"><ele>40.0</ele><time>2026-05-02T08:01:37.999Z</time></trkpt><trkpt lat="43.892749577944286" lon="10.554450556517928"><ele>40.0</ele><time>2026-05-02T08:01:38.999Z</time></trkpt><trkpt lat="43.89276719434471" lon="10.554309552306812"><ele>40.0</ele><time>2026-05-02T08:01:39.999Z</time></trkpt><trkpt lat="43.892786875011694" lon="10.554158212852382"><ele>39.75</ele><time>2026-05-02T08:01:40.999Z</time></trkpt><trkpt lat="43.89280862164221" lon="10.553999607633898"><ele>39.5</ele><time>2026-05-02T08:01:41.999Z</time></trkpt><trkpt lat="43.89283073477365" lon="10.553833388130032"><ele>39.25</ele><time>2026-05-02T08:01:42.999Z</time></trkpt><trkpt lat="43.89285545481317" lon="10.553658082089003"><ele>39.0</ele><time>2026-05-02T08:01:43.999Z</time></trkpt><trkpt lat="43.892876778899485" lon="10.55348964915335"><ele>39.0</ele><time>2026-05-02T08:01:44.999Z</time></trkpt><trkpt lat="43.892897218163036" lon="10.553316254099805"><ele>39.0</ele><time>2026-05-02T08:01:45.999Z</time></trkpt><trkpt lat="43.89291714282051" lon="10.553137991946565"><ele>39.0</ele><time>2026-05-02T08:01:46.999Z</time></trkpt><trkpt lat="43.892937262404764" lon="10.552959092336879"><ele>39.0</ele><time>2026-05-02T08:01:47.999Z</time></trkpt><trkpt lat="43.892958898702425" lon="10.552779180180838"><ele>39.0</ele><time>2026-05-02T08:01:48.999Z</time></trkpt><trkpt lat="43.892978023238484" lon="10.552600657719053"><ele>39.0</ele><time>2026-05-02T08:01:49.999Z</time></trkpt><trkpt lat="43.89299660512475" lon="10.55242185037608"><ele>39.0</ele><time>2026-05-02T08:01:50.999Z</time></trkpt><trkpt lat="43.893016060100074" lon="10.552241885695564"><ele>39.0</ele><time>2026-05-02T08:01:51.999Z</time></trkpt><trkpt lat="43.893035770839994" lon="10.552061962367725"><ele>39.0</ele><time>2026-05-02T08:01:52.999Z</time></trkpt><trkpt lat="43.89305584535219" lon="10.551881527259772"><ele>39.0</ele><time>2026-05-02T08:01:53.999Z</time></trkpt><trkpt lat="43.89307487488719" lon="10.551699142468486"><ele>39.0</ele><time>2026-05-02T08:01:54.999Z</time></trkpt><trkpt lat="43.89309564753152" lon="10.551516154744892"><ele>39.0</ele><time>2026-05-02T08:01:55.999Z</time></trkpt><trkpt lat="43.89311640298737" lon="10.551331521461014"><ele>39.0</ele><time>2026-05-02T08:01:56.999Z</time></trkpt><trkpt lat="43.89313613411272" lon="10.551145913721422"><ele>39.0</ele><time>2026-05-02T08:01:57.999Z</time></trkpt><trkpt lat="43.89315618501122" lon="10.550960463282923"><ele>39.0</ele><time>2026-05-02T08:01:58.999Z</time></trkpt><trkpt lat="43.89317679394653" lon="10.55077260251612"><ele>39.0</ele><time>2026-05-02T08:01:59.999Z</time></trkpt><trkpt lat="43.893197461844395" lon="10.55058351261531"><ele>39.0</ele><time>2026-05-02T08:02:00.999Z</time></trkpt><trkpt lat="43.89321730591077" lon="10.550394438544936"><ele>39.0</ele><time>2026-05-02T08:02:01.999Z</time></trkpt><trkpt lat="43.893237586644815" lon="10.550204358917076"><ele>39.0</ele><time>2026-05-02T08:02:02.999Z</time></trkpt><trkpt lat="43.89325819780525" lon="10.550012256450307"><ele>39.0</ele><time>2026-05-02T08:02:03.999Z</time></trkpt><trkpt lat="43.89327835356648" lon="10.54982146755622"><ele>38.75</ele><time>2026-05-02T08:02:04.999Z</time></trkpt><trkpt lat="43.893299258756166" lon="10.549629344064062"><ele>38.5</ele><time>2026-05-02T08:02:05.999Z</time></trkpt><trkpt lat="43.89331974865671" lon="10.549438792358254"><ele>38.25</ele><time>2026-05-02T08:02:06.999Z</time></trkpt><trkpt lat="43.8933427886342" lon="10.549247030196964"><ele>38.0</ele><time>2026-05-02T08:02:07.999Z</time></trkpt><trkpt lat="43.89336504086573" lon="10.549057465444433"><ele>37.75</ele><time>2026-05-02T08:02:08.999Z</time></trkpt><trkpt lat="43.89338909173203" lon="10.548865561903746"><ele>37.5</ele><time>2026-05-02T08:02:09.999Z</time></trkpt><trkpt lat="43.893412441532995" lon="10.548674315073049"><ele>37.25</ele><time>2026-05-02T08:02:10.999Z</time></trkpt><trkpt lat="43.89343711059311" lon="10.548480350239172"><ele>37.0</ele><time>2026-05-02T08:02:11.999Z</time></trkpt><trkpt lat="43.89346302602312" lon="10.548288764895679"><ele>37.0</ele><time>2026-05-02T08:02:12.999Z</time></trkpt><trkpt lat="43.89349243993242" lon="10.548097451556707"><ele>37.0</ele><time>2026-05-02T08:02:13.999Z</time></trkpt><trkpt lat="43.8935253101312" lon="10.547908225932428"><ele>37.0</ele><time>2026-05-02T08:02:14.999Z</time></trkpt><trkpt lat="43.89355903979014" lon="10.547719162192974"><ele>37.0</ele><time>2026-05-02T08:02:15.999Z</time></trkpt><trkpt lat="43.893594114775624" lon="10.54752859405291"><ele>36.75</ele><time>2026-05-02T08:02:16.999Z</time></trkpt><trkpt lat="43.89363041677653" lon="10.547336331834913"><ele>36.5</ele><time>2026-05-02T08:02:17.999Z</time></trkpt><trkpt lat="43.89366778829771" lon="10.547142437976905"><ele>36.25</ele><time>2026-05-02T08:02:18.999Z</time></trkpt><trkpt lat="43.89370875712047" lon="10.546950183621345"><ele>36.0</ele><time>2026-05-02T08:02:19.999Z</time></trkpt><trkpt lat="43.893750605466614" lon="10.546757882957639"><ele>36.0</ele><time>2026-05-02T08:02:20.999Z</time></trkpt><trkpt lat="43.89379093593065" lon="10.546561830376797"><ele>36.0</ele><time>2026-05-02T08:02:21.999Z</time></trkpt><trkpt lat="43.8938319633038" lon="10.54636500676814"><ele>36.0</ele><time>2026-05-02T08:02:22.999Z</time></trkpt><trkpt lat="43.893875166262816" lon="10.546170299619108"><ele>36.0</ele><time>2026-05-02T08:02:23.999Z</time></trkpt><trkpt lat="43.89391791789918" lon="10.545978120442332"><ele>36.0</ele><time>2026-05-02T08:02:24.999Z</time></trkpt><trkpt lat="43.893962629865854" lon="10.545782427980749"><ele>36.0</ele><time>2026-05-02T08:02:26Z</time></trkpt><trkpt lat="43.894007313042046" lon="10.545582000826315"><ele>36.0</ele><time>2026-05-02T08:02:27Z</time></trkpt><trkpt lat="43.8940493944108" lon="10.545382535785084"><ele>36.0</ele><time>2026-05-02T08:02:28Z</time></trkpt><trkpt lat="43.894094981811385" lon="10.545176585720773"><ele>36.0</ele><time>2026-05-02T08:02:29Z</time></trkpt><trkpt lat="43.8941373918841" lon="10.544971091706815"><ele>36.0</ele><time>2026-05-02T08:02:30Z</time></trkpt><trkpt lat="43.894181699433716" lon="10.544765289232359"><ele>36.0</ele><time>2026-05-02T08:02:31Z</time></trkpt><trkpt lat="43.89422557043554" lon="10.544554938491842"><ele>36.333333333333336</ele><time>2026-05-02T08:02:32Z</time></trkpt><trkpt lat="43.8942707497241" lon="10.544347581594515"><ele>36.66666666666667</ele><time>2026-05-02T08:02:33Z</time></trkpt><trkpt lat="43.89431541145726" lon="10.544139045801078"><ele>37.0</ele><time>2026-05-02T08:02:34Z</time></trkpt><trkpt lat="43.89435735670942" lon="10.5439338101139"><ele>37.0</ele><time>2026-05-02T08:02:35Z</time></trkpt><trkpt lat="43.89440099211959" lon="10.543729150778177"><ele>37.0</ele><time>2026-05-02T08:02:36Z</time></trkpt><trkpt lat="43.894444605908724" lon="10.543525590794655"><ele>37.0</ele><time>2026-05-02T08:02:37Z</time></trkpt><trkpt lat="43.89448809935054" lon="10.543325920194208"><ele>37.333333333333336</ele><time>2026-05-02T08:02:38Z</time></trkpt><trkpt lat="43.89453236250109" lon="10.543127442309244"><ele>37.666666666666664</ele><time>2026-05-02T08:02:39Z</time></trkpt><trkpt lat="43.894576799125396" lon="10.542927285134233"><ele>38.0</ele><time>2026-05-02T08:02:40Z</time></trkpt><trkpt lat="43.89462405040332" lon="10.542723197601806"><ele>38.0</ele><time>2026-05-02T08:02:41Z</time></trkpt><trkpt lat="43.89467260017102" lon="10.542516676916684"><ele>38.0</ele><time>2026-05-02T08:02:42Z</time></trkpt><trkpt lat="43.89472022799259" lon="10.542308464033187"><ele>38.0</ele><time>2026-05-02T08:02:43Z</time></trkpt><trkpt lat="43.89476944072152" lon="10.542103724910612"><ele>38.0</ele><time>2026-05-02T08:02:44Z</time></trkpt><trkpt lat="43.894814388580116" lon="10.541902345336462"><ele>38.0</ele><time>2026-05-02T08:02:45Z</time></trkpt><trkpt lat="43.89485258089169" lon="10.541715221474723"><ele>38.0</ele><time>2026-05-02T08:02:46Z</time></trkpt><trkpt lat="43.89488839996321" lon="10.541542334842378"><ele>38.0</ele><time>2026-05-02T08:02:47Z</time></trkpt><trkpt lat="43.894924592160294" lon="10.541375009402394"><ele>37.75</ele><time>2026-05-02T08:02:48Z</time></trkpt><trkpt lat="43.89496622949505" lon="10.541196706645763"><ele>37.5</ele><time>2026-05-02T08:02:49Z</time></trkpt><trkpt lat="43.8950001039196" lon="10.541027498031296"><ele>37.25</ele><time>2026-05-02T08:02:50Z</time></trkpt><trkpt lat="43.895032891977756" lon="10.54087408856277"><ele>37.0</ele><time>2026-05-02T08:02:51Z</time></trkpt><trkpt lat="43.89506468325311" lon="10.540726058958283"><ele>36.800000000000004</ele><time>2026-05-02T08:02:52Z</time></trkpt><trkpt lat="43.89509639763111" lon="10.54057913317283"><ele>36.6</ele><time>2026-05-02T08:02:53Z</time></trkpt><trkpt lat="43.89512781612736" lon="10.540429921058633"><ele>36.400000000000006</ele><time>2026-05-02T08:02:54Z</time></trkpt><trkpt lat="43.89515995134998" lon="10.540280031648678"><ele>36.2</ele><time>2026-05-02T08:02:55Z</time></trkpt><trkpt lat="43.895191027609876" lon="10.540128359589291"><ele>36.0</ele><time>2026-05-02T08:02:56Z</time></trkpt><trkpt lat="43.89522338908532" lon="10.53997548895344"><ele>36.0</ele><time>2026-05-02T08:02:57Z</time></trkpt><trkpt lat="43.895255040484074" lon="10.539824923533056"><ele>36.0</ele><time>2026-05-02T08:02:58Z</time></trkpt><trkpt lat="43.895286910366316" lon="10.53967109316636"><ele>36.0</ele><time>2026-05-02T08:02:59Z</time></trkpt><trkpt lat="43.89531947847248" lon="10.539512618024338"><ele>36.0</ele><time>2026-05-02T08:03:00Z</time></trkpt><trkpt lat="43.89535348861138" lon="10.539350996689297"><ele>36.0</ele><time>2026-05-02T08:03:01Z</time></trkpt><trkpt lat="43.89538927619577" lon="10.539186102844491"><ele>36.0</ele><time>2026-05-02T08:03:02Z</time></trkpt><trkpt lat="43.895424190944695" lon="10.539018933577243"><ele>36.0</ele><time>2026-05-02T08:03:03Z</time></trkpt><trkpt lat="43.89545980296614" lon="10.5388497570301"><ele>36.0</ele><time>2026-05-02T08:03:04Z</time></trkpt><trkpt lat="43.89549515988155" lon="10.538681855683283"><ele>35.5</ele><time>2026-05-02T08:03:05Z</time></trkpt><trkpt lat="43.895532648790265" lon="10.538518669382258"><ele>35.0</ele><time>2026-05-02T08:03:06Z</time></trkpt><trkpt lat="43.89556749395453" lon="10.538359042542673"><ele>34.5</ele><time>2026-05-02T08:03:07Z</time></trkpt><trkpt lat="43.895599921272634" lon="10.538204988186497"><ele>34.0</ele><time>2026-05-02T08:03:08Z</time></trkpt><trkpt lat="43.895633769054456" lon="10.538054639201096"><ele>34.0</ele><time>2026-05-02T08:03:09Z</time></trkpt><trkpt lat="43.89567094512401" lon="10.537913795582146"><ele>34.0</ele><time>2026-05-02T08:03:10Z</time></trkpt><trkpt lat="43.89571328958371" lon="10.537783902477416"><ele>34.0</ele><time>2026-05-02T08:03:11Z</time></trkpt><trkpt lat="43.8957661680917" lon="10.537674192017693"><ele>34.0</ele><time>2026-05-02T08:03:12Z</time></trkpt><trkpt lat="43.895824338319244" lon="10.537593992901233"><ele>34.0</ele><time>2026-05-02T08:03:13Z</time></trkpt><trkpt lat="43.8958838869186" lon="10.537529394426853"><ele>34.0</ele><time>2026-05-02T08:03:14Z</time></trkpt><trkpt lat="43.895948563968275" lon="10.537476588235217"><ele>34.0</ele><time>2026-05-02T08:03:15Z</time></trkpt><trkpt lat="43.89601130983571" lon="10.537437327468988"><ele>34.0</ele><time>2026-05-02T08:03:16Z</time></trkpt><trkpt lat="43.896130697072714" lon="10.537395806540049"><ele>34.0</ele><time>2026-05-02T08:03:18Z</time></trkpt><trkpt lat="43.89619382641862" lon="10.537374831103723"><ele>34.0</ele><time>2026-05-02T08:03:19Z</time></trkpt><trkpt lat="43.89626101613281" lon="10.537339349333129"><ele>34.0</ele><time>2026-05-02T08:03:20Z</time></trkpt><trkpt lat="43.89632738633341" lon="10.537287761865445"><ele>34.0</ele><time>2026-05-02T08:03:21Z</time></trkpt><trkpt lat="43.89638723463746" lon="10.537215700713904"><ele>34.0</ele><time>2026-05-02T08:03:22Z</time></trkpt><trkpt lat="43.89643537042875" lon="10.537121593043238"><ele>34.0</ele><time>2026-05-02T08:03:23Z</time></trkpt><trkpt lat="43.89646902063439" lon="10.53700186037121"><ele>34.0</ele><time>2026-05-02T08:03:24Z</time></trkpt><trkpt lat="43.89651234565465" lon="10.536865785694761"><ele>34.0</ele><time>2026-05-02T08:03:25Z</time></trkpt><trkpt lat="43.89656658905272" lon="10.53670985650927"><ele>34.0</ele><time>2026-05-02T08:03:26Z</time></trkpt><trkpt lat="43.89664872843597" lon="10.536570837945249"><ele>34.0</ele><time>2026-05-02T08:03:27Z</time></trkpt><trkpt lat="43.89675106694808" lon="10.53643231985856"><ele>34.0</ele><time>2026-05-02T08:03:28Z</time></trkpt><trkpt lat="43.89684959441741" lon="10.536304598052041"><ele>34.0</ele><time>2026-05-02T08:03:29Z</time></trkpt><trkpt lat="43.896940393669944" lon="10.536191769831445"><ele>34.0</ele><time>2026-05-02T08:03:30Z</time></trkpt><trkpt lat="43.89703286040727" lon="10.536074682801697"><ele>34.0</ele><time>2026-05-02T08:03:31Z</time></trkpt><trkpt lat="43.89712634732366" lon="10.535945626085404"><ele>34.0</ele><time>2026-05-02T08:03:32Z</time></trkpt><trkpt lat="43.8972231844684" lon="10.53580818499893"><ele>34.0</ele><time>2026-05-02T08:03:33Z</time></trkpt><trkpt lat="43.89732500701884" lon="10.535662777447422"><ele>34.0</ele><time>2026-05-02T08:03:34Z</time></trkpt><trkpt lat="43.89742564957903" lon="10.53551953082151"><ele>34.0</ele><time>2026-05-02T08:03:35Z</time></trkpt><trkpt lat="43.89752461589378" lon="10.53537820656362"><ele>34.0</ele><time>2026-05-02T08:03:36Z</time></trkpt><trkpt lat="43.89762630122207" lon="10.53523322043244"><ele>34.0</ele><time>2026-05-02T08:03:37Z</time></trkpt><trkpt lat="43.89772703573282" lon="10.53508748684359"><ele>33.75</ele><time>2026-05-02T08:03:38Z</time></trkpt><trkpt lat="43.8978300325177" lon="10.534942049405226"><ele>33.5</ele><time>2026-05-02T08:03:39Z</time></trkpt><trkpt lat="43.89793442534253" lon="10.534797547571234"><ele>33.25</ele><time>2026-05-02T08:03:40Z</time></trkpt><trkpt lat="43.8980365955756" lon="10.534655468634407"><ele>33.0</ele><time>2026-05-02T08:03:41Z</time></trkpt><trkpt lat="43.89814017672457" lon="10.534510249338966"><ele>32.75</ele><time>2026-05-02T08:03:42Z</time></trkpt><trkpt lat="43.898246612912736" lon="10.534364705817723"><ele>32.5</ele><time>2026-05-02T08:03:43Z</time></trkpt><trkpt lat="43.898350811555034" lon="10.534221423084333"><ele>32.25</ele><time>2026-05-02T08:03:44Z</time></trkpt><trkpt lat="43.89845427527754" lon="10.534071854909197"><ele>32.0</ele><time>2026-05-02T08:03:45Z</time></trkpt><trkpt lat="43.898560790164055" lon="10.533921249390707"><ele>31.75</ele><time>2026-05-02T08:03:46Z</time></trkpt><trkpt lat="43.898662870691716" lon="10.53377509833717"><ele>31.5</ele><time>2026-05-02T08:03:47Z</time></trkpt><trkpt lat="43.89876558546062" lon="10.533628642731584"><ele>31.25</ele><time>2026-05-02T08:03:48Z</time></trkpt><trkpt lat="43.89886813809441" lon="10.533485730471075"><ele>31.0</ele><time>2026-05-02T08:03:49Z</time></trkpt><trkpt lat="43.89896868960992" lon="10.533348800321717"><ele>31.75</ele><time>2026-05-02T08:03:50Z</time></trkpt><trkpt lat="43.899068326205104" lon="10.533214764891222"><ele>32.5</ele><time>2026-05-02T08:03:51Z</time></trkpt><trkpt lat="43.89916735237885" lon="10.533079806712221"><ele>33.25</ele><time>2026-05-02T08:03:52Z</time></trkpt><trkpt lat="43.8992687487759" lon="10.53294680493527"><ele>34.0</ele><time>2026-05-02T08:03:53Z</time></trkpt><trkpt lat="43.89937461821404" lon="10.532819744029288"><ele>34.75</ele><time>2026-05-02T08:03:54Z</time></trkpt><trkpt lat="43.89948988715086" lon="10.532707790457666"><ele>35.5</ele><time>2026-05-02T08:03:55Z</time></trkpt><trkpt lat="43.899614093259686" lon="10.532606688073345"><ele>36.25</ele><time>2026-05-02T08:03:56Z</time></trkpt><trkpt lat="43.899745820056474" lon="10.532513417541361"><ele>37.0</ele><time>2026-05-02T08:03:57Z</time></trkpt><trkpt lat="43.89988736995447" lon="10.53243638210911"><ele>37.0</ele><time>2026-05-02T08:03:58Z</time></trkpt><trkpt lat="43.90003305560306" lon="10.532369246524183"><ele>37.0</ele><time>2026-05-02T08:03:59Z</time></trkpt><trkpt lat="43.900185791122496" lon="10.53231342993425"><ele>37.0</ele><time>2026-05-02T08:04:00Z</time></trkpt><trkpt lat="43.90033856408537" lon="10.532263904385248"><ele>36.66666666666667</ele><time>2026-05-02T08:04:01Z</time></trkpt><trkpt lat="43.9004907295523" lon="10.532221750393328"><ele>36.333333333333336</ele><time>2026-05-02T08:04:02Z</time></trkpt><trkpt lat="43.9006473088954" lon="10.532178650335805"><ele>36.0</ele><time>2026-05-02T08:04:03Z</time></trkpt><trkpt lat="43.900805470906015" lon="10.532135567032807"><ele>35.333333333333336</ele><time>2026-05-02T08:04:04Z</time></trkpt><trkpt lat="43.90096487217655" lon="10.532090731944002"><ele>34.66666666666667</ele><time>2026-05-02T08:04:05Z</time></trkpt><trkpt lat="43.901125536291616" lon="10.532040898897307"><ele>34.0</ele><time>2026-05-02T08:04:06Z</time></trkpt><trkpt lat="43.901290298033416" lon="10.531982435580764"><ele>34.333333333333336</ele><time>2026-05-02T08:04:07Z</time></trkpt><trkpt lat="43.90145555499113" lon="10.531915995776828"><ele>34.666666666666664</ele><time>2026-05-02T08:04:08Z</time></trkpt><trkpt lat="43.90162362038821" lon="10.531839663327267"><ele>35.0</ele><time>2026-05-02T08:04:09Z</time></trkpt><trkpt lat="43.90178907259763" lon="10.531751080846446"><ele>35.0</ele><time>2026-05-02T08:04:10Z</time></trkpt><trkpt lat="43.90195283539982" lon="10.531650319583886"><ele>35.0</ele><time>2026-05-02T08:04:11Z</time></trkpt><trkpt lat="43.90211581280596" lon="10.531537573110395"><ele>35.0</ele><time>2026-05-02T08:04:12Z</time></trkpt><trkpt lat="43.902282098764054" lon="10.531414854956466"><ele>35.0</ele><time>2026-05-02T08:04:13Z</time></trkpt><trkpt lat="43.902445971912215" lon="10.53128688677407"><ele>35.0</ele><time>2026-05-02T08:04:14Z</time></trkpt><trkpt lat="43.9026052987444" lon="10.531152233535654"><ele>35.0</ele><time>2026-05-02T08:04:14.999Z</time></trkpt><trkpt lat="43.902764471325405" lon="10.531010196373025"><ele>36.33333333333333</ele><time>2026-05-02T08:04:15.999Z</time></trkpt><trkpt lat="43.902926163166065" lon="10.530867796376986"><ele>37.666666666666664</ele><time>2026-05-02T08:04:16.999Z</time></trkpt><trkpt lat="43.90308843771041" lon="10.53072191091369"><ele>39.0</ele><time>2026-05-02T08:04:17.999Z</time></trkpt><trkpt lat="43.90324793035043" lon="10.530574202403999"><ele>39.0</ele><time>2026-05-02T08:04:18.999Z</time></trkpt><trkpt lat="43.90340867256805" lon="10.530424359315509"><ele>39.0</ele><time>2026-05-02T08:04:19.999Z</time></trkpt><trkpt lat="43.90356746840654" lon="10.530276995972494"><ele>39.0</ele><time>2026-05-02T08:04:20.999Z</time></trkpt><trkpt lat="43.90372471209476" lon="10.530131973523902"><ele>40.0</ele><time>2026-05-02T08:04:21.999Z</time></trkpt><trkpt lat="43.90388448341182" lon="10.529983493186348"><ele>41.0</ele><time>2026-05-02T08:04:22.999Z</time></trkpt><trkpt lat="43.90405057203887" lon="10.529830741384314"><ele>42.0</ele><time>2026-05-02T08:04:23.998Z</time></trkpt><trkpt lat="43.90421598247446" lon="10.52967803379316"><ele>40.666666666666664</ele><time>2026-05-02T08:04:24.998Z</time></trkpt><trkpt lat="43.90438545483828" lon="10.529524913098514"><ele>39.33333333333333</ele><time>2026-05-02T08:04:25.998Z</time></trkpt><trkpt lat="43.904555406846384" lon="10.5293762035004"><ele>38.0</ele><time>2026-05-02T08:04:26.998Z</time></trkpt><trkpt lat="43.90472650078972" lon="10.529227246155944"><ele>38.0</ele><time>2026-05-02T08:04:27.998Z</time></trkpt><trkpt lat="43.90489874730173" lon="10.529083315767682"><ele>38.0</ele><time>2026-05-02T08:04:28.998Z</time></trkpt><trkpt lat="43.90507370914116" lon="10.528944095260591"><ele>38.0</ele><time>2026-05-02T08:04:29.998Z</time></trkpt><trkpt lat="43.90525067179368" lon="10.52881356883022"><ele>42.33333333333333</ele><time>2026-05-02T08:04:30.998Z</time></trkpt><trkpt lat="43.905433350223404" lon="10.52869484532113"><ele>46.666666666666664</ele><time>2026-05-02T08:04:32Z</time></trkpt><trkpt lat="43.90561798678875" lon="10.528582979862982"><ele>51.0</ele><time>2026-05-02T08:04:33Z</time></trkpt><trkpt lat="43.90580454762192" lon="10.528481539876678"><ele>47.0</ele><time>2026-05-02T08:04:34Z</time></trkpt><trkpt lat="43.905995864536166" lon="10.52838610388592"><ele>43.0</ele><time>2026-05-02T08:04:35Z</time></trkpt><trkpt lat="43.9061897535048" lon="10.528296265315166"><ele>39.0</ele><time>2026-05-02T08:04:36Z</time></trkpt><trkpt lat="43.906384922001905" lon="10.528208521127857"><ele>39.0</ele><time>2026-05-02T08:04:37Z</time></trkpt><trkpt lat="43.906579531782754" lon="10.528123951739657"><ele>39.0</ele><time>2026-05-02T08:04:38Z</time></trkpt><trkpt lat="43.90677788092079" lon="10.528040650041861"><ele>39.0</ele><time>2026-05-02T08:04:39Z</time></trkpt><trkpt lat="43.90697699331813" lon="10.527953342507391"><ele>41.333333333333336</ele><time>2026-05-02T08:04:40Z</time></trkpt><trkpt lat="43.90717441890379" lon="10.527858253059788"><ele>43.66666666666667</ele><time>2026-05-02T08:04:41Z</time></trkpt><trkpt lat="43.90736990322802" lon="10.527752081298097"><ele>46.0</ele><time>2026-05-02T08:04:42Z</time></trkpt><trkpt lat="43.90756242767813" lon="10.527635758659063"><ele>44.66666666666667</ele><time>2026-05-02T08:04:43Z</time></trkpt><trkpt lat="43.907750558612726" lon="10.527515846079318"><ele>43.333333333333336</ele><time>2026-05-02T08:04:44Z</time></trkpt><trkpt lat="43.90793262249392" lon="10.527378870105322"><ele>42.0</ele><time>2026-05-02T08:04:45Z</time></trkpt><trkpt lat="43.90809868051511" lon="10.52723583134633"><ele>42.0</ele><time>2026-05-02T08:04:46Z</time></trkpt><trkpt lat="43.90825469895471" lon="10.527091664844093"><ele>42.0</ele><time>2026-05-02T08:04:47Z</time></trkpt><trkpt lat="43.908411338902056" lon="10.526953365021278"><ele>42.0</ele><time>2026-05-02T08:04:48Z</time></trkpt><trkpt lat="43.90857156035182" lon="10.5268277803358"><ele>49.66666666666667</ele><time>2026-05-02T08:04:49Z</time></trkpt><trkpt lat="43.90873565215467" lon="10.52670981747423"><ele>57.333333333333336</ele><time>2026-05-02T08:04:50Z</time></trkpt><trkpt lat="43.90889696375311" lon="10.526591981008153"><ele>65.0</ele><time>2026-05-02T08:04:51Z</time></trkpt><trkpt lat="43.90906023046021" lon="10.526475899355843"><ele>65.0</ele><time>2026-05-02T08:04:52Z</time></trkpt><trkpt lat="43.90920378408509" lon="10.5263260138746"><ele>65.0</ele><time>2026-05-02T08:04:53Z</time></trkpt><trkpt lat="43.90935749955141" lon="10.526188243229136"><ele>65.0</ele><time>2026-05-02T08:04:54.048Z</time></trkpt><trkpt lat="43.909505191046264" lon="10.52605520413764"><ele>69.5</ele><time>2026-05-02T08:04:55.049Z</time></trkpt><trkpt lat="43.909659336742486" lon="10.525904299289012"><ele>74.0</ele><time>2026-05-02T08:04:56.05Z</time></trkpt><trkpt lat="43.910228260240046" lon="10.525229080763074"><ele>74.0</ele><time>2026-05-02T08:04:59.972Z</time></trkpt><trkpt lat="43.910391753713704" lon="10.525096176888573"><ele>74.0</ele><time>2026-05-02T08:05:00.971Z</time></trkpt><trkpt lat="43.91055686221087" lon="10.52496688960684"><ele>74.0</ele><time>2026-05-02T08:05:01.971Z</time></trkpt><trkpt lat="43.91073277774348" lon="10.524866372837083"><ele>74.0</ele><time>2026-05-02T08:05:02.972Z</time></trkpt><trkpt lat="43.91089807746407" lon="10.524737125313699"><ele>74.0</ele><time>2026-05-02T08:05:03.971Z</time></trkpt><trkpt lat="43.9110784790374" lon="10.524653683459091"><ele>74.0</ele><time>2026-05-02T08:05:04.971Z</time></trkpt><trkpt lat="43.911874491337365" lon="10.524205302683793"><ele>67.5</ele><time>2026-05-02T08:05:14.999Z</time></trkpt><trkpt lat="43.91202019896653" lon="10.524134728407414"><ele>61.0</ele><time>2026-05-02T08:05:15.999Z</time></trkpt><trkpt lat="43.91215633683545" lon="10.524101617984098"><ele>54.5</ele><time>2026-05-02T08:05:16.999Z</time></trkpt><trkpt lat="43.91228253524032" lon="10.52403395207277"><ele>48.0</ele><time>2026-05-02T08:05:17.999Z</time></trkpt><trkpt lat="43.912409787553585" lon="10.523994493268747"><ele>48.0</ele><time>2026-05-02T08:05:18.999Z</time></trkpt><trkpt lat="43.912556624146596" lon="10.52394730460456"><ele>48.0</ele><time>2026-05-02T08:05:19.999Z</time></trkpt><trkpt lat="43.91271208226713" lon="10.523888653407928"><ele>48.0</ele><time>2026-05-02T08:05:20.999Z</time></trkpt><trkpt lat="43.912859980888335" lon="10.523846082442057"><ele>49.33333333333333</ele><time>2026-05-02T08:05:21.999Z</time></trkpt><trkpt lat="43.91301684330919" lon="10.523822743789015"><ele>50.666666666666664</ele><time>2026-05-02T08:05:22.999Z</time></trkpt><trkpt lat="43.91317432962165" lon="10.523761915087329"><ele>52.0</ele><time>2026-05-02T08:05:23.999Z</time></trkpt><trkpt lat="43.91333442293833" lon="10.52372905408553"><ele>56.0</ele><time>2026-05-02T08:05:24.999Z</time></trkpt><trkpt lat="43.91349820460906" lon="10.523695282146903"><ele>60.0</ele><time>2026-05-02T08:05:25.999Z</time></trkpt><trkpt lat="43.91366305934883" lon="10.523666728725836"><ele>64.0</ele><time>2026-05-02T08:05:26.999Z</time></trkpt><trkpt lat="43.913831912712375" lon="10.523633223264193"><ele>64.0</ele><time>2026-05-02T08:05:27.999Z</time></trkpt><trkpt lat="43.91400353169965" lon="10.523602086410968"><ele>64.0</ele><time>2026-05-02T08:05:28.999Z</time></trkpt><trkpt lat="43.91417919647604" lon="10.523571264394738"><ele>64.0</ele><time>2026-05-02T08:05:29.999Z</time></trkpt><trkpt lat="43.91435631877104" lon="10.523544400611472"><ele>72.33333333333333</ele><time>2026-05-02T08:05:30.999Z</time></trkpt><trkpt lat="43.914535552467434" lon="10.523531738287684"><ele>80.66666666666667</ele><time>2026-05-02T08:05:31.999Z</time></trkpt><trkpt lat="43.91471988624996" lon="10.523522457588252"><ele>89.0</ele><time>2026-05-02T08:05:32.999Z</time></trkpt><trkpt lat="43.91490327141502" lon="10.523511308041831"><ele>93.66666666666667</ele><time>2026-05-02T08:05:33.999Z</time></trkpt><trkpt lat="43.9150834033859" lon="10.523499619191536"><ele>98.33333333333334</ele><time>2026-05-02T08:05:34.999Z</time></trkpt><trkpt lat="43.915277880514665" lon="10.523486698001046"><ele>103.0</ele><time>2026-05-02T08:05:36.051Z</time></trkpt><trkpt lat="43.915459823295386" lon="10.523472022884414"><ele>103.0</ele><time>2026-05-02T08:05:37.048Z</time></trkpt><trkpt lat="43.915650569708156" lon="10.523457251279059"><ele>103.0</ele><time>2026-05-02T08:05:38.047Z</time></trkpt><trkpt lat="43.915837540282" lon="10.52344317503399"><ele>103.0</ele><time>2026-05-02T08:05:39.042Z</time></trkpt><trkpt lat="43.916012249490684" lon="10.523463918002822"><ele>102.66666666666667</ele><time>2026-05-02T08:05:40.041Z</time></trkpt><trkpt lat="43.91619307153334" lon="10.523488823175336"><ele>102.33333333333334</ele><time>2026-05-02T08:05:41.03Z</time></trkpt><trkpt lat="43.91633184435319" lon="10.523510759376652"><ele>102.0</ele><time>2026-05-02T08:05:42.023Z</time></trkpt><trkpt lat="43.91649560832502" lon="10.523541649642041"><ele>94.0</ele><time>2026-05-02T08:05:43.023Z</time></trkpt><trkpt lat="43.91712505975085" lon="10.523726536501202"><ele>92.0</ele><time>2026-05-02T08:05:46.971Z</time></trkpt><trkpt lat="43.91727380782099" lon="10.523823159775382"><ele>90.0</ele><time>2026-05-02T08:05:47.973Z</time></trkpt><trkpt lat="43.91743134252574" lon="10.523884211724232"><ele>88.0</ele><time>2026-05-02T08:05:48.971Z</time></trkpt><trkpt lat="43.91757951286003" lon="10.52397962299038"><ele>88.0</ele><time>2026-05-02T08:05:49.97Z</time></trkpt><trkpt lat="43.91771873928584" lon="10.524099245064706"><ele>88.0</ele><time>2026-05-02T08:05:50.972Z</time></trkpt><trkpt lat="43.917862911662574" lon="10.524205153102386"><ele>88.0</ele><time>2026-05-02T08:05:51.97Z</time></trkpt><trkpt lat="43.91800737767165" lon="10.524311276844115"><ele>88.0</ele><time>2026-05-02T08:05:52.971Z</time></trkpt><trkpt lat="43.91815965695561" lon="10.524396631655819"><ele>88.0</ele><time>2026-05-02T08:05:53.971Z</time></trkpt><trkpt lat="43.91829756304962" lon="10.524519866877046"><ele>88.0</ele><time>2026-05-02T08:05:54.97Z</time></trkpt><trkpt lat="43.918443146609455" lon="10.524622662835336"><ele>84.66666666666666</ele><time>2026-05-02T08:05:55.97Z</time></trkpt><trkpt lat="43.91858847241303" lon="10.524726286694547"><ele>81.33333333333333</ele><time>2026-05-02T08:05:56.972Z</time></trkpt><trkpt lat="43.91873301243139" lon="10.52483106896941"><ele>78.0</ele><time>2026-05-02T08:05:57.971Z</time></trkpt><trkpt lat="43.91888514927785" lon="10.524917174616672"><ele>78.0</ele><time>2026-05-02T08:05:58.971Z</time></trkpt><trkpt lat="43.9190287586852" lon="10.525024792379936"><ele>78.0</ele><time>2026-05-02T08:05:59.971Z</time></trkpt><trkpt lat="43.9191645152891" lon="10.525152721191146"><ele>78.0</ele><time>2026-05-02T08:06:00.97Z</time></trkpt><trkpt lat="43.91931614620287" lon="10.525240154328802"><ele>76.5</ele><time>2026-05-02T08:06:01.97Z</time></trkpt><trkpt lat="43.919388" lon="10.525294"><ele>75.0</ele><time>2026-05-02T08:06:02.971Z</time></trkpt><trkpt lat="43.9201754739131" lon="10.525847987372801"><ele>67.66666666666667</ele><time>2026-05-02T08:06:14.999Z</time></trkpt><trkpt lat="43.92032295719854" lon="10.525926877851564"><ele>60.333333333333336</ele><time>2026-05-02T08:06:15.999Z</time></trkpt><trkpt lat="43.920493868481806" lon="10.525961298824557"><ele>53.0</ele><time>2026-05-02T08:06:16.999Z</time></trkpt><trkpt lat="43.920626658929294" lon="10.525992472715176"><ele>53.0</ele><time>2026-05-02T08:06:17.999Z</time></trkpt><trkpt lat="43.920807940391576" lon="10.526020356287976"><ele>53.0</ele><time>2026-05-02T08:06:18.999Z</time></trkpt><trkpt lat="43.921005054208514" lon="10.526038566289182"><ele>53.0</ele><time>2026-05-02T08:06:19.999Z</time></trkpt><trkpt lat="43.9211867278887" lon="10.52603899789458"><ele>53.333333333333336</ele><time>2026-05-02T08:06:20.999Z</time></trkpt><trkpt lat="43.92136785835206" lon="10.52601966703543"><ele>53.66666666666667</ele><time>2026-05-02T08:06:21.999Z</time></trkpt><trkpt lat="43.92154834547831" lon="10.525990628238043"><ele>54.0</ele><time>2026-05-02T08:06:22.999Z</time></trkpt><trkpt lat="43.92165023573952" lon="10.525992111096889"><ele>56.0</ele><time>2026-05-02T08:06:23.999Z</time></trkpt><trkpt lat="43.921854956467456" lon="10.525929942420616"><ele>58.0</ele><time>2026-05-02T08:06:24.999Z</time></trkpt><trkpt lat="43.92206022919276" lon="10.525838652876097"><ele>60.0</ele><time>2026-05-02T08:06:25.999Z</time></trkpt><trkpt lat="43.922245000880054" lon="10.52572444633461"><ele>60.0</ele><time>2026-05-02T08:06:26.999Z</time></trkpt><trkpt lat="43.92242033009468" lon="10.525604453206963"><ele>60.0</ele><time>2026-05-02T08:06:27.999Z</time></trkpt><trkpt lat="43.92258857841496" lon="10.525493271942212"><ele>60.0</ele><time>2026-05-02T08:06:28.999Z</time></trkpt><trkpt lat="43.92274795668449" lon="10.525387443475264"><ele>71.66666666666667</ele><time>2026-05-02T08:06:29.999Z</time></trkpt><trkpt lat="43.92289909647203" lon="10.525278519322228"><ele>83.33333333333334</ele><time>2026-05-02T08:06:30.999Z</time></trkpt><trkpt lat="43.92305793745905" lon="10.52517201956769"><ele>95.0</ele><time>2026-05-02T08:06:31.999Z</time></trkpt><trkpt lat="43.92321534804496" lon="10.525068245361146"><ele>95.0</ele><time>2026-05-02T08:06:32.999Z</time></trkpt><trkpt lat="43.923378036444426" lon="10.52496007927019"><ele>95.0</ele><time>2026-05-02T08:06:33.999Z</time></trkpt><trkpt lat="43.923538566963046" lon="10.524853551138149"><ele>95.0</ele><time>2026-05-02T08:06:34.999Z</time></trkpt><trkpt lat="43.923704659866594" lon="10.52474353923926"><ele>94.66666666666667</ele><time>2026-05-02T08:06:36.04Z</time></trkpt><trkpt lat="43.923837694472226" lon="10.524593096256112"><ele>94.33333333333333</ele><time>2026-05-02T08:06:37.042Z</time></trkpt><trkpt lat="43.923953559580916" lon="10.524434295854523"><ele>94.0</ele><time>2026-05-02T08:06:38.04Z</time></trkpt><trkpt lat="43.924068539163414" lon="10.524270732188103"><ele>87.5</ele><time>2026-05-02T08:06:39.038Z</time></trkpt><trkpt lat="43.92417532699983" lon="10.524106987727588"><ele>81.0</ele><time>2026-05-02T08:06:40.041Z</time></trkpt><trkpt lat="43.92511079397967" lon="10.521802434497156"><ele>66.0</ele><time>2026-05-02T08:06:56.055Z</time></trkpt><trkpt lat="43.92522628030881" lon="10.521314025270577"><ele>51.0</ele><time>2026-05-02T08:06:58Z</time></trkpt><trkpt lat="43.92526864188513" lon="10.521115229851079"><ele>51.0</ele><time>2026-05-02T08:06:59Z</time></trkpt><trkpt lat="43.925359461808334" lon="10.520903115963858"><ele>51.0</ele><time>2026-05-02T08:07:00Z</time></trkpt><trkpt lat="43.92543886691567" lon="10.520679024623544"><ele>51.0</ele><time>2026-05-02T08:07:01Z</time></trkpt><trkpt lat="43.92551279813272" lon="10.520463194039294"><ele>51.33333333333333</ele><time>2026-05-02T08:07:02Z</time></trkpt><trkpt lat="43.925586538904575" lon="10.520246546395445"><ele>51.666666666666664</ele><time>2026-05-02T08:07:03Z</time></trkpt><trkpt lat="43.92564692365628" lon="10.520025332861557"><ele>52.0</ele><time>2026-05-02T08:07:04Z</time></trkpt><trkpt lat="43.92571255386052" lon="10.519809298260373"><ele>52.0</ele><time>2026-05-02T08:07:05Z</time></trkpt><trkpt lat="43.92578124607246" lon="10.519593994958216"><ele>52.0</ele><time>2026-05-02T08:07:06Z</time></trkpt><trkpt lat="43.92585161809841" lon="10.519367457109025"><ele>52.0</ele><time>2026-05-02T08:07:07Z</time></trkpt><trkpt lat="43.9259188436564" lon="10.519149911466235"><ele>56.666666666666664</ele><time>2026-05-02T08:07:08Z</time></trkpt><trkpt lat="43.92598976833269" lon="10.518933281900285"><ele>61.33333333333333</ele><time>2026-05-02T08:07:09Z</time></trkpt><trkpt lat="43.926066466151894" lon="10.518730421397978"><ele>66.0</ele><time>2026-05-02T08:07:10Z</time></trkpt><trkpt lat="43.92614827808131" lon="10.518526285728878"><ele>66.0</ele><time>2026-05-02T08:07:11Z</time></trkpt><trkpt lat="43.92623832608499" lon="10.518341773377296"><ele>66.0</ele><time>2026-05-02T08:07:12Z</time></trkpt><trkpt lat="43.92633425839222" lon="10.518166015727662"><ele>66.0</ele><time>2026-05-02T08:07:13Z</time></trkpt><trkpt lat="43.926437079795754" lon="10.517985009991445"><ele>61.33333333333333</ele><time>2026-05-02T08:07:14Z</time></trkpt><trkpt lat="43.92655215474285" lon="10.517806463962536"><ele>56.666666666666664</ele><time>2026-05-02T08:07:15Z</time></trkpt><trkpt lat="43.92667321324562" lon="10.51764188612309"><ele>52.0</ele><time>2026-05-02T08:07:16Z</time></trkpt><trkpt lat="43.926809146646" lon="10.51748130120734"><ele>52.0</ele><time>2026-05-02T08:07:17Z</time></trkpt><trkpt lat="43.9269514015323" lon="10.517327969747008"><ele>52.0</ele><time>2026-05-02T08:07:18Z</time></trkpt><trkpt lat="43.92709788052496" lon="10.517177469434218"><ele>52.0</ele><time>2026-05-02T08:07:19Z</time></trkpt><trkpt lat="43.9272499847703" lon="10.517025353509332"><ele>52.0</ele><time>2026-05-02T08:07:20Z</time></trkpt><trkpt lat="43.92740716230638" lon="10.516877655284931"><ele>52.0</ele><time>2026-05-02T08:07:21Z</time></trkpt><trkpt lat="43.927564906151744" lon="10.516729183004754"><ele>52.0</ele><time>2026-05-02T08:07:22Z</time></trkpt><trkpt lat="43.92772077420229" lon="10.51657915678056"><ele>54.33333333333333</ele><time>2026-05-02T08:07:23Z</time></trkpt><trkpt lat="43.9278765795948" lon="10.516426468388454"><ele>56.66666666666667</ele><time>2026-05-02T08:07:24Z</time></trkpt><trkpt lat="43.92803416415129" lon="10.516272069274779"><ele>59.0</ele><time>2026-05-02T08:07:25Z</time></trkpt><trkpt lat="43.92819032660485" lon="10.516115708176041"><ele>59.0</ele><time>2026-05-02T08:07:26Z</time></trkpt><trkpt lat="43.92834474820231" lon="10.515959784292903"><ele>59.0</ele><time>2026-05-02T08:07:27Z</time></trkpt><trkpt lat="43.92849636503598" lon="10.515803038932361"><ele>59.0</ele><time>2026-05-02T08:07:28Z</time></trkpt><trkpt lat="43.928639744183876" lon="10.515639545977495"><ele>61.0</ele><time>2026-05-02T08:07:29Z</time></trkpt><trkpt lat="43.928774612136216" lon="10.515458281284161"><ele>63.0</ele><time>2026-05-02T08:07:30Z</time></trkpt><trkpt lat="43.92889879851998" lon="10.515267093191413"><ele>65.0</ele><time>2026-05-02T08:07:31Z</time></trkpt><trkpt lat="43.92901448724222" lon="10.515076943738318"><ele>65.0</ele><time>2026-05-02T08:07:32Z</time></trkpt><trkpt lat="43.929119901708724" lon="10.514891036015293"><ele>65.0</ele><time>2026-05-02T08:07:33Z</time></trkpt><trkpt lat="43.92921714885393" lon="10.514710511306385"><ele>65.0</ele><time>2026-05-02T08:07:34Z</time></trkpt><trkpt lat="43.929307647456746" lon="10.514541429665648"><ele>71.0</ele><time>2026-05-02T08:07:35Z</time></trkpt><trkpt lat="43.9294000159412" lon="10.514373687702923"><ele>77.0</ele><time>2026-05-02T08:07:36Z</time></trkpt><trkpt lat="43.929485234001746" lon="10.514209651289853"><ele>83.0</ele><time>2026-05-02T08:07:37Z</time></trkpt><trkpt lat="43.9295737909297" lon="10.514038706712125"><ele>89.0</ele><time>2026-05-02T08:07:38Z</time></trkpt><trkpt lat="43.92965403735169" lon="10.51386244091839"><ele>84.0</ele><time>2026-05-02T08:07:39Z</time></trkpt><trkpt lat="43.929727328042986" lon="10.513674064928512"><ele>79.0</ele><time>2026-05-02T08:07:40Z</time></trkpt><trkpt lat="43.92978443863148" lon="10.513477330077231"><ele>74.0</ele><time>2026-05-02T08:07:41Z</time></trkpt><trkpt lat="43.92982989984861" lon="10.513277152859317"><ele>74.0</ele><time>2026-05-02T08:07:42Z</time></trkpt><trkpt lat="43.92986474172259" lon="10.51306498973087"><ele>74.0</ele><time>2026-05-02T08:07:43Z</time></trkpt><trkpt lat="43.92988416483005" lon="10.512854104419564"><ele>74.0</ele><time>2026-05-02T08:07:44Z</time></trkpt><trkpt lat="43.92988917037925" lon="10.512643918412758"><ele>73.66666666666667</ele><time>2026-05-02T08:07:45Z</time></trkpt><trkpt lat="43.929882140707285" lon="10.512427502500765"><ele>73.33333333333333</ele><time>2026-05-02T08:07:46Z</time></trkpt><trkpt lat="43.92986319634658" lon="10.512215972355861"><ele>73.0</ele><time>2026-05-02T08:07:47Z</time></trkpt><trkpt lat="43.929832779914975" lon="10.51201573017983"><ele>74.25</ele><time>2026-05-02T08:07:48Z</time></trkpt><trkpt lat="43.92979067780074" lon="10.511820380121799"><ele>75.5</ele><time>2026-05-02T08:07:49Z</time></trkpt><trkpt lat="43.92974632513595" lon="10.51163741942178"><ele>76.75</ele><time>2026-05-02T08:07:50Z</time></trkpt><trkpt lat="43.92969836793894" lon="10.51146125193546"><ele>78.0</ele><time>2026-05-02T08:07:51Z</time></trkpt><trkpt lat="43.92964966963268" lon="10.51129269141222"><ele>79.25</ele><time>2026-05-02T08:07:52Z</time></trkpt><trkpt lat="43.92960118575881" lon="10.511136312739412"><ele>80.5</ele><time>2026-05-02T08:07:53Z</time></trkpt><trkpt lat="43.92955527858427" lon="10.51098418562922"><ele>81.75</ele><time>2026-05-02T08:07:54Z</time></trkpt><trkpt lat="43.92950875013241" lon="10.510833166145106"><ele>83.0</ele><time>2026-05-02T08:07:55Z</time></trkpt><trkpt lat="43.929459342005075" lon="10.510680227346464"><ele>83.0</ele><time>2026-05-02T08:07:56Z</time></trkpt><trkpt lat="43.92941102035386" lon="10.51052302708586"><ele>83.0</ele><time>2026-05-02T08:07:57Z</time></trkpt><trkpt lat="43.9293615107847" lon="10.510362531750916"><ele>83.0</ele><time>2026-05-02T08:07:58Z</time></trkpt><trkpt lat="43.92931352842398" lon="10.510203755598187"><ele>83.0</ele><time>2026-05-02T08:07:59Z</time></trkpt><trkpt lat="43.92926815741454" lon="10.510046099194359"><ele>77.75</ele><time>2026-05-02T08:08:00Z</time></trkpt><trkpt lat="43.92922459424327" lon="10.509889310204848"><ele>72.5</ele><time>2026-05-02T08:08:00.999Z</time></trkpt><trkpt lat="43.929186456310376" lon="10.509729073872565"><ele>67.25</ele><time>2026-05-02T08:08:01.999Z</time></trkpt><trkpt lat="43.92915847152857" lon="10.509564844484927"><ele>62.0</ele><time>2026-05-02T08:08:02.999Z</time></trkpt><trkpt lat="43.92914803711272" lon="10.509391384507301"><ele>62.0</ele><time>2026-05-02T08:08:03.999Z</time></trkpt><trkpt lat="43.92915789402589" lon="10.509211278046005"><ele>62.0</ele><time>2026-05-02T08:08:04.999Z</time></trkpt><trkpt lat="43.929183837143114" lon="10.509032581259774"><ele>62.0</ele><time>2026-05-02T08:08:05.999Z</time></trkpt><trkpt lat="43.92921707517667" lon="10.50884912362204"><ele>62.0</ele><time>2026-05-02T08:08:06.999Z</time></trkpt><trkpt lat="43.92925949044574" lon="10.50866533623337"><ele>66.25</ele><time>2026-05-02T08:08:07.999Z</time></trkpt><trkpt lat="43.92930961311882" lon="10.508482074001364"><ele>70.5</ele><time>2026-05-02T08:08:08.999Z</time></trkpt><trkpt lat="43.929370385853865" lon="10.50830232169318"><ele>74.75</ele><time>2026-05-02T08:08:09.999Z</time></trkpt><trkpt lat="43.92944678514514" lon="10.508126884777699"><ele>79.0</ele><time>2026-05-02T08:08:10.999Z</time></trkpt><trkpt lat="43.92954168884953" lon="10.507959509741847"><ele>75.33333333333333</ele><time>2026-05-02T08:08:11.999Z</time></trkpt><trkpt lat="43.92964335271335" lon="10.507800905052077"><ele>71.66666666666667</ele><time>2026-05-02T08:08:12.999Z</time></trkpt><trkpt lat="43.92975655884308" lon="10.507653598866055"><ele>68.0</ele><time>2026-05-02T08:08:13.999Z</time></trkpt><trkpt lat="43.92988275976432" lon="10.507517801843193"><ele>68.0</ele><time>2026-05-02T08:08:14.999Z</time></trkpt><trkpt lat="43.930011399008364" lon="10.507390321760798"><ele>68.0</ele><time>2026-05-02T08:08:15.999Z</time></trkpt><trkpt lat="43.93014327858335" lon="10.507268051859288"><ele>68.0</ele><time>2026-05-02T08:08:16.999Z</time></trkpt><trkpt lat="43.93027579707677" lon="10.507160367411222"><ele>70.0</ele><time>2026-05-02T08:08:17.999Z</time></trkpt><trkpt lat="43.93041683271203" lon="10.507082489913422"><ele>72.0</ele><time>2026-05-02T08:08:18.999Z</time></trkpt><trkpt lat="43.93056415456904" lon="10.507048023877369"><ele>74.0</ele><time>2026-05-02T08:08:19.999Z</time></trkpt><trkpt lat="43.93070533309428" lon="10.507056289994711"><ele>76.0</ele><time>2026-05-02T08:08:20.999Z</time></trkpt><trkpt lat="43.93084014528884" lon="10.507096719686718"><ele>70.5</ele><time>2026-05-02T08:08:21.999Z</time></trkpt><trkpt lat="43.930972859566005" lon="10.507146516051828"><ele>65.0</ele><time>2026-05-02T08:08:22.999Z</time></trkpt><trkpt lat="43.931111621008256" lon="10.507194287019532"><ele>59.5</ele><time>2026-05-02T08:08:23.999Z</time></trkpt><trkpt lat="43.93125608421176" lon="10.507244806622467"><ele>54.0</ele><time>2026-05-02T08:08:24.999Z</time></trkpt><trkpt lat="43.93140377000077" lon="10.507292973027688"><ele>54.0</ele><time>2026-05-02T08:08:25.999Z</time></trkpt><trkpt lat="43.93155599716819" lon="10.507342717860933"><ele>54.0</ele><time>2026-05-02T08:08:26.999Z</time></trkpt><trkpt lat="43.931708398256205" lon="10.507395729399262"><ele>54.0</ele><time>2026-05-02T08:08:27.999Z</time></trkpt><trkpt lat="43.93186016419911" lon="10.507444636567122"><ele>55.5</ele><time>2026-05-02T08:08:28.999Z</time></trkpt><trkpt lat="43.932010309089755" lon="10.507491039050965"><ele>57.0</ele><time>2026-05-02T08:08:29.999Z</time></trkpt><trkpt lat="43.93215201210381" lon="10.507538981019843"><ele>58.5</ele><time>2026-05-02T08:08:30.999Z</time></trkpt><trkpt lat="43.932284063250925" lon="10.507584118785756"><ele>60.0</ele><time>2026-05-02T08:08:31.999Z</time></trkpt><trkpt lat="43.932412253962404" lon="10.507633539697812"><ele>60.0</ele><time>2026-05-02T08:08:32.999Z</time></trkpt><trkpt lat="43.93254349256715" lon="10.507678230000025"><ele>60.0</ele><time>2026-05-02T08:08:33.999Z</time></trkpt><trkpt lat="43.93267244508998" lon="10.507721537923137"><ele>60.0</ele><time>2026-05-02T08:08:34.999Z</time></trkpt><trkpt lat="43.93280338758401" lon="10.50776160384734"><ele>60.0</ele><time>2026-05-02T08:08:35.999Z</time></trkpt><trkpt lat="43.932937070645494" lon="10.507793080669368"><ele>61.0</ele><time>2026-05-02T08:08:36.999Z</time></trkpt><trkpt lat="43.93307136329651" lon="10.507813426326463"><ele>62.0</ele><time>2026-05-02T08:08:37.999Z</time></trkpt><trkpt lat="43.93322071228029" lon="10.507788836752253"><ele>63.0</ele><time>2026-05-02T08:08:38.999Z</time></trkpt><trkpt lat="43.933355041312" lon="10.507808255556434"><ele>64.0</ele><time>2026-05-02T08:08:39.999Z</time></trkpt><trkpt lat="43.933500441955346" lon="10.50778049009018"><ele>64.0</ele><time>2026-05-02T08:08:40.999Z</time></trkpt><trkpt lat="43.93364212766816" lon="10.507722097188044"><ele>64.0</ele><time>2026-05-02T08:08:41.999Z</time></trkpt><trkpt lat="43.93377883739758" lon="10.507636408890894"><ele>64.0</ele><time>2026-05-02T08:08:42.999Z</time></trkpt><trkpt lat="43.933901074695996" lon="10.507540562335235"><ele>64.0</ele><time>2026-05-02T08:08:43.999Z</time></trkpt><trkpt lat="43.93402579971569" lon="10.507394969085299"><ele>64.0</ele><time>2026-05-02T08:08:44.999Z</time></trkpt><trkpt lat="43.93413006667759" lon="10.50722350122164"><ele>64.0</ele><time>2026-05-02T08:08:45.999Z</time></trkpt><trkpt lat="43.93421059399998" lon="10.507033688187496"><ele>64.0</ele><time>2026-05-02T08:08:46.999Z</time></trkpt><trkpt lat="43.93427399638137" lon="10.506829333081456"><ele>61.33333333333333</ele><time>2026-05-02T08:08:47.999Z</time></trkpt><trkpt lat="43.93432121381978" lon="10.506616254101"><ele>58.66666666666667</ele><time>2026-05-02T08:08:48.999Z</time></trkpt><trkpt lat="43.93435196094339" lon="10.506396087329334"><ele>56.0</ele><time>2026-05-02T08:08:49.999Z</time></trkpt><trkpt lat="43.93437023986397" lon="10.5061692855974"><ele>55.66666666666667</ele><time>2026-05-02T08:08:50.999Z</time></trkpt><trkpt lat="43.93437727811633" lon="10.505936512300458"><ele>55.33333333333333</ele><time>2026-05-02T08:08:51.999Z</time></trkpt><trkpt lat="43.93439116868805" lon="10.505703641075081"><ele>55.0</ele><time>2026-05-02T08:08:53.001Z</time></trkpt><trkpt lat="43.93440422161385" lon="10.505468016708047"><ele>55.0</ele><time>2026-05-02T08:08:54.001Z</time></trkpt><trkpt lat="43.93441546621963" lon="10.505228579086943"><ele>55.0</ele><time>2026-05-02T08:08:55.001Z</time></trkpt><trkpt lat="43.93442811298762" lon="10.504988551651511"><ele>55.0</ele><time>2026-05-02T08:08:56.001Z</time></trkpt><trkpt lat="43.93444286954481" lon="10.504741914119123"><ele>54.666666666666664</ele><time>2026-05-02T08:08:57.001Z</time></trkpt><trkpt lat="43.93445414285634" lon="10.504499736495253"><ele>54.33333333333333</ele><time>2026-05-02T08:08:58.001Z</time></trkpt><trkpt lat="43.93447477139604" lon="10.504269318747996"><ele>54.0</ele><time>2026-05-02T08:08:59.001Z</time></trkpt><trkpt lat="43.93448656862421" lon="10.504029316434718"><ele>54.0</ele><time>2026-05-02T08:09:00.001Z</time></trkpt><trkpt lat="43.93449615149963" lon="10.503803438568173"><ele>54.0</ele><time>2026-05-02T08:09:01.001Z</time></trkpt><trkpt lat="43.934506970473066" lon="10.503585236440076"><ele>54.0</ele><time>2026-05-02T08:09:02.001Z</time></trkpt><trkpt lat="43.934518429983825" lon="10.50337138147229"><ele>54.5</ele><time>2026-05-02T08:09:03.001Z</time></trkpt><trkpt lat="43.93452749760784" lon="10.503158676718215"><ele>55.0</ele><time>2026-05-02T08:09:04.001Z</time></trkpt><trkpt lat="43.9345354712558" lon="10.502955700465625"><ele>55.5</ele><time>2026-05-02T08:09:05.001Z</time></trkpt><trkpt lat="43.934547757061274" lon="10.502770668492538"><ele>56.0</ele><time>2026-05-02T08:09:06.001Z</time></trkpt><trkpt lat="43.93456989231958" lon="10.502595036002175"><ele>56.25</ele><time>2026-05-02T08:09:07.001Z</time></trkpt><trkpt lat="43.934596807632985" lon="10.502416057320579"><ele>56.5</ele><time>2026-05-02T08:09:08.001Z</time></trkpt><trkpt lat="43.934621448455204" lon="10.502234656867262"><ele>56.75</ele><time>2026-05-02T08:09:09.001Z</time></trkpt><trkpt lat="43.93464846654958" lon="10.502052896227507"><ele>57.0</ele><time>2026-05-02T08:09:10Z</time></trkpt><trkpt lat="43.93467251558233" lon="10.501870709680322"><ele>57.75</ele><time>2026-05-02T08:09:11Z</time></trkpt><trkpt lat="43.93469942478859" lon="10.501681663106098"><ele>58.5</ele><time>2026-05-02T08:09:12Z</time></trkpt><trkpt lat="43.93472617347292" lon="10.50148657672662"><ele>59.25</ele><time>2026-05-02T08:09:13Z</time></trkpt><trkpt lat="43.934750451120735" lon="10.501277979837782"><ele>60.0</ele><time>2026-05-02T08:09:14Z</time></trkpt><trkpt lat="43.93477801757377" lon="10.501074537456871"><ele>59.75</ele><time>2026-05-02T08:09:15Z</time></trkpt><trkpt lat="43.9348167323145" lon="10.500872413460154"><ele>59.5</ele><time>2026-05-02T08:09:16Z</time></trkpt><trkpt lat="43.93488316895139" lon="10.500688444192562"><ele>59.25</ele><time>2026-05-02T08:09:17Z</time></trkpt><trkpt lat="43.934964879602425" lon="10.5005145872591"><ele>59.0</ele><time>2026-05-02T08:09:18Z</time></trkpt><trkpt lat="43.93506207524132" lon="10.500351019857062"><ele>59.0</ele><time>2026-05-02T08:09:19Z</time></trkpt><trkpt lat="43.935156891232886" lon="10.500192081246276"><ele>59.0</ele><time>2026-05-02T08:09:20Z</time></trkpt><trkpt lat="43.93524953117768" lon="10.500036129015184"><ele>59.0</ele><time>2026-05-02T08:09:21Z</time></trkpt><trkpt lat="43.93535069954007" lon="10.499885003653212"><ele>59.0</ele><time>2026-05-02T08:09:22Z</time></trkpt><trkpt lat="43.93544281145748" lon="10.49972314640863"><ele>63.66666666666667</ele><time>2026-05-02T08:09:23Z</time></trkpt><trkpt lat="43.93553878373932" lon="10.499559221347148"><ele>68.33333333333333</ele><time>2026-05-02T08:09:24Z</time></trkpt><trkpt lat="43.9356325946913" lon="10.499396747449968"><ele>73.0</ele><time>2026-05-02T08:09:25Z</time></trkpt><trkpt lat="43.93573407302057" lon="10.499235217231702"><ele>73.0</ele><time>2026-05-02T08:09:26Z</time></trkpt><trkpt lat="43.93584326949598" lon="10.499085735917577"><ele>73.0</ele><time>2026-05-02T08:09:27Z</time></trkpt><trkpt lat="43.93595807410507" lon="10.498937145365362"><ele>73.0</ele><time>2026-05-02T08:09:28Z</time></trkpt><trkpt lat="43.93607437073529" lon="10.498784180906872"><ele>71.33333333333333</ele><time>2026-05-02T08:09:29Z</time></trkpt><trkpt lat="43.936191418575646" lon="10.49863140100614"><ele>69.66666666666667</ele><time>2026-05-02T08:09:30Z</time></trkpt><trkpt lat="43.93631254594826" lon="10.49847632835467"><ele>68.0</ele><time>2026-05-02T08:09:31Z</time></trkpt><trkpt lat="43.93643905609343" lon="10.498324230099241"><ele>68.0</ele><time>2026-05-02T08:09:32Z</time></trkpt><trkpt lat="43.93656475674087" lon="10.498167887894166"><ele>68.0</ele><time>2026-05-02T08:09:33Z</time></trkpt><trkpt lat="43.93669201412952" lon="10.498006965886155"><ele>68.0</ele><time>2026-05-02T08:09:34Z</time></trkpt><trkpt lat="43.936820969358024" lon="10.497849776580825"><ele>68.33333333333334</ele><time>2026-05-02T08:09:35Z</time></trkpt><trkpt lat="43.936955415078216" lon="10.497685081400816"><ele>68.66666666666667</ele><time>2026-05-02T08:09:36Z</time></trkpt><trkpt lat="43.93708774111015" lon="10.49751686794753"><ele>69.0</ele><time>2026-05-02T08:09:37Z</time></trkpt><trkpt lat="43.93721566739972" lon="10.497344247902216"><ele>69.0</ele><time>2026-05-02T08:09:38Z</time></trkpt><trkpt lat="43.93734240745256" lon="10.497163628629792"><ele>69.0</ele><time>2026-05-02T08:09:39Z</time></trkpt><trkpt lat="43.93746430202514" lon="10.49698512330351"><ele>69.0</ele><time>2026-05-02T08:09:40Z</time></trkpt><trkpt lat="43.93758481703515" lon="10.496798781032773"><ele>69.66666666666667</ele><time>2026-05-02T08:09:41Z</time></trkpt><trkpt lat="43.93770007313467" lon="10.49661141109776"><ele>70.33333333333334</ele><time>2026-05-02T08:09:42Z</time></trkpt><trkpt lat="43.93780767619264" lon="10.496425375515578"><ele>71.0</ele><time>2026-05-02T08:09:43Z</time></trkpt><trkpt lat="43.93791521929362" lon="10.496247318512205"><ele>71.66666666666667</ele><time>2026-05-02T08:09:44Z</time></trkpt><trkpt lat="43.9380196650714" lon="10.496073406172153"><ele>72.33333333333333</ele><time>2026-05-02T08:09:45Z</time></trkpt><trkpt lat="43.93811340612583" lon="10.495910233131625"><ele>73.0</ele><time>2026-05-02T08:09:46Z</time></trkpt><trkpt lat="43.9382022109213" lon="10.495752419994245"><ele>73.0</ele><time>2026-05-02T08:09:47Z</time></trkpt><trkpt lat="43.938289588632976" lon="10.495603833761637"><ele>73.0</ele><time>2026-05-02T08:09:48Z</time></trkpt><trkpt lat="43.93837887758361" lon="10.4954606794925"><ele>73.0</ele><time>2026-05-02T08:09:49Z</time></trkpt><trkpt lat="43.938475034597886" lon="10.495328527445833"><ele>73.0</ele><time>2026-05-02T08:09:50Z</time></trkpt><trkpt lat="43.93857882187225" lon="10.495200505913362"><ele>71.75</ele><time>2026-05-02T08:09:51Z</time></trkpt><trkpt lat="43.938690654502516" lon="10.495084760858012"><ele>70.5</ele><time>2026-05-02T08:09:52Z</time></trkpt><trkpt lat="43.938810237806074" lon="10.494982321271438"><ele>69.25</ele><time>2026-05-02T08:09:53Z</time></trkpt><trkpt lat="43.938939538932786" lon="10.494898202361421"><ele>68.0</ele><time>2026-05-02T08:09:54Z</time></trkpt><trkpt lat="43.939077164254265" lon="10.49483511575883"><ele>67.25</ele><time>2026-05-02T08:09:55Z</time></trkpt><trkpt lat="43.939218814925795" lon="10.494793683326556"><ele>66.5</ele><time>2026-05-02T08:09:56Z</time></trkpt><trkpt lat="43.93936774291836" lon="10.494771449143817"><ele>65.75</ele><time>2026-05-02T08:09:57Z</time></trkpt><trkpt lat="43.93951884520908" lon="10.494780273143958"><ele>65.0</ele><time>2026-05-02T08:09:58Z</time></trkpt><trkpt lat="43.93966806617801" lon="10.494803266561927"><ele>65.0</ele><time>2026-05-02T08:09:59Z</time></trkpt><trkpt lat="43.93981959106477" lon="10.494851683073623"><ele>65.0</ele><time>2026-05-02T08:10:00Z</time></trkpt><trkpt lat="43.93996990426657" lon="10.49491358342848"><ele>65.0</ele><time>2026-05-02T08:10:01Z</time></trkpt><trkpt lat="43.940119207465834" lon="10.49498477392386"><ele>64.33333333333334</ele><time>2026-05-02T08:10:02Z</time></trkpt><trkpt lat="43.94026802582506" lon="10.49506512562653"><ele>63.66666666666667</ele><time>2026-05-02T08:10:03Z</time></trkpt><trkpt lat="43.94042000831165" lon="10.49513984108066"><ele>63.0</ele><time>2026-05-02T08:10:04Z</time></trkpt><trkpt lat="43.940569059568745" lon="10.495218702879837"><ele>63.0</ele><time>2026-05-02T08:10:05Z</time></trkpt><trkpt lat="43.940717308812765" lon="10.495293533424094"><ele>63.0</ele><time>2026-05-02T08:10:06Z</time></trkpt><trkpt lat="43.940868915754656" lon="10.495374624993847"><ele>63.0</ele><time>2026-05-02T08:10:07Z</time></trkpt><trkpt lat="43.941013559762276" lon="10.495456547885151"><ele>63.33333333333333</ele><time>2026-05-02T08:10:08Z</time></trkpt><trkpt lat="43.9411655177591" lon="10.495533295514035"><ele>63.666666666666664</ele><time>2026-05-02T08:10:09Z</time></trkpt><trkpt lat="43.94131427484921" lon="10.495611623072836"><ele>64.0</ele><time>2026-05-02T08:10:10Z</time></trkpt><trkpt lat="43.941460763980544" lon="10.495687439701717"><ele>64.0</ele><time>2026-05-02T08:10:11Z</time></trkpt><trkpt lat="43.94160818550395" lon="10.495767350070999"><ele>64.0</ele><time>2026-05-02T08:10:12Z</time></trkpt><trkpt lat="43.94174784651238" lon="10.49583869849757"><ele>64.0</ele><time>2026-05-02T08:10:13Z</time></trkpt><trkpt lat="43.94187814578216" lon="10.495906418394854"><ele>64.0</ele><time>2026-05-02T08:10:13.999Z</time></trkpt><trkpt lat="43.94199770002653" lon="10.495971530074367"><ele>63.800000000000004</ele><time>2026-05-02T08:10:14.999Z</time></trkpt><trkpt lat="43.94210242565481" lon="10.49602389325175"><ele>63.60000000000001</ele><time>2026-05-02T08:10:15.999Z</time></trkpt><trkpt lat="43.94219731788349" lon="10.496078599301594"><ele>63.4</ele><time>2026-05-02T08:10:16.999Z</time></trkpt><trkpt lat="43.94229214230335" lon="10.496129557121524"><ele>63.2</ele><time>2026-05-02T08:10:17.999Z</time></trkpt><trkpt lat="43.942381742584345" lon="10.49618775380006"><ele>63.0</ele><time>2026-05-02T08:10:18.999Z</time></trkpt><trkpt lat="43.942477175896734" lon="10.4962460683791"><ele>63.2</ele><time>2026-05-02T08:10:19.999Z</time></trkpt><trkpt lat="43.9425649585726" lon="10.496309396283936"><ele>63.4</ele><time>2026-05-02T08:10:20.999Z</time></trkpt><trkpt lat="43.94265011575296" lon="10.496386460204649"><ele>63.60000000000001</ele><time>2026-05-02T08:10:21.999Z</time></trkpt><trkpt lat="43.94273696027594" lon="10.496480051097722"><ele>63.800000000000004</ele><time>2026-05-02T08:10:22.999Z</time></trkpt><trkpt lat="43.942826353717145" lon="10.496576666651801"><ele>64.0</ele><time>2026-05-02T08:10:23.999Z</time></trkpt><trkpt lat="43.942930162129024" lon="10.49664937857556"><ele>64.0</ele><time>2026-05-02T08:10:24.999Z</time></trkpt><trkpt lat="43.943049486248114" lon="10.496683479397896"><ele>64.0</ele><time>2026-05-02T08:10:25.999Z</time></trkpt><trkpt lat="43.94317791398201" lon="10.496680479621409"><ele>64.0</ele><time>2026-05-02T08:10:26.999Z</time></trkpt><trkpt lat="43.94330950534189" lon="10.49666947093088"><ele>64.0</ele><time>2026-05-02T08:10:27.999Z</time></trkpt><trkpt lat="43.94344229821129" lon="10.496683731786346"><ele>63.75</ele><time>2026-05-02T08:10:28.999Z</time></trkpt><trkpt lat="43.94357578687745" lon="10.496733149252938"><ele>63.5</ele><time>2026-05-02T08:10:29.999Z</time></trkpt><trkpt lat="43.94371012424971" lon="10.496803209755331"><ele>63.25</ele><time>2026-05-02T08:10:30.999Z</time></trkpt><trkpt lat="43.943848851918766" lon="10.496875933125462"><ele>63.0</ele><time>2026-05-02T08:10:31.999Z</time></trkpt><trkpt lat="43.94399602331368" lon="10.496947839681495"><ele>63.0</ele><time>2026-05-02T08:10:32.999Z</time></trkpt><trkpt lat="43.94414683882811" lon="10.497027256375272"><ele>63.0</ele><time>2026-05-02T08:10:33.999Z</time></trkpt><trkpt lat="43.94429525695048" lon="10.497103736024847"><ele>63.0</ele><time>2026-05-02T08:10:34.999Z</time></trkpt><trkpt lat="43.94444927272277" lon="10.497183647095929"><ele>63.33333333333333</ele><time>2026-05-02T08:10:35.999Z</time></trkpt><trkpt lat="43.94460670004703" lon="10.497263746492948"><ele>63.666666666666664</ele><time>2026-05-02T08:10:36.999Z</time></trkpt><trkpt lat="43.944771734579156" lon="10.497342546187278"><ele>64.0</ele><time>2026-05-02T08:10:37.999Z</time></trkpt><trkpt lat="43.94493915185821" lon="10.497427594665336"><ele>68.33333333333333</ele><time>2026-05-02T08:10:38.999Z</time></trkpt><trkpt lat="43.94510943859978" lon="10.497503654867204"><ele>72.66666666666667</ele><time>2026-05-02T08:10:39.999Z</time></trkpt><trkpt lat="43.945282105014755" lon="10.497573176414537"><ele>77.0</ele><time>2026-05-02T08:10:40.999Z</time></trkpt><trkpt lat="43.94545273374826" lon="10.497639617860592"><ele>77.0</ele><time>2026-05-02T08:10:41.999Z</time></trkpt><trkpt lat="43.94561914265188" lon="10.497703479403235"><ele>77.0</ele><time>2026-05-02T08:10:42.999Z</time></trkpt><trkpt lat="43.94578730297658" lon="10.497768355616266"><ele>77.0</ele><time>2026-05-02T08:10:43.999Z</time></trkpt><trkpt lat="43.94595656230479" lon="10.497833681198214"><ele>81.0</ele><time>2026-05-02T08:10:44.999Z</time></trkpt><trkpt lat="43.946127957788306" lon="10.497899440972938"><ele>85.0</ele><time>2026-05-02T08:10:45.999Z</time></trkpt><trkpt lat="43.946297762637606" lon="10.49796376674125"><ele>89.0</ele><time>2026-05-02T08:10:46.999Z</time></trkpt><trkpt lat="43.946469496092895" lon="10.498029104718473"><ele>82.0</ele><time>2026-05-02T08:10:47.999Z</time></trkpt><trkpt lat="43.94664272343012" lon="10.49809762611855"><ele>75.0</ele><time>2026-05-02T08:10:48.999Z</time></trkpt><trkpt lat="43.94681790922771" lon="10.498168925181071"><ele>68.0</ele><time>2026-05-02T08:10:49.999Z</time></trkpt><trkpt lat="43.946995854430945" lon="10.498240553981335"><ele>68.0</ele><time>2026-05-02T08:10:50.999Z</time></trkpt><trkpt lat="43.947173577505026" lon="10.49830837382116"><ele>68.0</ele><time>2026-05-02T08:10:51.999Z</time></trkpt><trkpt lat="43.947352180519545" lon="10.498380936456792"><ele>68.0</ele><time>2026-05-02T08:10:52.999Z</time></trkpt><trkpt lat="43.94752595889635" lon="10.498450495299924"><ele>70.66666666666667</ele><time>2026-05-02T08:10:53.999Z</time></trkpt><trkpt lat="43.94770001145435" lon="10.498522566588868"><ele>73.33333333333333</ele><time>2026-05-02T08:10:54.999Z</time></trkpt><trkpt lat="43.94786952023101" lon="10.49859239177076"><ele>76.0</ele><time>2026-05-02T08:10:55.999Z</time></trkpt><trkpt lat="43.94804227439761" lon="10.498659173458604"><ele>76.0</ele><time>2026-05-02T08:10:56.999Z</time></trkpt><trkpt lat="43.94821458329102" lon="10.49872392544405"><ele>76.0</ele><time>2026-05-02T08:10:58.001Z</time></trkpt><trkpt lat="43.948388745699894" lon="10.498790030537197"><ele>76.0</ele><time>2026-05-02T08:10:59.001Z</time></trkpt><trkpt lat="43.948558901129566" lon="10.498856861688829"><ele>72.33333333333333</ele><time>2026-05-02T08:11:00.001Z</time></trkpt><trkpt lat="43.94872841544319" lon="10.498925359546286"><ele>68.66666666666667</ele><time>2026-05-02T08:11:01.001Z</time></trkpt><trkpt lat="43.94889628461673" lon="10.498992477008409"><ele>65.0</ele><time>2026-05-02T08:11:02.001Z</time></trkpt><trkpt lat="43.94906078499939" lon="10.499056370689646"><ele>65.0</ele><time>2026-05-02T08:11:03.001Z</time></trkpt><trkpt lat="43.949224616405004" lon="10.499120916736691"><ele>65.0</ele><time>2026-05-02T08:11:04.001Z</time></trkpt><trkpt lat="43.94938102192336" lon="10.499183191328488"><ele>65.0</ele><time>2026-05-02T08:11:05.001Z</time></trkpt><trkpt lat="43.94953789645107" lon="10.499240102068502"><ele>65.0</ele><time>2026-05-02T08:11:06.001Z</time></trkpt><trkpt lat="43.949701803612776" lon="10.499300125100843"><ele>65.0</ele><time>2026-05-02T08:11:07.001Z</time></trkpt><trkpt lat="43.949856323232375" lon="10.49936618028026"><ele>65.0</ele><time>2026-05-02T08:11:08.001Z</time></trkpt><trkpt lat="43.95001163175538" lon="10.499427187905937"><ele>64.66666666666667</ele><time>2026-05-02T08:11:09.001Z</time></trkpt><trkpt lat="43.950164838103206" lon="10.499488863748882"><ele>64.33333333333333</ele><time>2026-05-02T08:11:10.001Z</time></trkpt><trkpt lat="43.950320123121784" lon="10.499550687014208"><ele>64.0</ele><time>2026-05-02T08:11:11.001Z</time></trkpt><trkpt lat="43.95046646277682" lon="10.499609065528743"><ele>64.0</ele><time>2026-05-02T08:11:12.001Z</time></trkpt><trkpt lat="43.95061244938531" lon="10.499668514678621"><ele>64.0</ele><time>2026-05-02T08:11:13.001Z</time></trkpt><trkpt lat="43.95075514647266" lon="10.499727438965209"><ele>64.0</ele><time>2026-05-02T08:11:14.001Z</time></trkpt><trkpt lat="43.9508967482037" lon="10.49978566644706"><ele>64.0</ele><time>2026-05-02T08:11:15Z</time></trkpt><trkpt lat="43.95104019239027" lon="10.49984079335399"><ele>63.75</ele><time>2026-05-02T08:11:16Z</time></trkpt><trkpt lat="43.951183711625646" lon="10.49989555382011"><ele>63.5</ele><time>2026-05-02T08:11:17Z</time></trkpt><trkpt lat="43.951322166375554" lon="10.499952978075353"><ele>63.25</ele><time>2026-05-02T08:11:18Z</time></trkpt><trkpt lat="43.95146290221471" lon="10.500013073142677"><ele>63.0</ele><time>2026-05-02T08:11:19Z</time></trkpt><trkpt lat="43.951602133999145" lon="10.500073136266678"><ele>63.25</ele><time>2026-05-02T08:11:20Z</time></trkpt><trkpt lat="43.95174609588946" lon="10.500136085008515"><ele>63.5</ele><time>2026-05-02T08:11:21Z</time></trkpt><trkpt lat="43.95188549975671" lon="10.50020011165652"><ele>63.75</ele><time>2026-05-02T08:11:22Z</time></trkpt><trkpt lat="43.952020964799004" lon="10.5002691354928"><ele>64.0</ele><time>2026-05-02T08:11:23Z</time></trkpt><trkpt lat="43.95215642312279" lon="10.500339546900502"><ele>64.0</ele><time>2026-05-02T08:11:24Z</time></trkpt><trkpt lat="43.95229223228477" lon="10.500412699724153"><ele>64.0</ele><time>2026-05-02T08:11:25Z</time></trkpt><trkpt lat="43.95242403163746" lon="10.50048901943541"><ele>64.0</ele><time>2026-05-02T08:11:26Z</time></trkpt><trkpt lat="43.95255892041102" lon="10.500569409839732"><ele>64.0</ele><time>2026-05-02T08:11:27Z</time></trkpt><trkpt lat="43.95269588129385" lon="10.500648320956389"><ele>64.25</ele><time>2026-05-02T08:11:28Z</time></trkpt><trkpt lat="43.95282999318634" lon="10.50073365139023"><ele>64.5</ele><time>2026-05-02T08:11:29Z</time></trkpt><trkpt lat="43.95296559464821" lon="10.500821700817186"><ele>64.75</ele><time>2026-05-02T08:11:30Z</time></trkpt><trkpt lat="43.95309778486214" lon="10.500906958391518"><ele>65.0</ele><time>2026-05-02T08:11:31Z</time></trkpt><trkpt lat="43.95322701853043" lon="10.50099993162681"><ele>65.0</ele><time>2026-05-02T08:11:32Z</time></trkpt><trkpt lat="43.95335931161487" lon="10.501085508028872"><ele>65.0</ele><time>2026-05-02T08:11:33Z</time></trkpt><trkpt lat="43.95349259787633" lon="10.501178342072759"><ele>65.0</ele><time>2026-05-02T08:11:34Z</time></trkpt><trkpt lat="43.95362370636572" lon="10.501270573664168"><ele>65.0</ele><time>2026-05-02T08:11:35Z</time></trkpt><trkpt lat="43.95375415148247" lon="10.50136267534644"><ele>65.0</ele><time>2026-05-02T08:11:36Z</time></trkpt><trkpt lat="43.953884142518625" lon="10.50145130106076"><ele>65.0</ele><time>2026-05-02T08:11:37Z</time></trkpt><trkpt lat="43.95401598276552" lon="10.501540246407442"><ele>65.0</ele><time>2026-05-02T08:11:38Z</time></trkpt><trkpt lat="43.954150381564354" lon="10.501633441603923"><ele>65.0</ele><time>2026-05-02T08:11:39Z</time></trkpt><trkpt lat="43.95428802099848" lon="10.501726057160983"><ele>65.0</ele><time>2026-05-02T08:11:40Z</time></trkpt><trkpt lat="43.95442040762986" lon="10.501817387160683"><ele>65.0</ele><time>2026-05-02T08:11:41Z</time></trkpt><trkpt lat="43.9545562567294" lon="10.501911745813187"><ele>65.0</ele><time>2026-05-02T08:11:42Z</time></trkpt><trkpt lat="43.95469370606164" lon="10.502006059520312"><ele>64.66666666666667</ele><time>2026-05-02T08:11:43Z</time></trkpt><trkpt lat="43.95482957821936" lon="10.502104002144554"><ele>64.33333333333333</ele><time>2026-05-02T08:11:44Z</time></trkpt><trkpt lat="43.95496852582843" lon="10.50220240482494"><ele>64.0</ele><time>2026-05-02T08:11:45Z</time></trkpt><trkpt lat="43.955106255159414" lon="10.50230168911449"><ele>64.0</ele><time>2026-05-02T08:11:46Z</time></trkpt><trkpt lat="43.95524647608983" lon="10.502400188673382"><ele>64.0</ele><time>2026-05-02T08:11:47Z</time></trkpt><trkpt lat="43.955387027999016" lon="10.50250261790847"><ele>64.0</ele><time>2026-05-02T08:11:48Z</time></trkpt><trkpt lat="43.9555276526447" lon="10.502604570174169"><ele>64.0</ele><time>2026-05-02T08:11:49Z</time></trkpt><trkpt lat="43.955665497851186" lon="10.502705955962705"><ele>64.0</ele><time>2026-05-02T08:11:50Z</time></trkpt><trkpt lat="43.955805603880286" lon="10.502808293619683"><ele>64.0</ele><time>2026-05-02T08:11:51Z</time></trkpt><trkpt lat="43.955944014685535" lon="10.502907950504316"><ele>64.5</ele><time>2026-05-02T08:11:52Z</time></trkpt><trkpt lat="43.956078584296776" lon="10.503006910469738"><ele>65.0</ele><time>2026-05-02T08:11:53Z</time></trkpt><trkpt lat="43.95621133081304" lon="10.503102272949981"><ele>65.5</ele><time>2026-05-02T08:11:54Z</time></trkpt><trkpt lat="43.95634072117272" lon="10.503195275397553"><ele>66.0</ele><time>2026-05-02T08:11:55Z</time></trkpt><trkpt lat="43.9564693544231" lon="10.50329010218095"><ele>66.0</ele><time>2026-05-02T08:11:56Z</time></trkpt><trkpt lat="43.956594514011954" lon="10.503385528105827"><ele>66.0</ele><time>2026-05-02T08:11:57Z</time></trkpt><trkpt lat="43.956717689677205" lon="10.503480705728228"><ele>66.0</ele><time>2026-05-02T08:11:58Z</time></trkpt><trkpt lat="43.95684059365413" lon="10.50357348293641"><ele>66.0</ele><time>2026-05-02T08:11:59Z</time></trkpt><trkpt lat="43.956961532175534" lon="10.50366375789439"><ele>66.75</ele><time>2026-05-02T08:12:00Z</time></trkpt><trkpt lat="43.95708054061995" lon="10.50375130340665"><ele>67.5</ele><time>2026-05-02T08:12:01Z</time></trkpt><trkpt lat="43.95719905281" lon="10.50383734485499"><ele>68.25</ele><time>2026-05-02T08:12:02Z</time></trkpt><trkpt lat="43.957316268796184" lon="10.503920394894221"><ele>69.0</ele><time>2026-05-02T08:12:03Z</time></trkpt><trkpt lat="43.95742575324689" lon="10.503996248936158"><ele>69.0</ele><time>2026-05-02T08:12:04Z</time></trkpt><trkpt lat="43.95753171228425" lon="10.504070650747455"><ele>69.0</ele><time>2026-05-02T08:12:05Z</time></trkpt><trkpt lat="43.95763334696492" lon="10.504147903592575"><ele>69.0</ele><time>2026-05-02T08:12:06Z</time></trkpt><trkpt lat="43.95773540096837" lon="10.50422001066253"><ele>69.0</ele><time>2026-05-02T08:12:07Z</time></trkpt><trkpt lat="43.95783443880197" lon="10.504290042468925"><ele>69.16666666666667</ele><time>2026-05-02T08:12:07.999Z</time></trkpt><trkpt lat="43.95792361137743" lon="10.504356002545286"><ele>69.33333333333333</ele><time>2026-05-02T08:12:08.999Z</time></trkpt><trkpt lat="43.95800372346405" lon="10.504421486708427"><ele>69.5</ele><time>2026-05-02T08:12:09.999Z</time></trkpt><trkpt lat="43.95807685860195" lon="10.504492400394097"><ele>69.66666666666666</ele><time>2026-05-02T08:12:10.999Z</time></trkpt><trkpt lat="43.95813731951019" lon="10.504574341078973"><ele>69.83333333333333</ele><time>2026-05-02T08:12:11.999Z</time></trkpt><trkpt lat="43.95819633969344" lon="10.504645327806179"><ele>70.0</ele><time>2026-05-02T08:12:12.999Z</time></trkpt><trkpt lat="43.9582476948371" lon="10.504731772677125"><ele>70.0</ele><time>2026-05-02T08:12:13.999Z</time></trkpt><trkpt lat="43.95828745742287" lon="10.504845507418203"><ele>70.0</ele><time>2026-05-02T08:12:14.999Z</time></trkpt><trkpt lat="43.95837124919405" lon="10.504916596131395"><ele>70.0</ele><time>2026-05-02T08:12:15.999Z</time></trkpt><trkpt lat="43.958468339498495" lon="10.504956823491694"><ele>70.0</ele><time>2026-05-02T08:12:16.999Z</time></trkpt><trkpt lat="43.95856786646026" lon="10.50499030800149"><ele>70.0</ele><time>2026-05-02T08:12:17.999Z</time></trkpt><trkpt lat="43.958665333781866" lon="10.505051521587207"><ele>70.25</ele><time>2026-05-02T08:12:18.999Z</time></trkpt><trkpt lat="43.95877098409875" lon="10.505087614209767"><ele>70.5</ele><time>2026-05-02T08:12:19.999Z</time></trkpt><trkpt lat="43.958849349557624" lon="10.505243271851462"><ele>70.75</ele><time>2026-05-02T08:12:20.999Z</time></trkpt><trkpt lat="43.95893907978828" lon="10.505360008429538"><ele>71.0</ele><time>2026-05-02T08:12:21.999Z</time></trkpt><trkpt lat="43.95903317012363" lon="10.505482676413903"><ele>71.25</ele><time>2026-05-02T08:12:22.999Z</time></trkpt><trkpt lat="43.95913068509969" lon="10.505609347813584"><ele>71.5</ele><time>2026-05-02T08:12:23.999Z</time></trkpt><trkpt lat="43.95922579261985" lon="10.50573375430926"><ele>71.75</ele><time>2026-05-02T08:12:24.999Z</time></trkpt><trkpt lat="43.959322822580134" lon="10.505861519052882"><ele>72.0</ele><time>2026-05-02T08:12:25.999Z</time></trkpt><trkpt lat="43.95942157450611" lon="10.505990405230184"><ele>72.5</ele><time>2026-05-02T08:12:26.999Z</time></trkpt><trkpt lat="43.959521932362456" lon="10.506118164033285"><ele>73.0</ele><time>2026-05-02T08:12:27.999Z</time></trkpt><trkpt lat="43.95962125405059" lon="10.506243826663543"><ele>73.5</ele><time>2026-05-02T08:12:28.999Z</time></trkpt><trkpt lat="43.959713243317" lon="10.506363776994094"><ele>74.0</ele><time>2026-05-02T08:12:29.999Z</time></trkpt><trkpt lat="43.959791995613266" lon="10.506467964376334"><ele>74.0</ele><time>2026-05-02T08:12:30.999Z</time></trkpt><trkpt lat="43.95985993561707" lon="10.506565315613955"><ele>74.0</ele><time>2026-05-02T08:12:31.999Z</time></trkpt><trkpt lat="43.95992645160838" lon="10.50666507857539"><ele>74.0</ele><time>2026-05-02T08:12:32.999Z</time></trkpt><trkpt lat="43.95999572670416" lon="10.50675963453418"><ele>74.0</ele><time>2026-05-02T08:12:33.999Z</time></trkpt><trkpt lat="43.96007959124513" lon="10.506860587066544"><ele>74.0</ele><time>2026-05-02T08:12:34.999Z</time></trkpt><trkpt lat="43.96017095613735" lon="10.506971985581936"><ele>73.5</ele><time>2026-05-02T08:12:35.999Z</time></trkpt><trkpt lat="43.96026674800511" lon="10.507090253736203"><ele>73.0</ele><time>2026-05-02T08:12:36.999Z</time></trkpt><trkpt lat="43.96036550473336" lon="10.507213758819802"><ele>72.5</ele><time>2026-05-02T08:12:37.999Z</time></trkpt><trkpt lat="43.96046631879295" lon="10.50734269278192"><ele>72.0</ele><time>2026-05-02T08:12:38.999Z</time></trkpt><trkpt lat="43.96056967872208" lon="10.507474638945085"><ele>72.0</ele><time>2026-05-02T08:12:39.999Z</time></trkpt><trkpt lat="43.96067551259178" lon="10.507613684112622"><ele>72.0</ele><time>2026-05-02T08:12:40.999Z</time></trkpt><trkpt lat="43.960781435591926" lon="10.507753034588074"><ele>72.0</ele><time>2026-05-02T08:12:41.999Z</time></trkpt><trkpt lat="43.96088996614986" lon="10.507896141522417"><ele>72.0</ele><time>2026-05-02T08:12:42.999Z</time></trkpt><trkpt lat="43.960999234462555" lon="10.508039092743063"><ele>72.0</ele><time>2026-05-02T08:12:43.999Z</time></trkpt><trkpt lat="43.96111013595548" lon="10.508180958289742"><ele>72.0</ele><time>2026-05-02T08:12:44.999Z</time></trkpt><trkpt lat="43.96122373840331" lon="10.508328870430375"><ele>72.0</ele><time>2026-05-02T08:12:45.999Z</time></trkpt><trkpt lat="43.96133736592419" lon="10.50847377360537"><ele>72.0</ele><time>2026-05-02T08:12:46.999Z</time></trkpt><trkpt lat="43.961451146568216" lon="10.508619905637099"><ele>72.0</ele><time>2026-05-02T08:12:47.999Z</time></trkpt><trkpt lat="43.96156370209813" lon="10.508771824004818"><ele>72.0</ele><time>2026-05-02T08:12:48.999Z</time></trkpt><trkpt lat="43.961678147695956" lon="10.508919913212713"><ele>72.0</ele><time>2026-05-02T08:12:49.999Z</time></trkpt><trkpt lat="43.96179197136109" lon="10.509069901392513"><ele>72.0</ele><time>2026-05-02T08:12:50.999Z</time></trkpt><trkpt lat="43.96190542535754" lon="10.50921958703056"><ele>72.0</ele><time>2026-05-02T08:12:51.999Z</time></trkpt><trkpt lat="43.96201433041735" lon="10.509364648681936"><ele>72.0</ele><time>2026-05-02T08:12:52.999Z</time></trkpt><trkpt lat="43.96212039096136" lon="10.509508652946241"><ele>72.0</ele><time>2026-05-02T08:12:53.999Z</time></trkpt><trkpt lat="43.96222555915361" lon="10.509647378241244"><ele>72.0</ele><time>2026-05-02T08:12:54.999Z</time></trkpt><trkpt lat="43.962329790097854" lon="10.509784066472516"><ele>72.0</ele><time>2026-05-02T08:12:55.999Z</time></trkpt><trkpt lat="43.96243465482035" lon="10.50992037537934"><ele>71.75</ele><time>2026-05-02T08:12:56.999Z</time></trkpt><trkpt lat="43.96253851583578" lon="10.510057167414042"><ele>71.5</ele><time>2026-05-02T08:12:57.999Z</time></trkpt><trkpt lat="43.96263716308262" lon="10.51018760101955"><ele>71.25</ele><time>2026-05-02T08:12:58.999Z</time></trkpt><trkpt lat="43.96272815659013" lon="10.51030696719796"><ele>71.0</ele><time>2026-05-02T08:12:59.999Z</time></trkpt><trkpt lat="43.96281554794253" lon="10.510424204067846"><ele>71.0</ele><time>2026-05-02T08:13:00.999Z</time></trkpt><trkpt lat="43.96290023653959" lon="10.510536144264217"><ele>71.0</ele><time>2026-05-02T08:13:01.999Z</time></trkpt><trkpt lat="43.962982243110524" lon="10.510641007969378"><ele>71.0</ele><time>2026-05-02T08:13:02.999Z</time></trkpt><trkpt lat="43.96307089586426" lon="10.510754974780035"><ele>71.0</ele><time>2026-05-02T08:13:04.001Z</time></trkpt><trkpt lat="43.96316524366556" lon="10.510875147796174"><ele>71.0</ele><time>2026-05-02T08:13:05.001Z</time></trkpt><trkpt lat="43.9632661158381" lon="10.511004882952236"><ele>71.0</ele><time>2026-05-02T08:13:06.001Z</time></trkpt><trkpt lat="43.96337375011246" lon="10.51114451538981"><ele>71.0</ele><time>2026-05-02T08:13:07.001Z</time></trkpt><trkpt lat="43.96348448129782" lon="10.511292875367488"><ele>71.0</ele><time>2026-05-02T08:13:08.001Z</time></trkpt><trkpt lat="43.963596982114844" lon="10.511443898912995"><ele>72.0</ele><time>2026-05-02T08:13:09.001Z</time></trkpt><trkpt lat="43.96371488762316" lon="10.51159287557672"><ele>73.0</ele><time>2026-05-02T08:13:10.001Z</time></trkpt><trkpt lat="43.96383281247744" lon="10.511744359983716"><ele>74.0</ele><time>2026-05-02T08:13:11.001Z</time></trkpt><trkpt lat="43.96394983626574" lon="10.511893538713501"><ele>74.0</ele><time>2026-05-02T08:13:12.001Z</time></trkpt><trkpt lat="43.96406556196948" lon="10.512041890098013"><ele>74.0</ele><time>2026-05-02T08:13:13Z</time></trkpt><trkpt lat="43.96418178332642" lon="10.512192986966074"><ele>74.0</ele><time>2026-05-02T08:13:14Z</time></trkpt><trkpt lat="43.964299835595774" lon="10.512349144468894"><ele>73.66666666666667</ele><time>2026-05-02T08:13:15Z</time></trkpt><trkpt lat="43.96442223146517" lon="10.512509405439683"><ele>73.33333333333333</ele><time>2026-05-02T08:13:16Z</time></trkpt><trkpt lat="43.96454575935237" lon="10.512671903350345"><ele>73.0</ele><time>2026-05-02T08:13:17Z</time></trkpt><trkpt lat="43.96466890515775" lon="10.512836362100362"><ele>73.0</ele><time>2026-05-02T08:13:18Z</time></trkpt><trkpt lat="43.964793844874855" lon="10.512999184469807"><ele>73.0</ele><time>2026-05-02T08:13:19Z</time></trkpt><trkpt lat="43.964917965863215" lon="10.513165807632168"><ele>73.0</ele><time>2026-05-02T08:13:20Z</time></trkpt><trkpt lat="43.965044158476026" lon="10.513337423222907"><ele>73.0</ele><time>2026-05-02T08:13:21Z</time></trkpt><trkpt lat="43.965169847180526" lon="10.513511507386376"><ele>73.0</ele><time>2026-05-02T08:13:22Z</time></trkpt><trkpt lat="43.96529675084917" lon="10.513692071266023"><ele>73.0</ele><time>2026-05-02T08:13:23Z</time></trkpt><trkpt lat="43.9654241055751" lon="10.513879922777441"><ele>73.0</ele><time>2026-05-02T08:13:24Z</time></trkpt><trkpt lat="43.96555150657806" lon="10.514073209710022"><ele>73.0</ele><time>2026-05-02T08:13:25Z</time></trkpt><trkpt lat="43.965676422565465" lon="10.51427020818861"><ele>73.0</ele><time>2026-05-02T08:13:26Z</time></trkpt><trkpt lat="43.96579965483092" lon="10.514476990833716"><ele>79.0</ele><time>2026-05-02T08:13:27Z</time></trkpt><trkpt lat="43.96591804165916" lon="10.514687341129202"><ele>85.0</ele><time>2026-05-02T08:13:28Z</time></trkpt><trkpt lat="43.96603295510083" lon="10.51490247973422"><ele>91.0</ele><time>2026-05-02T08:13:29Z</time></trkpt><trkpt lat="43.96614709112568" lon="10.515129985010226"><ele>91.0</ele><time>2026-05-02T08:13:30Z</time></trkpt><trkpt lat="43.96625989961241" lon="10.515367204645498"><ele>91.0</ele><time>2026-05-02T08:13:31Z</time></trkpt><trkpt lat="43.96637334046468" lon="10.515616161443194"><ele>91.0</ele><time>2026-05-02T08:13:32Z</time></trkpt><trkpt lat="43.966490269170485" lon="10.515864163781607"><ele>92.0</ele><time>2026-05-02T08:13:33Z</time></trkpt><trkpt lat="43.966611197030986" lon="10.516110124069904"><ele>93.0</ele><time>2026-05-02T08:13:34Z</time></trkpt><trkpt lat="43.96673432800321" lon="10.516360981901865"><ele>94.0</ele><time>2026-05-02T08:13:35Z</time></trkpt><trkpt lat="43.96685813775935" lon="10.516611928055848"><ele>94.0</ele><time>2026-05-02T08:13:36Z</time></trkpt><trkpt lat="43.96698233602598" lon="10.516862319321104"><ele>94.0</ele><time>2026-05-02T08:13:37Z</time></trkpt><trkpt lat="43.96709895099725" lon="10.517083964400726"><ele>94.0</ele><time>2026-05-02T08:13:38Z</time></trkpt><trkpt lat="43.967225697622084" lon="10.517316737043672"><ele>94.0</ele><time>2026-05-02T08:13:39Z</time></trkpt><trkpt lat="43.967347794054064" lon="10.51754971639728"><ele>94.0</ele><time>2026-05-02T08:13:40Z</time></trkpt><trkpt lat="43.967470441586585" lon="10.517785587091803"><ele>94.0</ele><time>2026-05-02T08:13:41Z</time></trkpt><trkpt lat="43.96759493277218" lon="10.518014564442783"><ele>94.0</ele><time>2026-05-02T08:13:42Z</time></trkpt><trkpt lat="43.9677230285052" lon="10.518232558747952"><ele>94.0</ele><time>2026-05-02T08:13:43Z</time></trkpt><trkpt lat="43.96785911281999" lon="10.51843339617181"><ele>94.0</ele><time>2026-05-02T08:13:44Z</time></trkpt><trkpt lat="43.9680051137253" lon="10.518615516469634"><ele>94.33333333333333</ele><time>2026-05-02T08:13:45Z</time></trkpt><trkpt lat="43.96816314783376" lon="10.518780044472676"><ele>94.66666666666667</ele><time>2026-05-02T08:13:46Z</time></trkpt><trkpt lat="43.96833241127481" lon="10.518932544716593"><ele>95.0</ele><time>2026-05-02T08:13:47Z</time></trkpt><trkpt lat="43.968508373145696" lon="10.51908928955644"><ele>95.0</ele><time>2026-05-02T08:13:48Z</time></trkpt><trkpt lat="43.968689989357536" lon="10.519223610219258"><ele>95.0</ele><time>2026-05-02T08:13:49Z</time></trkpt><trkpt lat="43.96887619108447" lon="10.51935029902259"><ele>95.0</ele><time>2026-05-02T08:13:50Z</time></trkpt><trkpt lat="43.96906735209328" lon="10.519477607990732"><ele>93.0</ele><time>2026-05-02T08:13:51Z</time></trkpt><trkpt lat="43.96926016005901" lon="10.519605035199453"><ele>91.0</ele><time>2026-05-02T08:13:52Z</time></trkpt><trkpt lat="43.96944865815233" lon="10.51973480847304"><ele>89.0</ele><time>2026-05-02T08:13:53Z</time></trkpt><trkpt lat="43.96963620984684" lon="10.519866048873242"><ele>89.0</ele><time>2026-05-02T08:13:54Z</time></trkpt><trkpt lat="43.96982384155912" lon="10.520001524969201"><ele>89.0</ele><time>2026-05-02T08:13:55Z</time></trkpt><trkpt lat="43.970010179410416" lon="10.52014572771445"><ele>89.0</ele><time>2026-05-02T08:13:56Z</time></trkpt><trkpt lat="43.97019258217333" lon="10.520301398064987"><ele>90.0</ele><time>2026-05-02T08:13:57Z</time></trkpt><trkpt lat="43.97037058432843" lon="10.520467007068115"><ele>91.0</ele><time>2026-05-02T08:13:58Z</time></trkpt><trkpt lat="43.970546292674975" lon="10.520650804087358"><ele>92.0</ele><time>2026-05-02T08:13:59Z</time></trkpt><trkpt lat="43.970717566961916" lon="10.520851849039778"><ele>95.66666666666667</ele><time>2026-05-02T08:14:00Z</time></trkpt><trkpt lat="43.97087884180797" lon="10.5210660906705"><ele>99.33333333333334</ele><time>2026-05-02T08:14:01Z</time></trkpt><trkpt lat="43.97103544116562" lon="10.521290494398869"><ele>103.0</ele><time>2026-05-02T08:14:02Z</time></trkpt><trkpt lat="43.97119114176994" lon="10.521516682186842"><ele>103.0</ele><time>2026-05-02T08:14:03Z</time></trkpt><trkpt lat="43.9713450213168" lon="10.521746471801988"><ele>103.0</ele><time>2026-05-02T08:14:04Z</time></trkpt><trkpt lat="43.971496159956736" lon="10.521973645293206"><ele>103.0</ele><time>2026-05-02T08:14:05Z</time></trkpt><trkpt lat="43.97164874579717" lon="10.522207126238408"><ele>113.0</ele><time>2026-05-02T08:14:06Z</time></trkpt><trkpt lat="43.97180236564921" lon="10.52244863344061"><ele>123.0</ele><time>2026-05-02T08:14:07Z</time></trkpt><trkpt lat="43.97195279101137" lon="10.52268752641014"><ele>108.0</ele><time>2026-05-02T08:14:08Z</time></trkpt><trkpt lat="43.97209575018856" lon="10.522936613971329"><ele>93.0</ele><time>2026-05-02T08:14:09Z</time></trkpt><trkpt lat="43.97222746398662" lon="10.52319712744976"><ele>93.0</ele><time>2026-05-02T08:14:10Z</time></trkpt><trkpt lat="43.97235086233316" lon="10.523461538578472"><ele>93.0</ele><time>2026-05-02T08:14:11Z</time></trkpt><trkpt lat="43.972465786735555" lon="10.523736949497835"><ele>105.5</ele><time>2026-05-02T08:14:12Z</time></trkpt><trkpt lat="43.972569484021484" lon="10.524024701857567"><ele>118.0</ele><time>2026-05-02T08:14:13Z</time></trkpt><trkpt lat="43.97266346790696" lon="10.524316479423053"><ele>122.0</ele><time>2026-05-02T08:14:14Z</time></trkpt><trkpt lat="43.972748179992955" lon="10.52461541902564"><ele>126.0</ele><time>2026-05-02T08:14:15Z</time></trkpt><trkpt lat="43.97281964236525" lon="10.524921485915987"><ele>126.0</ele><time>2026-05-02T08:14:16Z</time></trkpt><trkpt lat="43.97288118859193" lon="10.525232323461067"><ele>126.0</ele><time>2026-05-02T08:14:17Z</time></trkpt><trkpt lat="43.972967165076284" lon="10.52552565839436"><ele>121.5</ele><time>2026-05-02T08:14:18Z</time></trkpt><trkpt lat="43.97297627088358" lon="10.525854479726636"><ele>117.0</ele><time>2026-05-02T08:14:19Z</time></trkpt><trkpt lat="43.973008560836426" lon="10.52617076903135"><ele>112.5</ele><time>2026-05-02T08:14:19.999Z</time></trkpt><trkpt lat="43.973038249848386" lon="10.526481541040065"><ele>108.0</ele><time>2026-05-02T08:14:20.999Z</time></trkpt><trkpt lat="43.97306883269532" lon="10.526795541235437"><ele>103.0</ele><time>2026-05-02T08:14:21.999Z</time></trkpt><trkpt lat="43.973097169845886" lon="10.52711326323684"><ele>98.0</ele><time>2026-05-02T08:14:22.999Z</time></trkpt><trkpt lat="43.97312495600365" lon="10.527427911327969"><ele>98.0</ele><time>2026-05-02T08:14:23.999Z</time></trkpt><trkpt lat="43.973153889774835" lon="10.527741687168831"><ele>98.0</ele><time>2026-05-02T08:14:24.999Z</time></trkpt><trkpt lat="43.973184380476134" lon="10.528054385056592"><ele>93.66666666666666</ele><time>2026-05-02T08:14:25.999Z</time></trkpt><trkpt lat="43.973212961342135" lon="10.528364712069726"><ele>89.33333333333333</ele><time>2026-05-02T08:14:26.999Z</time></trkpt><trkpt lat="43.973242824864585" lon="10.52866379478147"><ele>85.0</ele><time>2026-05-02T08:14:27.999Z</time></trkpt><trkpt lat="43.973272700659514" lon="10.528954698083618"><ele>85.0</ele><time>2026-05-02T08:14:28.999Z</time></trkpt><trkpt lat="43.973300764645494" lon="10.529249745526869"><ele>85.0</ele><time>2026-05-02T08:14:29.999Z</time></trkpt><trkpt lat="43.97332930087683" lon="10.529541527568616"><ele>85.0</ele><time>2026-05-02T08:14:30.999Z</time></trkpt><trkpt lat="43.973356728905976" lon="10.52982529116248"><ele>101.66666666666666</ele><time>2026-05-02T08:14:31.999Z</time></trkpt><trkpt lat="43.973383805141125" lon="10.53010368724262"><ele>118.33333333333333</ele><time>2026-05-02T08:14:32.999Z</time></trkpt><trkpt lat="43.97340830485771" lon="10.530376189733298"><ele>135.0</ele><time>2026-05-02T08:14:33.999Z</time></trkpt><trkpt lat="43.97343112397349" lon="10.530645621334736"><ele>135.0</ele><time>2026-05-02T08:14:34.999Z</time></trkpt><trkpt lat="43.97345558534313" lon="10.530916124472842"><ele>135.0</ele><time>2026-05-02T08:14:35.999Z</time></trkpt><trkpt lat="43.973480999934374" lon="10.531185468319936"><ele>135.0</ele><time>2026-05-02T08:14:36.999Z</time></trkpt><trkpt lat="43.97350573833502" lon="10.531451242996688"><ele>132.0</ele><time>2026-05-02T08:14:37.999Z</time></trkpt><trkpt lat="43.973528613345366" lon="10.531711448668089"><ele>129.0</ele><time>2026-05-02T08:14:38.999Z</time></trkpt><trkpt lat="43.97355183626843" lon="10.531969212982544"><ele>126.0</ele><time>2026-05-02T08:14:39.999Z</time></trkpt><trkpt lat="43.97357911093643" lon="10.532223749527578"><ele>123.0</ele><time>2026-05-02T08:14:40.999Z</time></trkpt><trkpt lat="43.97361228630877" lon="10.53247517253757"><ele>120.0</ele><time>2026-05-02T08:14:41.999Z</time></trkpt><trkpt lat="43.97365447648843" lon="10.532724281604343"><ele>117.0</ele><time>2026-05-02T08:14:42.999Z</time></trkpt><trkpt lat="43.973704317593366" lon="10.532975948796667"><ele>112.33333333333334</ele><time>2026-05-02T08:14:43.999Z</time></trkpt><trkpt lat="43.973768562287354" lon="10.533222073695585"><ele>107.66666666666667</ele><time>2026-05-02T08:14:44.999Z</time></trkpt><trkpt lat="43.973839259402745" lon="10.533474807646904"><ele>103.0</ele><time>2026-05-02T08:14:45.999Z</time></trkpt><trkpt lat="43.97392093967313" lon="10.533721314152045"><ele>98.66666666666667</ele><time>2026-05-02T08:14:46.999Z</time></trkpt><trkpt lat="43.974013787381125" lon="10.53396094881206"><ele>94.33333333333334</ele><time>2026-05-02T08:14:47.999Z</time></trkpt><trkpt lat="43.97411519502913" lon="10.534186867096784"><ele>90.0</ele><time>2026-05-02T08:14:48.999Z</time></trkpt><trkpt lat="43.97422235629761" lon="10.534404590208599"><ele>90.0</ele><time>2026-05-02T08:14:49.999Z</time></trkpt><trkpt lat="43.97433955267454" lon="10.53461024682141"><ele>90.0</ele><time>2026-05-02T08:14:50.999Z</time></trkpt><trkpt lat="43.97446335260796" lon="10.53480267548134"><ele>90.0</ele><time>2026-05-02T08:14:51.999Z</time></trkpt><trkpt lat="43.974592341460564" lon="10.534982873993929"><ele>90.0</ele><time>2026-05-02T08:14:52.999Z</time></trkpt><trkpt lat="43.97472779583763" lon="10.535157037979763"><ele>90.0</ele><time>2026-05-02T08:14:53.999Z</time></trkpt><trkpt lat="43.974865912911504" lon="10.535319375306813"><ele>90.0</ele><time>2026-05-02T08:14:54.999Z</time></trkpt><trkpt lat="43.97500542903481" lon="10.53547707373446"><ele>88.33333333333333</ele><time>2026-05-02T08:14:55.999Z</time></trkpt><trkpt lat="43.97514958769785" lon="10.535635376388502"><ele>86.66666666666666</ele><time>2026-05-02T08:14:56.999Z</time></trkpt><trkpt lat="43.97528945816777" lon="10.535797625323195"><ele>85.0</ele><time>2026-05-02T08:14:57.999Z</time></trkpt><trkpt lat="43.97542753645474" lon="10.535968953491478"><ele>85.0</ele><time>2026-05-02T08:14:58.999Z</time></trkpt><trkpt lat="43.97555963370473" lon="10.53615442595376"><ele>85.0</ele><time>2026-05-02T08:14:59.999Z</time></trkpt><trkpt lat="43.97568681044954" lon="10.536352838857386"><ele>85.0</ele><time>2026-05-02T08:15:00.999Z</time></trkpt><trkpt lat="43.9758057532825" lon="10.536564516177407"><ele>86.66666666666666</ele><time>2026-05-02T08:15:01.999Z</time></trkpt><trkpt lat="43.97591231282979" lon="10.536794131310838"><ele>88.33333333333333</ele><time>2026-05-02T08:15:02.999Z</time></trkpt><trkpt lat="43.976005134056514" lon="10.537043218804808"><ele>90.0</ele><time>2026-05-02T08:15:03.999Z</time></trkpt><trkpt lat="43.976066336428524" lon="10.537297200687451"><ele>90.0</ele><time>2026-05-02T08:15:04.999Z</time></trkpt><trkpt lat="43.976106927330605" lon="10.537534627348792"><ele>90.0</ele><time>2026-05-02T08:15:05.999Z</time></trkpt><trkpt lat="43.9761413410963" lon="10.537756148338072"><ele>90.0</ele><time>2026-05-02T08:15:06.999Z</time></trkpt><trkpt lat="43.97616351574819" lon="10.538002761126592"><ele>90.0</ele><time>2026-05-02T08:15:07.999Z</time></trkpt><trkpt lat="43.9761789620331" lon="10.53824576792403"><ele>90.0</ele><time>2026-05-02T08:15:08.999Z</time></trkpt><trkpt lat="43.97618991987135" lon="10.538487949303715"><ele>90.0</ele><time>2026-05-02T08:15:10.001Z</time></trkpt><trkpt lat="43.97619172051807" lon="10.538728010028667"><ele>90.66666666666667</ele><time>2026-05-02T08:15:11.001Z</time></trkpt><trkpt lat="43.97618980383842" lon="10.538971507455228"><ele>91.33333333333334</ele><time>2026-05-02T08:15:12.001Z</time></trkpt><trkpt lat="43.9761891118589" lon="10.539210911129645"><ele>92.0</ele><time>2026-05-02T08:15:13.001Z</time></trkpt><trkpt lat="43.97619229435506" lon="10.5394491828776"><ele>91.33333333333334</ele><time>2026-05-02T08:15:14.001Z</time></trkpt><trkpt lat="43.976197259482376" lon="10.539688633330229"><ele>90.66666666666667</ele><time>2026-05-02T08:15:15.001Z</time></trkpt><trkpt lat="43.97620702334782" lon="10.539929274019006"><ele>90.0</ele><time>2026-05-02T08:15:16.001Z</time></trkpt><trkpt lat="43.97622526587731" lon="10.540174603610813"><ele>89.33333333333333</ele><time>2026-05-02T08:15:17.001Z</time></trkpt><trkpt lat="43.97625409269434" lon="10.540419122499767"><ele>88.66666666666666</ele><time>2026-05-02T08:15:18.001Z</time></trkpt><trkpt lat="43.97628784575661" lon="10.540660470194906"><ele>88.0</ele><time>2026-05-02T08:15:19.001Z</time></trkpt><trkpt lat="43.97631828758349" lon="10.5409019624616"><ele>88.0</ele><time>2026-05-02T08:15:20.001Z</time></trkpt><trkpt lat="43.97634967428079" lon="10.541138603973856"><ele>88.0</ele><time>2026-05-02T08:15:21.001Z</time></trkpt><trkpt lat="43.97638388031162" lon="10.541374189354942"><ele>88.0</ele><time>2026-05-02T08:15:22.001Z</time></trkpt><trkpt lat="43.97641806553996" lon="10.541604266175964"><ele>87.66666666666666</ele><time>2026-05-02T08:15:23.001Z</time></trkpt><trkpt lat="43.97645197744154" lon="10.541825752253375"><ele>87.33333333333333</ele><time>2026-05-02T08:15:24.001Z</time></trkpt><trkpt lat="43.97648688536137" lon="10.542048292856817"><ele>87.0</ele><time>2026-05-02T08:15:25.001Z</time></trkpt><trkpt lat="43.97652033499319" lon="10.542265090228467"><ele>87.0</ele><time>2026-05-02T08:15:26.001Z</time></trkpt><trkpt lat="43.97655321619679" lon="10.54246844402169"><ele>87.0</ele><time>2026-05-02T08:15:27.001Z</time></trkpt><trkpt lat="43.97658733721088" lon="10.542665964410533"><ele>87.0</ele><time>2026-05-02T08:15:28.001Z</time></trkpt><trkpt lat="43.97661894009577" lon="10.542854055433631"><ele>87.0</ele><time>2026-05-02T08:15:29Z</time></trkpt><trkpt lat="43.976647986464236" lon="10.543034066340779"><ele>87.0</ele><time>2026-05-02T08:15:30Z</time></trkpt><trkpt lat="43.97665262747216" lon="10.543224166324467"><ele>87.0</ele><time>2026-05-02T08:15:31Z</time></trkpt><trkpt lat="43.976678905135735" lon="10.543410780464514"><ele>87.0</ele><time>2026-05-02T08:15:32Z</time></trkpt><trkpt lat="43.97672052768159" lon="10.543613765393399"><ele>87.0</ele><time>2026-05-02T08:15:33Z</time></trkpt><trkpt lat="43.97672399413494" lon="10.543791853825187"><ele>87.0</ele><time>2026-05-02T08:15:34Z</time></trkpt><trkpt lat="43.97674479644147" lon="10.543948783859104"><ele>87.0</ele><time>2026-05-02T08:15:35Z</time></trkpt><trkpt lat="43.97676310586803" lon="10.544089587815337"><ele>87.0</ele><time>2026-05-02T08:15:36Z</time></trkpt><trkpt lat="43.9767765204738" lon="10.544217038433972"><ele>87.0</ele><time>2026-05-02T08:15:37Z</time></trkpt><trkpt lat="43.97679431958866" lon="10.544339725167191"><ele>87.0</ele><time>2026-05-02T08:15:38Z</time></trkpt><trkpt lat="43.97681550568109" lon="10.544465523701454"><ele>87.0</ele><time>2026-05-02T08:15:39Z</time></trkpt><trkpt lat="43.97683947958883" lon="10.544605968239239"><ele>87.0</ele><time>2026-05-02T08:15:40Z</time></trkpt><trkpt lat="43.976862343170275" lon="10.544758337103936"><ele>87.0</ele><time>2026-05-02T08:15:41Z</time></trkpt><trkpt lat="43.97688525721894" lon="10.544921003585332"><ele>87.0</ele><time>2026-05-02T08:15:42Z</time></trkpt><trkpt lat="43.97690846899208" lon="10.545088422838937"><ele>87.0</ele><time>2026-05-02T08:15:43Z</time></trkpt><trkpt lat="43.97693290382044" lon="10.545256339864919"><ele>87.0</ele><time>2026-05-02T08:15:44Z</time></trkpt><trkpt lat="43.97695956518683" lon="10.545424930258397"><ele>87.0</ele><time>2026-05-02T08:15:45Z</time></trkpt><trkpt lat="43.97699356518868" lon="10.545596029807795"><ele>87.0</ele><time>2026-05-02T08:15:46Z</time></trkpt><trkpt lat="43.97703230735443" lon="10.545766813048013"><ele>87.0</ele><time>2026-05-02T08:15:47Z</time></trkpt><trkpt lat="43.97707965946565" lon="10.54593730496095"><ele>87.0</ele><time>2026-05-02T08:15:48Z</time></trkpt><trkpt lat="43.977128901802935" lon="10.546109390489402"><ele>87.0</ele><time>2026-05-02T08:15:49Z</time></trkpt><trkpt lat="43.97718233094607" lon="10.546283587120632"><ele>87.0</ele><time>2026-05-02T08:15:50Z</time></trkpt><trkpt lat="43.977239000095075" lon="10.546461500795031"><ele>87.25</ele><time>2026-05-02T08:15:51Z</time></trkpt><trkpt lat="43.97730276356181" lon="10.546640553911303"><ele>87.5</ele><time>2026-05-02T08:15:52Z</time></trkpt><trkpt lat="43.97737312551501" lon="10.546819721461512"><ele>87.75</ele><time>2026-05-02T08:15:53Z</time></trkpt><trkpt lat="43.97745019232571" lon="10.547001303493214"><ele>88.0</ele><time>2026-05-02T08:15:54Z</time></trkpt><trkpt lat="43.97753308788255" lon="10.547178586804426"><ele>89.0</ele><time>2026-05-02T08:15:55Z</time></trkpt><trkpt lat="43.97762363955396" lon="10.54734814151065"><ele>90.0</ele><time>2026-05-02T08:15:56Z</time></trkpt><trkpt lat="43.97772177977309" lon="10.54751477528935"><ele>91.0</ele><time>2026-05-02T08:15:57Z</time></trkpt><trkpt lat="43.977828152972535" lon="10.547677107180956"><ele>91.0</ele><time>2026-05-02T08:15:58Z</time></trkpt><trkpt lat="43.97794129875823" lon="10.54783571683095"><ele>91.0</ele><time>2026-05-02T08:15:59Z</time></trkpt><trkpt lat="43.97805754511268" lon="10.547988677153715"><ele>91.0</ele><time>2026-05-02T08:16:00Z</time></trkpt><trkpt lat="43.97817917279782" lon="10.548137225954632"><ele>91.0</ele><time>2026-05-02T08:16:01Z</time></trkpt><trkpt lat="43.97830420024044" lon="10.548285378687089"><ele>91.0</ele><time>2026-05-02T08:16:02Z</time></trkpt><trkpt lat="43.97843374947707" lon="10.548427463090931"><ele>91.0</ele><time>2026-05-02T08:16:03Z</time></trkpt><trkpt lat="43.97856352225323" lon="10.548567055016303"><ele>92.0</ele><time>2026-05-02T08:16:04Z</time></trkpt><trkpt lat="43.97869194095633" lon="10.548707083494815"><ele>93.0</ele><time>2026-05-02T08:16:05Z</time></trkpt><trkpt lat="43.97881780358455" lon="10.54884388431447"><ele>94.0</ele><time>2026-05-02T08:16:06Z</time></trkpt><trkpt lat="43.9789438665912" lon="10.548980597669635"><ele>94.0</ele><time>2026-05-02T08:16:07Z</time></trkpt><trkpt lat="43.9790657752381" lon="10.549118447598236"><ele>94.0</ele><time>2026-05-02T08:16:08Z</time></trkpt><trkpt lat="43.97918828004084" lon="10.549251650251387"><ele>94.0</ele><time>2026-05-02T08:16:09Z</time></trkpt><trkpt lat="43.97930885328974" lon="10.549382224378585"><ele>94.0</ele><time>2026-05-02T08:16:10Z</time></trkpt><trkpt lat="43.97942191952591" lon="10.549502699176074"><ele>94.0</ele><time>2026-05-02T08:16:11Z</time></trkpt><trkpt lat="43.979528628181995" lon="10.549610845093945"><ele>94.0</ele><time>2026-05-02T08:16:12Z</time></trkpt><trkpt lat="43.97962436012424" lon="10.549715961512893"><ele>94.0</ele><time>2026-05-02T08:16:13Z</time></trkpt><trkpt lat="43.97971193745411" lon="10.549813415830414"><ele>94.0</ele><time>2026-05-02T08:16:14Z</time></trkpt><trkpt lat="43.979791895408894" lon="10.549901962571239"><ele>94.0</ele><time>2026-05-02T08:16:15Z</time></trkpt><trkpt lat="43.979864330289715" lon="10.549983704050648"><ele>94.0</ele><time>2026-05-02T08:16:16Z</time></trkpt><trkpt lat="43.979934547836905" lon="10.550061825043542"><ele>94.0</ele><time>2026-05-02T08:16:17Z</time></trkpt><trkpt lat="43.979988203675184" lon="10.550124544236285"><ele>94.0</ele><time>2026-05-02T08:16:18Z</time></trkpt><trkpt lat="43.980067528611194" lon="10.550208428339408"><ele>93.5</ele><time>2026-05-02T08:16:20Z</time></trkpt><trkpt lat="43.98012090822062" lon="10.550274829717305"><ele>93.0</ele><time>2026-05-02T08:16:22Z</time></trkpt><trkpt lat="43.98018045653549" lon="10.550373114473468"><ele>92.5</ele><time>2026-05-02T08:16:24Z</time></trkpt><trkpt lat="43.98023174069543" lon="10.550424152942044"><ele>92.0</ele><time>2026-05-02T08:16:25Z</time></trkpt><trkpt lat="43.98030701385934" lon="10.550473277001329"><ele>91.5</ele><time>2026-05-02T08:16:26Z</time></trkpt><trkpt lat="43.98039832518824" lon="10.550484952266851"><ele>91.0</ele><time>2026-05-02T08:16:27Z</time></trkpt><trkpt lat="43.98049633938254" lon="10.550489755901259"><ele>91.0</ele><time>2026-05-02T08:16:27.999Z</time></trkpt><trkpt lat="43.98060572708433" lon="10.55050458371541"><ele>91.0</ele><time>2026-05-02T08:16:28.999Z</time></trkpt><trkpt lat="43.980726669270176" lon="10.550529273819512"><ele>91.0</ele><time>2026-05-02T08:16:29.999Z</time></trkpt><trkpt lat="43.98085898636422" lon="10.550559303574062"><ele>91.0</ele><time>2026-05-02T08:16:30.999Z</time></trkpt><trkpt lat="43.98099570104621" lon="10.550589185595618"><ele>91.33333333333333</ele><time>2026-05-02T08:16:31.999Z</time></trkpt><trkpt lat="43.98114075210852" lon="10.550625804054267"><ele>91.66666666666667</ele><time>2026-05-02T08:16:32.999Z</time></trkpt><trkpt lat="43.981291825554706" lon="10.550668031935267"><ele>92.0</ele><time>2026-05-02T08:16:33.999Z</time></trkpt><trkpt lat="43.98144631141509" lon="10.550711765051918"><ele>92.0</ele><time>2026-05-02T08:16:34.999Z</time></trkpt><trkpt lat="43.98160512831102" lon="10.550759647463083"><ele>92.0</ele><time>2026-05-02T08:16:35.999Z</time></trkpt><trkpt lat="43.981767754904475" lon="10.55081554345055"><ele>92.0</ele><time>2026-05-02T08:16:36.999Z</time></trkpt><trkpt lat="43.9819218732307" lon="10.550871056255204"><ele>94.33333333333334</ele><time>2026-05-02T08:16:37.999Z</time></trkpt><trkpt lat="43.98207830762247" lon="10.550930224481299"><ele>96.66666666666667</ele><time>2026-05-02T08:16:38.999Z</time></trkpt><trkpt lat="43.98223671720069" lon="10.550984844003917"><ele>99.0</ele><time>2026-05-02T08:16:39.999Z</time></trkpt><trkpt lat="43.9823983974941" lon="10.55103629780608"><ele>99.66666666666666</ele><time>2026-05-02T08:16:40.999Z</time></trkpt><trkpt lat="43.98256149663399" lon="10.551078695878381"><ele>100.33333333333333</ele><time>2026-05-02T08:16:41.999Z</time></trkpt><trkpt lat="43.98272772808151" lon="10.551095258958375"><ele>101.0</ele><time>2026-05-02T08:16:42.999Z</time></trkpt><trkpt lat="43.98289542040135" lon="10.551074161935913"><ele>101.0</ele><time>2026-05-02T08:16:43.999Z</time></trkpt><trkpt lat="43.98305844525838" lon="10.5510227427797"><ele>101.0</ele><time>2026-05-02T08:16:44.999Z</time></trkpt><trkpt lat="43.983214794380345" lon="10.550949784831854"><ele>101.0</ele><time>2026-05-02T08:16:45.999Z</time></trkpt><trkpt lat="43.983363895466084" lon="10.550876966252012"><ele>102.25</ele><time>2026-05-02T08:16:46.999Z</time></trkpt><trkpt lat="43.983509512328574" lon="10.550809952866505"><ele>103.5</ele><time>2026-05-02T08:16:47.999Z</time></trkpt><trkpt lat="43.983647862948686" lon="10.55076026923777"><ele>104.75</ele><time>2026-05-02T08:16:48.999Z</time></trkpt><trkpt lat="43.98378205900013" lon="10.550731840692876"><ele>106.0</ele><time>2026-05-02T08:16:49.999Z</time></trkpt><trkpt lat="43.98391507089612" lon="10.55073367819492"><ele>106.0</ele><time>2026-05-02T08:16:50.999Z</time></trkpt><trkpt lat="43.98405200278843" lon="10.550772405760473"><ele>106.0</ele><time>2026-05-02T08:16:51.999Z</time></trkpt><trkpt lat="43.98419060915028" lon="10.55083226615693"><ele>106.0</ele><time>2026-05-02T08:16:52.999Z</time></trkpt><trkpt lat="43.98432849755243" lon="10.550907870704247"><ele>106.0</ele><time>2026-05-02T08:16:53.999Z</time></trkpt><trkpt lat="43.98445111902603" lon="10.550989289377645"><ele>104.8</ele><time>2026-05-02T08:16:54.999Z</time></trkpt><trkpt lat="43.98455725429966" lon="10.551059592924787"><ele>103.6</ele><time>2026-05-02T08:16:55.999Z</time></trkpt><trkpt lat="43.98464762324103" lon="10.55111522287004"><ele>102.4</ele><time>2026-05-02T08:16:56.999Z</time></trkpt><trkpt lat="43.984717647663054" lon="10.551156747692373"><ele>101.2</ele><time>2026-05-02T08:16:57.999Z</time></trkpt><trkpt lat="43.984812537813156" lon="10.551207654501347"><ele>100.0</ele><time>2026-05-02T08:16:59.999Z</time></trkpt><trkpt lat="43.98490018441713" lon="10.551255723531627"><ele>100.00000000000001</ele><time>2026-05-02T08:17:01.999Z</time></trkpt><trkpt lat="43.98496687057105" lon="10.551278495991584"><ele>100.0</ele><time>2026-05-02T08:17:03.999Z</time></trkpt><trkpt lat="43.985037646867" lon="10.551277138429725"><ele>100.0</ele><time>2026-05-02T08:17:06.999Z</time></trkpt><trkpt lat="43.98512428577521" lon="10.551297423197694"><ele>100.0</ele><time>2026-05-02T08:17:10.999Z</time></trkpt><trkpt lat="43.9852500758884" lon="10.55126822336352"><ele>100.00000000000001</ele><time>2026-05-02T08:17:12.999Z</time></trkpt><trkpt lat="43.98534073548869" lon="10.551260331991854"><ele>100.0</ele><time>2026-05-02T08:17:13.999Z</time></trkpt><trkpt lat="43.98542530107525" lon="10.551251494219265"><ele>99.83333333333334</ele><time>2026-05-02T08:17:14.999Z</time></trkpt><trkpt lat="43.98549937021479" lon="10.5512394766857"><ele>99.66666666666667</ele><time>2026-05-02T08:17:16.001Z</time></trkpt><trkpt lat="43.98556462703612" lon="10.551230668046975"><ele>99.5</ele><time>2026-05-02T08:17:17.001Z</time></trkpt><trkpt lat="43.98563604792419" lon="10.551227088538239"><ele>99.33333333333334</ele><time>2026-05-02T08:17:18.001Z</time></trkpt><trkpt lat="43.98571917197195" lon="10.551231225157906"><ele>99.16666666666667</ele><time>2026-05-02T08:17:19.001Z</time></trkpt><trkpt lat="43.98581023780323" lon="10.551238673063226"><ele>99.0</ele><time>2026-05-02T08:17:20.001Z</time></trkpt><trkpt lat="43.985905699315154" lon="10.55124892006503"><ele>99.4</ele><time>2026-05-02T08:17:21.001Z</time></trkpt><trkpt lat="43.98600545696699" lon="10.551264941222248"><ele>99.80000000000001</ele><time>2026-05-02T08:17:22.001Z</time></trkpt><trkpt lat="43.986105394692274" lon="10.551285088727264"><ele>100.19999999999999</ele><time>2026-05-02T08:17:23.001Z</time></trkpt><trkpt lat="43.98620310407932" lon="10.551313935145375"><ele>100.6</ele><time>2026-05-02T08:17:24.001Z</time></trkpt><trkpt lat="43.986293876316445" lon="10.55135140487443"><ele>101.0</ele><time>2026-05-02T08:17:25.001Z</time></trkpt><trkpt lat="43.98637581344216" lon="10.551390970442919"><ele>101.0</ele><time>2026-05-02T08:17:26.001Z</time></trkpt><trkpt lat="43.9864627453222" lon="10.551427171157291"><ele>101.0</ele><time>2026-05-02T08:17:27.001Z</time></trkpt><trkpt lat="43.98656131332456" lon="10.551470800505664"><ele>101.0</ele><time>2026-05-02T08:17:28.001Z</time></trkpt><trkpt lat="43.98666806441108" lon="10.55151827685848"><ele>101.0</ele><time>2026-05-02T08:17:29.001Z</time></trkpt><trkpt lat="43.98678231741308" lon="10.551571602074867"><ele>101.0</ele><time>2026-05-02T08:17:30.001Z</time></trkpt><trkpt lat="43.986902599941175" lon="10.551627330981285"><ele>103.5</ele><time>2026-05-02T08:17:31.001Z</time></trkpt><trkpt lat="43.98702666331436" lon="10.551685744060988"><ele>106.0</ele><time>2026-05-02T08:17:32.001Z</time></trkpt><trkpt lat="43.98714850044374" lon="10.551742519337509"><ele>108.5</ele><time>2026-05-02T08:17:33.001Z</time></trkpt><trkpt lat="43.98727458525053" lon="10.551794811599644"><ele>111.0</ele><time>2026-05-02T08:17:34.001Z</time></trkpt><trkpt lat="43.98740613602024" lon="10.5518397149705"><ele>113.75</ele><time>2026-05-02T08:17:35.001Z</time></trkpt><trkpt lat="43.98754272914794" lon="10.551872661498196"><ele>116.5</ele><time>2026-05-02T08:17:36Z</time></trkpt><trkpt lat="43.9876848143118" lon="10.551894413882161"><ele>119.25</ele><time>2026-05-02T08:17:37Z</time></trkpt><trkpt lat="43.98782914971811" lon="10.55190505290624"><ele>122.0</ele><time>2026-05-02T08:17:38Z</time></trkpt><trkpt lat="43.98797770432681" lon="10.55191315922655"><ele>122.0</ele><time>2026-05-02T08:17:39Z</time></trkpt><trkpt lat="43.988128623017445" lon="10.55191543513003"><ele>122.0</ele><time>2026-05-02T08:17:40Z</time></trkpt><trkpt lat="43.98828297973494" lon="10.551915944412874"><ele>122.0</ele><time>2026-05-02T08:17:41Z</time></trkpt><trkpt lat="43.98843973858602" lon="10.551914959152725"><ele>122.33333333333333</ele><time>2026-05-02T08:17:42Z</time></trkpt><trkpt lat="43.98859821423412" lon="10.55191752357671"><ele>122.66666666666666</ele><time>2026-05-02T08:17:43Z</time></trkpt><trkpt lat="43.98875741588315" lon="10.551920029703801"><ele>123.0</ele><time>2026-05-02T08:17:44Z</time></trkpt><trkpt lat="43.98891679044198" lon="10.551924609745274"><ele>123.0</ele><time>2026-05-02T08:17:45Z</time></trkpt><trkpt lat="43.989077313063866" lon="10.551927331551802"><ele>123.0</ele><time>2026-05-02T08:17:46Z</time></trkpt><trkpt lat="43.989239586357215" lon="10.55193229001821"><ele>123.0</ele><time>2026-05-02T08:17:47Z</time></trkpt><trkpt lat="43.98939963323991" lon="10.551937907934251"><ele>123.0</ele><time>2026-05-02T08:17:48Z</time></trkpt><trkpt lat="43.98956002243289" lon="10.551946383151247"><ele>123.0</ele><time>2026-05-02T08:17:49Z</time></trkpt><trkpt lat="43.9897175291895" lon="10.551954487848965"><ele>123.0</ele><time>2026-05-02T08:17:50Z</time></trkpt><trkpt lat="43.98987696059056" lon="10.551965855337267"><ele>124.33333333333334</ele><time>2026-05-02T08:17:51Z</time></trkpt><trkpt lat="43.99003627124692" lon="10.551981606048495"><ele>125.66666666666667</ele><time>2026-05-02T08:17:52Z</time></trkpt><trkpt lat="43.990193511121724" lon="10.551997575543345"><ele>127.0</ele><time>2026-05-02T08:17:53Z</time></trkpt><trkpt lat="43.99035510417464" lon="10.552013302224214"><ele>127.0</ele><time>2026-05-02T08:17:54Z</time></trkpt><trkpt lat="43.99051529027204" lon="10.552027892061982"><ele>127.0</ele><time>2026-05-02T08:17:55Z</time></trkpt><trkpt lat="43.99067577541876" lon="10.552048198638312"><ele>127.0</ele><time>2026-05-02T08:17:56Z</time></trkpt><trkpt lat="43.99083634494296" lon="10.552074989710011"><ele>117.66666666666667</ele><time>2026-05-02T08:17:57Z</time></trkpt><trkpt lat="43.99099673427645" lon="10.552106292482724"><ele>108.33333333333334</ele><time>2026-05-02T08:17:58Z</time></trkpt><trkpt lat="43.991157030154284" lon="10.552137539419336"><ele>99.0</ele><time>2026-05-02T08:17:59Z</time></trkpt><trkpt lat="43.99131757063366" lon="10.552171166766206"><ele>99.0</ele><time>2026-05-02T08:18:00Z</time></trkpt><trkpt lat="43.99148077194024" lon="10.552209995861904"><ele>99.0</ele><time>2026-05-02T08:18:01Z</time></trkpt><trkpt lat="43.9916422685089" lon="10.552248304608746"><ele>99.0</ele><time>2026-05-02T08:18:02Z</time></trkpt><trkpt lat="43.99180272537158" lon="10.552285568022258"><ele>100.66666666666666</ele><time>2026-05-02T08:18:03Z</time></trkpt><trkpt lat="43.99196183203684" lon="10.55231941995531"><ele>102.33333333333333</ele><time>2026-05-02T08:18:04Z</time></trkpt><trkpt lat="43.992122652456445" lon="10.552358302588248"><ele>104.0</ele><time>2026-05-02T08:18:05Z</time></trkpt><trkpt lat="43.992279984193765" lon="10.55239811013981"><ele>104.0</ele><time>2026-05-02T08:18:06Z</time></trkpt><trkpt lat="43.992441077733545" lon="10.552437883758634"><ele>104.0</ele><time>2026-05-02T08:18:07Z</time></trkpt><trkpt lat="43.992599793390895" lon="10.552475265203244"><ele>104.0</ele><time>2026-05-02T08:18:08Z</time></trkpt><trkpt lat="43.99276154011657" lon="10.552520977989902"><ele>106.33333333333333</ele><time>2026-05-02T08:18:09Z</time></trkpt><trkpt lat="43.99292328031741" lon="10.552558761375469"><ele>108.66666666666666</ele><time>2026-05-02T08:18:10Z</time></trkpt><trkpt lat="43.9930885703254" lon="10.552594180890948"><ele>111.0</ele><time>2026-05-02T08:18:11Z</time></trkpt><trkpt lat="43.99325250228738" lon="10.55262917990736"><ele>117.0</ele><time>2026-05-02T08:18:12Z</time></trkpt><trkpt lat="43.993416787590306" lon="10.552666741426881"><ele>123.0</ele><time>2026-05-02T08:18:13Z</time></trkpt><trkpt lat="43.993581440752074" lon="10.55270530974956"><ele>129.0</ele><time>2026-05-02T08:18:14Z</time></trkpt><trkpt lat="43.99374395238223" lon="10.552742406242931"><ele>129.0</ele><time>2026-05-02T08:18:15Z</time></trkpt><trkpt lat="43.99391109190679" lon="10.552781574610805"><ele>129.0</ele><time>2026-05-02T08:18:16Z</time></trkpt><trkpt lat="43.994077609003455" lon="10.552816413736462"><ele>129.0</ele><time>2026-05-02T08:18:17Z</time></trkpt><trkpt lat="43.99423884898619" lon="10.552833940876226"><ele>130.66666666666666</ele><time>2026-05-02T08:18:18Z</time></trkpt><trkpt lat="43.994412574418526" lon="10.552829751202735"><ele>132.33333333333331</ele><time>2026-05-02T08:18:19Z</time></trkpt><trkpt lat="43.99459370871385" lon="10.552830440984973"><ele>134.0</ele><time>2026-05-02T08:18:20Z</time></trkpt><trkpt lat="43.994747868921095" lon="10.552881394407429"><ele>123.0</ele><time>2026-05-02T08:18:21Z</time></trkpt><trkpt lat="43.994913929725435" lon="10.5529083374608"><ele>112.0</ele><time>2026-05-02T08:18:22Z</time></trkpt><trkpt lat="43.99508411547156" lon="10.552924404253442"><ele>101.0</ele><time>2026-05-02T08:18:23Z</time></trkpt><trkpt lat="43.99525721871836" lon="10.55293723077879"><ele>101.0</ele><time>2026-05-02T08:18:24Z</time></trkpt><trkpt lat="43.99542795703203" lon="10.552945425195205"><ele>101.0</ele><time>2026-05-02T08:18:25Z</time></trkpt><trkpt lat="43.995598268565956" lon="10.552957857911753"><ele>101.0</ele><time>2026-05-02T08:18:26Z</time></trkpt><trkpt lat="43.99576892524387" lon="10.552972976228318"><ele>102.66666666666666</ele><time>2026-05-02T08:18:27Z</time></trkpt><trkpt lat="43.99593912701216" lon="10.552986302368002"><ele>104.33333333333334</ele><time>2026-05-02T08:18:28Z</time></trkpt><trkpt lat="43.996108830916285" lon="10.55300125859168"><ele>106.0</ele><time>2026-05-02T08:18:29Z</time></trkpt><trkpt lat="43.99627169668771" lon="10.55300930288602"><ele>106.0</ele><time>2026-05-02T08:18:30Z</time></trkpt><trkpt lat="43.996417375361716" lon="10.553021055191127"><ele>106.0</ele><time>2026-05-02T08:18:31Z</time></trkpt><trkpt lat="43.996555806574726" lon="10.553034542263397"><ele>106.0</ele><time>2026-05-02T08:18:32Z</time></trkpt><trkpt lat="43.996689501693986" lon="10.553041652818763"><ele>106.0</ele><time>2026-05-02T08:18:33Z</time></trkpt><trkpt lat="43.996818393661" lon="10.553039027990085"><ele>105.0</ele><time>2026-05-02T08:18:34Z</time></trkpt><trkpt lat="43.996948290933524" lon="10.553027459252673"><ele>104.0</ele><time>2026-05-02T08:18:34.999Z</time></trkpt><trkpt lat="43.997079740960544" lon="10.55300685567447"><ele>103.0</ele><time>2026-05-02T08:18:35.999Z</time></trkpt><trkpt lat="43.99721316205278" lon="10.552972686399405"><ele>102.0</ele><time>2026-05-02T08:18:36.999Z</time></trkpt><trkpt lat="43.99735147315102" lon="10.552929531113943"><ele>102.0</ele><time>2026-05-02T08:18:37.999Z</time></trkpt><trkpt lat="43.99749231167103" lon="10.55288157785931"><ele>102.0</ele><time>2026-05-02T08:18:38.999Z</time></trkpt><trkpt lat="43.997636349402256" lon="10.552832957408116"><ele>102.0</ele><time>2026-05-02T08:18:39.999Z</time></trkpt><trkpt lat="43.99778108930281" lon="10.552785400832311"><ele>102.0</ele><time>2026-05-02T08:18:40.999Z</time></trkpt><trkpt lat="43.9979316088295" lon="10.552736583496417"><ele>104.0</ele><time>2026-05-02T08:18:41.999Z</time></trkpt><trkpt lat="43.998082534053864" lon="10.552686129585041"><ele>106.0</ele><time>2026-05-02T08:18:42.999Z</time></trkpt><trkpt lat="43.9982371092026" lon="10.55263504971775"><ele>108.0</ele><time>2026-05-02T08:18:43.999Z</time></trkpt><trkpt lat="43.998392013191925" lon="10.552582532765802"><ele>108.0</ele><time>2026-05-02T08:18:44.999Z</time></trkpt><trkpt lat="43.99853843961858" lon="10.552534333997054"><ele>108.0</ele><time>2026-05-02T08:18:45.999Z</time></trkpt><trkpt lat="43.998678168101065" lon="10.552486190502748"><ele>108.0</ele><time>2026-05-02T08:18:46.999Z</time></trkpt><trkpt lat="43.99881706210074" lon="10.552440533617421"><ele>108.0</ele><time>2026-05-02T08:18:47.999Z</time></trkpt><trkpt lat="43.99895553791351" lon="10.552390622873634"><ele>108.0</ele><time>2026-05-02T08:18:49Z</time></trkpt><trkpt lat="43.99909089020387" lon="10.5523375756558"><ele>108.0</ele><time>2026-05-02T08:18:49.999Z</time></trkpt><trkpt lat="43.99922266824952" lon="10.552273891547872"><ele>108.0</ele><time>2026-05-02T08:18:50.999Z</time></trkpt><trkpt lat="43.99934931843828" lon="10.552188797139495"><ele>108.0</ele><time>2026-05-02T08:18:51.999Z</time></trkpt><trkpt lat="43.99946776326605" lon="10.552081209236986"><ele>109.0</ele><time>2026-05-02T08:18:52.999Z</time></trkpt><trkpt lat="43.999587356206234" lon="10.551956821392626"><ele>110.0</ele><time>2026-05-02T08:18:53.999Z</time></trkpt><trkpt lat="43.99970061165675" lon="10.551819357308835"><ele>111.0</ele><time>2026-05-02T08:18:54.999Z</time></trkpt><trkpt lat="43.99981039104443" lon="10.551671971049377"><ele>111.0</ele><time>2026-05-02T08:18:55.999Z</time></trkpt><trkpt lat="43.99992226608616" lon="10.551519676470953"><ele>111.0</ele><time>2026-05-02T08:18:56.999Z</time></trkpt><trkpt lat="44.00003588917617" lon="10.551364466472524"><ele>111.0</ele><time>2026-05-02T08:18:57.999Z</time></trkpt><trkpt lat="44.00014971172992" lon="10.551210292949294"><ele>119.0</ele><time>2026-05-02T08:18:58.999Z</time></trkpt><trkpt lat="44.00026202689174" lon="10.55105792893566"><ele>127.0</ele><time>2026-05-02T08:18:59.999Z</time></trkpt><trkpt lat="44.0003759498451" lon="10.550903173226258"><ele>135.0</ele><time>2026-05-02T08:19:00.999Z</time></trkpt><trkpt lat="44.000492509861616" lon="10.550746574670692"><ele>135.0</ele><time>2026-05-02T08:19:01.999Z</time></trkpt><trkpt lat="44.00060842095465" lon="10.55059483005592"><ele>135.0</ele><time>2026-05-02T08:19:02.999Z</time></trkpt><trkpt lat="44.00073174160466" lon="10.550447434638379"><ele>135.0</ele><time>2026-05-02T08:19:03.999Z</time></trkpt><trkpt lat="44.00085872772025" lon="10.550315412261611"><ele>128.66666666666666</ele><time>2026-05-02T08:19:04.999Z</time></trkpt><trkpt lat="44.00099396920745" lon="10.550199998136195"><ele>122.33333333333333</ele><time>2026-05-02T08:19:05.999Z</time></trkpt><trkpt lat="44.00113423853066" lon="10.550100368210225"><ele>116.0</ele><time>2026-05-02T08:19:06.999Z</time></trkpt><trkpt lat="44.00127873022192" lon="10.550017807308095"><ele>116.0</ele><time>2026-05-02T08:19:07.999Z</time></trkpt><trkpt lat="44.0014293294709" lon="10.549950430702822"><ele>116.0</ele><time>2026-05-02T08:19:08.999Z</time></trkpt><trkpt lat="44.001584093850106" lon="10.549905975134896"><ele>116.0</ele><time>2026-05-02T08:19:09.999Z</time></trkpt><trkpt lat="44.00173895315554" lon="10.549864106919838"><ele>113.25</ele><time>2026-05-02T08:19:10.999Z</time></trkpt><trkpt lat="44.00189246159479" lon="10.549823660160015"><ele>110.5</ele><time>2026-05-02T08:19:11.999Z</time></trkpt><trkpt lat="44.00204078881126" lon="10.549790415031204"><ele>107.75</ele><time>2026-05-02T08:19:12.999Z</time></trkpt><trkpt lat="44.002181080856985" lon="10.549769661737717"><ele>105.0</ele><time>2026-05-02T08:19:13.999Z</time></trkpt><trkpt lat="44.0023186617997" lon="10.549757587651026"><ele>105.0</ele><time>2026-05-02T08:19:14.999Z</time></trkpt><trkpt lat="44.002448425659274" lon="10.549748281730343"><ele>105.0</ele><time>2026-05-02T08:19:15.999Z</time></trkpt><trkpt lat="44.00256507947307" lon="10.549740109486361"><ele>105.0</ele><time>2026-05-02T08:19:16.999Z</time></trkpt><trkpt lat="44.002676400698725" lon="10.549735800120281"><ele>105.0</ele><time>2026-05-02T08:19:17.999Z</time></trkpt><trkpt lat="44.002786197580065" lon="10.549737151033941"><ele>104.2</ele><time>2026-05-02T08:19:18.999Z</time></trkpt><trkpt lat="44.00289439752053" lon="10.549737985192543"><ele>103.4</ele><time>2026-05-02T08:19:19.999Z</time></trkpt><trkpt lat="44.0029961030219" lon="10.549731088143837"><ele>102.6</ele><time>2026-05-02T08:19:20.999Z</time></trkpt><trkpt lat="44.00309231175238" lon="10.549689586406874"><ele>101.8</ele><time>2026-05-02T08:19:22.001Z</time></trkpt><trkpt lat="44.00318151634752" lon="10.549701444025915"><ele>101.0</ele><time>2026-05-02T08:19:23.001Z</time></trkpt><trkpt lat="44.00325951198295" lon="10.54967150789682"><ele>101.0</ele><time>2026-05-02T08:19:24.001Z</time></trkpt><trkpt lat="44.00331887101211" lon="10.549613957046242"><ele>101.0</ele><time>2026-05-02T08:19:25.001Z</time></trkpt><trkpt lat="44.00336107920944" lon="10.549466673398639"><ele>101.0</ele><time>2026-05-02T08:19:27.001Z</time></trkpt><trkpt lat="44.00331528821382" lon="10.549279461290892"><ele>101.0</ele><time>2026-05-02T08:19:29.001Z</time></trkpt><trkpt lat="44.003275673847874" lon="10.549160453269565"><ele>101.0</ele><time>2026-05-02T08:19:30.001Z</time></trkpt><trkpt lat="44.00323418454672" lon="10.549032515503153"><ele>102.0</ele><time>2026-05-02T08:19:31.001Z</time></trkpt><trkpt lat="44.003197687713154" lon="10.548908761782"><ele>103.0</ele><time>2026-05-02T08:19:32.001Z</time></trkpt><trkpt lat="44.00316152604678" lon="10.548784395527376"><ele>104.0</ele><time>2026-05-02T08:19:33.001Z</time></trkpt><trkpt lat="44.0031175076038" lon="10.548658566920352"><ele>105.0</ele><time>2026-05-02T08:19:34.001Z</time></trkpt><trkpt lat="44.00306822076747" lon="10.548528605489278"><ele>106.0</ele><time>2026-05-02T08:19:35.001Z</time></trkpt><trkpt lat="44.00301844957815" lon="10.548395999721963"><ele>106.6</ele><time>2026-05-02T08:19:36.001Z</time></trkpt><trkpt lat="44.00296829776564" lon="10.548262248709563"><ele>107.19999999999999</ele><time>2026-05-02T08:19:37.001Z</time></trkpt><trkpt lat="44.0029195646335" lon="10.548126068650948"><ele>107.80000000000001</ele><time>2026-05-02T08:19:38.001Z</time></trkpt><trkpt lat="44.00287049166227" lon="10.54799291418889"><ele>108.4</ele><time>2026-05-02T08:19:39.001Z</time></trkpt><trkpt lat="44.0028206605024" lon="10.547867459458999"><ele>109.0</ele><time>2026-05-02T08:19:40.001Z</time></trkpt><trkpt lat="44.00275307742529" lon="10.54776706786702"><ele>109.83333333333334</ele><time>2026-05-02T08:19:41.001Z</time></trkpt><trkpt lat="44.002702761936646" lon="10.547672722928851"><ele>110.66666666666667</ele><time>2026-05-02T08:19:42Z</time></trkpt><trkpt lat="44.002671717810365" lon="10.547587658254175"><ele>111.5</ele><time>2026-05-02T08:19:43Z</time></trkpt><trkpt lat="44.002621933182844" lon="10.54751178943611"><ele>112.33333333333334</ele><time>2026-05-02T08:19:45Z</time></trkpt><trkpt lat="44.00267068301791" lon="10.547336488127778"><ele>113.16666666666667</ele><time>2026-05-02T08:22:02.999Z</time></trkpt><trkpt lat="44.0027350703925" lon="10.547279074927102"><ele>114.0</ele><time>2026-05-02T08:22:03.999Z</time></trkpt><trkpt lat="44.002805096943426" lon="10.54721122994004"><ele>114.0</ele><time>2026-05-02T08:22:04.999Z</time></trkpt><trkpt lat="44.002889435554586" lon="10.54713884124602"><ele>114.0</ele><time>2026-05-02T08:22:05.999Z</time></trkpt><trkpt lat="44.00298714413433" lon="10.547064803026466"><ele>114.0</ele><time>2026-05-02T08:22:06.999Z</time></trkpt><trkpt lat="44.00309345634775" lon="10.546982398687193"><ele>114.0</ele><time>2026-05-02T08:22:07.999Z</time></trkpt><trkpt lat="44.00319767841453" lon="10.546894404460797"><ele>114.25</ele><time>2026-05-02T08:22:08.999Z</time></trkpt><trkpt lat="44.003307081160855" lon="10.546801877608225"><ele>114.5</ele><time>2026-05-02T08:22:09.999Z</time></trkpt><trkpt lat="44.00341567512711" lon="10.546706337208018"><ele>114.75</ele><time>2026-05-02T08:22:10.999Z</time></trkpt><trkpt lat="44.00352700030144" lon="10.546611698197053"><ele>115.0</ele><time>2026-05-02T08:22:11.999Z</time></trkpt><trkpt lat="44.00363759052808" lon="10.546515614463202"><ele>115.0</ele><time>2026-05-02T08:22:12.999Z</time></trkpt><trkpt lat="44.00374360726247" lon="10.546416877880029"><ele>115.0</ele><time>2026-05-02T08:22:13.999Z</time></trkpt><trkpt lat="44.00385015982168" lon="10.546312079160145"><ele>115.0</ele><time>2026-05-02T08:22:14.999Z</time></trkpt><trkpt lat="44.003957746858774" lon="10.546205285021424"><ele>115.0</ele><time>2026-05-02T08:22:15.999Z</time></trkpt><trkpt lat="44.00406427058294" lon="10.546101224619703"><ele>115.0</ele><time>2026-05-02T08:22:16.999Z</time></trkpt><trkpt lat="44.004162352206166" lon="10.546012827066182"><ele>115.0</ele><time>2026-05-02T08:22:17.999Z</time></trkpt><trkpt lat="44.00425870479743" lon="10.545937619697119"><ele>115.0</ele><time>2026-05-02T08:22:18.999Z</time></trkpt><trkpt lat="44.00435772983109" lon="10.545860874289964"><ele>115.0</ele><time>2026-05-02T08:22:19.999Z</time></trkpt><trkpt lat="44.004456138245146" lon="10.545779288098485"><ele>114.6</ele><time>2026-05-02T08:22:20.999Z</time></trkpt><trkpt lat="44.004556859236395" lon="10.545703033586797"><ele>114.2</ele><time>2026-05-02T08:22:21.999Z</time></trkpt><trkpt lat="44.004653730103" lon="10.545630001518447"><ele>113.80000000000001</ele><time>2026-05-02T08:22:22.998Z</time></trkpt><trkpt lat="44.00474406470227" lon="10.545549373662695"><ele>113.4</ele><time>2026-05-02T08:22:23.998Z</time></trkpt><trkpt lat="44.004827958037396" lon="10.545474868671842"><ele>113.0</ele><time>2026-05-02T08:22:24.998Z</time></trkpt><trkpt lat="44.00489632333161" lon="10.545417240608796"><ele>113.0</ele><time>2026-05-02T08:22:25.998Z</time></trkpt><trkpt lat="44.00496248798851" lon="10.545358998377974"><ele>113.00000000000001</ele><time>2026-05-02T08:22:26.998Z</time></trkpt><trkpt lat="44.005033716760124" lon="10.54530236794778"><ele>113.00000000000001</ele><time>2026-05-02T08:22:27.998Z</time></trkpt><trkpt lat="44.00511789808879" lon="10.54523909708192"><ele>113.0</ele><time>2026-05-02T08:22:28.998Z</time></trkpt><trkpt lat="44.0052094765794" lon="10.545169167094464"><ele>113.0</ele><time>2026-05-02T08:22:29.998Z</time></trkpt><trkpt lat="44.005308763540846" lon="10.545092634025481"><ele>113.0</ele><time>2026-05-02T08:22:30.998Z</time></trkpt><trkpt lat="44.005410353852525" lon="10.545021764677541"><ele>113.00000000000001</ele><time>2026-05-02T08:22:31.998Z</time></trkpt><trkpt lat="44.00551113288423" lon="10.544951979472556"><ele>113.00000000000001</ele><time>2026-05-02T08:22:32.998Z</time></trkpt><trkpt lat="44.00561563052535" lon="10.544884140943076"><ele>113.0</ele><time>2026-05-02T08:22:33.998Z</time></trkpt><trkpt lat="44.00571281500341" lon="10.544818911786576"><ele>113.0</ele><time>2026-05-02T08:22:34.998Z</time></trkpt><trkpt lat="44.005801852900106" lon="10.544754023546007"><ele>113.2</ele><time>2026-05-02T08:22:35.998Z</time></trkpt><trkpt lat="44.00588982901965" lon="10.544684822612705"><ele>113.4</ele><time>2026-05-02T08:22:36.998Z</time></trkpt><trkpt lat="44.00598005346919" lon="10.544622095888114"><ele>113.60000000000001</ele><time>2026-05-02T08:22:37.998Z</time></trkpt><trkpt lat="44.00606660145121" lon="10.544562595876"><ele>113.80000000000001</ele><time>2026-05-02T08:22:38.998Z</time></trkpt><trkpt lat="44.00614972622707" lon="10.54448976484572"><ele>114.0</ele><time>2026-05-02T08:22:39.998Z</time></trkpt><trkpt lat="44.00623610800685" lon="10.544426381253674"><ele>114.80000000000001</ele><time>2026-05-02T08:22:40.998Z</time></trkpt><trkpt lat="44.00632505905728" lon="10.544366449904762"><ele>115.60000000000001</ele><time>2026-05-02T08:22:41.998Z</time></trkpt><trkpt lat="44.00641460012188" lon="10.544303439705347"><ele>116.4</ele><time>2026-05-02T08:22:42.998Z</time></trkpt><trkpt lat="44.00651163243299" lon="10.544235716764474"><ele>117.2</ele><time>2026-05-02T08:22:43.998Z</time></trkpt><trkpt lat="44.00661210559122" lon="10.544161185482658"><ele>118.0</ele><time>2026-05-02T08:22:44.998Z</time></trkpt><trkpt lat="44.00671972873659" lon="10.544083829865217"><ele>118.0</ele><time>2026-05-02T08:22:45.998Z</time></trkpt><trkpt lat="44.00682810349414" lon="10.543999054570186"><ele>118.0</ele><time>2026-05-02T08:22:46.998Z</time></trkpt><trkpt lat="44.00693853468301" lon="10.543900465125526"><ele>118.0</ele><time>2026-05-02T08:22:47.998Z</time></trkpt><trkpt lat="44.007049331162456" lon="10.543793840796802"><ele>118.0</ele><time>2026-05-02T08:22:48.998Z</time></trkpt><trkpt lat="44.00716473591578" lon="10.543690703862099"><ele>117.75</ele><time>2026-05-02T08:22:49.998Z</time></trkpt><trkpt lat="44.007281305042746" lon="10.543594886140705"><ele>117.5</ele><time>2026-05-02T08:22:50.998Z</time></trkpt><trkpt lat="44.00739817158526" lon="10.543499858522798"><ele>117.25</ele><time>2026-05-02T08:22:51.998Z</time></trkpt><trkpt lat="44.00750319992726" lon="10.543415530196551"><ele>117.0</ele><time>2026-05-02T08:22:52.998Z</time></trkpt><trkpt lat="44.00759899526437" lon="10.543339940513269"><ele>117.0</ele><time>2026-05-02T08:22:53.998Z</time></trkpt><trkpt lat="44.00767231777138" lon="10.543279210736605"><ele>116.99999999999999</ele><time>2026-05-02T08:22:54.998Z</time></trkpt><trkpt lat="44.00774247114372" lon="10.543246499798906"><ele>116.99999999999999</ele><time>2026-05-02T08:22:56.998Z</time></trkpt><trkpt lat="44.00765968816868" lon="10.543319975102863"><ele>117.0</ele><time>2026-05-02T08:23:12.998Z</time></trkpt><trkpt lat="44.007689635874925" lon="10.54354052706376"><ele>117.0</ele><time>2026-05-02T08:23:13.998Z</time></trkpt><trkpt lat="44.007741343621966" lon="10.54364864945131"><ele>117.0</ele><time>2026-05-02T08:23:14.998Z</time></trkpt><trkpt lat="44.00781096652001" lon="10.543732952489169"><ele>117.0</ele><time>2026-05-02T08:23:15.998Z</time></trkpt><trkpt lat="44.00788846201372" lon="10.543780355759171"><ele>117.0</ele><time>2026-05-02T08:23:16.998Z</time></trkpt><trkpt lat="44.007973671603914" lon="10.543795152042108"><ele>117.0</ele><time>2026-05-02T08:23:17.998Z</time></trkpt><trkpt lat="44.00805408037074" lon="10.54377818025887"><ele>117.0</ele><time>2026-05-02T08:23:18.998Z</time></trkpt><trkpt lat="44.008129932722966" lon="10.54373868850136"><ele>117.0</ele><time>2026-05-02T08:23:19.998Z</time></trkpt><trkpt lat="44.008199185467454" lon="10.543697421625204"><ele>117.0</ele><time>2026-05-02T08:23:20.998Z</time></trkpt><trkpt lat="44.00826778344747" lon="10.543654282023205"><ele>116.99999999999999</ele><time>2026-05-02T08:23:21.998Z</time></trkpt><trkpt lat="44.00834836323342" lon="10.543604201486124"><ele>116.99999999999999</ele><time>2026-05-02T08:23:22.998Z</time></trkpt><trkpt lat="44.008435283046005" lon="10.543529767681473"><ele>117.0</ele><time>2026-05-02T08:23:23.998Z</time></trkpt><trkpt lat="44.00852126122967" lon="10.54342774128628"><ele>117.0</ele><time>2026-05-02T08:23:24.998Z</time></trkpt><trkpt lat="44.008612704933675" lon="10.543316373882774"><ele>115.75</ele><time>2026-05-02T08:23:25.998Z</time></trkpt><trkpt lat="44.00870981247776" lon="10.543194062115312"><ele>114.5</ele><time>2026-05-02T08:23:26.998Z</time></trkpt><trkpt lat="44.00881361265717" lon="10.543078137530063"><ele>113.25</ele><time>2026-05-02T08:23:27.998Z</time></trkpt><trkpt lat="44.00891678925126" lon="10.542990800438034"><ele>112.0</ele><time>2026-05-02T08:23:28.998Z</time></trkpt><trkpt lat="44.0090093585225" lon="10.542884037582251"><ele>112.25</ele><time>2026-05-02T08:23:29.998Z</time></trkpt><trkpt lat="44.00909709223003" lon="10.542764369722411"><ele>112.5</ele><time>2026-05-02T08:23:30.998Z</time></trkpt><trkpt lat="44.00912288280833" lon="10.54260392511207"><ele>112.75</ele><time>2026-05-02T08:23:31.998Z</time></trkpt><trkpt lat="44.00918727293903" lon="10.542473814009373"><ele>113.0</ele><time>2026-05-02T08:23:32.998Z</time></trkpt><trkpt lat="44.009273569463716" lon="10.542356276247247"><ele>113.0</ele><time>2026-05-02T08:23:33.998Z</time></trkpt><trkpt lat="44.00937835622029" lon="10.542248647954949"><ele>113.0</ele><time>2026-05-02T08:23:34.998Z</time></trkpt><trkpt lat="44.00948459842843" lon="10.54213828552341"><ele>113.0</ele><time>2026-05-02T08:23:35.998Z</time></trkpt><trkpt lat="44.009612605749204" lon="10.542038257233322"><ele>113.0</ele><time>2026-05-02T08:23:36.998Z</time></trkpt><trkpt lat="44.009765431231415" lon="10.541959500682815"><ele>115.0</ele><time>2026-05-02T08:23:37.998Z</time></trkpt><trkpt lat="44.00991332900316" lon="10.541835735903788"><ele>117.0</ele><time>2026-05-02T08:23:38.998Z</time></trkpt><trkpt lat="44.010120976413624" lon="10.5418243106595"><ele>119.0</ele><time>2026-05-02T08:23:39.998Z</time></trkpt><trkpt lat="44.01031720550783" lon="10.541768518012296"><ele>119.0</ele><time>2026-05-02T08:23:40.998Z</time></trkpt><trkpt lat="44.01052501421243" lon="10.541715048446767"><ele>119.0</ele><time>2026-05-02T08:23:41.998Z</time></trkpt><trkpt lat="44.0107401395941" lon="10.541654984453563"><ele>119.0</ele><time>2026-05-02T08:23:42.998Z</time></trkpt><trkpt lat="44.010963006774986" lon="10.54158870318832"><ele>119.0</ele><time>2026-05-02T08:23:43.998Z</time></trkpt><trkpt lat="44.01119397616235" lon="10.541525697378544"><ele>119.0</ele><time>2026-05-02T08:23:44.998Z</time></trkpt><trkpt lat="44.01142157309484" lon="10.541461259854522"><ele>119.0</ele><time>2026-05-02T08:23:45.998Z</time></trkpt><trkpt lat="44.0116496448882" lon="10.541396883832137"><ele>119.0</ele><time>2026-05-02T08:23:46.998Z</time></trkpt><trkpt lat="44.011874166273536" lon="10.54133285903328"><ele>119.5</ele><time>2026-05-02T08:23:47.998Z</time></trkpt><trkpt lat="44.01210214337046" lon="10.541264421436486"><ele>120.0</ele><time>2026-05-02T08:23:48.998Z</time></trkpt><trkpt lat="44.01232662568976" lon="10.541192740679596"><ele>124.0</ele><time>2026-05-02T08:23:49.998Z</time></trkpt><trkpt lat="44.01254606767676" lon="10.541114141391684"><ele>128.0</ele><time>2026-05-02T08:23:50.998Z</time></trkpt><trkpt lat="44.012766633975666" lon="10.541029978724088"><ele>128.0</ele><time>2026-05-02T08:23:51.998Z</time></trkpt><trkpt lat="44.0129838969019" lon="10.540941988916893"><ele>128.0</ele><time>2026-05-02T08:23:52.999Z</time></trkpt><trkpt lat="44.01320020324416" lon="10.540850952894584"><ele>126.33333333333333</ele><time>2026-05-02T08:23:53.999Z</time></trkpt><trkpt lat="44.01341248162715" lon="10.540756783135674"><ele>124.66666666666666</ele><time>2026-05-02T08:23:54.999Z</time></trkpt><trkpt lat="44.01362607628217" lon="10.540657637731456"><ele>123.0</ele><time>2026-05-02T08:23:55.999Z</time></trkpt><trkpt lat="44.01383710731478" lon="10.540554583187651"><ele>123.0</ele><time>2026-05-02T08:23:56.999Z</time></trkpt><trkpt lat="44.0140513822302" lon="10.540440771550646"><ele>123.0</ele><time>2026-05-02T08:23:57.999Z</time></trkpt><trkpt lat="44.0142622704009" lon="10.540325723567737"><ele>128.33333333333334</ele><time>2026-05-02T08:23:58.999Z</time></trkpt><trkpt lat="44.014471276621016" lon="10.540212869182653"><ele>133.66666666666669</ele><time>2026-05-02T08:23:59.999Z</time></trkpt><trkpt lat="44.01467892020277" lon="10.540105682039341"><ele>139.0</ele><time>2026-05-02T08:24:00.999Z</time></trkpt><trkpt lat="44.01489004267277" lon="10.54000284422048"><ele>133.66666666666669</ele><time>2026-05-02T08:24:01.999Z</time></trkpt><trkpt lat="44.01510100625931" lon="10.539898258332176"><ele>128.33333333333334</ele><time>2026-05-02T08:24:02.999Z</time></trkpt><trkpt lat="44.015312090510236" lon="10.53979368791008"><ele>123.0</ele><time>2026-05-02T08:24:03.999Z</time></trkpt><trkpt lat="44.015523964525364" lon="10.539687488734168"><ele>123.0</ele><time>2026-05-02T08:24:04.999Z</time></trkpt><trkpt lat="44.0157349730453" lon="10.539584911413817"><ele>123.0</ele><time>2026-05-02T08:24:05.999Z</time></trkpt><trkpt lat="44.015947354632566" lon="10.53949025093759"><ele>123.0</ele><time>2026-05-02T08:24:06.999Z</time></trkpt><trkpt lat="44.01616032053246" lon="10.53940608645282"><ele>140.5</ele><time>2026-05-02T08:24:07.999Z</time></trkpt><trkpt lat="44.01637890672247" lon="10.539328870605674"><ele>158.0</ele><time>2026-05-02T08:24:08.999Z</time></trkpt><trkpt lat="44.01660416734589" lon="10.539252898496274"><ele>150.0</ele><time>2026-05-02T08:24:09.999Z</time></trkpt><trkpt lat="44.016824429105604" lon="10.53917902425761"><ele>142.0</ele><time>2026-05-02T08:24:10.999Z</time></trkpt><trkpt lat="44.017043550940386" lon="10.539107027235213"><ele>142.0</ele><time>2026-05-02T08:24:11.999Z</time></trkpt><trkpt lat="44.0172569866756" lon="10.539035740902479"><ele>142.0</ele><time>2026-05-02T08:24:12.999Z</time></trkpt><trkpt lat="44.017465674432195" lon="10.538966953953272"><ele>142.0</ele><time>2026-05-02T08:24:13.999Z</time></trkpt><trkpt lat="44.017668504920685" lon="10.538895986223197"><ele>137.0</ele><time>2026-05-02T08:24:14.999Z</time></trkpt><trkpt lat="44.017867480427455" lon="10.538816933721698"><ele>132.0</ele><time>2026-05-02T08:24:15.999Z</time></trkpt><trkpt lat="44.01805682516326" lon="10.538717858904915"><ele>127.0</ele><time>2026-05-02T08:24:16.999Z</time></trkpt><trkpt lat="44.018241925677586" lon="10.538612072373592"><ele>131.0</ele><time>2026-05-02T08:24:17.999Z</time></trkpt><trkpt lat="44.018423774963374" lon="10.538491594990841"><ele>135.0</ele><time>2026-05-02T08:24:18.999Z</time></trkpt><trkpt lat="44.01859899583903" lon="10.538357535739497"><ele>139.0</ele><time>2026-05-02T08:24:19.999Z</time></trkpt><trkpt lat="44.01876699142112" lon="10.53821324033135"><ele>139.0</ele><time>2026-05-02T08:24:20.999Z</time></trkpt><trkpt lat="44.01892850467474" lon="10.538058194024327"><ele>139.0</ele><time>2026-05-02T08:24:21.999Z</time></trkpt><trkpt lat="44.01908350983726" lon="10.537893519410453"><ele>139.0</ele><time>2026-05-02T08:24:22.999Z</time></trkpt><trkpt lat="44.019227613882336" lon="10.537713960761685"><ele>137.66666666666669</ele><time>2026-05-02T08:24:23.998Z</time></trkpt><trkpt lat="44.019357165366856" lon="10.53752065468527"><ele>136.33333333333334</ele><time>2026-05-02T08:24:24.998Z</time></trkpt><trkpt lat="44.01947321621391" lon="10.537311847299854"><ele>135.0</ele><time>2026-05-02T08:24:25.998Z</time></trkpt><trkpt lat="44.01956920464452" lon="10.537091427091463"><ele>140.33333333333334</ele><time>2026-05-02T08:24:26.998Z</time></trkpt><trkpt lat="44.019646157758906" lon="10.53686384716569"><ele>145.66666666666669</ele><time>2026-05-02T08:24:27.998Z</time></trkpt><trkpt lat="44.019705633484534" lon="10.536626872321516"><ele>151.0</ele><time>2026-05-02T08:24:28.998Z</time></trkpt><trkpt lat="44.01974374928826" lon="10.536382467205032"><ele>154.66666666666669</ele><time>2026-05-02T08:24:29.998Z</time></trkpt><trkpt lat="44.01976404685541" lon="10.536131773549702"><ele>158.33333333333334</ele><time>2026-05-02T08:24:30.998Z</time></trkpt><trkpt lat="44.01976349638158" lon="10.535887634795019"><ele>162.0</ele><time>2026-05-02T08:24:31.998Z</time></trkpt><trkpt lat="44.019745725639" lon="10.535665389544656"><ele>162.0</ele><time>2026-05-02T08:24:32.998Z</time></trkpt><trkpt lat="44.01971376226302" lon="10.535454206374053"><ele>162.0</ele><time>2026-05-02T08:24:33.998Z</time></trkpt><trkpt lat="44.01966652592684" lon="10.535248785332795"><ele>162.0</ele><time>2026-05-02T08:24:34.998Z</time></trkpt><trkpt lat="44.01960620973458" lon="10.535045196808799"><ele>159.0</ele><time>2026-05-02T08:24:35.998Z</time></trkpt><trkpt lat="44.019531048424724" lon="10.53484260442077"><ele>156.0</ele><time>2026-05-02T08:24:36.998Z</time></trkpt><trkpt lat="44.019443335571104" lon="10.53464773493253"><ele>153.0</ele><time>2026-05-02T08:24:37.998Z</time></trkpt><trkpt lat="44.01934663977425" lon="10.534452424868935"><ele>148.33333333333334</ele><time>2026-05-02T08:24:38.998Z</time></trkpt><trkpt lat="44.019245876027696" lon="10.534251870505862"><ele>143.66666666666669</ele><time>2026-05-02T08:24:39.998Z</time></trkpt><trkpt lat="44.01914539434771" lon="10.53405315534528"><ele>139.0</ele><time>2026-05-02T08:24:40.998Z</time></trkpt><trkpt lat="44.01904396033623" lon="10.533854223770993"><ele>146.33333333333334</ele><time>2026-05-02T08:24:41.999Z</time></trkpt><trkpt lat="44.018942277936546" lon="10.533645836218845"><ele>153.66666666666666</ele><time>2026-05-02T08:24:42.998Z</time></trkpt><trkpt lat="44.01884131485431" lon="10.533431447316378"><ele>161.0</ele><time>2026-05-02T08:24:43.998Z</time></trkpt><trkpt lat="44.01874731914449" lon="10.533211709215198"><ele>161.0</ele><time>2026-05-02T08:24:44.998Z</time></trkpt><trkpt lat="44.01866632879513" lon="10.532993848649003"><ele>161.0</ele><time>2026-05-02T08:24:45.998Z</time></trkpt><trkpt lat="44.018593465335435" lon="10.532782672212143"><ele>161.0</ele><time>2026-05-02T08:24:46.998Z</time></trkpt><trkpt lat="44.01853082541182" lon="10.532567144695662"><ele>154.33333333333331</ele><time>2026-05-02T08:24:47.998Z</time></trkpt><trkpt lat="44.01847935572565" lon="10.532353473235297"><ele>147.66666666666666</ele><time>2026-05-02T08:24:48.998Z</time></trkpt><trkpt lat="44.01843362004869" lon="10.53214296322047"><ele>141.0</ele><time>2026-05-02T08:24:49.998Z</time></trkpt><trkpt lat="44.018388303612134" lon="10.53192896629639"><ele>140.25</ele><time>2026-05-02T08:24:50.998Z</time></trkpt><trkpt lat="44.01834484913233" lon="10.531724394321547"><ele>139.5</ele><time>2026-05-02T08:24:51.998Z</time></trkpt><trkpt lat="44.01830280618821" lon="10.531532604880868"><ele>138.75</ele><time>2026-05-02T08:24:52.998Z</time></trkpt><trkpt lat="44.01826026656268" lon="10.531339390386666"><ele>138.0</ele><time>2026-05-02T08:24:53.998Z</time></trkpt><trkpt lat="44.01821797828852" lon="10.531146944839529"><ele>135.25</ele><time>2026-05-02T08:24:54.998Z</time></trkpt><trkpt lat="44.01817467821829" lon="10.530951170861373"><ele>132.5</ele><time>2026-05-02T08:24:55.998Z</time></trkpt><trkpt lat="44.0181312698893" lon="10.530757050175257"><ele>129.75</ele><time>2026-05-02T08:24:56.998Z</time></trkpt><trkpt lat="44.01808387837599" lon="10.530556616929516"><ele>127.0</ele><time>2026-05-02T08:24:57.998Z</time></trkpt><trkpt lat="44.018037382750876" lon="10.530350249994692"><ele>126.66666666666667</ele><time>2026-05-02T08:24:58.998Z</time></trkpt><trkpt lat="44.01798879804431" lon="10.53013700898038"><ele>126.33333333333334</ele><time>2026-05-02T08:24:59.998Z</time></trkpt><trkpt lat="44.01794037327423" lon="10.529919738474577"><ele>126.0</ele><time>2026-05-02T08:25:00.998Z</time></trkpt><trkpt lat="44.01789211676223" lon="10.529696119271707"><ele>127.66666666666666</ele><time>2026-05-02T08:25:01.998Z</time></trkpt><trkpt lat="44.01784300194642" lon="10.529469180894251"><ele>129.33333333333331</ele><time>2026-05-02T08:25:02.998Z</time></trkpt><trkpt lat="44.017795760108214" lon="10.529243555718532"><ele>131.0</ele><time>2026-05-02T08:25:03.998Z</time></trkpt><trkpt lat="44.01774696686974" lon="10.529009444964148"><ele>131.0</ele><time>2026-05-02T08:25:04.998Z</time></trkpt><trkpt lat="44.01769677031696" lon="10.528775763332312"><ele>131.0</ele><time>2026-05-02T08:25:05.998Z</time></trkpt><trkpt lat="44.01764537306781" lon="10.5285489508495"><ele>131.0</ele><time>2026-05-02T08:25:06.998Z</time></trkpt><trkpt lat="44.0175948412195" lon="10.52832428323352"><ele>130.66666666666666</ele><time>2026-05-02T08:25:07.998Z</time></trkpt><trkpt lat="44.017544844684174" lon="10.528095083237412"><ele>130.33333333333334</ele><time>2026-05-02T08:25:08.998Z</time></trkpt><trkpt lat="44.01749539829511" lon="10.52786371912173"><ele>130.0</ele><time>2026-05-02T08:25:09.998Z</time></trkpt><trkpt lat="44.01744806715299" lon="10.527635521955657"><ele>130.33333333333334</ele><time>2026-05-02T08:25:10.998Z</time></trkpt><trkpt lat="44.01740164606467" lon="10.527407283452828"><ele>130.66666666666666</ele><time>2026-05-02T08:25:11.998Z</time></trkpt><trkpt lat="44.01735380612516" lon="10.527180101433299"><ele>131.0</ele><time>2026-05-02T08:25:12.998Z</time></trkpt><trkpt lat="44.01730601396143" lon="10.526949542578341"><ele>131.0</ele><time>2026-05-02T08:25:13.998Z</time></trkpt><trkpt lat="44.01725656242043" lon="10.526716148386686"><ele>131.0</ele><time>2026-05-02T08:25:14.998Z</time></trkpt><trkpt lat="44.01720501476119" lon="10.526480100504058"><ele>131.0</ele><time>2026-05-02T08:25:15.998Z</time></trkpt><trkpt lat="44.01715382786281" lon="10.526246468097051"><ele>132.33333333333331</ele><time>2026-05-02T08:25:16.998Z</time></trkpt><trkpt lat="44.017103040109525" lon="10.526011564937356"><ele>133.66666666666666</ele><time>2026-05-02T08:25:17.998Z</time></trkpt><trkpt lat="44.01705445562832" lon="10.525779446876376"><ele>135.0</ele><time>2026-05-02T08:25:18.998Z</time></trkpt><trkpt lat="44.01700950898713" lon="10.52554458141141"><ele>136.66666666666666</ele><time>2026-05-02T08:25:19.998Z</time></trkpt><trkpt lat="44.01696840097386" lon="10.525309822230145"><ele>138.33333333333331</ele><time>2026-05-02T08:25:20.998Z</time></trkpt><trkpt lat="44.01693233021163" lon="10.525072668346253"><ele>140.0</ele><time>2026-05-02T08:25:21.998Z</time></trkpt><trkpt lat="44.01690350283971" lon="10.524829119606222"><ele>140.0</ele><time>2026-05-02T08:25:22.998Z</time></trkpt><trkpt lat="44.01688150027272" lon="10.524580817545466"><ele>140.0</ele><time>2026-05-02T08:25:23.998Z</time></trkpt><trkpt lat="44.01686562299372" lon="10.524330976638826"><ele>140.0</ele><time>2026-05-02T08:25:24.998Z</time></trkpt><trkpt lat="44.01685747364644" lon="10.524082768568018"><ele>141.33333333333331</ele><time>2026-05-02T08:25:25.998Z</time></trkpt><trkpt lat="44.016857785044856" lon="10.5238288766587"><ele>142.66666666666666</ele><time>2026-05-02T08:25:26.998Z</time></trkpt><trkpt lat="44.016867564307276" lon="10.523572113495177"><ele>144.0</ele><time>2026-05-02T08:25:27.998Z</time></trkpt><trkpt lat="44.01688403254123" lon="10.523318080920502"><ele>145.0</ele><time>2026-05-02T08:25:28.998Z</time></trkpt><trkpt lat="44.016909099744076" lon="10.523066876724407"><ele>146.0</ele><time>2026-05-02T08:25:29.998Z</time></trkpt><trkpt lat="44.016946258334485" lon="10.522815252294134"><ele>147.0</ele><time>2026-05-02T08:25:30.998Z</time></trkpt><trkpt lat="44.016991956895374" lon="10.522568618519399"><ele>149.0</ele><time>2026-05-02T08:25:31.998Z</time></trkpt><trkpt lat="44.01704571203331" lon="10.522322317598345"><ele>151.0</ele><time>2026-05-02T08:25:32.998Z</time></trkpt><trkpt lat="44.01710907735947" lon="10.522074550590634"><ele>153.0</ele><time>2026-05-02T08:25:33.998Z</time></trkpt><trkpt lat="44.017182613553445" lon="10.521828128391718"><ele>158.33333333333334</ele><time>2026-05-02T08:25:34.998Z</time></trkpt><trkpt lat="44.01726417914917" lon="10.521581760667022"><ele>163.66666666666669</ele><time>2026-05-02T08:25:35.998Z</time></trkpt><trkpt lat="44.01735363232046" lon="10.521335655187578"><ele>169.0</ele><time>2026-05-02T08:25:36.998Z</time></trkpt><trkpt lat="44.01745022687068" lon="10.521094651814137"><ele>169.33333333333334</ele><time>2026-05-02T08:25:37.999Z</time></trkpt><trkpt lat="44.017552517073185" lon="10.520855443211094"><ele>169.66666666666666</ele><time>2026-05-02T08:25:38.999Z</time></trkpt><trkpt lat="44.017656383250824" lon="10.520620263472827"><ele>170.0</ele><time>2026-05-02T08:25:39.999Z</time></trkpt><trkpt lat="44.01776208866723" lon="10.520382407317323"><ele>170.0</ele><time>2026-05-02T08:25:40.999Z</time></trkpt><trkpt lat="44.01786800367837" lon="10.520142363709933"><ele>170.0</ele><time>2026-05-02T08:25:41.999Z</time></trkpt><trkpt lat="44.0179732825974" lon="10.519901030643716"><ele>170.0</ele><time>2026-05-02T08:25:42.999Z</time></trkpt><trkpt lat="44.01807930576874" lon="10.519657191526244"><ele>175.0</ele><time>2026-05-02T08:25:43.999Z</time></trkpt><trkpt lat="44.018185072782266" lon="10.519414455496658"><ele>180.0</ele><time>2026-05-02T08:25:44.999Z</time></trkpt><trkpt lat="44.018290472525806" lon="10.51917197692519"><ele>185.0</ele><time>2026-05-02T08:25:45.999Z</time></trkpt><trkpt lat="44.01839654642869" lon="10.5189295596245"><ele>174.66666666666666</ele><time>2026-05-02T08:25:46.999Z</time></trkpt><trkpt lat="44.018501310379314" lon="10.51868913620104"><ele>164.33333333333334</ele><time>2026-05-02T08:25:47.999Z</time></trkpt><trkpt lat="44.01860467297321" lon="10.518445052855695"><ele>154.0</ele><time>2026-05-02T08:25:48.999Z</time></trkpt><trkpt lat="44.01870995608655" lon="10.518200808364169"><ele>154.0</ele><time>2026-05-02T08:25:49.999Z</time></trkpt><trkpt lat="44.01881443982453" lon="10.517956213993102"><ele>154.0</ele><time>2026-05-02T08:25:50.999Z</time></trkpt><trkpt lat="44.01891760361105" lon="10.517712315218509"><ele>154.0</ele><time>2026-05-02T08:25:51.999Z</time></trkpt><trkpt lat="44.01902133487272" lon="10.517469350115118"><ele>152.66666666666669</ele><time>2026-05-02T08:25:52.999Z</time></trkpt><trkpt lat="44.01912524304575" lon="10.517225750933479"><ele>151.33333333333334</ele><time>2026-05-02T08:25:53.999Z</time></trkpt><trkpt lat="44.01923077175537" lon="10.5169852063221"><ele>150.0</ele><time>2026-05-02T08:25:54.999Z</time></trkpt><trkpt lat="44.01933563210624" lon="10.516745245402605"><ele>150.0</ele><time>2026-05-02T08:25:55.999Z</time></trkpt><trkpt lat="44.01944092655865" lon="10.516501854747329"><ele>150.0</ele><time>2026-05-02T08:25:56.999Z</time></trkpt><trkpt lat="44.01954536370459" lon="10.516259721271405"><ele>150.0</ele><time>2026-05-02T08:25:57.999Z</time></trkpt><trkpt lat="44.01965061516016" lon="10.516014227437756"><ele>156.0</ele><time>2026-05-02T08:25:58.999Z</time></trkpt><trkpt lat="44.0197561758149" lon="10.515762056420618"><ele>162.0</ele><time>2026-05-02T08:25:59.999Z</time></trkpt><trkpt lat="44.01986239241607" lon="10.515507965382904"><ele>168.0</ele><time>2026-05-02T08:26:00.999Z</time></trkpt><trkpt lat="44.019970124888395" lon="10.515254839880852"><ele>166.33333333333334</ele><time>2026-05-02T08:26:01.999Z</time></trkpt><trkpt lat="44.020075785159094" lon="10.515009437931418"><ele>164.66666666666669</ele><time>2026-05-02T08:26:02.999Z</time></trkpt><trkpt lat="44.02018457816603" lon="10.514757221176852"><ele>163.0</ele><time>2026-05-02T08:26:03.999Z</time></trkpt><trkpt lat="44.02029364362828" lon="10.514502228119392"><ele>163.0</ele><time>2026-05-02T08:26:04.999Z</time></trkpt><trkpt lat="44.020404223810445" lon="10.514241547029986"><ele>163.0</ele><time>2026-05-02T08:26:05.999Z</time></trkpt><trkpt lat="44.02051564725907" lon="10.513980624446392"><ele>163.0</ele><time>2026-05-02T08:26:06.999Z</time></trkpt><trkpt lat="44.02062597312723" lon="10.513719943410642"><ele>156.33333333333334</ele><time>2026-05-02T08:26:07.999Z</time></trkpt><trkpt lat="44.020738168941314" lon="10.51345645977448"><ele>149.66666666666666</ele><time>2026-05-02T08:26:08.999Z</time></trkpt><trkpt lat="44.02085089497429" lon="10.51319590150333"><ele>143.0</ele><time>2026-05-02T08:26:09.999Z</time></trkpt><trkpt lat="44.02096362365005" lon="10.51293486249521"><ele>149.0</ele><time>2026-05-02T08:26:10.999Z</time></trkpt><trkpt lat="44.02107818529611" lon="10.51267533796707"><ele>155.0</ele><time>2026-05-02T08:26:11.999Z</time></trkpt><trkpt lat="44.02119098067681" lon="10.512414936928003"><ele>161.0</ele><time>2026-05-02T08:26:12.999Z</time></trkpt><trkpt lat="44.02130441052247" lon="10.512156971642757"><ele>166.0</ele><time>2026-05-02T08:26:13.999Z</time></trkpt><trkpt lat="44.02141901072453" lon="10.51190206203473"><ele>171.0</ele><time>2026-05-02T08:26:14.999Z</time></trkpt><trkpt lat="44.02153729097385" lon="10.51165769398506"><ele>176.0</ele><time>2026-05-02T08:26:15.999Z</time></trkpt><trkpt lat="44.021667753932114" lon="10.511422088809232"><ele>167.33333333333331</ele><time>2026-05-02T08:26:16.999Z</time></trkpt><trkpt lat="44.021808072306314" lon="10.511187039239182"><ele>158.66666666666666</ele><time>2026-05-02T08:26:17.999Z</time></trkpt><trkpt lat="44.02195419518408" lon="10.510959703964279"><ele>150.0</ele><time>2026-05-02T08:26:18.999Z</time></trkpt><trkpt lat="44.02210124206145" lon="10.5107340981446"><ele>150.0</ele><time>2026-05-02T08:26:19.999Z</time></trkpt><trkpt lat="44.02225094677958" lon="10.510507755763946"><ele>150.0</ele><time>2026-05-02T08:26:20.999Z</time></trkpt><trkpt lat="44.02239983584874" lon="10.5102746996319"><ele>150.0</ele><time>2026-05-02T08:26:21.999Z</time></trkpt><trkpt lat="44.022542361139166" lon="10.5100395704969"><ele>148.0</ele><time>2026-05-02T08:26:22.999Z</time></trkpt><trkpt lat="44.02267478455484" lon="10.509802505688446"><ele>146.0</ele><time>2026-05-02T08:26:23.999Z</time></trkpt><trkpt lat="44.02279046715341" lon="10.509543579399356"><ele>144.0</ele><time>2026-05-02T08:26:24.999Z</time></trkpt><trkpt lat="44.02288718582408" lon="10.509276164490998"><ele>149.0</ele><time>2026-05-02T08:26:25.999Z</time></trkpt><trkpt lat="44.02297492890822" lon="10.50900084817911"><ele>154.0</ele><time>2026-05-02T08:26:26.999Z</time></trkpt><trkpt lat="44.02304868180283" lon="10.508735846797746"><ele>159.0</ele><time>2026-05-02T08:26:27.999Z</time></trkpt><trkpt lat="44.023115393269734" lon="10.508485376593677"><ele>161.66666666666666</ele><time>2026-05-02T08:26:28.999Z</time></trkpt><trkpt lat="44.023186633766144" lon="10.508240110618944"><ele>164.33333333333331</ele><time>2026-05-02T08:26:29.999Z</time></trkpt><trkpt lat="44.02326048095205" lon="10.507998285108867"><ele>167.0</ele><time>2026-05-02T08:26:30.999Z</time></trkpt><trkpt lat="44.0233314733519" lon="10.507762342048366"><ele>160.33333333333331</ele><time>2026-05-02T08:26:31.999Z</time></trkpt><trkpt lat="44.02340133250909" lon="10.507528313930738"><ele>153.66666666666666</ele><time>2026-05-02T08:26:32.999Z</time></trkpt><trkpt lat="44.023475987237596" lon="10.50729865892269"><ele>147.0</ele><time>2026-05-02T08:26:33.999Z</time></trkpt><trkpt lat="44.02355552902381" lon="10.507069607998254"><ele>147.0</ele><time>2026-05-02T08:26:34.999Z</time></trkpt><trkpt lat="44.02364029580671" lon="10.506842328893372"><ele>147.0</ele><time>2026-05-02T08:26:35.999Z</time></trkpt><trkpt lat="44.023727335587104" lon="10.506616557609382"><ele>147.0</ele><time>2026-05-02T08:26:36.999Z</time></trkpt><trkpt lat="44.023817074834874" lon="10.506394028301239"><ele>149.0</ele><time>2026-05-02T08:26:37.999Z</time></trkpt><trkpt lat="44.023909837024384" lon="10.506171872163254"><ele>151.0</ele><time>2026-05-02T08:26:38.999Z</time></trkpt><trkpt lat="44.02400067854454" lon="10.505950097044092"><ele>153.0</ele><time>2026-05-02T08:26:39.999Z</time></trkpt><trkpt lat="44.024093153664374" lon="10.505723232011349"><ele>146.66666666666666</ele><time>2026-05-02T08:26:40.999Z</time></trkpt><trkpt lat="44.024182628076915" lon="10.505499184318415"><ele>140.33333333333331</ele><time>2026-05-02T08:26:41.999Z</time></trkpt><trkpt lat="44.02427277906176" lon="10.505278163411349"><ele>134.0</ele><time>2026-05-02T08:26:42.999Z</time></trkpt><trkpt lat="44.024364396348915" lon="10.505057966156421"><ele>134.0</ele><time>2026-05-02T08:26:43.999Z</time></trkpt><trkpt lat="44.0244548502549" lon="10.504838923791125"><ele>134.0</ele><time>2026-05-02T08:26:44.999Z</time></trkpt><trkpt lat="44.02454253188007" lon="10.504622328925064"><ele>134.0</ele><time>2026-05-02T08:26:45.999Z</time></trkpt><trkpt lat="44.02462843723121" lon="10.504408634369401"><ele>138.0</ele><time>2026-05-02T08:26:46.999Z</time></trkpt><trkpt lat="44.024715236941994" lon="10.50419318555125"><ele>142.0</ele><time>2026-05-02T08:26:47.999Z</time></trkpt><trkpt lat="44.024802611460906" lon="10.503976634712192"><ele>146.0</ele><time>2026-05-02T08:26:48.999Z</time></trkpt><trkpt lat="44.02489203064885" lon="10.503757033103925"><ele>143.0</ele><time>2026-05-02T08:26:49.999Z</time></trkpt><trkpt lat="44.02498160290474" lon="10.503536416357065"><ele>140.0</ele><time>2026-05-02T08:26:50.999Z</time></trkpt><trkpt lat="44.02507298043703" lon="10.503321593174244"><ele>137.0</ele><time>2026-05-02T08:26:51.999Z</time></trkpt><trkpt lat="44.02516271005394" lon="10.503102978605149"><ele>140.66666666666666</ele><time>2026-05-02T08:26:52.999Z</time></trkpt><trkpt lat="44.02525252614184" lon="10.502881949638741"><ele>144.33333333333334</ele><time>2026-05-02T08:26:53.999Z</time></trkpt><trkpt lat="44.02534211438356" lon="10.502660935423915"><ele>148.0</ele><time>2026-05-02T08:26:54.999Z</time></trkpt><trkpt lat="44.02542900880817" lon="10.50244388012843"><ele>148.0</ele><time>2026-05-02T08:26:55.999Z</time></trkpt><trkpt lat="44.02551729690339" lon="10.502227185551297"><ele>148.0</ele><time>2026-05-02T08:26:56.999Z</time></trkpt><trkpt lat="44.02560831627061" lon="10.502001686588107"><ele>148.0</ele><time>2026-05-02T08:26:57.999Z</time></trkpt><trkpt lat="44.02570095180671" lon="10.501766512953882"><ele>149.33333333333334</ele><time>2026-05-02T08:26:58.999Z</time></trkpt><trkpt lat="44.02579442184473" lon="10.501523975218205"><ele>150.66666666666666</ele><time>2026-05-02T08:26:59.999Z</time></trkpt><trkpt lat="44.02589013209302" lon="10.501277149410667"><ele>152.0</ele><time>2026-05-02T08:27:00.999Z</time></trkpt><trkpt lat="44.025990082669075" lon="10.50102469682749"><ele>152.0</ele><time>2026-05-02T08:27:01.999Z</time></trkpt><trkpt lat="44.02609543916812" lon="10.500767639208943"><ele>152.0</ele><time>2026-05-02T08:27:02.999Z</time></trkpt><trkpt lat="44.02620270683333" lon="10.500512616853438"><ele>152.0</ele><time>2026-05-02T08:27:03.999Z</time></trkpt><trkpt lat="44.02631111458668" lon="10.500258502230377"><ele>159.0</ele><time>2026-05-02T08:27:04.999Z</time></trkpt><trkpt lat="44.026417334845" lon="10.500007543215585"><ele>166.0</ele><time>2026-05-02T08:27:05.999Z</time></trkpt><trkpt lat="44.02651628897797" lon="10.499766851269635"><ele>173.0</ele><time>2026-05-02T08:27:06.999Z</time></trkpt><trkpt lat="44.026609223873876" lon="10.499543963822472"><ele>165.33333333333331</ele><time>2026-05-02T08:27:07.999Z</time></trkpt><trkpt lat="44.02670068320574" lon="10.499342171347822"><ele>157.66666666666666</ele><time>2026-05-02T08:27:08.999Z</time></trkpt><trkpt lat="44.026795821365795" lon="10.499149883501783"><ele>150.0</ele><time>2026-05-02T08:27:09.999Z</time></trkpt><trkpt lat="44.02689633217868" lon="10.498981814384406"><ele>150.0</ele><time>2026-05-02T08:27:10.999Z</time></trkpt><trkpt lat="44.02699642726312" lon="10.498828548991357"><ele>150.0</ele><time>2026-05-02T08:27:11.999Z</time></trkpt><trkpt lat="44.02709455417489" lon="10.498677831732373"><ele>150.0</ele><time>2026-05-02T08:27:12.999Z</time></trkpt><trkpt lat="44.02718804193414" lon="10.49852301943077"><ele>150.0</ele><time>2026-05-02T08:27:13.999Z</time></trkpt><trkpt lat="44.02727859981502" lon="10.498355110380514"><ele>153.66666666666666</ele><time>2026-05-02T08:27:14.999Z</time></trkpt><trkpt lat="44.027365906961236" lon="10.498180667001757"><ele>157.33333333333331</ele><time>2026-05-02T08:27:15.999Z</time></trkpt><trkpt lat="44.027452388214336" lon="10.498001011208709"><ele>161.0</ele><time>2026-05-02T08:27:16.999Z</time></trkpt><trkpt lat="44.027532930870514" lon="10.49781540751343"><ele>161.0</ele><time>2026-05-02T08:27:17.999Z</time></trkpt><trkpt lat="44.027607245561484" lon="10.497639040294501"><ele>161.0</ele><time>2026-05-02T08:27:18.999Z</time></trkpt><trkpt lat="44.02768438240751" lon="10.497468784170954"><ele>161.0</ele><time>2026-05-02T08:27:19.999Z</time></trkpt><trkpt lat="44.02776221090497" lon="10.497307270847774"><ele>161.0</ele><time>2026-05-02T08:27:20.999Z</time></trkpt><trkpt lat="44.027859716357284" lon="10.497151225376804"><ele>156.25</ele><time>2026-05-02T08:27:21.998Z</time></trkpt><trkpt lat="44.02797911815672" lon="10.497023727869845"><ele>151.5</ele><time>2026-05-02T08:27:22.998Z</time></trkpt><trkpt lat="44.02809866938331" lon="10.496915240289058"><ele>146.75</ele><time>2026-05-02T08:27:23.998Z</time></trkpt><trkpt lat="44.02822403601118" lon="10.496802914720316"><ele>142.0</ele><time>2026-05-02T08:27:24.998Z</time></trkpt><trkpt lat="44.02834964404489" lon="10.496686987525056"><ele>142.0</ele><time>2026-05-02T08:27:25.998Z</time></trkpt><trkpt lat="44.02846825523063" lon="10.496578512317114"><ele>142.0</ele><time>2026-05-02T08:27:26.998Z</time></trkpt><trkpt lat="44.028589891954304" lon="10.496468772575588"><ele>142.0</ele><time>2026-05-02T08:27:27.998Z</time></trkpt><trkpt lat="44.028712298913035" lon="10.496354859895149"><ele>142.0</ele><time>2026-05-02T08:27:28.998Z</time></trkpt><trkpt lat="44.02883821142322" lon="10.496232965959477"><ele>139.66666666666669</ele><time>2026-05-02T08:27:29.998Z</time></trkpt><trkpt lat="44.028960943095136" lon="10.49609115095715"><ele>137.33333333333334</ele><time>2026-05-02T08:27:30.998Z</time></trkpt><trkpt lat="44.029074874583095" lon="10.495925050274671"><ele>135.0</ele><time>2026-05-02T08:27:31.998Z</time></trkpt><trkpt lat="44.0291806647934" lon="10.495747871062894"><ele>135.0</ele><time>2026-05-02T08:27:32.998Z</time></trkpt><trkpt lat="44.029270957655065" lon="10.495556681883224"><ele>135.0</ele><time>2026-05-02T08:27:33.998Z</time></trkpt><trkpt lat="44.02935663077121" lon="10.495358911647433"><ele>135.0</ele><time>2026-05-02T08:27:34.998Z</time></trkpt><trkpt lat="44.029446995861036" lon="10.495160729311703"><ele>142.0</ele><time>2026-05-02T08:27:35.998Z</time></trkpt><trkpt lat="44.02953751660538" lon="10.494963158775908"><ele>149.0</ele><time>2026-05-02T08:27:36.998Z</time></trkpt><trkpt lat="44.029628422351145" lon="10.494770588127539"><ele>156.0</ele><time>2026-05-02T08:27:37.998Z</time></trkpt><trkpt lat="44.02971878728145" lon="10.494579220558181"><ele>149.0</ele><time>2026-05-02T08:27:38.998Z</time></trkpt><trkpt lat="44.02980956230334" lon="10.494389070880203"><ele>142.0</ele><time>2026-05-02T08:27:39.998Z</time></trkpt><trkpt lat="44.029899993260855" lon="10.494194688852755"><ele>135.0</ele><time>2026-05-02T08:27:40.998Z</time></trkpt><trkpt lat="44.029989911706906" lon="10.49400077711795"><ele>135.0</ele><time>2026-05-02T08:27:41.998Z</time></trkpt><trkpt lat="44.03008049344906" lon="10.493805153331023"><ele>135.0</ele><time>2026-05-02T08:27:42.998Z</time></trkpt><trkpt lat="44.03017327450371" lon="10.493607967110028"><ele>135.0</ele><time>2026-05-02T08:27:44Z</time></trkpt><trkpt lat="44.0302663058988" lon="10.49340963517108"><ele>139.0</ele><time>2026-05-02T08:27:45Z</time></trkpt><trkpt lat="44.03035670402521" lon="10.49321255299104"><ele>143.0</ele><time>2026-05-02T08:27:46Z</time></trkpt><trkpt lat="44.03044632748475" lon="10.49301726676315"><ele>147.0</ele><time>2026-05-02T08:27:47Z</time></trkpt><trkpt lat="44.03053456577962" lon="10.492823720055389"><ele>154.33333333333334</ele><time>2026-05-02T08:27:48Z</time></trkpt><trkpt lat="44.0306222988322" lon="10.49263178784312"><ele>161.66666666666669</ele><time>2026-05-02T08:27:49Z</time></trkpt><trkpt lat="44.0307110805068" lon="10.492440702168983"><ele>169.0</ele><time>2026-05-02T08:27:50Z</time></trkpt><trkpt lat="44.03079941563746" lon="10.49224643671051"><ele>158.0</ele><time>2026-05-02T08:27:51Z</time></trkpt><trkpt lat="44.030889249663254" lon="10.492048508028509"><ele>147.0</ele><time>2026-05-02T08:27:52Z</time></trkpt><trkpt lat="44.030982155843624" lon="10.491852045343443"><ele>136.0</ele><time>2026-05-02T08:27:53Z</time></trkpt><trkpt lat="44.03107340944736" lon="10.491660324875271"><ele>136.0</ele><time>2026-05-02T08:27:54Z</time></trkpt><trkpt lat="44.03116268904797" lon="10.491470048759016"><ele>136.0</ele><time>2026-05-02T08:27:55Z</time></trkpt><trkpt lat="44.031252243404616" lon="10.491279121350562"><ele>136.0</ele><time>2026-05-02T08:27:56Z</time></trkpt><trkpt lat="44.03134191950087" lon="10.491092833251345"><ele>134.75</ele><time>2026-05-02T08:27:57Z</time></trkpt><trkpt lat="44.031432912467984" lon="10.490917079059239"><ele>133.5</ele><time>2026-05-02T08:27:58Z</time></trkpt><trkpt lat="44.03152585783416" lon="10.490756701865253"><ele>132.25</ele><time>2026-05-02T08:27:59Z</time></trkpt><trkpt lat="44.03161821369163" lon="10.490610626999102"><ele>131.0</ele><time>2026-05-02T08:28:00Z</time></trkpt><trkpt lat="44.03171110851948" lon="10.490475286607813"><ele>131.75</ele><time>2026-05-02T08:28:01Z</time></trkpt><trkpt lat="44.03181011780521" lon="10.490336704919706"><ele>132.5</ele><time>2026-05-02T08:28:02Z</time></trkpt><trkpt lat="44.03191683195852" lon="10.490187065014146"><ele>133.25</ele><time>2026-05-02T08:28:03Z</time></trkpt><trkpt lat="44.032031908265324" lon="10.490038204286456"><ele>134.0</ele><time>2026-05-02T08:28:04Z</time></trkpt><trkpt lat="44.032161467080755" lon="10.489887753664735"><ele>134.0</ele><time>2026-05-02T08:28:05Z</time></trkpt><trkpt lat="44.03230055623054" lon="10.48973734715068"><ele>134.0</ele><time>2026-05-02T08:28:06Z</time></trkpt><trkpt lat="44.03245070981025" lon="10.489593098751293"><ele>134.0</ele><time>2026-05-02T08:28:07Z</time></trkpt><trkpt lat="44.03260497771412" lon="10.489449662154055"><ele>133.33333333333331</ele><time>2026-05-02T08:28:08Z</time></trkpt><trkpt lat="44.03276451901494" lon="10.489305745913416"><ele>132.66666666666666</ele><time>2026-05-02T08:28:09Z</time></trkpt><trkpt lat="44.032929438860116" lon="10.489159438690884"><ele>132.0</ele><time>2026-05-02T08:28:10Z</time></trkpt><trkpt lat="44.03309795713729" lon="10.489014555435958"><ele>132.0</ele><time>2026-05-02T08:28:11Z</time></trkpt><trkpt lat="44.033268181652964" lon="10.4888690343515"><ele>132.0</ele><time>2026-05-02T08:28:12Z</time></trkpt><trkpt lat="44.03343561862567" lon="10.488726227437324"><ele>132.0</ele><time>2026-05-02T08:28:13Z</time></trkpt><trkpt lat="44.03360141145504" lon="10.48858463371275"><ele>135.0</ele><time>2026-05-02T08:28:14Z</time></trkpt><trkpt lat="44.03376131676819" lon="10.488445792499865"><ele>138.0</ele><time>2026-05-02T08:28:15Z</time></trkpt><trkpt lat="44.03391812384764" lon="10.48830431171622"><ele>141.0</ele><time>2026-05-02T08:28:16Z</time></trkpt><trkpt lat="44.034067779499026" lon="10.488161428306064"><ele>139.66666666666666</ele><time>2026-05-02T08:28:17Z</time></trkpt><trkpt lat="44.034214179821745" lon="10.488018365117423"><ele>138.33333333333331</ele><time>2026-05-02T08:28:18Z</time></trkpt><trkpt lat="44.03435185880295" lon="10.487877352981783"><ele>137.0</ele><time>2026-05-02T08:28:19Z</time></trkpt><trkpt lat="44.03447529998515" lon="10.487733637560721"><ele>142.66666666666666</ele><time>2026-05-02T08:28:20Z</time></trkpt><trkpt lat="44.034591190002295" lon="10.487587526695906"><ele>148.33333333333334</ele><time>2026-05-02T08:28:21Z</time></trkpt><trkpt lat="44.03470031853805" lon="10.4874338395805"><ele>154.0</ele><time>2026-05-02T08:28:22Z</time></trkpt><trkpt lat="44.03480105055839" lon="10.487270577278458"><ele>154.0</ele><time>2026-05-02T08:28:23Z</time></trkpt><trkpt lat="44.0348957228569" lon="10.487101662364841"><ele>154.0</ele><time>2026-05-02T08:28:24Z</time></trkpt><trkpt lat="44.03498670491746" lon="10.486926808621112"><ele>154.0</ele><time>2026-05-02T08:28:25Z</time></trkpt><trkpt lat="44.03507295810417" lon="10.48674573097822"><ele>154.0</ele><time>2026-05-02T08:28:26Z</time></trkpt><trkpt lat="44.035151457308515" lon="10.486562361175942"><ele>154.0</ele><time>2026-05-02T08:28:27Z</time></trkpt><trkpt lat="44.035224068366574" lon="10.486373189897146"><ele>154.0</ele><time>2026-05-02T08:28:28Z</time></trkpt><trkpt lat="44.035290456530554" lon="10.486172427066936"><ele>157.0</ele><time>2026-05-02T08:28:29Z</time></trkpt><trkpt lat="44.03535034395685" lon="10.48596427927399"><ele>160.0</ele><time>2026-05-02T08:28:30Z</time></trkpt><trkpt lat="44.03540371401315" lon="10.485754147500986"><ele>163.0</ele><time>2026-05-02T08:28:31Z</time></trkpt><trkpt lat="44.035452408736624" lon="10.48554127107975"><ele>164.0</ele><time>2026-05-02T08:28:32Z</time></trkpt><trkpt lat="44.03548985020157" lon="10.485325519461677"><ele>165.0</ele><time>2026-05-02T08:28:33Z</time></trkpt><trkpt lat="44.03551976153678" lon="10.485112777484346"><ele>166.0</ele><time>2026-05-02T08:28:34Z</time></trkpt><trkpt lat="44.035550164204786" lon="10.484900835721774"><ele>166.0</ele><time>2026-05-02T08:28:35Z</time></trkpt><trkpt lat="44.03557792447779" lon="10.484686857953188"><ele>166.0</ele><time>2026-05-02T08:28:36Z</time></trkpt><trkpt lat="44.03560253877064" lon="10.484469281030476"><ele>166.0</ele><time>2026-05-02T08:28:37Z</time></trkpt><trkpt lat="44.03562770993391" lon="10.48425405575187"><ele>168.33333333333334</ele><time>2026-05-02T08:28:38Z</time></trkpt><trkpt lat="44.035654111542335" lon="10.484039591570737"><ele>170.66666666666666</ele><time>2026-05-02T08:28:39Z</time></trkpt><trkpt lat="44.03567961978586" lon="10.483823933634694"><ele>173.0</ele><time>2026-05-02T08:28:40Z</time></trkpt><trkpt lat="44.03570748815486" lon="10.483606352365937"><ele>175.33333333333331</ele><time>2026-05-02T08:28:41Z</time></trkpt><trkpt lat="44.03573315209197" lon="10.48339000064968"><ele>177.66666666666666</ele><time>2026-05-02T08:28:42Z</time></trkpt><trkpt lat="44.035755442285705" lon="10.483163569800524"><ele>180.0</ele><time>2026-05-02T08:28:43Z</time></trkpt><trkpt lat="44.03578553099668" lon="10.482947811688247"><ele>174.33333333333334</ele><time>2026-05-02T08:28:44Z</time></trkpt><trkpt lat="44.03580738339674" lon="10.482728875383533"><ele>168.66666666666669</ele><time>2026-05-02T08:28:45Z</time></trkpt><trkpt lat="44.03583364657881" lon="10.48250290101752"><ele>163.0</ele><time>2026-05-02T08:28:46Z</time></trkpt><trkpt lat="44.03586070610978" lon="10.48226929877791"><ele>162.66666666666669</ele><time>2026-05-02T08:28:47Z</time></trkpt><trkpt lat="44.03588670890335" lon="10.482024726661312"><ele>162.33333333333334</ele><time>2026-05-02T08:28:48Z</time></trkpt><trkpt lat="44.03591746354847" lon="10.481781743663765"><ele>162.0</ele><time>2026-05-02T08:28:49Z</time></trkpt><trkpt lat="44.035947630404785" lon="10.481539709199456"><ele>162.0</ele><time>2026-05-02T08:28:50Z</time></trkpt><trkpt lat="44.03598107156972" lon="10.481307691653566"><ele>162.0</ele><time>2026-05-02T08:28:51Z</time></trkpt><trkpt lat="44.036014518571854" lon="10.481075262538806"><ele>162.0</ele><time>2026-05-02T08:28:52Z</time></trkpt><trkpt lat="44.03605304058616" lon="10.480852108598853"><ele>163.66666666666666</ele><time>2026-05-02T08:28:52.999Z</time></trkpt><trkpt lat="44.03610393297048" lon="10.48063058069519"><ele>165.33333333333331</ele><time>2026-05-02T08:28:53.999Z</time></trkpt><trkpt lat="44.03616235372597" lon="10.480415697891475"><ele>167.0</ele><time>2026-05-02T08:28:54.999Z</time></trkpt><trkpt lat="44.03622436438589" lon="10.480201926653754"><ele>169.66666666666666</ele><time>2026-05-02T08:28:55.999Z</time></trkpt><trkpt lat="44.036294410022464" lon="10.479992041576816"><ele>172.33333333333334</ele><time>2026-05-02T08:28:56.999Z</time></trkpt><trkpt lat="44.03637018919411" lon="10.479771967544941"><ele>175.0</ele><time>2026-05-02T08:28:57.999Z</time></trkpt><trkpt lat="44.03644652815343" lon="10.479553128387575"><ele>178.33333333333334</ele><time>2026-05-02T08:28:58.999Z</time></trkpt><trkpt lat="44.036520986767215" lon="10.479334775318618"><ele>181.66666666666666</ele><time>2026-05-02T08:28:59.999Z</time></trkpt><trkpt lat="44.036598250847405" lon="10.47911864256953"><ele>185.0</ele><time>2026-05-02T08:29:00.999Z</time></trkpt><trkpt lat="44.03667304857096" lon="10.478903380749548"><ele>179.0</ele><time>2026-05-02T08:29:01.999Z</time></trkpt><trkpt lat="44.036746788384114" lon="10.478691989012813"><ele>173.0</ele><time>2026-05-02T08:29:02.999Z</time></trkpt><trkpt lat="44.03682108567701" lon="10.478478471121738"><ele>167.0</ele><time>2026-05-02T08:29:03.999Z</time></trkpt><trkpt lat="44.03689877776341" lon="10.478272499812675"><ele>167.0</ele><time>2026-05-02T08:29:04.999Z</time></trkpt><trkpt lat="44.03696895520818" lon="10.478070755091103"><ele>167.0</ele><time>2026-05-02T08:29:05.999Z</time></trkpt><trkpt lat="44.03703289420371" lon="10.47786708025424"><ele>167.0</ele><time>2026-05-02T08:29:06.999Z</time></trkpt><trkpt lat="44.037101300483236" lon="10.477662376676495"><ele>171.0</ele><time>2026-05-02T08:29:07.999Z</time></trkpt><trkpt lat="44.03717250568277" lon="10.477459422097544"><ele>175.0</ele><time>2026-05-02T08:29:08.999Z</time></trkpt><trkpt lat="44.03724113355261" lon="10.477264321673431"><ele>179.0</ele><time>2026-05-02T08:29:09.999Z</time></trkpt><trkpt lat="44.037307310606344" lon="10.477070133076275"><ele>174.33333333333331</ele><time>2026-05-02T08:29:10.999Z</time></trkpt><trkpt lat="44.03737779674489" lon="10.476877771661407"><ele>169.66666666666666</ele><time>2026-05-02T08:29:11.999Z</time></trkpt><trkpt lat="44.037447926624175" lon="10.476687396735967"><ele>165.0</ele><time>2026-05-02T08:29:12.999Z</time></trkpt><trkpt lat="44.03752392971038" lon="10.476503438345942"><ele>165.0</ele><time>2026-05-02T08:29:13.999Z</time></trkpt><trkpt lat="44.03760743345714" lon="10.476316523577875"><ele>165.0</ele><time>2026-05-02T08:29:14.999Z</time></trkpt><trkpt lat="44.03769664780562" lon="10.476149212177505"><ele>165.0</ele><time>2026-05-02T08:29:15.999Z</time></trkpt><trkpt lat="44.03779274814416" lon="10.475971296838052"><ele>169.66666666666666</ele><time>2026-05-02T08:29:16.999Z</time></trkpt><trkpt lat="44.03789393773829" lon="10.475795287723562"><ele>174.33333333333331</ele><time>2026-05-02T08:29:17.999Z</time></trkpt><trkpt lat="44.03800549251627" lon="10.475617305911184"><ele>179.0</ele><time>2026-05-02T08:29:18.999Z</time></trkpt><trkpt lat="44.0381298859181" lon="10.47544325220932"><ele>180.66666666666666</ele><time>2026-05-02T08:29:19.999Z</time></trkpt><trkpt lat="44.038256858678814" lon="10.475279472018887"><ele>182.33333333333334</ele><time>2026-05-02T08:29:20.999Z</time></trkpt><trkpt lat="44.038386901870915" lon="10.475123972843223"><ele>184.0</ele><time>2026-05-02T08:29:21.999Z</time></trkpt><trkpt lat="44.038520878789704" lon="10.474975639335462"><ele>177.33333333333334</ele><time>2026-05-02T08:29:22.999Z</time></trkpt><trkpt lat="44.03865897769213" lon="10.47483726129538"><ele>170.66666666666666</ele><time>2026-05-02T08:29:23.999Z</time></trkpt><trkpt lat="44.0387980547178" lon="10.474703737126623"><ele>164.0</ele><time>2026-05-02T08:29:24.999Z</time></trkpt><trkpt lat="44.03894046337657" lon="10.474567825857838"><ele>164.0</ele><time>2026-05-02T08:29:25.999Z</time></trkpt><trkpt lat="44.03907594664898" lon="10.474437124897594"><ele>164.0</ele><time>2026-05-02T08:29:26.999Z</time></trkpt><trkpt lat="44.03919932280937" lon="10.474316713656062"><ele>164.0</ele><time>2026-05-02T08:29:27.999Z</time></trkpt><trkpt lat="44.03931797974838" lon="10.474200755711204"><ele>162.0</ele><time>2026-05-02T08:29:28.999Z</time></trkpt><trkpt lat="44.03943138348968" lon="10.474084489319175"><ele>160.0</ele><time>2026-05-02T08:29:29.999Z</time></trkpt><trkpt lat="44.03954900742324" lon="10.473963681387898"><ele>158.0</ele><time>2026-05-02T08:29:30.999Z</time></trkpt><trkpt lat="44.039669181728584" lon="10.473835947898845"><ele>156.0</ele><time>2026-05-02T08:29:31.999Z</time></trkpt><trkpt lat="44.039793677360606" lon="10.473716902253754"><ele>156.0</ele><time>2026-05-02T08:29:32.999Z</time></trkpt><trkpt lat="44.039912721326985" lon="10.473590674721425"><ele>156.0</ele><time>2026-05-02T08:29:33.999Z</time></trkpt><trkpt lat="44.04003446455138" lon="10.47347189073996"><ele>156.0</ele><time>2026-05-02T08:29:34.999Z</time></trkpt><trkpt lat="44.04016364075182" lon="10.473348559825466"><ele>156.25</ele><time>2026-05-02T08:29:35.999Z</time></trkpt><trkpt lat="44.04028474266511" lon="10.473223222177165"><ele>156.5</ele><time>2026-05-02T08:29:36.999Z</time></trkpt><trkpt lat="44.040397176561235" lon="10.473099609818275"><ele>156.75</ele><time>2026-05-02T08:29:37.999Z</time></trkpt><trkpt lat="44.04050012236194" lon="10.472970940769446"><ele>157.0</ele><time>2026-05-02T08:29:38.999Z</time></trkpt><trkpt lat="44.04059714794554" lon="10.472839169237814"><ele>157.0</ele><time>2026-05-02T08:29:39.999Z</time></trkpt><trkpt lat="44.04068968038541" lon="10.472705726015676"><ele>157.0</ele><time>2026-05-02T08:29:40.999Z</time></trkpt><trkpt lat="44.040778576844126" lon="10.472572235559175"><ele>157.0</ele><time>2026-05-02T08:29:41.999Z</time></trkpt><trkpt lat="44.04086698428989" lon="10.47242987761771"><ele>157.0</ele><time>2026-05-02T08:29:42.999Z</time></trkpt><trkpt lat="44.04094964001969" lon="10.472286455230472"><ele>156.75</ele><time>2026-05-02T08:29:43.999Z</time></trkpt><trkpt lat="44.041024405558574" lon="10.472132500805888"><ele>156.5</ele><time>2026-05-02T08:29:44.999Z</time></trkpt><trkpt lat="44.04109900566765" lon="10.471978757055352"><ele>156.25</ele><time>2026-05-02T08:29:45.999Z</time></trkpt><trkpt lat="44.04117022307117" lon="10.471811064311495"><ele>156.0</ele><time>2026-05-02T08:29:46.999Z</time></trkpt><trkpt lat="44.041235957726485" lon="10.471641025967395"><ele>156.0</ele><time>2026-05-02T08:29:47.999Z</time></trkpt><trkpt lat="44.041297890137" lon="10.471457374494074"><ele>156.0</ele><time>2026-05-02T08:29:48.999Z</time></trkpt><trkpt lat="44.04135722292551" lon="10.471266935630503"><ele>156.0</ele><time>2026-05-02T08:29:50.001Z</time></trkpt><trkpt lat="44.04141319973008" lon="10.4710586576647"><ele>158.0</ele><time>2026-05-02T08:29:51.001Z</time></trkpt><trkpt lat="44.041467760388265" lon="10.470824999403652"><ele>160.0</ele><time>2026-05-02T08:29:52.001Z</time></trkpt><trkpt lat="44.04151746233314" lon="10.470587788023305"><ele>162.0</ele><time>2026-05-02T08:29:53.001Z</time></trkpt><trkpt lat="44.04156381550353" lon="10.470341165416713"><ele>162.66666666666666</ele><time>2026-05-02T08:29:54.001Z</time></trkpt><trkpt lat="44.041596248096305" lon="10.470073207455034"><ele>163.33333333333331</ele><time>2026-05-02T08:29:55.001Z</time></trkpt><trkpt lat="44.04164065336151" lon="10.469796098676797"><ele>164.0</ele><time>2026-05-02T08:29:56.001Z</time></trkpt><trkpt lat="44.04166264301901" lon="10.46951219052506"><ele>161.33333333333331</ele><time>2026-05-02T08:29:57.001Z</time></trkpt><trkpt lat="44.04168184507894" lon="10.469223283174317"><ele>158.66666666666666</ele><time>2026-05-02T08:29:58.001Z</time></trkpt><trkpt lat="44.041700707918245" lon="10.468939479557177"><ele>156.0</ele><time>2026-05-02T08:29:59.001Z</time></trkpt><trkpt lat="44.0417086556131" lon="10.468647739633619"><ele>156.0</ele><time>2026-05-02T08:30:00.001Z</time></trkpt><trkpt lat="44.04174604426102" lon="10.468357016733648"><ele>156.0</ele><time>2026-05-02T08:30:01.001Z</time></trkpt><trkpt lat="44.04178112260772" lon="10.46806873919818"><ele>156.0</ele><time>2026-05-02T08:30:02.001Z</time></trkpt><trkpt lat="44.041820089899566" lon="10.467781693659683"><ele>157.66666666666666</ele><time>2026-05-02T08:30:03.001Z</time></trkpt><trkpt lat="44.04187143640377" lon="10.467499908859443"><ele>159.33333333333331</ele><time>2026-05-02T08:30:04.001Z</time></trkpt><trkpt lat="44.04193694722757" lon="10.467228681748853"><ele>161.0</ele><time>2026-05-02T08:30:05.001Z</time></trkpt><trkpt lat="44.04201242372149" lon="10.466969477935542"><ele>164.66666666666666</ele><time>2026-05-02T08:30:06.001Z</time></trkpt><trkpt lat="44.04209516314094" lon="10.46672110323427"><ele>168.33333333333334</ele><time>2026-05-02T08:30:07.001Z</time></trkpt><trkpt lat="44.04218688705389" lon="10.466483129065395"><ele>172.0</ele><time>2026-05-02T08:30:08.001Z</time></trkpt><trkpt lat="44.04228258749976" lon="10.466247399462285"><ele>173.66666666666669</ele><time>2026-05-02T08:30:09.001Z</time></trkpt><trkpt lat="44.0423854259457" lon="10.466017163104992"><ele>175.33333333333334</ele><time>2026-05-02T08:30:10.001Z</time></trkpt><trkpt lat="44.04249502303985" lon="10.465804052828652"><ele>177.0</ele><time>2026-05-02T08:30:11Z</time></trkpt><trkpt lat="44.04261479052754" lon="10.465603546673341"><ele>180.66666666666666</ele><time>2026-05-02T08:30:12Z</time></trkpt><trkpt lat="44.042742514635265" lon="10.465412443005498"><ele>184.33333333333331</ele><time>2026-05-02T08:30:13Z</time></trkpt><trkpt lat="44.04286798029818" lon="10.465225000689564"><ele>188.0</ele><time>2026-05-02T08:30:14Z</time></trkpt><trkpt lat="44.043000116083725" lon="10.465028307149625"><ele>188.0</ele><time>2026-05-02T08:30:15Z</time></trkpt><trkpt lat="44.04313065375921" lon="10.464831959065197"><ele>188.0</ele><time>2026-05-02T08:30:16Z</time></trkpt><trkpt lat="44.04326406995358" lon="10.46463532881043"><ele>188.0</ele><time>2026-05-02T08:30:17Z</time></trkpt><trkpt lat="44.04339788427895" lon="10.464438720162217"><ele>187.66666666666666</ele><time>2026-05-02T08:30:18Z</time></trkpt><trkpt lat="44.04353327620157" lon="10.464245613506465"><ele>187.33333333333334</ele><time>2026-05-02T08:30:19Z</time></trkpt><trkpt lat="44.043670601036226" lon="10.464053228972956"><ele>187.0</ele><time>2026-05-02T08:30:20Z</time></trkpt><trkpt lat="44.04380897002416" lon="10.463856569689968"><ele>183.66666666666669</ele><time>2026-05-02T08:30:21Z</time></trkpt><trkpt lat="44.04394619297002" lon="10.463659068901874"><ele>180.33333333333334</ele><time>2026-05-02T08:30:22Z</time></trkpt><trkpt lat="44.04407924552231" lon="10.46346490278651"><ele>177.0</ele><time>2026-05-02T08:30:23Z</time></trkpt><trkpt lat="44.044216062438075" lon="10.463272503631547"><ele>177.0</ele><time>2026-05-02T08:30:24Z</time></trkpt><trkpt lat="44.044355506588595" lon="10.463084298628893"><ele>177.0</ele><time>2026-05-02T08:30:25Z</time></trkpt><trkpt lat="44.04450030474062" lon="10.462891327238529"><ele>177.0</ele><time>2026-05-02T08:30:26Z</time></trkpt><trkpt lat="44.04464160256109" lon="10.462701623227542"><ele>175.0</ele><time>2026-05-02T08:30:27Z</time></trkpt><trkpt lat="44.044777662857" lon="10.462516955770887"><ele>173.0</ele><time>2026-05-02T08:30:28Z</time></trkpt><trkpt lat="44.04491118744036" lon="10.462332085591651"><ele>171.0</ele><time>2026-05-02T08:30:29Z</time></trkpt><trkpt lat="44.04503930405668" lon="10.462149188642268"><ele>181.33333333333331</ele><time>2026-05-02T08:30:30Z</time></trkpt><trkpt lat="44.04516331004014" lon="10.461971255590534"><ele>191.66666666666666</ele><time>2026-05-02T08:30:31Z</time></trkpt><trkpt lat="44.04528196533248" lon="10.46180071574361"><ele>202.0</ele><time>2026-05-02T08:30:32Z</time></trkpt><trkpt lat="44.04539645136321" lon="10.461639136001432"><ele>202.0</ele><time>2026-05-02T08:30:33Z</time></trkpt><trkpt lat="44.04550717904628" lon="10.461483006740261"><ele>202.0</ele><time>2026-05-02T08:30:34Z</time></trkpt><trkpt lat="44.045609652330214" lon="10.461333983496157"><ele>202.0</ele><time>2026-05-02T08:30:35Z</time></trkpt><trkpt lat="44.04570936714491" lon="10.461185819184283"><ele>197.5</ele><time>2026-05-02T08:30:36Z</time></trkpt><trkpt lat="44.04580607517679" lon="10.461037811350671"><ele>193.0</ele><time>2026-05-02T08:30:37Z</time></trkpt><trkpt lat="44.04590118071075" lon="10.460883647336805"><ele>188.5</ele><time>2026-05-02T08:30:38Z</time></trkpt><trkpt lat="44.045986015638505" lon="10.46072062905169"><ele>184.0</ele><time>2026-05-02T08:30:39Z</time></trkpt><trkpt lat="44.046063952609025" lon="10.460549415016432"><ele>188.0</ele><time>2026-05-02T08:30:40Z</time></trkpt><trkpt lat="44.04613643735265" lon="10.460376729914602"><ele>192.0</ele><time>2026-05-02T08:30:41Z</time></trkpt><trkpt lat="44.04620365666371" lon="10.460195763961215"><ele>196.0</ele><time>2026-05-02T08:30:42Z</time></trkpt><trkpt lat="44.04626555873451" lon="10.460005624598054"><ele>200.0</ele><time>2026-05-02T08:30:43Z</time></trkpt><trkpt lat="44.0463262136351" lon="10.459814887273803"><ele>200.0</ele><time>2026-05-02T08:30:44Z</time></trkpt><trkpt lat="44.04638383557092" lon="10.459624404796449"><ele>200.0</ele><time>2026-05-02T08:30:45Z</time></trkpt><trkpt lat="44.046439567504414" lon="10.459429817858801"><ele>200.0</ele><time>2026-05-02T08:30:46Z</time></trkpt><trkpt lat="44.04649219531879" lon="10.45923441397568"><ele>200.0</ele><time>2026-05-02T08:30:47Z</time></trkpt><trkpt lat="44.04654614195493" lon="10.459040787589375"><ele>203.0</ele><time>2026-05-02T08:30:48Z</time></trkpt><trkpt lat="44.04660190254966" lon="10.458851302714168"><ele>206.0</ele><time>2026-05-02T08:30:49Z</time></trkpt><trkpt lat="44.04666651318214" lon="10.458659467387639"><ele>209.0</ele><time>2026-05-02T08:30:50Z</time></trkpt><trkpt lat="44.046740085430585" lon="10.458467601619098"><ele>207.66666666666669</ele><time>2026-05-02T08:30:51Z</time></trkpt><trkpt lat="44.04682772429339" lon="10.458281734248317"><ele>206.33333333333331</ele><time>2026-05-02T08:30:52Z</time></trkpt><trkpt lat="44.04692875957752" lon="10.458107710114689"><ele>205.0</ele><time>2026-05-02T08:30:53Z</time></trkpt><trkpt lat="44.047041367063855" lon="10.457941952412321"><ele>205.0</ele><time>2026-05-02T08:30:54Z</time></trkpt><trkpt lat="44.047153684813324" lon="10.457774842802635"><ele>205.0</ele><time>2026-05-02T08:30:55Z</time></trkpt><trkpt lat="44.047269703511176" lon="10.457609372138137"><ele>205.0</ele><time>2026-05-02T08:30:56Z</time></trkpt><trkpt lat="44.047388840253014" lon="10.457428230828464"><ele>200.33333333333331</ele><time>2026-05-02T08:30:57Z</time></trkpt><trkpt lat="44.04751856560064" lon="10.457237801797831"><ele>195.66666666666666</ele><time>2026-05-02T08:30:58Z</time></trkpt><trkpt lat="44.04765109950808" lon="10.457054684149849"><ele>191.0</ele><time>2026-05-02T08:30:59Z</time></trkpt><trkpt lat="44.0477808037932" lon="10.456880800348163"><ele>191.0</ele><time>2026-05-02T08:31:00Z</time></trkpt><trkpt lat="44.04790426247594" lon="10.45671001677885"><ele>191.0</ele><time>2026-05-02T08:31:01Z</time></trkpt><trkpt lat="44.04801474265881" lon="10.456550076088254"><ele>191.0</ele><time>2026-05-02T08:31:02Z</time></trkpt><trkpt lat="44.048123084308955" lon="10.45639884831793"><ele>189.33333333333331</ele><time>2026-05-02T08:31:03Z</time></trkpt><trkpt lat="44.04823269248801" lon="10.456261172861453"><ele>187.66666666666666</ele><time>2026-05-02T08:31:04Z</time></trkpt><trkpt lat="44.04834824830656" lon="10.45612994430103"><ele>186.0</ele><time>2026-05-02T08:31:05Z</time></trkpt><trkpt lat="44.048473280883734" lon="10.45600652086521"><ele>186.0</ele><time>2026-05-02T08:31:06Z</time></trkpt><trkpt lat="44.04860422975086" lon="10.455901111780937"><ele>186.0</ele><time>2026-05-02T08:31:07Z</time></trkpt><trkpt lat="44.048745524400836" lon="10.455813090252443"><ele>186.0</ele><time>2026-05-02T08:31:08Z</time></trkpt><trkpt lat="44.04888938902282" lon="10.455730511617942"><ele>186.0</ele><time>2026-05-02T08:31:09Z</time></trkpt><trkpt lat="44.049035560834106" lon="10.455643942467887"><ele>186.0</ele><time>2026-05-02T08:31:10Z</time></trkpt><trkpt lat="44.049179291116175" lon="10.455562754828676"><ele>186.0</ele><time>2026-05-02T08:31:11Z</time></trkpt><trkpt lat="44.04932250650882" lon="10.45547985047644"><ele>185.5</ele><time>2026-05-02T08:31:12Z</time></trkpt><trkpt lat="44.04946312304212" lon="10.455397208013494"><ele>185.0</ele><time>2026-05-02T08:31:13Z</time></trkpt><trkpt lat="44.049598650792284" lon="10.455317643908629"><ele>184.5</ele><time>2026-05-02T08:31:14Z</time></trkpt><trkpt lat="44.04973055708341" lon="10.455238871907238"><ele>184.0</ele><time>2026-05-02T08:31:15Z</time></trkpt><trkpt lat="44.049860184009425" lon="10.455158892409857"><ele>181.0</ele><time>2026-05-02T08:31:16Z</time></trkpt><trkpt lat="44.04998082881916" lon="10.455073399096785"><ele>178.0</ele><time>2026-05-02T08:31:17Z</time></trkpt><trkpt lat="44.05009626987284" lon="10.454976073929785"><ele>175.0</ele><time>2026-05-02T08:31:18Z</time></trkpt><trkpt lat="44.05020974162635" lon="10.454870735473234"><ele>172.0</ele><time>2026-05-02T08:31:19Z</time></trkpt><trkpt lat="44.050324627444915" lon="10.454739642686588"><ele>174.0</ele><time>2026-05-02T08:31:20Z</time></trkpt><trkpt lat="44.050438258334864" lon="10.454594492803906"><ele>176.0</ele><time>2026-05-02T08:31:20.999Z</time></trkpt><trkpt lat="44.05054818624071" lon="10.454428246791323"><ele>178.0</ele><time>2026-05-02T08:31:21.999Z</time></trkpt><trkpt lat="44.05065856327175" lon="10.454244599932267"><ele>178.0</ele><time>2026-05-02T08:31:22.999Z</time></trkpt><trkpt lat="44.05076400588653" lon="10.454049020024925"><ele>178.0</ele><time>2026-05-02T08:31:23.999Z</time></trkpt><trkpt lat="44.05086500026496" lon="10.453840001416053"><ele>178.0</ele><time>2026-05-02T08:31:24.999Z</time></trkpt><trkpt lat="44.050960830936624" lon="10.45361746040638"><ele>174.66666666666669</ele><time>2026-05-02T08:31:25.999Z</time></trkpt><trkpt lat="44.05105803506337" lon="10.453389032105862"><ele>171.33333333333334</ele><time>2026-05-02T08:31:26.999Z</time></trkpt><trkpt lat="44.05115939129967" lon="10.453161868544651"><ele>168.0</ele><time>2026-05-02T08:31:27.999Z</time></trkpt><trkpt lat="44.05126255736181" lon="10.452934687869972"><ele>168.0</ele><time>2026-05-02T08:31:28.999Z</time></trkpt><trkpt lat="44.051372938082956" lon="10.452712455955105"><ele>168.0</ele><time>2026-05-02T08:31:29.999Z</time></trkpt><trkpt lat="44.05149028403118" lon="10.452499475979334"><ele>168.0</ele><time>2026-05-02T08:31:30.999Z</time></trkpt><trkpt lat="44.05161469000168" lon="10.452300751163712"><ele>167.33333333333334</ele><time>2026-05-02T08:31:31.999Z</time></trkpt><trkpt lat="44.05175035605081" lon="10.452113874001725"><ele>166.66666666666669</ele><time>2026-05-02T08:31:32.999Z</time></trkpt><trkpt lat="44.05189169039245" lon="10.451948393412046"><ele>166.0</ele><time>2026-05-02T08:31:33.999Z</time></trkpt><trkpt lat="44.05204197474277" lon="10.451808927804775"><ele>166.0</ele><time>2026-05-02T08:31:34.999Z</time></trkpt><trkpt lat="44.05220301665544" lon="10.451684598419067"><ele>166.0</ele><time>2026-05-02T08:31:35.999Z</time></trkpt><trkpt lat="44.052372452140496" lon="10.451574356610703"><ele>166.0</ele><time>2026-05-02T08:31:36.999Z</time></trkpt><trkpt lat="44.05254498396562" lon="10.451485593671531"><ele>165.33333333333334</ele><time>2026-05-02T08:31:37.999Z</time></trkpt><trkpt lat="44.052725042148175" lon="10.451414838143924"><ele>164.66666666666666</ele><time>2026-05-02T08:31:38.999Z</time></trkpt><trkpt lat="44.05290881689724" lon="10.451357866209953"><ele>164.0</ele><time>2026-05-02T08:31:39.999Z</time></trkpt><trkpt lat="44.05309144569114" lon="10.451308264435928"><ele>164.33333333333331</ele><time>2026-05-02T08:31:40.999Z</time></trkpt><trkpt lat="44.05327520122598" lon="10.45125911294277"><ele>164.66666666666666</ele><time>2026-05-02T08:31:41.999Z</time></trkpt><trkpt lat="44.05346197296664" lon="10.451211025512183"><ele>165.0</ele><time>2026-05-02T08:31:42.999Z</time></trkpt><trkpt lat="44.053647850826295" lon="10.451165288611449"><ele>165.0</ele><time>2026-05-02T08:31:43.999Z</time></trkpt><trkpt lat="44.0538373957477" lon="10.451118182034577"><ele>165.0</ele><time>2026-05-02T08:31:44.999Z</time></trkpt><trkpt lat="44.05402614884836" lon="10.451065501249305"><ele>165.0</ele><time>2026-05-02T08:31:45.999Z</time></trkpt><trkpt lat="44.05421437766227" lon="10.451004900071576"><ele>164.66666666666666</ele><time>2026-05-02T08:31:46.999Z</time></trkpt><trkpt lat="44.054402938647605" lon="10.45093243330557"><ele>164.33333333333331</ele><time>2026-05-02T08:31:47.999Z</time></trkpt><trkpt lat="44.054587727904476" lon="10.450848463022604"><ele>164.0</ele><time>2026-05-02T08:31:48.999Z</time></trkpt><trkpt lat="44.05477085433506" lon="10.450752683965916"><ele>164.0</ele><time>2026-05-02T08:31:49.999Z</time></trkpt><trkpt lat="44.05494382360858" lon="10.450644805466634"><ele>164.0</ele><time>2026-05-02T08:31:50.999Z</time></trkpt><trkpt lat="44.05510031869746" lon="10.450533238390411"><ele>164.0</ele><time>2026-05-02T08:31:51.999Z</time></trkpt><trkpt lat="44.05524037462405" lon="10.450417452729937"><ele>166.0</ele><time>2026-05-02T08:31:52.999Z</time></trkpt><trkpt lat="44.05536882533012" lon="10.450293132598855"><ele>168.0</ele><time>2026-05-02T08:31:53.999Z</time></trkpt><trkpt lat="44.055495401936554" lon="10.450154870769076"><ele>170.0</ele><time>2026-05-02T08:31:54.999Z</time></trkpt><trkpt lat="44.05562202627374" lon="10.450006792328471"><ele>170.0</ele><time>2026-05-02T08:31:56.001Z</time></trkpt><trkpt lat="44.05574866652469" lon="10.449847696110806"><ele>170.0</ele><time>2026-05-02T08:31:57.001Z</time></trkpt><trkpt lat="44.05588231933625" lon="10.449675238678584"><ele>170.0</ele><time>2026-05-02T08:31:58.001Z</time></trkpt><trkpt lat="44.05602139150033" lon="10.449491480158327"><ele>170.66666666666666</ele><time>2026-05-02T08:31:59.001Z</time></trkpt><trkpt lat="44.05615948617356" lon="10.449306592714748"><ele>171.33333333333334</ele><time>2026-05-02T08:32:00.001Z</time></trkpt><trkpt lat="44.056303793466114" lon="10.44911195314248"><ele>172.0</ele><time>2026-05-02T08:32:01.001Z</time></trkpt><trkpt lat="44.056452684702364" lon="10.448908176448995"><ele>172.66666666666669</ele><time>2026-05-02T08:32:02.001Z</time></trkpt><trkpt lat="44.056603538347616" lon="10.448699240977371"><ele>173.33333333333334</ele><time>2026-05-02T08:32:03.001Z</time></trkpt><trkpt lat="44.0567580524081" lon="10.448485476924896"><ele>174.0</ele><time>2026-05-02T08:32:04.001Z</time></trkpt><trkpt lat="44.05691321178434" lon="10.448272420098046"><ele>173.33333333333334</ele><time>2026-05-02T08:32:05.001Z</time></trkpt><trkpt lat="44.05706483919873" lon="10.44806489793827"><ele>172.66666666666669</ele><time>2026-05-02T08:32:06.001Z</time></trkpt><trkpt lat="44.057220999055794" lon="10.447854511245186"><ele>172.0</ele><time>2026-05-02T08:32:07.001Z</time></trkpt><trkpt lat="44.05738133907876" lon="10.447637500348783"><ele>171.0</ele><time>2026-05-02T08:32:08.001Z</time></trkpt><trkpt lat="44.057542415766726" lon="10.447419394964756"><ele>170.0</ele><time>2026-05-02T08:32:09.001Z</time></trkpt><trkpt lat="44.057703241173094" lon="10.447199457776753"><ele>171.0</ele><time>2026-05-02T08:32:10.001Z</time></trkpt><trkpt lat="44.05786239251776" lon="10.446979178319053"><ele>172.0</ele><time>2026-05-02T08:32:11.001Z</time></trkpt><trkpt lat="44.05802343834216" lon="10.44675998706093"><ele>172.0</ele><time>2026-05-02T08:32:12.001Z</time></trkpt><trkpt lat="44.05818657584017" lon="10.44654129741766"><ele>172.0</ele><time>2026-05-02T08:32:13.001Z</time></trkpt><trkpt lat="44.0583494729973" lon="10.446324825991876"><ele>172.5</ele><time>2026-05-02T08:32:14.001Z</time></trkpt><trkpt lat="44.05851194292662" lon="10.446106490057224"><ele>173.0</ele><time>2026-05-02T08:32:15.001Z</time></trkpt><trkpt lat="44.058673783145196" lon="10.445887318349895"><ele>173.0</ele><time>2026-05-02T08:32:16.001Z</time></trkpt><trkpt lat="44.058834752016445" lon="10.445667478278297"><ele>173.0</ele><time>2026-05-02T08:32:17.001Z</time></trkpt><trkpt lat="44.05899581868887" lon="10.44545197691083"><ele>173.0</ele><time>2026-05-02T08:32:18.001Z</time></trkpt><trkpt lat="44.059156541332285" lon="10.44524018809827"><ele>172.66666666666666</ele><time>2026-05-02T08:32:19.001Z</time></trkpt><trkpt lat="44.05931186030877" lon="10.445031111311105"><ele>172.33333333333334</ele><time>2026-05-02T08:32:20.001Z</time></trkpt><trkpt lat="44.05946058665963" lon="10.444830324726283"><ele>172.0</ele><time>2026-05-02T08:32:21.001Z</time></trkpt><trkpt lat="44.05960613156302" lon="10.44463361687075"><ele>173.33333333333334</ele><time>2026-05-02T08:32:22.001Z</time></trkpt><trkpt lat="44.05975476046435" lon="10.44444250886422"><ele>174.66666666666666</ele><time>2026-05-02T08:32:23.001Z</time></trkpt><trkpt lat="44.05990887965778" lon="10.444269623540015"><ele>176.0</ele><time>2026-05-02T08:32:24.001Z</time></trkpt><trkpt lat="44.06007683500304" lon="10.444114588116935"><ele>176.33333333333331</ele><time>2026-05-02T08:32:25.001Z</time></trkpt><trkpt lat="44.06025118712039" lon="10.443977452488822"><ele>176.66666666666666</ele><time>2026-05-02T08:32:26.001Z</time></trkpt><trkpt lat="44.060429990865096" lon="10.443845120552119"><ele>177.0</ele><time>2026-05-02T08:32:27.001Z</time></trkpt><trkpt lat="44.06061948163661" lon="10.443732051555713"><ele>178.33333333333334</ele><time>2026-05-02T08:32:28.001Z</time></trkpt><trkpt lat="44.06081654489642" lon="10.443632991018804"><ele>179.66666666666669</ele><time>2026-05-02T08:32:29.001Z</time></trkpt><trkpt lat="44.06100757100619" lon="10.443553007258572"><ele>181.0</ele><time>2026-05-02T08:32:30.001Z</time></trkpt><trkpt lat="44.061196686415016" lon="10.443476707047399"><ele>181.0</ele><time>2026-05-02T08:32:31Z</time></trkpt><trkpt lat="44.06138161555746" lon="10.443393585608396"><ele>181.0</ele><time>2026-05-02T08:32:32Z</time></trkpt><trkpt lat="44.06156594449073" lon="10.443305871305034"><ele>181.0</ele><time>2026-05-02T08:32:33Z</time></trkpt><trkpt lat="44.06174526179463" lon="10.443211655056142"><ele>181.0</ele><time>2026-05-02T08:32:34Z</time></trkpt><trkpt lat="44.06192554668364" lon="10.4431244597135"><ele>181.0</ele><time>2026-05-02T08:32:35Z</time></trkpt><trkpt lat="44.06210066152674" lon="10.443035786515075"><ele>181.0</ele><time>2026-05-02T08:32:36Z</time></trkpt><trkpt lat="44.06224112654349" lon="10.44284902258317"><ele>181.33333333333334</ele><time>2026-05-02T08:32:37Z</time></trkpt><trkpt lat="44.06239306955358" lon="10.44270738722933"><ele>181.66666666666666</ele><time>2026-05-02T08:32:38Z</time></trkpt><trkpt lat="44.06254248654712" lon="10.442565301933126"><ele>182.0</ele><time>2026-05-02T08:32:39Z</time></trkpt><trkpt lat="44.0626983958721" lon="10.442428969399934"><ele>182.0</ele><time>2026-05-02T08:32:40Z</time></trkpt><trkpt lat="44.06285110974167" lon="10.442303821360403"><ele>182.0</ele><time>2026-05-02T08:32:41Z</time></trkpt><trkpt lat="44.063009382174606" lon="10.44218210353531"><ele>182.0</ele><time>2026-05-02T08:32:42Z</time></trkpt><trkpt lat="44.06316523483783" lon="10.44206740376629"><ele>183.33333333333331</ele><time>2026-05-02T08:32:43Z</time></trkpt><trkpt lat="44.06332569075557" lon="10.441954995316058"><ele>184.66666666666666</ele><time>2026-05-02T08:32:44Z</time></trkpt><trkpt lat="44.06349078358818" lon="10.441853553069192"><ele>186.0</ele><time>2026-05-02T08:32:45Z</time></trkpt><trkpt lat="44.06365136817386" lon="10.441760038069377"><ele>186.0</ele><time>2026-05-02T08:32:46Z</time></trkpt><trkpt lat="44.063814017066235" lon="10.441673736617542"><ele>186.0</ele><time>2026-05-02T08:32:47Z</time></trkpt><trkpt lat="44.06397195600698" lon="10.441592493934266"><ele>186.0</ele><time>2026-05-02T08:32:48Z</time></trkpt><trkpt lat="44.06412737183281" lon="10.441514661037953"><ele>186.66666666666666</ele><time>2026-05-02T08:32:49Z</time></trkpt><trkpt lat="44.064276452117134" lon="10.441445013442877"><ele>187.33333333333331</ele><time>2026-05-02T08:32:50Z</time></trkpt><trkpt lat="44.064425017519696" lon="10.441378339394957"><ele>188.0</ele><time>2026-05-02T08:32:51Z</time></trkpt><trkpt lat="44.06457317788481" lon="10.441316931017402"><ele>188.5</ele><time>2026-05-02T08:32:52Z</time></trkpt><trkpt lat="44.0647177070889" lon="10.441259284959838"><ele>189.0</ele><time>2026-05-02T08:32:53Z</time></trkpt><trkpt lat="44.06485742866964" lon="10.441207820675507"><ele>189.5</ele><time>2026-05-02T08:32:54Z</time></trkpt><trkpt lat="44.064993677449685" lon="10.441159076158913"><ele>190.0</ele><time>2026-05-02T08:32:55Z</time></trkpt><trkpt lat="44.06511683143005" lon="10.441118793490404"><ele>190.16666666666669</ele><time>2026-05-02T08:32:56Z</time></trkpt><trkpt lat="44.06521737428959" lon="10.441088292992147"><ele>190.33333333333334</ele><time>2026-05-02T08:32:57Z</time></trkpt><trkpt lat="44.065291822802784" lon="10.441066976292134"><ele>190.5</ele><time>2026-05-02T08:32:58Z</time></trkpt><trkpt lat="44.065361080755174" lon="10.441054561129645"><ele>190.66666666666666</ele><time>2026-05-02T08:32:59Z</time></trkpt><trkpt lat="44.06542454125413" lon="10.44104589825498"><ele>190.83333333333331</ele><time>2026-05-02T08:33:00Z</time></trkpt><trkpt lat="44.06554264300566" lon="10.441030177611752"><ele>191.0</ele><time>2026-05-02T08:33:02Z</time></trkpt><trkpt lat="44.065667169827826" lon="10.441003120289574"><ele>191.0</ele><time>2026-05-02T08:33:04Z</time></trkpt><trkpt lat="44.06574405205698" lon="10.440984105330088"><ele>191.0</ele><time>2026-05-02T08:33:05Z</time></trkpt><trkpt lat="44.065826827976174" lon="10.440953248371882"><ele>191.0</ele><time>2026-05-02T08:33:06Z</time></trkpt><trkpt lat="44.065919740707294" lon="10.440916787211249"><ele>191.0</ele><time>2026-05-02T08:33:07Z</time></trkpt><trkpt lat="44.0660188342477" lon="10.440890549714933"><ele>191.0</ele><time>2026-05-02T08:33:08Z</time></trkpt><trkpt lat="44.066128648194486" lon="10.440871136471685"><ele>190.5</ele><time>2026-05-02T08:33:09Z</time></trkpt><trkpt lat="44.066247261469286" lon="10.440850170056553"><ele>190.0</ele><time>2026-05-02T08:33:10Z</time></trkpt><trkpt lat="44.0663758262243" lon="10.440825552556994"><ele>189.5</ele><time>2026-05-02T08:33:11Z</time></trkpt><trkpt lat="44.066511371518125" lon="10.440797707177286"><ele>189.0</ele><time>2026-05-02T08:33:12Z</time></trkpt><trkpt lat="44.06665222541377" lon="10.440769566869283"><ele>188.0</ele><time>2026-05-02T08:33:13Z</time></trkpt><trkpt lat="44.06679946111847" lon="10.440739354683691"><ele>187.0</ele><time>2026-05-02T08:33:14Z</time></trkpt><trkpt lat="44.06694450311375" lon="10.440707939950483"><ele>186.0</ele><time>2026-05-02T08:33:15Z</time></trkpt><trkpt lat="44.06709542962889" lon="10.440677487687337"><ele>185.0</ele><time>2026-05-02T08:33:16Z</time></trkpt><trkpt lat="44.067249413597004" lon="10.440649850004228"><ele>185.0</ele><time>2026-05-02T08:33:17Z</time></trkpt><trkpt lat="44.06740866193792" lon="10.440624781607497"><ele>185.0</ele><time>2026-05-02T08:33:18Z</time></trkpt><trkpt lat="44.06756932168315" lon="10.44059628869406"><ele>185.0</ele><time>2026-05-02T08:33:19Z</time></trkpt><trkpt lat="44.06773299191985" lon="10.440565790282909"><ele>184.66666666666666</ele><time>2026-05-02T08:33:20Z</time></trkpt><trkpt lat="44.067897330388945" lon="10.44052911172866"><ele>184.33333333333334</ele><time>2026-05-02T08:33:21Z</time></trkpt><trkpt lat="44.068066859599455" lon="10.440494808352137"><ele>184.0</ele><time>2026-05-02T08:33:22Z</time></trkpt><trkpt lat="44.068239534342446" lon="10.440462152919787"><ele>185.0</ele><time>2026-05-02T08:33:23Z</time></trkpt><trkpt lat="44.068414263092976" lon="10.440427046217868"><ele>186.0</ele><time>2026-05-02T08:33:24Z</time></trkpt><trkpt lat="44.06859211308297" lon="10.440391213846972"><ele>187.0</ele><time>2026-05-02T08:33:25Z</time></trkpt><trkpt lat="44.06877402354824" lon="10.440355388110662"><ele>187.0</ele><time>2026-05-02T08:33:26Z</time></trkpt><trkpt lat="44.068959639249606" lon="10.440318177908452"><ele>187.0</ele><time>2026-05-02T08:33:27Z</time></trkpt><trkpt lat="44.069150378915474" lon="10.440283775581479"><ele>187.0</ele><time>2026-05-02T08:33:28Z</time></trkpt><trkpt lat="44.06934088551191" lon="10.44024873245142"><ele>186.66666666666669</ele><time>2026-05-02T08:33:29Z</time></trkpt><trkpt lat="44.069532894614724" lon="10.440211780402976"><ele>186.33333333333334</ele><time>2026-05-02T08:33:30Z</time></trkpt><trkpt lat="44.06972857191318" lon="10.44017592785092"><ele>186.0</ele><time>2026-05-02T08:33:31Z</time></trkpt><trkpt lat="44.06992936944921" lon="10.440137537612292"><ele>187.0</ele><time>2026-05-02T08:33:32Z</time></trkpt><trkpt lat="44.070137019437894" lon="10.440098040596729"><ele>188.0</ele><time>2026-05-02T08:33:33Z</time></trkpt><trkpt lat="44.070343763518444" lon="10.440061363809713"><ele>189.0</ele><time>2026-05-02T08:33:34Z</time></trkpt><trkpt lat="44.070547634595265" lon="10.440025246832974"><ele>189.0</ele><time>2026-05-02T08:33:35Z</time></trkpt><trkpt lat="44.07075149902074" lon="10.439989845993964"><ele>189.0</ele><time>2026-05-02T08:33:35.999Z</time></trkpt><trkpt lat="44.07095471689854" lon="10.439954802759862"><ele>189.0</ele><time>2026-05-02T08:33:36.999Z</time></trkpt><trkpt lat="44.071160646534885" lon="10.43991917573768"><ele>189.0</ele><time>2026-05-02T08:33:37.999Z</time></trkpt><trkpt lat="44.071366916206316" lon="10.439881661469819"><ele>189.0</ele><time>2026-05-02T08:33:38.999Z</time></trkpt><trkpt lat="44.07157387558672" lon="10.439843707777383"><ele>189.0</ele><time>2026-05-02T08:33:39.999Z</time></trkpt><trkpt lat="44.07178136509787" lon="10.439804103078778"><ele>189.66666666666666</ele><time>2026-05-02T08:33:40.999Z</time></trkpt><trkpt lat="44.07198535825937" lon="10.439766504755129"><ele>190.33333333333331</ele><time>2026-05-02T08:33:41.999Z</time></trkpt><trkpt lat="44.07218462342017" lon="10.439728241516653"><ele>191.0</ele><time>2026-05-02T08:33:42.999Z</time></trkpt><trkpt lat="44.07238362062028" lon="10.439696710780343"><ele>189.0</ele><time>2026-05-02T08:33:43.999Z</time></trkpt><trkpt lat="44.072582482338476" lon="10.439668782311925"><ele>187.0</ele><time>2026-05-02T08:33:44.999Z</time></trkpt><trkpt lat="44.07277689371915" lon="10.439648913528677"><ele>185.0</ele><time>2026-05-02T08:33:45.999Z</time></trkpt><trkpt lat="44.07296729153423" lon="10.439641006577906"><ele>185.0</ele><time>2026-05-02T08:33:46.999Z</time></trkpt><trkpt lat="44.07315463018844" lon="10.439645759973603"><ele>185.0</ele><time>2026-05-02T08:33:47.999Z</time></trkpt><trkpt lat="44.073341173695326" lon="10.439660886123717"><ele>185.0</ele><time>2026-05-02T08:33:48.999Z</time></trkpt><trkpt lat="44.073529399457705" lon="10.43968615286478"><ele>184.0</ele><time>2026-05-02T08:33:49.999Z</time></trkpt><trkpt lat="44.073718098021786" lon="10.439726597363052"><ele>183.0</ele><time>2026-05-02T08:33:50.999Z</time></trkpt><trkpt lat="44.073903390676385" lon="10.439789513093855"><ele>182.0</ele><time>2026-05-02T08:33:51.999Z</time></trkpt><trkpt lat="44.074087399857504" lon="10.439861291502206"><ele>181.0</ele><time>2026-05-02T08:33:52.999Z</time></trkpt><trkpt lat="44.07426805847131" lon="10.439940659930766"><ele>180.0</ele><time>2026-05-02T08:33:53.999Z</time></trkpt><trkpt lat="44.074446033313926" lon="10.440036075093257"><ele>179.0</ele><time>2026-05-02T08:33:54.999Z</time></trkpt><trkpt lat="44.07461802161842" lon="10.440146239153822"><ele>179.0</ele><time>2026-05-02T08:33:55.999Z</time></trkpt><trkpt lat="44.07478407716322" lon="10.440267329307487"><ele>179.0</ele><time>2026-05-02T08:33:56.999Z</time></trkpt><trkpt lat="44.074947621079794" lon="10.440396788553041"><ele>179.0</ele><time>2026-05-02T08:33:57.999Z</time></trkpt><trkpt lat="44.07510767033516" lon="10.440531766655631"><ele>179.66666666666666</ele><time>2026-05-02T08:33:58.999Z</time></trkpt><trkpt lat="44.07526433518378" lon="10.440667592186768"><ele>180.33333333333334</ele><time>2026-05-02T08:33:59.999Z</time></trkpt><trkpt lat="44.075416931123044" lon="10.4408083825299"><ele>181.0</ele><time>2026-05-02T08:34:00.999Z</time></trkpt><trkpt lat="44.075570081718155" lon="10.440951787097308"><ele>181.0</ele><time>2026-05-02T08:34:02.001Z</time></trkpt><trkpt lat="44.07572273096761" lon="10.441094406759351"><ele>181.0</ele><time>2026-05-02T08:34:03.001Z</time></trkpt><trkpt lat="44.07587799876432" lon="10.441237238868014"><ele>181.0</ele><time>2026-05-02T08:34:04.001Z</time></trkpt><trkpt lat="44.07603918873653" lon="10.441368075064199"><ele>181.66666666666669</ele><time>2026-05-02T08:34:05.001Z</time></trkpt><trkpt lat="44.07620447052921" lon="10.441487969055874"><ele>182.33333333333334</ele><time>2026-05-02T08:34:06.001Z</time></trkpt><trkpt lat="44.07637602975027" lon="10.441597647804016"><ele>183.0</ele><time>2026-05-02T08:34:07.001Z</time></trkpt><trkpt lat="44.07655214949987" lon="10.44169855304274"><ele>186.0</ele><time>2026-05-02T08:34:08.001Z</time></trkpt><trkpt lat="44.07673105086552" lon="10.441788651953598"><ele>189.0</ele><time>2026-05-02T08:34:09.001Z</time></trkpt><trkpt lat="44.07691585110166" lon="10.441865320954685"><ele>192.0</ele><time>2026-05-02T08:34:10.001Z</time></trkpt><trkpt lat="44.07710433061516" lon="10.44192772283896"><ele>192.0</ele><time>2026-05-02T08:34:11.001Z</time></trkpt><trkpt lat="44.0772982241569" lon="10.441971611227718"><ele>192.0</ele><time>2026-05-02T08:34:12.001Z</time></trkpt><trkpt lat="44.07749843012645" lon="10.441995263579622"><ele>192.0</ele><time>2026-05-02T08:34:13.001Z</time></trkpt><trkpt lat="44.077700743309215" lon="10.442011058042421"><ele>193.33333333333331</ele><time>2026-05-02T08:34:14.001Z</time></trkpt><trkpt lat="44.077899996425906" lon="10.442024707134271"><ele>194.66666666666666</ele><time>2026-05-02T08:34:15.001Z</time></trkpt><trkpt lat="44.07810277222633" lon="10.442040524880413"><ele>196.0</ele><time>2026-05-02T08:34:16.001Z</time></trkpt><trkpt lat="44.07830260272264" lon="10.442053218166604"><ele>197.66666666666666</ele><time>2026-05-02T08:34:17.001Z</time></trkpt><trkpt lat="44.078503782183724" lon="10.442068439068866"><ele>199.33333333333331</ele><time>2026-05-02T08:34:18.001Z</time></trkpt><trkpt lat="44.07870555230427" lon="10.442086333105488"><ele>201.0</ele><time>2026-05-02T08:34:19.001Z</time></trkpt><trkpt lat="44.07890490513797" lon="10.44211248763893"><ele>196.0</ele><time>2026-05-02T08:34:20.001Z</time></trkpt><trkpt lat="44.07910479266127" lon="10.442151245563187"><ele>191.0</ele><time>2026-05-02T08:34:21.001Z</time></trkpt><trkpt lat="44.07930351093541" lon="10.442204498266008"><ele>186.0</ele><time>2026-05-02T08:34:22.001Z</time></trkpt><trkpt lat="44.07949850211263" lon="10.44227083387672"><ele>186.0</ele><time>2026-05-02T08:34:23.001Z</time></trkpt><trkpt lat="44.079692160272955" lon="10.442354781928294"><ele>186.0</ele><time>2026-05-02T08:34:24.001Z</time></trkpt><trkpt lat="44.07988478874883" lon="10.442451953991233"><ele>186.0</ele><time>2026-05-02T08:34:25.001Z</time></trkpt><trkpt lat="44.08007079884982" lon="10.442562979482188"><ele>185.0</ele><time>2026-05-02T08:34:26.001Z</time></trkpt><trkpt lat="44.08025161156766" lon="10.442686360013509"><ele>184.0</ele><time>2026-05-02T08:34:27.001Z</time></trkpt><trkpt lat="44.08043093081983" lon="10.442823657271797"><ele>183.0</ele><time>2026-05-02T08:34:28.001Z</time></trkpt><trkpt lat="44.080605832217714" lon="10.442969554809931"><ele>182.66666666666666</ele><time>2026-05-02T08:34:29.001Z</time></trkpt><trkpt lat="44.08077778519181" lon="10.443120511175584"><ele>182.33333333333331</ele><time>2026-05-02T08:34:30.001Z</time></trkpt><trkpt lat="44.080949065513344" lon="10.443277322746132"><ele>182.0</ele><time>2026-05-02T08:34:31.001Z</time></trkpt><trkpt lat="44.08111625845663" lon="10.443433140491008"><ele>182.0</ele><time>2026-05-02T08:34:32.001Z</time></trkpt><trkpt lat="44.08128674615214" lon="10.443590815692218"><ele>182.0</ele><time>2026-05-02T08:34:33Z</time></trkpt><trkpt lat="44.08145789654177" lon="10.443745371268644"><ele>182.0</ele><time>2026-05-02T08:34:34Z</time></trkpt><trkpt lat="44.08162785456929" lon="10.443899428630528"><ele>182.33333333333331</ele><time>2026-05-02T08:34:35Z</time></trkpt><trkpt lat="44.081796048729515" lon="10.444056305050609"><ele>182.66666666666666</ele><time>2026-05-02T08:34:36Z</time></trkpt><trkpt lat="44.081965050976244" lon="10.444215095268616"><ele>183.0</ele><time>2026-05-02T08:34:37Z</time></trkpt><trkpt lat="44.08213247821462" lon="10.444373832958954"><ele>183.0</ele><time>2026-05-02T08:34:38Z</time></trkpt><trkpt lat="44.08230191202007" lon="10.444533547598105"><ele>183.0</ele><time>2026-05-02T08:34:39Z</time></trkpt><trkpt lat="44.082469870614545" lon="10.444688602020722"><ele>183.0</ele><time>2026-05-02T08:34:40Z</time></trkpt><trkpt lat="44.082641071184796" lon="10.444844840325331"><ele>183.0</ele><time>2026-05-02T08:34:41Z</time></trkpt><trkpt lat="44.08281153510407" lon="10.445001447675008"><ele>183.0</ele><time>2026-05-02T08:34:42Z</time></trkpt><trkpt lat="44.08297999988491" lon="10.44515730786905"><ele>183.0</ele><time>2026-05-02T08:34:43Z</time></trkpt><trkpt lat="44.083148017278454" lon="10.445312258449052"><ele>183.66666666666666</ele><time>2026-05-02T08:34:44Z</time></trkpt><trkpt lat="44.08331578201053" lon="10.44546738899181"><ele>184.33333333333331</ele><time>2026-05-02T08:34:45Z</time></trkpt><trkpt lat="44.08348194401047" lon="10.445621750094075"><ele>185.0</ele><time>2026-05-02T08:34:46Z</time></trkpt><trkpt lat="44.08364756173694" lon="10.445774410976668"><ele>185.0</ele><time>2026-05-02T08:34:47Z</time></trkpt><trkpt lat="44.083810080608814" lon="10.445926139721255"><ele>185.0</ele><time>2026-05-02T08:34:48Z</time></trkpt><trkpt lat="44.08397346132244" lon="10.446076870031883"><ele>185.0</ele><time>2026-05-02T08:34:49Z</time></trkpt><trkpt lat="44.08413758843338" lon="10.446226846741975"><ele>185.66666666666666</ele><time>2026-05-02T08:34:50Z</time></trkpt><trkpt lat="44.08430123487018" lon="10.446374874031417"><ele>186.33333333333334</ele><time>2026-05-02T08:34:51Z</time></trkpt><trkpt lat="44.08446724144588" lon="10.446527582449407"><ele>187.0</ele><time>2026-05-02T08:34:52Z</time></trkpt><trkpt lat="44.08463347166482" lon="10.446684341965819"><ele>187.0</ele><time>2026-05-02T08:34:53Z</time></trkpt><trkpt lat="44.08480003395031" lon="10.446838980778876"><ele>187.0</ele><time>2026-05-02T08:34:54Z</time></trkpt><trkpt lat="44.08496547819608" lon="10.44699064301214"><ele>187.0</ele><time>2026-05-02T08:34:55Z</time></trkpt><trkpt lat="44.08513096658933" lon="10.447141515393062"><ele>188.0</ele><time>2026-05-02T08:34:56Z</time></trkpt><trkpt lat="44.08529661461106" lon="10.447294864042314"><ele>189.0</ele><time>2026-05-02T08:34:57Z</time></trkpt><trkpt lat="44.08546392211204" lon="10.447451809460555"><ele>190.0</ele><time>2026-05-02T08:34:58Z</time></trkpt><trkpt lat="44.085632621677924" lon="10.447610485488887"><ele>190.0</ele><time>2026-05-02T08:34:59Z</time></trkpt><trkpt lat="44.085802226134945" lon="10.447769579232634"><ele>190.0</ele><time>2026-05-02T08:35:00Z</time></trkpt><trkpt lat="44.085973898561726" lon="10.44792741758143"><ele>190.0</ele><time>2026-05-02T08:35:01Z</time></trkpt><trkpt lat="44.08614446689769" lon="10.448083665800782"><ele>190.0</ele><time>2026-05-02T08:35:02Z</time></trkpt><trkpt lat="44.08631505252299" lon="10.448240805341522"><ele>190.0</ele><time>2026-05-02T08:35:03Z</time></trkpt><trkpt lat="44.08648294929249" lon="10.448396229420473"><ele>190.0</ele><time>2026-05-02T08:35:04Z</time></trkpt><trkpt lat="44.086653472297456" lon="10.448554948023263"><ele>189.0</ele><time>2026-05-02T08:35:05Z</time></trkpt><trkpt lat="44.08682182810138" lon="10.448708909575537"><ele>188.0</ele><time>2026-05-02T08:35:06Z</time></trkpt><trkpt lat="44.0869884132419" lon="10.448860514327508"><ele>187.0</ele><time>2026-05-02T08:35:07Z</time></trkpt><trkpt lat="44.08715203742793" lon="10.449008887697955"><ele>187.0</ele><time>2026-05-02T08:35:08Z</time></trkpt><trkpt lat="44.087308607296364" lon="10.449153373874003"><ele>187.0</ele><time>2026-05-02T08:35:09Z</time></trkpt><trkpt lat="44.087459479297465" lon="10.449291412514016"><ele>187.0</ele><time>2026-05-02T08:35:10Z</time></trkpt><trkpt lat="44.08761266129963" lon="10.44942405806913"><ele>187.33333333333334</ele><time>2026-05-02T08:35:11Z</time></trkpt><trkpt lat="44.08776826087459" lon="10.44954999241476"><ele>187.66666666666666</ele><time>2026-05-02T08:35:12Z</time></trkpt><trkpt lat="44.08792185554639" lon="10.449657137548945"><ele>188.0</ele><time>2026-05-02T08:35:13Z</time></trkpt><trkpt lat="44.08807356802269" lon="10.449754246167112"><ele>188.0</ele><time>2026-05-02T08:35:14Z</time></trkpt><trkpt lat="44.08821618751578" lon="10.449839376781362"><ele>188.0</ele><time>2026-05-02T08:35:15Z</time></trkpt><trkpt lat="44.08835081467452" lon="10.44990887599087"><ele>188.0</ele><time>2026-05-02T08:35:16Z</time></trkpt><trkpt lat="44.08848009042932" lon="10.44996242320597"><ele>188.0</ele><time>2026-05-02T08:35:17Z</time></trkpt><trkpt lat="44.088609400803044" lon="10.450004624030912"><ele>192.0</ele><time>2026-05-02T08:35:18Z</time></trkpt><trkpt lat="44.0887351325922" lon="10.45003111459347"><ele>196.0</ele><time>2026-05-02T08:35:19Z</time></trkpt><trkpt lat="44.08885553495913" lon="10.450050051559687"><ele>200.0</ele><time>2026-05-02T08:35:20Z</time></trkpt><trkpt lat="44.08896991513825" lon="10.450055126390838"><ele>204.0</ele><time>2026-05-02T08:35:21Z</time></trkpt><trkpt lat="44.0890782303882" lon="10.450054296770748"><ele>206.0</ele><time>2026-05-02T08:35:22Z</time></trkpt><trkpt lat="44.08919038299908" lon="10.450064578762264"><ele>208.0</ele><time>2026-05-02T08:35:23Z</time></trkpt><trkpt lat="44.08930530483704" lon="10.450098074051184"><ele>210.0</ele><time>2026-05-02T08:35:24Z</time></trkpt><trkpt lat="44.089425369659345" lon="10.450177919092095"><ele>212.0</ele><time>2026-05-02T08:35:25Z</time></trkpt><trkpt lat="44.089534442619396" lon="10.45028883042062"><ele>212.0</ele><time>2026-05-02T08:35:26Z</time></trkpt><trkpt lat="44.08963274509321" lon="10.450430064800546"><ele>212.0</ele><time>2026-05-02T08:35:27Z</time></trkpt><trkpt lat="44.089723841677014" lon="10.450582667375567"><ele>212.0</ele><time>2026-05-02T08:35:28Z</time></trkpt><trkpt lat="44.08981373012195" lon="10.450729889643597"><ele>212.0</ele><time>2026-05-02T08:35:29Z</time></trkpt><trkpt lat="44.08990176847846" lon="10.45086608453627"><ele>210.5</ele><time>2026-05-02T08:35:30Z</time></trkpt><trkpt lat="44.089989996350525" lon="10.450998690068053"><ele>209.0</ele><time>2026-05-02T08:35:31Z</time></trkpt><trkpt lat="44.090074872388634" lon="10.45112901039714"><ele>207.5</ele><time>2026-05-02T08:35:32Z</time></trkpt><trkpt lat="44.09015665943903" lon="10.45125552652924"><ele>206.0</ele><time>2026-05-02T08:35:32.999Z</time></trkpt><trkpt lat="44.09023319101865" lon="10.451376007121471"><ele>205.66666666666669</ele><time>2026-05-02T08:35:33.999Z</time></trkpt><trkpt lat="44.09029184755508" lon="10.451464762068222"><ele>205.33333333333334</ele><time>2026-05-02T08:35:34.999Z</time></trkpt><trkpt lat="44.09033911140839" lon="10.45154343065637"><ele>205.0</ele><time>2026-05-02T08:35:36.999Z</time></trkpt><trkpt lat="44.09039814162979" lon="10.45164344340179"><ele>204.66666666666669</ele><time>2026-05-02T08:35:48.999Z</time></trkpt><trkpt lat="44.090437119321436" lon="10.451715394164895"><ele>204.33333333333334</ele><time>2026-05-02T08:35:50.999Z</time></trkpt><trkpt lat="44.090517434385596" lon="10.451858030797347"><ele>204.0</ele><time>2026-05-02T08:35:52.999Z</time></trkpt><trkpt lat="44.09057436577913" lon="10.451918150809822"><ele>204.0</ele><time>2026-05-02T08:35:53.999Z</time></trkpt><trkpt lat="44.090644302397344" lon="10.451975538582554"><ele>204.0</ele><time>2026-05-02T08:35:54.999Z</time></trkpt><trkpt lat="44.0907287336092" lon="10.452017982090963"><ele>204.0</ele><time>2026-05-02T08:35:55.999Z</time></trkpt><trkpt lat="44.09082254165711" lon="10.45204256934228"><ele>204.0</ele><time>2026-05-02T08:35:56.999Z</time></trkpt><trkpt lat="44.090924038211504" lon="10.452057486238036"><ele>204.0</ele><time>2026-05-02T08:35:57.999Z</time></trkpt><trkpt lat="44.09102775648848" lon="10.452079201622647"><ele>204.2</ele><time>2026-05-02T08:35:58.999Z</time></trkpt><trkpt lat="44.09113221663269" lon="10.452103092784434"><ele>204.39999999999998</ele><time>2026-05-02T08:35:59.999Z</time></trkpt><trkpt lat="44.09123911775999" lon="10.452122599232291"><ele>204.6</ele><time>2026-05-02T08:36:00.999Z</time></trkpt><trkpt lat="44.09134715371009" lon="10.45215127815251"><ele>204.8</ele><time>2026-05-02T08:36:01.999Z</time></trkpt><trkpt lat="44.09145941027151" lon="10.452193737576271"><ele>205.0</ele><time>2026-05-02T08:36:02.999Z</time></trkpt><trkpt lat="44.09158054749567" lon="10.45223749676814"><ele>206.5</ele><time>2026-05-02T08:36:03.999Z</time></trkpt><trkpt lat="44.09171044110898" lon="10.452284524847364"><ele>208.0</ele><time>2026-05-02T08:36:04.999Z</time></trkpt><trkpt lat="44.0918422727224" lon="10.452335391572504"><ele>209.5</ele><time>2026-05-02T08:36:05.999Z</time></trkpt><trkpt lat="44.09198574047027" lon="10.452409868857"><ele>211.0</ele><time>2026-05-02T08:36:06.999Z</time></trkpt><trkpt lat="44.0921299219509" lon="10.452509808487067"><ele>211.0</ele><time>2026-05-02T08:36:08.001Z</time></trkpt><trkpt lat="44.09226110293573" lon="10.45262659088648"><ele>211.0</ele><time>2026-05-02T08:36:09.001Z</time></trkpt><trkpt lat="44.09237502883698" lon="10.4527487823586"><ele>211.0</ele><time>2026-05-02T08:36:10.001Z</time></trkpt><trkpt lat="44.092478041508315" lon="10.452868441410823"><ele>211.0</ele><time>2026-05-02T08:36:11.001Z</time></trkpt><trkpt lat="44.09257851989054" lon="10.452987616074683"><ele>211.0</ele><time>2026-05-02T08:36:12.001Z</time></trkpt><trkpt lat="44.09266956909787" lon="10.453113030000127"><ele>211.0</ele><time>2026-05-02T08:36:13.001Z</time></trkpt><trkpt lat="44.092736792909115" lon="10.453257741769562"><ele>211.0</ele><time>2026-05-02T08:36:14.001Z</time></trkpt><trkpt lat="44.09276654850754" lon="10.453422364092374"><ele>211.0</ele><time>2026-05-02T08:36:15.001Z</time></trkpt><trkpt lat="44.09276435459717" lon="10.453583784862168"><ele>211.0</ele><time>2026-05-02T08:36:16.001Z</time></trkpt><trkpt lat="44.09274474431652" lon="10.453747017865672"><ele>211.0</ele><time>2026-05-02T08:36:17.001Z</time></trkpt><trkpt lat="44.09272742345273" lon="10.453912891000234"><ele>211.0</ele><time>2026-05-02T08:36:18.001Z</time></trkpt><trkpt lat="44.09271808531656" lon="10.454078031454301"><ele>211.0</ele><time>2026-05-02T08:36:19.001Z</time></trkpt><trkpt lat="44.09270898794945" lon="10.454242561587463"><ele>209.75</ele><time>2026-05-02T08:36:20.001Z</time></trkpt><trkpt lat="44.09270018979949" lon="10.454414544205239"><ele>208.5</ele><time>2026-05-02T08:36:21.001Z</time></trkpt><trkpt lat="44.0926957947637" lon="10.454599713375629"><ele>207.25</ele><time>2026-05-02T08:36:22.001Z</time></trkpt><trkpt lat="44.092703080095816" lon="10.454790664813537"><ele>206.0</ele><time>2026-05-02T08:36:23.001Z</time></trkpt><trkpt lat="44.09273782792354" lon="10.454986291982074"><ele>205.75</ele><time>2026-05-02T08:36:24.001Z</time></trkpt><trkpt lat="44.09279570724598" lon="10.455169406221627"><ele>205.5</ele><time>2026-05-02T08:36:25.001Z</time></trkpt><trkpt lat="44.092875872351065" lon="10.455343182980052"><ele>205.25</ele><time>2026-05-02T08:36:26.001Z</time></trkpt><trkpt lat="44.092968782458016" lon="10.455510827858562"><ele>205.0</ele><time>2026-05-02T08:36:27.001Z</time></trkpt><trkpt lat="44.093073125975806" lon="10.45566690901218"><ele>203.33333333333331</ele><time>2026-05-02T08:36:28.001Z</time></trkpt><trkpt lat="44.093191069772395" lon="10.455811499684339"><ele>201.66666666666669</ele><time>2026-05-02T08:36:29.001Z</time></trkpt><trkpt lat="44.093318525612396" lon="10.45594900211746"><ele>200.0</ele><time>2026-05-02T08:36:30.001Z</time></trkpt><trkpt lat="44.09345022362029" lon="10.456081759036936"><ele>202.33333333333334</ele><time>2026-05-02T08:36:31.001Z</time></trkpt><trkpt lat="44.0935845076422" lon="10.456212387489263"><ele>204.66666666666669</ele><time>2026-05-02T08:36:32.001Z</time></trkpt><trkpt lat="44.09371775309414" lon="10.456341849281063"><ele>207.0</ele><time>2026-05-02T08:36:33.001Z</time></trkpt><trkpt lat="44.093862354100395" lon="10.45646481845044"><ele>207.0</ele><time>2026-05-02T08:36:34.001Z</time></trkpt><trkpt lat="44.09402246926053" lon="10.456569681057582"><ele>207.0</ele><time>2026-05-02T08:36:35Z</time></trkpt><trkpt lat="44.09419424493385" lon="10.456649298959666"><ele>207.0</ele><time>2026-05-02T08:36:36Z</time></trkpt><trkpt lat="44.094369133553194" lon="10.456703452662385"><ele>209.0</ele><time>2026-05-02T08:36:37Z</time></trkpt><trkpt lat="44.09454716632232" lon="10.45673939543043"><ele>211.0</ele><time>2026-05-02T08:36:38Z</time></trkpt><trkpt lat="44.094725352250975" lon="10.456757373007587"><ele>213.0</ele><time>2026-05-02T08:36:39Z</time></trkpt><trkpt lat="44.09490828660836" lon="10.456777753253006"><ele>215.33333333333331</ele><time>2026-05-02T08:36:40Z</time></trkpt><trkpt lat="44.09509592771496" lon="10.456787325326811"><ele>217.66666666666666</ele><time>2026-05-02T08:36:41Z</time></trkpt><trkpt lat="44.09529298561211" lon="10.456770206552669"><ele>220.0</ele><time>2026-05-02T08:36:42Z</time></trkpt><trkpt lat="44.095494074095534" lon="10.45674352746217"><ele>220.0</ele><time>2026-05-02T08:36:43Z</time></trkpt><trkpt lat="44.09569223200948" lon="10.456715181620654"><ele>220.0</ele><time>2026-05-02T08:36:44Z</time></trkpt><trkpt lat="44.095894943378084" lon="10.45668019974618"><ele>220.0</ele><time>2026-05-02T08:36:45Z</time></trkpt><trkpt lat="44.09610086909015" lon="10.456638366171589"><ele>219.33333333333331</ele><time>2026-05-02T08:36:46Z</time></trkpt><trkpt lat="44.09631369091802" lon="10.456585844641529"><ele>218.66666666666669</ele><time>2026-05-02T08:36:47Z</time></trkpt><trkpt lat="44.09652445287826" lon="10.45649381048497"><ele>218.0</ele><time>2026-05-02T08:36:48Z</time></trkpt><trkpt lat="44.096763698880345" lon="10.45643850079957"><ele>217.5</ele><time>2026-05-02T08:36:49Z</time></trkpt><trkpt lat="44.09701647933412" lon="10.456397508460089"><ele>217.0</ele><time>2026-05-02T08:36:50Z</time></trkpt><trkpt lat="44.097276249896325" lon="10.45635986141499"><ele>214.5</ele><time>2026-05-02T08:36:51Z</time></trkpt><trkpt lat="44.09753360481317" lon="10.45633842736215"><ele>212.0</ele><time>2026-05-02T08:36:52Z</time></trkpt><trkpt lat="44.097789277076245" lon="10.456311432267137"><ele>229.5</ele><time>2026-05-02T08:36:53Z</time></trkpt><trkpt lat="44.09803534323335" lon="10.456280361341951"><ele>247.0</ele><time>2026-05-02T08:36:54Z</time></trkpt><trkpt lat="44.098272118735" lon="10.456242255650027"><ele>247.0</ele><time>2026-05-02T08:36:55Z</time></trkpt><trkpt lat="44.098500954703695" lon="10.456199965163698"><ele>247.0</ele><time>2026-05-02T08:36:56Z</time></trkpt><trkpt lat="44.09872684360072" lon="10.456146029365508"><ele>247.0</ele><time>2026-05-02T08:36:57Z</time></trkpt><trkpt lat="44.09895043269241" lon="10.45606285323961"><ele>247.0</ele><time>2026-05-02T08:36:58Z</time></trkpt><trkpt lat="44.09917432556533" lon="10.455966946228251"><ele>242.5</ele><time>2026-05-02T08:36:59Z</time></trkpt><trkpt lat="44.09940124699881" lon="10.45587536498092"><ele>238.0</ele><time>2026-05-02T08:37:00Z</time></trkpt><trkpt lat="44.09962523932765" lon="10.455788355089277"><ele>238.0</ele><time>2026-05-02T08:37:01Z</time></trkpt><trkpt lat="44.09984886307772" lon="10.455697048460516"><ele>238.0</ele><time>2026-05-02T08:37:02Z</time></trkpt><trkpt lat="44.10006806627718" lon="10.45558251477982"><ele>255.5</ele><time>2026-05-02T08:37:03Z</time></trkpt><trkpt lat="44.10027876658273" lon="10.455441186565928"><ele>273.0</ele><time>2026-05-02T08:37:04Z</time></trkpt><trkpt lat="44.100482521911516" lon="10.455285963677955"><ele>273.0</ele><time>2026-05-02T08:37:05Z</time></trkpt><trkpt lat="44.100678624639876" lon="10.45511260775976"><ele>273.0</ele><time>2026-05-02T08:37:06Z</time></trkpt><trkpt lat="44.100861422641096" lon="10.454920490037377"><ele>271.5</ele><time>2026-05-02T08:37:07Z</time></trkpt><trkpt lat="44.10103929307212" lon="10.454703440187803"><ele>270.0</ele><time>2026-05-02T08:37:08Z</time></trkpt><trkpt lat="44.101217442013414" lon="10.454458225096067"><ele>270.0</ele><time>2026-05-02T08:37:09Z</time></trkpt><trkpt lat="44.10139858460618" lon="10.454212825201962"><ele>270.0</ele><time>2026-05-02T08:37:10Z</time></trkpt><trkpt lat="44.101579677221004" lon="10.453970212438128"><ele>262.0</ele><time>2026-05-02T08:37:11Z</time></trkpt><trkpt lat="44.101754640978264" lon="10.453729832404427"><ele>254.0</ele><time>2026-05-02T08:37:12Z</time></trkpt><trkpt lat="44.10192800762347" lon="10.453492256967465"><ele>254.0</ele><time>2026-05-02T08:37:13Z</time></trkpt><trkpt lat="44.102095624432444" lon="10.453264510726136"><ele>254.0</ele><time>2026-05-02T08:37:14Z</time></trkpt><trkpt lat="44.10225387225928" lon="10.453050921860024"><ele>249.33333333333334</ele><time>2026-05-02T08:37:15Z</time></trkpt><trkpt lat="44.102402475765054" lon="10.452852522791774"><ele>244.66666666666669</ele><time>2026-05-02T08:37:16Z</time></trkpt><trkpt lat="44.10254529597607" lon="10.452661821279147"><ele>240.0</ele><time>2026-05-02T08:37:17Z</time></trkpt><trkpt lat="44.102678982730396" lon="10.452469413160655"><ele>240.0</ele><time>2026-05-02T08:37:18Z</time></trkpt><trkpt lat="44.10279837141424" lon="10.452259383232567"><ele>240.0</ele><time>2026-05-02T08:37:18.999Z</time></trkpt><trkpt lat="44.102900377796225" lon="10.452009080893358"><ele>240.0</ele><time>2026-05-02T08:37:19.999Z</time></trkpt><trkpt lat="44.10299163829008" lon="10.451733828969935"><ele>237.66666666666669</ele><time>2026-05-02T08:37:20.999Z</time></trkpt><trkpt lat="44.10309494280199" lon="10.45147070976756"><ele>235.33333333333334</ele><time>2026-05-02T08:37:21.999Z</time></trkpt><trkpt lat="44.10319158175599" lon="10.45121584994523"><ele>233.0</ele><time>2026-05-02T08:37:22.999Z</time></trkpt><trkpt lat="44.103286787247335" lon="10.450984612205524"><ele>233.0</ele><time>2026-05-02T08:37:23.999Z</time></trkpt><trkpt lat="44.10337974536785" lon="10.450754346502082"><ele>233.0</ele><time>2026-05-02T08:37:24.999Z</time></trkpt><trkpt lat="44.10347770406887" lon="10.450531444994457"><ele>233.0</ele><time>2026-05-02T08:37:25.999Z</time></trkpt><trkpt lat="44.103585938642446" lon="10.45031501737248"><ele>243.0</ele><time>2026-05-02T08:37:26.999Z</time></trkpt><trkpt lat="44.10370295752959" lon="10.450111643181671"><ele>253.0</ele><time>2026-05-02T08:37:27.999Z</time></trkpt><trkpt lat="44.10383697039567" lon="10.44993244160894"><ele>263.0</ele><time>2026-05-02T08:37:28.999Z</time></trkpt><trkpt lat="44.10398249759373" lon="10.449773745654129"><ele>259.6666666666667</ele><time>2026-05-02T08:37:29.999Z</time></trkpt><trkpt lat="44.104139580048226" lon="10.44962802709521"><ele>256.3333333333333</ele><time>2026-05-02T08:37:30.999Z</time></trkpt><trkpt lat="44.10430474680573" lon="10.449488767438067"><ele>253.0</ele><time>2026-05-02T08:37:31.998Z</time></trkpt><trkpt lat="44.10448274457054" lon="10.449353853482503"><ele>253.0</ele><time>2026-05-02T08:37:32.998Z</time></trkpt><trkpt lat="44.104674272918466" lon="10.449239583277167"><ele>253.0</ele><time>2026-05-02T08:37:33.998Z</time></trkpt><trkpt lat="44.10481775692708" lon="10.449110689873923"><ele>253.0</ele><time>2026-05-02T08:37:34.998Z</time></trkpt><trkpt lat="44.104963721904575" lon="10.44901370935364"><ele>244.33333333333331</ele><time>2026-05-02T08:37:35.998Z</time></trkpt><trkpt lat="44.105130009444075" lon="10.448936560354246"><ele>235.66666666666669</ele><time>2026-05-02T08:37:36.998Z</time></trkpt><trkpt lat="44.10530626905215" lon="10.448878881031073"><ele>227.0</ele><time>2026-05-02T08:37:37.998Z</time></trkpt><trkpt lat="44.105478015145984" lon="10.448824870124811"><ele>237.0</ele><time>2026-05-02T08:37:38.998Z</time></trkpt><trkpt lat="44.10563925821988" lon="10.448771773234748"><ele>247.0</ele><time>2026-05-02T08:37:39.998Z</time></trkpt><trkpt lat="44.105793834584894" lon="10.448718831937796"><ele>257.0</ele><time>2026-05-02T08:37:40.998Z</time></trkpt><trkpt lat="44.1059494335556" lon="10.4486829503684"><ele>257.0</ele><time>2026-05-02T08:37:41.998Z</time></trkpt><trkpt lat="44.10611494498735" lon="10.448688898348378"><ele>257.0</ele><time>2026-05-02T08:37:42.998Z</time></trkpt><trkpt lat="44.10629047291364" lon="10.448729519781072"><ele>257.0</ele><time>2026-05-02T08:37:43.998Z</time></trkpt><trkpt lat="44.10645975539148" lon="10.448772188244767"><ele>245.66666666666669</ele><time>2026-05-02T08:37:44.998Z</time></trkpt><trkpt lat="44.10662571063198" lon="10.448814610445567"><ele>234.33333333333331</ele><time>2026-05-02T08:37:45.998Z</time></trkpt><trkpt lat="44.10678911734803" lon="10.44887943333811"><ele>223.0</ele><time>2026-05-02T08:37:46.998Z</time></trkpt><trkpt lat="44.10694489083185" lon="10.448973794784814"><ele>223.0</ele><time>2026-05-02T08:37:47.998Z</time></trkpt><trkpt lat="44.107092467868064" lon="10.449088720037956"><ele>223.0</ele><time>2026-05-02T08:37:48.998Z</time></trkpt><trkpt lat="44.10723254956458" lon="10.44922275638239"><ele>223.0</ele><time>2026-05-02T08:37:49.998Z</time></trkpt><trkpt lat="44.10736559467136" lon="10.449371241756646"><ele>223.66666666666666</ele><time>2026-05-02T08:37:50.998Z</time></trkpt><trkpt lat="44.10748912422316" lon="10.449522291212048"><ele>224.33333333333331</ele><time>2026-05-02T08:37:51.998Z</time></trkpt><trkpt lat="44.10761061816343" lon="10.44967112227292"><ele>225.0</ele><time>2026-05-02T08:37:52.998Z</time></trkpt><trkpt lat="44.107741192055194" lon="10.449804431459796"><ele>225.0</ele><time>2026-05-02T08:37:53.998Z</time></trkpt><trkpt lat="44.10787580474068" lon="10.44991792149255"><ele>225.0</ele><time>2026-05-02T08:37:54.998Z</time></trkpt><trkpt lat="44.108017988279805" lon="10.450013725025876"><ele>225.0</ele><time>2026-05-02T08:37:55.998Z</time></trkpt><trkpt lat="44.1081669249206" lon="10.450100654206647"><ele>229.0</ele><time>2026-05-02T08:37:56.998Z</time></trkpt><trkpt lat="44.10832070705356" lon="10.450184131972915"><ele>233.0</ele><time>2026-05-02T08:37:57.998Z</time></trkpt><trkpt lat="44.10848104031561" lon="10.450260434652803"><ele>237.0</ele><time>2026-05-02T08:37:58.998Z</time></trkpt><trkpt lat="44.108645031690735" lon="10.450323229054865"><ele>237.0</ele><time>2026-05-02T08:37:59.998Z</time></trkpt><trkpt lat="44.10881138005193" lon="10.450376455616698"><ele>237.0</ele><time>2026-05-02T08:38:00.998Z</time></trkpt><trkpt lat="44.10898842511676" lon="10.450423196969776"><ele>237.0</ele><time>2026-05-02T08:38:01.998Z</time></trkpt><trkpt lat="44.10917218212409" lon="10.450461558710114"><ele>232.66666666666669</ele><time>2026-05-02T08:38:02.998Z</time></trkpt><trkpt lat="44.1093588718903" lon="10.450497804637557"><ele>228.33333333333334</ele><time>2026-05-02T08:38:03.998Z</time></trkpt><trkpt lat="44.10954776063312" lon="10.45053322889831"><ele>224.0</ele><time>2026-05-02T08:38:04.998Z</time></trkpt><trkpt lat="44.10974122553569" lon="10.450563510840093"><ele>226.66666666666669</ele><time>2026-05-02T08:38:05.998Z</time></trkpt><trkpt lat="44.10994264933998" lon="10.45058996334864"><ele>229.33333333333331</ele><time>2026-05-02T08:38:06.998Z</time></trkpt><trkpt lat="44.110149127832116" lon="10.45062097727022"><ele>232.0</ele><time>2026-05-02T08:38:07.998Z</time></trkpt><trkpt lat="44.1103611982485" lon="10.450652218634223"><ele>232.0</ele><time>2026-05-02T08:38:08.998Z</time></trkpt><trkpt lat="44.110576678936184" lon="10.450687393876823"><ele>232.0</ele><time>2026-05-02T08:38:09.998Z</time></trkpt><trkpt lat="44.110789089868526" lon="10.450729813740459"><ele>232.0</ele><time>2026-05-02T08:38:10.998Z</time></trkpt><trkpt lat="44.111002059031016" lon="10.450783051815806"><ele>233.33333333333331</ele><time>2026-05-02T08:38:11.998Z</time></trkpt><trkpt lat="44.11121223948378" lon="10.450851578287892"><ele>234.66666666666669</ele><time>2026-05-02T08:38:12.998Z</time></trkpt><trkpt lat="44.111423667840384" lon="10.450923011043528"><ele>236.0</ele><time>2026-05-02T08:38:14Z</time></trkpt><trkpt lat="44.11163062190202" lon="10.450990340626188"><ele>239.33333333333334</ele><time>2026-05-02T08:38:15Z</time></trkpt><trkpt lat="44.11183749091347" lon="10.45104526106596"><ele>242.66666666666669</ele><time>2026-05-02T08:38:16Z</time></trkpt><trkpt lat="44.11204568328681" lon="10.451067415932721"><ele>246.0</ele><time>2026-05-02T08:38:17Z</time></trkpt><trkpt lat="44.11224916970823" lon="10.451043452654577"><ele>247.33333333333331</ele><time>2026-05-02T08:38:18Z</time></trkpt><trkpt lat="44.112453907479726" lon="10.45097237760874"><ele>248.66666666666666</ele><time>2026-05-02T08:38:19Z</time></trkpt><trkpt lat="44.11264954684066" lon="10.450866060220305"><ele>250.0</ele><time>2026-05-02T08:38:20Z</time></trkpt><trkpt lat="44.112838410468505" lon="10.450733488148348"><ele>250.0</ele><time>2026-05-02T08:38:21Z</time></trkpt><trkpt lat="44.113025887926646" lon="10.450604296814813"><ele>250.0</ele><time>2026-05-02T08:38:22Z</time></trkpt><trkpt lat="44.11320760989443" lon="10.450460184351074"><ele>250.0</ele><time>2026-05-02T08:38:23Z</time></trkpt><trkpt lat="44.11336027522085" lon="10.450330377627498"><ele>252.66666666666666</ele><time>2026-05-02T08:38:24Z</time></trkpt><trkpt lat="44.11351202250694" lon="10.450190571854026"><ele>255.33333333333331</ele><time>2026-05-02T08:38:25Z</time></trkpt><trkpt lat="44.11365954986006" lon="10.450025622392335"><ele>258.0</ele><time>2026-05-02T08:38:26Z</time></trkpt><trkpt lat="44.113794840988106" lon="10.449830856464809"><ele>264.0</ele><time>2026-05-02T08:38:27Z</time></trkpt><trkpt lat="44.11390565623225" lon="10.44961939420151"><ele>270.0</ele><time>2026-05-02T08:38:28Z</time></trkpt><trkpt lat="44.11398520521884" lon="10.4493844534055"><ele>276.0</ele><time>2026-05-02T08:38:29Z</time></trkpt><trkpt lat="44.11403561501077" lon="10.449130590737186"><ele>276.0</ele><time>2026-05-02T08:38:30Z</time></trkpt><trkpt lat="44.114066199626066" lon="10.448861689889695"><ele>276.0</ele><time>2026-05-02T08:38:31Z</time></trkpt><trkpt lat="44.11408114516076" lon="10.448590324611692"><ele>276.0</ele><time>2026-05-02T08:38:32Z</time></trkpt><trkpt lat="44.11409135254254" lon="10.448327366617379"><ele>266.3333333333333</ele><time>2026-05-02T08:38:33Z</time></trkpt><trkpt lat="44.114104791468044" lon="10.448072486793013"><ele>256.66666666666663</ele><time>2026-05-02T08:38:34Z</time></trkpt><trkpt lat="44.11411839257052" lon="10.447814192992936"><ele>247.0</ele><time>2026-05-02T08:38:35Z</time></trkpt><trkpt lat="44.11413763391152" lon="10.44754289298233"><ele>247.0</ele><time>2026-05-02T08:38:36Z</time></trkpt><trkpt lat="44.1141675142156" lon="10.447272966222329"><ele>247.0</ele><time>2026-05-02T08:38:37Z</time></trkpt><trkpt lat="44.114215223757434" lon="10.447006064714175"><ele>247.0</ele><time>2026-05-02T08:38:38Z</time></trkpt><trkpt lat="44.11428578515103" lon="10.446747211895465"><ele>251.66666666666666</ele><time>2026-05-02T08:38:39Z</time></trkpt><trkpt lat="44.11435406117554" lon="10.446513084941984"><ele>256.3333333333333</ele><time>2026-05-02T08:38:40Z</time></trkpt><trkpt lat="44.114437048666545" lon="10.446304848420139"><ele>261.0</ele><time>2026-05-02T08:38:41Z</time></trkpt><trkpt lat="44.114537751539565" lon="10.446108697847045"><ele>253.33333333333331</ele><time>2026-05-02T08:38:42Z</time></trkpt><trkpt lat="44.114650096609694" lon="10.445934676493406"><ele>245.66666666666666</ele><time>2026-05-02T08:38:42.999Z</time></trkpt><trkpt lat="44.11478082730037" lon="10.445781991323926"><ele>238.0</ele><time>2026-05-02T08:38:43.999Z</time></trkpt><trkpt lat="44.11493099423435" lon="10.44565855482552"><ele>238.0</ele><time>2026-05-02T08:38:44.999Z</time></trkpt><trkpt lat="44.11509205863292" lon="10.44555337996782"><ele>238.0</ele><time>2026-05-02T08:38:45.999Z</time></trkpt><trkpt lat="44.115257944903796" lon="10.445462349140023"><ele>238.0</ele><time>2026-05-02T08:38:46.999Z</time></trkpt><trkpt lat="44.11542569904587" lon="10.445388034424463"><ele>243.0</ele><time>2026-05-02T08:38:47.999Z</time></trkpt><trkpt lat="44.11559076056337" lon="10.445320118806688"><ele>248.0</ele><time>2026-05-02T08:38:48.999Z</time></trkpt><trkpt lat="44.11575461592457" lon="10.445255493603264"><ele>253.0</ele><time>2026-05-02T08:38:49.999Z</time></trkpt><trkpt lat="44.115917754257545" lon="10.445189932790447"><ele>253.0</ele><time>2026-05-02T08:38:50.999Z</time></trkpt><trkpt lat="44.11608213689268" lon="10.44512392112085"><ele>253.0</ele><time>2026-05-02T08:38:51.999Z</time></trkpt><trkpt lat="44.11624296800691" lon="10.445058325850786"><ele>253.0</ele><time>2026-05-02T08:38:52.999Z</time></trkpt><trkpt lat="44.11640495796929" lon="10.444989102574361"><ele>253.0</ele><time>2026-05-02T08:38:53.999Z</time></trkpt><trkpt lat="44.11656925904689" lon="10.444912069659829"><ele>253.0</ele><time>2026-05-02T08:38:54.999Z</time></trkpt><trkpt lat="44.11673133391859" lon="10.444834483302747"><ele>253.0</ele><time>2026-05-02T08:38:55.999Z</time></trkpt><trkpt lat="44.11688867767125" lon="10.444749319010793"><ele>250.66666666666666</ele><time>2026-05-02T08:38:56.999Z</time></trkpt><trkpt lat="44.11704399754228" lon="10.444664872119608"><ele>248.33333333333331</ele><time>2026-05-02T08:38:57.999Z</time></trkpt><trkpt lat="44.117198748297106" lon="10.444577390145312"><ele>246.0</ele><time>2026-05-02T08:38:58.999Z</time></trkpt><trkpt lat="44.11734866067418" lon="10.444479847784688"><ele>249.0</ele><time>2026-05-02T08:38:59.999Z</time></trkpt><trkpt lat="44.11748962004008" lon="10.444373464478513"><ele>252.0</ele><time>2026-05-02T08:39:00.999Z</time></trkpt><trkpt lat="44.117622717827146" lon="10.444253193253404"><ele>255.0</ele><time>2026-05-02T08:39:01.999Z</time></trkpt><trkpt lat="44.117743868544004" lon="10.444119737334416"><ele>255.0</ele><time>2026-05-02T08:39:02.999Z</time></trkpt><trkpt lat="44.11785245472047" lon="10.443967374278143"><ele>255.0</ele><time>2026-05-02T08:39:03.999Z</time></trkpt><trkpt lat="44.11794254823888" lon="10.443787336033356"><ele>255.0</ele><time>2026-05-02T08:39:04.999Z</time></trkpt><trkpt lat="44.11800943563289" lon="10.443585440207109"><ele>267.0</ele><time>2026-05-02T08:39:05.999Z</time></trkpt><trkpt lat="44.11806246802862" lon="10.443373666654223"><ele>279.0</ele><time>2026-05-02T08:39:06.999Z</time></trkpt><trkpt lat="44.118106932863434" lon="10.443150738365421"><ele>291.0</ele><time>2026-05-02T08:39:07.999Z</time></trkpt><trkpt lat="44.11813683795831" lon="10.442919203140512"><ele>295.3333333333333</ele><time>2026-05-02T08:39:08.999Z</time></trkpt><trkpt lat="44.1181589695103" lon="10.44268835173961"><ele>299.66666666666663</ele><time>2026-05-02T08:39:09.999Z</time></trkpt><trkpt lat="44.11817034777751" lon="10.442448614361627"><ele>304.0</ele><time>2026-05-02T08:39:10.999Z</time></trkpt><trkpt lat="44.11816966970998" lon="10.442207101709593"><ele>299.0</ele><time>2026-05-02T08:39:11.999Z</time></trkpt><trkpt lat="44.11814467496712" lon="10.441956754354644"><ele>294.0</ele><time>2026-05-02T08:39:12.999Z</time></trkpt><trkpt lat="44.118086599519344" lon="10.441718328246036"><ele>289.0</ele><time>2026-05-02T08:39:13.999Z</time></trkpt><trkpt lat="44.11799743610995" lon="10.441487464152436"><ele>280.66666666666663</ele><time>2026-05-02T08:39:14.999Z</time></trkpt><trkpt lat="44.11787434847622" lon="10.441287376365585"><ele>272.3333333333333</ele><time>2026-05-02T08:39:15.999Z</time></trkpt><trkpt lat="44.117732360126354" lon="10.44111774161458"><ele>264.0</ele><time>2026-05-02T08:39:16.999Z</time></trkpt><trkpt lat="44.11757825412554" lon="10.440961549769336"><ele>264.0</ele><time>2026-05-02T08:39:17.999Z</time></trkpt><trkpt lat="44.117426907361114" lon="10.440810078925438"><ele>264.0</ele><time>2026-05-02T08:39:18.999Z</time></trkpt><trkpt lat="44.11728011479601" lon="10.440652987744375"><ele>264.0</ele><time>2026-05-02T08:39:19.999Z</time></trkpt><trkpt lat="44.1171382098789" lon="10.440493251653589"><ele>268.6666666666667</ele><time>2026-05-02T08:39:20.999Z</time></trkpt><trkpt lat="44.11700559612393" lon="10.44032857151243"><ele>273.33333333333337</ele><time>2026-05-02T08:39:21.999Z</time></trkpt><trkpt lat="44.11688904108794" lon="10.440153093742696"><ele>278.0</ele><time>2026-05-02T08:39:22.999Z</time></trkpt><trkpt lat="44.11679749895284" lon="10.439957458362118"><ele>278.0</ele><time>2026-05-02T08:39:23.999Z</time></trkpt><trkpt lat="44.1167070244447" lon="10.439763071681442"><ele>278.0</ele><time>2026-05-02T08:39:24.999Z</time></trkpt><trkpt lat="44.11663583916687" lon="10.439560394187362"><ele>278.0</ele><time>2026-05-02T08:39:25.999Z</time></trkpt><trkpt lat="44.11657722093918" lon="10.439358624674089"><ele>277.6666666666667</ele><time>2026-05-02T08:39:26.999Z</time></trkpt><trkpt lat="44.1165209067063" lon="10.439153265869592"><ele>277.3333333333333</ele><time>2026-05-02T08:39:27.999Z</time></trkpt><trkpt lat="44.11646255234698" lon="10.438941282568832"><ele>277.0</ele><time>2026-05-02T08:39:28.999Z</time></trkpt><trkpt lat="44.116406890378485" lon="10.438726885486643"><ele>277.0</ele><time>2026-05-02T08:39:29.999Z</time></trkpt><trkpt lat="44.116356716618206" lon="10.438513281810556"><ele>277.0</ele><time>2026-05-02T08:39:30.999Z</time></trkpt><trkpt lat="44.116308498312584" lon="10.438312754599952"><ele>277.0</ele><time>2026-05-02T08:39:31.999Z</time></trkpt><trkpt lat="44.11626481628011" lon="10.438109089059266"><ele>273.3333333333333</ele><time>2026-05-02T08:39:32.999Z</time></trkpt><trkpt lat="44.11623682947458" lon="10.437892202423976"><ele>269.6666666666667</ele><time>2026-05-02T08:39:33.999Z</time></trkpt><trkpt lat="44.1162361915877" lon="10.437663736710805"><ele>266.0</ele><time>2026-05-02T08:39:34.999Z</time></trkpt><trkpt lat="44.11625057965941" lon="10.437432258733114"><ele>266.0</ele><time>2026-05-02T08:39:35.999Z</time></trkpt><trkpt lat="44.11627047064608" lon="10.437192503072158"><ele>266.0</ele><time>2026-05-02T08:39:36.999Z</time></trkpt><trkpt lat="44.11628298797155" lon="10.436947508789038"><ele>266.0</ele><time>2026-05-02T08:39:37.999Z</time></trkpt><trkpt lat="44.116271879495066" lon="10.436697328203223"><ele>266.33333333333337</ele><time>2026-05-02T08:39:38.999Z</time></trkpt><trkpt lat="44.11623321520278" lon="10.43645523940783"><ele>266.6666666666667</ele><time>2026-05-02T08:39:39.999Z</time></trkpt><trkpt lat="44.11616736175963" lon="10.436233798676037"><ele>267.0</ele><time>2026-05-02T08:39:40.999Z</time></trkpt><trkpt lat="44.116077044390906" lon="10.436027482636865"><ele>264.6666666666667</ele><time>2026-05-02T08:39:41.998Z</time></trkpt><trkpt lat="44.11596605758057" lon="10.43584523204621"><ele>262.33333333333337</ele><time>2026-05-02T08:39:42.998Z</time></trkpt><trkpt lat="44.11583960005349" lon="10.435681674807872"><ele>260.0</ele><time>2026-05-02T08:39:43.998Z</time></trkpt><trkpt lat="44.115702909362255" lon="10.435552566353314"><ele>256.33333333333337</ele><time>2026-05-02T08:39:44.998Z</time></trkpt><trkpt lat="44.1155538808308" lon="10.435444756248035"><ele>252.66666666666669</ele><time>2026-05-02T08:39:45.998Z</time></trkpt><trkpt lat="44.11539540048001" lon="10.435367805961286"><ele>249.0</ele><time>2026-05-02T08:39:46.998Z</time></trkpt><trkpt lat="44.11522895008249" lon="10.435325753094967"><ele>249.0</ele><time>2026-05-02T08:39:47.998Z</time></trkpt><trkpt lat="44.11506277597844" lon="10.435307301460924"><ele>249.0</ele><time>2026-05-02T08:39:48.998Z</time></trkpt><trkpt lat="44.11489396930664" lon="10.43529289306085"><ele>249.0</ele><time>2026-05-02T08:39:49.998Z</time></trkpt><trkpt lat="44.114729641843375" lon="10.435277310359117"><ele>249.33333333333331</ele><time>2026-05-02T08:39:50.998Z</time></trkpt><trkpt lat="44.11456533404228" lon="10.435270139920714"><ele>249.66666666666666</ele><time>2026-05-02T08:39:51.998Z</time></trkpt><trkpt lat="44.11439777991282" lon="10.435259952374773"><ele>250.0</ele><time>2026-05-02T08:39:52.998Z</time></trkpt><trkpt lat="44.11423299618327" lon="10.435245910029867"><ele>250.0</ele><time>2026-05-02T08:39:53.998Z</time></trkpt><trkpt lat="44.1140722296223" lon="10.43523174767318"><ele>250.0</ele><time>2026-05-02T08:39:54.998Z</time></trkpt><trkpt lat="44.11391947484974" lon="10.435219336058468"><ele>250.0</ele><time>2026-05-02T08:39:55.998Z</time></trkpt><trkpt lat="44.11376872707869" lon="10.435209024224443"><ele>251.0</ele><time>2026-05-02T08:39:56.998Z</time></trkpt><trkpt lat="44.113617763418155" lon="10.43519746563864"><ele>252.0</ele><time>2026-05-02T08:39:57.998Z</time></trkpt><trkpt lat="44.113468624233036" lon="10.435182969808059"><ele>253.0</ele><time>2026-05-02T08:39:58.998Z</time></trkpt><trkpt lat="44.113324025700706" lon="10.43516812408403"><ele>254.0</ele><time>2026-05-02T08:39:59.998Z</time></trkpt><trkpt lat="44.113187394807206" lon="10.435146428211654"><ele>258.0</ele><time>2026-05-02T08:40:00.998Z</time></trkpt><trkpt lat="44.11304822135256" lon="10.435104430889114"><ele>262.0</ele><time>2026-05-02T08:40:01.998Z</time></trkpt><trkpt lat="44.112911230640734" lon="10.435041762182697"><ele>266.0</ele><time>2026-05-02T08:40:02.998Z</time></trkpt><trkpt lat="44.11278293130735" lon="10.434960205487794"><ele>270.0</ele><time>2026-05-02T08:40:03.998Z</time></trkpt><trkpt lat="44.11266517059368" lon="10.434852846354152"><ele>270.0</ele><time>2026-05-02T08:40:04.998Z</time></trkpt><trkpt lat="44.112557635691125" lon="10.434731739078616"><ele>270.0</ele><time>2026-05-02T08:40:05.998Z</time></trkpt><trkpt lat="44.11245644547183" lon="10.434595672404788"><ele>270.0</ele><time>2026-05-02T08:40:06.998Z</time></trkpt><trkpt lat="44.112363705176364" lon="10.43444803478007"><ele>270.0</ele><time>2026-05-02T08:40:07.998Z</time></trkpt><trkpt lat="44.11228405551006" lon="10.434287817814049"><ele>276.0</ele><time>2026-05-02T08:40:08.998Z</time></trkpt><trkpt lat="44.11221716546523" lon="10.434111602731573"><ele>282.0</ele><time>2026-05-02T08:40:09.998Z</time></trkpt><trkpt lat="44.1121609869727" lon="10.433927854519476"><ele>288.0</ele><time>2026-05-02T08:40:10.998Z</time></trkpt><trkpt lat="44.112114153299316" lon="10.433739652224013"><ele>294.0</ele><time>2026-05-02T08:40:11.998Z</time></trkpt><trkpt lat="44.11208688979788" lon="10.433550325730614"><ele>294.0</ele><time>2026-05-02T08:40:12.998Z</time></trkpt><trkpt lat="44.11208288679497" lon="10.433366458954342"><ele>294.0</ele><time>2026-05-02T08:40:13.998Z</time></trkpt><trkpt lat="44.11209562052278" lon="10.43318548065756"><ele>294.0</ele><time>2026-05-02T08:40:14.998Z</time></trkpt><trkpt lat="44.11212090148307" lon="10.433006879865934"><ele>294.0</ele><time>2026-05-02T08:40:15.998Z</time></trkpt><trkpt lat="44.112153100908" lon="10.43282703878003"><ele>296.0</ele><time>2026-05-02T08:40:16.998Z</time></trkpt><trkpt lat="44.112196278879196" lon="10.432644708906679"><ele>298.0</ele><time>2026-05-02T08:40:17.998Z</time></trkpt><trkpt lat="44.11225470615024" lon="10.43247183241383"><ele>300.0</ele><time>2026-05-02T08:40:18.998Z</time></trkpt><trkpt lat="44.11231694486804" lon="10.432297938831509"><ele>302.0</ele><time>2026-05-02T08:40:20Z</time></trkpt><trkpt lat="44.11237986027228" lon="10.432132737160856"><ele>293.0</ele><time>2026-05-02T08:40:21Z</time></trkpt><trkpt lat="44.112444989947974" lon="10.431972980369776"><ele>284.0</ele><time>2026-05-02T08:40:22Z</time></trkpt><trkpt lat="44.112511419250865" lon="10.43181821859921"><ele>275.0</ele><time>2026-05-02T08:40:23Z</time></trkpt><trkpt lat="44.112582875219" lon="10.431665244946231"><ele>266.0</ele><time>2026-05-02T08:40:24Z</time></trkpt><trkpt lat="44.11265988778379" lon="10.431512770305597"><ele>266.0</ele><time>2026-05-02T08:40:25Z</time></trkpt><trkpt lat="44.11274196249719" lon="10.431359136350832"><ele>266.0</ele><time>2026-05-02T08:40:26Z</time></trkpt><trkpt lat="44.112828357899744" lon="10.431206191258518"><ele>266.0</ele><time>2026-05-02T08:40:27Z</time></trkpt><trkpt lat="44.11292719802161" lon="10.431064560032219"><ele>266.0</ele><time>2026-05-02T08:40:28Z</time></trkpt><trkpt lat="44.11304239448032" lon="10.430942347641297"><ele>263.6666666666667</ele><time>2026-05-02T08:40:29Z</time></trkpt><trkpt lat="44.113168174054096" lon="10.430836317336937"><ele>261.3333333333333</ele><time>2026-05-02T08:40:30Z</time></trkpt><trkpt lat="44.11330416726433" lon="10.430740941331434"><ele>259.0</ele><time>2026-05-02T08:40:31Z</time></trkpt><trkpt lat="44.11344251539089" lon="10.430654603429813"><ele>259.0</ele><time>2026-05-02T08:40:32Z</time></trkpt><trkpt lat="44.11357906191017" lon="10.430566797639585"><ele>259.0</ele><time>2026-05-02T08:40:33Z</time></trkpt><trkpt lat="44.11370986087009" lon="10.430470402083209"><ele>259.0</ele><time>2026-05-02T08:40:34Z</time></trkpt><trkpt lat="44.1138322241272" lon="10.430359043588217"><ele>259.0</ele><time>2026-05-02T08:40:35Z</time></trkpt><trkpt lat="44.11394672580338" lon="10.430238403408156"><ele>260.0</ele><time>2026-05-02T08:40:36Z</time></trkpt><trkpt lat="44.114046932783154" lon="10.430111044724427"><ele>261.0</ele><time>2026-05-02T08:40:37Z</time></trkpt><trkpt lat="44.11414000529298" lon="10.429971229145059"><ele>262.0</ele><time>2026-05-02T08:40:38Z</time></trkpt><trkpt lat="44.11422386967199" lon="10.429820199546908"><ele>263.0</ele><time>2026-05-02T08:40:39Z</time></trkpt><trkpt lat="44.11430406299384" lon="10.429659711847629"><ele>270.0</ele><time>2026-05-02T08:40:40Z</time></trkpt><trkpt lat="44.114383729138865" lon="10.429491407045841"><ele>277.0</ele><time>2026-05-02T08:40:41Z</time></trkpt><trkpt lat="44.11446134290514" lon="10.429324048260138"><ele>284.0</ele><time>2026-05-02T08:40:42Z</time></trkpt><trkpt lat="44.11453475239948" lon="10.429152111068174"><ele>291.0</ele><time>2026-05-02T08:40:43Z</time></trkpt><trkpt lat="44.11459082816487" lon="10.428972029035645"><ele>294.75</ele><time>2026-05-02T08:40:44Z</time></trkpt><trkpt lat="44.11461366373481" lon="10.428773605583602"><ele>298.5</ele><time>2026-05-02T08:40:45Z</time></trkpt><trkpt lat="44.11462957789939" lon="10.428570056396461"><ele>302.25</ele><time>2026-05-02T08:40:46Z</time></trkpt><trkpt lat="44.114644629389566" lon="10.428371328313652"><ele>306.0</ele><time>2026-05-02T08:40:47Z</time></trkpt><trkpt lat="44.114661479572504" lon="10.428173363864166"><ele>306.0</ele><time>2026-05-02T08:40:48Z</time></trkpt><trkpt lat="44.1146770626958" lon="10.427979952025474"><ele>306.0</ele><time>2026-05-02T08:40:49Z</time></trkpt><trkpt lat="44.11469214837821" lon="10.427786353031738"><ele>306.0</ele><time>2026-05-02T08:40:50Z</time></trkpt><trkpt lat="44.11470762025059" lon="10.427590607605191"><ele>306.0</ele><time>2026-05-02T08:40:51Z</time></trkpt><trkpt lat="44.11472552755611" lon="10.427394135065862"><ele>307.5</ele><time>2026-05-02T08:40:52Z</time></trkpt><trkpt lat="44.114743460269146" lon="10.427200142559204"><ele>309.0</ele><time>2026-05-02T08:40:53Z</time></trkpt><trkpt lat="44.11476392519694" lon="10.427008084775823"><ele>310.5</ele><time>2026-05-02T08:40:53.999Z</time></trkpt><trkpt lat="44.11478935107979" lon="10.426817588573634"><ele>312.0</ele><time>2026-05-02T08:40:54.999Z</time></trkpt><trkpt lat="44.11481824367703" lon="10.426629631565502"><ele>312.0</ele><time>2026-05-02T08:40:55.999Z</time></trkpt><trkpt lat="44.114855789435964" lon="10.426441852750695"><ele>312.0</ele><time>2026-05-02T08:40:56.999Z</time></trkpt><trkpt lat="44.11490459775102" lon="10.426246832105669"><ele>312.0</ele><time>2026-05-02T08:40:57.999Z</time></trkpt><trkpt lat="44.11495517922441" lon="10.426053815480673"><ele>312.0</ele><time>2026-05-02T08:40:58.999Z</time></trkpt><trkpt lat="44.114997289212965" lon="10.42585991043877"><ele>303.5</ele><time>2026-05-02T08:40:59.999Z</time></trkpt><trkpt lat="44.11502994256171" lon="10.42566540260846"><ele>295.0</ele><time>2026-05-02T08:41:00.999Z</time></trkpt><trkpt lat="44.115050644676515" lon="10.425470720963466"><ele>286.5</ele><time>2026-05-02T08:41:01.999Z</time></trkpt><trkpt lat="44.11505700819339" lon="10.425271809228992"><ele>278.0</ele><time>2026-05-02T08:41:02.999Z</time></trkpt><trkpt lat="44.11504972951001" lon="10.425063397745514"><ele>276.33333333333337</ele><time>2026-05-02T08:41:03.999Z</time></trkpt><trkpt lat="44.11503258216588" lon="10.424848681048283"><ele>274.6666666666667</ele><time>2026-05-02T08:41:04.999Z</time></trkpt><trkpt lat="44.11500821489693" lon="10.424637714119495"><ele>273.0</ele><time>2026-05-02T08:41:05.999Z</time></trkpt><trkpt lat="44.114980183361816" lon="10.424428425935549"><ele>270.6666666666667</ele><time>2026-05-02T08:41:06.999Z</time></trkpt><trkpt lat="44.11495377421378" lon="10.424219514665916"><ele>268.33333333333337</ele><time>2026-05-02T08:41:07.999Z</time></trkpt><trkpt lat="44.114925840227336" lon="10.424007260493388"><ele>266.0</ele><time>2026-05-02T08:41:08.999Z</time></trkpt><trkpt lat="44.114897123676876" lon="10.423789911901284"><ele>271.33333333333337</ele><time>2026-05-02T08:41:09.999Z</time></trkpt><trkpt lat="44.11486870982581" lon="10.423570409923547"><ele>276.6666666666667</ele><time>2026-05-02T08:41:10.999Z</time></trkpt><trkpt lat="44.11484023853815" lon="10.42335108198049"><ele>282.0</ele><time>2026-05-02T08:41:11.999Z</time></trkpt><trkpt lat="44.11481279260894" lon="10.423134345092913"><ele>281.6666666666667</ele><time>2026-05-02T08:41:12.999Z</time></trkpt><trkpt lat="44.11478604753198" lon="10.422920018195702"><ele>281.33333333333337</ele><time>2026-05-02T08:41:13.999Z</time></trkpt><trkpt lat="44.11475889451754" lon="10.422707932705388"><ele>281.0</ele><time>2026-05-02T08:41:14.999Z</time></trkpt><trkpt lat="44.11473271569179" lon="10.422496832981233"><ele>281.0</ele><time>2026-05-02T08:41:15.999Z</time></trkpt><trkpt lat="44.11470717641125" lon="10.42228761166931"><ele>281.0</ele><time>2026-05-02T08:41:16.999Z</time></trkpt><trkpt lat="44.114682163623634" lon="10.422079438746003"><ele>281.0</ele><time>2026-05-02T08:41:17.999Z</time></trkpt><trkpt lat="44.114657604377655" lon="10.421873980803"><ele>282.25</ele><time>2026-05-02T08:41:18.999Z</time></trkpt><trkpt lat="44.11463280936972" lon="10.421668559545205"><ele>283.5</ele><time>2026-05-02T08:41:19.999Z</time></trkpt><trkpt lat="44.11460864268454" lon="10.42147338642827"><ele>284.75</ele><time>2026-05-02T08:41:20.999Z</time></trkpt><trkpt lat="44.11458722882812" lon="10.42128919271906"><ele>286.0</ele><time>2026-05-02T08:41:21.999Z</time></trkpt><trkpt lat="44.11456707331821" lon="10.421115593981343"><ele>287.0</ele><time>2026-05-02T08:41:22.999Z</time></trkpt><trkpt lat="44.11454791696358" lon="10.420948392775541"><ele>288.0</ele><time>2026-05-02T08:41:23.999Z</time></trkpt><trkpt lat="44.114527381790005" lon="10.420790668754217"><ele>289.0</ele><time>2026-05-02T08:41:24.999Z</time></trkpt><trkpt lat="44.11452396867394" lon="10.420637626370723"><ele>290.0</ele><time>2026-05-02T08:41:25.999Z</time></trkpt><trkpt lat="44.114507032679896" lon="10.420497531452547"><ele>291.0</ele><time>2026-05-02T08:41:26.999Z</time></trkpt><trkpt lat="44.11449116119916" lon="10.42036447376355"><ele>291.0</ele><time>2026-05-02T08:41:27.999Z</time></trkpt><trkpt lat="44.11446597807754" lon="10.420241303499969"><ele>291.0</ele><time>2026-05-02T08:41:28.999Z</time></trkpt><trkpt lat="44.11446704459354" lon="10.420121962874417"><ele>291.0</ele><time>2026-05-02T08:41:29.999Z</time></trkpt><trkpt lat="44.11447875972359" lon="10.420013949426668"><ele>291.0</ele><time>2026-05-02T08:41:30.999Z</time></trkpt><trkpt lat="44.11450100323207" lon="10.419925046229892"><ele>291.0</ele><time>2026-05-02T08:41:31.999Z</time></trkpt><trkpt lat="44.11454913092979" lon="10.419753906013499"><ele>291.0</ele><time>2026-05-02T08:41:33.999Z</time></trkpt><trkpt lat="44.11455256262514" lon="10.419654311731895"><ele>291.0</ele><time>2026-05-02T08:41:34.999Z</time></trkpt><trkpt lat="44.11453508061083" lon="10.419569289760709"><ele>291.0</ele><time>2026-05-02T08:41:35.999Z</time></trkpt><trkpt lat="44.11442782034" lon="10.419459145197477"><ele>291.0</ele><time>2026-05-02T08:41:37.999Z</time></trkpt><trkpt lat="44.114353181769026" lon="10.41940151895387"><ele>291.0</ele><time>2026-05-02T08:41:38.999Z</time></trkpt><trkpt lat="44.11427686350795" lon="10.419312144193357"><ele>293.25</ele><time>2026-05-02T08:41:39.999Z</time></trkpt><trkpt lat="44.114202249811804" lon="10.419198144159436"><ele>295.5</ele><time>2026-05-02T08:41:40.999Z</time></trkpt><trkpt lat="44.11411716069973" lon="10.419076551898103"><ele>297.75</ele><time>2026-05-02T08:41:41.999Z</time></trkpt><trkpt lat="44.114022725260284" lon="10.418957448070207"><ele>300.0</ele><time>2026-05-02T08:41:42.999Z</time></trkpt><trkpt lat="44.11392223764737" lon="10.418842931336698"><ele>292.0</ele><time>2026-05-02T08:41:43.999Z</time></trkpt><trkpt lat="44.11381719201217" lon="10.418737124941023"><ele>284.0</ele><time>2026-05-02T08:41:44.999Z</time></trkpt><trkpt lat="44.113702526630924" lon="10.418645869618718"><ele>276.0</ele><time>2026-05-02T08:41:45.999Z</time></trkpt><trkpt lat="44.1135767034541" lon="10.418573189616346"><ele>268.0</ele><time>2026-05-02T08:41:46.999Z</time></trkpt><trkpt lat="44.11344309913999" lon="10.418522692719318"><ele>268.0</ele><time>2026-05-02T08:41:47.999Z</time></trkpt><trkpt lat="44.11330518971351" lon="10.418495453701517"><ele>268.0</ele><time>2026-05-02T08:41:48.999Z</time></trkpt><trkpt lat="44.11316587522726" lon="10.418498944527343"><ele>268.0</ele><time>2026-05-02T08:41:49.999Z</time></trkpt><trkpt lat="44.113026347325984" lon="10.418527192632304"><ele>268.0</ele><time>2026-05-02T08:41:50.999Z</time></trkpt><trkpt lat="44.112884350785095" lon="10.418559344533975"><ele>270.3333333333333</ele><time>2026-05-02T08:41:51.999Z</time></trkpt><trkpt lat="44.11273717994132" lon="10.418591442597053"><ele>272.6666666666667</ele><time>2026-05-02T08:41:52.999Z</time></trkpt><trkpt lat="44.11258422446686" lon="10.41862037056561"><ele>275.0</ele><time>2026-05-02T08:41:53.998Z</time></trkpt><trkpt lat="44.11243400569617" lon="10.418642517734124"><ele>274.33333333333337</ele><time>2026-05-02T08:41:54.998Z</time></trkpt><trkpt lat="44.1122799300359" lon="10.418663818259342"><ele>273.6666666666667</ele><time>2026-05-02T08:41:55.998Z</time></trkpt><trkpt lat="44.1121216714153" lon="10.418676084519625"><ele>273.0</ele><time>2026-05-02T08:41:56.998Z</time></trkpt><trkpt lat="44.11195947475762" lon="10.41866952756895"><ele>273.0</ele><time>2026-05-02T08:41:57.998Z</time></trkpt><trkpt lat="44.111799596538134" lon="10.418652112563853"><ele>273.0</ele><time>2026-05-02T08:41:58.998Z</time></trkpt><trkpt lat="44.111636931412285" lon="10.418632986567326"><ele>273.0</ele><time>2026-05-02T08:41:59.998Z</time></trkpt><trkpt lat="44.111474592231275" lon="10.418612388423236"><ele>273.0</ele><time>2026-05-02T08:42:00.998Z</time></trkpt><trkpt lat="44.111318615977275" lon="10.418574730220033"><ele>273.0</ele><time>2026-05-02T08:42:01.998Z</time></trkpt><trkpt lat="44.111173200151036" lon="10.418528486499168"><ele>273.0</ele><time>2026-05-02T08:42:02.998Z</time></trkpt><trkpt lat="44.11103776037219" lon="10.418478921226694"><ele>273.0</ele><time>2026-05-02T08:42:03.998Z</time></trkpt><trkpt lat="44.11091019952299" lon="10.418430547434985"><ele>273.0</ele><time>2026-05-02T08:42:04.998Z</time></trkpt><trkpt lat="44.11078970280004" lon="10.418387469702813"><ele>273.0</ele><time>2026-05-02T08:42:05.998Z</time></trkpt><trkpt lat="44.110677442247834" lon="10.418343753791536"><ele>273.0</ele><time>2026-05-02T08:42:06.998Z</time></trkpt><trkpt lat="44.11057008295427" lon="10.418285172670702"><ele>273.0</ele><time>2026-05-02T08:42:07.998Z</time></trkpt><trkpt lat="44.11046437586924" lon="10.418211868445734"><ele>277.5</ele><time>2026-05-02T08:42:08.998Z</time></trkpt><trkpt lat="44.110359156860824" lon="10.418124108168886"><ele>282.0</ele><time>2026-05-02T08:42:09.998Z</time></trkpt><trkpt lat="44.110275552675304" lon="10.417996965862603"><ele>286.5</ele><time>2026-05-02T08:42:10.998Z</time></trkpt><trkpt lat="44.11018254512898" lon="10.417886685750103"><ele>291.0</ele><time>2026-05-02T08:42:11.998Z</time></trkpt><trkpt lat="44.1101209919295" lon="10.417747101145716"><ele>291.0</ele><time>2026-05-02T08:42:12.998Z</time></trkpt><trkpt lat="44.11008990808583" lon="10.417598752603988"><ele>291.0</ele><time>2026-05-02T08:42:13.998Z</time></trkpt><trkpt lat="44.11010016401861" lon="10.41744692130355"><ele>291.0</ele><time>2026-05-02T08:42:14.998Z</time></trkpt><trkpt lat="44.11008248008893" lon="10.4172892943831"><ele>291.0</ele><time>2026-05-02T08:42:15.998Z</time></trkpt><trkpt lat="44.110085119746316" lon="10.417126589556721"><ele>288.5</ele><time>2026-05-02T08:42:16.998Z</time></trkpt><trkpt lat="44.11007606210815" lon="10.416961000587788"><ele>286.0</ele><time>2026-05-02T08:42:17.998Z</time></trkpt><trkpt lat="44.11004641329425" lon="10.416795307437326"><ele>283.5</ele><time>2026-05-02T08:42:18.998Z</time></trkpt><trkpt lat="44.10999193867914" lon="10.41663921933139"><ele>281.0</ele><time>2026-05-02T08:42:19.998Z</time></trkpt><trkpt lat="44.10991725367197" lon="10.416501538622823"><ele>283.5</ele><time>2026-05-02T08:42:20.998Z</time></trkpt><trkpt lat="44.10983905105012" lon="10.416374845364796"><ele>286.0</ele><time>2026-05-02T08:42:21.998Z</time></trkpt><trkpt lat="44.10976601259112" lon="10.41625611316629"><ele>288.5</ele><time>2026-05-02T08:42:22.998Z</time></trkpt><trkpt lat="44.10969659419456" lon="10.416137015718387"><ele>291.0</ele><time>2026-05-02T08:42:23.998Z</time></trkpt><trkpt lat="44.10962570142665" lon="10.416017835309056"><ele>291.0</ele><time>2026-05-02T08:42:25Z</time></trkpt><trkpt lat="44.10955268303977" lon="10.415895637556856"><ele>291.0</ele><time>2026-05-02T08:42:26Z</time></trkpt><trkpt lat="44.10948097474127" lon="10.415767919667315"><ele>291.0</ele><time>2026-05-02T08:42:27Z</time></trkpt><trkpt lat="44.109412380514804" lon="10.415636309128239"><ele>291.0</ele><time>2026-05-02T08:42:28Z</time></trkpt><trkpt lat="44.10934554094462" lon="10.415497308424175"><ele>289.0</ele><time>2026-05-02T08:42:29Z</time></trkpt><trkpt lat="44.10928111677574" lon="10.415358488084518"><ele>287.0</ele><time>2026-05-02T08:42:30Z</time></trkpt><trkpt lat="44.109219100688584" lon="10.415219848312883"><ele>285.0</ele><time>2026-05-02T08:42:31Z</time></trkpt><trkpt lat="44.10916285643461" lon="10.415080576916333"><ele>283.0</ele><time>2026-05-02T08:42:32Z</time></trkpt><trkpt lat="44.10911940795221" lon="10.414943312341938"><ele>283.0</ele><time>2026-05-02T08:42:33Z</time></trkpt><trkpt lat="44.10909694795328" lon="10.414821290186419"><ele>283.0</ele><time>2026-05-02T08:42:34Z</time></trkpt><trkpt lat="44.10908597265021" lon="10.414717845501501"><ele>283.0</ele><time>2026-05-02T08:42:35Z</time></trkpt><trkpt lat="44.10907982756177" lon="10.414629852240745"><ele>283.0</ele><time>2026-05-02T08:42:36Z</time></trkpt><trkpt lat="44.109076547273425" lon="10.414479282741954"><ele>283.0</ele><time>2026-05-02T08:42:38Z</time></trkpt><trkpt lat="44.10908193475274" lon="10.414376012979343"><ele>283.0</ele><time>2026-05-02T08:42:40Z</time></trkpt><trkpt lat="44.10909155358123" lon="10.414268281726244"><ele>282.5</ele><time>2026-05-02T08:42:44Z</time></trkpt><trkpt lat="44.109110668262765" lon="10.414163561809213"><ele>282.0</ele><time>2026-05-02T08:42:51Z</time></trkpt><trkpt lat="44.10916976379133" lon="10.414024152956166"><ele>281.5</ele><time>2026-05-02T08:42:53Z</time></trkpt><trkpt lat="44.1092007736587" lon="10.413946899126032"><ele>281.0</ele><time>2026-05-02T08:42:53.999Z</time></trkpt><trkpt lat="44.10923171524509" lon="10.413863805396451"><ele>280.5</ele><time>2026-05-02T08:42:54.999Z</time></trkpt><trkpt lat="44.10926246634074" lon="10.413777310338723"><ele>280.0</ele><time>2026-05-02T08:42:55.999Z</time></trkpt><trkpt lat="44.10929897270711" lon="10.413692404939358"><ele>279.85714285714283</ele><time>2026-05-02T08:42:56.999Z</time></trkpt><trkpt lat="44.10933745121888" lon="10.413606469978916"><ele>279.7142857142857</ele><time>2026-05-02T08:42:57.999Z</time></trkpt><trkpt lat="44.109375587979265" lon="10.413517075571225"><ele>279.57142857142856</ele><time>2026-05-02T08:42:58.999Z</time></trkpt><trkpt lat="44.10940976922431" lon="10.413426516712999"><ele>279.42857142857144</ele><time>2026-05-02T08:42:59.999Z</time></trkpt><trkpt lat="44.109444617390075" lon="10.413339289888505"><ele>279.2857142857143</ele><time>2026-05-02T08:43:00.999Z</time></trkpt><trkpt lat="44.109487346789464" lon="10.413258085771766"><ele>279.1428571428571</ele><time>2026-05-02T08:43:01.999Z</time></trkpt><trkpt lat="44.10954112799231" lon="10.413189238389014"><ele>279.0</ele><time>2026-05-02T08:43:02.999Z</time></trkpt><trkpt lat="44.109611607739716" lon="10.41312911340694"><ele>279.0</ele><time>2026-05-02T08:43:03.999Z</time></trkpt><trkpt lat="44.1096879877203" lon="10.413077126076653"><ele>279.0</ele><time>2026-05-02T08:43:04.999Z</time></trkpt><trkpt lat="44.10976949614551" lon="10.413030603238784"><ele>279.0</ele><time>2026-05-02T08:43:05.999Z</time></trkpt><trkpt lat="44.10984968411019" lon="10.413005150533353"><ele>279.0</ele><time>2026-05-02T08:43:06.999Z</time></trkpt><trkpt lat="44.10991507871784" lon="10.41299811225287"><ele>279.0</ele><time>2026-05-02T08:43:07.999Z</time></trkpt><trkpt lat="44.11000770687569" lon="10.413005778379468"><ele>279.0</ele><time>2026-05-02T08:43:09.999Z</time></trkpt><trkpt lat="44.10991875024956" lon="10.412982317463543"><ele>279.0</ele><time>2026-05-02T08:43:16.999Z</time></trkpt><trkpt lat="44.109799195931934" lon="10.412980879392286"><ele>279.0</ele><time>2026-05-02T08:43:18.999Z</time></trkpt><trkpt lat="44.109732523689836" lon="10.413005739691371"><ele>279.0</ele><time>2026-05-02T08:43:19.999Z</time></trkpt><trkpt lat="44.109668884574624" lon="10.41304360337598"><ele>279.0</ele><time>2026-05-02T08:43:20.999Z</time></trkpt><trkpt lat="44.109607666254114" lon="10.413088697213722"><ele>279.0</ele><time>2026-05-02T08:43:21.999Z</time></trkpt><trkpt lat="44.10955377214843" lon="10.41313978187751"><ele>279.0</ele><time>2026-05-02T08:43:22.999Z</time></trkpt><trkpt lat="44.10950501738096" lon="10.413195361175372"><ele>279.0</ele><time>2026-05-02T08:43:24.999Z</time></trkpt><trkpt lat="44.10943548884198" lon="10.413272962601013"><ele>279.0</ele><time>2026-05-02T08:43:30.999Z</time></trkpt><trkpt lat="44.10939854221461" lon="10.413389123661558"><ele>279.0</ele><time>2026-05-02T08:43:32.999Z</time></trkpt><trkpt lat="44.109348413045964" lon="10.413531739773543"><ele>279.0</ele><time>2026-05-02T08:43:34.999Z</time></trkpt><trkpt lat="44.10929355926558" lon="10.41366872954846"><ele>279.0</ele><time>2026-05-02T08:43:36.999Z</time></trkpt><trkpt lat="44.109231303458" lon="10.413776507471898"><ele>279.1666666666667</ele><time>2026-05-02T08:43:38.999Z</time></trkpt><trkpt lat="44.109114839617185" lon="10.413854281098267"><ele>279.3333333333333</ele><time>2026-05-02T08:43:40.999Z</time></trkpt><trkpt lat="44.10904447139591" lon="10.413852380076188"><ele>279.5</ele><time>2026-05-02T08:43:41.999Z</time></trkpt><trkpt lat="44.108972963852764" lon="10.413817149099328"><ele>279.66666666666663</ele><time>2026-05-02T08:43:42.999Z</time></trkpt><trkpt lat="44.1089027992617" lon="10.413751340393834"><ele>279.8333333333333</ele><time>2026-05-02T08:43:43.999Z</time></trkpt><trkpt lat="44.10885408391786" lon="10.41367300098919"><ele>280.0</ele><time>2026-05-02T08:43:44.999Z</time></trkpt><trkpt lat="44.108819508242874" lon="10.413541474307975"><ele>281.4</ele><time>2026-05-02T08:43:46.999Z</time></trkpt><trkpt lat="44.108805688552486" lon="10.413450168984856"><ele>282.8</ele><time>2026-05-02T08:43:47.999Z</time></trkpt><trkpt lat="44.10877614373718" lon="10.413340927161007"><ele>284.2</ele><time>2026-05-02T08:43:48.999Z</time></trkpt><trkpt lat="44.10873860672314" lon="10.413224245879679"><ele>285.6</ele><time>2026-05-02T08:43:49.999Z</time></trkpt><trkpt lat="44.10869947280615" lon="10.413084944097127"><ele>287.0</ele><time>2026-05-02T08:43:50.999Z</time></trkpt><trkpt lat="44.108656270843234" lon="10.412930636320066"><ele>287.0</ele><time>2026-05-02T08:43:51.999Z</time></trkpt><trkpt lat="44.108608432467484" lon="10.412768662785783"><ele>287.0</ele><time>2026-05-02T08:43:52.999Z</time></trkpt><trkpt lat="44.108562200570695" lon="10.412607561991027"><ele>287.0</ele><time>2026-05-02T08:43:53.998Z</time></trkpt><trkpt lat="44.108521518312756" lon="10.412447822791634"><ele>287.0</ele><time>2026-05-02T08:43:54.998Z</time></trkpt><trkpt lat="44.10848370024539" lon="10.41229677520034"><ele>285.6</ele><time>2026-05-02T08:43:55.998Z</time></trkpt><trkpt lat="44.10844454257667" lon="10.412154560930228"><ele>284.2</ele><time>2026-05-02T08:43:56.998Z</time></trkpt><trkpt lat="44.10841701088542" lon="10.412030735444162"><ele>282.8</ele><time>2026-05-02T08:43:57.998Z</time></trkpt><trkpt lat="44.10839616545732" lon="10.411911829082518"><ele>281.4</ele><time>2026-05-02T08:43:58.998Z</time></trkpt><trkpt lat="44.10838506395213" lon="10.411800105872931"><ele>280.0</ele><time>2026-05-02T08:43:59.998Z</time></trkpt><trkpt lat="44.108379720101496" lon="10.411689095163071"><ele>280.0</ele><time>2026-05-02T08:44:00.998Z</time></trkpt><trkpt lat="44.10838286831187" lon="10.411567912777537"><ele>280.0</ele><time>2026-05-02T08:44:01.998Z</time></trkpt><trkpt lat="44.10839483802884" lon="10.411453841201018"><ele>280.0</ele><time>2026-05-02T08:44:02.998Z</time></trkpt><trkpt lat="44.10839884307972" lon="10.411346678667593"><ele>280.0</ele><time>2026-05-02T08:44:03.998Z</time></trkpt><trkpt lat="44.10838479586381" lon="10.41125501870732"><ele>280.0</ele><time>2026-05-02T08:44:04.998Z</time></trkpt><trkpt lat="44.10834988223185" lon="10.411167676444135"><ele>280.0</ele><time>2026-05-02T08:44:05.998Z</time></trkpt><trkpt lat="44.10828406909449" lon="10.411112515064861"><ele>280.0</ele><time>2026-05-02T08:44:06.998Z</time></trkpt><trkpt lat="44.10820084874598" lon="10.411077296988205"><ele>280.0</ele><time>2026-05-02T08:44:07.998Z</time></trkpt><trkpt lat="44.108121924982626" lon="10.411026915753467"><ele>280.0</ele><time>2026-05-02T08:44:08.998Z</time></trkpt><trkpt lat="44.10803836087573" lon="10.410981738342006"><ele>280.0</ele><time>2026-05-02T08:44:09.998Z</time></trkpt><trkpt lat="44.107953984451406" lon="10.41092965060448"><ele>280.0</ele><time>2026-05-02T08:44:10.998Z</time></trkpt><trkpt lat="44.107866316256604" lon="10.41087567593556"><ele>280.0</ele><time>2026-05-02T08:44:11.998Z</time></trkpt><trkpt lat="44.107776546107644" lon="10.410820407129783"><ele>280.0</ele><time>2026-05-02T08:44:12.998Z</time></trkpt><trkpt lat="44.107695992500815" lon="10.410762242637166"><ele>280.0</ele><time>2026-05-02T08:44:13.998Z</time></trkpt><trkpt lat="44.107612106342856" lon="10.410702804154115"><ele>280.0</ele><time>2026-05-02T08:44:14.998Z</time></trkpt><trkpt lat="44.10752227507781" lon="10.410651084717617"><ele>280.0</ele><time>2026-05-02T08:44:15.998Z</time></trkpt><trkpt lat="44.107434689843565" lon="10.410601016614306"><ele>279.8</ele><time>2026-05-02T08:44:16.998Z</time></trkpt><trkpt lat="44.10734682667865" lon="10.410548258693797"><ele>279.6</ele><time>2026-05-02T08:44:17.998Z</time></trkpt><trkpt lat="44.107257366964554" lon="10.41048735991066"><ele>279.4</ele><time>2026-05-02T08:44:18.998Z</time></trkpt><trkpt lat="44.10717011051562" lon="10.410416689095417"><ele>279.2</ele><time>2026-05-02T08:44:19.998Z</time></trkpt><trkpt lat="44.10708847005541" lon="10.410342288010597"><ele>279.0</ele><time>2026-05-02T08:44:20.998Z</time></trkpt><trkpt lat="44.10701725398009" lon="10.410276792433157"><ele>278.99999999999994</ele><time>2026-05-02T08:44:21.998Z</time></trkpt><trkpt lat="44.106954364847624" lon="10.410217934655437"><ele>279.0</ele><time>2026-05-02T08:44:22.998Z</time></trkpt><trkpt lat="44.10689769228508" lon="10.410164894946657"><ele>279.0</ele><time>2026-05-02T08:44:23.998Z</time></trkpt><trkpt lat="44.106843933909516" lon="10.410114582627092"><ele>279.0</ele><time>2026-05-02T08:44:24.998Z</time></trkpt><trkpt lat="44.10679021734664" lon="10.410064309431364"><ele>279.0</ele><time>2026-05-02T08:44:25.998Z</time></trkpt><trkpt lat="44.10673306884442" lon="10.410010824294483"><ele>278.99999999999994</ele><time>2026-05-02T08:44:26.998Z</time></trkpt><trkpt lat="44.10667506377869" lon="10.40995653750264"><ele>279.0</ele><time>2026-05-02T08:44:27.998Z</time></trkpt><trkpt lat="44.10661156086689" lon="10.409897105288804"><ele>278.99999999999994</ele><time>2026-05-02T08:44:28.998Z</time></trkpt><trkpt lat="44.10654757252775" lon="10.409837218766727"><ele>279.0</ele><time>2026-05-02T08:44:29.998Z</time></trkpt><trkpt lat="44.10647368911743" lon="10.40979434764031"><ele>279.0</ele><time>2026-05-02T08:44:30.999Z</time></trkpt><trkpt lat="44.10641532089234" lon="10.409737154443311"><ele>279.0</ele><time>2026-05-02T08:44:31.999Z</time></trkpt><trkpt lat="44.10635973659223" lon="10.409687890787156"><ele>279.0</ele><time>2026-05-02T08:44:32.999Z</time></trkpt><trkpt lat="44.10631151878298" lon="10.409615840395883"><ele>278.99999999999994</ele><time>2026-05-02T08:44:33.999Z</time></trkpt><trkpt lat="44.10625518557072" lon="10.409562261817662"><ele>279.0</ele><time>2026-05-02T08:44:34.999Z</time></trkpt><trkpt lat="44.106187183703234" lon="10.409524661287023"><ele>279.0</ele><time>2026-05-02T08:44:35.999Z</time></trkpt><trkpt lat="44.10612872614953" lon="10.4094658096757"><ele>279.0</ele><time>2026-05-02T08:44:36.999Z</time></trkpt><trkpt lat="44.10606890629843" lon="10.409409035346366"><ele>279.0</ele><time>2026-05-02T08:44:37.999Z</time></trkpt><trkpt lat="44.10600550095278" lon="10.40935118112105"><ele>279.0</ele><time>2026-05-02T08:44:38.999Z</time></trkpt><trkpt lat="44.10593926314875" lon="10.40929325480936"><ele>279.0</ele><time>2026-05-02T08:44:40Z</time></trkpt><trkpt lat="44.10587602597291" lon="10.409235697261403"><ele>279.0</ele><time>2026-05-02T08:44:41Z</time></trkpt><trkpt lat="44.1058093312505" lon="10.409172301752688"><ele>279.6666666666667</ele><time>2026-05-02T08:44:42Z</time></trkpt><trkpt lat="44.105742658250755" lon="10.409106230631616"><ele>280.3333333333333</ele><time>2026-05-02T08:44:43Z</time></trkpt><trkpt lat="44.10567430674149" lon="10.409041595910315"><ele>281.0</ele><time>2026-05-02T08:44:44Z</time></trkpt><trkpt lat="44.105606722941694" lon="10.408980355961695"><ele>281.66666666666663</ele><time>2026-05-02T08:44:45Z</time></trkpt><trkpt lat="44.105544347885775" lon="10.408923413013378"><ele>282.3333333333333</ele><time>2026-05-02T08:44:46Z</time></trkpt><trkpt lat="44.105486037236744" lon="10.408870335021911"><ele>283.0</ele><time>2026-05-02T08:44:47Z</time></trkpt><trkpt lat="44.105430523393245" lon="10.408818382526414"><ele>283.0</ele><time>2026-05-02T08:44:48Z</time></trkpt><trkpt lat="44.10538619384672" lon="10.408750191875441"><ele>283.0</ele><time>2026-05-02T08:44:49Z</time></trkpt><trkpt lat="44.10528314191694" lon="10.408654195516057"><ele>283.0</ele><time>2026-05-02T08:44:50.999Z</time></trkpt><trkpt lat="44.105172921200975" lon="10.408577167016018"><ele>283.0</ele><time>2026-05-02T08:44:52.999Z</time></trkpt><trkpt lat="44.10507198006676" lon="10.408473989726986"><ele>283.0</ele><time>2026-05-02T08:44:54.999Z</time></trkpt><trkpt lat="44.10497952619177" lon="10.40838551417246"><ele>283.0</ele><time>2026-05-02T08:44:56.999Z</time></trkpt><trkpt lat="44.10487456670332" lon="10.408297921110579"><ele>283.0</ele><time>2026-05-02T08:44:58.999Z</time></trkpt><trkpt lat="44.10478583585535" lon="10.408211066610017"><ele>283.0</ele><time>2026-05-02T08:45:00.999Z</time></trkpt><trkpt lat="44.104722386218505" lon="10.408145355564457"><ele>283.0</ele><time>2026-05-02T08:45:12.999Z</time></trkpt><trkpt lat="44.10463544516077" lon="10.408071848906598"><ele>283.0</ele><time>2026-05-02T08:45:14.999Z</time></trkpt><trkpt lat="44.104528264508154" lon="10.407970184717815"><ele>283.0</ele><time>2026-05-02T08:45:16.999Z</time></trkpt><trkpt lat="44.10447493034211" lon="10.407919317891444"><ele>283.0</ele><time>2026-05-02T08:45:17.999Z</time></trkpt><trkpt lat="44.10442350785425" lon="10.407867735449663"><ele>283.0</ele><time>2026-05-02T08:45:18.999Z</time></trkpt><trkpt lat="44.10436854958829" lon="10.407809316954689"><ele>283.0</ele><time>2026-05-02T08:45:19.999Z</time></trkpt><trkpt lat="44.10431134915499" lon="10.407739373869786"><ele>283.0</ele><time>2026-05-02T08:45:20.999Z</time></trkpt><trkpt lat="44.104263267683464" lon="10.407650543854556"><ele>283.0</ele><time>2026-05-02T08:45:21.999Z</time></trkpt><trkpt lat="44.10422144522512" lon="10.407561687073297"><ele>283.0</ele><time>2026-05-02T08:45:22.999Z</time></trkpt><trkpt lat="44.10419238181978" lon="10.407468895383612"><ele>283.0</ele><time>2026-05-02T08:45:23.999Z</time></trkpt><trkpt lat="44.10417345462893" lon="10.407372783348237"><ele>283.0</ele><time>2026-05-02T08:45:24.999Z</time></trkpt><trkpt lat="44.10417208117757" lon="10.407275558545798"><ele>283.0</ele><time>2026-05-02T08:45:25.999Z</time></trkpt><trkpt lat="44.10413025674727" lon="10.40710731742121"><ele>283.0</ele><time>2026-05-02T08:45:27.999Z</time></trkpt><trkpt lat="44.104111635437455" lon="10.40701073804567"><ele>283.0</ele><time>2026-05-02T08:45:28.999Z</time></trkpt><trkpt lat="44.104086714000495" lon="10.406926561062242"><ele>283.0</ele><time>2026-05-02T08:45:29.999Z</time></trkpt><trkpt lat="44.10404997026025" lon="10.406837255327742"><ele>283.0</ele><time>2026-05-02T08:45:30.999Z</time></trkpt><trkpt lat="44.10402688447128" lon="10.406731533349049"><ele>283.0</ele><time>2026-05-02T08:45:31.999Z</time></trkpt><trkpt lat="44.104015469244985" lon="10.406626746431211"><ele>283.0</ele><time>2026-05-02T08:45:32.999Z</time></trkpt><trkpt lat="44.10400835918421" lon="10.406526680927241"><ele>283.0</ele><time>2026-05-02T08:45:33.999Z</time></trkpt><trkpt lat="44.10399230179765" lon="10.406420185717877"><ele>283.0</ele><time>2026-05-02T08:45:34.999Z</time></trkpt><trkpt lat="44.103974182441355" lon="10.406310437821052"><ele>283.0</ele><time>2026-05-02T08:45:35.999Z</time></trkpt><trkpt lat="44.10396348819173" lon="10.406196244444399"><ele>283.3333333333333</ele><time>2026-05-02T08:45:36.999Z</time></trkpt><trkpt lat="44.10395888069689" lon="10.406081019707948"><ele>283.66666666666663</ele><time>2026-05-02T08:45:37.999Z</time></trkpt><trkpt lat="44.10395624078221" lon="10.40596480185911"><ele>284.0</ele><time>2026-05-02T08:45:38.999Z</time></trkpt><trkpt lat="44.10394387049714" lon="10.405841628774521"><ele>284.3333333333333</ele><time>2026-05-02T08:45:39.999Z</time></trkpt><trkpt lat="44.103930012963204" lon="10.405719509232608"><ele>284.6666666666667</ele><time>2026-05-02T08:45:40.999Z</time></trkpt><trkpt lat="44.10391403384628" lon="10.405590900777927"><ele>285.0</ele><time>2026-05-02T08:45:41.999Z</time></trkpt><trkpt lat="44.10389764153371" lon="10.405457320213545"><ele>285.6</ele><time>2026-05-02T08:45:42.999Z</time></trkpt><trkpt lat="44.10388712749417" lon="10.405322547150075"><ele>286.2</ele><time>2026-05-02T08:45:43.999Z</time></trkpt><trkpt lat="44.10387386789954" lon="10.40518484687296"><ele>286.8</ele><time>2026-05-02T08:45:44.999Z</time></trkpt><trkpt lat="44.10386333532979" lon="10.40504466797388"><ele>287.4</ele><time>2026-05-02T08:45:45.999Z</time></trkpt><trkpt lat="44.103849618040556" lon="10.404900008214096"><ele>288.0</ele><time>2026-05-02T08:45:46.999Z</time></trkpt><trkpt lat="44.10383529339319" lon="10.404756445369337"><ele>287.2</ele><time>2026-05-02T08:45:47.999Z</time></trkpt><trkpt lat="44.10382050196982" lon="10.404612384209155"><ele>286.4</ele><time>2026-05-02T08:45:48.999Z</time></trkpt><trkpt lat="44.10380652190319" lon="10.404470425980023"><ele>285.59999999999997</ele><time>2026-05-02T08:45:49.999Z</time></trkpt><trkpt lat="44.10379603132077" lon="10.404338223398216"><ele>284.8</ele><time>2026-05-02T08:45:50.999Z</time></trkpt><trkpt lat="44.103785817379" lon="10.40420647340241"><ele>284.0</ele><time>2026-05-02T08:45:51.999Z</time></trkpt><trkpt lat="44.10377202595179" lon="10.404064851035706"><ele>284.0</ele><time>2026-05-02T08:45:52.999Z</time></trkpt><trkpt lat="44.103759239183404" lon="10.403917155404319"><ele>284.0</ele><time>2026-05-02T08:45:53.999Z</time></trkpt><trkpt lat="44.1037470294826" lon="10.403764620072197"><ele>284.0</ele><time>2026-05-02T08:45:54.999Z</time></trkpt><trkpt lat="44.1037339014942" lon="10.403603799704353"><ele>284.0</ele><time>2026-05-02T08:45:55.999Z</time></trkpt><trkpt lat="44.10371825497675" lon="10.403439594323597"><ele>283.75</ele><time>2026-05-02T08:45:56.999Z</time></trkpt><trkpt lat="44.10370343666452" lon="10.40327486717715"><ele>283.5</ele><time>2026-05-02T08:45:57.999Z</time></trkpt><trkpt lat="44.1036871187361" lon="10.403109674801245"><ele>283.25</ele><time>2026-05-02T08:45:58.999Z</time></trkpt><trkpt lat="44.10367160645827" lon="10.402938434633832"><ele>283.0</ele><time>2026-05-02T08:45:59.998Z</time></trkpt><trkpt lat="44.10365565848734" lon="10.402766386163684"><ele>283.0</ele><time>2026-05-02T08:46:00.998Z</time></trkpt><trkpt lat="44.10364068755587" lon="10.402594804941655"><ele>283.0</ele><time>2026-05-02T08:46:01.998Z</time></trkpt><trkpt lat="44.10362508775779" lon="10.402420840385286"><ele>283.0</ele><time>2026-05-02T08:46:02.998Z</time></trkpt><trkpt lat="44.10360924543957" lon="10.402245788147846"><ele>283.0</ele><time>2026-05-02T08:46:03.998Z</time></trkpt><trkpt lat="44.10359399611566" lon="10.40207796029551"><ele>282.75</ele><time>2026-05-02T08:46:04.998Z</time></trkpt><trkpt lat="44.10357774250165" lon="10.401911775019855"><ele>282.5</ele><time>2026-05-02T08:46:05.998Z</time></trkpt><trkpt lat="44.103563221383396" lon="10.40174546490118"><ele>282.25</ele><time>2026-05-02T08:46:06.998Z</time></trkpt><trkpt lat="44.103551743274096" lon="10.40158044765962"><ele>282.0</ele><time>2026-05-02T08:46:07.998Z</time></trkpt><trkpt lat="44.10353663775203" lon="10.401417659644997"><ele>282.0</ele><time>2026-05-02T08:46:08.998Z</time></trkpt><trkpt lat="44.1035186608594" lon="10.40125478470639"><ele>282.0</ele><time>2026-05-02T08:46:09.998Z</time></trkpt><trkpt lat="44.10350527785393" lon="10.401091351322854"><ele>282.0</ele><time>2026-05-02T08:46:10.998Z</time></trkpt><trkpt lat="44.10349063722217" lon="10.40092874606777"><ele>282.0</ele><time>2026-05-02T08:46:11.998Z</time></trkpt><trkpt lat="44.10347835696532" lon="10.400767786242664"><ele>282.0</ele><time>2026-05-02T08:46:12.998Z</time></trkpt><trkpt lat="44.10346456398848" lon="10.400607538174196"><ele>282.0</ele><time>2026-05-02T08:46:13.998Z</time></trkpt><trkpt lat="44.103444635624264" lon="10.400444462575525"><ele>282.0</ele><time>2026-05-02T08:46:14.998Z</time></trkpt><trkpt lat="44.10342853777491" lon="10.400282323001782"><ele>282.0</ele><time>2026-05-02T08:46:15.998Z</time></trkpt><trkpt lat="44.103414446042464" lon="10.400119535848615"><ele>282.25</ele><time>2026-05-02T08:46:16.998Z</time></trkpt><trkpt lat="44.10340065202339" lon="10.399955789942258"><ele>282.5</ele><time>2026-05-02T08:46:17.998Z</time></trkpt><trkpt lat="44.10338675573384" lon="10.399788691201914"><ele>282.75</ele><time>2026-05-02T08:46:18.998Z</time></trkpt><trkpt lat="44.103373447249204" lon="10.399625258913582"><ele>283.0</ele><time>2026-05-02T08:46:19.998Z</time></trkpt><trkpt lat="44.10335745170505" lon="10.399461027453293"><ele>283.25</ele><time>2026-05-02T08:46:20.998Z</time></trkpt><trkpt lat="44.10334110900995" lon="10.399294101249104"><ele>283.5</ele><time>2026-05-02T08:46:21.998Z</time></trkpt><trkpt lat="44.10332556323966" lon="10.399127271282863"><ele>283.75</ele><time>2026-05-02T08:46:22.998Z</time></trkpt><trkpt lat="44.10330717280698" lon="10.398961789540772"><ele>284.0</ele><time>2026-05-02T08:46:23.998Z</time></trkpt><trkpt lat="44.103289282854504" lon="10.398794275151786"><ele>284.5</ele><time>2026-05-02T08:46:24.998Z</time></trkpt><trkpt lat="44.1032653683984" lon="10.398627812788142"><ele>285.0</ele><time>2026-05-02T08:46:25.998Z</time></trkpt><trkpt lat="44.10323709178911" lon="10.398462074837173"><ele>285.5</ele><time>2026-05-02T08:46:26.998Z</time></trkpt><trkpt lat="44.10321270878172" lon="10.39830277568754"><ele>286.0</ele><time>2026-05-02T08:46:27.998Z</time></trkpt><trkpt lat="44.10319184873685" lon="10.398153136011212"><ele>287.6</ele><time>2026-05-02T08:46:28.998Z</time></trkpt><trkpt lat="44.10317845382139" lon="10.3980320274392"><ele>289.20000000000005</ele><time>2026-05-02T08:46:29.998Z</time></trkpt><trkpt lat="44.10316972662216" lon="10.397923996845748"><ele>290.79999999999995</ele><time>2026-05-02T08:46:31.998Z</time></trkpt><trkpt lat="44.10317132372427" lon="10.398013642003761"><ele>292.4</ele><time>2026-05-02T08:47:51.999Z</time></trkpt><trkpt lat="44.10319075421719" lon="10.398122159749525"><ele>294.0</ele><time>2026-05-02T08:47:52.999Z</time></trkpt><trkpt lat="44.10319977199473" lon="10.39833958824553"><ele>294.0</ele><time>2026-05-02T08:47:53.999Z</time></trkpt><trkpt lat="44.103224098695215" lon="10.398510733703114"><ele>294.0</ele><time>2026-05-02T08:47:54.999Z</time></trkpt><trkpt lat="44.103254676993245" lon="10.398697190284315"><ele>294.0</ele><time>2026-05-02T08:47:55.999Z</time></trkpt><trkpt lat="44.103280821079565" lon="10.398902312865767"><ele>294.0</ele><time>2026-05-02T08:47:56.999Z</time></trkpt><trkpt lat="44.103303781477024" lon="10.399108983846284"><ele>290.6666666666667</ele><time>2026-05-02T08:47:57.999Z</time></trkpt><trkpt lat="44.10332699842777" lon="10.399325356524992"><ele>287.33333333333337</ele><time>2026-05-02T08:47:58.999Z</time></trkpt><trkpt lat="44.10334910093595" lon="10.399542981332592"><ele>284.0</ele><time>2026-05-02T08:47:59.999Z</time></trkpt><trkpt lat="44.10336668287721" lon="10.39975758953023"><ele>283.6666666666667</ele><time>2026-05-02T08:48:00.999Z</time></trkpt><trkpt lat="44.10338556459589" lon="10.399970317522563"><ele>283.3333333333333</ele><time>2026-05-02T08:48:01.999Z</time></trkpt><trkpt lat="44.10340297897181" lon="10.400181769929988"><ele>283.0</ele><time>2026-05-02T08:48:02.999Z</time></trkpt><trkpt lat="44.10342363760817" lon="10.400395342116312"><ele>282.66666666666663</ele><time>2026-05-02T08:48:03.999Z</time></trkpt><trkpt lat="44.10344377629856" lon="10.400608047052003"><ele>282.3333333333333</ele><time>2026-05-02T08:48:04.999Z</time></trkpt><trkpt lat="44.10346278269374" lon="10.40082692066248"><ele>282.0</ele><time>2026-05-02T08:48:05.999Z</time></trkpt><trkpt lat="44.10348236651701" lon="10.401044272670035"><ele>282.0</ele><time>2026-05-02T08:48:06.999Z</time></trkpt><trkpt lat="44.10350483467832" lon="10.401260347262063"><ele>282.0</ele><time>2026-05-02T08:48:07.999Z</time></trkpt><trkpt lat="44.10352870520772" lon="10.40147471673015"><ele>282.0</ele><time>2026-05-02T08:48:08.999Z</time></trkpt><trkpt lat="44.103547374430285" lon="10.401688593489636"><ele>282.0</ele><time>2026-05-02T08:48:09.999Z</time></trkpt><trkpt lat="44.103565895439715" lon="10.40190719151217"><ele>282.0</ele><time>2026-05-02T08:48:10.999Z</time></trkpt><trkpt lat="44.10358245448622" lon="10.402122138720621"><ele>282.0</ele><time>2026-05-02T08:48:11.999Z</time></trkpt><trkpt lat="44.10359957496274" lon="10.402339368334527"><ele>282.3333333333333</ele><time>2026-05-02T08:48:12.999Z</time></trkpt><trkpt lat="44.10361946605207" lon="10.402560005514824"><ele>282.66666666666663</ele><time>2026-05-02T08:48:13.999Z</time></trkpt><trkpt lat="44.10363783657771" lon="10.402780428822497"><ele>283.0</ele><time>2026-05-02T08:48:14.999Z</time></trkpt><trkpt lat="44.103656420542315" lon="10.40299588052657"><ele>284.0</ele><time>2026-05-02T08:48:15.999Z</time></trkpt><trkpt lat="44.1036763517837" lon="10.403218202036951"><ele>285.0</ele><time>2026-05-02T08:48:16.999Z</time></trkpt><trkpt lat="44.10369730608221" lon="10.403437334651247"><ele>286.0</ele><time>2026-05-02T08:48:17.999Z</time></trkpt><trkpt lat="44.10371449073775" lon="10.4036508148312"><ele>285.3333333333333</ele><time>2026-05-02T08:48:18.999Z</time></trkpt><trkpt lat="44.10373480627758" lon="10.4038601396146"><ele>284.6666666666667</ele><time>2026-05-02T08:48:19.999Z</time></trkpt><trkpt lat="44.10375234311313" lon="10.40406902208676"><ele>284.0</ele><time>2026-05-02T08:48:20.999Z</time></trkpt><trkpt lat="44.10377176382349" lon="10.404278166438989"><ele>284.0</ele><time>2026-05-02T08:48:21.999Z</time></trkpt><trkpt lat="44.1037906401671" lon="10.404490431548224"><ele>284.0</ele><time>2026-05-02T08:48:22.998Z</time></trkpt><trkpt lat="44.10380726586967" lon="10.404707423677854"><ele>284.0</ele><time>2026-05-02T08:48:23.998Z</time></trkpt><trkpt lat="44.1038213171767" lon="10.404923680191958"><ele>284.33333333333337</ele><time>2026-05-02T08:48:24.998Z</time></trkpt><trkpt lat="44.103842671378" lon="10.4051426418431"><ele>284.6666666666667</ele><time>2026-05-02T08:48:25.998Z</time></trkpt><trkpt lat="44.10386319503463" lon="10.405360662229366"><ele>285.0</ele><time>2026-05-02T08:48:26.998Z</time></trkpt><trkpt lat="44.10388206461547" lon="10.40557787503957"><ele>285.0</ele><time>2026-05-02T08:48:27.998Z</time></trkpt><trkpt lat="44.103904007298695" lon="10.405787063133715"><ele>285.0</ele><time>2026-05-02T08:48:28.998Z</time></trkpt><trkpt lat="44.103918065419265" lon="10.405980968971567"><ele>285.0</ele><time>2026-05-02T08:48:29.998Z</time></trkpt><trkpt lat="44.10393100617017" lon="10.406154557719372"><ele>285.0</ele><time>2026-05-02T08:48:30.998Z</time></trkpt><trkpt lat="44.103944869604454" lon="10.40632005532231"><ele>284.6</ele><time>2026-05-02T08:48:31.998Z</time></trkpt><trkpt lat="44.10395482182092" lon="10.40647729483255"><ele>284.2</ele><time>2026-05-02T08:48:32.998Z</time></trkpt><trkpt lat="44.10396500068415" lon="10.406629759531981"><ele>283.8</ele><time>2026-05-02T08:48:33.998Z</time></trkpt><trkpt lat="44.10397262451369" lon="10.406777608704298"><ele>283.4</ele><time>2026-05-02T08:48:34.998Z</time></trkpt><trkpt lat="44.103982616834685" lon="10.406914926818088"><ele>283.0</ele><time>2026-05-02T08:48:35.998Z</time></trkpt><trkpt lat="44.103999030771206" lon="10.407043051389781"><ele>283.0</ele><time>2026-05-02T08:48:36.998Z</time></trkpt><trkpt lat="44.10401406079711" lon="10.407163210556607"><ele>283.0</ele><time>2026-05-02T08:48:37.998Z</time></trkpt><trkpt lat="44.10403559222422" lon="10.407252953796974"><ele>283.0</ele><time>2026-05-02T08:48:38.998Z</time></trkpt><trkpt lat="44.1040976745017" lon="10.40729263260197"><ele>283.0</ele><time>2026-05-02T08:48:40.998Z</time></trkpt><trkpt lat="44.1042004282837" lon="10.407174476893461"><ele>283.0</ele><time>2026-05-02T08:48:42Z</time></trkpt><trkpt lat="44.10428993948108" lon="10.40717511420007"><ele>283.0</ele><time>2026-05-02T08:48:43Z</time></trkpt><trkpt lat="44.104389058711114" lon="10.407173478653093"><ele>283.0</ele><time>2026-05-02T08:48:44Z</time></trkpt><trkpt lat="44.104501864348734" lon="10.407198155137264"><ele>283.0</ele><time>2026-05-02T08:48:45Z</time></trkpt><trkpt lat="44.104627616295126" lon="10.407221344978394"><ele>283.0</ele><time>2026-05-02T08:48:46Z</time></trkpt><trkpt lat="44.10476226493248" lon="10.407236627778541"><ele>283.0</ele><time>2026-05-02T08:48:47Z</time></trkpt><trkpt lat="44.10490441404797" lon="10.40725162168171"><ele>282.0</ele><time>2026-05-02T08:48:48Z</time></trkpt><trkpt lat="44.105054616435865" lon="10.407257500871117"><ele>281.0</ele><time>2026-05-02T08:48:49Z</time></trkpt><trkpt lat="44.105205391923036" lon="10.407272975515912"><ele>280.0</ele><time>2026-05-02T08:48:50Z</time></trkpt><trkpt lat="44.10535681418398" lon="10.407292128162343"><ele>280.0</ele><time>2026-05-02T08:48:51Z</time></trkpt><trkpt lat="44.1054998655491" lon="10.40731336053426"><ele>280.0</ele><time>2026-05-02T08:48:52Z</time></trkpt><trkpt lat="44.10563240607589" lon="10.407329657533126"><ele>280.0</ele><time>2026-05-02T08:48:53Z</time></trkpt><trkpt lat="44.10575912408614" lon="10.40734306934045"><ele>280.0</ele><time>2026-05-02T08:48:54Z</time></trkpt><trkpt lat="44.105871845503586" lon="10.40735629737163"><ele>279.5</ele><time>2026-05-02T08:48:55Z</time></trkpt><trkpt lat="44.10597227784111" lon="10.407369537566069"><ele>279.0</ele><time>2026-05-02T08:48:56Z</time></trkpt><trkpt lat="44.1060606464691" lon="10.40738545776271"><ele>278.5</ele><time>2026-05-02T08:48:57Z</time></trkpt><trkpt lat="44.106147500749195" lon="10.407397389097877"><ele>278.0</ele><time>2026-05-02T08:48:58Z</time></trkpt><trkpt lat="44.10623009644386" lon="10.40740983463743"><ele>277.5</ele><time>2026-05-02T08:48:59Z</time></trkpt><trkpt lat="44.106306454754126" lon="10.407422895910976"><ele>277.0</ele><time>2026-05-02T08:49:00Z</time></trkpt><trkpt lat="44.10639973469492" lon="10.407438069857479"><ele>277.0</ele><time>2026-05-02T08:49:02Z</time></trkpt><trkpt lat="44.10631229589393" lon="10.407459011080428"><ele>277.0</ele><time>2026-05-02T08:50:35.999Z</time></trkpt><trkpt lat="44.10624419113855" lon="10.4074329303223"><ele>277.0</ele><time>2026-05-02T08:57:50.999Z</time></trkpt><trkpt lat="44.10614778772484" lon="10.407405552372548"><ele>277.0</ele><time>2026-05-02T08:57:52.999Z</time></trkpt><trkpt lat="44.106071531757905" lon="10.407396162069297"><ele>277.0</ele><time>2026-05-02T08:57:53.999Z</time></trkpt><trkpt lat="44.10591868803253" lon="10.40737019911745"><ele>277.0</ele><time>2026-05-02T08:57:54.999Z</time></trkpt><trkpt lat="44.10582113051495" lon="10.407358579259029"><ele>277.0</ele><time>2026-05-02T08:57:55.999Z</time></trkpt><trkpt lat="44.10571325657164" lon="10.40734197139948"><ele>277.0</ele><time>2026-05-02T08:57:56.999Z</time></trkpt><trkpt lat="44.105600983714076" lon="10.407322940436428"><ele>277.0</ele><time>2026-05-02T08:57:57.999Z</time></trkpt><trkpt lat="44.10548498951095" lon="10.407304308213956"><ele>277.0</ele><time>2026-05-02T08:57:58.999Z</time></trkpt><trkpt lat="44.10536561026042" lon="10.407286030510791"><ele>277.75</ele><time>2026-05-02T08:57:59.999Z</time></trkpt><trkpt lat="44.1052426220403" lon="10.40727098283526"><ele>278.5</ele><time>2026-05-02T08:58:00.999Z</time></trkpt><trkpt lat="44.10511788858545" lon="10.407256698559038"><ele>279.25</ele><time>2026-05-02T08:58:01.999Z</time></trkpt><trkpt lat="44.10499238980401" lon="10.407243322257552"><ele>280.0</ele><time>2026-05-02T08:58:02.999Z</time></trkpt><trkpt lat="44.10486344327041" lon="10.407228226367096"><ele>280.6</ele><time>2026-05-02T08:58:03.999Z</time></trkpt><trkpt lat="44.1047423129242" lon="10.407212244095652"><ele>281.2</ele><time>2026-05-02T08:58:04.999Z</time></trkpt><trkpt lat="44.10463550404949" lon="10.407197039506064"><ele>281.8</ele><time>2026-05-02T08:58:05.999Z</time></trkpt><trkpt lat="44.104534404481406" lon="10.407184627400113"><ele>282.4</ele><time>2026-05-02T08:58:06.999Z</time></trkpt><trkpt lat="44.104447735330055" lon="10.407172515943891"><ele>283.0</ele><time>2026-05-02T08:58:07.999Z</time></trkpt><trkpt lat="44.10437167866293" lon="10.407162342974551"><ele>283.0</ele><time>2026-05-02T08:58:08.999Z</time></trkpt><trkpt lat="44.10430303389278" lon="10.407148175627295"><ele>283.0</ele><time>2026-05-02T08:58:09.999Z</time></trkpt><trkpt lat="44.10424161259004" lon="10.407123117645984"><ele>283.0</ele><time>2026-05-02T08:58:10.999Z</time></trkpt><trkpt lat="44.10413025501009" lon="10.407036638028714"><ele>283.0</ele><time>2026-05-02T08:58:12.999Z</time></trkpt><trkpt lat="44.10407656502733" lon="10.406957855653223"><ele>283.0</ele><time>2026-05-02T08:58:13.999Z</time></trkpt><trkpt lat="44.104031714946785" lon="10.406848236593733"><ele>283.0</ele><time>2026-05-02T08:58:14.999Z</time></trkpt><trkpt lat="44.10402237071142" lon="10.406707377003821"><ele>283.0</ele><time>2026-05-02T08:58:15.999Z</time></trkpt><trkpt lat="44.10399450324299" lon="10.406565368136105"><ele>283.0</ele><time>2026-05-02T08:58:16.999Z</time></trkpt><trkpt lat="44.10398524342995" lon="10.40640494030966"><ele>283.0</ele><time>2026-05-02T08:58:17.999Z</time></trkpt><trkpt lat="44.10396685700783" lon="10.40623777456809"><ele>283.0</ele><time>2026-05-02T08:58:18.999Z</time></trkpt><trkpt lat="44.103949129813216" lon="10.406057865729268"><ele>283.5</ele><time>2026-05-02T08:58:19.999Z</time></trkpt><trkpt lat="44.103932716386296" lon="10.405868986763963"><ele>284.0</ele><time>2026-05-02T08:58:20.999Z</time></trkpt><trkpt lat="44.10391504118032" lon="10.405672023284547"><ele>284.5</ele><time>2026-05-02T08:58:21.999Z</time></trkpt><trkpt lat="44.103893840109585" lon="10.405472834740777"><ele>285.0</ele><time>2026-05-02T08:58:22.999Z</time></trkpt><trkpt lat="44.1038729004583" lon="10.405276278548248"><ele>284.75</ele><time>2026-05-02T08:58:23.999Z</time></trkpt><trkpt lat="44.10387248849143" lon="10.405084673978985"><ele>284.5</ele><time>2026-05-02T08:58:24.999Z</time></trkpt><trkpt lat="44.10385698626879" lon="10.404902589139041"><ele>284.25</ele><time>2026-05-02T08:58:25.999Z</time></trkpt><trkpt lat="44.10384265892868" lon="10.404734304165107"><ele>284.0</ele><time>2026-05-02T08:58:26.999Z</time></trkpt><trkpt lat="44.10382991711002" lon="10.404584642285924"><ele>284.0</ele><time>2026-05-02T08:58:27.999Z</time></trkpt><trkpt lat="44.10381766707131" lon="10.404441200367833"><ele>284.0</ele><time>2026-05-02T08:58:28.999Z</time></trkpt><trkpt lat="44.103806890565295" lon="10.404315974827211"><ele>284.0</ele><time>2026-05-02T08:58:29.999Z</time></trkpt><trkpt lat="44.10379628258105" lon="10.404192840624386"><ele>284.0</ele><time>2026-05-02T08:58:30.999Z</time></trkpt><trkpt lat="44.10378452713155" lon="10.404056386568573"><ele>284.0</ele><time>2026-05-02T08:58:31.999Z</time></trkpt><trkpt lat="44.10377144628834" lon="10.403907621779647"><ele>284.5</ele><time>2026-05-02T08:58:32.999Z</time></trkpt><trkpt lat="44.10375843056016" lon="10.40375307205726"><ele>285.0</ele><time>2026-05-02T08:58:33.999Z</time></trkpt><trkpt lat="44.10374382736855" lon="10.403590023477697"><ele>285.5</ele><time>2026-05-02T08:58:34.998Z</time></trkpt><trkpt lat="44.10372859850849" lon="10.403423791576573"><ele>286.0</ele><time>2026-05-02T08:58:35.998Z</time></trkpt><trkpt lat="44.10371259220374" lon="10.4032490734028"><ele>286.0</ele><time>2026-05-02T08:58:36.998Z</time></trkpt><trkpt lat="44.10369633081881" lon="10.403071570871937"><ele>286.0</ele><time>2026-05-02T08:58:37.998Z</time></trkpt><trkpt lat="44.10368024135984" lon="10.402895945032217"><ele>286.0</ele><time>2026-05-02T08:58:38.998Z</time></trkpt><trkpt lat="44.103663842758124" lon="10.402716944697042"><ele>286.0</ele><time>2026-05-02T08:58:39.998Z</time></trkpt><trkpt lat="44.10364644177857" lon="10.402528005291115"><ele>285.25</ele><time>2026-05-02T08:58:40.998Z</time></trkpt><trkpt lat="44.10362902600061" lon="10.402339008782974"><ele>284.5</ele><time>2026-05-02T08:58:41.998Z</time></trkpt><trkpt lat="44.10361138998748" lon="10.402147622263119"><ele>283.75</ele><time>2026-05-02T08:58:42.998Z</time></trkpt><trkpt lat="44.10359381924265" lon="10.401956944040247"><ele>283.0</ele><time>2026-05-02T08:58:43.998Z</time></trkpt><trkpt lat="44.10355994216756" lon="10.40176918408343"><ele>282.75</ele><time>2026-05-02T08:58:44.998Z</time></trkpt><trkpt lat="44.103543180517384" lon="10.401578053014488"><ele>282.5</ele><time>2026-05-02T08:58:45.998Z</time></trkpt><trkpt lat="44.10352432131092" lon="10.401385591252055"><ele>282.25</ele><time>2026-05-02T08:58:46.998Z</time></trkpt><trkpt lat="44.10352189207342" lon="10.40118782635401"><ele>282.0</ele><time>2026-05-02T08:58:47.998Z</time></trkpt><trkpt lat="44.10350402616606" lon="10.400989803631138"><ele>282.0</ele><time>2026-05-02T08:58:48.998Z</time></trkpt><trkpt lat="44.10348612178036" lon="10.400791354437889"><ele>282.0</ele><time>2026-05-02T08:58:49.998Z</time></trkpt><trkpt lat="44.1034679687237" lon="10.400591847881769"><ele>282.0</ele><time>2026-05-02T08:58:50.998Z</time></trkpt><trkpt lat="44.103433988699834" lon="10.400394753170458"><ele>282.0</ele><time>2026-05-02T08:58:51.998Z</time></trkpt><trkpt lat="44.10341600545469" lon="10.400189486960949"><ele>282.3333333333333</ele><time>2026-05-02T08:58:52.998Z</time></trkpt><trkpt lat="44.10339800460473" lon="10.399980567754818"><ele>282.66666666666663</ele><time>2026-05-02T08:58:53.998Z</time></trkpt><trkpt lat="44.103379940044725" lon="10.399775186028378"><ele>283.0</ele><time>2026-05-02T08:58:54.998Z</time></trkpt><trkpt lat="44.1033634516734" lon="10.399566354638258"><ele>283.3333333333333</ele><time>2026-05-02T08:58:55.998Z</time></trkpt><trkpt lat="44.10334496905382" lon="10.399358783320178"><ele>283.6666666666667</ele><time>2026-05-02T08:58:56.998Z</time></trkpt><trkpt lat="44.1033248530043" lon="10.39915169155744"><ele>284.0</ele><time>2026-05-02T08:58:57.998Z</time></trkpt><trkpt lat="44.103303795720755" lon="10.398943564695832"><ele>284.5</ele><time>2026-05-02T08:58:58.998Z</time></trkpt><trkpt lat="44.10327831206306" lon="10.39874031988864"><ele>285.0</ele><time>2026-05-02T08:58:59.998Z</time></trkpt><trkpt lat="44.10324865688144" lon="10.398539455303693"><ele>285.5</ele><time>2026-05-02T08:59:00.998Z</time></trkpt><trkpt lat="44.1032172258913" lon="10.398341331140488"><ele>286.0</ele><time>2026-05-02T08:59:01.998Z</time></trkpt><trkpt lat="44.10318389487874" lon="10.398147391838224"><ele>288.75</ele><time>2026-05-02T08:59:02.998Z</time></trkpt><trkpt lat="44.103151291904844" lon="10.3979582779755"><ele>291.5</ele><time>2026-05-02T08:59:03.998Z</time></trkpt><trkpt lat="44.103120852004466" lon="10.397768244792497"><ele>294.25</ele><time>2026-05-02T08:59:04.998Z</time></trkpt><trkpt lat="44.103089675986375" lon="10.397583213215675"><ele>297.0</ele><time>2026-05-02T08:59:05.998Z</time></trkpt><trkpt lat="44.103056194970904" lon="10.397402828715709"><ele>297.0</ele><time>2026-05-02T08:59:06.998Z</time></trkpt><trkpt lat="44.10302384091982" lon="10.397222846510529"><ele>297.0</ele><time>2026-05-02T08:59:07.998Z</time></trkpt><trkpt lat="44.102990794556256" lon="10.397039682403587"><ele>297.0</ele><time>2026-05-02T08:59:08.998Z</time></trkpt><trkpt lat="44.10295725493149" lon="10.396863460200596"><ele>297.0</ele><time>2026-05-02T08:59:10Z</time></trkpt><trkpt lat="44.102926990441226" lon="10.39669174207982"><ele>297.75</ele><time>2026-05-02T08:59:11Z</time></trkpt><trkpt lat="44.10289716725289" lon="10.396510978625974"><ele>298.5</ele><time>2026-05-02T08:59:12Z</time></trkpt><trkpt lat="44.10286612411307" lon="10.39633927024723"><ele>299.25</ele><time>2026-05-02T08:59:13Z</time></trkpt><trkpt lat="44.10283518341897" lon="10.396167489673937"><ele>300.0</ele><time>2026-05-02T08:59:14Z</time></trkpt><trkpt lat="44.10280166367952" lon="10.395996544508044"><ele>300.25</ele><time>2026-05-02T08:59:15Z</time></trkpt><trkpt lat="44.10277242891031" lon="10.395826598288835"><ele>300.5</ele><time>2026-05-02T08:59:16Z</time></trkpt><trkpt lat="44.10274530483822" lon="10.395658644481772"><ele>300.75</ele><time>2026-05-02T08:59:17Z</time></trkpt><trkpt lat="44.10271745548538" lon="10.395492283589753"><ele>301.0</ele><time>2026-05-02T08:59:18Z</time></trkpt><trkpt lat="44.10268821174536" lon="10.395328873563322"><ele>301.0</ele><time>2026-05-02T08:59:19Z</time></trkpt><trkpt lat="44.10265983472757" lon="10.395170508772665"><ele>301.0</ele><time>2026-05-02T08:59:20Z</time></trkpt><trkpt lat="44.10263341633833" lon="10.395014075014462"><ele>301.0</ele><time>2026-05-02T08:59:21Z</time></trkpt><trkpt lat="44.10260495983995" lon="10.3948634729804"><ele>301.0</ele><time>2026-05-02T08:59:22Z</time></trkpt><trkpt lat="44.102573696135316" lon="10.394710951905047"><ele>299.0</ele><time>2026-05-02T08:59:23Z</time></trkpt><trkpt lat="44.10254481385387" lon="10.394558461683408"><ele>297.0</ele><time>2026-05-02T08:59:24Z</time></trkpt><trkpt lat="44.102520378795795" lon="10.394408368762042"><ele>295.0</ele><time>2026-05-02T08:59:25Z</time></trkpt><trkpt lat="44.10249215033978" lon="10.394250242595547"><ele>293.0</ele><time>2026-05-02T08:59:26Z</time></trkpt><trkpt lat="44.102463092578745" lon="10.39409317668142"><ele>293.0</ele><time>2026-05-02T08:59:27Z</time></trkpt><trkpt lat="44.10243504916018" lon="10.393935291989163"><ele>293.0</ele><time>2026-05-02T08:59:28Z</time></trkpt><trkpt lat="44.10240086135162" lon="10.393765246270663"><ele>293.0</ele><time>2026-05-02T08:59:29Z</time></trkpt><trkpt lat="44.102386715930884" lon="10.39359108448645"><ele>293.0</ele><time>2026-05-02T08:59:30Z</time></trkpt><trkpt lat="44.10235678688145" lon="10.393423495074497"><ele>293.75</ele><time>2026-05-02T08:59:31Z</time></trkpt><trkpt lat="44.10232502845471" lon="10.393255288778475"><ele>294.5</ele><time>2026-05-02T08:59:32Z</time></trkpt><trkpt lat="44.10229249673798" lon="10.393082772110699"><ele>295.25</ele><time>2026-05-02T08:59:33Z</time></trkpt><trkpt lat="44.10224636228704" lon="10.392915662673243"><ele>296.0</ele><time>2026-05-02T08:59:34Z</time></trkpt><trkpt lat="44.10222335419437" lon="10.392741846902343"><ele>296.0</ele><time>2026-05-02T08:59:35Z</time></trkpt><trkpt lat="44.10218998388172" lon="10.392569936916546"><ele>296.0</ele><time>2026-05-02T08:59:36Z</time></trkpt><trkpt lat="44.10215975892081" lon="10.392395358428253"><ele>296.0</ele><time>2026-05-02T08:59:37Z</time></trkpt><trkpt lat="44.102136864883825" lon="10.39221835505856"><ele>296.0</ele><time>2026-05-02T08:59:38Z</time></trkpt><trkpt lat="44.10212937810653" lon="10.392041206965473"><ele>296.0</ele><time>2026-05-02T08:59:39Z</time></trkpt><trkpt lat="44.102125148761935" lon="10.391872088391471"><ele>296.0</ele><time>2026-05-02T08:59:40Z</time></trkpt><trkpt lat="44.10213062695294" lon="10.391690098237742"><ele>296.0</ele><time>2026-05-02T08:59:41Z</time></trkpt><trkpt lat="44.10214130503576" lon="10.391516286899549"><ele>296.0</ele><time>2026-05-02T08:59:42Z</time></trkpt><trkpt lat="44.10214303364922" lon="10.391348549687018"><ele>296.75</ele><time>2026-05-02T08:59:43Z</time></trkpt><trkpt lat="44.102167766305996" lon="10.391183155190484"><ele>297.5</ele><time>2026-05-02T08:59:44Z</time></trkpt><trkpt lat="44.10219993154707" lon="10.391017539289392"><ele>298.25</ele><time>2026-05-02T08:59:44.999Z</time></trkpt><trkpt lat="44.102230172434716" lon="10.390858396982493"><ele>299.0</ele><time>2026-05-02T08:59:45.999Z</time></trkpt><trkpt lat="44.1022638419316" lon="10.390699793555187"><ele>299.0</ele><time>2026-05-02T08:59:46.999Z</time></trkpt><trkpt lat="44.102299854532326" lon="10.390539734537233"><ele>299.0</ele><time>2026-05-02T08:59:47.999Z</time></trkpt><trkpt lat="44.102333106460314" lon="10.390375202184615"><ele>299.0</ele><time>2026-05-02T08:59:48.999Z</time></trkpt><trkpt lat="44.10236481359802" lon="10.390211438437635"><ele>299.0</ele><time>2026-05-02T08:59:49.999Z</time></trkpt><trkpt lat="44.1023949133918" lon="10.390055427444143"><ele>298.5</ele><time>2026-05-02T08:59:50.999Z</time></trkpt><trkpt lat="44.102417111896656" lon="10.389892928472918"><ele>298.0</ele><time>2026-05-02T08:59:51.999Z</time></trkpt><trkpt lat="44.10244168975225" lon="10.3897337038062"><ele>297.5</ele><time>2026-05-02T08:59:52.999Z</time></trkpt><trkpt lat="44.10247040189517" lon="10.38957481222098"><ele>297.0</ele><time>2026-05-02T08:59:53.999Z</time></trkpt><trkpt lat="44.10250029799988" lon="10.38941001771584"><ele>297.0</ele><time>2026-05-02T08:59:54.999Z</time></trkpt><trkpt lat="44.10253197796982" lon="10.389239230969999"><ele>297.0</ele><time>2026-05-02T08:59:55.999Z</time></trkpt><trkpt lat="44.10255970079212" lon="10.389063363471834"><ele>297.0</ele><time>2026-05-02T08:59:56.999Z</time></trkpt><trkpt lat="44.10259097241423" lon="10.388884412345776"><ele>297.0</ele><time>2026-05-02T08:59:57.999Z</time></trkpt><trkpt lat="44.10262870200439" lon="10.38869909471324"><ele>298.0</ele><time>2026-05-02T08:59:58.999Z</time></trkpt><trkpt lat="44.10266268596059" lon="10.388508750019744"><ele>299.0</ele><time>2026-05-02T08:59:59.999Z</time></trkpt><trkpt lat="44.102695633146396" lon="10.388320236199956"><ele>300.0</ele><time>2026-05-02T09:00:00.999Z</time></trkpt><trkpt lat="44.10272735899903" lon="10.388134090448304"><ele>301.0</ele><time>2026-05-02T09:00:01.999Z</time></trkpt><trkpt lat="44.10276100302191" lon="10.387948635801203"><ele>302.25</ele><time>2026-05-02T09:00:02.999Z</time></trkpt><trkpt lat="44.10278684233801" lon="10.387755559187356"><ele>303.5</ele><time>2026-05-02T09:00:03.999Z</time></trkpt><trkpt lat="44.10279305837708" lon="10.38755105684968"><ele>304.75</ele><time>2026-05-02T09:00:04.999Z</time></trkpt><trkpt lat="44.10279366294408" lon="10.387358886516795"><ele>306.0</ele><time>2026-05-02T09:00:05.999Z</time></trkpt><trkpt lat="44.102788812840195" lon="10.387169304241791"><ele>306.75</ele><time>2026-05-02T09:00:06.999Z</time></trkpt><trkpt lat="44.10275894929055" lon="10.386977714622917"><ele>307.5</ele><time>2026-05-02T09:00:07.999Z</time></trkpt><trkpt lat="44.102720993555906" lon="10.386792889391332"><ele>308.25</ele><time>2026-05-02T09:00:08.999Z</time></trkpt><trkpt lat="44.10268095555018" lon="10.38661139783552"><ele>309.0</ele><time>2026-05-02T09:00:09.999Z</time></trkpt><trkpt lat="44.102643639205816" lon="10.386434343783419"><ele>308.5</ele><time>2026-05-02T09:00:10.999Z</time></trkpt><trkpt lat="44.10260302222192" lon="10.386256906691171"><ele>308.0</ele><time>2026-05-02T09:00:11.999Z</time></trkpt><trkpt lat="44.10256588068948" lon="10.386080305646194"><ele>307.5</ele><time>2026-05-02T09:00:12.999Z</time></trkpt><trkpt lat="44.10253059985529" lon="10.385906404769589"><ele>307.0</ele><time>2026-05-02T09:00:13.999Z</time></trkpt><trkpt lat="44.102501909516185" lon="10.385736160994961"><ele>307.0</ele><time>2026-05-02T09:00:14.999Z</time></trkpt><trkpt lat="44.10246769188727" lon="10.385570786912147"><ele>307.0</ele><time>2026-05-02T09:00:15.999Z</time></trkpt><trkpt lat="44.10241324910538" lon="10.385419367375256"><ele>307.0</ele><time>2026-05-02T09:00:16.999Z</time></trkpt><trkpt lat="44.102326046865606" lon="10.385282100785046"><ele>307.0</ele><time>2026-05-02T09:00:17.999Z</time></trkpt><trkpt lat="44.102240798480594" lon="10.38515228738131"><ele>311.25</ele><time>2026-05-02T09:00:18.999Z</time></trkpt><trkpt lat="44.10213367607886" lon="10.385078222730248"><ele>315.5</ele><time>2026-05-02T09:00:19.999Z</time></trkpt><trkpt lat="44.1020215539605" lon="10.385029537026554"><ele>319.75</ele><time>2026-05-02T09:00:20.999Z</time></trkpt><trkpt lat="44.101911981080555" lon="10.384967776998705"><ele>324.0</ele><time>2026-05-02T09:00:21.999Z</time></trkpt><trkpt lat="44.10180075921007" lon="10.38490686923257"><ele>324.0</ele><time>2026-05-02T09:00:22.999Z</time></trkpt><trkpt lat="44.10169560014975" lon="10.38483972534896"><ele>324.0</ele><time>2026-05-02T09:00:23.999Z</time></trkpt><trkpt lat="44.101595850803484" lon="10.384765079684906"><ele>324.0</ele><time>2026-05-02T09:00:24.999Z</time></trkpt><trkpt lat="44.10149809035908" lon="10.384691826840587"><ele>324.0</ele><time>2026-05-02T09:00:25.999Z</time></trkpt><trkpt lat="44.10140576629984" lon="10.384619679099723"><ele>324.0</ele><time>2026-05-02T09:00:26.999Z</time></trkpt><trkpt lat="44.1013257206577" lon="10.384525936235052"><ele>323.2</ele><time>2026-05-02T09:00:27.999Z</time></trkpt><trkpt lat="44.10123833511414" lon="10.384438338923838"><ele>322.4</ele><time>2026-05-02T09:00:28.999Z</time></trkpt><trkpt lat="44.10115913816148" lon="10.384347007177658"><ele>321.6</ele><time>2026-05-02T09:00:29.999Z</time></trkpt><trkpt lat="44.101083456955266" lon="10.384269607718448"><ele>320.8</ele><time>2026-05-02T09:00:30.998Z</time></trkpt><trkpt lat="44.101008178135615" lon="10.384186010279295"><ele>320.0</ele><time>2026-05-02T09:00:31.998Z</time></trkpt><trkpt lat="44.10092913404481" lon="10.384098018064464"><ele>320.0</ele><time>2026-05-02T09:00:32.998Z</time></trkpt><trkpt lat="44.100848549067045" lon="10.384007943732557"><ele>320.0</ele><time>2026-05-02T09:00:33.998Z</time></trkpt><trkpt lat="44.10076593013842" lon="10.383914786777485"><ele>320.0</ele><time>2026-05-02T09:00:34.998Z</time></trkpt><trkpt lat="44.10068290523283" lon="10.383820857452614"><ele>320.0</ele><time>2026-05-02T09:00:35.998Z</time></trkpt><trkpt lat="44.100595959772676" lon="10.383735117338754"><ele>320.0</ele><time>2026-05-02T09:00:36.998Z</time></trkpt><trkpt lat="44.1005023479102" lon="10.383665778246186"><ele>317.8</ele><time>2026-05-02T09:00:37.998Z</time></trkpt><trkpt lat="44.10040199900007" lon="10.38362299019344"><ele>315.6</ele><time>2026-05-02T09:00:38.998Z</time></trkpt><trkpt lat="44.100299323569736" lon="10.383595005625024"><ele>313.4</ele><time>2026-05-02T09:00:39.998Z</time></trkpt><trkpt lat="44.10020852442082" lon="10.383549880472698"><ele>311.2</ele><time>2026-05-02T09:00:40.998Z</time></trkpt><trkpt lat="44.10012839840497" lon="10.383520686461098"><ele>309.0</ele><time>2026-05-02T09:00:41.998Z</time></trkpt><trkpt lat="44.10005570105374" lon="10.383493629053088"><ele>309.0</ele><time>2026-05-02T09:00:42.998Z</time></trkpt><trkpt lat="44.09997814523746" lon="10.383474435477023"><ele>309.0</ele><time>2026-05-02T09:00:43.998Z</time></trkpt><trkpt lat="44.09990517162249" lon="10.383429610368527"><ele>309.0</ele><time>2026-05-02T09:00:44.998Z</time></trkpt><trkpt lat="44.09983856324963" lon="10.383376687674309"><ele>309.0</ele><time>2026-05-02T09:00:45.998Z</time></trkpt><trkpt lat="44.09977731819636" lon="10.383306534776219"><ele>309.0</ele><time>2026-05-02T09:00:46.998Z</time></trkpt><trkpt lat="44.099724109120196" lon="10.383221185068757"><ele>309.0</ele><time>2026-05-02T09:00:47.998Z</time></trkpt><trkpt lat="44.099672114637805" lon="10.383135263499623"><ele>310.8</ele><time>2026-05-02T09:00:48.998Z</time></trkpt><trkpt lat="44.099596707150866" lon="10.38307459494326"><ele>312.59999999999997</ele><time>2026-05-02T09:00:49.998Z</time></trkpt><trkpt lat="44.099507050238614" lon="10.383047596778239"><ele>314.4</ele><time>2026-05-02T09:00:50.998Z</time></trkpt><trkpt lat="44.09941143901524" lon="10.38306052513109"><ele>316.2</ele><time>2026-05-02T09:00:51.998Z</time></trkpt><trkpt lat="44.09931942764817" lon="10.38309710203164"><ele>318.0</ele><time>2026-05-02T09:00:52.998Z</time></trkpt><trkpt lat="44.09923517918337" lon="10.383163279862396"><ele>318.0</ele><time>2026-05-02T09:00:53.998Z</time></trkpt><trkpt lat="44.09913480007299" lon="10.383212950105255"><ele>318.0</ele><time>2026-05-02T09:00:54.998Z</time></trkpt><trkpt lat="44.09904423654389" lon="10.383275655517423"><ele>318.0</ele><time>2026-05-02T09:00:55.998Z</time></trkpt><trkpt lat="44.09895417977571" lon="10.383345694929051"><ele>318.0</ele><time>2026-05-02T09:00:56.998Z</time></trkpt><trkpt lat="44.09885872911324" lon="10.383407311125845"><ele>318.0</ele><time>2026-05-02T09:00:57.998Z</time></trkpt><trkpt lat="44.09876365721073" lon="10.383463287598186"><ele>321.6</ele><time>2026-05-02T09:00:58.998Z</time></trkpt><trkpt lat="44.09867034555106" lon="10.383521385863967"><ele>325.20000000000005</ele><time>2026-05-02T09:00:59.998Z</time></trkpt><trkpt lat="44.09857568072467" lon="10.383577983146328"><ele>328.8</ele><time>2026-05-02T09:01:00.998Z</time></trkpt><trkpt lat="44.098481641628204" lon="10.38363432201185"><ele>332.40000000000003</ele><time>2026-05-02T09:01:01.998Z</time></trkpt><trkpt lat="44.09838159112631" lon="10.383672781254388"><ele>336.0</ele><time>2026-05-02T09:01:02.998Z</time></trkpt><trkpt lat="44.09828037712293" lon="10.383699666462004"><ele>339.6</ele><time>2026-05-02T09:01:03.998Z</time></trkpt><trkpt lat="44.09817791538405" lon="10.383723181084465"><ele>343.20000000000005</ele><time>2026-05-02T09:01:04.998Z</time></trkpt><trkpt lat="44.09807266738014" lon="10.383744081972738"><ele>346.79999999999995</ele><time>2026-05-02T09:01:05.998Z</time></trkpt><trkpt lat="44.09796416161354" lon="10.38377140109651"><ele>350.4</ele><time>2026-05-02T09:01:06.998Z</time></trkpt><trkpt lat="44.09785426919843" lon="10.383764046265192"><ele>354.0</ele><time>2026-05-02T09:01:07.998Z</time></trkpt><trkpt lat="44.097744000331026" lon="10.383763980825032"><ele>354.0</ele><time>2026-05-02T09:01:08.998Z</time></trkpt><trkpt lat="44.097631789043646" lon="10.383767287055422"><ele>354.0</ele><time>2026-05-02T09:01:09.998Z</time></trkpt><trkpt lat="44.09751956192229" lon="10.383795684112378"><ele>354.0</ele><time>2026-05-02T09:01:10.998Z</time></trkpt><trkpt lat="44.09740568977043" lon="10.383791289474344"><ele>354.0</ele><time>2026-05-02T09:01:11.998Z</time></trkpt><trkpt lat="44.09729555879257" lon="10.383803327515597"><ele>351.6</ele><time>2026-05-02T09:01:12.998Z</time></trkpt><trkpt lat="44.097188772894675" lon="10.383839748905842"><ele>349.2</ele><time>2026-05-02T09:01:13.998Z</time></trkpt><trkpt lat="44.09708664756493" lon="10.383893162481007"><ele>346.8</ele><time>2026-05-02T09:01:14.998Z</time></trkpt><trkpt lat="44.09698784451873" lon="10.383955320838272"><ele>344.40000000000003</ele><time>2026-05-02T09:01:15.999Z</time></trkpt><trkpt lat="44.096892983501675" lon="10.384018164744147"><ele>342.0</ele><time>2026-05-02T09:01:16.999Z</time></trkpt><trkpt lat="44.09678996426602" lon="10.384084856560415"><ele>342.0</ele><time>2026-05-02T09:01:17.999Z</time></trkpt><trkpt lat="44.096694814588744" lon="10.384170858695008"><ele>342.0</ele><time>2026-05-02T09:01:18.999Z</time></trkpt><trkpt lat="44.09659851899394" lon="10.38425950665912"><ele>342.0</ele><time>2026-05-02T09:01:19.999Z</time></trkpt><trkpt lat="44.09650034257679" lon="10.38434331727223"><ele>342.0</ele><time>2026-05-02T09:01:20.999Z</time></trkpt><trkpt lat="44.09641402496566" lon="10.384446816265779"><ele>345.40000000000003</ele><time>2026-05-02T09:01:21.999Z</time></trkpt><trkpt lat="44.096334538719596" lon="10.384556437053712"><ele>348.8</ele><time>2026-05-02T09:01:22.999Z</time></trkpt><trkpt lat="44.096267596900276" lon="10.384675096677276"><ele>352.2</ele><time>2026-05-02T09:01:23.999Z</time></trkpt><trkpt lat="44.0962118949731" lon="10.384802664312083"><ele>355.6</ele><time>2026-05-02T09:01:24.999Z</time></trkpt><trkpt lat="44.09619294049168" lon="10.38495249585428"><ele>359.0</ele><time>2026-05-02T09:01:25.999Z</time></trkpt><trkpt lat="44.09619235409657" lon="10.38511139178738"><ele>359.0</ele><time>2026-05-02T09:01:26.999Z</time></trkpt><trkpt lat="44.0961905387961" lon="10.385268286898517"><ele>359.0</ele><time>2026-05-02T09:01:27.999Z</time></trkpt><trkpt lat="44.09616554323172" lon="10.385416359585799"><ele>359.0</ele><time>2026-05-02T09:01:28.999Z</time></trkpt><trkpt lat="44.096125924970686" lon="10.385553632815194"><ele>359.0</ele><time>2026-05-02T09:01:29.999Z</time></trkpt><trkpt lat="44.09606814242783" lon="10.385670296934434"><ele>359.0</ele><time>2026-05-02T09:01:30.999Z</time></trkpt><trkpt lat="44.09599214973606" lon="10.385761943953234"><ele>358.25</ele><time>2026-05-02T09:01:31.999Z</time></trkpt><trkpt lat="44.09588760408123" lon="10.385804011573315"><ele>357.5</ele><time>2026-05-02T09:01:32.999Z</time></trkpt><trkpt lat="44.09577929259858" lon="10.385842850608395"><ele>356.75</ele><time>2026-05-02T09:01:33.999Z</time></trkpt><trkpt lat="44.09567290497113" lon="10.385906174656016"><ele>356.0</ele><time>2026-05-02T09:01:34.999Z</time></trkpt><trkpt lat="44.09555875976871" lon="10.385941390416049"><ele>356.0</ele><time>2026-05-02T09:01:35.999Z</time></trkpt><trkpt lat="44.09544491631069" lon="10.385981400535236"><ele>356.0</ele><time>2026-05-02T09:01:36.999Z</time></trkpt><trkpt lat="44.09532749739736" lon="10.38601189323196"><ele>356.0</ele><time>2026-05-02T09:01:37.999Z</time></trkpt><trkpt lat="44.09520277859415" lon="10.386021894235709"><ele>356.0</ele><time>2026-05-02T09:01:38.999Z</time></trkpt><trkpt lat="44.095071723302226" lon="10.386023052501962"><ele>356.0</ele><time>2026-05-02T09:01:39.999Z</time></trkpt><trkpt lat="44.09493400243651" lon="10.38602153326959"><ele>356.0</ele><time>2026-05-02T09:01:40.999Z</time></trkpt><trkpt lat="44.09478908336698" lon="10.386029495680733"><ele>356.0</ele><time>2026-05-02T09:01:41.999Z</time></trkpt><trkpt lat="44.09464831912702" lon="10.38603195505682"><ele>356.0</ele><time>2026-05-02T09:01:42.999Z</time></trkpt><trkpt lat="44.094508927067224" lon="10.386027435170261"><ele>352.25</ele><time>2026-05-02T09:01:43.999Z</time></trkpt><trkpt lat="44.09437076139624" lon="10.38601609713573"><ele>348.5</ele><time>2026-05-02T09:01:44.999Z</time></trkpt><trkpt lat="44.09422878269249" lon="10.385970508835028"><ele>344.75</ele><time>2026-05-02T09:01:45.999Z</time></trkpt><trkpt lat="44.09408702710062" lon="10.385914825370861"><ele>341.0</ele><time>2026-05-02T09:01:46.999Z</time></trkpt><trkpt lat="44.093938961971205" lon="10.385862205415032"><ele>339.25</ele><time>2026-05-02T09:01:47.999Z</time></trkpt><trkpt lat="44.093794070133974" lon="10.385817657287113"><ele>337.5</ele><time>2026-05-02T09:01:48.999Z</time></trkpt><trkpt lat="44.09364894180319" lon="10.385787801386176"><ele>335.75</ele><time>2026-05-02T09:01:49.999Z</time></trkpt><trkpt lat="44.09350096278165" lon="10.385775652053004"><ele>334.0</ele><time>2026-05-02T09:01:50.999Z</time></trkpt><trkpt lat="44.09336388800923" lon="10.385765153438077"><ele>332.25</ele><time>2026-05-02T09:01:51.999Z</time></trkpt><trkpt lat="44.09323358084631" lon="10.385711351242389"><ele>330.5</ele><time>2026-05-02T09:01:52.999Z</time></trkpt><trkpt lat="44.093107418589526" lon="10.385669861143938"><ele>328.75</ele><time>2026-05-02T09:01:53.999Z</time></trkpt><trkpt lat="44.09298193481145" lon="10.38562521092378"><ele>327.0</ele><time>2026-05-02T09:01:54.999Z</time></trkpt><trkpt lat="44.09286310722602" lon="10.385582529282079"><ele>327.0</ele><time>2026-05-02T09:01:55.999Z</time></trkpt><trkpt lat="44.09274251242512" lon="10.385559518401172"><ele>327.0</ele><time>2026-05-02T09:01:56.999Z</time></trkpt><trkpt lat="44.0926324716938" lon="10.385498999749148"><ele>327.0</ele><time>2026-05-02T09:01:57.999Z</time></trkpt><trkpt lat="44.0925250392966" lon="10.385442834223797"><ele>327.0</ele><time>2026-05-02T09:01:58.999Z</time></trkpt><trkpt lat="44.09241285778518" lon="10.385392368725569"><ele>328.0</ele><time>2026-05-02T09:01:59.999Z</time></trkpt><trkpt lat="44.092293937655036" lon="10.385337449519099"><ele>329.0</ele><time>2026-05-02T09:02:00.999Z</time></trkpt><trkpt lat="44.09218576157197" lon="10.385259691458153"><ele>330.0</ele><time>2026-05-02T09:02:01.999Z</time></trkpt><trkpt lat="44.09208612522525" lon="10.385157043686858"><ele>331.0</ele><time>2026-05-02T09:02:02.999Z</time></trkpt><trkpt lat="44.09199808506517" lon="10.385040708994092"><ele>331.0</ele><time>2026-05-02T09:02:03.999Z</time></trkpt><trkpt lat="44.091900477568544" lon="10.384929430758518"><ele>331.0</ele><time>2026-05-02T09:02:04.999Z</time></trkpt><trkpt lat="44.09178940604592" lon="10.384836786127968"><ele>331.0</ele><time>2026-05-02T09:02:05.999Z</time></trkpt><trkpt lat="44.09166496479422" lon="10.384777992364606"><ele>331.0</ele><time>2026-05-02T09:02:06.999Z</time></trkpt><trkpt lat="44.09153266786578" lon="10.38472299708369"><ele>332.25</ele><time>2026-05-02T09:02:07.999Z</time></trkpt><trkpt lat="44.091400769260204" lon="10.384655462490276"><ele>333.5</ele><time>2026-05-02T09:02:08.999Z</time></trkpt><trkpt lat="44.09127590741025" lon="10.384590706800923"><ele>334.75</ele><time>2026-05-02T09:02:09.999Z</time></trkpt><trkpt lat="44.09115141895577" lon="10.384529100430322"><ele>336.0</ele><time>2026-05-02T09:02:10.999Z</time></trkpt><trkpt lat="44.091027634119385" lon="10.384469861641202"><ele>336.0</ele><time>2026-05-02T09:02:11.999Z</time></trkpt><trkpt lat="44.090901564200394" lon="10.384413335600799"><ele>336.0</ele><time>2026-05-02T09:02:12.999Z</time></trkpt><trkpt lat="44.09077540802767" lon="10.38436202882156"><ele>336.0</ele><time>2026-05-02T09:02:13.999Z</time></trkpt><trkpt lat="44.090646591990875" lon="10.384315961754535"><ele>336.0</ele><time>2026-05-02T09:02:14.999Z</time></trkpt><trkpt lat="44.09052638764276" lon="10.38423790402377"><ele>334.5</ele><time>2026-05-02T09:02:15.999Z</time></trkpt><trkpt lat="44.090397085819156" lon="10.384187044112362"><ele>333.0</ele><time>2026-05-02T09:02:16.999Z</time></trkpt><trkpt lat="44.0902765068859" lon="10.384107564710392"><ele>331.5</ele><time>2026-05-02T09:02:17.999Z</time></trkpt><trkpt lat="44.090163329352166" lon="10.384008337801452"><ele>330.0</ele><time>2026-05-02T09:02:18.999Z</time></trkpt><trkpt lat="44.09005604761515" lon="10.383899617943333"><ele>331.25</ele><time>2026-05-02T09:02:19.999Z</time></trkpt><trkpt lat="44.08994700485294" lon="10.383783021551885"><ele>332.5</ele><time>2026-05-02T09:02:20.999Z</time></trkpt><trkpt lat="44.089844021004964" lon="10.383669401476629"><ele>333.75</ele><time>2026-05-02T09:02:21.999Z</time></trkpt><trkpt lat="44.08974536088986" lon="10.383556326389792"><ele>335.0</ele><time>2026-05-02T09:02:22.999Z</time></trkpt><trkpt lat="44.0896542596618" lon="10.383436037265916"><ele>335.0</ele><time>2026-05-02T09:02:23.999Z</time></trkpt><trkpt lat="44.08957165322514" lon="10.383307034738028"><ele>335.0</ele><time>2026-05-02T09:02:24.999Z</time></trkpt><trkpt lat="44.08950849262356" lon="10.383153663361357"><ele>335.0</ele><time>2026-05-02T09:02:25.999Z</time></trkpt><trkpt lat="44.089456783996354" lon="10.382983468301402"><ele>335.0</ele><time>2026-05-02T09:02:26.999Z</time></trkpt><trkpt lat="44.089439095942254" lon="10.382800239658627"><ele>334.75</ele><time>2026-05-02T09:02:27.999Z</time></trkpt><trkpt lat="44.08943404869058" lon="10.38261919499843"><ele>334.5</ele><time>2026-05-02T09:02:28.998Z</time></trkpt><trkpt lat="44.08943923210693" lon="10.382433361513431"><ele>334.25</ele><time>2026-05-02T09:02:29.998Z</time></trkpt><trkpt lat="44.08947488453063" lon="10.382242896977035"><ele>334.0</ele><time>2026-05-02T09:02:30.998Z</time></trkpt><trkpt lat="44.08950807286557" lon="10.382048205712437"><ele>335.5</ele><time>2026-05-02T09:02:31.998Z</time></trkpt><trkpt lat="44.08953763690827" lon="10.381853778026155"><ele>337.0</ele><time>2026-05-02T09:02:32.998Z</time></trkpt><trkpt lat="44.089565218432504" lon="10.381663697691593"><ele>338.5</ele><time>2026-05-02T09:02:33.998Z</time></trkpt><trkpt lat="44.089591665966125" lon="10.38147691013768"><ele>340.0</ele><time>2026-05-02T09:02:34.998Z</time></trkpt><trkpt lat="44.08961586206809" lon="10.381301879535465"><ele>340.25</ele><time>2026-05-02T09:02:35.998Z</time></trkpt><trkpt lat="44.089641975503795" lon="10.381128696027982"><ele>340.5</ele><time>2026-05-02T09:02:36.998Z</time></trkpt><trkpt lat="44.08969298245529" lon="10.380959509198044"><ele>340.75</ele><time>2026-05-02T09:02:37.998Z</time></trkpt><trkpt lat="44.08976821314349" lon="10.380799737860762"><ele>341.0</ele><time>2026-05-02T09:02:38.998Z</time></trkpt><trkpt lat="44.0898476221462" lon="10.380639559311836"><ele>339.75</ele><time>2026-05-02T09:02:39.998Z</time></trkpt><trkpt lat="44.089911001972915" lon="10.380470793846113"><ele>338.5</ele><time>2026-05-02T09:02:40.998Z</time></trkpt><trkpt lat="44.08994295674456" lon="10.380303355412007"><ele>337.25</ele><time>2026-05-02T09:02:41.998Z</time></trkpt><trkpt lat="44.08993796467918" lon="10.38013698585625"><ele>336.0</ele><time>2026-05-02T09:02:42.998Z</time></trkpt><trkpt lat="44.08988779316463" lon="10.379974032287105"><ele>336.0</ele><time>2026-05-02T09:02:43.998Z</time></trkpt><trkpt lat="44.08981619112127" lon="10.37982365110622"><ele>336.0</ele><time>2026-05-02T09:02:44.998Z</time></trkpt><trkpt lat="44.089786174287035" lon="10.379643679378225"><ele>336.0</ele><time>2026-05-02T09:02:45.998Z</time></trkpt><trkpt lat="44.08973467380771" lon="10.379484757704278"><ele>336.0</ele><time>2026-05-02T09:02:46.998Z</time></trkpt><trkpt lat="44.08965025684316" lon="10.379347005457856"><ele>340.0</ele><time>2026-05-02T09:02:47.998Z</time></trkpt><trkpt lat="44.08954046703518" lon="10.379224936170425"><ele>344.0</ele><time>2026-05-02T09:02:48.998Z</time></trkpt><trkpt lat="44.08939369148608" lon="10.37909569437198"><ele>348.0</ele><time>2026-05-02T09:02:49.998Z</time></trkpt><trkpt lat="44.08921322697609" lon="10.37904136709632"><ele>345.0</ele><time>2026-05-02T09:02:50.998Z</time></trkpt><trkpt lat="44.089037707924994" lon="10.378984163728726"><ele>342.0</ele><time>2026-05-02T09:02:51.998Z</time></trkpt><trkpt lat="44.08886970128513" lon="10.378970042094082"><ele>339.0</ele><time>2026-05-02T09:02:52.998Z</time></trkpt><trkpt lat="44.088723835352916" lon="10.378977084922637"><ele>339.0</ele><time>2026-05-02T09:02:53.998Z</time></trkpt><trkpt lat="44.08858586391958" lon="10.378973608462758"><ele>339.0</ele><time>2026-05-02T09:02:54.998Z</time></trkpt><trkpt lat="44.08847763844872" lon="10.378943956835846"><ele>339.0</ele><time>2026-05-02T09:02:55.998Z</time></trkpt><trkpt lat="44.088392007995786" lon="10.378880591247478"><ele>339.0</ele><time>2026-05-02T09:02:56.998Z</time></trkpt><trkpt lat="44.08834585978635" lon="10.37875978986776"><ele>339.0</ele><time>2026-05-02T09:02:57.998Z</time></trkpt><trkpt lat="44.088326017475175" lon="10.378634414988417"><ele>342.75</ele><time>2026-05-02T09:02:58.998Z</time></trkpt><trkpt lat="44.088346365017706" lon="10.378500651645933"><ele>346.5</ele><time>2026-05-02T09:02:59.998Z</time></trkpt><trkpt lat="44.08839918297287" lon="10.378352996035186"><ele>350.25</ele><time>2026-05-02T09:03:00.998Z</time></trkpt><trkpt lat="44.088459113272414" lon="10.378189088285826"><ele>354.0</ele><time>2026-05-02T09:03:01.998Z</time></trkpt><trkpt lat="44.088547515457414" lon="10.378039699985298"><ele>354.6666666666667</ele><time>2026-05-02T09:03:02.998Z</time></trkpt><trkpt lat="44.08866710718916" lon="10.37791382627036"><ele>355.33333333333337</ele><time>2026-05-02T09:03:03.998Z</time></trkpt><trkpt lat="44.08878341155113" lon="10.377757328686464"><ele>356.0</ele><time>2026-05-02T09:03:04.998Z</time></trkpt><trkpt lat="44.08888105266385" lon="10.377559683589915"><ele>356.0</ele><time>2026-05-02T09:03:05.998Z</time></trkpt><trkpt lat="44.088968128239124" lon="10.377347601743027"><ele>356.0</ele><time>2026-05-02T09:03:06.998Z</time></trkpt><trkpt lat="44.089050781878974" lon="10.377135591574062"><ele>356.0</ele><time>2026-05-02T09:03:07.998Z</time></trkpt><trkpt lat="44.0891220249096" lon="10.376931490876403"><ele>356.25</ele><time>2026-05-02T09:03:08.998Z</time></trkpt><trkpt lat="44.08918504240007" lon="10.376738791895827"><ele>356.5</ele><time>2026-05-02T09:03:09.998Z</time></trkpt><trkpt lat="44.08924244950829" lon="10.376568195893542"><ele>356.75</ele><time>2026-05-02T09:03:10.998Z</time></trkpt><trkpt lat="44.089296892601766" lon="10.376418064043358"><ele>357.0</ele><time>2026-05-02T09:03:11.998Z</time></trkpt><trkpt lat="44.08937352636021" lon="10.376297995641115"><ele>353.5</ele><time>2026-05-02T09:03:12.998Z</time></trkpt><trkpt lat="44.089471815232315" lon="10.376219386379237"><ele>350.0</ele><time>2026-05-02T09:03:13.998Z</time></trkpt><trkpt lat="44.08956627083634" lon="10.376130259296973"><ele>346.5</ele><time>2026-05-02T09:03:14.998Z</time></trkpt><trkpt lat="44.08962510002166" lon="10.375989385794046"><ele>343.0</ele><time>2026-05-02T09:03:15.998Z</time></trkpt><trkpt lat="44.0896406415379" lon="10.375814189383442"><ele>343.0</ele><time>2026-05-02T09:03:16.998Z</time></trkpt><trkpt lat="44.089649663410526" lon="10.37563750874819"><ele>343.0</ele><time>2026-05-02T09:03:17.998Z</time></trkpt><trkpt lat="44.089606956004566" lon="10.37547051261648"><ele>343.0</ele><time>2026-05-02T09:03:18.997Z</time></trkpt><trkpt lat="44.089490893348554" lon="10.375363951919873"><ele>343.0</ele><time>2026-05-02T09:03:19.997Z</time></trkpt><trkpt lat="44.089375038513616" lon="10.375266300544352"><ele>344.5</ele><time>2026-05-02T09:03:20.997Z</time></trkpt><trkpt lat="44.089241697817776" lon="10.375185543819208"><ele>346.0</ele><time>2026-05-02T09:03:21.999Z</time></trkpt><trkpt lat="44.08909814837671" lon="10.375116644743471"><ele>347.5</ele><time>2026-05-02T09:03:22.999Z</time></trkpt><trkpt lat="44.08894917368378" lon="10.375072884136886"><ele>349.0</ele><time>2026-05-02T09:03:23.999Z</time></trkpt><trkpt lat="44.0888025360397" lon="10.375008826156822"><ele>349.0</ele><time>2026-05-02T09:03:24.999Z</time></trkpt><trkpt lat="44.08865185205138" lon="10.374956727176794"><ele>349.0</ele><time>2026-05-02T09:03:25.999Z</time></trkpt><trkpt lat="44.08850602871604" lon="10.37490721082622"><ele>349.0</ele><time>2026-05-02T09:03:26.999Z</time></trkpt><trkpt lat="44.08836454903844" lon="10.374858167768133"><ele>346.25</ele><time>2026-05-02T09:03:27.999Z</time></trkpt><trkpt lat="44.088225807234906" lon="10.37479411708788"><ele>343.5</ele><time>2026-05-02T09:03:28.999Z</time></trkpt><trkpt lat="44.0881036257077" lon="10.374687229094212"><ele>340.75</ele><time>2026-05-02T09:03:29.999Z</time></trkpt><trkpt lat="44.088034465759705" lon="10.374522911316236"><ele>338.0</ele><time>2026-05-02T09:03:30.999Z</time></trkpt><trkpt lat="44.087994411079976" lon="10.374347860376021"><ele>338.6666666666667</ele><time>2026-05-02T09:03:31.999Z</time></trkpt><trkpt lat="44.087927822491636" lon="10.374163260944313"><ele>339.3333333333333</ele><time>2026-05-02T09:03:32.999Z</time></trkpt><trkpt lat="44.08787922320213" lon="10.373956124351903"><ele>340.0</ele><time>2026-05-02T09:03:33.999Z</time></trkpt><trkpt lat="44.08781051051311" lon="10.373739213634472"><ele>340.0</ele><time>2026-05-02T09:03:34.999Z</time></trkpt><trkpt lat="44.087742570027416" lon="10.373528753982482"><ele>340.0</ele><time>2026-05-02T09:03:35.999Z</time></trkpt><trkpt lat="44.08767026169533" lon="10.37330573063179"><ele>340.0</ele><time>2026-05-02T09:03:36.999Z</time></trkpt><trkpt lat="44.08760183728414" lon="10.373086808149228"><ele>342.0</ele><time>2026-05-02T09:03:37.999Z</time></trkpt><trkpt lat="44.087528111171885" lon="10.372878374505357"><ele>344.0</ele><time>2026-05-02T09:03:38.999Z</time></trkpt><trkpt lat="44.08742806508378" lon="10.372704572153"><ele>346.0</ele><time>2026-05-02T09:03:39.999Z</time></trkpt><trkpt lat="44.08730664441019" lon="10.372540633390187"><ele>346.0</ele><time>2026-05-02T09:03:40.999Z</time></trkpt><trkpt lat="44.0872023396404" lon="10.372363450933445"><ele>346.0</ele><time>2026-05-02T09:03:41.999Z</time></trkpt><trkpt lat="44.08708082993419" lon="10.372201059870177"><ele>346.0</ele><time>2026-05-02T09:03:42.999Z</time></trkpt><trkpt lat="44.08695075640043" lon="10.372066212602267"><ele>346.25</ele><time>2026-05-02T09:03:43.999Z</time></trkpt><trkpt lat="44.086840892668995" lon="10.371906916447521"><ele>346.5</ele><time>2026-05-02T09:03:44.999Z</time></trkpt><trkpt lat="44.08673164182116" lon="10.37177217293816"><ele>346.75</ele><time>2026-05-02T09:03:45.999Z</time></trkpt><trkpt lat="44.08663798436858" lon="10.371651543138071"><ele>347.0</ele><time>2026-05-02T09:03:46.999Z</time></trkpt><trkpt lat="44.086570404434866" lon="10.371511019009573"><ele>347.0</ele><time>2026-05-02T09:03:47.999Z</time></trkpt><trkpt lat="44.08649713645753" lon="10.371385400522747"><ele>347.0</ele><time>2026-05-02T09:03:48.999Z</time></trkpt><trkpt lat="44.08648406539021" lon="10.37116881295537"><ele>347.0</ele><time>2026-05-02T09:03:49.999Z</time></trkpt><trkpt lat="44.08642610441505" lon="10.37102781198141"><ele>347.0</ele><time>2026-05-02T09:03:50.999Z</time></trkpt><trkpt lat="44.08631248278399" lon="10.370922165356518"><ele>347.5</ele><time>2026-05-02T09:03:51.999Z</time></trkpt><trkpt lat="44.08618583684653" lon="10.370887643025544"><ele>348.0</ele><time>2026-05-02T09:03:52.999Z</time></trkpt><trkpt lat="44.08603368623274" lon="10.37089866595547"><ele>348.5</ele><time>2026-05-02T09:03:53.999Z</time></trkpt><trkpt lat="44.08587603358791" lon="10.370917631514367"><ele>349.0</ele><time>2026-05-02T09:03:54.999Z</time></trkpt><trkpt lat="44.08572624270999" lon="10.370943414329183"><ele>349.0</ele><time>2026-05-02T09:03:55.999Z</time></trkpt><trkpt lat="44.08559792662858" lon="10.370995282732766"><ele>349.0</ele><time>2026-05-02T09:03:56.999Z</time></trkpt><trkpt lat="44.08548490221503" lon="10.37104056825944"><ele>349.0</ele><time>2026-05-02T09:03:57.999Z</time></trkpt><trkpt lat="44.08537321440835" lon="10.371036151425077"><ele>349.0</ele><time>2026-05-02T09:03:58.999Z</time></trkpt><trkpt lat="44.085249859355166" lon="10.371001092560963"><ele>349.0</ele><time>2026-05-02T09:03:59.999Z</time></trkpt><trkpt lat="44.085128793096445" lon="10.370951964940804"><ele>349.0</ele><time>2026-05-02T09:04:00.999Z</time></trkpt><trkpt lat="44.08501069547119" lon="10.370905095601396"><ele>349.0</ele><time>2026-05-02T09:04:01.999Z</time></trkpt><trkpt lat="44.08490680710952" lon="10.370847753584194"><ele>349.0</ele><time>2026-05-02T09:04:02.999Z</time></trkpt><trkpt lat="44.084826349885894" lon="10.370761526116972"><ele>350.2</ele><time>2026-05-02T09:04:03.999Z</time></trkpt><trkpt lat="44.08478553229677" lon="10.370641082464186"><ele>351.4</ele><time>2026-05-02T09:04:04.999Z</time></trkpt><trkpt lat="44.08480112492798" lon="10.37049726393997"><ele>352.6</ele><time>2026-05-02T09:04:05.999Z</time></trkpt><trkpt lat="44.084844730766775" lon="10.370343900649429"><ele>353.8</ele><time>2026-05-02T09:04:06.999Z</time></trkpt><trkpt lat="44.08489629795463" lon="10.370180958338965"><ele>355.0</ele><time>2026-05-02T09:04:07.999Z</time></trkpt><trkpt lat="44.08497303834927" lon="10.370049750395394"><ele>356.4</ele><time>2026-05-02T09:04:08.999Z</time></trkpt><trkpt lat="44.08506597534683" lon="10.369959133421622"><ele>357.8</ele><time>2026-05-02T09:04:09.999Z</time></trkpt><trkpt lat="44.085111033171245" lon="10.369836162918448"><ele>359.20000000000005</ele><time>2026-05-02T09:04:10.999Z</time></trkpt><trkpt lat="44.08510945321388" lon="10.369685242446426"><ele>360.6</ele><time>2026-05-02T09:04:11.999Z</time></trkpt><trkpt lat="44.08505964050483" lon="10.36953193704195"><ele>362.0</ele><time>2026-05-02T09:04:12.999Z</time></trkpt><trkpt lat="44.08496337999734" lon="10.369396183436054"><ele>357.0</ele><time>2026-05-02T09:04:13.999Z</time></trkpt><trkpt lat="44.084832881208165" lon="10.369293016388164"><ele>352.0</ele><time>2026-05-02T09:04:14.999Z</time></trkpt><trkpt lat="44.084694390778914" lon="10.36918379637686"><ele>347.0</ele><time>2026-05-02T09:04:15.999Z</time></trkpt><trkpt lat="44.08455500038484" lon="10.36907377158677"><ele>347.0</ele><time>2026-05-02T09:04:16.999Z</time></trkpt><trkpt lat="44.084415495351955" lon="10.368962388512301"><ele>347.0</ele><time>2026-05-02T09:04:17.999Z</time></trkpt><trkpt lat="44.084285827271216" lon="10.368853449234198"><ele>347.0</ele><time>2026-05-02T09:04:18.999Z</time></trkpt><trkpt lat="44.084160022677985" lon="10.36877040856443"><ele>349.25</ele><time>2026-05-02T09:04:19.999Z</time></trkpt><trkpt lat="44.08404449037328" lon="10.368705182058212"><ele>351.5</ele><time>2026-05-02T09:04:20.999Z</time></trkpt><trkpt lat="44.08394942190945" lon="10.368620070374526"><ele>353.75</ele><time>2026-05-02T09:04:21.999Z</time></trkpt><trkpt lat="44.08386883084465" lon="10.36849891941102"><ele>356.0</ele><time>2026-05-02T09:04:22.999Z</time></trkpt><trkpt lat="44.08379594656419" lon="10.368361640446818"><ele>356.0</ele><time>2026-05-02T09:04:23.999Z</time></trkpt><trkpt lat="44.08373667813514" lon="10.368221462042067"><ele>356.0</ele><time>2026-05-02T09:04:24.999Z</time></trkpt><trkpt lat="44.083679809410825" lon="10.368096448475224"><ele>356.0</ele><time>2026-05-02T09:04:25.999Z</time></trkpt><trkpt lat="44.08363124733725" lon="10.367982128462213"><ele>356.0</ele><time>2026-05-02T09:04:26.999Z</time></trkpt><trkpt lat="44.08361102040849" lon="10.367864490526804"><ele>356.0</ele><time>2026-05-02T09:04:27.999Z</time></trkpt><trkpt lat="44.083646021582155" lon="10.367758265021296"><ele>358.5</ele><time>2026-05-02T09:04:28.999Z</time></trkpt><trkpt lat="44.08371058766987" lon="10.3676380907338"><ele>361.0</ele><time>2026-05-02T09:04:29.999Z</time></trkpt><trkpt lat="44.08378911302211" lon="10.36751627225893"><ele>363.5</ele><time>2026-05-02T09:04:30.998Z</time></trkpt><trkpt lat="44.08386134090755" lon="10.367379990165789"><ele>366.0</ele><time>2026-05-02T09:04:31.998Z</time></trkpt><trkpt lat="44.08390229012222" lon="10.367205687785406"><ele>363.0</ele><time>2026-05-02T09:04:32.998Z</time></trkpt><trkpt lat="44.083936703613546" lon="10.367023547124445"><ele>360.0</ele><time>2026-05-02T09:04:33.998Z</time></trkpt><trkpt lat="44.083951560872755" lon="10.366831618665861"><ele>357.0</ele><time>2026-05-02T09:04:34.998Z</time></trkpt><trkpt lat="44.083959457343575" lon="10.366656295064233"><ele>354.0</ele><time>2026-05-02T09:04:35.998Z</time></trkpt><trkpt lat="44.08395585335726" lon="10.366490917620574"><ele>355.2</ele><time>2026-05-02T09:04:36.998Z</time></trkpt><trkpt lat="44.08391163968334" lon="10.366346296400337"><ele>356.4</ele><time>2026-05-02T09:04:37.998Z</time></trkpt><trkpt lat="44.08385628059769" lon="10.366208096407581"><ele>357.6</ele><time>2026-05-02T09:04:38.998Z</time></trkpt><trkpt lat="44.08380849637386" lon="10.366065197574223"><ele>358.8</ele><time>2026-05-02T09:04:39.998Z</time></trkpt><trkpt lat="44.08376886979586" lon="10.365939804514637"><ele>360.0</ele><time>2026-05-02T09:04:40.998Z</time></trkpt><trkpt lat="44.083706095255046" lon="10.36584987264776"><ele>360.0</ele><time>2026-05-02T09:04:41.998Z</time></trkpt><trkpt lat="44.08362119595137" lon="10.365821568160765"><ele>360.0</ele><time>2026-05-02T09:04:42.998Z</time></trkpt><trkpt lat="44.08351838171632" lon="10.365843508216225"><ele>360.0</ele><time>2026-05-02T09:04:43.998Z</time></trkpt><trkpt lat="44.08339804135274" lon="10.365880896827768"><ele>360.0</ele><time>2026-05-02T09:04:44.998Z</time></trkpt><trkpt lat="44.083264912553645" lon="10.365880634251788"><ele>360.0</ele><time>2026-05-02T09:04:45.998Z</time></trkpt><trkpt lat="44.083138559440705" lon="10.365901433115804"><ele>360.25</ele><time>2026-05-02T09:04:46.998Z</time></trkpt><trkpt lat="44.083000257946544" lon="10.365920274698496"><ele>360.5</ele><time>2026-05-02T09:04:47.998Z</time></trkpt><trkpt lat="44.08286162062008" lon="10.365919172249166"><ele>360.75</ele><time>2026-05-02T09:04:48.998Z</time></trkpt><trkpt lat="44.08272160436012" lon="10.365906068593954"><ele>361.0</ele><time>2026-05-02T09:04:49.998Z</time></trkpt><trkpt lat="44.08259029019668" lon="10.365893220902356"><ele>361.0</ele><time>2026-05-02T09:04:50.998Z</time></trkpt><trkpt lat="44.0824665928921" lon="10.365857097899356"><ele>361.0</ele><time>2026-05-02T09:04:51.998Z</time></trkpt><trkpt lat="44.082343606323164" lon="10.365786003553588"><ele>361.0</ele><time>2026-05-02T09:04:52.998Z</time></trkpt><trkpt lat="44.082219289346654" lon="10.365689812428549"><ele>361.0</ele><time>2026-05-02T09:04:53.998Z</time></trkpt><trkpt lat="44.082086366585585" lon="10.365599677393853"><ele>360.5</ele><time>2026-05-02T09:04:54.998Z</time></trkpt><trkpt lat="44.08195729907064" lon="10.365503798715439"><ele>360.0</ele><time>2026-05-02T09:04:55.998Z</time></trkpt><trkpt lat="44.08183018742988" lon="10.365422968725628"><ele>359.5</ele><time>2026-05-02T09:04:56.998Z</time></trkpt><trkpt lat="44.08170302111634" lon="10.36533913591894"><ele>359.0</ele><time>2026-05-02T09:04:57.998Z</time></trkpt><trkpt lat="44.08158409630458" lon="10.36525336948228"><ele>359.0</ele><time>2026-05-02T09:04:58.998Z</time></trkpt><trkpt lat="44.081475174830004" lon="10.365163111960692"><ele>359.0</ele><time>2026-05-02T09:04:59.998Z</time></trkpt><trkpt lat="44.08138076971617" lon="10.36504869581835"><ele>359.0</ele><time>2026-05-02T09:05:00.998Z</time></trkpt><trkpt lat="44.081307718283625" lon="10.36489855021398"><ele>359.0</ele><time>2026-05-02T09:05:01.998Z</time></trkpt><trkpt lat="44.0812397746084" lon="10.364733177771017"><ele>361.0</ele><time>2026-05-02T09:05:02.998Z</time></trkpt><trkpt lat="44.08117445079261" lon="10.364559519742869"><ele>363.0</ele><time>2026-05-02T09:05:03.998Z</time></trkpt><trkpt lat="44.081103579926356" lon="10.364385360566999"><ele>365.0</ele><time>2026-05-02T09:05:04.998Z</time></trkpt><trkpt lat="44.08102981416756" lon="10.364208171557074"><ele>367.0</ele><time>2026-05-02T09:05:05.998Z</time></trkpt><trkpt lat="44.08096517158547" lon="10.36402237447557"><ele>367.0</ele><time>2026-05-02T09:05:06.998Z</time></trkpt><trkpt lat="44.080906335124716" lon="10.363831732272889"><ele>367.0</ele><time>2026-05-02T09:05:07.998Z</time></trkpt><trkpt lat="44.08085056654261" lon="10.363645605346091"><ele>367.0</ele><time>2026-05-02T09:05:08.998Z</time></trkpt><trkpt lat="44.08080014616922" lon="10.363461330303402"><ele>367.0</ele><time>2026-05-02T09:05:09.998Z</time></trkpt><trkpt lat="44.08075520233682" lon="10.363272176577146"><ele>370.0</ele><time>2026-05-02T09:05:10.998Z</time></trkpt><trkpt lat="44.08073483299303" lon="10.363081577490245"><ele>373.0</ele><time>2026-05-02T09:05:11.998Z</time></trkpt><trkpt lat="44.080744068443025" lon="10.362875044820095"><ele>376.0</ele><time>2026-05-02T09:05:12.998Z</time></trkpt><trkpt lat="44.08074878660868" lon="10.3626668681326"><ele>379.0</ele><time>2026-05-02T09:05:13.998Z</time></trkpt><trkpt lat="44.08074761571711" lon="10.362445215350485"><ele>379.0</ele><time>2026-05-02T09:05:14.998Z</time></trkpt><trkpt lat="44.0807396785649" lon="10.36221921491418"><ele>379.0</ele><time>2026-05-02T09:05:15.998Z</time></trkpt><trkpt lat="44.08073040266744" lon="10.361986876526732"><ele>379.0</ele><time>2026-05-02T09:05:16.998Z</time></trkpt><trkpt lat="44.080727862668795" lon="10.361756707965897"><ele>379.0</ele><time>2026-05-02T09:05:17.998Z</time></trkpt><trkpt lat="44.080722177691285" lon="10.36153058533003"><ele>379.0</ele><time>2026-05-02T09:05:18.998Z</time></trkpt><trkpt lat="44.080719704243265" lon="10.36130527908547"><ele>379.0</ele><time>2026-05-02T09:05:19.998Z</time></trkpt><trkpt lat="44.080711236014764" lon="10.36108015799278"><ele>379.66666666666663</ele><time>2026-05-02T09:05:20.998Z</time></trkpt><trkpt lat="44.08071123952658" lon="10.360856477172758"><ele>380.3333333333333</ele><time>2026-05-02T09:05:21.998Z</time></trkpt><trkpt lat="44.08071020667617" lon="10.360638016823462"><ele>381.0</ele><time>2026-05-02T09:05:22.998Z</time></trkpt><trkpt lat="44.08070682674306" lon="10.360425727192661"><ele>381.5</ele><time>2026-05-02T09:05:23.998Z</time></trkpt><trkpt lat="44.080718040563276" lon="10.360237019944726"><ele>382.0</ele><time>2026-05-02T09:05:24.998Z</time></trkpt><trkpt lat="44.080760290233" lon="10.3600590532986"><ele>382.5</ele><time>2026-05-02T09:05:25.998Z</time></trkpt><trkpt lat="44.08083404284098" lon="10.359883123853152"><ele>383.0</ele><time>2026-05-02T09:05:26.999Z</time></trkpt><trkpt lat="44.080918263254155" lon="10.359706736903842"><ele>380.33333333333337</ele><time>2026-05-02T09:05:27.999Z</time></trkpt><trkpt lat="44.0810049551264" lon="10.359520126684428"><ele>377.6666666666667</ele><time>2026-05-02T09:05:28.999Z</time></trkpt><trkpt lat="44.0810916512321" lon="10.359327480114187"><ele>375.0</ele><time>2026-05-02T09:05:29.999Z</time></trkpt><trkpt lat="44.081177243137304" lon="10.359143757440684"><ele>375.0</ele><time>2026-05-02T09:05:30.999Z</time></trkpt><trkpt lat="44.08125712874987" lon="10.358976694305388"><ele>375.0</ele><time>2026-05-02T09:05:31.999Z</time></trkpt><trkpt lat="44.08131621357702" lon="10.358815081494814"><ele>375.0</ele><time>2026-05-02T09:05:32.999Z</time></trkpt><trkpt lat="44.08134483865373" lon="10.358647324153484"><ele>375.0</ele><time>2026-05-02T09:05:33.999Z</time></trkpt><trkpt lat="44.08133499145906" lon="10.358469168155231"><ele>375.25</ele><time>2026-05-02T09:05:34.999Z</time></trkpt><trkpt lat="44.08129320216367" lon="10.358285446571829"><ele>375.5</ele><time>2026-05-02T09:05:35.999Z</time></trkpt><trkpt lat="44.08125312037699" lon="10.358094320846742"><ele>375.75</ele><time>2026-05-02T09:05:36.999Z</time></trkpt><trkpt lat="44.08121447864743" lon="10.357901713309868"><ele>376.0</ele><time>2026-05-02T09:05:37.999Z</time></trkpt><trkpt lat="44.08115845757018" lon="10.357706473897847"><ele>378.3333333333333</ele><time>2026-05-02T09:05:38.999Z</time></trkpt><trkpt lat="44.081089903389476" lon="10.357516914191137"><ele>380.6666666666667</ele><time>2026-05-02T09:05:39.999Z</time></trkpt><trkpt lat="44.08100623136749" lon="10.357331870433882"><ele>383.0</ele><time>2026-05-02T09:05:40.999Z</time></trkpt><trkpt lat="44.0809197587387" lon="10.357151303213826"><ele>389.0</ele><time>2026-05-02T09:05:41.999Z</time></trkpt><trkpt lat="44.08083534429383" lon="10.35696142251584"><ele>395.0</ele><time>2026-05-02T09:05:42.999Z</time></trkpt><trkpt lat="44.08075540215565" lon="10.35676969209879"><ele>401.0</ele><time>2026-05-02T09:05:43.999Z</time></trkpt><trkpt lat="44.080684703286614" lon="10.356577390380028"><ele>405.66666666666663</ele><time>2026-05-02T09:05:44.999Z</time></trkpt><trkpt lat="44.08062234738608" lon="10.356379524487227"><ele>410.33333333333337</ele><time>2026-05-02T09:05:45.999Z</time></trkpt><trkpt lat="44.08057064116606" lon="10.356175231416964"><ele>415.0</ele><time>2026-05-02T09:05:46.999Z</time></trkpt><trkpt lat="44.080552204192514" lon="10.355959463315033"><ele>415.0</ele><time>2026-05-02T09:05:47.999Z</time></trkpt><trkpt lat="44.080543174906474" lon="10.355745892387308"><ele>415.0</ele><time>2026-05-02T09:05:48.999Z</time></trkpt><trkpt lat="44.08054814167452" lon="10.355523753550221"><ele>415.0</ele><time>2026-05-02T09:05:49.999Z</time></trkpt><trkpt lat="44.080553637189595" lon="10.355298118647001"><ele>408.0</ele><time>2026-05-02T09:05:50.999Z</time></trkpt><trkpt lat="44.08054519785018" lon="10.355075065549402"><ele>401.0</ele><time>2026-05-02T09:05:51.999Z</time></trkpt><trkpt lat="44.080525053637956" lon="10.35485710942059"><ele>394.0</ele><time>2026-05-02T09:05:52.999Z</time></trkpt><trkpt lat="44.08050320917662" lon="10.35464132191528"><ele>390.0</ele><time>2026-05-02T09:05:53.999Z</time></trkpt><trkpt lat="44.08048154283267" lon="10.354430771096476"><ele>386.0</ele><time>2026-05-02T09:05:54.999Z</time></trkpt><trkpt lat="44.08043852901374" lon="10.354227455840839"><ele>382.0</ele><time>2026-05-02T09:05:55.999Z</time></trkpt><trkpt lat="44.080365849819074" lon="10.3540310616731"><ele>386.3333333333333</ele><time>2026-05-02T09:05:56.999Z</time></trkpt><trkpt lat="44.08027907123846" lon="10.353838738951687"><ele>390.66666666666663</ele><time>2026-05-02T09:05:57.999Z</time></trkpt><trkpt lat="44.0801943605955" lon="10.35364365649186"><ele>395.0</ele><time>2026-05-02T09:05:58.999Z</time></trkpt><trkpt lat="44.0801179995796" lon="10.353445595968935"><ele>395.0</ele><time>2026-05-02T09:05:59.999Z</time></trkpt><trkpt lat="44.08004266030564" lon="10.353256711146924"><ele>395.0</ele><time>2026-05-02T09:06:00.999Z</time></trkpt><trkpt lat="44.07994430806536" lon="10.353092511516003"><ele>395.0</ele><time>2026-05-02T09:06:01.999Z</time></trkpt><trkpt lat="44.079830832584314" lon="10.352964679137472"><ele>395.5</ele><time>2026-05-02T09:06:02.999Z</time></trkpt><trkpt lat="44.079718183378866" lon="10.352834866932936"><ele>396.0</ele><time>2026-05-02T09:06:03.999Z</time></trkpt><trkpt lat="44.079613159010265" lon="10.352715180584669"><ele>396.5</ele><time>2026-05-02T09:06:04.999Z</time></trkpt><trkpt lat="44.079498936780205" lon="10.352630144629943"><ele>397.0</ele><time>2026-05-02T09:06:05.999Z</time></trkpt><trkpt lat="44.07936449927029" lon="10.352595025157289"><ele>397.0</ele><time>2026-05-02T09:06:06.999Z</time></trkpt><trkpt lat="44.07921691641235" lon="10.35258651253217"><ele>397.0</ele><time>2026-05-02T09:06:07.999Z</time></trkpt><trkpt lat="44.07907348819835" lon="10.352591084130987"><ele>397.0</ele><time>2026-05-02T09:06:08.999Z</time></trkpt><trkpt lat="44.07892257470144" lon="10.352596593897418"><ele>397.0</ele><time>2026-05-02T09:06:09.999Z</time></trkpt><trkpt lat="44.07877917670813" lon="10.352596220836762"><ele>395.5</ele><time>2026-05-02T09:06:10.999Z</time></trkpt><trkpt lat="44.07864490578908" lon="10.35259837249017"><ele>394.0</ele><time>2026-05-02T09:06:11.999Z</time></trkpt><trkpt lat="44.07850716183206" lon="10.35258681517082"><ele>392.5</ele><time>2026-05-02T09:06:12.999Z</time></trkpt><trkpt lat="44.07837658877161" lon="10.352581137745013"><ele>391.0</ele><time>2026-05-02T09:06:13.999Z</time></trkpt><trkpt lat="44.07826733584465" lon="10.352554285061371"><ele>391.0</ele><time>2026-05-02T09:06:14.999Z</time></trkpt><trkpt lat="44.078172940795554" lon="10.352522826792903"><ele>391.0</ele><time>2026-05-02T09:06:15.999Z</time></trkpt><trkpt lat="44.07809660259548" lon="10.35244415143336"><ele>391.0</ele><time>2026-05-02T09:06:16.999Z</time></trkpt><trkpt lat="44.07802795748631" lon="10.35232387435526"><ele>391.0</ele><time>2026-05-02T09:06:17.999Z</time></trkpt><trkpt lat="44.077958148702244" lon="10.352206267050544"><ele>391.0</ele><time>2026-05-02T09:06:18.999Z</time></trkpt><trkpt lat="44.07787252051918" lon="10.352085069467899"><ele>391.0</ele><time>2026-05-02T09:06:19.999Z</time></trkpt><trkpt lat="44.07778878888706" lon="10.351950201289332"><ele>391.0</ele><time>2026-05-02T09:06:20.999Z</time></trkpt><trkpt lat="44.077698322946" lon="10.351819787834996"><ele>391.0</ele><time>2026-05-02T09:06:21.999Z</time></trkpt><trkpt lat="44.07760435558304" lon="10.351695392272605"><ele>391.0</ele><time>2026-05-02T09:06:22.999Z</time></trkpt><trkpt lat="44.07748718775335" lon="10.35162845033258"><ele>388.25</ele><time>2026-05-02T09:06:23.999Z</time></trkpt><trkpt lat="44.077364821385835" lon="10.351597462579425"><ele>385.5</ele><time>2026-05-02T09:06:24.999Z</time></trkpt><trkpt lat="44.07724577000004" lon="10.35157685639366"><ele>382.75</ele><time>2026-05-02T09:06:25.999Z</time></trkpt><trkpt lat="44.07713662945721" lon="10.351553852675822"><ele>380.0</ele><time>2026-05-02T09:06:26.999Z</time></trkpt><trkpt lat="44.077044097661954" lon="10.351502922302325"><ele>380.0</ele><time>2026-05-02T09:06:27.999Z</time></trkpt><trkpt lat="44.07697258306723" lon="10.351411822591357"><ele>380.0</ele><time>2026-05-02T09:06:28.999Z</time></trkpt><trkpt lat="44.0769367010262" lon="10.35129091694298"><ele>380.0</ele><time>2026-05-02T09:06:29.999Z</time></trkpt><trkpt lat="44.076942139501405" lon="10.3511614154677"><ele>380.0</ele><time>2026-05-02T09:06:30.999Z</time></trkpt><trkpt lat="44.0770051411387" lon="10.351049520029413"><ele>380.0</ele><time>2026-05-02T09:06:31.999Z</time></trkpt><trkpt lat="44.07708631924824" lon="10.350943457704702"><ele>381.0</ele><time>2026-05-02T09:06:32.999Z</time></trkpt><trkpt lat="44.0771700010418" lon="10.350834008840549"><ele>382.0</ele><time>2026-05-02T09:06:33.999Z</time></trkpt><trkpt lat="44.07724235736147" lon="10.350689346441659"><ele>383.0</ele><time>2026-05-02T09:06:34.999Z</time></trkpt><trkpt lat="44.07728830372934" lon="10.350504629340634"><ele>384.0</ele><time>2026-05-02T09:06:35.999Z</time></trkpt><trkpt lat="44.07729274092688" lon="10.350312510625342"><ele>386.75</ele><time>2026-05-02T09:06:36.999Z</time></trkpt><trkpt lat="44.077279202893955" lon="10.350110871747836"><ele>389.5</ele><time>2026-05-02T09:06:37.999Z</time></trkpt><trkpt lat="44.07725430178692" lon="10.349919468047526"><ele>392.25</ele><time>2026-05-02T09:06:38.999Z</time></trkpt><trkpt lat="44.07723591571768" lon="10.349745697975914"><ele>395.0</ele><time>2026-05-02T09:06:39.999Z</time></trkpt><trkpt lat="44.077264914009" lon="10.349578905050963"><ele>395.5</ele><time>2026-05-02T09:06:40.999Z</time></trkpt><trkpt lat="44.07733417830805" lon="10.349437562238707"><ele>396.0</ele><time>2026-05-02T09:06:41.999Z</time></trkpt><trkpt lat="44.07742134851786" lon="10.349299542574638"><ele>396.5</ele><time>2026-05-02T09:06:42.999Z</time></trkpt><trkpt lat="44.07752741802455" lon="10.3491662105084"><ele>397.0</ele><time>2026-05-02T09:06:43.999Z</time></trkpt><trkpt lat="44.07763324933608" lon="10.34903018897075"><ele>397.0</ele><time>2026-05-02T09:06:44.999Z</time></trkpt><trkpt lat="44.077736820895964" lon="10.348884820957004"><ele>397.0</ele><time>2026-05-02T09:06:45.999Z</time></trkpt><trkpt lat="44.07782953226563" lon="10.348730200714673"><ele>397.0</ele><time>2026-05-02T09:06:46.999Z</time></trkpt><trkpt lat="44.07789155635963" lon="10.348552584562697"><ele>397.0</ele><time>2026-05-02T09:06:47.999Z</time></trkpt><trkpt lat="44.07791479134472" lon="10.348359397486474"><ele>395.75</ele><time>2026-05-02T09:06:48.999Z</time></trkpt><trkpt lat="44.0779041537437" lon="10.348161281827922"><ele>394.5</ele><time>2026-05-02T09:06:49.999Z</time></trkpt><trkpt lat="44.07787472995427" lon="10.347964394536616"><ele>393.25</ele><time>2026-05-02T09:06:50.999Z</time></trkpt><trkpt lat="44.07784932107913" lon="10.347770459599287"><ele>392.0</ele><time>2026-05-02T09:06:51.999Z</time></trkpt><trkpt lat="44.07780983253303" lon="10.347572785987772"><ele>391.3333333333333</ele><time>2026-05-02T09:06:52.999Z</time></trkpt><trkpt lat="44.07774048313124" lon="10.34739142725396"><ele>390.66666666666663</ele><time>2026-05-02T09:06:53.999Z</time></trkpt><trkpt lat="44.07765978385292" lon="10.347215826633004"><ele>390.0</ele><time>2026-05-02T09:06:54.999Z</time></trkpt><trkpt lat="44.077567503984284" lon="10.347039503991553"><ele>392.0</ele><time>2026-05-02T09:06:55.999Z</time></trkpt><trkpt lat="44.077477854741446" lon="10.34685932429589"><ele>394.0</ele><time>2026-05-02T09:06:56.999Z</time></trkpt><trkpt lat="44.07737706384032" lon="10.346711370138864"><ele>396.0</ele><time>2026-05-02T09:06:57.999Z</time></trkpt><trkpt lat="44.07725853391364" lon="10.346597258728256"><ele>398.0</ele><time>2026-05-02T09:06:58.999Z</time></trkpt><trkpt lat="44.07713759616015" lon="10.346510815422404"><ele>398.0</ele><time>2026-05-02T09:06:59.998Z</time></trkpt><trkpt lat="44.07703076219404" lon="10.346414359901152"><ele>398.0</ele><time>2026-05-02T09:07:00.998Z</time></trkpt><trkpt lat="44.07695153823964" lon="10.346296916590523"><ele>398.0</ele><time>2026-05-02T09:07:01.998Z</time></trkpt><trkpt lat="44.076899482180885" lon="10.346156302823491"><ele>398.0</ele><time>2026-05-02T09:07:02.998Z</time></trkpt><trkpt lat="44.076882491662914" lon="10.346002869795784"><ele>397.75</ele><time>2026-05-02T09:07:03.998Z</time></trkpt><trkpt lat="44.07689502507675" lon="10.345852015113639"><ele>397.5</ele><time>2026-05-02T09:07:04.998Z</time></trkpt><trkpt lat="44.07694001340614" lon="10.345697446346438"><ele>397.25</ele><time>2026-05-02T09:07:05.998Z</time></trkpt><trkpt lat="44.07699641881849" lon="10.345542623857638"><ele>397.0</ele><time>2026-05-02T09:07:06.998Z</time></trkpt><trkpt lat="44.07706038520966" lon="10.345381564226406"><ele>396.5</ele><time>2026-05-02T09:07:07.998Z</time></trkpt><trkpt lat="44.07714974140208" lon="10.345241018892612"><ele>396.0</ele><time>2026-05-02T09:07:08.998Z</time></trkpt><trkpt lat="44.07723955825632" lon="10.34511492806736"><ele>395.5</ele><time>2026-05-02T09:07:09.998Z</time></trkpt><trkpt lat="44.07731084894809" lon="10.344968960170965"><ele>395.0</ele><time>2026-05-02T09:07:10.998Z</time></trkpt><trkpt lat="44.077352525916474" lon="10.344808648300567"><ele>395.0</ele><time>2026-05-02T09:07:11.998Z</time></trkpt><trkpt lat="44.07735730456145" lon="10.344633272053139"><ele>395.0</ele><time>2026-05-02T09:07:12.998Z</time></trkpt><trkpt lat="44.07732471630196" lon="10.344460274277584"><ele>395.0</ele><time>2026-05-02T09:07:13.998Z</time></trkpt><trkpt lat="44.07725774117198" lon="10.34430497034348"><ele>395.0</ele><time>2026-05-02T09:07:14.998Z</time></trkpt><trkpt lat="44.077163135677864" lon="10.344170270419099"><ele>395.0</ele><time>2026-05-02T09:07:15.998Z</time></trkpt><trkpt lat="44.077047346295274" lon="10.344060387765062"><ele>395.0</ele><time>2026-05-02T09:07:16.998Z</time></trkpt><trkpt lat="44.07692541231279" lon="10.34395554201568"><ele>395.0</ele><time>2026-05-02T09:07:17.998Z</time></trkpt><trkpt lat="44.0768014183003" lon="10.343852717666023"><ele>395.0</ele><time>2026-05-02T09:07:18.998Z</time></trkpt><trkpt lat="44.076662603422385" lon="10.343782062072487"><ele>406.0</ele><time>2026-05-02T09:07:19.998Z</time></trkpt><trkpt lat="44.076508418465906" lon="10.34377032838185"><ele>417.0</ele><time>2026-05-02T09:07:20.998Z</time></trkpt><trkpt lat="44.076354087761246" lon="10.343788365249582"><ele>428.0</ele><time>2026-05-02T09:07:21.998Z</time></trkpt><trkpt lat="44.0762011524671" lon="10.343806918080679"><ele>428.0</ele><time>2026-05-02T09:07:22.998Z</time></trkpt><trkpt lat="44.076052615976515" lon="10.343819163523836"><ele>428.0</ele><time>2026-05-02T09:07:23.998Z</time></trkpt><trkpt lat="44.07591024403739" lon="10.34386517429928"><ele>428.0</ele><time>2026-05-02T09:07:24.998Z</time></trkpt><trkpt lat="44.075778433901576" lon="10.34396704294272"><ele>428.0</ele><time>2026-05-02T09:07:25.998Z</time></trkpt><trkpt lat="44.075647339659135" lon="10.344095477385133"><ele>424.0</ele><time>2026-05-02T09:07:26.998Z</time></trkpt><trkpt lat="44.07552157546867" lon="10.344203156586321"><ele>420.0</ele><time>2026-05-02T09:07:27.998Z</time></trkpt><trkpt lat="44.0754006121307" lon="10.344296161781589"><ele>416.0</ele><time>2026-05-02T09:07:28.998Z</time></trkpt><trkpt lat="44.07528484211534" lon="10.344369520030915"><ele>412.0</ele><time>2026-05-02T09:07:29.998Z</time></trkpt><trkpt lat="44.07516750436074" lon="10.344407441567352"><ele>412.0</ele><time>2026-05-02T09:07:30.998Z</time></trkpt><trkpt lat="44.07505207897123" lon="10.34440949976008"><ele>412.0</ele><time>2026-05-02T09:07:31.998Z</time></trkpt><trkpt lat="44.074929844791576" lon="10.344376689401603"><ele>412.0</ele><time>2026-05-02T09:07:33Z</time></trkpt><trkpt lat="44.07480336731412" lon="10.344326731153158"><ele>412.0</ele><time>2026-05-02T09:07:34Z</time></trkpt><trkpt lat="44.074681078022344" lon="10.344277790220998"><ele>414.20000000000005</ele><time>2026-05-02T09:07:35Z</time></trkpt><trkpt lat="44.07458032680203" lon="10.344201032862232"><ele>416.4</ele><time>2026-05-02T09:07:36Z</time></trkpt><trkpt lat="44.074516547106434" lon="10.344082860721965"><ele>418.6</ele><time>2026-05-02T09:07:37Z</time></trkpt><trkpt lat="44.074491331188085" lon="10.343937308395768"><ele>420.79999999999995</ele><time>2026-05-02T09:07:38Z</time></trkpt><trkpt lat="44.074498698478614" lon="10.343775568105423"><ele>423.0</ele><time>2026-05-02T09:07:39Z</time></trkpt><trkpt lat="44.074538568196616" lon="10.343617764034496"><ele>423.0</ele><time>2026-05-02T09:07:40Z</time></trkpt><trkpt lat="44.074618439362375" lon="10.34347409337632"><ele>423.0</ele><time>2026-05-02T09:07:41Z</time></trkpt><trkpt lat="44.0747056356458" lon="10.343327535713188"><ele>423.0</ele><time>2026-05-02T09:07:42Z</time></trkpt><trkpt lat="44.07479041607003" lon="10.343158914508257"><ele>423.0</ele><time>2026-05-02T09:07:43Z</time></trkpt><trkpt lat="44.07486623139257" lon="10.342962212011333"><ele>421.33333333333337</ele><time>2026-05-02T09:07:44Z</time></trkpt><trkpt lat="44.07493919524151" lon="10.342761816801671"><ele>419.6666666666667</ele><time>2026-05-02T09:07:45Z</time></trkpt><trkpt lat="44.07501257911063" lon="10.342572531013976"><ele>418.0</ele><time>2026-05-02T09:07:46Z</time></trkpt><trkpt lat="44.07509648160342" lon="10.34240932326612"><ele>418.0</ele><time>2026-05-02T09:07:47Z</time></trkpt><trkpt lat="44.07519608498075" lon="10.342266696592473"><ele>418.0</ele><time>2026-05-02T09:07:48Z</time></trkpt><trkpt lat="44.07530561408827" lon="10.342148851731176"><ele>418.0</ele><time>2026-05-02T09:07:49Z</time></trkpt><trkpt lat="44.075390517793785" lon="10.342001079326037"><ele>418.0</ele><time>2026-05-02T09:07:50Z</time></trkpt><trkpt lat="44.07543195103974" lon="10.341815676705208"><ele>419.0</ele><time>2026-05-02T09:07:51Z</time></trkpt><trkpt lat="44.07543559418063" lon="10.341633610661184"><ele>420.0</ele><time>2026-05-02T09:07:52Z</time></trkpt><trkpt lat="44.07540042603495" lon="10.34146288893129"><ele>421.0</ele><time>2026-05-02T09:07:53Z</time></trkpt><trkpt lat="44.07532823314656" lon="10.341304915205905"><ele>422.0</ele><time>2026-05-02T09:07:54Z</time></trkpt><trkpt lat="44.07524194118572" lon="10.341150763511317"><ele>422.0</ele><time>2026-05-02T09:07:55Z</time></trkpt><trkpt lat="44.07516925820982" lon="10.340991545643789"><ele>422.0</ele><time>2026-05-02T09:07:56Z</time></trkpt><trkpt lat="44.075081107516475" lon="10.34085262745744"><ele>422.0</ele><time>2026-05-02T09:07:57Z</time></trkpt><trkpt lat="44.07496390454021" lon="10.340759646100127"><ele>422.0</ele><time>2026-05-02T09:07:58Z</time></trkpt><trkpt lat="44.0748337700818" lon="10.340702672332544"><ele>420.75</ele><time>2026-05-02T09:07:59Z</time></trkpt><trkpt lat="44.07469800124797" lon="10.340683034003955"><ele>419.5</ele><time>2026-05-02T09:08:00Z</time></trkpt><trkpt lat="44.074558210493265" lon="10.34070342395102"><ele>418.25</ele><time>2026-05-02T09:08:01Z</time></trkpt><trkpt lat="44.074418968779305" lon="10.340748665732828"><ele>417.0</ele><time>2026-05-02T09:08:02Z</time></trkpt><trkpt lat="44.074283269001164" lon="10.340814903234225"><ele>417.0</ele><time>2026-05-02T09:08:03Z</time></trkpt><trkpt lat="44.07415355372008" lon="10.340909028963559"><ele>417.0</ele><time>2026-05-02T09:08:04Z</time></trkpt><trkpt lat="44.074026645293166" lon="10.341019083638088"><ele>417.0</ele><time>2026-05-02T09:08:05Z</time></trkpt><trkpt lat="44.073904710352885" lon="10.341121080702163"><ele>417.0</ele><time>2026-05-02T09:08:06Z</time></trkpt><trkpt lat="44.073788718897745" lon="10.341210010072135"><ele>416.0</ele><time>2026-05-02T09:08:07Z</time></trkpt><trkpt lat="44.07367897582954" lon="10.341295193008255"><ele>415.0</ele><time>2026-05-02T09:08:08Z</time></trkpt><trkpt lat="44.0735726739031" lon="10.34136160748509"><ele>414.0</ele><time>2026-05-02T09:08:09Z</time></trkpt><trkpt lat="44.07346562637419" lon="10.341395302410888"><ele>413.0</ele><time>2026-05-02T09:08:10Z</time></trkpt><trkpt lat="44.0733599313489" lon="10.34138505348734"><ele>412.0</ele><time>2026-05-02T09:08:11Z</time></trkpt><trkpt lat="44.07325367749826" lon="10.34131182391492"><ele>411.0</ele><time>2026-05-02T09:08:12Z</time></trkpt><trkpt lat="44.073145484567576" lon="10.341220587232526"><ele>410.0</ele><time>2026-05-02T09:08:13Z</time></trkpt><trkpt lat="44.0730305094841" lon="10.34113697994242"><ele>409.0</ele><time>2026-05-02T09:08:14Z</time></trkpt><trkpt lat="44.0729190722223" lon="10.3410409824716"><ele>409.0</ele><time>2026-05-02T09:08:15Z</time></trkpt><trkpt lat="44.07283117470938" lon="10.340901940188179"><ele>409.0</ele><time>2026-05-02T09:08:16Z</time></trkpt><trkpt lat="44.07276904699002" lon="10.340736005446828"><ele>409.0</ele><time>2026-05-02T09:08:17Z</time></trkpt><trkpt lat="44.07272771986116" lon="10.340545889029501"><ele>409.0</ele><time>2026-05-02T09:08:18Z</time></trkpt><trkpt lat="44.072678253675655" lon="10.340358586631762"><ele>410.6666666666667</ele><time>2026-05-02T09:08:19Z</time></trkpt><trkpt lat="44.07261714707945" lon="10.340164773958897"><ele>412.33333333333337</ele><time>2026-05-02T09:08:20Z</time></trkpt><trkpt lat="44.072558445418075" lon="10.339969151497089"><ele>414.0</ele><time>2026-05-02T09:08:21Z</time></trkpt><trkpt lat="44.07250009640181" lon="10.339763813340682"><ele>418.25</ele><time>2026-05-02T09:08:22Z</time></trkpt><trkpt lat="44.07244346162857" lon="10.339558182999703"><ele>422.5</ele><time>2026-05-02T09:08:23Z</time></trkpt><trkpt lat="44.072389712035076" lon="10.339372016260057"><ele>426.75</ele><time>2026-05-02T09:08:24Z</time></trkpt><trkpt lat="44.0723507566154" lon="10.339195401745204"><ele>431.0</ele><time>2026-05-02T09:08:25Z</time></trkpt><trkpt lat="44.07234912935727" lon="10.33901925816194"><ele>429.0</ele><time>2026-05-02T09:08:26Z</time></trkpt><trkpt lat="44.072378344889934" lon="10.338834284079011"><ele>427.0</ele><time>2026-05-02T09:08:27Z</time></trkpt><trkpt lat="44.07242690037326" lon="10.338654810297411"><ele>425.0</ele><time>2026-05-02T09:08:28Z</time></trkpt><trkpt lat="44.072481668452866" lon="10.338468868254354"><ele>423.0</ele><time>2026-05-02T09:08:29Z</time></trkpt><trkpt lat="44.072535114519006" lon="10.338275761326303"><ele>423.0</ele><time>2026-05-02T09:08:30Z</time></trkpt><trkpt lat="44.07259140833346" lon="10.338075735604143"><ele>423.0</ele><time>2026-05-02T09:08:30.999Z</time></trkpt><trkpt lat="44.07264308625906" lon="10.337870697594195"><ele>423.0</ele><time>2026-05-02T09:08:31.999Z</time></trkpt><trkpt lat="44.07267613314646" lon="10.337654966856789"><ele>423.0</ele><time>2026-05-02T09:08:32.999Z</time></trkpt><trkpt lat="44.072689837252476" lon="10.337429905475913"><ele>423.0</ele><time>2026-05-02T09:08:33.999Z</time></trkpt><trkpt lat="44.07268413490178" lon="10.337197407668528"><ele>423.0</ele><time>2026-05-02T09:08:34.999Z</time></trkpt><trkpt lat="44.07266246866213" lon="10.33696302147331"><ele>422.66666666666663</ele><time>2026-05-02T09:08:35.999Z</time></trkpt><trkpt lat="44.072639850724464" lon="10.336733341708658"><ele>422.3333333333333</ele><time>2026-05-02T09:08:36.999Z</time></trkpt><trkpt lat="44.07261227855707" lon="10.33652004006701"><ele>422.0</ele><time>2026-05-02T09:08:37.999Z</time></trkpt><trkpt lat="44.07255666267096" lon="10.336314966787848"><ele>420.0</ele><time>2026-05-02T09:08:38.999Z</time></trkpt><trkpt lat="44.07248376519185" lon="10.336137368370292"><ele>418.0</ele><time>2026-05-02T09:08:39.999Z</time></trkpt><trkpt lat="44.07240191029325" lon="10.33598515892102"><ele>416.0</ele><time>2026-05-02T09:08:40.999Z</time></trkpt><trkpt lat="44.0723005397087" lon="10.335858867765284"><ele>414.0</ele><time>2026-05-02T09:08:41.999Z</time></trkpt><trkpt lat="44.072178882105256" lon="10.33575376899641"><ele>412.0</ele><time>2026-05-02T09:08:42.999Z</time></trkpt><trkpt lat="44.07204917216851" lon="10.335653179392297"><ele>410.0</ele><time>2026-05-02T09:08:43.999Z</time></trkpt><trkpt lat="44.071922042890975" lon="10.335547145934667"><ele>408.0</ele><time>2026-05-02T09:08:44.999Z</time></trkpt><trkpt lat="44.07179201857986" lon="10.335437838573297"><ele>406.0</ele><time>2026-05-02T09:08:45.999Z</time></trkpt><trkpt lat="44.071653367618275" lon="10.335345626208108"><ele>412.0</ele><time>2026-05-02T09:08:46.999Z</time></trkpt><trkpt lat="44.07150438550014" lon="10.335285991132611"><ele>418.0</ele><time>2026-05-02T09:08:47.999Z</time></trkpt><trkpt lat="44.07134969716869" lon="10.3352653074839"><ele>424.0</ele><time>2026-05-02T09:08:48.999Z</time></trkpt><trkpt lat="44.071190599324744" lon="10.335280383768227"><ele>424.0</ele><time>2026-05-02T09:08:49.999Z</time></trkpt><trkpt lat="44.07103183481499" lon="10.33530092664246"><ele>424.0</ele><time>2026-05-02T09:08:50.999Z</time></trkpt><trkpt lat="44.070880676791546" lon="10.335310999170245"><ele>424.0</ele><time>2026-05-02T09:08:51.999Z</time></trkpt><trkpt lat="44.07074725763953" lon="10.335299548527091"><ele>424.0</ele><time>2026-05-02T09:08:52.999Z</time></trkpt><trkpt lat="44.07064234271914" lon="10.335233372798504"><ele>424.75</ele><time>2026-05-02T09:08:53.999Z</time></trkpt><trkpt lat="44.070570241763726" lon="10.335121840146995"><ele>425.5</ele><time>2026-05-02T09:08:54.999Z</time></trkpt><trkpt lat="44.07053450802212" lon="10.334969433941849"><ele>426.25</ele><time>2026-05-02T09:08:55.999Z</time></trkpt><trkpt lat="44.0705187801104" lon="10.334792901587363"><ele>427.0</ele><time>2026-05-02T09:08:56.999Z</time></trkpt><trkpt lat="44.07049900662919" lon="10.334601468536565"><ele>427.33333333333337</ele><time>2026-05-02T09:08:57.999Z</time></trkpt><trkpt lat="44.070469505176646" lon="10.334400483631745"><ele>427.66666666666663</ele><time>2026-05-02T09:08:58.999Z</time></trkpt><trkpt lat="44.070440259524055" lon="10.334188628601481"><ele>428.0</ele><time>2026-05-02T09:08:59.999Z</time></trkpt><trkpt lat="44.0704095945288" lon="10.33396613336721"><ele>432.0</ele><time>2026-05-02T09:09:00.999Z</time></trkpt><trkpt lat="44.07037113422023" lon="10.333742916432723"><ele>436.0</ele><time>2026-05-02T09:09:01.999Z</time></trkpt><trkpt lat="44.07031811172925" lon="10.333525538300801"><ele>440.0</ele><time>2026-05-02T09:09:02.999Z</time></trkpt><trkpt lat="44.07026517175425" lon="10.333310741666747"><ele>440.0</ele><time>2026-05-02T09:09:03.999Z</time></trkpt><trkpt lat="44.07023889241198" lon="10.333085553810202"><ele>440.0</ele><time>2026-05-02T09:09:04.999Z</time></trkpt><trkpt lat="44.070223501660806" lon="10.332850191491572"><ele>440.0</ele><time>2026-05-02T09:09:05.999Z</time></trkpt><trkpt lat="44.07019972050125" lon="10.332614063345643"><ele>441.0</ele><time>2026-05-02T09:09:06.999Z</time></trkpt><trkpt lat="44.07017363543564" lon="10.332371923295735"><ele>442.0</ele><time>2026-05-02T09:09:07.999Z</time></trkpt><trkpt lat="44.070152470268006" lon="10.332127627091166"><ele>443.0</ele><time>2026-05-02T09:09:08.999Z</time></trkpt><trkpt lat="44.0701287528351" lon="10.331874978372207"><ele>443.0</ele><time>2026-05-02T09:09:09.999Z</time></trkpt><trkpt lat="44.07009917594959" lon="10.331634726354402"><ele>443.0</ele><time>2026-05-02T09:09:10.999Z</time></trkpt><trkpt lat="44.07004253680784" lon="10.331406914870888"><ele>443.0</ele><time>2026-05-02T09:09:11.999Z</time></trkpt><trkpt lat="44.06995707337245" lon="10.331198839243642"><ele>442.3333333333333</ele><time>2026-05-02T09:09:12.999Z</time></trkpt><trkpt lat="44.06983734620612" lon="10.331017996612395"><ele>441.66666666666663</ele><time>2026-05-02T09:09:13.999Z</time></trkpt><trkpt lat="44.06968660559369" lon="10.330877669511134"><ele>441.0</ele><time>2026-05-02T09:09:14.999Z</time></trkpt><trkpt lat="44.06952826228932" lon="10.33076129139463"><ele>441.0</ele><time>2026-05-02T09:09:15.999Z</time></trkpt><trkpt lat="44.069373802141314" lon="10.33065684237285"><ele>441.0</ele><time>2026-05-02T09:09:16.999Z</time></trkpt><trkpt lat="44.06923364339971" lon="10.330550497416956"><ele>441.0</ele><time>2026-05-02T09:09:17.999Z</time></trkpt><trkpt lat="44.06911153931709" lon="10.330448007950368"><ele>440.75</ele><time>2026-05-02T09:09:18.999Z</time></trkpt><trkpt lat="44.06899796012711" lon="10.330335050123654"><ele>440.5</ele><time>2026-05-02T09:09:19.999Z</time></trkpt><trkpt lat="44.06889318965824" lon="10.330202954296622"><ele>440.25</ele><time>2026-05-02T09:09:20.999Z</time></trkpt><trkpt lat="44.06879233223244" lon="10.330060902816621"><ele>440.0</ele><time>2026-05-02T09:09:21.999Z</time></trkpt><trkpt lat="44.068692420835525" lon="10.329920691575282"><ele>440.0</ele><time>2026-05-02T09:09:22.999Z</time></trkpt><trkpt lat="44.06857508963862" lon="10.329794268764568"><ele>440.0</ele><time>2026-05-02T09:09:23.999Z</time></trkpt><trkpt lat="44.06844987530553" lon="10.329681558281251"><ele>440.0</ele><time>2026-05-02T09:09:24.999Z</time></trkpt><trkpt lat="44.0683283385167" lon="10.329576744625404"><ele>440.0</ele><time>2026-05-02T09:09:25.999Z</time></trkpt><trkpt lat="44.06820384875199" lon="10.329487772081361"><ele>441.5</ele><time>2026-05-02T09:09:26.999Z</time></trkpt><trkpt lat="44.06808164517775" lon="10.329414775812165"><ele>443.0</ele><time>2026-05-02T09:09:27.999Z</time></trkpt><trkpt lat="44.06797812423849" lon="10.329343236816156"><ele>444.5</ele><time>2026-05-02T09:09:28.999Z</time></trkpt><trkpt lat="44.06789066883626" lon="10.329240664095893"><ele>446.0</ele><time>2026-05-02T09:09:29.999Z</time></trkpt><trkpt lat="44.067820617210934" lon="10.329115979687476"><ele>446.0</ele><time>2026-05-02T09:09:30.999Z</time></trkpt><trkpt lat="44.067759058682896" lon="10.32897833649728"><ele>446.0</ele><time>2026-05-02T09:09:31.999Z</time></trkpt><trkpt lat="44.067709296347346" lon="10.328833435925102"><ele>446.0</ele><time>2026-05-02T09:09:32.999Z</time></trkpt><trkpt lat="44.06767340973616" lon="10.328689712433059"><ele>446.0</ele><time>2026-05-02T09:09:33.999Z</time></trkpt><trkpt lat="44.067652407808346" lon="10.32855636425669"><ele>446.0</ele><time>2026-05-02T09:09:34.999Z</time></trkpt><trkpt lat="44.06766363646569" lon="10.328442212034084"><ele>448.8333333333333</ele><time>2026-05-02T09:09:35.998Z</time></trkpt><trkpt lat="44.06770838757657" lon="10.328364980017904"><ele>451.66666666666663</ele><time>2026-05-02T09:09:36.998Z</time></trkpt><trkpt lat="44.06777782192759" lon="10.32832693686945"><ele>454.5</ele><time>2026-05-02T09:09:37.998Z</time></trkpt><trkpt lat="44.06786691637458" lon="10.328321810885573"><ele>457.33333333333337</ele><time>2026-05-02T09:09:39Z</time></trkpt><trkpt lat="44.06795008291938" lon="10.328343225897646"><ele>460.1666666666667</ele><time>2026-05-02T09:09:40Z</time></trkpt><trkpt lat="44.068031879917484" lon="10.328366488143091"><ele>463.0</ele><time>2026-05-02T09:09:41Z</time></trkpt><trkpt lat="44.068116299673534" lon="10.328381368187765"><ele>463.0</ele><time>2026-05-02T09:09:41.999Z</time></trkpt><trkpt lat="44.06820518251492" lon="10.328394112203819"><ele>462.99999999999994</ele><time>2026-05-02T09:09:42.999Z</time></trkpt><trkpt lat="44.06829621062457" lon="10.328408904998632"><ele>462.99999999999994</ele><time>2026-05-02T09:09:43.999Z</time></trkpt><trkpt lat="44.06839091625682" lon="10.328419394212482"><ele>463.0</ele><time>2026-05-02T09:09:44.999Z</time></trkpt><trkpt lat="44.0684875130502" lon="10.328399354384674"><ele>463.0</ele><time>2026-05-02T09:09:45.999Z</time></trkpt><trkpt lat="44.06857834918042" lon="10.328344000372379"><ele>467.4</ele><time>2026-05-02T09:09:46.999Z</time></trkpt><trkpt lat="44.06867027580576" lon="10.328276448091321"><ele>471.79999999999995</ele><time>2026-05-02T09:09:47.999Z</time></trkpt><trkpt lat="44.068764920317406" lon="10.328212910520927"><ele>476.2</ele><time>2026-05-02T09:09:48.999Z</time></trkpt><trkpt lat="44.0688519512125" lon="10.328130526250764"><ele>480.6</ele><time>2026-05-02T09:09:49.999Z</time></trkpt><trkpt lat="44.068935338314716" lon="10.328033523567933"><ele>485.0</ele><time>2026-05-02T09:09:50.999Z</time></trkpt><trkpt lat="44.0690044102093" lon="10.327913393430627"><ele>485.0</ele><time>2026-05-02T09:09:51.999Z</time></trkpt><trkpt lat="44.06905214224881" lon="10.327768695270418"><ele>485.0</ele><time>2026-05-02T09:09:52.999Z</time></trkpt><trkpt lat="44.069089510937935" lon="10.327606992957177"><ele>485.0</ele><time>2026-05-02T09:09:53.999Z</time></trkpt><trkpt lat="44.0691191403942" lon="10.32744664359016"><ele>485.0</ele><time>2026-05-02T09:09:54.999Z</time></trkpt><trkpt lat="44.06911543260315" lon="10.327285723782925"><ele>486.0</ele><time>2026-05-02T09:09:55.999Z</time></trkpt><trkpt lat="44.069075632163596" lon="10.327127324589075"><ele>487.0</ele><time>2026-05-02T09:09:56.999Z</time></trkpt><trkpt lat="44.06901340836025" lon="10.326963476086457"><ele>488.0</ele><time>2026-05-02T09:09:57.999Z</time></trkpt><trkpt lat="44.06896235737075" lon="10.326763073686791"><ele>489.0</ele><time>2026-05-02T09:09:58.999Z</time></trkpt><trkpt lat="44.06891377817714" lon="10.326579565064856"><ele>489.0</ele><time>2026-05-02T09:09:59.999Z</time></trkpt><trkpt lat="44.06886073536456" lon="10.32639711566972"><ele>489.0</ele><time>2026-05-02T09:10:00.999Z</time></trkpt><trkpt lat="44.0688035661058" lon="10.32621641359281"><ele>489.0</ele><time>2026-05-02T09:10:01.999Z</time></trkpt><trkpt lat="44.068759310340376" lon="10.326046592775437"><ele>489.0</ele><time>2026-05-02T09:10:02.999Z</time></trkpt><trkpt lat="44.06875194696499" lon="10.32586472687121"><ele>489.75</ele><time>2026-05-02T09:10:03.999Z</time></trkpt><trkpt lat="44.06876996499664" lon="10.325674613639553"><ele>490.5</ele><time>2026-05-02T09:10:04.999Z</time></trkpt><trkpt lat="44.068806092707455" lon="10.325487624162983"><ele>491.25</ele><time>2026-05-02T09:10:05.999Z</time></trkpt><trkpt lat="44.06881533200767" lon="10.325297967437308"><ele>492.0</ele><time>2026-05-02T09:10:06.999Z</time></trkpt><trkpt lat="44.06878232440026" lon="10.325106413943315"><ele>490.5</ele><time>2026-05-02T09:10:07.999Z</time></trkpt><trkpt lat="44.06872755135668" lon="10.324921911990774"><ele>489.0</ele><time>2026-05-02T09:10:08.999Z</time></trkpt><trkpt lat="44.06865855409504" lon="10.324739864651084"><ele>487.5</ele><time>2026-05-02T09:10:09.999Z</time></trkpt><trkpt lat="44.06857592396786" lon="10.324562238102539"><ele>486.0</ele><time>2026-05-02T09:10:10.999Z</time></trkpt><trkpt lat="44.068467127891225" lon="10.324413859706144"><ele>491.33333333333337</ele><time>2026-05-02T09:10:11.999Z</time></trkpt><trkpt lat="44.06835399664492" lon="10.324269424124367"><ele>496.6666666666667</ele><time>2026-05-02T09:10:12.999Z</time></trkpt><trkpt lat="44.068250718104736" lon="10.324118287933118"><ele>502.0</ele><time>2026-05-02T09:10:13.999Z</time></trkpt><trkpt lat="44.068162506612815" lon="10.323946491827495"><ele>508.5</ele><time>2026-05-02T09:10:14.999Z</time></trkpt><trkpt lat="44.068074278959685" lon="10.323778214590295"><ele>515.0</ele><time>2026-05-02T09:10:15.999Z</time></trkpt><trkpt lat="44.067998150989915" lon="10.323629449173506"><ele>521.5</ele><time>2026-05-02T09:10:16.999Z</time></trkpt><trkpt lat="44.0679144806308" lon="10.323517638598517"><ele>528.0</ele><time>2026-05-02T09:10:17.999Z</time></trkpt><trkpt lat="44.06779784922264" lon="10.323473942165512"><ele>528.0</ele><time>2026-05-02T09:10:18.999Z</time></trkpt><trkpt lat="44.06765376563306" lon="10.323495603621886"><ele>528.0</ele><time>2026-05-02T09:10:19.999Z</time></trkpt><trkpt lat="44.06749584978962" lon="10.323557215838198"><ele>528.0</ele><time>2026-05-02T09:10:20.999Z</time></trkpt><trkpt lat="44.067336209483706" lon="10.323566081531006"><ele>525.3333333333334</ele><time>2026-05-02T09:10:21.999Z</time></trkpt><trkpt lat="44.06717058531944" lon="10.323549543116659"><ele>522.6666666666667</ele><time>2026-05-02T09:10:22.999Z</time></trkpt><trkpt lat="44.06700518083628" lon="10.323556051355279"><ele>520.0</ele><time>2026-05-02T09:10:23.999Z</time></trkpt><trkpt lat="44.06684147849888" lon="10.323548114399628"><ele>520.0</ele><time>2026-05-02T09:10:24.999Z</time></trkpt><trkpt lat="44.066683739418295" lon="10.323513828225291"><ele>520.0</ele><time>2026-05-02T09:10:25.999Z</time></trkpt><trkpt lat="44.066525967646356" lon="10.32345961386058"><ele>520.0</ele><time>2026-05-02T09:10:26.999Z</time></trkpt><trkpt lat="44.066373201581" lon="10.323376451865277"><ele>520.0</ele><time>2026-05-02T09:10:27.999Z</time></trkpt><trkpt lat="44.06623672320347" lon="10.323284329155696"><ele>520.0</ele><time>2026-05-02T09:10:28.999Z</time></trkpt><trkpt lat="44.06612415665854" lon="10.323178293077746"><ele>520.0</ele><time>2026-05-02T09:10:29.999Z</time></trkpt><trkpt lat="44.066046821357666" lon="10.323033100976232"><ele>520.0</ele><time>2026-05-02T09:10:30.999Z</time></trkpt><trkpt lat="44.065982315903995" lon="10.322862203944561"><ele>520.0</ele><time>2026-05-02T09:10:31.999Z</time></trkpt><trkpt lat="44.06592498872338" lon="10.322710288669843"><ele>520.0</ele><time>2026-05-02T09:10:32.999Z</time></trkpt><trkpt lat="44.065891678341416" lon="10.32258583929526"><ele>520.0</ele><time>2026-05-02T09:10:33.999Z</time></trkpt><trkpt lat="44.06588145423073" lon="10.322444477105185"><ele>520.0</ele><time>2026-05-02T09:10:34.999Z</time></trkpt><trkpt lat="44.06589543957622" lon="10.322277547911467"><ele>520.0</ele><time>2026-05-02T09:10:35.999Z</time></trkpt><trkpt lat="44.06588337744314" lon="10.322099689521933"><ele>523.25</ele><time>2026-05-02T09:10:36.999Z</time></trkpt><trkpt lat="44.06583861280023" lon="10.321922578273425"><ele>526.5</ele><time>2026-05-02T09:10:37.999Z</time></trkpt><trkpt lat="44.06576285810713" lon="10.321752145127032"><ele>529.75</ele><time>2026-05-02T09:10:38.999Z</time></trkpt><trkpt lat="44.065666722917996" lon="10.32160264215144"><ele>533.0</ele><time>2026-05-02T09:10:39.999Z</time></trkpt><trkpt lat="44.065556171833734" lon="10.321487026783304"><ele>531.25</ele><time>2026-05-02T09:10:40.999Z</time></trkpt><trkpt lat="44.06545165432592" lon="10.321394063604904"><ele>529.5</ele><time>2026-05-02T09:10:41.999Z</time></trkpt><trkpt lat="44.06537461607102" lon="10.321285760031481"><ele>527.75</ele><time>2026-05-02T09:10:42.999Z</time></trkpt><trkpt lat="44.065333952769876" lon="10.321135808738926"><ele>526.0</ele><time>2026-05-02T09:10:44.069Z</time></trkpt><trkpt lat="44.06530960031822" lon="10.32085476306341"><ele>526.0</ele><time>2026-05-02T09:10:45.999Z</time></trkpt><trkpt lat="44.06528926239799" lon="10.320673033774833"><ele>526.0</ele><time>2026-05-02T09:10:46.999Z</time></trkpt><trkpt lat="44.06526877034562" lon="10.320494014896667"><ele>526.0</ele><time>2026-05-02T09:10:47.999Z</time></trkpt><trkpt lat="44.065225997233114" lon="10.32031760207866"><ele>526.0</ele><time>2026-05-02T09:10:48.999Z</time></trkpt><trkpt lat="44.06517892977356" lon="10.320131124025991"><ele>528.25</ele><time>2026-05-02T09:10:49.999Z</time></trkpt><trkpt lat="44.06514153736238" lon="10.319938175647282"><ele>530.5</ele><time>2026-05-02T09:10:50.999Z</time></trkpt><trkpt lat="44.06512648232474" lon="10.319739823661015"><ele>532.75</ele><time>2026-05-02T09:10:51.999Z</time></trkpt><trkpt lat="44.06511113520907" lon="10.319537359049924"><ele>535.0</ele><time>2026-05-02T09:10:52.999Z</time></trkpt><trkpt lat="44.0650971089475" lon="10.319330424755856"><ele>535.75</ele><time>2026-05-02T09:10:53.999Z</time></trkpt><trkpt lat="44.06509540250803" lon="10.319116596735283"><ele>536.5</ele><time>2026-05-02T09:10:54.999Z</time></trkpt><trkpt lat="44.065100016491726" lon="10.318908087720787"><ele>537.25</ele><time>2026-05-02T09:10:55.998Z</time></trkpt><trkpt lat="44.06510053510827" lon="10.318723685970973"><ele>538.0</ele><time>2026-05-02T09:10:56.998Z</time></trkpt><trkpt lat="44.06511476179005" lon="10.318566987699795"><ele>536.5</ele><time>2026-05-02T09:10:57.998Z</time></trkpt><trkpt lat="44.065155384999706" lon="10.31842598507717"><ele>535.0</ele><time>2026-05-02T09:10:58.998Z</time></trkpt><trkpt lat="44.06522378290613" lon="10.318294349141235"><ele>533.5</ele><time>2026-05-02T09:10:59.998Z</time></trkpt><trkpt lat="44.06530228379278" lon="10.318153877754042"><ele>532.0</ele><time>2026-05-02T09:11:00.998Z</time></trkpt><trkpt lat="44.06535810783916" lon="10.317987382552035"><ele>531.5</ele><time>2026-05-02T09:11:01.998Z</time></trkpt><trkpt lat="44.06537807833324" lon="10.317798256895504"><ele>531.0</ele><time>2026-05-02T09:11:02.998Z</time></trkpt><trkpt lat="44.065374681748736" lon="10.317600735867165"><ele>530.5</ele><time>2026-05-02T09:11:03.998Z</time></trkpt><trkpt lat="44.06536400627111" lon="10.317407685834885"><ele>530.0</ele><time>2026-05-02T09:11:04.998Z</time></trkpt><trkpt lat="44.065358539182924" lon="10.31721888968328"><ele>529.5</ele><time>2026-05-02T09:11:05.998Z</time></trkpt><trkpt lat="44.0653792541424" lon="10.317028573754106"><ele>529.0</ele><time>2026-05-02T09:11:06.998Z</time></trkpt><trkpt lat="44.06542768825756" lon="10.316846907669566"><ele>528.5</ele><time>2026-05-02T09:11:07.998Z</time></trkpt><trkpt lat="44.06550361000907" lon="10.316704498300949"><ele>528.0</ele><time>2026-05-02T09:11:08.998Z</time></trkpt><trkpt lat="44.06560615256138" lon="10.316596099956733"><ele>528.0</ele><time>2026-05-02T09:11:09.998Z</time></trkpt><trkpt lat="44.06571256810075" lon="10.316484712135257"><ele>528.0</ele><time>2026-05-02T09:11:10.998Z</time></trkpt><trkpt lat="44.06582523115044" lon="10.316369057113626"><ele>528.0</ele><time>2026-05-02T09:11:11.998Z</time></trkpt><trkpt lat="44.06593786164711" lon="10.31624217889688"><ele>528.0</ele><time>2026-05-02T09:11:12.998Z</time></trkpt><trkpt lat="44.06604532707352" lon="10.316112122546707"><ele>528.75</ele><time>2026-05-02T09:11:13.998Z</time></trkpt><trkpt lat="44.066136989675854" lon="10.315961698462964"><ele>529.5</ele><time>2026-05-02T09:11:14.998Z</time></trkpt><trkpt lat="44.06620815373008" lon="10.315797467394109"><ele>530.25</ele><time>2026-05-02T09:11:15.998Z</time></trkpt><trkpt lat="44.06627864696363" lon="10.315637791631314"><ele>531.0</ele><time>2026-05-02T09:11:16.998Z</time></trkpt><trkpt lat="44.066357755618476" lon="10.315511325314167"><ele>531.2</ele><time>2026-05-02T09:11:17.998Z</time></trkpt><trkpt lat="44.06642343409168" lon="10.31538540167384"><ele>531.4000000000001</ele><time>2026-05-02T09:11:18.998Z</time></trkpt><trkpt lat="44.06645246733746" lon="10.315236312195449"><ele>531.6</ele><time>2026-05-02T09:11:19.998Z</time></trkpt><trkpt lat="44.066438746611254" lon="10.315083879968975"><ele>531.8000000000001</ele><time>2026-05-02T09:11:20.998Z</time></trkpt><trkpt lat="44.06638832992648" lon="10.314938833224241"><ele>532.0</ele><time>2026-05-02T09:11:21.998Z</time></trkpt><trkpt lat="44.06633541330076" lon="10.314796082757956"><ele>535.0</ele><time>2026-05-02T09:11:22.998Z</time></trkpt><trkpt lat="44.06629516725563" lon="10.314640876130206"><ele>538.0</ele><time>2026-05-02T09:11:23.998Z</time></trkpt><trkpt lat="44.0662761366843" lon="10.314483886341637"><ele>541.0</ele><time>2026-05-02T09:11:24.998Z</time></trkpt><trkpt lat="44.066285895995655" lon="10.314327864063925"><ele>544.0</ele><time>2026-05-02T09:11:25.998Z</time></trkpt><trkpt lat="44.06631330827619" lon="10.314178560467193"><ele>544.0</ele><time>2026-05-02T09:11:26.998Z</time></trkpt><trkpt lat="44.06631958014735" lon="10.314031639735068"><ele>544.0</ele><time>2026-05-02T09:11:27.998Z</time></trkpt><trkpt lat="44.06627136820386" lon="10.313898809316226"><ele>544.0</ele><time>2026-05-02T09:11:28.998Z</time></trkpt><trkpt lat="44.06619399017946" lon="10.313800815820924"><ele>544.0</ele><time>2026-05-02T09:11:29.998Z</time></trkpt><trkpt lat="44.0661024056215" lon="10.313733344345128"><ele>544.0</ele><time>2026-05-02T09:11:30.998Z</time></trkpt><trkpt lat="44.066016779406006" lon="10.313673997135608"><ele>547.2</ele><time>2026-05-02T09:11:31.998Z</time></trkpt><trkpt lat="44.06595575092663" lon="10.313585451159884"><ele>550.4</ele><time>2026-05-02T09:11:32.998Z</time></trkpt><trkpt lat="44.065927822307195" lon="10.313459851173878"><ele>553.6</ele><time>2026-05-02T09:11:33.998Z</time></trkpt><trkpt lat="44.065937522713284" lon="10.313318991879449"><ele>556.8</ele><time>2026-05-02T09:11:34.998Z</time></trkpt><trkpt lat="44.06596189941514" lon="10.313170649698518"><ele>560.0</ele><time>2026-05-02T09:11:35.998Z</time></trkpt><trkpt lat="44.065992138023496" lon="10.313013276625421"><ele>561.0</ele><time>2026-05-02T09:11:36.998Z</time></trkpt><trkpt lat="44.06603251524546" lon="10.31284727739304"><ele>562.0</ele><time>2026-05-02T09:11:37.998Z</time></trkpt><trkpt lat="44.066099661727336" lon="10.31268927794501"><ele>563.0</ele><time>2026-05-02T09:11:38.998Z</time></trkpt><trkpt lat="44.06617391084256" lon="10.312522748223124"><ele>564.0</ele><time>2026-05-02T09:11:39.998Z</time></trkpt><trkpt lat="44.06625196763311" lon="10.312347513119807"><ele>566.25</ele><time>2026-05-02T09:11:40.998Z</time></trkpt><trkpt lat="44.0663353663009" lon="10.312169302407517"><ele>568.5</ele><time>2026-05-02T09:11:41.998Z</time></trkpt><trkpt lat="44.06641620301911" lon="10.311993264693925"><ele>570.75</ele><time>2026-05-02T09:11:42.998Z</time></trkpt><trkpt lat="44.06647099837022" lon="10.31181488506352"><ele>573.0</ele><time>2026-05-02T09:11:43.998Z</time></trkpt><trkpt lat="44.0664877629917" lon="10.31163954946668"><ele>573.0</ele><time>2026-05-02T09:11:45Z</time></trkpt><trkpt lat="44.06647720512023" lon="10.31148151983159"><ele>573.0</ele><time>2026-05-02T09:11:46Z</time></trkpt><trkpt lat="44.06644015263895" lon="10.311347688864618"><ele>573.0</ele><time>2026-05-02T09:11:47Z</time></trkpt><trkpt lat="44.06637463173245" lon="10.311243074832396"><ele>573.0</ele><time>2026-05-02T09:11:48Z</time></trkpt><trkpt lat="44.06629011776478" lon="10.31118383424881"><ele>573.0</ele><time>2026-05-02T09:11:49Z</time></trkpt><trkpt lat="44.06619071838464" lon="10.31115935419897"><ele>574.6</ele><time>2026-05-02T09:11:50Z</time></trkpt><trkpt lat="44.06608417996171" lon="10.31117163121026"><ele>576.1999999999999</ele><time>2026-05-02T09:11:51Z</time></trkpt><trkpt lat="44.06599144001773" lon="10.311219615996258"><ele>577.8</ele><time>2026-05-02T09:11:52Z</time></trkpt><trkpt lat="44.06591036763933" lon="10.311300047357998"><ele>579.4</ele><time>2026-05-02T09:11:53Z</time></trkpt><trkpt lat="44.06582848954605" lon="10.311390710299976"><ele>581.0</ele><time>2026-05-02T09:11:54Z</time></trkpt><trkpt lat="44.065739501608675" lon="10.311463268781935"><ele>581.0</ele><time>2026-05-02T09:11:55Z</time></trkpt><trkpt lat="44.06563814723882" lon="10.311513803969525"><ele>581.0</ele><time>2026-05-02T09:11:56Z</time></trkpt><trkpt lat="44.06552977061078" lon="10.31155437402872"><ele>581.0</ele><time>2026-05-02T09:11:57Z</time></trkpt><trkpt lat="44.06542037616899" lon="10.311596088203713"><ele>581.0</ele><time>2026-05-02T09:11:58Z</time></trkpt><trkpt lat="44.06531177315932" lon="10.311650720878385"><ele>581.0</ele><time>2026-05-02T09:11:59Z</time></trkpt><trkpt lat="44.065206290515654" lon="10.3117169312636"><ele>581.0</ele><time>2026-05-02T09:12:00Z</time></trkpt><trkpt lat="44.06510578844934" lon="10.311799842440363"><ele>581.0</ele><time>2026-05-02T09:12:01Z</time></trkpt><trkpt lat="44.06501052992656" lon="10.311890358694566"><ele>581.0</ele><time>2026-05-02T09:12:02Z</time></trkpt><trkpt lat="44.06491744325572" lon="10.311955058104793"><ele>581.0</ele><time>2026-05-02T09:12:03Z</time></trkpt><trkpt lat="44.06482614442755" lon="10.311981088386716"><ele>581.0</ele><time>2026-05-02T09:12:03.999Z</time></trkpt><trkpt lat="44.0647376753617" lon="10.311979866492969"><ele>577.6666666666666</ele><time>2026-05-02T09:12:04.999Z</time></trkpt><trkpt lat="44.0646515094119" lon="10.31196812847828"><ele>574.3333333333333</ele><time>2026-05-02T09:12:05.999Z</time></trkpt><trkpt lat="44.0645671524426" lon="10.311952105111999"><ele>571.0</ele><time>2026-05-02T09:12:06.999Z</time></trkpt><trkpt lat="44.064494431693326" lon="10.311925733989845"><ele>567.6666666666666</ele><time>2026-05-02T09:12:07.999Z</time></trkpt><trkpt lat="44.06443579190941" lon="10.311871685087691"><ele>564.3333333333334</ele><time>2026-05-02T09:12:08.999Z</time></trkpt><trkpt lat="44.06439065423901" lon="10.311798334106722"><ele>561.0</ele><time>2026-05-02T09:12:09.999Z</time></trkpt><trkpt lat="44.064356215112916" lon="10.311701636854714"><ele>561.0</ele><time>2026-05-02T09:12:10.999Z</time></trkpt><trkpt lat="44.06431448397113" lon="10.311604464846347"><ele>561.0</ele><time>2026-05-02T09:12:11.999Z</time></trkpt><trkpt lat="44.06426799135382" lon="10.311505206686258"><ele>561.0</ele><time>2026-05-02T09:12:12.999Z</time></trkpt><trkpt lat="44.06422016009271" lon="10.311401364574532"><ele>561.0</ele><time>2026-05-02T09:12:13.999Z</time></trkpt><trkpt lat="44.06416950205036" lon="10.311295917180598"><ele>561.0</ele><time>2026-05-02T09:12:14.999Z</time></trkpt><trkpt lat="44.064123461612084" lon="10.31117923628069"><ele>561.0</ele><time>2026-05-02T09:12:15.999Z</time></trkpt><trkpt lat="44.06407917160367" lon="10.311060246208317"><ele>561.0</ele><time>2026-05-02T09:12:16.999Z</time></trkpt><trkpt lat="44.06403511537068" lon="10.310941153158964"><ele>561.0</ele><time>2026-05-02T09:12:17.999Z</time></trkpt><trkpt lat="44.063990917587745" lon="10.310829879674722"><ele>561.0</ele><time>2026-05-02T09:12:18.999Z</time></trkpt><trkpt lat="44.063928536432606" lon="10.31074295394344"><ele>561.0</ele><time>2026-05-02T09:12:19.999Z</time></trkpt><trkpt lat="44.063859001159685" lon="10.31067631326928"><ele>561.0</ele><time>2026-05-02T09:12:20.999Z</time></trkpt><trkpt lat="44.0637934097975" lon="10.31061036581456"><ele>561.0</ele><time>2026-05-02T09:12:21.999Z</time></trkpt><trkpt lat="44.06374066955705" lon="10.310545572862031"><ele>567.6</ele><time>2026-05-02T09:12:22.999Z</time></trkpt><trkpt lat="44.063687142680536" lon="10.310489628647096"><ele>574.2</ele><time>2026-05-02T09:12:23.999Z</time></trkpt><trkpt lat="44.06359184956211" lon="10.310388074837869"><ele>580.8</ele><time>2026-05-02T09:12:25.999Z</time></trkpt><trkpt lat="44.06350327640012" lon="10.310307986281671"><ele>587.4</ele><time>2026-05-02T09:12:27.999Z</time></trkpt><trkpt lat="44.06340937650341" lon="10.31021955895988"><ele>594.0</ele><time>2026-05-02T09:12:29.999Z</time></trkpt><trkpt lat="44.063349826419234" lon="10.310189723739443"><ele>589.8</ele><time>2026-05-02T09:12:30.999Z</time></trkpt><trkpt lat="44.063246132440035" lon="10.310152897724569"><ele>585.5999999999999</ele><time>2026-05-02T09:12:32.999Z</time></trkpt><trkpt lat="44.06314045949286" lon="10.310082141451623"><ele>581.4</ele><time>2026-05-02T09:12:34.999Z</time></trkpt><trkpt lat="44.06307483580284" lon="10.31001468205277"><ele>577.1999999999999</ele><time>2026-05-02T09:12:36.999Z</time></trkpt><trkpt lat="44.06306343556192" lon="10.31010658424232"><ele>573.0</ele><time>2026-05-02T09:12:40.999Z</time></trkpt><trkpt lat="44.06314254986235" lon="10.310122861706692"><ele>573.0</ele><time>2026-05-02T09:12:43.999Z</time></trkpt><trkpt lat="44.06322220435275" lon="10.310172069552884"><ele>573.0</ele><time>2026-05-02T09:12:45.999Z</time></trkpt><trkpt lat="44.063336970424956" lon="10.310209635590924"><ele>573.0</ele><time>2026-05-02T09:12:47.999Z</time></trkpt><trkpt lat="44.063398403670774" lon="10.310241085506151"><ele>573.0</ele><time>2026-05-02T09:12:48.999Z</time></trkpt><trkpt lat="44.06346802063902" lon="10.31028474555578"><ele>573.0</ele><time>2026-05-02T09:12:49.999Z</time></trkpt><trkpt lat="44.063535569797146" lon="10.310347591475983"><ele>573.0</ele><time>2026-05-02T09:12:50.999Z</time></trkpt><trkpt lat="44.063602395947086" lon="10.31042717915206"><ele>570.6</ele><time>2026-05-02T09:12:51.999Z</time></trkpt><trkpt lat="44.063671280711915" lon="10.310513092052595"><ele>568.1999999999999</ele><time>2026-05-02T09:12:52.999Z</time></trkpt><trkpt lat="44.06374689603545" lon="10.310596054570299"><ele>565.8</ele><time>2026-05-02T09:12:53.999Z</time></trkpt><trkpt lat="44.06382610162755" lon="10.310677920877298"><ele>563.4</ele><time>2026-05-02T09:12:54.999Z</time></trkpt><trkpt lat="44.06390848995211" lon="10.31075983574625"><ele>561.0</ele><time>2026-05-02T09:12:55.999Z</time></trkpt><trkpt lat="44.063983441271134" lon="10.310854363066188"><ele>561.0</ele><time>2026-05-02T09:12:56.999Z</time></trkpt><trkpt lat="44.06403806417913" lon="10.310974187358651"><ele>561.0</ele><time>2026-05-02T09:12:57.999Z</time></trkpt><trkpt lat="44.06408163665603" lon="10.311099089056638"><ele>561.0</ele><time>2026-05-02T09:12:58.999Z</time></trkpt><trkpt lat="44.06413147985193" lon="10.311222043030943"><ele>561.0</ele><time>2026-05-02T09:12:59.999Z</time></trkpt><trkpt lat="44.06418551182055" lon="10.3113398113327"><ele>561.0</ele><time>2026-05-02T09:13:00.999Z</time></trkpt><trkpt lat="44.064230409761606" lon="10.311462575088903"><ele>561.0</ele><time>2026-05-02T09:13:01.999Z</time></trkpt><trkpt lat="44.064273996801944" lon="10.311576403117712"><ele>561.0</ele><time>2026-05-02T09:13:02.999Z</time></trkpt><trkpt lat="44.064320009312844" lon="10.31167682113944"><ele>561.0</ele><time>2026-05-02T09:13:03.999Z</time></trkpt><trkpt lat="44.06436301167345" lon="10.311765180851795"><ele>561.0</ele><time>2026-05-02T09:13:04.999Z</time></trkpt><trkpt lat="44.06440110514231" lon="10.311839421112593"><ele>561.0</ele><time>2026-05-02T09:13:05.999Z</time></trkpt><trkpt lat="44.06445371915349" lon="10.311925074143165"><ele>561.0</ele><time>2026-05-02T09:13:07.999Z</time></trkpt><trkpt lat="44.064511652116096" lon="10.311967459457463"><ele>561.0</ele><time>2026-05-02T09:13:10.999Z</time></trkpt><trkpt lat="44.06457427693392" lon="10.311986385085147"><ele>561.0</ele><time>2026-05-02T09:13:13.999Z</time></trkpt><trkpt lat="44.06464549079534" lon="10.311991759063698"><ele>561.0</ele><time>2026-05-02T09:13:15.998Z</time></trkpt><trkpt lat="44.064722295878035" lon="10.31199793220157"><ele>561.0</ele><time>2026-05-02T09:13:17.998Z</time></trkpt><trkpt lat="44.06478723664293" lon="10.311999817302599"><ele>561.0</ele><time>2026-05-02T09:13:19.998Z</time></trkpt><trkpt lat="44.06485739857934" lon="10.312005461759785"><ele>561.0</ele><time>2026-05-02T09:13:21.998Z</time></trkpt><trkpt lat="44.064928351968675" lon="10.311977008067963"><ele>561.0</ele><time>2026-05-02T09:13:23.998Z</time></trkpt><trkpt lat="44.06499740848169" lon="10.311925257909236"><ele>565.0</ele><time>2026-05-02T09:13:25.998Z</time></trkpt><trkpt lat="44.06507697239744" lon="10.31185619682563"><ele>569.0</ele><time>2026-05-02T09:13:27.998Z</time></trkpt><trkpt lat="44.0651557515453" lon="10.311788743768693"><ele>573.0</ele><time>2026-05-02T09:13:29.998Z</time></trkpt><trkpt lat="44.06523808351151" lon="10.311724504926925"><ele>577.0</ele><time>2026-05-02T09:13:31.998Z</time></trkpt><trkpt lat="44.06532101836392" lon="10.31166598734617"><ele>581.0</ele><time>2026-05-02T09:13:33.998Z</time></trkpt><trkpt lat="44.06540913181706" lon="10.31163356489376"><ele>581.0</ele><time>2026-05-02T09:13:35.998Z</time></trkpt><trkpt lat="44.06549551136857" lon="10.311603349251984"><ele>581.0</ele><time>2026-05-02T09:13:37.998Z</time></trkpt><trkpt lat="44.0655792927097" lon="10.311567191375683"><ele>581.0</ele><time>2026-05-02T09:13:39.998Z</time></trkpt><trkpt lat="44.06566092293514" lon="10.311530674047637"><ele>581.0</ele><time>2026-05-02T09:13:41.998Z</time></trkpt><trkpt lat="44.06575929382509" lon="10.311479350450872"><ele>581.0</ele><time>2026-05-02T09:13:43.998Z</time></trkpt><trkpt lat="44.06581427596865" lon="10.311432443732858"><ele>581.0</ele><time>2026-05-02T09:13:44.998Z</time></trkpt><trkpt lat="44.065871442092615" lon="10.311378737328111"><ele>584.0</ele><time>2026-05-02T09:13:45.998Z</time></trkpt><trkpt lat="44.06593070908573" lon="10.311317745352328"><ele>587.0</ele><time>2026-05-02T09:13:46.998Z</time></trkpt><trkpt lat="44.06598972428947" lon="10.311256069326685"><ele>590.0</ele><time>2026-05-02T09:13:47.998Z</time></trkpt><trkpt lat="44.066054622424495" lon="10.311206045928943"><ele>593.0</ele><time>2026-05-02T09:13:48.998Z</time></trkpt><trkpt lat="44.0661288633518" lon="10.31118653129308"><ele>596.0</ele><time>2026-05-02T09:13:49.998Z</time></trkpt><trkpt lat="44.066201047616744" lon="10.311194419256514"><ele>599.0</ele><time>2026-05-02T09:13:50.999Z</time></trkpt><trkpt lat="44.06626855044091" lon="10.31121971093406"><ele>602.0</ele><time>2026-05-02T09:13:51.999Z</time></trkpt><trkpt lat="44.066330949087885" lon="10.31126605776655"><ele>602.0</ele><time>2026-05-02T09:13:52.999Z</time></trkpt><trkpt lat="44.06638786537588" lon="10.31132986584813"><ele>602.0</ele><time>2026-05-02T09:13:53.999Z</time></trkpt><trkpt lat="44.066433897336395" lon="10.311407888499609"><ele>602.0</ele><time>2026-05-02T09:13:54.999Z</time></trkpt><trkpt lat="44.06646297376365" lon="10.311497769897498"><ele>602.0</ele><time>2026-05-02T09:13:55.999Z</time></trkpt><trkpt lat="44.06647352858252" lon="10.311599360281132"><ele>602.0</ele><time>2026-05-02T09:13:56.999Z</time></trkpt><trkpt lat="44.066467539386174" lon="10.311706427323388"><ele>602.0</ele><time>2026-05-02T09:13:57.999Z</time></trkpt><trkpt lat="44.066447343064596" lon="10.311820091469835"><ele>596.2</ele><time>2026-05-02T09:13:58.999Z</time></trkpt><trkpt lat="44.06641834321475" lon="10.311936425476091"><ele>590.4000000000001</ele><time>2026-05-02T09:13:59.999Z</time></trkpt><trkpt lat="44.06637218648236" lon="10.312054635158916"><ele>584.5999999999999</ele><time>2026-05-02T09:14:00.999Z</time></trkpt><trkpt lat="44.06631701315013" lon="10.31217048321254"><ele>578.8</ele><time>2026-05-02T09:14:01.999Z</time></trkpt><trkpt lat="44.066259593195056" lon="10.312286993363454"><ele>573.0</ele><time>2026-05-02T09:14:02.999Z</time></trkpt><trkpt lat="44.06620551685977" lon="10.312404169573256"><ele>571.5</ele><time>2026-05-02T09:14:03.999Z</time></trkpt><trkpt lat="44.06615853682599" lon="10.312521616582238"><ele>570.0</ele><time>2026-05-02T09:14:04.999Z</time></trkpt><trkpt lat="44.06610946605038" lon="10.31263385229185"><ele>568.5</ele><time>2026-05-02T09:14:05.999Z</time></trkpt><trkpt lat="44.06606181472916" lon="10.312739969356102"><ele>567.0</ele><time>2026-05-02T09:14:06.999Z</time></trkpt><trkpt lat="44.06601871873352" lon="10.312838962074775"><ele>565.5</ele><time>2026-05-02T09:14:07.999Z</time></trkpt><trkpt lat="44.06598548797554" lon="10.312939730462753"><ele>564.0</ele><time>2026-05-02T09:14:08.999Z</time></trkpt><trkpt lat="44.065959884078474" lon="10.313042472243929"><ele>563.3333333333334</ele><time>2026-05-02T09:14:09.999Z</time></trkpt><trkpt lat="44.065940839850825" lon="10.31314887611719"><ele>562.6666666666666</ele><time>2026-05-02T09:14:10.999Z</time></trkpt><trkpt lat="44.06592901194805" lon="10.313259508429946"><ele>562.0</ele><time>2026-05-02T09:14:11.999Z</time></trkpt><trkpt lat="44.06591494186532" lon="10.313352265129817"><ele>561.3333333333333</ele><time>2026-05-02T09:14:12.999Z</time></trkpt><trkpt lat="44.06590277384591" lon="10.313501681156808"><ele>560.6666666666666</ele><time>2026-05-02T09:14:14.999Z</time></trkpt><trkpt lat="44.065934742892985" lon="10.313599045116337"><ele>560.0</ele><time>2026-05-02T09:14:16.999Z</time></trkpt><trkpt lat="44.06596856610087" lon="10.313688000478336"><ele>560.0</ele><time>2026-05-02T09:14:19.999Z</time></trkpt><trkpt lat="44.06605091518258" lon="10.313735086879273"><ele>560.0</ele><time>2026-05-02T09:14:23.999Z</time></trkpt><trkpt lat="44.066168053504555" lon="10.313805965346466"><ele>560.0</ele><time>2026-05-02T09:14:25.999Z</time></trkpt><trkpt lat="44.06622754687787" lon="10.313867664217794"><ele>560.0</ele><time>2026-05-02T09:14:26.999Z</time></trkpt><trkpt lat="44.066279297404684" lon="10.313945427403052"><ele>560.0</ele><time>2026-05-02T09:14:27.999Z</time></trkpt><trkpt lat="44.06630769142577" lon="10.314040853642574"><ele>560.0</ele><time>2026-05-02T09:14:28.999Z</time></trkpt><trkpt lat="44.06631634004694" lon="10.314140303805186"><ele>556.8</ele><time>2026-05-02T09:14:29.999Z</time></trkpt><trkpt lat="44.066301957143885" lon="10.314301869144048"><ele>553.6</ele><time>2026-05-02T09:14:31.999Z</time></trkpt><trkpt lat="44.06627477946868" lon="10.314436485494527"><ele>550.4</ele><time>2026-05-02T09:14:33.999Z</time></trkpt><trkpt lat="44.06627589768991" lon="10.314575587620755"><ele>547.2</ele><time>2026-05-02T09:14:35.999Z</time></trkpt><trkpt lat="44.06630934533048" lon="10.314711319795505"><ele>544.0</ele><time>2026-05-02T09:14:37.999Z</time></trkpt><trkpt lat="44.06633977580026" lon="10.31481995857448"><ele>543.9999999999999</ele><time>2026-05-02T09:14:39.999Z</time></trkpt><trkpt lat="44.06636224975886" lon="10.314912415074344"><ele>544.0</ele><time>2026-05-02T09:14:41.999Z</time></trkpt><trkpt lat="44.066311383267276" lon="10.31485280689397"><ele>544.0</ele><time>2026-05-02T09:15:33.998Z</time></trkpt><trkpt lat="44.06627726967876" lon="10.314738154675453"><ele>544.0</ele><time>2026-05-02T09:15:48.998Z</time></trkpt><trkpt lat="44.06621337622244" lon="10.314720684671522"><ele>544.0</ele><time>2026-05-02T09:15:55.998Z</time></trkpt><trkpt lat="44.06615084948846" lon="10.314738986151404"><ele>543.9999999999999</ele><time>2026-05-02T09:16:01.999Z</time></trkpt><trkpt lat="44.0660891776333" lon="10.314719136928293"><ele>544.0</ele><time>2026-05-02T09:16:08.999Z</time></trkpt><trkpt lat="44.06604737193732" lon="10.314787208783574"><ele>545.5714285714286</ele><time>2026-05-02T09:16:53.999Z</time></trkpt><trkpt lat="44.06597901277051" lon="10.314793810138228"><ele>547.1428571428571</ele><time>2026-05-02T09:17:00.999Z</time></trkpt><trkpt lat="44.0659144102929" lon="10.314804123895383"><ele>548.7142857142858</ele><time>2026-05-02T09:17:19.999Z</time></trkpt><trkpt lat="44.06585026088795" lon="10.314821248515063"><ele>550.2857142857142</ele><time>2026-05-02T09:17:25.999Z</time></trkpt><trkpt lat="44.06578521945801" lon="10.314828640719075"><ele>551.8571428571429</ele><time>2026-05-02T09:17:31.999Z</time></trkpt><trkpt lat="44.065721326375304" lon="10.314851069369428"><ele>553.4285714285714</ele><time>2026-05-02T09:17:37.998Z</time></trkpt><trkpt lat="44.06565100782249" lon="10.314872229739004"><ele>555.0</ele><time>2026-05-02T09:17:44.998Z</time></trkpt><trkpt lat="44.06571464252452" lon="10.31486805641719"><ele>551.7142857142858</ele><time>2026-05-02T09:18:42Z</time></trkpt><trkpt lat="44.06578286452118" lon="10.314859352970451"><ele>548.4285714285714</ele><time>2026-05-02T09:18:49Z</time></trkpt><trkpt lat="44.06585659333034" lon="10.314841453954314"><ele>545.1428571428571</ele><time>2026-05-02T09:18:55.999Z</time></trkpt><trkpt lat="44.06592664532683" lon="10.314821884726994"><ele>541.8571428571429</ele><time>2026-05-02T09:19:11.999Z</time></trkpt><trkpt lat="44.06599354017132" lon="10.314801652122151"><ele>538.5714285714286</ele><time>2026-05-02T09:19:18.999Z</time></trkpt><trkpt lat="44.066068944871205" lon="10.314796796730484"><ele>535.2857142857143</ele><time>2026-05-02T09:19:25.999Z</time></trkpt><trkpt lat="44.066137033035005" lon="10.31476164047627"><ele>532.0</ele><time>2026-05-02T09:19:32.999Z</time></trkpt><trkpt lat="44.06620026324828" lon="10.314750049319674"><ele>532.0</ele><time>2026-05-02T09:19:39.999Z</time></trkpt><trkpt lat="44.066267359387574" lon="10.314729155177165"><ele>532.0</ele><time>2026-05-02T09:19:47.999Z</time></trkpt><trkpt lat="44.066300153001386" lon="10.314804651373464"><ele>532.0</ele><time>2026-05-02T09:19:54.999Z</time></trkpt><trkpt lat="44.06633003417173" lon="10.314891098111213"><ele>532.0</ele><time>2026-05-02T09:20:06.999Z</time></trkpt><trkpt lat="44.06636735169149" lon="10.31496266347363"><ele>532.0</ele><time>2026-05-02T09:20:17.001Z</time></trkpt><trkpt lat="44.06633240808212" lon="10.315036703964571"><ele>532.0</ele><time>2026-05-02T09:21:54.999Z</time></trkpt><trkpt lat="44.06639225755783" lon="10.314903119882867"><ele>532.0</ele><time>2026-05-02T09:23:11Z</time></trkpt><trkpt lat="44.066342586555" lon="10.314728834391474"><ele>534.4</ele><time>2026-05-02T09:23:13Z</time></trkpt><trkpt lat="44.066312676598436" lon="10.314620346930084"><ele>536.8000000000001</ele><time>2026-05-02T09:23:14Z</time></trkpt><trkpt lat="44.06629157243279" lon="10.314502564250112"><ele>539.2</ele><time>2026-05-02T09:23:15Z</time></trkpt><trkpt lat="44.06628798594554" lon="10.314379251721826"><ele>541.6</ele><time>2026-05-02T09:23:16Z</time></trkpt><trkpt lat="44.06630856769803" lon="10.314249779767017"><ele>544.0</ele><time>2026-05-02T09:23:17Z</time></trkpt><trkpt lat="44.06633948294267" lon="10.314117872437592"><ele>544.0</ele><time>2026-05-02T09:23:18Z</time></trkpt><trkpt lat="44.06633282034514" lon="10.313986053220338"><ele>544.0</ele><time>2026-05-02T09:23:19Z</time></trkpt><trkpt lat="44.06627269206662" lon="10.31386858381213"><ele>544.0</ele><time>2026-05-02T09:23:20Z</time></trkpt><trkpt lat="44.06618913315377" lon="10.313779295816031"><ele>544.0</ele><time>2026-05-02T09:23:21Z</time></trkpt><trkpt lat="44.06609909719748" lon="10.313723450061788"><ele>544.0</ele><time>2026-05-02T09:23:22Z</time></trkpt><trkpt lat="44.06601719816394" lon="10.313666198563492"><ele>547.2</ele><time>2026-05-02T09:23:23Z</time></trkpt><trkpt lat="44.0659576224442" lon="10.31358842935206"><ele>550.4</ele><time>2026-05-02T09:23:24Z</time></trkpt><trkpt lat="44.06592447148736" lon="10.313469100296322"><ele>553.6</ele><time>2026-05-02T09:23:25Z</time></trkpt><trkpt lat="44.06592812317494" lon="10.313329485387746"><ele>556.8</ele><time>2026-05-02T09:23:26Z</time></trkpt><trkpt lat="44.065961613603584" lon="10.313170967375079"><ele>560.0</ele><time>2026-05-02T09:23:27Z</time></trkpt><trkpt lat="44.065995661437235" lon="10.31300669520498"><ele>561.0</ele><time>2026-05-02T09:23:28Z</time></trkpt><trkpt lat="44.06604225014301" lon="10.312842867872293"><ele>562.0</ele><time>2026-05-02T09:23:29Z</time></trkpt><trkpt lat="44.066108465057745" lon="10.312681647665219"><ele>563.0</ele><time>2026-05-02T09:23:30Z</time></trkpt><trkpt lat="44.06618020303817" lon="10.312522995233616"><ele>564.0</ele><time>2026-05-02T09:23:31Z</time></trkpt><trkpt lat="44.06625577293528" lon="10.31236103104568"><ele>566.25</ele><time>2026-05-02T09:23:32Z</time></trkpt><trkpt lat="44.0663347192432" lon="10.312197748250176"><ele>568.5</ele><time>2026-05-02T09:23:33Z</time></trkpt><trkpt lat="44.06640921914133" lon="10.312034473762855"><ele>570.75</ele><time>2026-05-02T09:23:34Z</time></trkpt><trkpt lat="44.06646816040475" lon="10.311866812536184"><ele>573.0</ele><time>2026-05-02T09:23:35Z</time></trkpt><trkpt lat="44.06649660506266" lon="10.31171207486079"><ele>573.0</ele><time>2026-05-02T09:23:36Z</time></trkpt><trkpt lat="44.06649913059668" lon="10.311564712978225"><ele>573.0</ele><time>2026-05-02T09:23:37Z</time></trkpt><trkpt lat="44.066478334002184" lon="10.31143565417021"><ele>573.0</ele><time>2026-05-02T09:23:38Z</time></trkpt><trkpt lat="44.066438522120805" lon="10.311325733656417"><ele>573.0</ele><time>2026-05-02T09:23:39Z</time></trkpt><trkpt lat="44.06637591551192" lon="10.311229405599809"><ele>573.0</ele><time>2026-05-02T09:23:40Z</time></trkpt><trkpt lat="44.0662869046346" lon="10.311172297432394"><ele>573.0</ele><time>2026-05-02T09:23:41Z</time></trkpt><trkpt lat="44.06618690242279" lon="10.311147939827935"><ele>573.0</ele><time>2026-05-02T09:23:42Z</time></trkpt><trkpt lat="44.066081883997846" lon="10.311163831950703"><ele>573.0</ele><time>2026-05-02T09:23:43Z</time></trkpt><trkpt lat="44.06597999385169" lon="10.311220146127411"><ele>573.0</ele><time>2026-05-02T09:23:44Z</time></trkpt><trkpt lat="44.06588857021556" lon="10.311308222954025"><ele>573.0</ele><time>2026-05-02T09:23:45Z</time></trkpt><trkpt lat="44.06579953788176" lon="10.311414318048422"><ele>575.0</ele><time>2026-05-02T09:23:46Z</time></trkpt><trkpt lat="44.065699755901335" lon="10.311503274426979"><ele>577.0</ele><time>2026-05-02T09:23:47Z</time></trkpt><trkpt lat="44.0655849628365" lon="10.311553993386884"><ele>579.0</ele><time>2026-05-02T09:23:48Z</time></trkpt><trkpt lat="44.06546235981055" lon="10.311585546494962"><ele>581.0</ele><time>2026-05-02T09:23:49Z</time></trkpt><trkpt lat="44.065339467017075" lon="10.311632289258826"><ele>581.0</ele><time>2026-05-02T09:23:50Z</time></trkpt><trkpt lat="44.06521657627434" lon="10.311698464053093"><ele>581.0</ele><time>2026-05-02T09:23:51Z</time></trkpt><trkpt lat="44.06510348059504" lon="10.311789580790547"><ele>581.0</ele><time>2026-05-02T09:23:51.999Z</time></trkpt><trkpt lat="44.065003802091475" lon="10.311890298647032"><ele>581.0</ele><time>2026-05-02T09:23:52.999Z</time></trkpt><trkpt lat="44.06490665026299" lon="10.311960459344617"><ele>577.0</ele><time>2026-05-02T09:23:53.999Z</time></trkpt><trkpt lat="44.06480953096869" lon="10.312002316240541"><ele>573.0</ele><time>2026-05-02T09:23:54.999Z</time></trkpt><trkpt lat="44.06470468271598" lon="10.31199366035115"><ele>569.0</ele><time>2026-05-02T09:23:55.999Z</time></trkpt><trkpt lat="44.06459474144291" lon="10.311963091358283"><ele>565.0</ele><time>2026-05-02T09:23:56.999Z</time></trkpt><trkpt lat="44.06450100645964" lon="10.311939837312998"><ele>561.0</ele><time>2026-05-02T09:23:57.999Z</time></trkpt><trkpt lat="44.06442695241744" lon="10.311883074641019"><ele>561.0</ele><time>2026-05-02T09:23:58.999Z</time></trkpt><trkpt lat="44.06436447483168" lon="10.311775858148568"><ele>561.0</ele><time>2026-05-02T09:23:59.999Z</time></trkpt><trkpt lat="44.06430313312901" lon="10.311638935668197"><ele>561.0</ele><time>2026-05-02T09:24:00.999Z</time></trkpt><trkpt lat="44.0642411776722" lon="10.31147047966797"><ele>561.0</ele><time>2026-05-02T09:24:01.999Z</time></trkpt><trkpt lat="44.06416979859349" lon="10.311306675786021"><ele>561.0</ele><time>2026-05-02T09:24:02.999Z</time></trkpt><trkpt lat="44.0640987651544" lon="10.311136721186937"><ele>561.0</ele><time>2026-05-02T09:24:03.999Z</time></trkpt><trkpt lat="44.064034329723135" lon="10.310962883206976"><ele>561.0</ele><time>2026-05-02T09:24:04.999Z</time></trkpt><trkpt lat="44.063969561534314" lon="10.310806476947308"><ele>561.0</ele><time>2026-05-02T09:24:05.999Z</time></trkpt><trkpt lat="44.06390188132551" lon="10.31070135694783"><ele>561.0</ele><time>2026-05-02T09:24:06.999Z</time></trkpt><trkpt lat="44.06383653793426" lon="10.310640548023487"><ele>561.0</ele><time>2026-05-02T09:24:07.999Z</time></trkpt><trkpt lat="44.06376618705827" lon="10.310575400195502"><ele>561.0</ele><time>2026-05-02T09:24:08.999Z</time></trkpt><trkpt lat="44.06368127517961" lon="10.310490985266776"><ele>561.0</ele><time>2026-05-02T09:24:09.999Z</time></trkpt><trkpt lat="44.0635833396737" lon="10.310393087057685"><ele>561.0</ele><time>2026-05-02T09:24:10.999Z</time></trkpt><trkpt lat="44.063477658413596" lon="10.31028520651392"><ele>564.0</ele><time>2026-05-02T09:24:11.999Z</time></trkpt><trkpt lat="44.06335984375494" lon="10.31019856060003"><ele>567.0</ele><time>2026-05-02T09:24:12.999Z</time></trkpt><trkpt lat="44.06323146114235" lon="10.310130340446321"><ele>570.0</ele><time>2026-05-02T09:24:13.999Z</time></trkpt><trkpt lat="44.06310026161394" lon="10.31006795618435"><ele>573.0</ele><time>2026-05-02T09:24:14.999Z</time></trkpt><trkpt lat="44.0629925566367" lon="10.309969335618252"><ele>573.0</ele><time>2026-05-02T09:24:15.999Z</time></trkpt><trkpt lat="44.06290086457078" lon="10.30984046538346"><ele>573.0</ele><time>2026-05-02T09:24:16.999Z</time></trkpt><trkpt lat="44.06280281756994" lon="10.309728085857216"><ele>573.0</ele><time>2026-05-02T09:24:17.999Z</time></trkpt><trkpt lat="44.06267513300935" lon="10.309671146847105"><ele>573.0</ele><time>2026-05-02T09:24:18.999Z</time></trkpt><trkpt lat="44.06254218828822" lon="10.309633737368712"><ele>572.75</ele><time>2026-05-02T09:24:20Z</time></trkpt><trkpt lat="44.062426193918164" lon="10.309541387758525"><ele>572.5</ele><time>2026-05-02T09:24:21Z</time></trkpt><trkpt lat="44.06232027232645" lon="10.309404138751022"><ele>572.25</ele><time>2026-05-02T09:24:22Z</time></trkpt><trkpt lat="44.06221508058454" lon="10.309268703436262"><ele>572.0</ele><time>2026-05-02T09:24:23Z</time></trkpt><trkpt lat="44.062094757416624" lon="10.309142266683414"><ele>572.0</ele><time>2026-05-02T09:24:24Z</time></trkpt><trkpt lat="44.0619788458302" lon="10.309011579745592"><ele>572.0</ele><time>2026-05-02T09:24:25Z</time></trkpt><trkpt lat="44.06186905058728" lon="10.308865966894093"><ele>572.0</ele><time>2026-05-02T09:24:26Z</time></trkpt><trkpt lat="44.06177147162962" lon="10.308725410224536"><ele>572.0</ele><time>2026-05-02T09:24:27Z</time></trkpt><trkpt lat="44.06166363124985" lon="10.308623392399591"><ele>573.0</ele><time>2026-05-02T09:24:28Z</time></trkpt><trkpt lat="44.06152562086902" lon="10.308593118228071"><ele>574.0</ele><time>2026-05-02T09:24:29Z</time></trkpt><trkpt lat="44.061381701522734" lon="10.308595925525374"><ele>575.0</ele><time>2026-05-02T09:24:30Z</time></trkpt><trkpt lat="44.061272312091724" lon="10.308553489579083"><ele>576.0</ele><time>2026-05-02T09:24:31Z</time></trkpt><trkpt lat="44.06120997003283" lon="10.30843823612148"><ele>576.0</ele><time>2026-05-02T09:24:32Z</time></trkpt><trkpt lat="44.061176108187745" lon="10.308287677654706"><ele>576.0</ele><time>2026-05-02T09:24:33Z</time></trkpt><trkpt lat="44.0611559591856" lon="10.308105742218295"><ele>576.0</ele><time>2026-05-02T09:24:34Z</time></trkpt><trkpt lat="44.06113405766994" lon="10.307925911169823"><ele>576.0</ele><time>2026-05-02T09:24:35Z</time></trkpt><trkpt lat="44.061126240818176" lon="10.307720414958991"><ele>579.0</ele><time>2026-05-02T09:24:36Z</time></trkpt><trkpt lat="44.061093153332436" lon="10.30751498336037"><ele>582.0</ele><time>2026-05-02T09:24:37Z</time></trkpt><trkpt lat="44.0610397295634" lon="10.307299314541488"><ele>585.0</ele><time>2026-05-02T09:24:38Z</time></trkpt><trkpt lat="44.06102195638998" lon="10.307067847948149"><ele>586.0</ele><time>2026-05-02T09:24:39Z</time></trkpt><trkpt lat="44.06101045144846" lon="10.30684135692736"><ele>587.0</ele><time>2026-05-02T09:24:40Z</time></trkpt><trkpt lat="44.06100371700825" lon="10.3066477985853"><ele>588.0</ele><time>2026-05-02T09:24:41Z</time></trkpt><trkpt lat="44.06100403999914" lon="10.306473668151318"><ele>589.0</ele><time>2026-05-02T09:24:42Z</time></trkpt><trkpt lat="44.06104652344501" lon="10.306294580562671"><ele>590.0</ele><time>2026-05-02T09:24:43Z</time></trkpt><trkpt lat="44.061098908630996" lon="10.30611262671148"><ele>591.0</ele><time>2026-05-02T09:24:44Z</time></trkpt><trkpt lat="44.061130956195555" lon="10.305914623395864"><ele>592.0</ele><time>2026-05-02T09:24:45Z</time></trkpt><trkpt lat="44.06113230826261" lon="10.305699935394935"><ele>593.0</ele><time>2026-05-02T09:24:46Z</time></trkpt><trkpt lat="44.06108947251775" lon="10.305482600894285"><ele>595.3333333333333</ele><time>2026-05-02T09:24:47Z</time></trkpt><trkpt lat="44.06103190539714" lon="10.30525999111881"><ele>597.6666666666666</ele><time>2026-05-02T09:24:48Z</time></trkpt><trkpt lat="44.06097066836269" lon="10.305052008975139"><ele>600.0</ele><time>2026-05-02T09:24:49Z</time></trkpt><trkpt lat="44.060896874514846" lon="10.304884065128984"><ele>603.25</ele><time>2026-05-02T09:24:50Z</time></trkpt><trkpt lat="44.06083316329346" lon="10.304733680545914"><ele>606.5</ele><time>2026-05-02T09:24:51Z</time></trkpt><trkpt lat="44.06081820226272" lon="10.304587041734491"><ele>609.75</ele><time>2026-05-02T09:24:52Z</time></trkpt><trkpt lat="44.06085522246784" lon="10.30444028956867"><ele>613.0</ele><time>2026-05-02T09:24:53Z</time></trkpt><trkpt lat="44.06092251396129" lon="10.304299717385348"><ele>613.0</ele><time>2026-05-02T09:24:54Z</time></trkpt><trkpt lat="44.06097970333407" lon="10.304153540729684"><ele>613.0</ele><time>2026-05-02T09:24:55Z</time></trkpt><trkpt lat="44.0609850972399" lon="10.303976287668782"><ele>613.0</ele><time>2026-05-02T09:24:56Z</time></trkpt><trkpt lat="44.06095308923969" lon="10.303792739600434"><ele>613.0</ele><time>2026-05-02T09:24:57Z</time></trkpt><trkpt lat="44.06090733737269" lon="10.303613577608058"><ele>616.75</ele><time>2026-05-02T09:24:58Z</time></trkpt><trkpt lat="44.06085556480196" lon="10.303432878239079"><ele>620.5</ele><time>2026-05-02T09:24:59Z</time></trkpt><trkpt lat="44.060803600530186" lon="10.303248242563805"><ele>624.25</ele><time>2026-05-02T09:25:00Z</time></trkpt><trkpt lat="44.06075129344627" lon="10.303059949947734"><ele>628.0</ele><time>2026-05-02T09:25:01Z</time></trkpt><trkpt lat="44.06069715084481" lon="10.302868917444105"><ele>640.3333333333334</ele><time>2026-05-02T09:25:02Z</time></trkpt><trkpt lat="44.06064555961004" lon="10.302673259624328"><ele>652.6666666666666</ele><time>2026-05-02T09:25:03Z</time></trkpt><trkpt lat="44.06060876361514" lon="10.302469306579422"><ele>665.0</ele><time>2026-05-02T09:25:04Z</time></trkpt><trkpt lat="44.06058431459974" lon="10.302263018355708"><ele>668.25</ele><time>2026-05-02T09:25:05Z</time></trkpt><trkpt lat="44.06056264000171" lon="10.302067512278184"><ele>671.5</ele><time>2026-05-02T09:25:06Z</time></trkpt><trkpt lat="44.0605663600684" lon="10.301901599714109"><ele>674.75</ele><time>2026-05-02T09:25:07Z</time></trkpt><trkpt lat="44.06060535652684" lon="10.301748402440348"><ele>678.0</ele><time>2026-05-02T09:25:08Z</time></trkpt><trkpt lat="44.06065928069031" lon="10.301592844784329"><ele>678.0</ele><time>2026-05-02T09:25:09Z</time></trkpt><trkpt lat="44.06070073361754" lon="10.30142539924624"><ele>678.0</ele><time>2026-05-02T09:25:10Z</time></trkpt><trkpt lat="44.06071701180611" lon="10.301240614366188"><ele>678.0</ele><time>2026-05-02T09:25:11Z</time></trkpt><trkpt lat="44.06073084062228" lon="10.301053737163954"><ele>678.0</ele><time>2026-05-02T09:25:12Z</time></trkpt><trkpt lat="44.06077228821898" lon="10.30087084854972"><ele>669.75</ele><time>2026-05-02T09:25:13Z</time></trkpt><trkpt lat="44.06084679623013" lon="10.300703937562712"><ele>661.5</ele><time>2026-05-02T09:25:14Z</time></trkpt><trkpt lat="44.060926923081716" lon="10.30054466359745"><ele>653.25</ele><time>2026-05-02T09:25:15Z</time></trkpt><trkpt lat="44.06100533802558" lon="10.300380158206615"><ele>645.0</ele><time>2026-05-02T09:25:16Z</time></trkpt><trkpt lat="44.06103081394311" lon="10.300191529232578"><ele>645.0</ele><time>2026-05-02T09:25:17Z</time></trkpt><trkpt lat="44.06102429971797" lon="10.300001804777928"><ele>645.0</ele><time>2026-05-02T09:25:18Z</time></trkpt><trkpt lat="44.06101383022896" lon="10.299809635513313"><ele>645.0</ele><time>2026-05-02T09:25:19Z</time></trkpt><trkpt lat="44.06099440081018" lon="10.299623073594418"><ele>645.0</ele><time>2026-05-02T09:25:20Z</time></trkpt><trkpt lat="44.06094620781255" lon="10.299451373741363"><ele>648.75</ele><time>2026-05-02T09:25:21Z</time></trkpt><trkpt lat="44.060877833090245" lon="10.299296042735946"><ele>652.5</ele><time>2026-05-02T09:25:22Z</time></trkpt><trkpt lat="44.06081506423729" lon="10.299144636650144"><ele>656.25</ele><time>2026-05-02T09:25:23Z</time></trkpt><trkpt lat="44.060772962843565" lon="10.298982430140878"><ele>660.0</ele><time>2026-05-02T09:25:23.999Z</time></trkpt><trkpt lat="44.06075845645904" lon="10.298807463770792"><ele>656.75</ele><time>2026-05-02T09:25:24.999Z</time></trkpt><trkpt lat="44.06077930079019" lon="10.29862730476036"><ele>653.5</ele><time>2026-05-02T09:25:25.999Z</time></trkpt><trkpt lat="44.06082012466658" lon="10.298448767440048"><ele>650.25</ele><time>2026-05-02T09:25:26.999Z</time></trkpt><trkpt lat="44.06086515875475" lon="10.29826206353481"><ele>647.0</ele><time>2026-05-02T09:25:27.999Z</time></trkpt><trkpt lat="44.060901696029624" lon="10.298069003001547"><ele>647.0</ele><time>2026-05-02T09:25:28.999Z</time></trkpt><trkpt lat="44.06090650123441" lon="10.297863828153995"><ele>647.0</ele><time>2026-05-02T09:25:29.999Z</time></trkpt><trkpt lat="44.0608927333486" lon="10.2976517379716"><ele>647.0</ele><time>2026-05-02T09:25:30.999Z</time></trkpt><trkpt lat="44.060881093625646" lon="10.297436132085581"><ele>648.0</ele><time>2026-05-02T09:25:31.999Z</time></trkpt><trkpt lat="44.06087555256129" lon="10.297214908595826"><ele>649.0</ele><time>2026-05-02T09:25:32.999Z</time></trkpt><trkpt lat="44.06087332853531" lon="10.296990964835478"><ele>650.0</ele><time>2026-05-02T09:25:33.999Z</time></trkpt><trkpt lat="44.060868278684794" lon="10.296767778906363"><ele>650.0</ele><time>2026-05-02T09:25:34.999Z</time></trkpt><trkpt lat="44.06085804318181" lon="10.296542507199268"><ele>650.0</ele><time>2026-05-02T09:25:35.999Z</time></trkpt><trkpt lat="44.06084692620435" lon="10.29631874277263"><ele>650.0</ele><time>2026-05-02T09:25:36.999Z</time></trkpt><trkpt lat="44.060839272956336" lon="10.296096895115221"><ele>651.5</ele><time>2026-05-02T09:25:37.999Z</time></trkpt><trkpt lat="44.06084297238121" lon="10.295883356875164"><ele>653.0</ele><time>2026-05-02T09:25:38.999Z</time></trkpt><trkpt lat="44.060851171150944" lon="10.295674981718406"><ele>654.5</ele><time>2026-05-02T09:25:39.999Z</time></trkpt><trkpt lat="44.0608497391415" lon="10.295473863131116"><ele>656.0</ele><time>2026-05-02T09:25:40.999Z</time></trkpt><trkpt lat="44.06083145229952" lon="10.295278230041982"><ele>657.75</ele><time>2026-05-02T09:25:41.999Z</time></trkpt><trkpt lat="44.060806609427715" lon="10.295090175174979"><ele>659.5</ele><time>2026-05-02T09:25:42.999Z</time></trkpt><trkpt lat="44.06079355602251" lon="10.294916500930617"><ele>661.25</ele><time>2026-05-02T09:25:43.999Z</time></trkpt><trkpt lat="44.060814535704246" lon="10.294754021057235"><ele>663.0</ele><time>2026-05-02T09:25:44.999Z</time></trkpt><trkpt lat="44.06086697972373" lon="10.294602525928795"><ele>666.75</ele><time>2026-05-02T09:25:45.999Z</time></trkpt><trkpt lat="44.060942859823164" lon="10.29446525306333"><ele>670.5</ele><time>2026-05-02T09:25:46.999Z</time></trkpt><trkpt lat="44.06103375825169" lon="10.294340521544772"><ele>674.25</ele><time>2026-05-02T09:25:47.999Z</time></trkpt><trkpt lat="44.06113327724353" lon="10.294226595030649"><ele>678.0</ele><time>2026-05-02T09:25:48.999Z</time></trkpt><trkpt lat="44.0612444760912" lon="10.294124075728744"><ele>678.0</ele><time>2026-05-02T09:25:49.999Z</time></trkpt><trkpt lat="44.0613693421638" lon="10.294051031322894"><ele>678.0</ele><time>2026-05-02T09:25:50.999Z</time></trkpt><trkpt lat="44.06149821596216" lon="10.29400348722996"><ele>678.0</ele><time>2026-05-02T09:25:51.999Z</time></trkpt><trkpt lat="44.061628371512306" lon="10.293949112325084"><ele>678.0</ele><time>2026-05-02T09:25:52.999Z</time></trkpt><trkpt lat="44.061748554869354" lon="10.29386291289775"><ele>676.75</ele><time>2026-05-02T09:25:53.999Z</time></trkpt><trkpt lat="44.06185156521877" lon="10.293751230960362"><ele>675.5</ele><time>2026-05-02T09:25:54.999Z</time></trkpt><trkpt lat="44.06192849114373" lon="10.293608830462544"><ele>674.25</ele><time>2026-05-02T09:25:55.999Z</time></trkpt><trkpt lat="44.06197835490066" lon="10.293443233904734"><ele>673.0</ele><time>2026-05-02T09:25:56.999Z</time></trkpt><trkpt lat="44.06201702276868" lon="10.293280087677175"><ele>673.0</ele><time>2026-05-02T09:25:57.999Z</time></trkpt><trkpt lat="44.062043182031914" lon="10.293111091406798"><ele>673.0</ele><time>2026-05-02T09:25:58.999Z</time></trkpt><trkpt lat="44.062048978059316" lon="10.292934751400741"><ele>673.0</ele><time>2026-05-02T09:25:59.999Z</time></trkpt><trkpt lat="44.06202769750485" lon="10.292719529931459"><ele>673.0</ele><time>2026-05-02T09:26:00.999Z</time></trkpt><trkpt lat="44.06201222671837" lon="10.292495829222569"><ele>681.3333333333334</ele><time>2026-05-02T09:26:01.999Z</time></trkpt><trkpt lat="44.06197857839058" lon="10.29227634408615"><ele>689.6666666666666</ele><time>2026-05-02T09:26:02.999Z</time></trkpt><trkpt lat="44.061943379724156" lon="10.29205126151258"><ele>698.0</ele><time>2026-05-02T09:26:03.999Z</time></trkpt><trkpt lat="44.061941237305575" lon="10.291818387385225"><ele>710.3333333333333</ele><time>2026-05-02T09:26:04.999Z</time></trkpt><trkpt lat="44.06196178658334" lon="10.291584749644198"><ele>722.6666666666666</ele><time>2026-05-02T09:26:05.999Z</time></trkpt><trkpt lat="44.06199828869261" lon="10.291359985690377"><ele>735.0</ele><time>2026-05-02T09:26:06.999Z</time></trkpt><trkpt lat="44.0620502554427" lon="10.291142152139033"><ele>738.6666666666666</ele><time>2026-05-02T09:26:07.999Z</time></trkpt><trkpt lat="44.06211391698148" lon="10.290928927315308"><ele>742.3333333333333</ele><time>2026-05-02T09:26:08.999Z</time></trkpt><trkpt lat="44.062185024830136" lon="10.29072632594655"><ele>746.0</ele><time>2026-05-02T09:26:09.999Z</time></trkpt><trkpt lat="44.062272032515956" lon="10.290542583834561"><ele>746.0</ele><time>2026-05-02T09:26:10.999Z</time></trkpt><trkpt lat="44.06236811027799" lon="10.290370510903584"><ele>746.0</ele><time>2026-05-02T09:26:11.998Z</time></trkpt><trkpt lat="44.062463523692315" lon="10.290209544325247"><ele>746.0</ele><time>2026-05-02T09:26:12.998Z</time></trkpt><trkpt lat="44.062560561370816" lon="10.290059533760072"><ele>730.0</ele><time>2026-05-02T09:26:13.998Z</time></trkpt><trkpt lat="44.06264773970858" lon="10.289919197678175"><ele>714.0</ele><time>2026-05-02T09:26:14.998Z</time></trkpt><trkpt lat="44.06270562300298" lon="10.289762684081028"><ele>698.0</ele><time>2026-05-02T09:26:15.998Z</time></trkpt><trkpt lat="44.06271393893972" lon="10.289602366930486"><ele>682.0</ele><time>2026-05-02T09:26:16.998Z</time></trkpt><trkpt lat="44.062673091215224" lon="10.289453144187497"><ele>682.0</ele><time>2026-05-02T09:26:17.998Z</time></trkpt><trkpt lat="44.062593176406835" lon="10.289330876217056"><ele>682.0</ele><time>2026-05-02T09:26:18.998Z</time></trkpt><trkpt lat="44.062478700599584" lon="10.289249600187363"><ele>682.0</ele><time>2026-05-02T09:26:19.998Z</time></trkpt><trkpt lat="44.062341072566525" lon="10.2892125677944"><ele>682.0</ele><time>2026-05-02T09:26:20.997Z</time></trkpt><trkpt lat="44.062193513387896" lon="10.289176284331313"><ele>686.3333333333334</ele><time>2026-05-02T09:26:21.997Z</time></trkpt><trkpt lat="44.062052473014816" lon="10.289097181734004"><ele>690.6666666666666</ele><time>2026-05-02T09:26:22.997Z</time></trkpt><trkpt lat="44.06193988317607" lon="10.288957431749411"><ele>695.0</ele><time>2026-05-02T09:26:23.997Z</time></trkpt><trkpt lat="44.06184597201861" lon="10.288779759925928"><ele>695.0</ele><time>2026-05-02T09:26:24.997Z</time></trkpt><trkpt lat="44.0617552041303" lon="10.28859472421238"><ele>695.0</ele><time>2026-05-02T09:26:25.998Z</time></trkpt><trkpt lat="44.06166594066842" lon="10.288406565240736"><ele>695.0</ele><time>2026-05-02T09:26:26.998Z</time></trkpt><trkpt lat="44.061578730397066" lon="10.288210295723117"><ele>723.0</ele><time>2026-05-02T09:26:27.998Z</time></trkpt><trkpt lat="44.06149663218858" lon="10.288012203757537"><ele>751.0</ele><time>2026-05-02T09:26:28.998Z</time></trkpt><trkpt lat="44.06143025714642" lon="10.287809605430924"><ele>779.0</ele><time>2026-05-02T09:26:29.998Z</time></trkpt><trkpt lat="44.061397491908316" lon="10.287591132471968"><ele>779.0</ele><time>2026-05-02T09:26:30.998Z</time></trkpt><trkpt lat="44.06139820916941" lon="10.287355925489571"><ele>779.0</ele><time>2026-05-02T09:26:31.998Z</time></trkpt><trkpt lat="44.06141041695707" lon="10.287113044409923"><ele>779.0</ele><time>2026-05-02T09:26:32.998Z</time></trkpt><trkpt lat="44.06141639341511" lon="10.28686946373685"><ele>781.3333333333334</ele><time>2026-05-02T09:26:33.998Z</time></trkpt><trkpt lat="44.06141647907963" lon="10.286634179208306"><ele>783.6666666666667</ele><time>2026-05-02T09:26:34.998Z</time></trkpt><trkpt lat="44.06142948701186" lon="10.286406085366849"><ele>786.0</ele><time>2026-05-02T09:26:35.998Z</time></trkpt><trkpt lat="44.06148805453185" lon="10.286194790862737"><ele>789.3333333333333</ele><time>2026-05-02T09:26:36.998Z</time></trkpt><trkpt lat="44.061580671815584" lon="10.285988999423953"><ele>792.6666666666666</ele><time>2026-05-02T09:26:37.998Z</time></trkpt><trkpt lat="44.06166260040094" lon="10.285786028026227"><ele>796.0</ele><time>2026-05-02T09:26:38.998Z</time></trkpt><trkpt lat="44.06172992658196" lon="10.285582455828402"><ele>764.3333333333333</ele><time>2026-05-02T09:26:39.998Z</time></trkpt><trkpt lat="44.06177075349092" lon="10.285363567062634"><ele>732.6666666666666</ele><time>2026-05-02T09:26:40.998Z</time></trkpt><trkpt lat="44.06175905720264" lon="10.285134713028208"><ele>701.0</ele><time>2026-05-02T09:26:41.998Z</time></trkpt><trkpt lat="44.061711151638804" lon="10.284923072368889"><ele>696.0</ele><time>2026-05-02T09:26:42.998Z</time></trkpt><trkpt lat="44.061629888853574" lon="10.284726911166779"><ele>691.0</ele><time>2026-05-02T09:26:43.998Z</time></trkpt><trkpt lat="44.06151548765194" lon="10.284568030524676"><ele>686.0</ele><time>2026-05-02T09:26:44.998Z</time></trkpt><trkpt lat="44.061380648400934" lon="10.284443715670115"><ele>707.3333333333333</ele><time>2026-05-02T09:26:45.998Z</time></trkpt><trkpt lat="44.061233938905396" lon="10.284330720816511"><ele>728.6666666666666</ele><time>2026-05-02T09:26:46.998Z</time></trkpt><trkpt lat="44.06108977297282" lon="10.284212013233251"><ele>750.0</ele><time>2026-05-02T09:26:47.998Z</time></trkpt><trkpt lat="44.060957003665315" lon="10.284052765479649"><ele>741.0</ele><time>2026-05-02T09:26:48.998Z</time></trkpt><trkpt lat="44.0608500012636" lon="10.283866709724178"><ele>732.0</ele><time>2026-05-02T09:26:49.998Z</time></trkpt><trkpt lat="44.06074843103555" lon="10.283686508781635"><ele>723.0</ele><time>2026-05-02T09:26:50.998Z</time></trkpt><trkpt lat="44.06064821946415" lon="10.283526689607994"><ele>752.25</ele><time>2026-05-02T09:26:51.998Z</time></trkpt><trkpt lat="44.06056436042986" lon="10.28335654636628"><ele>781.5</ele><time>2026-05-02T09:26:52.998Z</time></trkpt><trkpt lat="44.06052872145627" lon="10.283159501151223"><ele>810.75</ele><time>2026-05-02T09:26:53.998Z</time></trkpt><trkpt lat="44.06054437413042" lon="10.282952333890409"><ele>840.0</ele><time>2026-05-02T09:26:54.998Z</time></trkpt><trkpt lat="44.060599304077826" lon="10.282756516489803"><ele>840.0</ele><time>2026-05-02T09:26:55.998Z</time></trkpt><trkpt lat="44.060677466504146" lon="10.282572291114262"><ele>840.0</ele><time>2026-05-02T09:26:56.998Z</time></trkpt><trkpt lat="44.060715316780964" lon="10.282363496088925"><ele>840.0</ele><time>2026-05-02T09:26:57.998Z</time></trkpt><trkpt lat="44.060722186086046" lon="10.282141527225946"><ele>834.6666666666667</ele><time>2026-05-02T09:26:58.998Z</time></trkpt><trkpt lat="44.06071193482256" lon="10.281905495790012"><ele>829.3333333333334</ele><time>2026-05-02T09:26:59.998Z</time></trkpt><trkpt lat="44.06071473765398" lon="10.281674116817562"><ele>824.0</ele><time>2026-05-02T09:27:00.998Z</time></trkpt><trkpt lat="44.0607129541376" lon="10.281450005431518"><ele>813.0</ele><time>2026-05-02T09:27:01.998Z</time></trkpt><trkpt lat="44.06068594466399" lon="10.281239665891793"><ele>802.0</ele><time>2026-05-02T09:27:02.998Z</time></trkpt><trkpt lat="44.0606171997567" lon="10.281045895962487"><ele>791.0</ele><time>2026-05-02T09:27:03.998Z</time></trkpt><trkpt lat="44.0605145187574" lon="10.28087781412493"><ele>791.0</ele><time>2026-05-02T09:27:04.998Z</time></trkpt><trkpt lat="44.06039774262665" lon="10.280715970418544"><ele>791.0</ele><time>2026-05-02T09:27:05.998Z</time></trkpt><trkpt lat="44.06027638789672" lon="10.280556669104223"><ele>791.0</ele><time>2026-05-02T09:27:06.998Z</time></trkpt><trkpt lat="44.060154346025584" lon="10.280408768347547"><ele>778.3333333333334</ele><time>2026-05-02T09:27:07.998Z</time></trkpt><trkpt lat="44.06005053074814" lon="10.280249479097835"><ele>765.6666666666667</ele><time>2026-05-02T09:27:08.998Z</time></trkpt><trkpt lat="44.05999267750973" lon="10.280051857676497"><ele>753.0</ele><time>2026-05-02T09:27:09.998Z</time></trkpt><trkpt lat="44.059959740698865" lon="10.27982733362572"><ele>784.0</ele><time>2026-05-02T09:27:10.998Z</time></trkpt><trkpt lat="44.059933484954016" lon="10.27960375661209"><ele>815.0</ele><time>2026-05-02T09:27:11.998Z</time></trkpt><trkpt lat="44.0598976631519" lon="10.279376699815993"><ele>846.0</ele><time>2026-05-02T09:27:12.998Z</time></trkpt><trkpt lat="44.059858761542415" lon="10.279149138638974"><ele>847.0</ele><time>2026-05-02T09:27:13.998Z</time></trkpt><trkpt lat="44.05983450280663" lon="10.278929927993017"><ele>848.0</ele><time>2026-05-02T09:27:14.998Z</time></trkpt><trkpt lat="44.059845915039496" lon="10.27871135499147"><ele>849.0</ele><time>2026-05-02T09:27:15.998Z</time></trkpt><trkpt lat="44.05988173968433" lon="10.278496851474433"><ele>849.0</ele><time>2026-05-02T09:27:16.998Z</time></trkpt><trkpt lat="44.059917607410405" lon="10.278284707461008"><ele>849.0</ele><time>2026-05-02T09:27:17.998Z</time></trkpt><trkpt lat="44.05994189494845" lon="10.278072701956429"><ele>849.0</ele><time>2026-05-02T09:27:18.998Z</time></trkpt><trkpt lat="44.05996754255285" lon="10.27785654348492"><ele>828.25</ele><time>2026-05-02T09:27:19.998Z</time></trkpt><trkpt lat="44.059983130340264" lon="10.277643097246122"><ele>807.5</ele><time>2026-05-02T09:27:20.998Z</time></trkpt><trkpt lat="44.06001145679112" lon="10.277445283698196"><ele>786.75</ele><time>2026-05-02T09:27:21.998Z</time></trkpt><trkpt lat="44.060065974381196" lon="10.277269388308358"><ele>766.0</ele><time>2026-05-02T09:27:22.998Z</time></trkpt><trkpt lat="44.06011215388648" lon="10.277102481556843"><ele>763.5</ele><time>2026-05-02T09:27:23.998Z</time></trkpt><trkpt lat="44.06013429502916" lon="10.27694707208974"><ele>761.0</ele><time>2026-05-02T09:27:24.998Z</time></trkpt><trkpt lat="44.0601172814464" lon="10.27679370800772"><ele>758.5</ele><time>2026-05-02T09:27:25.998Z</time></trkpt><trkpt lat="44.06006990059999" lon="10.276634878150952"><ele>756.0</ele><time>2026-05-02T09:27:26.998Z</time></trkpt><trkpt lat="44.06001112765202" lon="10.276469753064951"><ele>761.0</ele><time>2026-05-02T09:27:27.998Z</time></trkpt><trkpt lat="44.059961141330604" lon="10.276291118561367"><ele>766.0</ele><time>2026-05-02T09:27:28.998Z</time></trkpt><trkpt lat="44.05991494625281" lon="10.27611074621126"><ele>771.0</ele><time>2026-05-02T09:27:29.998Z</time></trkpt><trkpt lat="44.05986910508984" lon="10.275927884240543"><ele>776.0</ele><time>2026-05-02T09:27:30.998Z</time></trkpt><trkpt lat="44.05982574478351" lon="10.27574294761233"><ele>786.5</ele><time>2026-05-02T09:27:31.998Z</time></trkpt><trkpt lat="44.0597870814279" lon="10.275564624319571"><ele>797.0</ele><time>2026-05-02T09:27:32.998Z</time></trkpt><trkpt lat="44.05977317713838" lon="10.275398217260104"><ele>807.5</ele><time>2026-05-02T09:27:33.998Z</time></trkpt><trkpt lat="44.05979194367996" lon="10.275248099018071"><ele>818.0</ele><time>2026-05-02T09:27:34.998Z</time></trkpt><trkpt lat="44.05981734914462" lon="10.275108001015138"><ele>818.0</ele><time>2026-05-02T09:27:35.998Z</time></trkpt><trkpt lat="44.05981898406518" lon="10.274977494998861"><ele>818.0</ele><time>2026-05-02T09:27:36.998Z</time></trkpt><trkpt lat="44.059787978314226" lon="10.274864215607286"><ele>818.0</ele><time>2026-05-02T09:27:37.998Z</time></trkpt><trkpt lat="44.05972579576794" lon="10.274772469220945"><ele>818.0</ele><time>2026-05-02T09:27:38.998Z</time></trkpt><trkpt lat="44.05963976005153" lon="10.274689899797108"><ele>818.0</ele><time>2026-05-02T09:27:39.998Z</time></trkpt><trkpt lat="44.059559494385965" lon="10.274592365074351"><ele>811.5</ele><time>2026-05-02T09:27:40.998Z</time></trkpt><trkpt lat="44.05947714613255" lon="10.274479467443461"><ele>805.0</ele><time>2026-05-02T09:27:41.998Z</time></trkpt><trkpt lat="44.05938509820293" lon="10.274365805225317"><ele>798.5</ele><time>2026-05-02T09:27:42.998Z</time></trkpt><trkpt lat="44.0592907058722" lon="10.274255135949717"><ele>792.0</ele><time>2026-05-02T09:27:43.997Z</time></trkpt><trkpt lat="44.059190019292764" lon="10.274144128014743"><ele>782.6666666666666</ele><time>2026-05-02T09:27:44.997Z</time></trkpt><trkpt lat="44.05909149564379" lon="10.274019269683388"><ele>773.3333333333333</ele><time>2026-05-02T09:27:46.048Z</time></trkpt><trkpt lat="44.05898114424373" lon="10.273902264309218"><ele>764.0</ele><time>2026-05-02T09:27:47.043Z</time></trkpt><trkpt lat="44.05882416744289" lon="10.273637615472193"><ele>761.5</ele><time>2026-05-02T09:27:48.997Z</time></trkpt><trkpt lat="44.058762909727996" lon="10.273527166857436"><ele>759.0</ele><time>2026-05-02T09:27:49.997Z</time></trkpt><trkpt lat="44.05867636367009" lon="10.273421789455305"><ele>756.5</ele><time>2026-05-02T09:27:50.997Z</time></trkpt><trkpt lat="44.0585932082294" lon="10.273312670189249"><ele>754.0</ele><time>2026-05-02T09:27:51.997Z</time></trkpt><trkpt lat="44.058493537498315" lon="10.27321722601942"><ele>754.0</ele><time>2026-05-02T09:27:52.997Z</time></trkpt><trkpt lat="44.05839921876872" lon="10.27313012310549"><ele>754.0</ele><time>2026-05-02T09:27:53.997Z</time></trkpt><trkpt lat="44.05829754684428" lon="10.27305188149939"><ele>754.0</ele><time>2026-05-02T09:27:54.997Z</time></trkpt><trkpt lat="44.058203011001424" lon="10.272979304348306"><ele>754.0</ele><time>2026-05-02T09:27:55.997Z</time></trkpt><trkpt lat="44.05811758792807" lon="10.272917702639276"><ele>754.0</ele><time>2026-05-02T09:27:56.997Z</time></trkpt><trkpt lat="44.05804232789733" lon="10.272860481611094"><ele>755.3333333333334</ele><time>2026-05-02T09:27:57.997Z</time></trkpt><trkpt lat="44.05797165832953" lon="10.27280671972005"><ele>756.6666666666667</ele><time>2026-05-02T09:27:58.997Z</time></trkpt><trkpt lat="44.057906761053516" lon="10.27275513176919"><ele>758.0</ele><time>2026-05-02T09:27:59.997Z</time></trkpt><trkpt lat="44.057821161077065" lon="10.272675718515687"><ele>759.3333333333334</ele><time>2026-05-02T09:28:01.997Z</time></trkpt><trkpt lat="44.05780718022341" lon="10.272575687884375"><ele>760.6666666666666</ele><time>2026-05-02T09:28:05.997Z</time></trkpt><trkpt lat="44.0578453096552" lon="10.27249014270835"><ele>762.0</ele><time>2026-05-02T09:28:53.998Z</time></trkpt><trkpt lat="44.05784870617942" lon="10.27238759922533"><ele>762.0</ele><time>2026-05-02T09:28:55.998Z</time></trkpt><trkpt lat="44.057875232675315" lon="10.272476702985896"><ele>762.0</ele><time>2026-05-02T09:30:14.998Z</time></trkpt><trkpt lat="44.0579176645739" lon="10.272399880915232"><ele>762.0</ele><time>2026-05-02T09:30:52.999Z</time></trkpt><trkpt lat="44.05788041105749" lon="10.272322518920527"><ele>762.0</ele><time>2026-05-02T09:31:19.999Z</time></trkpt><trkpt lat="44.0579119249145" lon="10.272411218864056"><ele>762.0</ele><time>2026-05-02T09:31:45.999Z</time></trkpt><trkpt lat="44.05795285990012" lon="10.27232348069902"><ele>762.0</ele><time>2026-05-02T09:31:51.999Z</time></trkpt><trkpt lat="44.05800815221465" lon="10.27227395552232"><ele>762.0</ele><time>2026-05-02T09:31:58.999Z</time></trkpt><trkpt lat="44.05806983134673" lon="10.272231316934768"><ele>762.0</ele><time>2026-05-02T09:32:05.999Z</time></trkpt><trkpt lat="44.058105006776614" lon="10.272138613880626"><ele>762.0</ele><time>2026-05-02T09:32:08.999Z</time></trkpt><trkpt lat="44.05806187722993" lon="10.272032923219362"><ele>762.0</ele><time>2026-05-02T09:32:10.999Z</time></trkpt><trkpt lat="44.05811422544718" lon="10.271972325637144"><ele>762.0</ele><time>2026-05-02T09:32:15.998Z</time></trkpt><trkpt lat="44.058183795338465" lon="10.271940198627076"><ele>762.0</ele><time>2026-05-02T09:32:22.998Z</time></trkpt><trkpt lat="44.05822817472793" lon="10.271852959201384"><ele>762.0</ele><time>2026-05-02T09:32:34.998Z</time></trkpt><trkpt lat="44.05817702079602" lon="10.271790146502282"><ele>762.0</ele><time>2026-05-02T09:32:51.001Z</time></trkpt><trkpt lat="44.05820149277145" lon="10.271704837550953"><ele>762.0</ele><time>2026-05-02T09:32:59Z</time></trkpt><trkpt lat="44.058166775429385" lon="10.271628321167412"><ele>762.0</ele><time>2026-05-02T09:34:34.999Z</time></trkpt><trkpt lat="44.058113478096104" lon="10.271550017045143"><ele>762.0</ele><time>2026-05-02T09:34:40.999Z</time></trkpt><trkpt lat="44.05807897825157" lon="10.271466050084243"><ele>762.0</ele><time>2026-05-02T09:34:46.999Z</time></trkpt><trkpt lat="44.05804584509801" lon="10.271386278955996"><ele>762.0</ele><time>2026-05-02T09:34:53.001Z</time></trkpt><trkpt lat="44.05800207659049" lon="10.271322077759997"><ele>762.0</ele><time>2026-05-02T09:34:58.001Z</time></trkpt><trkpt lat="44.05793678716367" lon="10.271296363677399"><ele>762.0</ele><time>2026-05-02T09:35:04.001Z</time></trkpt><trkpt lat="44.058040826265255" lon="10.271421496165816"><ele>762.0</ele><time>2026-05-02T09:36:41.999Z</time></trkpt><trkpt lat="44.05808376569277" lon="10.271502814744814"><ele>762.0</ele><time>2026-05-02T09:36:48.999Z</time></trkpt><trkpt lat="44.05811421491344" lon="10.271583288293611"><ele>762.0</ele><time>2026-05-02T09:36:56Z</time></trkpt><trkpt lat="44.05814571565471" lon="10.271664293046202"><ele>762.0</ele><time>2026-05-02T09:37:03Z</time></trkpt><trkpt lat="44.05816431513808" lon="10.27175237997882"><ele>762.0</ele><time>2026-05-02T09:37:10Z</time></trkpt><trkpt lat="44.058188850122654" lon="10.27184925062123"><ele>762.0</ele><time>2026-05-02T09:37:16Z</time></trkpt><trkpt lat="44.05817406968545" lon="10.27194119423344"><ele>762.0</ele><time>2026-05-02T09:40:07Z</time></trkpt><trkpt lat="44.05811762474448" lon="10.2719865283429"><ele>762.0</ele><time>2026-05-02T09:40:18Z</time></trkpt><trkpt lat="44.05803481069173" lon="10.271864426014197"><ele>762.0</ele><time>2026-05-02T09:40:32.999Z</time></trkpt><trkpt lat="44.05803329246485" lon="10.271959882569702"><ele>762.0</ele><time>2026-05-02T09:40:34.999Z</time></trkpt><trkpt lat="44.05799412048065" lon="10.27207323752007"><ele>762.0</ele><time>2026-05-02T09:40:36.999Z</time></trkpt><trkpt lat="44.05807686823209" lon="10.272179766776333"><ele>762.0</ele><time>2026-05-02T09:40:38.999Z</time></trkpt><trkpt lat="44.058132638483436" lon="10.272241173273692"><ele>762.0</ele><time>2026-05-02T09:40:43.999Z</time></trkpt><trkpt lat="44.05795826560265" lon="10.272041659334931"><ele>762.0</ele><time>2026-05-02T09:40:57.999Z</time></trkpt><trkpt lat="44.05737293601129" lon="10.27161550898576"><ele>761.3333333333334</ele><time>2026-05-02T09:41:05.999Z</time></trkpt><trkpt lat="44.057302525289906" lon="10.271579965523326"><ele>760.6666666666666</ele><time>2026-05-02T09:41:07.001Z</time></trkpt><trkpt lat="44.05723267614719" lon="10.271544339024977"><ele>760.0</ele><time>2026-05-02T09:41:08.001Z</time></trkpt><trkpt lat="44.05716483778647" lon="10.271502586795448"><ele>759.3333333333333</ele><time>2026-05-02T09:41:09.001Z</time></trkpt><trkpt lat="44.05709856388767" lon="10.271455814819461"><ele>758.6666666666666</ele><time>2026-05-02T09:41:10.001Z</time></trkpt><trkpt lat="44.05702702662262" lon="10.271406466865487"><ele>758.0</ele><time>2026-05-02T09:41:11.068Z</time></trkpt><trkpt lat="44.05696037362747" lon="10.271360628788692"><ele>762.0</ele><time>2026-05-02T09:41:12.068Z</time></trkpt><trkpt lat="44.05749817088985" lon="10.271686722755502"><ele>762.0</ele><time>2026-05-02T09:41:13.065Z</time></trkpt><trkpt lat="44.0576143365585" lon="10.271716984119339"><ele>762.0</ele><time>2026-05-02T09:41:14.066Z</time></trkpt><trkpt lat="44.05790077863779" lon="10.272419964312883"><ele>762.0</ele><time>2026-05-02T09:41:19.067Z</time></trkpt><trkpt lat="44.05786723142757" lon="10.272170720107374"><ele>762.0</ele><time>2026-05-02T09:41:21.035Z</time></trkpt><trkpt lat="44.057897789355906" lon="10.2722981469221"><ele>762.0</ele><time>2026-05-02T09:41:26.016Z</time></trkpt><trkpt lat="44.05787289026935" lon="10.272417183844484"><ele>762.0</ele><time>2026-05-02T09:41:32.019Z</time></trkpt><trkpt lat="44.05786242669474" lon="10.272301788592667"><ele>762.0</ele><time>2026-05-02T09:41:50Z</time></trkpt><trkpt lat="44.05785980456869" lon="10.27239063365281"><ele>762.0</ele><time>2026-05-02T09:42:11Z</time></trkpt><trkpt lat="44.05785888940244" lon="10.272494758524829"><ele>762.0</ele><time>2026-05-02T09:42:17Z</time></trkpt><trkpt lat="44.05781471551366" lon="10.272565441789675"><ele>762.0</ele><time>2026-05-02T09:42:29.999Z</time></trkpt><trkpt lat="44.05778728266537" lon="10.27264960036017"><ele>762.0</ele><time>2026-05-02T09:43:05.998Z</time></trkpt><trkpt lat="44.057817923978725" lon="10.272556740517757"><ele>762.0</ele><time>2026-05-02T09:43:38.999Z</time></trkpt><trkpt lat="44.05786475176996" lon="10.272497963020703"><ele>762.0</ele><time>2026-05-02T09:44:03.999Z</time></trkpt><trkpt lat="44.05783464177386" lon="10.272580425683467"><ele>762.0</ele><time>2026-05-02T09:45:37.999Z</time></trkpt><trkpt lat="44.05776954890572" lon="10.272626770539508"><ele>762.0</ele><time>2026-05-02T09:45:42.999Z</time></trkpt><trkpt lat="44.057713772544325" lon="10.272573225279721"><ele>762.0</ele><time>2026-05-02T09:45:44.999Z</time></trkpt><trkpt lat="44.05762524603371" lon="10.272501255067407"><ele>762.0</ele><time>2026-05-02T09:45:46.999Z</time></trkpt><trkpt lat="44.05753643599239" lon="10.272446183455779"><ele>762.0</ele><time>2026-05-02T09:45:47.999Z</time></trkpt><trkpt lat="44.057425474921736" lon="10.272355331795813"><ele>762.7142857142857</ele><time>2026-05-02T09:45:49.999Z</time></trkpt><trkpt lat="44.057363695286604" lon="10.27231043920336"><ele>763.4285714285714</ele><time>2026-05-02T09:45:50.999Z</time></trkpt><trkpt lat="44.05730461991611" lon="10.272262769917209"><ele>764.1428571428571</ele><time>2026-05-02T09:45:51.999Z</time></trkpt><trkpt lat="44.05724439382037" lon="10.272216039360437"><ele>764.8571428571429</ele><time>2026-05-02T09:45:52.999Z</time></trkpt><trkpt lat="44.057180970110565" lon="10.272171121761247"><ele>765.5714285714287</ele><time>2026-05-02T09:45:53.999Z</time></trkpt><trkpt lat="44.057121208592456" lon="10.272121032607544"><ele>766.2857142857143</ele><time>2026-05-02T09:45:54.999Z</time></trkpt><trkpt lat="44.05706121640944" lon="10.272072650270538"><ele>767.0</ele><time>2026-05-02T09:45:55.999Z</time></trkpt><trkpt lat="44.05699801868924" lon="10.27202711590368"><ele>767.0</ele><time>2026-05-02T09:45:56.999Z</time></trkpt><trkpt lat="44.0569335394968" lon="10.27198194901386"><ele>767.0</ele><time>2026-05-02T09:45:57.999Z</time></trkpt><trkpt lat="44.05686964305162" lon="10.271928512686188"><ele>767.0</ele><time>2026-05-02T09:45:58.999Z</time></trkpt><trkpt lat="44.056804795653626" lon="10.271877376483332"><ele>767.0</ele><time>2026-05-02T09:45:59.999Z</time></trkpt><trkpt lat="44.05673586783445" lon="10.271830271172806"><ele>767.0</ele><time>2026-05-02T09:46:00.999Z</time></trkpt><trkpt lat="44.05666735895456" lon="10.271780203143045"><ele>767.0</ele><time>2026-05-02T09:46:01.999Z</time></trkpt><trkpt lat="44.056600308434085" lon="10.271729700248455"><ele>774.1666666666666</ele><time>2026-05-02T09:46:02.999Z</time></trkpt><trkpt lat="44.056530542811345" lon="10.27167951145697"><ele>781.3333333333333</ele><time>2026-05-02T09:46:03.999Z</time></trkpt><trkpt lat="44.056460053938004" lon="10.27162914150064"><ele>788.5</ele><time>2026-05-02T09:46:04.999Z</time></trkpt><trkpt lat="44.056394879394645" lon="10.271567633660526"><ele>795.6666666666666</ele><time>2026-05-02T09:46:05.999Z</time></trkpt><trkpt lat="44.05633560393443" lon="10.271500130919305"><ele>802.8333333333334</ele><time>2026-05-02T09:46:06.999Z</time></trkpt><trkpt lat="44.056283151405154" lon="10.271422049150322"><ele>810.0</ele><time>2026-05-02T09:46:07.999Z</time></trkpt><trkpt lat="44.056249929738186" lon="10.271327415867438"><ele>809.9999999999999</ele><time>2026-05-02T09:46:08.999Z</time></trkpt><trkpt lat="44.05623242730117" lon="10.271224910440477"><ele>810.0</ele><time>2026-05-02T09:46:09.999Z</time></trkpt><trkpt lat="44.05623055949782" lon="10.271119975331073"><ele>810.0</ele><time>2026-05-02T09:46:10.999Z</time></trkpt><trkpt lat="44.05623500887585" lon="10.27101766644764"><ele>810.0</ele><time>2026-05-02T09:46:11.999Z</time></trkpt><trkpt lat="44.05625765101942" lon="10.270934988775776"><ele>810.0</ele><time>2026-05-02T09:46:12.999Z</time></trkpt><trkpt lat="44.0563038682271" lon="10.270834872116525"><ele>809.9999999999999</ele><time>2026-05-02T09:46:14.999Z</time></trkpt><trkpt lat="44.05634987492646" lon="10.27077371747035"><ele>810.0</ele><time>2026-05-02T09:47:32.998Z</time></trkpt><trkpt lat="44.05643744752247" lon="10.270739651049453"><ele>810.0</ele><time>2026-05-02T09:47:35.998Z</time></trkpt><trkpt lat="44.0565571107555" lon="10.270666809229342"><ele>810.0</ele><time>2026-05-02T09:47:37.998Z</time></trkpt><trkpt lat="44.056619623913484" lon="10.270605869276837"><ele>810.0</ele><time>2026-05-02T09:47:38.998Z</time></trkpt><trkpt lat="44.05668029600143" lon="10.270531286160669"><ele>810.0</ele><time>2026-05-02T09:47:39.998Z</time></trkpt><trkpt lat="44.0567426595471" lon="10.270441053138413"><ele>810.0</ele><time>2026-05-02T09:47:40.998Z</time></trkpt><trkpt lat="44.05680046021057" lon="10.27033828268217"><ele>799.2</ele><time>2026-05-02T09:47:41.998Z</time></trkpt><trkpt lat="44.05685189110918" lon="10.270224128303013"><ele>788.4</ele><time>2026-05-02T09:47:42.998Z</time></trkpt><trkpt lat="44.056900099047425" lon="10.27009653407534"><ele>777.5999999999999</ele><time>2026-05-02T09:47:43.998Z</time></trkpt><trkpt lat="44.05694170760159" lon="10.269958659103459"><ele>766.8</ele><time>2026-05-02T09:47:44.998Z</time></trkpt><trkpt lat="44.05697158923871" lon="10.269812764297862"><ele>756.0</ele><time>2026-05-02T09:47:45.998Z</time></trkpt><trkpt lat="44.056983067735175" lon="10.26966447833089"><ele>755.8</ele><time>2026-05-02T09:47:46.998Z</time></trkpt><trkpt lat="44.056983461293726" lon="10.269516956654043"><ele>755.5999999999999</ele><time>2026-05-02T09:47:47.998Z</time></trkpt><trkpt lat="44.05698029831805" lon="10.269369893046857"><ele>755.4</ele><time>2026-05-02T09:47:48.998Z</time></trkpt><trkpt lat="44.05697698815307" lon="10.26922513005194"><ele>755.2</ele><time>2026-05-02T09:47:49.998Z</time></trkpt><trkpt lat="44.05697283771107" lon="10.269079726033006"><ele>755.0</ele><time>2026-05-02T09:47:50.998Z</time></trkpt><trkpt lat="44.05695908210912" lon="10.26893494010794"><ele>755.4</ele><time>2026-05-02T09:47:51.998Z</time></trkpt><trkpt lat="44.05693807567551" lon="10.268791482599926"><ele>755.8</ele><time>2026-05-02T09:47:52.998Z</time></trkpt><trkpt lat="44.056915180064514" lon="10.268645461816106"><ele>756.2</ele><time>2026-05-02T09:47:53.998Z</time></trkpt><trkpt lat="44.056891948769874" lon="10.268496626007398"><ele>756.6</ele><time>2026-05-02T09:47:54.998Z</time></trkpt><trkpt lat="44.05687050404121" lon="10.268345107834987"><ele>757.0</ele><time>2026-05-02T09:47:55.998Z</time></trkpt><trkpt lat="44.05684902116903" lon="10.268190450240578"><ele>757.5</ele><time>2026-05-02T09:47:56.998Z</time></trkpt><trkpt lat="44.05682488804315" lon="10.268034607757235"><ele>758.0</ele><time>2026-05-02T09:47:57.998Z</time></trkpt><trkpt lat="44.05680029249434" lon="10.26787865538715"><ele>758.5</ele><time>2026-05-02T09:47:58.998Z</time></trkpt><trkpt lat="44.0567740332467" lon="10.267726002608832"><ele>759.0</ele><time>2026-05-02T09:47:59.998Z</time></trkpt><trkpt lat="44.05674853300441" lon="10.26757258235547"><ele>759.0</ele><time>2026-05-02T09:48:00.998Z</time></trkpt><trkpt lat="44.056733569041526" lon="10.267415916717054"><ele>759.0</ele><time>2026-05-02T09:48:01.998Z</time></trkpt><trkpt lat="44.056723770515674" lon="10.267257669620586"><ele>759.0</ele><time>2026-05-02T09:48:02.998Z</time></trkpt><trkpt lat="44.05671899906447" lon="10.267097583858515"><ele>759.0</ele><time>2026-05-02T09:48:03.998Z</time></trkpt><trkpt lat="44.05672008426438" lon="10.266934631239812"><ele>758.4000000000001</ele><time>2026-05-02T09:48:04.998Z</time></trkpt><trkpt lat="44.056723372793854" lon="10.266773979814012"><ele>757.8</ele><time>2026-05-02T09:48:05.998Z</time></trkpt><trkpt lat="44.05674261616287" lon="10.266618311839174"><ele>757.2</ele><time>2026-05-02T09:48:06.998Z</time></trkpt><trkpt lat="44.05677308035386" lon="10.266482571797598"><ele>756.5999999999999</ele><time>2026-05-02T09:48:07.998Z</time></trkpt><trkpt lat="44.056820090402375" lon="10.266365238081033"><ele>756.0</ele><time>2026-05-02T09:48:08.998Z</time></trkpt><trkpt lat="44.05686783436637" lon="10.266260980549328"><ele>758.5999999999999</ele><time>2026-05-02T09:48:09.998Z</time></trkpt><trkpt lat="44.056913443654516" lon="10.266161826654587"><ele>761.2</ele><time>2026-05-02T09:48:10.998Z</time></trkpt><trkpt lat="44.05694388172733" lon="10.26604629094882"><ele>763.8</ele><time>2026-05-02T09:48:11.998Z</time></trkpt><trkpt lat="44.056964540519246" lon="10.265915969191727"><ele>766.4000000000001</ele><time>2026-05-02T09:48:12.998Z</time></trkpt><trkpt lat="44.05698027267852" lon="10.265777939527252"><ele>769.0</ele><time>2026-05-02T09:48:13.998Z</time></trkpt><trkpt lat="44.056998633059095" lon="10.265635139838288"><ele>775.75</ele><time>2026-05-02T09:48:14.998Z</time></trkpt><trkpt lat="44.057025175815006" lon="10.265488292436793"><ele>782.5</ele><time>2026-05-02T09:48:15.998Z</time></trkpt><trkpt lat="44.05706185884626" lon="10.26533783869191"><ele>789.25</ele><time>2026-05-02T09:48:16.998Z</time></trkpt><trkpt lat="44.05710997340671" lon="10.265188357439971"><ele>796.0</ele><time>2026-05-02T09:48:17.998Z</time></trkpt><trkpt lat="44.05717312996655" lon="10.265045115050404"><ele>796.0</ele><time>2026-05-02T09:48:18.998Z</time></trkpt><trkpt lat="44.05725586095387" lon="10.26491437773683"><ele>796.0</ele><time>2026-05-02T09:48:19.998Z</time></trkpt><trkpt lat="44.05735105570512" lon="10.264797583954604"><ele>796.0</ele><time>2026-05-02T09:48:20.998Z</time></trkpt><trkpt lat="44.05745490725405" lon="10.264691941400823"><ele>796.0</ele><time>2026-05-02T09:48:21.998Z</time></trkpt><trkpt lat="44.057565727852705" lon="10.264594402768358"><ele>795.0</ele><time>2026-05-02T09:48:22.998Z</time></trkpt><trkpt lat="44.05767569256521" lon="10.26449812468666"><ele>794.0</ele><time>2026-05-02T09:48:23.998Z</time></trkpt><trkpt lat="44.057782420355245" lon="10.2643986169285"><ele>793.0</ele><time>2026-05-02T09:48:24.998Z</time></trkpt><trkpt lat="44.05788893642554" lon="10.264307137677747"><ele>792.0</ele><time>2026-05-02T09:48:25.998Z</time></trkpt><trkpt lat="44.05798916305301" lon="10.264211629001492"><ele>792.0</ele><time>2026-05-02T09:48:26.998Z</time></trkpt><trkpt lat="44.05806133393785" lon="10.264088775819241"><ele>792.0</ele><time>2026-05-02T09:48:27.998Z</time></trkpt><trkpt lat="44.05809400729634" lon="10.263943793520424"><ele>792.0</ele><time>2026-05-02T09:48:28.998Z</time></trkpt><trkpt lat="44.05807199254898" lon="10.26378271740028"><ele>792.0</ele><time>2026-05-02T09:48:29.998Z</time></trkpt><trkpt lat="44.05800107387085" lon="10.263631578954808"><ele>794.75</ele><time>2026-05-02T09:48:30.998Z</time></trkpt><trkpt lat="44.057934650173266" lon="10.263483773241456"><ele>797.5</ele><time>2026-05-02T09:48:31.998Z</time></trkpt><trkpt lat="44.05786701426421" lon="10.263337812003156"><ele>800.25</ele><time>2026-05-02T09:48:32.998Z</time></trkpt><trkpt lat="44.05782615076644" lon="10.263187352099365"><ele>803.0</ele><time>2026-05-02T09:48:33.998Z</time></trkpt><trkpt lat="44.057824541630595" lon="10.263046387070446"><ele>803.0</ele><time>2026-05-02T09:48:34.998Z</time></trkpt><trkpt lat="44.05784647992497" lon="10.262932090920938"><ele>803.0</ele><time>2026-05-02T09:48:35.998Z</time></trkpt><trkpt lat="44.05790243235591" lon="10.262841244006111"><ele>803.0</ele><time>2026-05-02T09:48:36.998Z</time></trkpt><trkpt lat="44.05794166705379" lon="10.26271604461459"><ele>803.0</ele><time>2026-05-02T09:48:37.998Z</time></trkpt><trkpt lat="44.057942977824695" lon="10.262557092204753"><ele>803.0</ele><time>2026-05-02T09:48:38.998Z</time></trkpt><trkpt lat="44.05793768621133" lon="10.262392744127654"><ele>801.0</ele><time>2026-05-02T09:48:39.998Z</time></trkpt><trkpt lat="44.05795030547311" lon="10.262221074706648"><ele>799.0</ele><time>2026-05-02T09:48:40.998Z</time></trkpt><trkpt lat="44.05799181659158" lon="10.262055941050157"><ele>797.0</ele><time>2026-05-02T09:48:41.998Z</time></trkpt><trkpt lat="44.05805562055112" lon="10.26189509044499"><ele>795.0</ele><time>2026-05-02T09:48:42.998Z</time></trkpt><trkpt lat="44.05811891930276" lon="10.261729600748428"><ele>795.0</ele><time>2026-05-02T09:48:43.998Z</time></trkpt><trkpt lat="44.05817435081743" lon="10.261554045771364"><ele>795.0</ele><time>2026-05-02T09:48:44.998Z</time></trkpt><trkpt lat="44.05821628492283" lon="10.261368730663897"><ele>795.0</ele><time>2026-05-02T09:48:45.998Z</time></trkpt><trkpt lat="44.05824086418057" lon="10.261173503448614"><ele>795.0</ele><time>2026-05-02T09:48:46.998Z</time></trkpt><trkpt lat="44.05824671385177" lon="10.260971058490625"><ele>797.5</ele><time>2026-05-02T09:48:47.998Z</time></trkpt><trkpt lat="44.05823943097731" lon="10.260764609512167"><ele>800.0</ele><time>2026-05-02T09:48:48.998Z</time></trkpt><trkpt lat="44.05822292416103" lon="10.26056112747569"><ele>802.5</ele><time>2026-05-02T09:48:49.998Z</time></trkpt><trkpt lat="44.05821816618199" lon="10.260364538016681"><ele>805.0</ele><time>2026-05-02T09:48:50.998Z</time></trkpt><trkpt lat="44.05824467335698" lon="10.260174569047825"><ele>802.5</ele><time>2026-05-02T09:48:51.998Z</time></trkpt><trkpt lat="44.0583059528472" lon="10.260002592884662"><ele>800.0</ele><time>2026-05-02T09:48:52.998Z</time></trkpt><trkpt lat="44.05837700630035" lon="10.259837179110063"><ele>797.5</ele><time>2026-05-02T09:48:53.998Z</time></trkpt><trkpt lat="44.05844366911319" lon="10.259667491658766"><ele>795.0</ele><time>2026-05-02T09:48:54.998Z</time></trkpt><trkpt lat="44.058505242387994" lon="10.259491533617624"><ele>795.0</ele><time>2026-05-02T09:48:55.998Z</time></trkpt><trkpt lat="44.058564069683676" lon="10.25931217470307"><ele>795.0</ele><time>2026-05-02T09:48:56.998Z</time></trkpt><trkpt lat="44.05862463439071" lon="10.259135776550096"><ele>795.0</ele><time>2026-05-02T09:48:57.998Z</time></trkpt><trkpt lat="44.05869070159947" lon="10.258963002216234"><ele>795.0</ele><time>2026-05-02T09:48:58.998Z</time></trkpt><trkpt lat="44.05876282937863" lon="10.258811068782002"><ele>795.0</ele><time>2026-05-02T09:48:59.998Z</time></trkpt><trkpt lat="44.05884734234626" lon="10.258678679411231"><ele>795.0</ele><time>2026-05-02T09:49:00.998Z</time></trkpt><trkpt lat="44.058948792047744" lon="10.258565219951844"><ele>795.0</ele><time>2026-05-02T09:49:01.998Z</time></trkpt><trkpt lat="44.05905649937041" lon="10.258458276854823"><ele>795.0</ele><time>2026-05-02T09:49:02.998Z</time></trkpt><trkpt lat="44.059165896174946" lon="10.258347055941544"><ele>795.5</ele><time>2026-05-02T09:49:03.998Z</time></trkpt><trkpt lat="44.059263362260815" lon="10.258218453804464"><ele>796.0</ele><time>2026-05-02T09:49:04.998Z</time></trkpt><trkpt lat="44.05934705437383" lon="10.258072098691862"><ele>796.5</ele><time>2026-05-02T09:49:05.998Z</time></trkpt><trkpt lat="44.05941720578134" lon="10.257909840071578"><ele>797.0</ele><time>2026-05-02T09:49:06.998Z</time></trkpt><trkpt lat="44.0594780325637" lon="10.257741221908793"><ele>797.0</ele><time>2026-05-02T09:49:07.998Z</time></trkpt><trkpt lat="44.05953929139682" lon="10.25757261765419"><ele>797.0</ele><time>2026-05-02T09:49:08.998Z</time></trkpt><trkpt lat="44.059606278307996" lon="10.257407356248837"><ele>797.0</ele><time>2026-05-02T09:49:09.998Z</time></trkpt><trkpt lat="44.05967695824541" lon="10.257248674564789"><ele>797.0</ele><time>2026-05-02T09:49:10.998Z</time></trkpt><trkpt lat="44.05976852864682" lon="10.257120426152612"><ele>795.25</ele><time>2026-05-02T09:49:11.998Z</time></trkpt><trkpt lat="44.05987803112491" lon="10.257019943587187"><ele>793.5</ele><time>2026-05-02T09:49:12.998Z</time></trkpt><trkpt lat="44.05999918286995" lon="10.2569509810976"><ele>791.75</ele><time>2026-05-02T09:49:13.998Z</time></trkpt><trkpt lat="44.06012787999945" lon="10.256906723481693"><ele>790.0</ele><time>2026-05-02T09:49:14.998Z</time></trkpt><trkpt lat="44.06025588496371" lon="10.25687231844963"><ele>794.25</ele><time>2026-05-02T09:49:15.998Z</time></trkpt><trkpt lat="44.06039077932611" lon="10.25684633924978"><ele>798.5</ele><time>2026-05-02T09:49:16.998Z</time></trkpt><trkpt lat="44.06052677491337" lon="10.256823261011196"><ele>802.75</ele><time>2026-05-02T09:49:17.998Z</time></trkpt><trkpt lat="44.060663180575006" lon="10.256793577534793"><ele>807.0</ele><time>2026-05-02T09:49:18.998Z</time></trkpt><trkpt lat="44.06079777709521" lon="10.256753459267166"><ele>813.75</ele><time>2026-05-02T09:49:19.998Z</time></trkpt><trkpt lat="44.06093056545917" lon="10.25669523731495"><ele>820.5</ele><time>2026-05-02T09:49:20.998Z</time></trkpt><trkpt lat="44.06105685440638" lon="10.256630304825812"><ele>827.25</ele><time>2026-05-02T09:49:21.998Z</time></trkpt><trkpt lat="44.06117517094998" lon="10.25656890950613"><ele>834.0</ele><time>2026-05-02T09:49:22.998Z</time></trkpt><trkpt lat="44.06127374930611" lon="10.256508766987384"><ele>834.2</ele><time>2026-05-02T09:49:23.998Z</time></trkpt><trkpt lat="44.06134989798101" lon="10.256414651242649"><ele>834.4000000000001</ele><time>2026-05-02T09:49:24.998Z</time></trkpt><trkpt lat="44.061382372063626" lon="10.256294489701135"><ele>834.6</ele><time>2026-05-02T09:49:25.998Z</time></trkpt><trkpt lat="44.06136676212217" lon="10.25617127937269"><ele>834.8</ele><time>2026-05-02T09:49:26.998Z</time></trkpt><trkpt lat="44.0613068255026" lon="10.256063415578668"><ele>835.0</ele><time>2026-05-02T09:49:27.998Z</time></trkpt><trkpt lat="44.06122164111969" lon="10.255979551401852"><ele>835.0</ele><time>2026-05-02T09:49:28.998Z</time></trkpt><trkpt lat="44.061116957748595" lon="10.255916944124044"><ele>835.0</ele><time>2026-05-02T09:49:29.998Z</time></trkpt><trkpt lat="44.06100390740722" lon="10.255880964512272"><ele>835.0</ele><time>2026-05-02T09:49:30.998Z</time></trkpt><trkpt lat="44.06088752340546" lon="10.255878620614423"><ele>835.0</ele><time>2026-05-02T09:49:31.998Z</time></trkpt><trkpt lat="44.060778568661895" lon="10.255869854304041"><ele>829.6</ele><time>2026-05-02T09:49:32.998Z</time></trkpt><trkpt lat="44.060682033892526" lon="10.2558338037584"><ele>824.2</ele><time>2026-05-02T09:49:33.998Z</time></trkpt><trkpt lat="44.060601153834234" lon="10.255758161250359"><ele>818.8</ele><time>2026-05-02T09:49:34.998Z</time></trkpt><trkpt lat="44.06054022931285" lon="10.255647089346464"><ele>813.4</ele><time>2026-05-02T09:49:35.998Z</time></trkpt><trkpt lat="44.06049657961497" lon="10.255518242608238"><ele>808.0</ele><time>2026-05-02T09:49:36.998Z</time></trkpt><trkpt lat="44.060462554436306" lon="10.255386656681532"><ele>808.0</ele><time>2026-05-02T09:49:37.998Z</time></trkpt><trkpt lat="44.06045941125098" lon="10.25524504671227"><ele>808.0</ele><time>2026-05-02T09:49:38.998Z</time></trkpt><trkpt lat="44.060495913126466" lon="10.255111020806204"><ele>808.0</ele><time>2026-05-02T09:49:39.998Z</time></trkpt><trkpt lat="44.06056285898667" lon="10.254998929393395"><ele>808.0</ele><time>2026-05-02T09:49:40.998Z</time></trkpt><trkpt lat="44.06063919074368" lon="10.254892662637324"><ele>808.0</ele><time>2026-05-02T09:49:41.998Z</time></trkpt><trkpt lat="44.060713458771005" lon="10.254777646393899"><ele>815.5</ele><time>2026-05-02T09:49:42.998Z</time></trkpt><trkpt lat="44.06078398859222" lon="10.25465139862031"><ele>823.0</ele><time>2026-05-02T09:49:43.998Z</time></trkpt><trkpt lat="44.06085789458677" lon="10.254521097723226"><ele>830.5</ele><time>2026-05-02T09:49:44.998Z</time></trkpt><trkpt lat="44.060932302075194" lon="10.254388063590545"><ele>838.0</ele><time>2026-05-02T09:49:45.998Z</time></trkpt><trkpt lat="44.061003954486154" lon="10.25425050974075"><ele>838.0</ele><time>2026-05-02T09:49:46.998Z</time></trkpt><trkpt lat="44.06108184616986" lon="10.254117978635902"><ele>838.0</ele><time>2026-05-02T09:49:47.998Z</time></trkpt><trkpt lat="44.06116142132493" lon="10.25398050677503"><ele>838.0</ele><time>2026-05-02T09:49:48.998Z</time></trkpt><trkpt lat="44.06124389966939" lon="10.25383912553236"><ele>838.0</ele><time>2026-05-02T09:49:49.998Z</time></trkpt><trkpt lat="44.061333990809786" lon="10.25369523635541"><ele>838.0</ele><time>2026-05-02T09:49:50.998Z</time></trkpt><trkpt lat="44.061428696706635" lon="10.253549057043385"><ele>838.0</ele><time>2026-05-02T09:49:51.998Z</time></trkpt><trkpt lat="44.06153213705138" lon="10.253406123497768"><ele>838.0</ele><time>2026-05-02T09:49:52.998Z</time></trkpt><trkpt lat="44.061642689010554" lon="10.253266224900916"><ele>838.0</ele><time>2026-05-02T09:49:53.998Z</time></trkpt><trkpt lat="44.06175321435897" lon="10.253124745955029"><ele>844.25</ele><time>2026-05-02T09:49:54.998Z</time></trkpt><trkpt lat="44.06186750330465" lon="10.252977963448377"><ele>850.5</ele><time>2026-05-02T09:49:55.998Z</time></trkpt><trkpt lat="44.06197610969521" lon="10.252835587575557"><ele>856.75</ele><time>2026-05-02T09:49:56.998Z</time></trkpt><trkpt lat="44.06206245836508" lon="10.252704642376228"><ele>863.0</ele><time>2026-05-02T09:49:57.998Z</time></trkpt><trkpt lat="44.06212268622001" lon="10.2525552977859"><ele>863.0</ele><time>2026-05-02T09:49:58.998Z</time></trkpt><trkpt lat="44.06214982313218" lon="10.252378636043852"><ele>863.0</ele><time>2026-05-02T09:49:59.999Z</time></trkpt><trkpt lat="44.06214494031332" lon="10.252195198976642"><ele>863.0</ele><time>2026-05-02T09:50:00.999Z</time></trkpt><trkpt lat="44.06215128319763" lon="10.252003822249835"><ele>863.0</ele><time>2026-05-02T09:50:01.999Z</time></trkpt><trkpt lat="44.06216051037368" lon="10.251815626431538"><ele>867.5</ele><time>2026-05-02T09:50:02.999Z</time></trkpt><trkpt lat="44.062165324817585" lon="10.251627331335278"><ele>872.0</ele><time>2026-05-02T09:50:03.999Z</time></trkpt><trkpt lat="44.062187442610174" lon="10.251451008627859"><ele>876.5</ele><time>2026-05-02T09:50:04.999Z</time></trkpt><trkpt lat="44.062254779579916" lon="10.251300933837525"><ele>881.0</ele><time>2026-05-02T09:50:05.999Z</time></trkpt><trkpt lat="44.06235816136313" lon="10.251195761112031"><ele>884.5</ele><time>2026-05-02T09:50:06.999Z</time></trkpt><trkpt lat="44.06248373835082" lon="10.251141003107868"><ele>888.0</ele><time>2026-05-02T09:50:07.999Z</time></trkpt><trkpt lat="44.06261206637262" lon="10.25110066325852"><ele>891.5</ele><time>2026-05-02T09:50:08.999Z</time></trkpt><trkpt lat="44.06274501214571" lon="10.251061650147095"><ele>895.0</ele><time>2026-05-02T09:50:09.999Z</time></trkpt><trkpt lat="44.06287352554666" lon="10.251012725402493"><ele>895.0</ele><time>2026-05-02T09:50:10.999Z</time></trkpt><trkpt lat="44.06298247058471" lon="10.250905953072609"><ele>895.0</ele><time>2026-05-02T09:50:11.999Z</time></trkpt><trkpt lat="44.06306449450018" lon="10.250759179475937"><ele>895.0</ele><time>2026-05-02T09:50:12.999Z</time></trkpt><trkpt lat="44.06314020032953" lon="10.250605985732987"><ele>895.0</ele><time>2026-05-02T09:50:13.999Z</time></trkpt><trkpt lat="44.06322499199617" lon="10.25046376929756"><ele>896.2</ele><time>2026-05-02T09:50:14.999Z</time></trkpt><trkpt lat="44.06331519012514" lon="10.250352022670477"><ele>897.4</ele><time>2026-05-02T09:50:15.999Z</time></trkpt><trkpt lat="44.06340407229555" lon="10.250290508931164"><ele>898.5999999999999</ele><time>2026-05-02T09:50:16.999Z</time></trkpt><trkpt lat="44.06350403888068" lon="10.250271704940332"><ele>899.8</ele><time>2026-05-02T09:50:17.999Z</time></trkpt><trkpt lat="44.06361408179468" lon="10.25025495620536"><ele>901.0</ele><time>2026-05-02T09:50:18.999Z</time></trkpt><trkpt lat="44.06373360162029" lon="10.250225972358438"><ele>901.0</ele><time>2026-05-02T09:50:19.999Z</time></trkpt><trkpt lat="44.06385988517358" lon="10.250197579084306"><ele>901.0</ele><time>2026-05-02T09:50:20.999Z</time></trkpt><trkpt lat="44.063991040118005" lon="10.25016831023029"><ele>901.0</ele><time>2026-05-02T09:50:21.999Z</time></trkpt><trkpt lat="44.06412606873377" lon="10.250142336504776"><ele>901.0</ele><time>2026-05-02T09:50:22.999Z</time></trkpt><trkpt lat="44.064255997054744" lon="10.250130806423556"><ele>900.5</ele><time>2026-05-02T09:50:23.999Z</time></trkpt><trkpt lat="44.064377779495494" lon="10.250129788774052"><ele>900.0</ele><time>2026-05-02T09:50:24.999Z</time></trkpt><trkpt lat="44.064494093298364" lon="10.250104615477962"><ele>899.5</ele><time>2026-05-02T09:50:25.999Z</time></trkpt><trkpt lat="44.06459588666321" lon="10.250016080083878"><ele>899.0</ele><time>2026-05-02T09:50:26.999Z</time></trkpt><trkpt lat="44.064675445551146" lon="10.249876798677546"><ele>902.75</ele><time>2026-05-02T09:50:27.999Z</time></trkpt><trkpt lat="44.06475217477893" lon="10.249725694104704"><ele>906.5</ele><time>2026-05-02T09:50:28.999Z</time></trkpt><trkpt lat="44.06484622572019" lon="10.249582735032634"><ele>910.25</ele><time>2026-05-02T09:50:29.999Z</time></trkpt><trkpt lat="44.06496350828352" lon="10.249463738554788"><ele>914.0</ele><time>2026-05-02T09:50:30.999Z</time></trkpt><trkpt lat="44.065084999656186" lon="10.249347818939924"><ele>914.0</ele><time>2026-05-02T09:50:31.999Z</time></trkpt><trkpt lat="44.065210221308895" lon="10.249239200028239"><ele>914.0</ele><time>2026-05-02T09:50:32.999Z</time></trkpt><trkpt lat="44.06533600004683" lon="10.249140085692753"><ele>914.0</ele><time>2026-05-02T09:50:33.999Z</time></trkpt><trkpt lat="44.065447708839116" lon="10.249029953391728"><ele>914.0</ele><time>2026-05-02T09:50:34.999Z</time></trkpt><trkpt lat="44.065541290431284" lon="10.248917004904984"><ele>916.4000000000001</ele><time>2026-05-02T09:50:35.999Z</time></trkpt><trkpt lat="44.06562099109149" lon="10.24880879709539"><ele>918.8000000000001</ele><time>2026-05-02T09:50:36.999Z</time></trkpt><trkpt lat="44.065696730059656" lon="10.248747562168294"><ele>921.1999999999999</ele><time>2026-05-02T09:50:37.999Z</time></trkpt><trkpt lat="44.06580039753782" lon="10.248751282379006"><ele>923.5999999999999</ele><time>2026-05-02T09:50:38.999Z</time></trkpt><trkpt lat="44.06592314741066" lon="10.248794849858571"><ele>926.0</ele><time>2026-05-02T09:50:39.999Z</time></trkpt><trkpt lat="44.06603941410073" lon="10.248853224916733"><ele>926.0</ele><time>2026-05-02T09:50:40.998Z</time></trkpt><trkpt lat="44.066143512726256" lon="10.248896236837544"><ele>925.9999999999999</ele><time>2026-05-02T09:50:41.998Z</time></trkpt><trkpt lat="44.06623564637535" lon="10.24888360921376"><ele>925.9999999999999</ele><time>2026-05-02T09:50:42.998Z</time></trkpt><trkpt lat="44.06629575675571" lon="10.248802307503885"><ele>926.0</ele><time>2026-05-02T09:50:43.998Z</time></trkpt><trkpt lat="44.066309332759225" lon="10.248684046406801"><ele>926.0</ele><time>2026-05-02T09:50:44.998Z</time></trkpt><trkpt lat="44.066272595425886" lon="10.248565353019227"><ele>926.0</ele><time>2026-05-02T09:50:45.998Z</time></trkpt><trkpt lat="44.06619349116685" lon="10.248488082864322"><ele>926.0</ele><time>2026-05-02T09:50:46.998Z</time></trkpt><trkpt lat="44.06608278986408" lon="10.248474460291993"><ele>926.0</ele><time>2026-05-02T09:50:47.998Z</time></trkpt><trkpt lat="44.06595229162702" lon="10.248528440174693"><ele>926.0</ele><time>2026-05-02T09:50:48.998Z</time></trkpt><trkpt lat="44.06581494889577" lon="10.248613570730699"><ele>930.6666666666667</ele><time>2026-05-02T09:50:49.998Z</time></trkpt><trkpt lat="44.06566808478512" lon="10.248669971496737"><ele>935.3333333333333</ele><time>2026-05-02T09:50:50.998Z</time></trkpt><trkpt lat="44.06550635428831" lon="10.24872350782653"><ele>940.0</ele><time>2026-05-02T09:50:51.998Z</time></trkpt><trkpt lat="44.065342841380804" lon="10.248776948748649"><ele>940.0</ele><time>2026-05-02T09:50:52.998Z</time></trkpt><trkpt lat="44.0651693940141" lon="10.248841431212313"><ele>940.0</ele><time>2026-05-02T09:50:53.998Z</time></trkpt><trkpt lat="44.06499583187489" lon="10.248905921694808"><ele>940.0</ele><time>2026-05-02T09:50:54.998Z</time></trkpt><trkpt lat="44.064837294714586" lon="10.248967611096488"><ele>934.5</ele><time>2026-05-02T09:50:55.998Z</time></trkpt><trkpt lat="44.0646937817842" lon="10.249018624153775"><ele>929.0</ele><time>2026-05-02T09:50:56.998Z</time></trkpt><trkpt lat="44.06455513678487" lon="10.249049498021098"><ele>923.5</ele><time>2026-05-02T09:50:57.998Z</time></trkpt><trkpt lat="44.06441867829094" lon="10.24905006419529"><ele>918.0</ele><time>2026-05-02T09:50:58.998Z</time></trkpt><trkpt lat="44.06428371649976" lon="10.249017052312047"><ele>925.5</ele><time>2026-05-02T09:50:59.998Z</time></trkpt><trkpt lat="44.06415069614029" lon="10.248947156940147"><ele>933.0</ele><time>2026-05-02T09:51:00.998Z</time></trkpt><trkpt lat="44.0640279536277" lon="10.248860174393906"><ele>940.5</ele><time>2026-05-02T09:51:01.998Z</time></trkpt><trkpt lat="44.06389950266677" lon="10.24880342128953"><ele>948.0</ele><time>2026-05-02T09:51:02.998Z</time></trkpt><trkpt lat="44.0637603905015" lon="10.248796410209323"><ele>949.75</ele><time>2026-05-02T09:51:03.998Z</time></trkpt><trkpt lat="44.06361680001071" lon="10.24885223299465"><ele>951.5</ele><time>2026-05-02T09:51:04.998Z</time></trkpt><trkpt lat="44.06348364130091" lon="10.248927512848365"><ele>953.25</ele><time>2026-05-02T09:51:05.998Z</time></trkpt><trkpt lat="44.06335046277986" lon="10.249009607064067"><ele>955.0</ele><time>2026-05-02T09:51:06.998Z</time></trkpt><trkpt lat="44.06321548263097" lon="10.249086801723317"><ele>955.0</ele><time>2026-05-02T09:51:07.998Z</time></trkpt><trkpt lat="44.06309419105673" lon="10.249148008850053"><ele>955.0</ele><time>2026-05-02T09:51:08.998Z</time></trkpt><trkpt lat="44.06298423884265" lon="10.249170565790353"><ele>955.0</ele><time>2026-05-02T09:51:09.998Z</time></trkpt><trkpt lat="44.06287801785922" lon="10.249144799797904"><ele>955.0</ele><time>2026-05-02T09:51:10.998Z</time></trkpt><trkpt lat="44.06278738371969" lon="10.249071050187453"><ele>955.0</ele><time>2026-05-02T09:51:11.998Z</time></trkpt><trkpt lat="44.06270235379" lon="10.248973125838553"><ele>955.0</ele><time>2026-05-02T09:51:12.998Z</time></trkpt><trkpt lat="44.062603616263296" lon="10.248872800048641"><ele>955.0</ele><time>2026-05-02T09:51:13.998Z</time></trkpt><trkpt lat="44.06250026519075" lon="10.248765997916314"><ele>955.0</ele><time>2026-05-02T09:51:14.998Z</time></trkpt><trkpt lat="44.06238824918613" lon="10.248663091967302"><ele>971.75</ele><time>2026-05-02T09:51:15.998Z</time></trkpt><trkpt lat="44.062270972162565" lon="10.248555478694566"><ele>988.5</ele><time>2026-05-02T09:51:16.998Z</time></trkpt><trkpt lat="44.062142500596764" lon="10.248435145959839"><ele>1005.25</ele><time>2026-05-02T09:51:18.053Z</time></trkpt><trkpt lat="44.06201763705525" lon="10.248326168219561"><ele>1022.0</ele><time>2026-05-02T09:51:19.045Z</time></trkpt><trkpt lat="44.06189168898564" lon="10.248214391420005"><ele>943.0</ele><time>2026-05-02T09:51:20.049Z</time></trkpt><trkpt lat="44.059283603747495" lon="10.244866579804066"><ele>944.0</ele><time>2026-05-02T09:51:44.998Z</time></trkpt><trkpt lat="44.05923082585803" lon="10.24468735637501"><ele>945.0</ele><time>2026-05-02T09:51:45.998Z</time></trkpt><trkpt lat="44.05912026936948" lon="10.244485145554846"><ele>946.0</ele><time>2026-05-02T09:51:46.998Z</time></trkpt><trkpt lat="44.059116730340754" lon="10.244310015531576"><ele>947.0</ele><time>2026-05-02T09:51:47.998Z</time></trkpt><trkpt lat="44.05912716413678" lon="10.244119111160684"><ele>948.75</ele><time>2026-05-02T09:51:48.998Z</time></trkpt><trkpt lat="44.0591474897402" lon="10.243908981726198"><ele>950.5</ele><time>2026-05-02T09:51:49.998Z</time></trkpt><trkpt lat="44.059162147697634" lon="10.243699465471549"><ele>952.25</ele><time>2026-05-02T09:51:50.999Z</time></trkpt><trkpt lat="44.059171236893334" lon="10.243505743443645"><ele>954.0</ele><time>2026-05-02T09:51:51.999Z</time></trkpt><trkpt lat="44.05918278994106" lon="10.243308732035043"><ele>954.5</ele><time>2026-05-02T09:51:52.999Z</time></trkpt><trkpt lat="44.05919150778929" lon="10.243109819943355"><ele>955.0</ele><time>2026-05-02T09:51:53.999Z</time></trkpt><trkpt lat="44.05920200800714" lon="10.242907419315875"><ele>955.5</ele><time>2026-05-02T09:51:54.999Z</time></trkpt><trkpt lat="44.05920917170174" lon="10.242704356598201"><ele>956.0</ele><time>2026-05-02T09:51:55.999Z</time></trkpt><trkpt lat="44.0592153973789" lon="10.242497060781359"><ele>957.0</ele><time>2026-05-02T09:51:56.999Z</time></trkpt><trkpt lat="44.05921528398306" lon="10.242290834240123"><ele>958.0</ele><time>2026-05-02T09:51:57.999Z</time></trkpt><trkpt lat="44.059206519639304" lon="10.242083538895457"><ele>959.0</ele><time>2026-05-02T09:51:58.999Z</time></trkpt><trkpt lat="44.059191985019645" lon="10.241878483219795"><ele>960.0</ele><time>2026-05-02T09:51:59.999Z</time></trkpt><trkpt lat="44.059174503095576" lon="10.2416791791617"><ele>960.0</ele><time>2026-05-02T09:52:00.999Z</time></trkpt><trkpt lat="44.05916527661755" lon="10.24148231244414"><ele>960.0</ele><time>2026-05-02T09:52:01.999Z</time></trkpt><trkpt lat="44.05918281553346" lon="10.241293129251842"><ele>960.0</ele><time>2026-05-02T09:52:02.999Z</time></trkpt><trkpt lat="44.05923765504003" lon="10.241125166997158"><ele>960.0</ele><time>2026-05-02T09:52:03.999Z</time></trkpt><trkpt lat="44.05931977570173" lon="10.240983406959995"><ele>961.0</ele><time>2026-05-02T09:52:04.999Z</time></trkpt><trkpt lat="44.059420539686" lon="10.240872342781538"><ele>962.0</ele><time>2026-05-02T09:52:05.999Z</time></trkpt><trkpt lat="44.059523914369215" lon="10.240771184811924"><ele>963.0</ele><time>2026-05-02T09:52:06.999Z</time></trkpt><trkpt lat="44.059612734279376" lon="10.240651904989797"><ele>964.0</ele><time>2026-05-02T09:52:07.999Z</time></trkpt><trkpt lat="44.05967499816824" lon="10.24050060471658"><ele>966.75</ele><time>2026-05-02T09:52:08.999Z</time></trkpt><trkpt lat="44.0596891294326" lon="10.240315244550837"><ele>969.5</ele><time>2026-05-02T09:52:09.999Z</time></trkpt><trkpt lat="44.05969113896363" lon="10.240135947473588"><ele>972.25</ele><time>2026-05-02T09:52:10.999Z</time></trkpt><trkpt lat="44.059690131312884" lon="10.239956840403657"><ele>975.0</ele><time>2026-05-02T09:52:11.999Z</time></trkpt><trkpt lat="44.059691307903606" lon="10.239775459590506"><ele>979.25</ele><time>2026-05-02T09:52:12.999Z</time></trkpt><trkpt lat="44.05969907643275" lon="10.23959650288293"><ele>983.5</ele><time>2026-05-02T09:52:13.999Z</time></trkpt><trkpt lat="44.05973100479123" lon="10.239426111579618"><ele>987.75</ele><time>2026-05-02T09:52:14.999Z</time></trkpt><trkpt lat="44.05978991862447" lon="10.239271010114246"><ele>992.0</ele><time>2026-05-02T09:52:15.999Z</time></trkpt><trkpt lat="44.05987010653822" lon="10.23913756735741"><ele>992.5</ele><time>2026-05-02T09:52:16.999Z</time></trkpt><trkpt lat="44.05995572589514" lon="10.239010539109032"><ele>993.0</ele><time>2026-05-02T09:52:17.999Z</time></trkpt><trkpt lat="44.060030478426555" lon="10.23886865543447"><ele>993.5</ele><time>2026-05-02T09:52:18.999Z</time></trkpt><trkpt lat="44.060089848344916" lon="10.238711276534016"><ele>994.0</ele><time>2026-05-02T09:52:19.999Z</time></trkpt><trkpt lat="44.06013645801592" lon="10.238543060497621"><ele>994.25</ele><time>2026-05-02T09:52:20.999Z</time></trkpt><trkpt lat="44.06017676579968" lon="10.238369187870592"><ele>994.5</ele><time>2026-05-02T09:52:21.999Z</time></trkpt><trkpt lat="44.06021818228159" lon="10.238194864233485"><ele>994.75</ele><time>2026-05-02T09:52:22.999Z</time></trkpt><trkpt lat="44.06026256689323" lon="10.238018945871913"><ele>995.0</ele><time>2026-05-02T09:52:23.999Z</time></trkpt><trkpt lat="44.06030957660697" lon="10.237845836667987"><ele>997.0</ele><time>2026-05-02T09:52:24.999Z</time></trkpt><trkpt lat="44.06036644147222" lon="10.237674540922379"><ele>999.0</ele><time>2026-05-02T09:52:25.999Z</time></trkpt><trkpt lat="44.060435952527236" lon="10.23751178167757"><ele>1001.0</ele><time>2026-05-02T09:52:26.999Z</time></trkpt><trkpt lat="44.0605162147139" lon="10.237357874847737"><ele>1003.0</ele><time>2026-05-02T09:52:27.999Z</time></trkpt><trkpt lat="44.060605684760056" lon="10.237212835590537"><ele>1005.5</ele><time>2026-05-02T09:52:28.999Z</time></trkpt><trkpt lat="44.0607056567537" lon="10.23707407997548"><ele>1008.0</ele><time>2026-05-02T09:52:29.999Z</time></trkpt><trkpt lat="44.0608095948292" lon="10.236936460155752"><ele>1010.5</ele><time>2026-05-02T09:52:30.999Z</time></trkpt><trkpt lat="44.060909289529604" lon="10.236792899071432"><ele>1013.0</ele><time>2026-05-02T09:52:31.999Z</time></trkpt><trkpt lat="44.060995976817956" lon="10.236634026551602"><ele>1017.5</ele><time>2026-05-02T09:52:32.999Z</time></trkpt><trkpt lat="44.061077617313266" lon="10.236464856366467"><ele>1022.0</ele><time>2026-05-02T09:52:33.999Z</time></trkpt><trkpt lat="44.06116141739086" lon="10.236294904011798"><ele>1026.5</ele><time>2026-05-02T09:52:34.999Z</time></trkpt><trkpt lat="44.0612473602833" lon="10.236129998001157"><ele>1031.0</ele><time>2026-05-02T09:52:35.999Z</time></trkpt><trkpt lat="44.061335437263196" lon="10.235966293073766"><ele>1031.0</ele><time>2026-05-02T09:52:36.999Z</time></trkpt><trkpt lat="44.06142279575027" lon="10.235800623600031"><ele>1031.0</ele><time>2026-05-02T09:52:37.999Z</time></trkpt><trkpt lat="44.06151057853364" lon="10.235634388682618"><ele>1031.0</ele><time>2026-05-02T09:52:38.999Z</time></trkpt><trkpt lat="44.061600167213" lon="10.235469877691868"><ele>1031.0</ele><time>2026-05-02T09:52:39.999Z</time></trkpt><trkpt lat="44.06168928591363" lon="10.23530607307772"><ele>1031.0</ele><time>2026-05-02T09:52:40.999Z</time></trkpt><trkpt lat="44.06177850004569" lon="10.235141621586402"><ele>1031.0</ele><time>2026-05-02T09:52:41.999Z</time></trkpt><trkpt lat="44.061863038595824" lon="10.234979768864475"><ele>1031.0</ele><time>2026-05-02T09:52:42.999Z</time></trkpt><trkpt lat="44.06194453901319" lon="10.234817212013219"><ele>1031.0</ele><time>2026-05-02T09:52:43.999Z</time></trkpt><trkpt lat="44.06201913909738" lon="10.23465771933603"><ele>1033.75</ele><time>2026-05-02T09:52:44.999Z</time></trkpt><trkpt lat="44.06207510066702" lon="10.234486156390998"><ele>1036.5</ele><time>2026-05-02T09:52:45.999Z</time></trkpt><trkpt lat="44.06210487107127" lon="10.234308555927349"><ele>1039.25</ele><time>2026-05-02T09:52:46.999Z</time></trkpt><trkpt lat="44.062132057828514" lon="10.234138343372097"><ele>1042.0</ele><time>2026-05-02T09:52:47.999Z</time></trkpt><trkpt lat="44.06215447526176" lon="10.233973996422009"><ele>1042.8</ele><time>2026-05-02T09:52:48.999Z</time></trkpt><trkpt lat="44.06217877139344" lon="10.233817553110862"><ele>1043.6</ele><time>2026-05-02T09:52:49.999Z</time></trkpt><trkpt lat="44.062231297031744" lon="10.233682873500118"><ele>1044.3999999999999</ele><time>2026-05-02T09:52:50.999Z</time></trkpt><trkpt lat="44.062297469572755" lon="10.233565845839824"><ele>1045.2</ele><time>2026-05-02T09:52:51.999Z</time></trkpt><trkpt lat="44.06237852324423" lon="10.233475968819372"><ele>1046.0</ele><time>2026-05-02T09:52:52.999Z</time></trkpt><trkpt lat="44.06246867729246" lon="10.23340871994677"><ele>1044.0</ele><time>2026-05-02T09:52:53.999Z</time></trkpt><trkpt lat="44.06256058512911" lon="10.233360817746062"><ele>1042.0</ele><time>2026-05-02T09:52:54.999Z</time></trkpt><trkpt lat="44.062656006498564" lon="10.233336327562562"><ele>1040.0</ele><time>2026-05-02T09:52:55.999Z</time></trkpt><trkpt lat="44.06275356763124" lon="10.233339849999627"><ele>1038.0</ele><time>2026-05-02T09:52:56.999Z</time></trkpt><trkpt lat="44.06285220411874" lon="10.233366557082965"><ele>1036.0</ele><time>2026-05-02T09:52:57.999Z</time></trkpt><trkpt lat="44.062950025754645" lon="10.233409291050206"><ele>1036.0</ele><time>2026-05-02T09:52:58.999Z</time></trkpt><trkpt lat="44.06304779347663" lon="10.233466793326983"><ele>1036.0</ele><time>2026-05-02T09:52:59.999Z</time></trkpt><trkpt lat="44.06314975437244" lon="10.23353349114154"><ele>1036.0</ele><time>2026-05-02T09:53:00.999Z</time></trkpt><trkpt lat="44.06325796828463" lon="10.23359838696758"><ele>1036.0</ele><time>2026-05-02T09:53:01.999Z</time></trkpt><trkpt lat="44.063371085352124" lon="10.233651894796743"><ele>1039.0</ele><time>2026-05-02T09:53:02.999Z</time></trkpt><trkpt lat="44.06349061587898" lon="10.233695949915775"><ele>1042.0</ele><time>2026-05-02T09:53:03.999Z</time></trkpt><trkpt lat="44.06361130194209" lon="10.233709571271884"><ele>1045.0</ele><time>2026-05-02T09:53:04.999Z</time></trkpt><trkpt lat="44.0637331716304" lon="10.233684473658636"><ele>1048.0</ele><time>2026-05-02T09:53:05.999Z</time></trkpt><trkpt lat="44.06384623018813" lon="10.233620463569256"><ele>1048.0</ele><time>2026-05-02T09:53:06.999Z</time></trkpt><trkpt lat="44.06394427379287" lon="10.233523365367626"><ele>1048.0</ele><time>2026-05-02T09:53:07.999Z</time></trkpt><trkpt lat="44.06401429886388" lon="10.23341737967244"><ele>1048.0</ele><time>2026-05-02T09:53:08.999Z</time></trkpt><trkpt lat="44.06406060231421" lon="10.233343620015967"><ele>1048.0</ele><time>2026-05-02T09:53:09.999Z</time></trkpt><trkpt lat="44.064096379220125" lon="10.2332662881388"><ele>1048.0</ele><time>2026-05-02T09:53:11.999Z</time></trkpt><trkpt lat="44.06408856863563" lon="10.233160061913997"><ele>1048.0</ele><time>2026-05-02T09:53:15.999Z</time></trkpt><trkpt lat="44.064114902152944" lon="10.2330016267372"><ele>1053.4</ele><time>2026-05-02T09:53:17.999Z</time></trkpt><trkpt lat="44.06414424644506" lon="10.232900696721247"><ele>1058.8</ele><time>2026-05-02T09:53:18.999Z</time></trkpt><trkpt lat="44.06417318153882" lon="10.232793166476368"><ele>1064.2</ele><time>2026-05-02T09:53:19.999Z</time></trkpt><trkpt lat="44.06420250040685" lon="10.232670079818831"><ele>1069.6</ele><time>2026-05-02T09:53:20.999Z</time></trkpt><trkpt lat="44.06423350122798" lon="10.232536949905697"><ele>1075.0</ele><time>2026-05-02T09:53:21.999Z</time></trkpt><trkpt lat="44.06426419873631" lon="10.232400089501363"><ele>1082.3333333333333</ele><time>2026-05-02T09:53:22.999Z</time></trkpt><trkpt lat="44.06429988181254" lon="10.232263047815817"><ele>1089.6666666666667</ele><time>2026-05-02T09:53:24.066Z</time></trkpt><trkpt lat="44.06433157379201" lon="10.2321389022614"><ele>1097.0</ele><time>2026-05-02T09:53:25.051Z</time></trkpt><trkpt lat="44.06469098292035" lon="10.2304320639279"><ele>1122.3333333333335</ele><time>2026-05-02T09:53:39.783Z</time></trkpt><trkpt lat="44.06473289092353" lon="10.23024605539496"><ele>1147.6666666666667</ele><time>2026-05-02T09:53:41.94Z</time></trkpt><trkpt lat="44.06478508521148" lon="10.230014305988275"><ele>1173.0</ele><time>2026-05-02T09:53:44.725Z</time></trkpt><trkpt lat="44.06535856963613" lon="10.224760130020092"><ele>1154.3333333333333</ele><time>2026-05-02T09:54:18.999Z</time></trkpt><trkpt lat="44.065444422692686" lon="10.224873516809058"><ele>1135.6666666666667</ele><time>2026-05-02T09:54:19.999Z</time></trkpt><trkpt lat="44.06552261604697" lon="10.224906715313574"><ele>1117.0</ele><time>2026-05-02T09:54:20.999Z</time></trkpt><trkpt lat="44.06560697229679" lon="10.224941223300403"><ele>1098.3333333333335</ele><time>2026-05-02T09:54:25.999Z</time></trkpt><trkpt lat="44.06556707595465" lon="10.224861976899602"><ele>1079.6666666666667</ele><time>2026-05-02T09:55:15Z</time></trkpt><trkpt lat="44.065505441587675" lon="10.224812467724309"><ele>1061.0</ele><time>2026-05-02T09:55:17Z</time></trkpt><trkpt lat="44.06551639698991" lon="10.224910634850673"><ele>1061.0</ele><time>2026-05-02T09:55:20Z</time></trkpt><trkpt lat="44.06561299348031" lon="10.224926234877602"><ele>1061.0</ele><time>2026-05-02T09:55:22Z</time></trkpt><trkpt lat="44.065622663356606" lon="10.225017017442655"><ele>1061.0</ele><time>2026-05-02T09:55:43Z</time></trkpt><trkpt lat="44.065576246556454" lon="10.224936139073614"><ele>1061.0</ele><time>2026-05-02T10:00:40.999Z</time></trkpt><trkpt lat="44.06552948600031" lon="10.224847232482093"><ele>1061.0</ele><time>2026-05-02T10:00:42.999Z</time></trkpt><trkpt lat="44.065461669018426" lon="10.224762083395314"><ele>1061.0</ele><time>2026-05-02T10:00:45Z</time></trkpt><trkpt lat="44.06537069554843" lon="10.224707909500083"><ele>1068.0</ele><time>2026-05-02T10:00:47Z</time></trkpt><trkpt lat="44.06526234499599" lon="10.224695353055091"><ele>1075.0</ele><time>2026-05-02T10:00:49Z</time></trkpt><trkpt lat="44.065144495755355" lon="10.224667615144025"><ele>1082.0</ele><time>2026-05-02T10:00:51Z</time></trkpt><trkpt lat="44.06502492525254" lon="10.224622849857592"><ele>1089.0</ele><time>2026-05-02T10:00:53Z</time></trkpt><trkpt lat="44.06490560729094" lon="10.224570929946566"><ele>1089.0000000000002</ele><time>2026-05-02T10:00:55Z</time></trkpt><trkpt lat="44.064849275980436" lon="10.2245307627467"><ele>1089.0</ele><time>2026-05-02T10:00:56Z</time></trkpt><trkpt lat="44.06479722160509" lon="10.224478564545699"><ele>1089.0</ele><time>2026-05-02T10:00:57Z</time></trkpt><trkpt lat="44.06475242990247" lon="10.224415083931882"><ele>1089.0</ele><time>2026-05-02T10:00:58Z</time></trkpt><trkpt lat="44.06471684393485" lon="10.224338752102435"><ele>1089.0</ele><time>2026-05-02T10:00:59Z</time></trkpt><trkpt lat="44.06468724455552" lon="10.2242551082733"><ele>1089.0000000000002</ele><time>2026-05-02T10:01:00Z</time></trkpt><trkpt lat="44.06466575565813" lon="10.224163069305819"><ele>1089.0</ele><time>2026-05-02T10:01:01Z</time></trkpt><trkpt lat="44.064634969887585" lon="10.224070567492957"><ele>1083.1666666666667</ele><time>2026-05-02T10:01:02Z</time></trkpt><trkpt lat="44.064613704895514" lon="10.223969340144032"><ele>1077.3333333333333</ele><time>2026-05-02T10:01:03Z</time></trkpt><trkpt lat="44.0645923714021" lon="10.223866744516227"><ele>1071.5</ele><time>2026-05-02T10:01:04Z</time></trkpt><trkpt lat="44.06457036380936" lon="10.22376722187305"><ele>1065.6666666666665</ele><time>2026-05-02T10:01:05Z</time></trkpt><trkpt lat="44.06454565466642" lon="10.223670943511829"><ele>1059.8333333333333</ele><time>2026-05-02T10:01:06Z</time></trkpt><trkpt lat="44.06451508170791" lon="10.223575300937064"><ele>1054.0</ele><time>2026-05-02T10:01:07Z</time></trkpt><trkpt lat="44.06445467447648" lon="10.22343521013029"><ele>1054.0000000000002</ele><time>2026-05-02T10:01:08Z</time></trkpt><trkpt lat="44.064417850072225" lon="10.223360164025326"><ele>1054.0</ele><time>2026-05-02T10:01:09Z</time></trkpt><trkpt lat="44.06438155441067" lon="10.22327999959802"><ele>1054.0</ele><time>2026-05-02T10:01:10Z</time></trkpt><trkpt lat="44.06434323438445" lon="10.223200152527811"><ele>1054.0</ele><time>2026-05-02T10:01:11Z</time></trkpt><trkpt lat="44.06430234966828" lon="10.223117764088956"><ele>1054.0</ele><time>2026-05-02T10:01:12Z</time></trkpt><trkpt lat="44.064258341303436" lon="10.223034539875378"><ele>1054.0000000000002</ele><time>2026-05-02T10:01:13Z</time></trkpt><trkpt lat="44.064215374580705" lon="10.222948670234205"><ele>1054.0</ele><time>2026-05-02T10:01:14Z</time></trkpt><trkpt lat="44.064172758274076" lon="10.222862276371291"><ele>1050.4285714285716</ele><time>2026-05-02T10:01:15Z</time></trkpt><trkpt lat="44.064129865748285" lon="10.222777124143791"><ele>1046.857142857143</ele><time>2026-05-02T10:01:16Z</time></trkpt><trkpt lat="44.0640863093025" lon="10.222686440387726"><ele>1043.2857142857142</ele><time>2026-05-02T10:01:17Z</time></trkpt><trkpt lat="44.06404672441396" lon="10.222597906003726"><ele>1039.7142857142858</ele><time>2026-05-02T10:01:18Z</time></trkpt><trkpt lat="44.064007254772505" lon="10.222512821700194"><ele>1036.142857142857</ele><time>2026-05-02T10:01:19Z</time></trkpt><trkpt lat="44.063973094872395" lon="10.222427835123648"><ele>1032.5714285714287</ele><time>2026-05-02T10:01:20Z</time></trkpt><trkpt lat="44.06393553195683" lon="10.222347138356557"><ele>1029.0</ele><time>2026-05-02T10:01:21Z</time></trkpt><trkpt lat="44.06389558882379" lon="10.22226736855831"><ele>1024.0</ele><time>2026-05-02T10:01:22Z</time></trkpt><trkpt lat="44.063861637766976" lon="10.222177793675439"><ele>1019.0</ele><time>2026-05-02T10:01:23Z</time></trkpt><trkpt lat="44.063824138897424" lon="10.22209341887838"><ele>1014.0</ele><time>2026-05-02T10:01:24Z</time></trkpt><trkpt lat="44.06378756007958" lon="10.222011181039152"><ele>1009.0</ele><time>2026-05-02T10:01:25Z</time></trkpt><trkpt lat="44.063748404615666" lon="10.221940071624681"><ele>1004.0</ele><time>2026-05-02T10:01:26Z</time></trkpt><trkpt lat="44.06371621898342" lon="10.221852299370989"><ele>999.0</ele><time>2026-05-02T10:01:27Z</time></trkpt><trkpt lat="44.06366082768682" lon="10.221783941540641"><ele>994.0</ele><time>2026-05-02T10:01:28Z</time></trkpt><trkpt lat="44.06358374726398" lon="10.22174308790792"><ele>993.9999999999999</ele><time>2026-05-02T10:01:29Z</time></trkpt><trkpt lat="44.063509501670026" lon="10.221726190794925"><ele>994.0</ele><time>2026-05-02T10:01:30Z</time></trkpt><trkpt lat="44.06343230267793" lon="10.221717312330012"><ele>994.0</ele><time>2026-05-02T10:01:31Z</time></trkpt><trkpt lat="44.06335344951585" lon="10.221723640308598"><ele>994.0</ele><time>2026-05-02T10:01:32Z</time></trkpt><trkpt lat="44.06326897986417" lon="10.22176413246743"><ele>993.9999999999999</ele><time>2026-05-02T10:01:33Z</time></trkpt><trkpt lat="44.06319627331754" lon="10.221848808191611"><ele>994.0</ele><time>2026-05-02T10:01:34Z</time></trkpt><trkpt lat="44.0631276685387" lon="10.221922921157567"><ele>996.6666666666666</ele><time>2026-05-02T10:01:35Z</time></trkpt><trkpt lat="44.063062645023955" lon="10.22199308410842"><ele>999.3333333333333</ele><time>2026-05-02T10:01:36Z</time></trkpt><trkpt lat="44.06298898641589" lon="10.22205840586389"><ele>1002.0</ele><time>2026-05-02T10:01:37Z</time></trkpt><trkpt lat="44.06291226074999" lon="10.2220896862388"><ele>1004.6666666666667</ele><time>2026-05-02T10:01:38Z</time></trkpt><trkpt lat="44.062839583014075" lon="10.2220942383067"><ele>1007.3333333333334</ele><time>2026-05-02T10:01:39Z</time></trkpt><trkpt lat="44.06276924259795" lon="10.222073523119523"><ele>1010.0</ele><time>2026-05-02T10:01:40Z</time></trkpt><trkpt lat="44.06271008811612" lon="10.222024733514678"><ele>1010.0000000000001</ele><time>2026-05-02T10:01:41Z</time></trkpt><trkpt lat="44.062649487738156" lon="10.221973116028114"><ele>1010.0</ele><time>2026-05-02T10:01:42Z</time></trkpt><trkpt lat="44.062613065817175" lon="10.221898138126877"><ele>1010.0</ele><time>2026-05-02T10:01:43Z</time></trkpt><trkpt lat="44.062602832073985" lon="10.221783679276866"><ele>1010.0</ele><time>2026-05-02T10:01:45Z</time></trkpt><trkpt lat="44.062580792347525" lon="10.221692722439675"><ele>1010.0000000000001</ele><time>2026-05-02T10:04:09.999Z</time></trkpt><trkpt lat="44.06255349347031" lon="10.221550916985704"><ele>1010.0</ele><time>2026-05-02T10:04:12.999Z</time></trkpt><trkpt lat="44.06254709230199" lon="10.221458067089019"><ele>1005.1666666666667</ele><time>2026-05-02T10:04:13.999Z</time></trkpt><trkpt lat="44.06254342941327" lon="10.221354200363589"><ele>1000.3333333333334</ele><time>2026-05-02T10:04:14.999Z</time></trkpt><trkpt lat="44.06252551742365" lon="10.221243442118842"><ele>995.5</ele><time>2026-05-02T10:04:15.999Z</time></trkpt><trkpt lat="44.06249150706274" lon="10.221141251170826"><ele>990.6666666666667</ele><time>2026-05-02T10:04:16.999Z</time></trkpt><trkpt lat="44.062449100280624" lon="10.22103407909349"><ele>985.8333333333334</ele><time>2026-05-02T10:04:17.999Z</time></trkpt><trkpt lat="44.0624042743621" lon="10.220922730127656"><ele>981.0</ele><time>2026-05-02T10:04:18.999Z</time></trkpt><trkpt lat="44.06237746120216" lon="10.220793496852249"><ele>997.5999999999999</ele><time>2026-05-02T10:04:19.999Z</time></trkpt><trkpt lat="44.06232669070866" lon="10.220669530075146"><ele>1014.1999999999999</ele><time>2026-05-02T10:04:20.999Z</time></trkpt><trkpt lat="44.062326993566636" lon="10.220517228528523"><ele>1030.8000000000002</ele><time>2026-05-02T10:04:21.999Z</time></trkpt><trkpt lat="44.06232002891637" lon="10.220365257529267"><ele>1047.4</ele><time>2026-05-02T10:04:22.999Z</time></trkpt><trkpt lat="44.062298299682034" lon="10.220205798997991"><ele>1064.0</ele><time>2026-05-02T10:04:23.999Z</time></trkpt><trkpt lat="44.06229378841201" lon="10.220033756925073"><ele>1066.0</ele><time>2026-05-02T10:04:24.999Z</time></trkpt><trkpt lat="44.06228971760448" lon="10.219853872409491"><ele>1068.0</ele><time>2026-05-02T10:04:25.999Z</time></trkpt><trkpt lat="44.062285547737794" lon="10.219673114517787"><ele>1070.0</ele><time>2026-05-02T10:04:26.999Z</time></trkpt><trkpt lat="44.06228347059471" lon="10.21949375988326"><ele>1072.0</ele><time>2026-05-02T10:04:27.999Z</time></trkpt><trkpt lat="44.06229490528116" lon="10.219321608724368"><ele>1072.0</ele><time>2026-05-02T10:04:28.999Z</time></trkpt><trkpt lat="44.06231441253303" lon="10.219151777432327"><ele>1072.0</ele><time>2026-05-02T10:04:29.999Z</time></trkpt><trkpt lat="44.062337792443614" lon="10.218984810238318"><ele>1072.0</ele><time>2026-05-02T10:04:30.999Z</time></trkpt><trkpt lat="44.062365476246924" lon="10.21882153322568"><ele>1072.0</ele><time>2026-05-02T10:04:31.999Z</time></trkpt><trkpt lat="44.06240606428573" lon="10.218663752513391"><ele>1053.0</ele><time>2026-05-02T10:04:32.999Z</time></trkpt><trkpt lat="44.06245827069997" lon="10.218517163028274"><ele>1034.0</ele><time>2026-05-02T10:04:33.999Z</time></trkpt><trkpt lat="44.06252288906766" lon="10.21838445051041"><ele>1015.0</ele><time>2026-05-02T10:04:34.999Z</time></trkpt><trkpt lat="44.062583902326104" lon="10.218262648854079"><ele>996.0</ele><time>2026-05-02T10:04:35.999Z</time></trkpt><trkpt lat="44.062668360278664" lon="10.218119309445937"><ele>996.0</ele><time>2026-05-02T10:04:36.999Z</time></trkpt><trkpt lat="44.06274450030655" lon="10.218008054841913"><ele>995.9999999999999</ele><time>2026-05-02T10:04:37.999Z</time></trkpt><trkpt lat="44.06277847548002" lon="10.217863718266548"><ele>995.9999999999999</ele><time>2026-05-02T10:04:38.999Z</time></trkpt><trkpt lat="44.06281461629476" lon="10.217715782986307"><ele>996.0</ele><time>2026-05-02T10:04:39.999Z</time></trkpt><trkpt lat="44.06282632316397" lon="10.217557271993348"><ele>996.0</ele><time>2026-05-02T10:04:40.999Z</time></trkpt><trkpt lat="44.06281731405465" lon="10.217405149662525"><ele>987.25</ele><time>2026-05-02T10:04:41.999Z</time></trkpt><trkpt lat="44.0628129982862" lon="10.217255720986818"><ele>978.5</ele><time>2026-05-02T10:04:42.999Z</time></trkpt><trkpt lat="44.06277497495582" lon="10.217116974652479"><ele>969.75</ele><time>2026-05-02T10:04:43.999Z</time></trkpt><trkpt lat="44.06271918127021" lon="10.21698071371146"><ele>961.0</ele><time>2026-05-02T10:04:44.999Z</time></trkpt><trkpt lat="44.06262643704551" lon="10.216827928916294"><ele>961.0</ele><time>2026-05-02T10:04:45.999Z</time></trkpt><trkpt lat="44.06252076158018" lon="10.216715477903703"><ele>961.0</ele><time>2026-05-02T10:04:46.999Z</time></trkpt><trkpt lat="44.062423713333786" lon="10.216646618123718"><ele>961.0</ele><time>2026-05-02T10:04:47.999Z</time></trkpt><trkpt lat="44.06229292009939" lon="10.216602250337154"><ele>961.0</ele><time>2026-05-02T10:04:48.999Z</time></trkpt><trkpt lat="44.06216702580475" lon="10.216554397578916"><ele>958.0</ele><time>2026-05-02T10:04:49.999Z</time></trkpt><trkpt lat="44.06204933579339" lon="10.216581512420593"><ele>955.0</ele><time>2026-05-02T10:04:50.999Z</time></trkpt><trkpt lat="44.06195438968528" lon="10.216632488449699"><ele>952.0</ele><time>2026-05-02T10:04:51.999Z</time></trkpt><trkpt lat="44.06183547441268" lon="10.21669847960682"><ele>949.0</ele><time>2026-05-02T10:04:52.999Z</time></trkpt><trkpt lat="44.06169492556681" lon="10.21683908672151"><ele>944.0</ele><time>2026-05-02T10:04:53.999Z</time></trkpt><trkpt lat="44.06158841265668" lon="10.216990044453956"><ele>939.0</ele><time>2026-05-02T10:04:54.998Z</time></trkpt><trkpt lat="44.06148226244436" lon="10.217105812828457"><ele>934.0</ele><time>2026-05-02T10:04:55.998Z</time></trkpt><trkpt lat="44.061367315245505" lon="10.217186234760758"><ele>929.0</ele><time>2026-05-02T10:04:56.998Z</time></trkpt><trkpt lat="44.061238077249044" lon="10.217219313125113"><ele>929.0</ele><time>2026-05-02T10:04:57.998Z</time></trkpt><trkpt lat="44.06109920449447" lon="10.217229364510635"><ele>929.0</ele><time>2026-05-02T10:04:58.998Z</time></trkpt><trkpt lat="44.06096508344856" lon="10.217243059207645"><ele>929.0</ele><time>2026-05-02T10:04:59.998Z</time></trkpt><trkpt lat="44.060824091378336" lon="10.217254374842351"><ele>929.0</ele><time>2026-05-02T10:05:00.998Z</time></trkpt><trkpt lat="44.06068461314618" lon="10.217273855610339"><ele>930.25</ele><time>2026-05-02T10:05:01.998Z</time></trkpt><trkpt lat="44.060545309256334" lon="10.217298876095462"><ele>931.5</ele><time>2026-05-02T10:05:02.999Z</time></trkpt><trkpt lat="44.06041495633799" lon="10.217312930901787"><ele>932.75</ele><time>2026-05-02T10:05:03.999Z</time></trkpt><trkpt lat="44.06028845377012" lon="10.217295565686204"><ele>934.0</ele><time>2026-05-02T10:05:04.999Z</time></trkpt><trkpt lat="44.06017170879335" lon="10.217221626215686"><ele>934.0</ele><time>2026-05-02T10:05:05.999Z</time></trkpt><trkpt lat="44.0600747531447" lon="10.217100029694624"><ele>934.0</ele><time>2026-05-02T10:05:06.999Z</time></trkpt><trkpt lat="44.059993482587466" lon="10.216952146019883"><ele>934.0</ele><time>2026-05-02T10:05:07.999Z</time></trkpt><trkpt lat="44.05991443805674" lon="10.216812165921834"><ele>934.0</ele><time>2026-05-02T10:05:08.999Z</time></trkpt><trkpt lat="44.05982146123197" lon="10.216690710724391"><ele>935.0</ele><time>2026-05-02T10:05:09.999Z</time></trkpt><trkpt lat="44.059707453932226" lon="10.216609501805912"><ele>936.0</ele><time>2026-05-02T10:05:10.999Z</time></trkpt><trkpt lat="44.05958503027503" lon="10.21657453531337"><ele>937.0</ele><time>2026-05-02T10:05:11.999Z</time></trkpt><trkpt lat="44.05945993941382" lon="10.21658524148951"><ele>938.0</ele><time>2026-05-02T10:05:12.999Z</time></trkpt><trkpt lat="44.059333487009354" lon="10.216618355107704"><ele>938.0</ele><time>2026-05-02T10:05:13.999Z</time></trkpt><trkpt lat="44.05920117731132" lon="10.216656149260908"><ele>938.0</ele><time>2026-05-02T10:05:14.999Z</time></trkpt><trkpt lat="44.05907640873707" lon="10.216681207742312"><ele>938.0</ele><time>2026-05-02T10:05:15.999Z</time></trkpt><trkpt lat="44.05895882940991" lon="10.216686865302457"><ele>938.0</ele><time>2026-05-02T10:05:16.999Z</time></trkpt><trkpt lat="44.05884314285356" lon="10.216669121266664"><ele>939.5</ele><time>2026-05-02T10:05:17.999Z</time></trkpt><trkpt lat="44.058734018862076" lon="10.216618555980311"><ele>941.0</ele><time>2026-05-02T10:05:18.999Z</time></trkpt><trkpt lat="44.05864931287791" lon="10.216509597941853"><ele>942.5</ele><time>2026-05-02T10:05:19.999Z</time></trkpt><trkpt lat="44.05856310564545" lon="10.216396109363476"><ele>944.0</ele><time>2026-05-02T10:05:20.999Z</time></trkpt><trkpt lat="44.058498636309544" lon="10.216245704216892"><ele>944.0</ele><time>2026-05-02T10:05:21.999Z</time></trkpt><trkpt lat="44.05844481522268" lon="10.216098007880683"><ele>944.0000000000001</ele><time>2026-05-02T10:05:22.999Z</time></trkpt><trkpt lat="44.05840431848948" lon="10.215949007446783"><ele>944.0000000000001</ele><time>2026-05-02T10:05:23.999Z</time></trkpt><trkpt lat="44.05839342347352" lon="10.215803675373836"><ele>944.0</ele><time>2026-05-02T10:05:24.999Z</time></trkpt><trkpt lat="44.05841259004132" lon="10.21566304941914"><ele>944.0</ele><time>2026-05-02T10:05:25.999Z</time></trkpt><trkpt lat="44.05844793259733" lon="10.215526574525233"><ele>941.4000000000001</ele><time>2026-05-02T10:05:26.999Z</time></trkpt><trkpt lat="44.058490723772344" lon="10.215396252782927"><ele>938.8000000000001</ele><time>2026-05-02T10:05:27.999Z</time></trkpt><trkpt lat="44.05852490411937" lon="10.215260135124556"><ele>936.1999999999999</ele><time>2026-05-02T10:05:28.999Z</time></trkpt><trkpt lat="44.05853204752069" lon="10.215115683089776"><ele>933.5999999999999</ele><time>2026-05-02T10:05:29.999Z</time></trkpt><trkpt lat="44.05851289573656" lon="10.214976699051194"><ele>931.0</ele><time>2026-05-02T10:05:30.999Z</time></trkpt><trkpt lat="44.05847049923561" lon="10.214845699711125"><ele>929.0</ele><time>2026-05-02T10:05:31.999Z</time></trkpt><trkpt lat="44.05841699407703" lon="10.214723442328918"><ele>926.9999999999999</ele><time>2026-05-02T10:05:32.999Z</time></trkpt><trkpt lat="44.058359264849635" lon="10.214600435289316"><ele>924.9999999999999</ele><time>2026-05-02T10:05:33.999Z</time></trkpt><trkpt lat="44.058309519765565" lon="10.214461783111497"><ele>923.0</ele><time>2026-05-02T10:05:34.999Z</time></trkpt><trkpt lat="44.058269542505286" lon="10.214315193044197"><ele>921.0</ele><time>2026-05-02T10:05:35.999Z</time></trkpt><trkpt lat="44.058230617506325" lon="10.214167806165483"><ele>928.5</ele><time>2026-05-02T10:05:36.999Z</time></trkpt><trkpt lat="44.058191573524546" lon="10.214009375294493"><ele>936.0</ele><time>2026-05-02T10:05:37.999Z</time></trkpt><trkpt lat="44.05815599270604" lon="10.21384498642578"><ele>943.5</ele><time>2026-05-02T10:05:38.999Z</time></trkpt><trkpt lat="44.05812129968103" lon="10.213677564614619"><ele>951.0</ele><time>2026-05-02T10:05:39.999Z</time></trkpt><trkpt lat="44.0580848238882" lon="10.213507003570978"><ele>951.0</ele><time>2026-05-02T10:05:40.999Z</time></trkpt><trkpt lat="44.05804694991903" lon="10.213331904377736"><ele>951.0</ele><time>2026-05-02T10:05:41.999Z</time></trkpt><trkpt lat="44.05800703736883" lon="10.213142293101653"><ele>951.0</ele><time>2026-05-02T10:05:43.048Z</time></trkpt><trkpt lat="44.057968463925405" lon="10.212961793983446"><ele>951.0</ele><time>2026-05-02T10:05:44.04Z</time></trkpt><trkpt lat="44.05770727767076" lon="10.21234710061516"><ele>937.75</ele><time>2026-05-02T10:05:47.999Z</time></trkpt><trkpt lat="44.057662373360685" lon="10.212181170254157"><ele>924.5</ele><time>2026-05-02T10:05:48.999Z</time></trkpt><trkpt lat="44.05768879972964" lon="10.211958549011209"><ele>911.25</ele><time>2026-05-02T10:05:49.999Z</time></trkpt><trkpt lat="44.05766577359807" lon="10.21179031897966"><ele>898.0</ele><time>2026-05-02T10:05:50.999Z</time></trkpt><trkpt lat="44.057629030219374" lon="10.211635853858438"><ele>893.25</ele><time>2026-05-02T10:05:51.999Z</time></trkpt><trkpt lat="44.0575835176251" lon="10.211476384263333"><ele>888.5</ele><time>2026-05-02T10:05:52.999Z</time></trkpt><trkpt lat="44.057501946774835" lon="10.211333509756122"><ele>883.75</ele><time>2026-05-02T10:05:53.999Z</time></trkpt><trkpt lat="44.05740485554853" lon="10.21122362836743"><ele>879.0</ele><time>2026-05-02T10:05:54.999Z</time></trkpt><trkpt lat="44.0573248776636" lon="10.211103858194962"><ele>875.75</ele><time>2026-05-02T10:05:55.999Z</time></trkpt><trkpt lat="44.057266533071335" lon="10.210966891558652"><ele>872.5</ele><time>2026-05-02T10:05:56.999Z</time></trkpt><trkpt lat="44.05724061468345" lon="10.210815321308758"><ele>869.25</ele><time>2026-05-02T10:05:57.999Z</time></trkpt><trkpt lat="44.057214465110775" lon="10.210653374381742"><ele>866.0</ele><time>2026-05-02T10:05:58.999Z</time></trkpt><trkpt lat="44.057190374757866" lon="10.210489787185157"><ele>866.0</ele><time>2026-05-02T10:05:59.999Z</time></trkpt><trkpt lat="44.05715220243745" lon="10.210340192847001"><ele>865.9999999999999</ele><time>2026-05-02T10:06:00.999Z</time></trkpt><trkpt lat="44.057147053931594" lon="10.21019295560216"><ele>865.9999999999999</ele><time>2026-05-02T10:06:01.999Z</time></trkpt><trkpt lat="44.057125763140185" lon="10.210051788753981"><ele>866.0</ele><time>2026-05-02T10:06:02.999Z</time></trkpt><trkpt lat="44.05709269294337" lon="10.209917965629444"><ele>866.0</ele><time>2026-05-02T10:06:03.999Z</time></trkpt><trkpt lat="44.05707522093622" lon="10.209789014811426"><ele>866.0</ele><time>2026-05-02T10:06:04.999Z</time></trkpt><trkpt lat="44.05705441759036" lon="10.20965712527298"><ele>865.9999999999999</ele><time>2026-05-02T10:06:05.999Z</time></trkpt><trkpt lat="44.05703511504612" lon="10.209523866136948"><ele>865.9999999999999</ele><time>2026-05-02T10:06:06.999Z</time></trkpt><trkpt lat="44.057016779468725" lon="10.209384031750625"><ele>866.0</ele><time>2026-05-02T10:06:07.999Z</time></trkpt><trkpt lat="44.057005928955014" lon="10.209237735075533"><ele>866.0</ele><time>2026-05-02T10:06:08.999Z</time></trkpt><trkpt lat="44.05700701054413" lon="10.209085909306216"><ele>868.3333333333334</ele><time>2026-05-02T10:06:09.999Z</time></trkpt><trkpt lat="44.057021329474146" lon="10.208923355968048"><ele>870.6666666666667</ele><time>2026-05-02T10:06:11.044Z</time></trkpt><trkpt lat="44.05704188915517" lon="10.208767370248333"><ele>873.0</ele><time>2026-05-02T10:06:12.043Z</time></trkpt><trkpt lat="44.05748592461465" lon="10.207926332946375"><ele>873.0</ele><time>2026-05-02T10:06:19.032Z</time></trkpt><trkpt lat="44.057582951473464" lon="10.207963119152135"><ele>873.0</ele><time>2026-05-02T10:06:20.03Z</time></trkpt><trkpt lat="44.05765541977693" lon="10.207996629634213"><ele>873.0</ele><time>2026-05-02T10:06:21.032Z</time></trkpt><trkpt lat="44.05770742589436" lon="10.207943603308681"><ele>873.0</ele><time>2026-05-02T10:06:21.999Z</time></trkpt><trkpt lat="44.05776140872992" lon="10.207871385701429"><ele>873.0</ele><time>2026-05-02T10:06:22.999Z</time></trkpt><trkpt lat="44.05780391087304" lon="10.207796834988715"><ele>873.0</ele><time>2026-05-02T10:06:23.999Z</time></trkpt><trkpt lat="44.05783495564795" lon="10.207702322058598"><ele>873.0</ele><time>2026-05-02T10:06:24.999Z</time></trkpt><trkpt lat="44.05784675495863" lon="10.207590992124896"><ele>873.0</ele><time>2026-05-02T10:06:25.999Z</time></trkpt><trkpt lat="44.05781795233635" lon="10.20747155684865"><ele>873.0</ele><time>2026-05-02T10:06:26.999Z</time></trkpt><trkpt lat="44.05785296435628" lon="10.207365431974115"><ele>873.0</ele><time>2026-05-02T10:06:27.999Z</time></trkpt><trkpt lat="44.057825178150644" lon="10.207256197569771"><ele>873.0</ele><time>2026-05-02T10:06:28.999Z</time></trkpt><trkpt lat="44.05781125074835" lon="10.20715306524245"><ele>873.0</ele><time>2026-05-02T10:06:29.999Z</time></trkpt><trkpt lat="44.05779396263531" lon="10.207055353161305"><ele>870.8333333333334</ele><time>2026-05-02T10:06:30.999Z</time></trkpt><trkpt lat="44.05777230167644" lon="10.206965093734771"><ele>868.6666666666667</ele><time>2026-05-02T10:06:31.999Z</time></trkpt><trkpt lat="44.05774704841455" lon="10.206805119735483"><ele>866.5</ele><time>2026-05-02T10:06:33.999Z</time></trkpt><trkpt lat="44.057724379785846" lon="10.206681338418592"><ele>864.3333333333334</ele><time>2026-05-02T10:06:35.999Z</time></trkpt><trkpt lat="44.05768375825541" lon="10.206577216083117"><ele>862.1666666666667</ele><time>2026-05-02T10:06:37.999Z</time></trkpt><trkpt lat="44.05762378035974" lon="10.206539558757088"><ele>860.0</ele><time>2026-05-02T10:06:39.999Z</time></trkpt><trkpt lat="44.057594974675986" lon="10.20662298730172"><ele>860.0000000000001</ele><time>2026-05-02T10:06:50.999Z</time></trkpt><trkpt lat="44.05754307639314" lon="10.206689899762667"><ele>860.0</ele><time>2026-05-02T10:06:53.999Z</time></trkpt><trkpt lat="44.05761485640805" lon="10.206730468206473"><ele>860.0</ele><time>2026-05-02T10:07:17.999Z</time></trkpt><trkpt lat="44.057720427894644" lon="10.206717674849559"><ele>860.0</ele><time>2026-05-02T10:07:22.999Z</time></trkpt><trkpt lat="44.05777661785077" lon="10.206649228825304"><ele>860.0000000000001</ele><time>2026-05-02T10:07:25.999Z</time></trkpt><trkpt lat="44.057757613640035" lon="10.206558579873453"><ele>860.0</ele><time>2026-05-02T10:08:12.999Z</time></trkpt><trkpt lat="44.05769490422892" lon="10.206443518838478"><ele>858.6</ele><time>2026-05-02T10:08:15.999Z</time></trkpt><trkpt lat="44.05762762541612" lon="10.206234368612119"><ele>857.2</ele><time>2026-05-02T10:08:17.999Z</time></trkpt><trkpt lat="44.05759870901075" lon="10.206120655499786"><ele>855.8</ele><time>2026-05-02T10:08:18.999Z</time></trkpt><trkpt lat="44.057571012478" lon="10.205995193928477"><ele>854.4</ele><time>2026-05-02T10:08:19.999Z</time></trkpt><trkpt lat="44.05754864069617" lon="10.205858944467225"><ele>853.0</ele><time>2026-05-02T10:08:20.999Z</time></trkpt><trkpt lat="44.057533300834244" lon="10.205708083345385"><ele>850.75</ele><time>2026-05-02T10:08:21.999Z</time></trkpt><trkpt lat="44.05753088752309" lon="10.205547555178999"><ele>848.5</ele><time>2026-05-02T10:08:22.999Z</time></trkpt><trkpt lat="44.05753624659769" lon="10.205383380210172"><ele>846.25</ele><time>2026-05-02T10:08:23.999Z</time></trkpt><trkpt lat="44.05754385633721" lon="10.205216654103126"><ele>844.0</ele><time>2026-05-02T10:08:24.999Z</time></trkpt><trkpt lat="44.05755377461632" lon="10.205053355175606"><ele>844.0</ele><time>2026-05-02T10:08:25.999Z</time></trkpt><trkpt lat="44.05756030095879" lon="10.204882918503344"><ele>844.0</ele><time>2026-05-02T10:08:26.999Z</time></trkpt><trkpt lat="44.057567081077586" lon="10.204710244880882"><ele>844.0</ele><time>2026-05-02T10:08:27.999Z</time></trkpt><trkpt lat="44.05757708308801" lon="10.204536399833806"><ele>844.0</ele><time>2026-05-02T10:08:28.999Z</time></trkpt><trkpt lat="44.05758692894989" lon="10.204359156736553"><ele>842.75</ele><time>2026-05-02T10:08:29.999Z</time></trkpt><trkpt lat="44.05759214405407" lon="10.204181348530886"><ele>841.5</ele><time>2026-05-02T10:08:30.999Z</time></trkpt><trkpt lat="44.05759622112889" lon="10.203996975695194"><ele>840.25</ele><time>2026-05-02T10:08:31.999Z</time></trkpt><trkpt lat="44.057604174916975" lon="10.203815097425515"><ele>839.0</ele><time>2026-05-02T10:08:32.999Z</time></trkpt><trkpt lat="44.057615758480296" lon="10.203638499552293"><ele>837.75</ele><time>2026-05-02T10:08:33.999Z</time></trkpt><trkpt lat="44.05762595690918" lon="10.203470942420937"><ele>836.5</ele><time>2026-05-02T10:08:34.999Z</time></trkpt><trkpt lat="44.05763086339919" lon="10.203302043148238"><ele>835.25</ele><time>2026-05-02T10:08:35.999Z</time></trkpt><trkpt lat="44.05763060692254" lon="10.203136819004781"><ele>834.0</ele><time>2026-05-02T10:08:36.999Z</time></trkpt><trkpt lat="44.057628678446555" lon="10.202976584259394"><ele>833.2</ele><time>2026-05-02T10:08:37.999Z</time></trkpt><trkpt lat="44.05761848437537" lon="10.20282661742255"><ele>832.4000000000001</ele><time>2026-05-02T10:08:38.999Z</time></trkpt><trkpt lat="44.05759222148378" lon="10.202679896932837"><ele>831.6</ele><time>2026-05-02T10:08:39.999Z</time></trkpt><trkpt lat="44.05756638198603" lon="10.202542322483456"><ele>830.8</ele><time>2026-05-02T10:08:40.999Z</time></trkpt><trkpt lat="44.05755257949067" lon="10.202426765513025"><ele>830.0</ele><time>2026-05-02T10:08:41.999Z</time></trkpt><trkpt lat="44.05755440232711" lon="10.20231919812725"><ele>829.1666666666667</ele><time>2026-05-02T10:08:42.999Z</time></trkpt><trkpt lat="44.05757262535211" lon="10.2022147464733"><ele>828.3333333333334</ele><time>2026-05-02T10:08:43.999Z</time></trkpt><trkpt lat="44.057595435506855" lon="10.202108121882471"><ele>827.5</ele><time>2026-05-02T10:08:44.999Z</time></trkpt><trkpt lat="44.05761960513498" lon="10.20201141448076"><ele>826.6666666666667</ele><time>2026-05-02T10:08:45.999Z</time></trkpt><trkpt lat="44.057649773032736" lon="10.201914692262523"><ele>825.8333333333334</ele><time>2026-05-02T10:08:46.999Z</time></trkpt><trkpt lat="44.057670559432474" lon="10.201822841970131"><ele>825.0</ele><time>2026-05-02T10:08:47.999Z</time></trkpt><trkpt lat="44.057654759684766" lon="10.201672664211777"><ele>825.0</ele><time>2026-05-02T10:08:49.999Z</time></trkpt><trkpt lat="44.05755791596384" lon="10.20163242871563"><ele>825.0</ele><time>2026-05-02T10:08:51.999Z</time></trkpt><trkpt lat="44.05748874417744" lon="10.201702079219826"><ele>825.0</ele><time>2026-05-02T10:08:53.999Z</time></trkpt><trkpt lat="44.05746255201024" lon="10.201808120155373"><ele>825.0</ele><time>2026-05-02T10:08:56.999Z</time></trkpt><trkpt lat="44.05747435773985" lon="10.201933046265387"><ele>825.0</ele><time>2026-05-02T10:09:15Z</time></trkpt><trkpt lat="44.05746301978868" lon="10.202090879523565"><ele>825.0</ele><time>2026-05-02T10:09:17Z</time></trkpt><trkpt lat="44.057454365642414" lon="10.20220066030183"><ele>825.0</ele><time>2026-05-02T10:09:18Z</time></trkpt><trkpt lat="44.05744541590466" lon="10.202327433114613"><ele>825.0</ele><time>2026-05-02T10:09:19Z</time></trkpt><trkpt lat="44.05743849987572" lon="10.202473490143571"><ele>825.0</ele><time>2026-05-02T10:09:20Z</time></trkpt><trkpt lat="44.05743639252395" lon="10.20263311827644"><ele>825.0</ele><time>2026-05-02T10:09:21Z</time></trkpt><trkpt lat="44.05743093218458" lon="10.202806365878127"><ele>807.0</ele><time>2026-05-02T10:09:22Z</time></trkpt><trkpt lat="44.05741863915652" lon="10.202989913390915"><ele>789.0</ele><time>2026-05-02T10:09:23Z</time></trkpt><trkpt lat="44.057397270923076" lon="10.203226876339262"><ele>771.0</ele><time>2026-05-02T10:09:24Z</time></trkpt><trkpt lat="44.05736476999059" lon="10.203490149979137"><ele>771.0</ele><time>2026-05-02T10:09:25Z</time></trkpt><trkpt lat="44.05732388282117" lon="10.203753340919508"><ele>771.0</ele><time>2026-05-02T10:09:26Z</time></trkpt><trkpt lat="44.05728339031874" lon="10.203981353288553"><ele>771.0</ele><time>2026-05-02T10:09:27Z</time></trkpt><trkpt lat="44.057248736020114" lon="10.20418275882126"><ele>772.25</ele><time>2026-05-02T10:09:28Z</time></trkpt><trkpt lat="44.05722230386426" lon="10.204373789699442"><ele>773.5</ele><time>2026-05-02T10:09:29Z</time></trkpt><trkpt lat="44.05719876497611" lon="10.204561804513485"><ele>774.75</ele><time>2026-05-02T10:09:30Z</time></trkpt><trkpt lat="44.05713402307527" lon="10.204724512930746"><ele>776.0</ele><time>2026-05-02T10:09:31Z</time></trkpt><trkpt lat="44.05707374341652" lon="10.204902659789548"><ele>780.6666666666667</ele><time>2026-05-02T10:09:32Z</time></trkpt><trkpt lat="44.05700730077523" lon="10.205073811549942"><ele>785.3333333333333</ele><time>2026-05-02T10:09:33Z</time></trkpt><trkpt lat="44.056973698226656" lon="10.205286451645222"><ele>790.0</ele><time>2026-05-02T10:09:34Z</time></trkpt><trkpt lat="44.056952790624806" lon="10.20550009547766"><ele>794.75</ele><time>2026-05-02T10:09:35Z</time></trkpt><trkpt lat="44.0569238651674" lon="10.205693335390638"><ele>799.5</ele><time>2026-05-02T10:09:36Z</time></trkpt><trkpt lat="44.05689668881575" lon="10.205861810221364"><ele>804.25</ele><time>2026-05-02T10:09:37Z</time></trkpt><trkpt lat="44.056857193642216" lon="10.205993842001606"><ele>809.0</ele><time>2026-05-02T10:09:38Z</time></trkpt><trkpt lat="44.056816978779814" lon="10.206101421187956"><ele>809.0</ele><time>2026-05-02T10:09:39Z</time></trkpt><trkpt lat="44.05676906709146" lon="10.206167398775115"><ele>809.0</ele><time>2026-05-02T10:09:40Z</time></trkpt><trkpt lat="44.056684010635536" lon="10.206185038553956"><ele>809.0</ele><time>2026-05-02T10:09:42Z</time></trkpt><trkpt lat="44.056676470828364" lon="10.206028890825976"><ele>809.0</ele><time>2026-05-02T10:09:44Z</time></trkpt><trkpt lat="44.056810030538585" lon="10.205844311566233"><ele>809.0</ele><time>2026-05-02T10:09:46Z</time></trkpt><trkpt lat="44.05685494219764" lon="10.20566869484713"><ele>809.0</ele><time>2026-05-02T10:09:47Z</time></trkpt><trkpt lat="44.056857159729184" lon="10.205439001449767"><ele>809.0</ele><time>2026-05-02T10:09:48Z</time></trkpt><trkpt lat="44.05686728367261" lon="10.205185320869102"><ele>802.6666666666667</ele><time>2026-05-02T10:09:49Z</time></trkpt><trkpt lat="44.05690805698456" lon="10.20491455346905"><ele>796.3333333333333</ele><time>2026-05-02T10:09:50Z</time></trkpt><trkpt lat="44.05691834925607" lon="10.204624430174704"><ele>790.0</ele><time>2026-05-02T10:09:51Z</time></trkpt><trkpt lat="44.05694503658295" lon="10.20432905456537"><ele>785.3333333333333</ele><time>2026-05-02T10:09:52Z</time></trkpt><trkpt lat="44.056963819436326" lon="10.204024738603774"><ele>780.6666666666667</ele><time>2026-05-02T10:09:53Z</time></trkpt><trkpt lat="44.05697585272038" lon="10.203717163914506"><ele>776.0</ele><time>2026-05-02T10:09:54Z</time></trkpt><trkpt lat="44.057001325326624" lon="10.203412254614928"><ele>772.3333333333334</ele><time>2026-05-02T10:09:55Z</time></trkpt><trkpt lat="44.0570076475806" lon="10.203104235944874"><ele>768.6666666666667</ele><time>2026-05-02T10:09:56Z</time></trkpt><trkpt lat="44.05698854925881" lon="10.202811895026752"><ele>765.0</ele><time>2026-05-02T10:09:57Z</time></trkpt><trkpt lat="44.05697445316432" lon="10.202532396107877"><ele>764.0</ele><time>2026-05-02T10:09:58Z</time></trkpt><trkpt lat="44.05698806609692" lon="10.202261458837281"><ele>763.0</ele><time>2026-05-02T10:09:59Z</time></trkpt><trkpt lat="44.05698756130376" lon="10.201993352576274"><ele>762.0</ele><time>2026-05-02T10:10:00Z</time></trkpt><trkpt lat="44.05700934495787" lon="10.201714927101248"><ele>761.0</ele><time>2026-05-02T10:10:01Z</time></trkpt><trkpt lat="44.05703229254855" lon="10.20146555048478"><ele>760.0</ele><time>2026-05-02T10:10:02Z</time></trkpt><trkpt lat="44.05703394111506" lon="10.201218043590902"><ele>759.0</ele><time>2026-05-02T10:10:03Z</time></trkpt><trkpt lat="44.057007982640485" lon="10.200978772223824"><ele>759.0</ele><time>2026-05-02T10:10:04Z</time></trkpt><trkpt lat="44.05696391304103" lon="10.200748551600022"><ele>759.0</ele><time>2026-05-02T10:10:05Z</time></trkpt><trkpt lat="44.056928454937804" lon="10.20051994888092"><ele>759.0</ele><time>2026-05-02T10:10:06Z</time></trkpt><trkpt lat="44.0569435629217" lon="10.200299152761584"><ele>759.25</ele><time>2026-05-02T10:10:07Z</time></trkpt><trkpt lat="44.056941329719095" lon="10.20008839395706"><ele>759.5</ele><time>2026-05-02T10:10:08Z</time></trkpt><trkpt lat="44.056959096579064" lon="10.199903096315833"><ele>759.75</ele><time>2026-05-02T10:10:09Z</time></trkpt><trkpt lat="44.05695954450021" lon="10.199754049167076"><ele>760.0</ele><time>2026-05-02T10:10:10Z</time></trkpt><trkpt lat="44.05692149549165" lon="10.199647418282842"><ele>760.0</ele><time>2026-05-02T10:10:11Z</time></trkpt><trkpt lat="44.05683909378886" lon="10.199604294463459"><ele>760.0</ele><time>2026-05-02T10:10:12Z</time></trkpt><trkpt lat="44.05674941382584" lon="10.19961765500779"><ele>760.0</ele><time>2026-05-02T10:10:13Z</time></trkpt><trkpt lat="44.056696779021635" lon="10.199750711014458"><ele>760.0</ele><time>2026-05-02T10:10:14Z</time></trkpt><trkpt lat="44.05670381810777" lon="10.199947641918898"><ele>760.0</ele><time>2026-05-02T10:10:15Z</time></trkpt><trkpt lat="44.056741033897325" lon="10.200125712580014"><ele>760.0</ele><time>2026-05-02T10:10:16Z</time></trkpt><trkpt lat="44.056766953964384" lon="10.200330100925445"><ele>760.0</ele><time>2026-05-02T10:10:17Z</time></trkpt><trkpt lat="44.056789845433784" lon="10.200541353882093"><ele>760.0</ele><time>2026-05-02T10:10:18Z</time></trkpt><trkpt lat="44.056808731064855" lon="10.200761552753903"><ele>759.6666666666667</ele><time>2026-05-02T10:10:19Z</time></trkpt><trkpt lat="44.05682007060361" lon="10.20098189868651"><ele>759.3333333333334</ele><time>2026-05-02T10:10:20Z</time></trkpt><trkpt lat="44.056812780724314" lon="10.20120530027344"><ele>759.0</ele><time>2026-05-02T10:10:21Z</time></trkpt><trkpt lat="44.05677721069489" lon="10.201439361507191"><ele>760.0</ele><time>2026-05-02T10:10:22Z</time></trkpt><trkpt lat="44.056731188338595" lon="10.201676080265646"><ele>761.0</ele><time>2026-05-02T10:10:23Z</time></trkpt><trkpt lat="44.05668896615347" lon="10.201929596784698"><ele>762.0</ele><time>2026-05-02T10:10:24Z</time></trkpt><trkpt lat="44.0566482620333" lon="10.202186586335845"><ele>745.3333333333334</ele><time>2026-05-02T10:10:25Z</time></trkpt><trkpt lat="44.05660466486519" lon="10.202448595507214"><ele>728.6666666666667</ele><time>2026-05-02T10:10:26Z</time></trkpt><trkpt lat="44.05656494931001" lon="10.20271288029481"><ele>712.0</ele><time>2026-05-02T10:10:27Z</time></trkpt><trkpt lat="44.0565242486962" lon="10.202977690432736"><ele>714.6666666666667</ele><time>2026-05-02T10:10:28Z</time></trkpt><trkpt lat="44.05648169147705" lon="10.203242755313758"><ele>717.3333333333334</ele><time>2026-05-02T10:10:29Z</time></trkpt><trkpt lat="44.05644380338687" lon="10.203492773907852"><ele>720.0</ele><time>2026-05-02T10:10:30Z</time></trkpt><trkpt lat="44.056407622345276" lon="10.203734937414518"><ele>720.0</ele><time>2026-05-02T10:10:31Z</time></trkpt><trkpt lat="44.056372515548674" lon="10.203969753775217"><ele>720.0</ele><time>2026-05-02T10:10:32Z</time></trkpt><trkpt lat="44.05633754365892" lon="10.204191173436111"><ele>720.0</ele><time>2026-05-02T10:10:33Z</time></trkpt><trkpt lat="44.056303829077095" lon="10.204395640046526"><ele>723.75</ele><time>2026-05-02T10:10:34Z</time></trkpt><trkpt lat="44.056273949306494" lon="10.204579089158267"><ele>727.5</ele><time>2026-05-02T10:10:35Z</time></trkpt><trkpt lat="44.056236506624366" lon="10.204745193175977"><ele>731.25</ele><time>2026-05-02T10:10:36Z</time></trkpt><trkpt lat="44.05617089671601" lon="10.204891656193317"><ele>735.0</ele><time>2026-05-02T10:10:37Z</time></trkpt><trkpt lat="44.05608781471284" lon="10.205019094222385"><ele>736.8</ele><time>2026-05-02T10:10:38Z</time></trkpt><trkpt lat="44.05600459484472" lon="10.205131530246543"><ele>738.6</ele><time>2026-05-02T10:10:39Z</time></trkpt><trkpt lat="44.05593278456364" lon="10.205230541612464"><ele>740.4000000000001</ele><time>2026-05-02T10:10:40Z</time></trkpt><trkpt lat="44.05587352788286" lon="10.205296719426725"><ele>742.2</ele><time>2026-05-02T10:10:41Z</time></trkpt><trkpt lat="44.05577719678113" lon="10.20524865594594"><ele>744.0</ele><time>2026-05-02T10:10:43Z</time></trkpt><trkpt lat="44.05575705154151" lon="10.205163798054723"><ele>744.0</ele><time>2026-05-02T10:10:44Z</time></trkpt><trkpt lat="44.05578271141654" lon="10.205026472739021"><ele>744.0</ele><time>2026-05-02T10:10:45Z</time></trkpt><trkpt lat="44.055844254047926" lon="10.204886446184844"><ele>744.0</ele><time>2026-05-02T10:10:46Z</time></trkpt><trkpt lat="44.05592629033015" lon="10.204731491729135"><ele>744.0</ele><time>2026-05-02T10:10:47Z</time></trkpt><trkpt lat="44.05600368933732" lon="10.204545076010072"><ele>741.0</ele><time>2026-05-02T10:10:48Z</time></trkpt><trkpt lat="44.05608137625549" lon="10.204345107023578"><ele>738.0</ele><time>2026-05-02T10:10:49Z</time></trkpt><trkpt lat="44.05614585690944" lon="10.204124716981768"><ele>735.0</ele><time>2026-05-02T10:10:50Z</time></trkpt><trkpt lat="44.05619666253046" lon="10.203875811043071"><ele>730.0</ele><time>2026-05-02T10:10:51Z</time></trkpt><trkpt lat="44.05621848299056" lon="10.203597019772184"><ele>725.0</ele><time>2026-05-02T10:10:52Z</time></trkpt><trkpt lat="44.05623389620781" lon="10.20331666541832"><ele>720.0</ele><time>2026-05-02T10:10:53Z</time></trkpt><trkpt lat="44.05624768746251" lon="10.203034669452684"><ele>717.3333333333334</ele><time>2026-05-02T10:10:54Z</time></trkpt><trkpt lat="44.05625919881005" lon="10.202752939533632"><ele>714.6666666666667</ele><time>2026-05-02T10:10:55Z</time></trkpt><trkpt lat="44.05627065519874" lon="10.202472554837115"><ele>712.0</ele><time>2026-05-02T10:10:56Z</time></trkpt><trkpt lat="44.056281821584506" lon="10.20219343464208"><ele>709.3333333333334</ele><time>2026-05-02T10:10:57Z</time></trkpt><trkpt lat="44.05629039941589" lon="10.201929049297872"><ele>706.6666666666666</ele><time>2026-05-02T10:10:58Z</time></trkpt><trkpt lat="44.05629135399552" lon="10.201669753504657"><ele>704.0</ele><time>2026-05-02T10:10:59Z</time></trkpt><trkpt lat="44.05629052514985" lon="10.20141778313908"><ele>702.6666666666666</ele><time>2026-05-02T10:11:00Z</time></trkpt><trkpt lat="44.056282313128285" lon="10.201160985079122"><ele>701.3333333333334</ele><time>2026-05-02T10:11:01Z</time></trkpt><trkpt lat="44.05626024373419" lon="10.200906521546342"><ele>700.0</ele><time>2026-05-02T10:11:02Z</time></trkpt><trkpt lat="44.0562415791419" lon="10.200660676863777"><ele>700.0</ele><time>2026-05-02T10:11:03Z</time></trkpt><trkpt lat="44.05622653399501" lon="10.200413807357604"><ele>700.0</ele><time>2026-05-02T10:11:04Z</time></trkpt><trkpt lat="44.056210066639835" lon="10.200174817746866"><ele>700.0</ele><time>2026-05-02T10:11:05Z</time></trkpt><trkpt lat="44.05619177482875" lon="10.199936930448454"><ele>697.3333333333334</ele><time>2026-05-02T10:11:06Z</time></trkpt><trkpt lat="44.05617022307463" lon="10.199705924566233"><ele>694.6666666666666</ele><time>2026-05-02T10:11:07Z</time></trkpt><trkpt lat="44.0561464890651" lon="10.199480485580079"><ele>692.0</ele><time>2026-05-02T10:11:08Z</time></trkpt><trkpt lat="44.05613180002972" lon="10.199258788365572"><ele>692.0</ele><time>2026-05-02T10:11:09Z</time></trkpt><trkpt lat="44.05612216298079" lon="10.199045076918509"><ele>692.0</ele><time>2026-05-02T10:11:10Z</time></trkpt><trkpt lat="44.05612240435346" lon="10.198841602838165"><ele>692.0</ele><time>2026-05-02T10:11:11Z</time></trkpt><trkpt lat="44.05613370169492" lon="10.198645573846319"><ele>692.0</ele><time>2026-05-02T10:11:12Z</time></trkpt><trkpt lat="44.05615708419524" lon="10.198454266817805"><ele>690.2</ele><time>2026-05-02T10:11:13Z</time></trkpt><trkpt lat="44.056193887056345" lon="10.198281058268382"><ele>688.4000000000001</ele><time>2026-05-02T10:11:14Z</time></trkpt><trkpt lat="44.05622310378113" lon="10.19812518792205"><ele>686.5999999999999</ele><time>2026-05-02T10:11:15Z</time></trkpt><trkpt lat="44.05626382829775" lon="10.19801273951018"><ele>684.8</ele><time>2026-05-02T10:11:16Z</time></trkpt><trkpt lat="44.05627314777289" lon="10.19788502139631"><ele>683.0</ele><time>2026-05-02T10:11:17Z</time></trkpt><trkpt lat="44.05620456767092" lon="10.197771762350467"><ele>683.0</ele><time>2026-05-02T10:11:18Z</time></trkpt><trkpt lat="44.05610355711904" lon="10.19779753026993"><ele>683.0</ele><time>2026-05-02T10:11:19Z</time></trkpt><trkpt lat="44.05604319557515" lon="10.197853265796722"><ele>683.0</ele><time>2026-05-02T10:11:20Z</time></trkpt><trkpt lat="44.056005288985176" lon="10.197960092046792"><ele>683.0</ele><time>2026-05-02T10:11:21Z</time></trkpt><trkpt lat="44.05598595329331" lon="10.198120726049622"><ele>683.0</ele><time>2026-05-02T10:11:22Z</time></trkpt><trkpt lat="44.05597953757871" lon="10.198312489664282"><ele>683.0</ele><time>2026-05-02T10:11:23Z</time></trkpt><trkpt lat="44.055964479470354" lon="10.198533141124203"><ele>683.0</ele><time>2026-05-02T10:11:24Z</time></trkpt><trkpt lat="44.05594325757271" lon="10.198763670252308"><ele>683.0</ele><time>2026-05-02T10:11:25Z</time></trkpt><trkpt lat="44.055919399982315" lon="10.199020723629092"><ele>686.0</ele><time>2026-05-02T10:11:26Z</time></trkpt><trkpt lat="44.05589321436251" lon="10.199300448711094"><ele>689.0</ele><time>2026-05-02T10:11:27Z</time></trkpt><trkpt lat="44.055868166407784" lon="10.1995806841691"><ele>692.0</ele><time>2026-05-02T10:11:28Z</time></trkpt><trkpt lat="44.0558468746852" lon="10.19985451020588"><ele>694.6666666666666</ele><time>2026-05-02T10:11:29Z</time></trkpt><trkpt lat="44.05582633966012" lon="10.200125824271007"><ele>697.3333333333334</ele><time>2026-05-02T10:11:30Z</time></trkpt><trkpt lat="44.05580477490594" lon="10.200396806919661"><ele>700.0</ele><time>2026-05-02T10:11:31Z</time></trkpt><trkpt lat="44.05578374183487" lon="10.200656330451505"><ele>684.6666666666667</ele><time>2026-05-02T10:11:32Z</time></trkpt><trkpt lat="44.05575814529935" lon="10.200916682529208"><ele>669.3333333333334</ele><time>2026-05-02T10:11:33Z</time></trkpt><trkpt lat="44.055730912730425" lon="10.201173081605987"><ele>654.0</ele><time>2026-05-02T10:11:34Z</time></trkpt><trkpt lat="44.05569891153106" lon="10.201411776619379"><ele>655.3333333333334</ele><time>2026-05-02T10:11:35Z</time></trkpt><trkpt lat="44.05566132059522" lon="10.201649949840402"><ele>656.6666666666667</ele><time>2026-05-02T10:11:36Z</time></trkpt><trkpt lat="44.05561541713842" lon="10.201884804580098"><ele>658.0</ele><time>2026-05-02T10:11:37Z</time></trkpt><trkpt lat="44.05556562878895" lon="10.20212638431339"><ele>662.6666666666667</ele><time>2026-05-02T10:11:38Z</time></trkpt><trkpt lat="44.05551167384618" lon="10.202368758906797"><ele>667.3333333333334</ele><time>2026-05-02T10:11:39Z</time></trkpt><trkpt lat="44.055456860970686" lon="10.202601307603365"><ele>672.0</ele><time>2026-05-02T10:11:40Z</time></trkpt><trkpt lat="44.055405328526575" lon="10.202820019534796"><ele>672.0</ele><time>2026-05-02T10:11:41Z</time></trkpt><trkpt lat="44.05536132544605" lon="10.203025844163305"><ele>672.0</ele><time>2026-05-02T10:11:42Z</time></trkpt><trkpt lat="44.0553249140804" lon="10.203202880477303"><ele>672.0</ele><time>2026-05-02T10:11:43Z</time></trkpt><trkpt lat="44.05529046777023" lon="10.203349133978508"><ele>672.0</ele><time>2026-05-02T10:11:44Z</time></trkpt><trkpt lat="44.055261429922716" lon="10.203458108624641"><ele>672.0</ele><time>2026-05-02T10:11:45Z</time></trkpt><trkpt lat="44.05521634088776" lon="10.203529704506959"><ele>672.0</ele><time>2026-05-02T10:11:46Z</time></trkpt><trkpt lat="44.05515347149894" lon="10.203547118589984"><ele>672.0</ele><time>2026-05-02T10:11:47Z</time></trkpt><trkpt lat="44.055090175275794" lon="10.20350058170043"><ele>672.0</ele><time>2026-05-02T10:11:48Z</time></trkpt><trkpt lat="44.05507916306389" lon="10.203378326042802"><ele>672.0</ele><time>2026-05-02T10:11:49Z</time></trkpt><trkpt lat="44.055106243440434" lon="10.203256504221436"><ele>672.0</ele><time>2026-05-02T10:11:50Z</time></trkpt><trkpt lat="44.05514155875614" lon="10.203107106511728"><ele>672.0</ele><time>2026-05-02T10:11:51Z</time></trkpt><trkpt lat="44.055206260341905" lon="10.202941779071601"><ele>672.0</ele><time>2026-05-02T10:11:52Z</time></trkpt><trkpt lat="44.05526498387244" lon="10.202744746736737"><ele>672.0</ele><time>2026-05-02T10:11:53Z</time></trkpt><trkpt lat="44.05531426737087" lon="10.2025291993601"><ele>667.3333333333334</ele><time>2026-05-02T10:11:54Z</time></trkpt><trkpt lat="44.055352683075924" lon="10.202286450095588"><ele>662.6666666666667</ele><time>2026-05-02T10:11:55Z</time></trkpt><trkpt lat="44.05537055978235" lon="10.202029044577149"><ele>658.0</ele><time>2026-05-02T10:11:56Z</time></trkpt><trkpt lat="44.05539317570166" lon="10.201763402289371"><ele>656.6666666666667</ele><time>2026-05-02T10:11:57Z</time></trkpt><trkpt lat="44.0553790025717" lon="10.201490502852959"><ele>655.3333333333334</ele><time>2026-05-02T10:11:58Z</time></trkpt><trkpt lat="44.05538557564804" lon="10.201219679284144"><ele>654.0</ele><time>2026-05-02T10:11:59Z</time></trkpt><trkpt lat="44.05541025626352" lon="10.200955293059542"><ele>654.0</ele><time>2026-05-02T10:12:00Z</time></trkpt><trkpt lat="44.055416247886505" lon="10.200689030314265"><ele>654.0</ele><time>2026-05-02T10:12:01Z</time></trkpt><trkpt lat="44.055414521783554" lon="10.200425167970048"><ele>654.0</ele><time>2026-05-02T10:12:02Z</time></trkpt><trkpt lat="44.055409349507315" lon="10.200169174977718"><ele>650.3333333333334</ele><time>2026-05-02T10:12:03Z</time></trkpt><trkpt lat="44.05538912519683" lon="10.19990790374609"><ele>646.6666666666667</ele><time>2026-05-02T10:12:04Z</time></trkpt><trkpt lat="44.05539241634297" lon="10.199642900647929"><ele>643.0</ele><time>2026-05-02T10:12:05Z</time></trkpt><trkpt lat="44.055410586717386" lon="10.19938565144142"><ele>641.0</ele><time>2026-05-02T10:12:06Z</time></trkpt><trkpt lat="44.05541326297344" lon="10.199129858538813"><ele>639.0</ele><time>2026-05-02T10:12:07Z</time></trkpt><trkpt lat="44.05541687163397" lon="10.198886141712055"><ele>637.0</ele><time>2026-05-02T10:12:08Z</time></trkpt><trkpt lat="44.05541643463322" lon="10.198638896121295"><ele>632.6666666666667</ele><time>2026-05-02T10:12:09Z</time></trkpt><trkpt lat="44.05543721242181" lon="10.19839710519534"><ele>628.3333333333334</ele><time>2026-05-02T10:12:10Z</time></trkpt><trkpt lat="44.05546206956097" lon="10.198164094054507"><ele>624.0</ele><time>2026-05-02T10:12:11Z</time></trkpt><trkpt lat="44.0554878447112" lon="10.197956230137198"><ele>619.5</ele><time>2026-05-02T10:12:12Z</time></trkpt><trkpt lat="44.055514518890334" lon="10.197782885537142"><ele>615.0</ele><time>2026-05-02T10:12:13Z</time></trkpt><trkpt lat="44.05556239704275" lon="10.197615547879069"><ele>610.5</ele><time>2026-05-02T10:12:14Z</time></trkpt><trkpt lat="44.05563550837803" lon="10.19745823624482"><ele>606.0</ele><time>2026-05-02T10:12:15Z</time></trkpt><trkpt lat="44.05573311600219" lon="10.197316803339522"><ele>615.0</ele><time>2026-05-02T10:12:16Z</time></trkpt><trkpt lat="44.0558337963137" lon="10.197167762640316"><ele>624.0</ele><time>2026-05-02T10:12:17Z</time></trkpt><trkpt lat="44.055942270292604" lon="10.197013141078397"><ele>633.0</ele><time>2026-05-02T10:12:18Z</time></trkpt><trkpt lat="44.056042621185526" lon="10.196868218279489"><ele>642.0</ele><time>2026-05-02T10:12:19Z</time></trkpt><trkpt lat="44.056134679982364" lon="10.196730798677324"><ele>642.0</ele><time>2026-05-02T10:12:20Z</time></trkpt><trkpt lat="44.05621638483042" lon="10.196597670609666"><ele>642.0</ele><time>2026-05-02T10:12:21Z</time></trkpt><trkpt lat="44.05628021769451" lon="10.196462910067583"><ele>642.0</ele><time>2026-05-02T10:12:22Z</time></trkpt><trkpt lat="44.05634449442014" lon="10.19633518003291"><ele>642.0</ele><time>2026-05-02T10:12:23Z</time></trkpt><trkpt lat="44.056381818870946" lon="10.196187495435346"><ele>636.0</ele><time>2026-05-02T10:12:24Z</time></trkpt><trkpt lat="44.05640424795989" lon="10.195997697863417"><ele>630.0</ele><time>2026-05-02T10:12:25Z</time></trkpt><trkpt lat="44.05639425581775" lon="10.195767078713573"><ele>624.0</ele><time>2026-05-02T10:12:26Z</time></trkpt><trkpt lat="44.05635851859576" lon="10.195571817983756"><ele>618.0</ele><time>2026-05-02T10:12:27Z</time></trkpt><trkpt lat="44.05630481018068" lon="10.195337463433592"><ele>616.0</ele><time>2026-05-02T10:12:28Z</time></trkpt><trkpt lat="44.05626810198274" lon="10.19514247191598"><ele>614.0</ele><time>2026-05-02T10:12:29Z</time></trkpt><trkpt lat="44.05627193511688" lon="10.194872428962432"><ele>612.0</ele><time>2026-05-02T10:12:30Z</time></trkpt><trkpt lat="44.05628692156636" lon="10.194661536530646"><ele>609.75</ele><time>2026-05-02T10:12:31Z</time></trkpt><trkpt lat="44.05633848629143" lon="10.194453598771984"><ele>607.5</ele><time>2026-05-02T10:12:32Z</time></trkpt><trkpt lat="44.05639698672245" lon="10.194267163420808"><ele>605.25</ele><time>2026-05-02T10:12:33Z</time></trkpt><trkpt lat="44.05645112208679" lon="10.19408135823885"><ele>603.0</ele><time>2026-05-02T10:12:34Z</time></trkpt><trkpt lat="44.056516140468425" lon="10.193900306746684"><ele>606.5</ele><time>2026-05-02T10:12:35Z</time></trkpt><trkpt lat="44.05657450564711" lon="10.193717296633956"><ele>610.0</ele><time>2026-05-02T10:12:36Z</time></trkpt><trkpt lat="44.05662969001161" lon="10.19353769409236"><ele>613.5</ele><time>2026-05-02T10:12:37Z</time></trkpt><trkpt lat="44.05669888468017" lon="10.193392551273348"><ele>617.0</ele><time>2026-05-02T10:12:38Z</time></trkpt><trkpt lat="44.056787096002026" lon="10.193276492496384"><ele>617.0</ele><time>2026-05-02T10:12:39Z</time></trkpt><trkpt lat="44.05689385514961" lon="10.193189098194182"><ele>617.0</ele><time>2026-05-02T10:12:40Z</time></trkpt><trkpt lat="44.05702392391366" lon="10.193207511271696"><ele>617.0</ele><time>2026-05-02T10:12:41Z</time></trkpt><trkpt lat="44.057143490566965" lon="10.193174745960524"><ele>617.0</ele><time>2026-05-02T10:12:42Z</time></trkpt><trkpt lat="44.05726133833821" lon="10.193128017576564"><ele>614.25</ele><time>2026-05-02T10:12:43Z</time></trkpt><trkpt lat="44.05737538891836" lon="10.193058004558601"><ele>611.5</ele><time>2026-05-02T10:12:44Z</time></trkpt><trkpt lat="44.05747959644024" lon="10.19294730000989"><ele>608.75</ele><time>2026-05-02T10:12:45Z</time></trkpt><trkpt lat="44.05758981370109" lon="10.19284219792753"><ele>606.0</ele><time>2026-05-02T10:12:46Z</time></trkpt><trkpt lat="44.05768519876742" lon="10.192700460856262"><ele>606.0</ele><time>2026-05-02T10:12:47Z</time></trkpt><trkpt lat="44.057757461272686" lon="10.192523170180936"><ele>606.0</ele><time>2026-05-02T10:12:48Z</time></trkpt><trkpt lat="44.057783574211584" lon="10.192316770225586"><ele>606.0</ele><time>2026-05-02T10:12:49Z</time></trkpt><trkpt lat="44.05782765948084" lon="10.192109762193947"><ele>599.6666666666666</ele><time>2026-05-02T10:12:50Z</time></trkpt><trkpt lat="44.057864712804395" lon="10.191897921555299"><ele>593.3333333333333</ele><time>2026-05-02T10:12:51Z</time></trkpt><trkpt lat="44.05791082785908" lon="10.191694757844795"><ele>587.0</ele><time>2026-05-02T10:12:52Z</time></trkpt><trkpt lat="44.05793434843421" lon="10.191479404786035"><ele>587.0</ele><time>2026-05-02T10:12:53Z</time></trkpt><trkpt lat="44.05794489187938" lon="10.191277268589873"><ele>587.0</ele><time>2026-05-02T10:12:54Z</time></trkpt><trkpt lat="44.05793596379541" lon="10.191070099836338"><ele>587.0</ele><time>2026-05-02T10:12:55Z</time></trkpt><trkpt lat="44.05793969937666" lon="10.190873570793809"><ele>587.0</ele><time>2026-05-02T10:12:56Z</time></trkpt><trkpt lat="44.0579242545249" lon="10.190692676070265"><ele>587.5</ele><time>2026-05-02T10:12:57Z</time></trkpt><trkpt lat="44.05787667266503" lon="10.190521825014576"><ele>588.0</ele><time>2026-05-02T10:12:58Z</time></trkpt><trkpt lat="44.057766845323314" lon="10.190400917625848"><ele>588.5</ele><time>2026-05-02T10:12:59Z</time></trkpt><trkpt lat="44.057681430847225" lon="10.190268820923693"><ele>589.0</ele><time>2026-05-02T10:13:00Z</time></trkpt><trkpt lat="44.05760041975871" lon="10.190151256041965"><ele>589.0</ele><time>2026-05-02T10:13:01Z</time></trkpt><trkpt lat="44.05755731220377" lon="10.19001761157423"><ele>589.0</ele><time>2026-05-02T10:13:02Z</time></trkpt><trkpt lat="44.05754617625358" lon="10.189868779576635"><ele>589.0</ele><time>2026-05-02T10:13:03Z</time></trkpt><trkpt lat="44.05754548777879" lon="10.189698375839981"><ele>589.0</ele><time>2026-05-02T10:13:04Z</time></trkpt><trkpt lat="44.05756039764132" lon="10.189535587649214"><ele>587.5</ele><time>2026-05-02T10:13:05Z</time></trkpt><trkpt lat="44.05758169516435" lon="10.189389774568182"><ele>586.0</ele><time>2026-05-02T10:13:06Z</time></trkpt><trkpt lat="44.05762741702436" lon="10.189251919986958"><ele>584.5</ele><time>2026-05-02T10:13:07Z</time></trkpt><trkpt lat="44.05770627951097" lon="10.189117767640798"><ele>583.0</ele><time>2026-05-02T10:13:08Z</time></trkpt><trkpt lat="44.057790653003664" lon="10.188967991698378"><ele>577.5</ele><time>2026-05-02T10:13:09Z</time></trkpt><trkpt lat="44.057889298835605" lon="10.18882737642987"><ele>572.0</ele><time>2026-05-02T10:13:10Z</time></trkpt><trkpt lat="44.05792974305583" lon="10.18862839477675"><ele>566.5</ele><time>2026-05-02T10:13:11Z</time></trkpt><trkpt lat="44.05795726129168" lon="10.188425579349145"><ele>561.0</ele><time>2026-05-02T10:13:12Z</time></trkpt><trkpt lat="44.05800072757935" lon="10.188231791465512"><ele>555.5</ele><time>2026-05-02T10:13:13Z</time></trkpt><trkpt lat="44.058035724038064" lon="10.188042182585116"><ele>550.0</ele><time>2026-05-02T10:13:14Z</time></trkpt><trkpt lat="44.058070092129434" lon="10.187857770864063"><ele>544.5</ele><time>2026-05-02T10:13:15Z</time></trkpt><trkpt lat="44.058104299928495" lon="10.187677426925253"><ele>539.0</ele><time>2026-05-02T10:13:16Z</time></trkpt><trkpt lat="44.05813794205097" lon="10.187500310567653"><ele>534.5</ele><time>2026-05-02T10:13:17Z</time></trkpt><trkpt lat="44.05817277261106" lon="10.187317201064205"><ele>530.0</ele><time>2026-05-02T10:13:18Z</time></trkpt><trkpt lat="44.05820674132939" lon="10.18713862155578"><ele>525.5</ele><time>2026-05-02T10:13:19Z</time></trkpt><trkpt lat="44.05822464751182" lon="10.186956770398531"><ele>521.0</ele><time>2026-05-02T10:13:20Z</time></trkpt><trkpt lat="44.0582598929598" lon="10.186790944835115"><ele>522.25</ele><time>2026-05-02T10:13:21Z</time></trkpt><trkpt lat="44.0583022013488" lon="10.186630063341932"><ele>523.5</ele><time>2026-05-02T10:13:22Z</time></trkpt><trkpt lat="44.05836695347708" lon="10.186496973183464"><ele>524.75</ele><time>2026-05-02T10:13:23Z</time></trkpt><trkpt lat="44.058452566076944" lon="10.18639878638662"><ele>526.0</ele><time>2026-05-02T10:13:24Z</time></trkpt><trkpt lat="44.058559846802595" lon="10.18633691597814"><ele>526.0</ele><time>2026-05-02T10:13:25Z</time></trkpt><trkpt lat="44.05867116614272" lon="10.186292234618186"><ele>526.0</ele><time>2026-05-02T10:13:26Z</time></trkpt><trkpt lat="44.05878030112706" lon="10.186250279482525"><ele>526.0</ele><time>2026-05-02T10:13:27Z</time></trkpt><trkpt lat="44.05888842487026" lon="10.186194657134452"><ele>526.0</ele><time>2026-05-02T10:13:28Z</time></trkpt><trkpt lat="44.058996943094655" lon="10.18613608352806"><ele>526.0</ele><time>2026-05-02T10:13:29Z</time></trkpt><trkpt lat="44.059105599164305" lon="10.1860788538948"><ele>526.0</ele><time>2026-05-02T10:13:30Z</time></trkpt><trkpt lat="44.05921466536394" lon="10.186025736301469"><ele>526.0</ele><time>2026-05-02T10:13:31Z</time></trkpt><trkpt lat="44.05932613977559" lon="10.185969948348214"><ele>526.0</ele><time>2026-05-02T10:13:32Z</time></trkpt><trkpt lat="44.05944306272057" lon="10.18592019729387"><ele>533.75</ele><time>2026-05-02T10:13:33Z</time></trkpt><trkpt lat="44.05955404112127" lon="10.185866317357668"><ele>541.5</ele><time>2026-05-02T10:13:34Z</time></trkpt><trkpt lat="44.05966275718234" lon="10.185802809240279"><ele>549.25</ele><time>2026-05-02T10:13:35Z</time></trkpt><trkpt lat="44.05977135004805" lon="10.185744683098152"><ele>557.0</ele><time>2026-05-02T10:13:36Z</time></trkpt><trkpt lat="44.05988474550126" lon="10.185718052106527"><ele>561.0</ele><time>2026-05-02T10:13:37Z</time></trkpt><trkpt lat="44.05999103427455" lon="10.185733555147507"><ele>565.0</ele><time>2026-05-02T10:13:38Z</time></trkpt><trkpt lat="44.060081975664204" lon="10.185757880799205"><ele>569.0</ele><time>2026-05-02T10:13:39Z</time></trkpt><trkpt lat="44.060164308562015" lon="10.185739841003537"><ele>573.0</ele><time>2026-05-02T10:13:40Z</time></trkpt><trkpt lat="44.0602241798298" lon="10.185662509891362"><ele>577.0</ele><time>2026-05-02T10:13:41Z</time></trkpt><trkpt lat="44.06024441661739" lon="10.185541963714508"><ele>568.4</ele><time>2026-05-02T10:13:42Z</time></trkpt><trkpt lat="44.060235476768476" lon="10.185419383037866"><ele>559.8000000000001</ele><time>2026-05-02T10:13:43Z</time></trkpt><trkpt lat="44.06015969482937" lon="10.185317774698907"><ele>551.2</ele><time>2026-05-02T10:13:44Z</time></trkpt><trkpt lat="44.06003179456111" lon="10.185347845282376"><ele>542.6</ele><time>2026-05-02T10:13:45Z</time></trkpt><trkpt lat="44.05993267390733" lon="10.18541067701192"><ele>534.0</ele><time>2026-05-02T10:13:46Z</time></trkpt><trkpt lat="44.059822465405176" lon="10.18545337454839"><ele>527.0</ele><time>2026-05-02T10:13:47Z</time></trkpt><trkpt lat="44.05971213374556" lon="10.185513638717714"><ele>520.0</ele><time>2026-05-02T10:13:48Z</time></trkpt><trkpt lat="44.05959289790314" lon="10.185577802987483"><ele>513.0</ele><time>2026-05-02T10:13:49Z</time></trkpt><trkpt lat="44.059468014422464" lon="10.18562792131314"><ele>506.0</ele><time>2026-05-02T10:13:50Z</time></trkpt><trkpt lat="44.05934193920401" lon="10.185656123642707"><ele>511.0</ele><time>2026-05-02T10:13:51Z</time></trkpt><trkpt lat="44.05921561747408" lon="10.185685373986757"><ele>516.0</ele><time>2026-05-02T10:13:52Z</time></trkpt><trkpt lat="44.05909061132046" lon="10.185729906196366"><ele>521.0</ele><time>2026-05-02T10:13:53Z</time></trkpt><trkpt lat="44.058972023478894" lon="10.185811136233335"><ele>526.0</ele><time>2026-05-02T10:13:54Z</time></trkpt><trkpt lat="44.058853897434595" lon="10.185877298401888"><ele>526.0</ele><time>2026-05-02T10:13:55Z</time></trkpt><trkpt lat="44.05873100444631" lon="10.185931958316631"><ele>526.0</ele><time>2026-05-02T10:13:56Z</time></trkpt><trkpt lat="44.05860563382441" lon="10.185958849727246"><ele>526.0</ele><time>2026-05-02T10:13:57Z</time></trkpt><trkpt lat="44.05847907245567" lon="10.185968962747001"><ele>526.0</ele><time>2026-05-02T10:13:58Z</time></trkpt><trkpt lat="44.058352629352015" lon="10.185993662160103"><ele>518.5</ele><time>2026-05-02T10:13:59Z</time></trkpt><trkpt lat="44.058227692171826" lon="10.18604815464627"><ele>511.0</ele><time>2026-05-02T10:14:00Z</time></trkpt><trkpt lat="44.0581219124371" lon="10.186158457893937"><ele>503.5</ele><time>2026-05-02T10:14:01Z</time></trkpt><trkpt lat="44.05801730077847" lon="10.18626565627114"><ele>496.0</ele><time>2026-05-02T10:14:02Z</time></trkpt><trkpt lat="44.057921873458" lon="10.18639022875253"><ele>502.25</ele><time>2026-05-02T10:14:03Z</time></trkpt><trkpt lat="44.05784079882976" lon="10.186537090132434"><ele>508.5</ele><time>2026-05-02T10:14:04Z</time></trkpt><trkpt lat="44.05776767590531" lon="10.186700904977313"><ele>514.75</ele><time>2026-05-02T10:14:05Z</time></trkpt><trkpt lat="44.05769868341175" lon="10.186871330981086"><ele>521.0</ele><time>2026-05-02T10:14:06Z</time></trkpt><trkpt lat="44.057626717634214" lon="10.187040490697395"><ele>521.0</ele><time>2026-05-02T10:14:07Z</time></trkpt><trkpt lat="44.057557995788365" lon="10.18721425892448"><ele>521.0</ele><time>2026-05-02T10:14:08Z</time></trkpt><trkpt lat="44.05748414795973" lon="10.187393289480482"><ele>521.0</ele><time>2026-05-02T10:14:09Z</time></trkpt><trkpt lat="44.0574144437488" lon="10.187570941681916"><ele>521.0</ele><time>2026-05-02T10:14:10Z</time></trkpt><trkpt lat="44.057360322286186" lon="10.187757768078122"><ele>519.5</ele><time>2026-05-02T10:14:11Z</time></trkpt><trkpt lat="44.05729521283587" lon="10.187932682866817"><ele>518.0</ele><time>2026-05-02T10:14:12Z</time></trkpt><trkpt lat="44.05723493132874" lon="10.188096555742474"><ele>516.5</ele><time>2026-05-02T10:14:13Z</time></trkpt><trkpt lat="44.05716560984362" lon="10.188247206301972"><ele>515.0</ele><time>2026-05-02T10:14:14Z</time></trkpt><trkpt lat="44.0570579630925" lon="10.188351545240735"><ele>515.0</ele><time>2026-05-02T10:14:15Z</time></trkpt><trkpt lat="44.05694375238372" lon="10.188448952771353"><ele>515.0</ele><time>2026-05-02T10:14:16Z</time></trkpt><trkpt lat="44.056834963743114" lon="10.188562165092783"><ele>515.0</ele><time>2026-05-02T10:14:17Z</time></trkpt><trkpt lat="44.05672279007571" lon="10.18867029962161"><ele>515.0</ele><time>2026-05-02T10:14:18Z</time></trkpt><trkpt lat="44.056607940208" lon="10.188775527089408"><ele>505.0</ele><time>2026-05-02T10:14:19Z</time></trkpt><trkpt lat="44.056504561019715" lon="10.188887629336925"><ele>495.0</ele><time>2026-05-02T10:14:20Z</time></trkpt><trkpt lat="44.05642798773511" lon="10.189022115726846"><ele>485.0</ele><time>2026-05-02T10:14:21Z</time></trkpt><trkpt lat="44.056378226600785" lon="10.189176622162988"><ele>475.0</ele><time>2026-05-02T10:14:22Z</time></trkpt><trkpt lat="44.05636147644676" lon="10.189342000611873"><ele>475.0</ele><time>2026-05-02T10:14:23Z</time></trkpt><trkpt lat="44.0563790634042" lon="10.189523201258037"><ele>475.0</ele><time>2026-05-02T10:14:24Z</time></trkpt><trkpt lat="44.05641907285809" lon="10.189707884886204"><ele>475.0</ele><time>2026-05-02T10:14:25Z</time></trkpt><trkpt lat="44.056469399956505" lon="10.189899760950592"><ele>475.0</ele><time>2026-05-02T10:14:26Z</time></trkpt><trkpt lat="44.05651814740995" lon="10.190091055487724"><ele>474.75</ele><time>2026-05-02T10:14:27Z</time></trkpt><trkpt lat="44.056573848603136" lon="10.190270423432818"><ele>474.5</ele><time>2026-05-02T10:14:28Z</time></trkpt><trkpt lat="44.05663879783548" lon="10.190444624647553"><ele>474.25</ele><time>2026-05-02T10:14:29Z</time></trkpt><trkpt lat="44.0567045641749" lon="10.190602172083679"><ele>474.0</ele><time>2026-05-02T10:14:30Z</time></trkpt><trkpt lat="44.05676420716556" lon="10.190747247179868"><ele>475.6666666666667</ele><time>2026-05-02T10:14:31Z</time></trkpt><trkpt lat="44.05679947324113" lon="10.190886528873923"><ele>477.33333333333337</ele><time>2026-05-02T10:14:32Z</time></trkpt><trkpt lat="44.05679982474756" lon="10.191012250457753"><ele>479.0</ele><time>2026-05-02T10:14:33Z</time></trkpt><trkpt lat="44.056760055542746" lon="10.191098951930412"><ele>480.6666666666667</ele><time>2026-05-02T10:14:34Z</time></trkpt><trkpt lat="44.056693353591434" lon="10.19112142064614"><ele>482.33333333333337</ele><time>2026-05-02T10:14:35Z</time></trkpt><trkpt lat="44.0566267704083" lon="10.191074529550669"><ele>484.0</ele><time>2026-05-02T10:14:36Z</time></trkpt><trkpt lat="44.05659863704277" lon="10.190959419732199"><ele>484.0</ele><time>2026-05-02T10:14:37Z</time></trkpt><trkpt lat="44.05660637426119" lon="10.190806735811831"><ele>484.0</ele><time>2026-05-02T10:14:38Z</time></trkpt><trkpt lat="44.05657790055793" lon="10.19063638544894"><ele>484.0</ele><time>2026-05-02T10:14:39Z</time></trkpt><trkpt lat="44.056555614255764" lon="10.190438581271211"><ele>484.0</ele><time>2026-05-02T10:14:40Z</time></trkpt><trkpt lat="44.05650033826314" lon="10.19023850709017"><ele>481.0</ele><time>2026-05-02T10:14:41Z</time></trkpt><trkpt lat="44.056430055348756" lon="10.19003622833661"><ele>478.0</ele><time>2026-05-02T10:14:42Z</time></trkpt><trkpt lat="44.05635761537315" lon="10.189827154129809"><ele>475.0</ele><time>2026-05-02T10:14:43Z</time></trkpt><trkpt lat="44.056294845831566" lon="10.189630615775755"><ele>475.0</ele><time>2026-05-02T10:14:44Z</time></trkpt><trkpt lat="44.05625323327625" lon="10.189438881799084"><ele>475.0</ele><time>2026-05-02T10:14:45Z</time></trkpt><trkpt lat="44.05621897702892" lon="10.189262846688887"><ele>475.0</ele><time>2026-05-02T10:14:46Z</time></trkpt><trkpt lat="44.05621130607879" lon="10.189087631982568"><ele>475.0</ele><time>2026-05-02T10:14:47Z</time></trkpt><trkpt lat="44.056252706934764" lon="10.188912598333518"><ele>473.75</ele><time>2026-05-02T10:14:48Z</time></trkpt><trkpt lat="44.05629467708314" lon="10.188739787257425"><ele>472.5</ele><time>2026-05-02T10:14:49Z</time></trkpt><trkpt lat="44.056335566041085" lon="10.188586194357372"><ele>471.25</ele><time>2026-05-02T10:14:50Z</time></trkpt><trkpt lat="44.056367285327234" lon="10.18844771032913"><ele>470.0</ele><time>2026-05-02T10:14:51Z</time></trkpt><trkpt lat="44.05643603155843" lon="10.188339414345508"><ele>470.0</ele><time>2026-05-02T10:14:52Z</time></trkpt><trkpt lat="44.05654043550467" lon="10.188300025453577"><ele>470.0</ele><time>2026-05-02T10:14:53Z</time></trkpt><trkpt lat="44.05663345736713" lon="10.188216830090758"><ele>470.0</ele><time>2026-05-02T10:14:54Z</time></trkpt><trkpt lat="44.05673427292765" lon="10.188148078006694"><ele>470.0</ele><time>2026-05-02T10:14:55Z</time></trkpt><trkpt lat="44.056820692451645" lon="10.188042552425138"><ele>470.0</ele><time>2026-05-02T10:14:56Z</time></trkpt><trkpt lat="44.056880276251015" lon="10.18789632334747"><ele>471.75</ele><time>2026-05-02T10:14:57Z</time></trkpt><trkpt lat="44.05691658177621" lon="10.187730644243093"><ele>473.5</ele><time>2026-05-02T10:14:58Z</time></trkpt><trkpt lat="44.05694314898088" lon="10.187557815473347"><ele>475.25</ele><time>2026-05-02T10:14:59Z</time></trkpt><trkpt lat="44.05699752453765" lon="10.187390774702143"><ele>477.0</ele><time>2026-05-02T10:15:00Z</time></trkpt><trkpt lat="44.05704113574548" lon="10.187214429715027"><ele>477.0</ele><time>2026-05-02T10:15:01Z</time></trkpt><trkpt lat="44.05709166278896" lon="10.187041950281895"><ele>477.0</ele><time>2026-05-02T10:15:02Z</time></trkpt><trkpt lat="44.05714439238052" lon="10.186863504293271"><ele>477.0</ele><time>2026-05-02T10:15:03Z</time></trkpt><trkpt lat="44.057189705435896" lon="10.186686957032512"><ele>477.0</ele><time>2026-05-02T10:15:04Z</time></trkpt><trkpt lat="44.05720506691106" lon="10.18650911695964"><ele>471.75</ele><time>2026-05-02T10:15:05Z</time></trkpt><trkpt lat="44.05723485730006" lon="10.186345510104497"><ele>466.5</ele><time>2026-05-02T10:15:06Z</time></trkpt><trkpt lat="44.057271529903446" lon="10.186184120177245"><ele>461.25</ele><time>2026-05-02T10:15:07Z</time></trkpt><trkpt lat="44.057314317550144" lon="10.186031778314351"><ele>456.0</ele><time>2026-05-02T10:15:08Z</time></trkpt><trkpt lat="44.05735071687713" lon="10.185889740466118"><ele>456.0</ele><time>2026-05-02T10:15:09Z</time></trkpt><trkpt lat="44.057387923449255" lon="10.185761009741908"><ele>456.0</ele><time>2026-05-02T10:15:10Z</time></trkpt><trkpt lat="44.05744951863636" lon="10.185649502814618"><ele>456.0</ele><time>2026-05-02T10:15:11Z</time></trkpt><trkpt lat="44.05753040701827" lon="10.18556809985539"><ele>456.0</ele><time>2026-05-02T10:15:12Z</time></trkpt><trkpt lat="44.05762424640922" lon="10.185506929139411"><ele>456.0</ele><time>2026-05-02T10:15:13Z</time></trkpt><trkpt lat="44.057725324118806" lon="10.185452011496547"><ele>458.75</ele><time>2026-05-02T10:15:14Z</time></trkpt><trkpt lat="44.05783821206418" lon="10.185386291142851"><ele>461.5</ele><time>2026-05-02T10:15:15Z</time></trkpt><trkpt lat="44.057960800285585" lon="10.185315580592889"><ele>464.25</ele><time>2026-05-02T10:15:16Z</time></trkpt><trkpt lat="44.05809003124328" lon="10.185246853860031"><ele>467.0</ele><time>2026-05-02T10:15:17Z</time></trkpt><trkpt lat="44.05822309406203" lon="10.185179159373682"><ele>471.0</ele><time>2026-05-02T10:15:18Z</time></trkpt><trkpt lat="44.05835739236542" lon="10.185107686629781"><ele>475.0</ele><time>2026-05-02T10:15:19Z</time></trkpt><trkpt lat="44.058492177898266" lon="10.185038358244698"><ele>479.0</ele><time>2026-05-02T10:15:20Z</time></trkpt><trkpt lat="44.058624085068246" lon="10.184971048573601"><ele>483.0</ele><time>2026-05-02T10:15:21Z</time></trkpt><trkpt lat="44.05875030981229" lon="10.184894658988176"><ele>479.25</ele><time>2026-05-02T10:15:22Z</time></trkpt><trkpt lat="44.05887092189863" lon="10.184800161729806"><ele>475.5</ele><time>2026-05-02T10:15:23Z</time></trkpt><trkpt lat="44.0589872875436" lon="10.184686097353659"><ele>471.75</ele><time>2026-05-02T10:15:24Z</time></trkpt><trkpt lat="44.059093279379574" lon="10.184568056394802"><ele>468.0</ele><time>2026-05-02T10:15:25Z</time></trkpt><trkpt lat="44.059195095763876" lon="10.184450272379213"><ele>468.0</ele><time>2026-05-02T10:15:26Z</time></trkpt><trkpt lat="44.05929445260669" lon="10.184337034750449"><ele>468.0</ele><time>2026-05-02T10:15:27Z</time></trkpt><trkpt lat="44.05939369201348" lon="10.184230679374222"><ele>468.0</ele><time>2026-05-02T10:15:28Z</time></trkpt><trkpt lat="44.05948759198523" lon="10.184121793715525"><ele>468.0</ele><time>2026-05-02T10:15:29Z</time></trkpt><trkpt lat="44.05957389211067" lon="10.184015783064668"><ele>464.79999999999995</ele><time>2026-05-02T10:15:30Z</time></trkpt><trkpt lat="44.059643195185906" lon="10.183897754341551"><ele>461.59999999999997</ele><time>2026-05-02T10:15:31Z</time></trkpt><trkpt lat="44.05968235160668" lon="10.183756192015966"><ele>458.40000000000003</ele><time>2026-05-02T10:15:32Z</time></trkpt><trkpt lat="44.05967797924084" lon="10.183605393359851"><ele>455.20000000000005</ele><time>2026-05-02T10:15:33Z</time></trkpt><trkpt lat="44.05966438064074" lon="10.183450757474658"><ele>452.0</ele><time>2026-05-02T10:15:34Z</time></trkpt><trkpt lat="44.05961270363975" lon="10.183306508455855"><ele>450.40000000000003</ele><time>2026-05-02T10:15:35Z</time></trkpt><trkpt lat="44.05956135931538" lon="10.18317569180374"><ele>448.80000000000007</ele><time>2026-05-02T10:15:36Z</time></trkpt><trkpt lat="44.05951984118417" lon="10.183066335309741"><ele>447.2</ele><time>2026-05-02T10:15:37Z</time></trkpt><trkpt lat="44.05948228650395" lon="10.182954281515402"><ele>445.6</ele><time>2026-05-02T10:15:38Z</time></trkpt><trkpt lat="44.059506401098126" lon="10.1828310792693"><ele>444.0</ele><time>2026-05-02T10:15:39Z</time></trkpt><trkpt lat="44.059555636358155" lon="10.182711964769478"><ele>444.0</ele><time>2026-05-02T10:15:40Z</time></trkpt><trkpt lat="44.059625927060125" lon="10.182594825083259"><ele>444.0</ele><time>2026-05-02T10:15:41Z</time></trkpt><trkpt lat="44.0596996916096" lon="10.182464426268522"><ele>444.0</ele><time>2026-05-02T10:15:42Z</time></trkpt><trkpt lat="44.05977703868115" lon="10.182314215428635"><ele>444.0</ele><time>2026-05-02T10:15:43Z</time></trkpt><trkpt lat="44.0598550584429" lon="10.182144838199658"><ele>442.75</ele><time>2026-05-02T10:15:44Z</time></trkpt><trkpt lat="44.05994047980872" lon="10.181976787447272"><ele>441.5</ele><time>2026-05-02T10:15:45Z</time></trkpt><trkpt lat="44.06002529397706" lon="10.181813738056977"><ele>440.25</ele><time>2026-05-02T10:15:46Z</time></trkpt><trkpt lat="44.060103154792564" lon="10.181644768689333"><ele>439.0</ele><time>2026-05-02T10:15:47Z</time></trkpt><trkpt lat="44.0601714739626" lon="10.181477901341587"><ele>439.0</ele><time>2026-05-02T10:15:48Z</time></trkpt><trkpt lat="44.060218418229354" lon="10.181292387830048"><ele>439.0</ele><time>2026-05-02T10:15:49Z</time></trkpt><trkpt lat="44.06025256334506" lon="10.181106753154173"><ele>439.0</ele><time>2026-05-02T10:15:50Z</time></trkpt><trkpt lat="44.06026924071456" lon="10.180921375643281"><ele>439.0</ele><time>2026-05-02T10:15:51Z</time></trkpt><trkpt lat="44.06026498974573" lon="10.180733845659411"><ele>435.75</ele><time>2026-05-02T10:15:52Z</time></trkpt><trkpt lat="44.06025101598376" lon="10.180544463464384"><ele>432.5</ele><time>2026-05-02T10:15:53Z</time></trkpt><trkpt lat="44.06022989490894" lon="10.180362694484995"><ele>429.25</ele><time>2026-05-02T10:15:54Z</time></trkpt><trkpt lat="44.060205390866976" lon="10.18019280458155"><ele>426.0</ele><time>2026-05-02T10:15:55Z</time></trkpt><trkpt lat="44.060196021418754" lon="10.18003660244361"><ele>426.0</ele><time>2026-05-02T10:15:56Z</time></trkpt><trkpt lat="44.06017552448289" lon="10.179902948257025"><ele>426.0</ele><time>2026-05-02T10:15:57Z</time></trkpt><trkpt lat="44.060153767056384" lon="10.179790291335053"><ele>426.0</ele><time>2026-05-02T10:15:58Z</time></trkpt><trkpt lat="44.06017659055858" lon="10.179683772462788"><ele>426.0</ele><time>2026-05-02T10:15:59Z</time></trkpt><trkpt lat="44.06024067707539" lon="10.179616259103117"><ele>426.0</ele><time>2026-05-02T10:16:00Z</time></trkpt><trkpt lat="44.060320113672525" lon="10.179582697551698"><ele>426.0</ele><time>2026-05-02T10:16:01Z</time></trkpt><trkpt lat="44.060411513498764" lon="10.179595097536884"><ele>423.20000000000005</ele><time>2026-05-02T10:16:02Z</time></trkpt><trkpt lat="44.06049160113699" lon="10.179622453467035"><ele>420.40000000000003</ele><time>2026-05-02T10:16:03Z</time></trkpt><trkpt lat="44.060584470046756" lon="10.179645145442334"><ele>417.6</ele><time>2026-05-02T10:16:04Z</time></trkpt><trkpt lat="44.060691017880735" lon="10.179627748839197"><ele>414.8</ele><time>2026-05-02T10:16:05Z</time></trkpt><trkpt lat="44.060789259849855" lon="10.179570546166609"><ele>412.0</ele><time>2026-05-02T10:16:06Z</time></trkpt><trkpt lat="44.06088285433114" lon="10.179490504078617"><ele>416.5</ele><time>2026-05-02T10:16:07Z</time></trkpt><trkpt lat="44.06095660023529" lon="10.179374133035331"><ele>421.0</ele><time>2026-05-02T10:16:08Z</time></trkpt><trkpt lat="44.06099437574665" lon="10.179230453015956"><ele>425.5</ele><time>2026-05-02T10:16:09Z</time></trkpt><trkpt lat="44.060995318396806" lon="10.17905769046623"><ele>430.0</ele><time>2026-05-02T10:16:10Z</time></trkpt><trkpt lat="44.060988841031076" lon="10.17887007176508"><ele>430.0</ele><time>2026-05-02T10:16:11Z</time></trkpt><trkpt lat="44.06097098969957" lon="10.178679289154838"><ele>430.0</ele><time>2026-05-02T10:16:12Z</time></trkpt><trkpt lat="44.06096210490864" lon="10.17849201608741"><ele>430.0</ele><time>2026-05-02T10:16:13Z</time></trkpt><trkpt lat="44.0609600411083" lon="10.178314038912067"><ele>430.0</ele><time>2026-05-02T10:16:14Z</time></trkpt><trkpt lat="44.060958532406026" lon="10.178140486727084"><ele>426.4</ele><time>2026-05-02T10:16:15Z</time></trkpt><trkpt lat="44.060941151700995" lon="10.177969278365355"><ele>422.8</ele><time>2026-05-02T10:16:16Z</time></trkpt><trkpt lat="44.06091107294921" lon="10.177816751811587"><ele>419.20000000000005</ele><time>2026-05-02T10:16:17Z</time></trkpt><trkpt lat="44.06088382677402" lon="10.177692810807654"><ele>415.6</ele><time>2026-05-02T10:16:18Z</time></trkpt><trkpt lat="44.060879622352374" lon="10.177578635352715"><ele>412.0</ele><time>2026-05-02T10:16:19Z</time></trkpt><trkpt lat="44.0609213926598" lon="10.1774542467667"><ele>409.6</ele><time>2026-05-02T10:16:20Z</time></trkpt><trkpt lat="44.06098597664559" lon="10.177351801265342"><ele>407.20000000000005</ele><time>2026-05-02T10:16:21Z</time></trkpt><trkpt lat="44.06104845439929" lon="10.177227048190547"><ele>404.8</ele><time>2026-05-02T10:16:22Z</time></trkpt><trkpt lat="44.061080543382836" lon="10.177077992121903"><ele>402.4</ele><time>2026-05-02T10:16:23Z</time></trkpt><trkpt lat="44.06109683171277" lon="10.176903790778125"><ele>400.0</ele><time>2026-05-02T10:16:24Z</time></trkpt><trkpt lat="44.061099708777434" lon="10.17673005281912"><ele>400.0</ele><time>2026-05-02T10:16:25Z</time></trkpt><trkpt lat="44.06106353665458" lon="10.176557715319642"><ele>400.0</ele><time>2026-05-02T10:16:26Z</time></trkpt><trkpt lat="44.061045147749" lon="10.176385662086897"><ele>400.0</ele><time>2026-05-02T10:16:27Z</time></trkpt><trkpt lat="44.061044409661335" lon="10.17621275005939"><ele>400.0</ele><time>2026-05-02T10:16:28Z</time></trkpt><trkpt lat="44.06105812246008" lon="10.176044298900075"><ele>398.6</ele><time>2026-05-02T10:16:29Z</time></trkpt><trkpt lat="44.06109121227075" lon="10.1758891845574"><ele>397.2</ele><time>2026-05-02T10:16:30Z</time></trkpt><trkpt lat="44.061079887845025" lon="10.175748519592618"><ele>395.79999999999995</ele><time>2026-05-02T10:16:31Z</time></trkpt><trkpt lat="44.06107382362004" lon="10.175628934979782"><ele>394.4</ele><time>2026-05-02T10:16:32Z</time></trkpt><trkpt lat="44.06110686162241" lon="10.17552914174591"><ele>393.0</ele><time>2026-05-02T10:16:33Z</time></trkpt><trkpt lat="44.06113384006077" lon="10.175440354898214"><ele>393.0</ele><time>2026-05-02T10:16:34Z</time></trkpt><trkpt lat="44.061083382129844" lon="10.175316064838267"><ele>393.0</ele><time>2026-05-02T10:16:36Z</time></trkpt><trkpt lat="44.061005711906304" lon="10.17536443027479"><ele>393.0</ele><time>2026-05-02T10:16:39Z</time></trkpt><trkpt lat="44.060958497901986" lon="10.175540729341009"><ele>393.0</ele><time>2026-05-02T10:16:41Z</time></trkpt><trkpt lat="44.06097903231098" lon="10.175687261089163"><ele>393.0</ele><time>2026-05-02T10:16:42Z</time></trkpt><trkpt lat="44.060979124669196" lon="10.175846418322566"><ele>393.0</ele><time>2026-05-02T10:16:43Z</time></trkpt><trkpt lat="44.06096634292191" lon="10.176012042592594"><ele>393.0</ele><time>2026-05-02T10:16:44Z</time></trkpt><trkpt lat="44.06094869810146" lon="10.17619354979431"><ele>393.0</ele><time>2026-05-02T10:16:45Z</time></trkpt><trkpt lat="44.06094138568664" lon="10.176374970961977"><ele>393.0</ele><time>2026-05-02T10:16:46Z</time></trkpt><trkpt lat="44.060934162572615" lon="10.1765612300456"><ele>394.75</ele><time>2026-05-02T10:16:47Z</time></trkpt><trkpt lat="44.06093231165543" lon="10.176748388428912"><ele>396.5</ele><time>2026-05-02T10:16:48Z</time></trkpt><trkpt lat="44.06092834340742" lon="10.176923840310625"><ele>398.25</ele><time>2026-05-02T10:16:49Z</time></trkpt><trkpt lat="44.06087942491713" lon="10.177080206118857"><ele>400.0</ele><time>2026-05-02T10:16:50Z</time></trkpt><trkpt lat="44.06084127358764" lon="10.177238971029608"><ele>391.0</ele><time>2026-05-02T10:16:51Z</time></trkpt><trkpt lat="44.06075206809638" lon="10.177353282323645"><ele>382.0</ele><time>2026-05-02T10:16:52Z</time></trkpt><trkpt lat="44.06065609698388" lon="10.177434337446488"><ele>373.0</ele><time>2026-05-02T10:16:53Z</time></trkpt><trkpt lat="44.0606011897586" lon="10.177541419990686"><ele>364.0</ele><time>2026-05-02T10:16:54Z</time></trkpt><trkpt lat="44.060590296094624" lon="10.177665217373784"><ele>355.0</ele><time>2026-05-02T10:16:55Z</time></trkpt><trkpt lat="44.060621807573874" lon="10.177805116999993"><ele>355.0</ele><time>2026-05-02T10:16:56Z</time></trkpt><trkpt lat="44.06064949617031" lon="10.17795875347663"><ele>355.0</ele><time>2026-05-02T10:16:57Z</time></trkpt><trkpt lat="44.06062397521933" lon="10.17811788689092"><ele>355.0</ele><time>2026-05-02T10:16:58Z</time></trkpt><trkpt lat="44.06060021977058" lon="10.178279320322835"><ele>355.0</ele><time>2026-05-02T10:16:59Z</time></trkpt><trkpt lat="44.060572455552126" lon="10.178444000925392"><ele>358.8333333333333</ele><time>2026-05-02T10:17:00Z</time></trkpt><trkpt lat="44.06056201563404" lon="10.178597425109473"><ele>362.66666666666663</ele><time>2026-05-02T10:17:01Z</time></trkpt><trkpt lat="44.06054765108023" lon="10.178730076265893"><ele>366.5</ele><time>2026-05-02T10:17:02Z</time></trkpt><trkpt lat="44.06053854224958" lon="10.178844091851436"><ele>370.3333333333333</ele><time>2026-05-02T10:17:03Z</time></trkpt><trkpt lat="44.06051825751896" lon="10.178930356457064"><ele>374.1666666666667</ele><time>2026-05-02T10:17:04Z</time></trkpt><trkpt lat="44.06046079355063" lon="10.17898836964071"><ele>378.0</ele><time>2026-05-02T10:17:05Z</time></trkpt><trkpt lat="44.06037991419875" lon="10.17900345567288"><ele>378.0</ele><time>2026-05-02T10:17:06Z</time></trkpt><trkpt lat="44.06028948955607" lon="10.178952455695685"><ele>378.0</ele><time>2026-05-02T10:17:07Z</time></trkpt><trkpt lat="44.0602060599809" lon="10.178883943706758"><ele>378.0</ele><time>2026-05-02T10:17:08Z</time></trkpt><trkpt lat="44.06010761009099" lon="10.178815626385832"><ele>378.0</ele><time>2026-05-02T10:17:09Z</time></trkpt><trkpt lat="44.060019046747925" lon="10.178782547452043"><ele>378.0</ele><time>2026-05-02T10:17:10Z</time></trkpt><trkpt lat="44.059948179952855" lon="10.178742741021894"><ele>375.79999999999995</ele><time>2026-05-02T10:17:11Z</time></trkpt><trkpt lat="44.05988176011677" lon="10.178752459058046"><ele>373.6</ele><time>2026-05-02T10:17:12Z</time></trkpt><trkpt lat="44.05982063442666" lon="10.17882030667063"><ele>371.4</ele><time>2026-05-02T10:17:13Z</time></trkpt><trkpt lat="44.0597772609605" lon="10.178944125179083"><ele>369.20000000000005</ele><time>2026-05-02T10:17:14Z</time></trkpt><trkpt lat="44.05972709154423" lon="10.179080607945457"><ele>367.0</ele><time>2026-05-02T10:17:15Z</time></trkpt><trkpt lat="44.059676575587915" lon="10.179229885675875"><ele>367.0</ele><time>2026-05-02T10:17:16Z</time></trkpt><trkpt lat="44.05963796111451" lon="10.179387147511475"><ele>367.0</ele><time>2026-05-02T10:17:17Z</time></trkpt><trkpt lat="44.05959081012851" lon="10.179533256943044"><ele>367.0</ele><time>2026-05-02T10:17:18Z</time></trkpt><trkpt lat="44.05953861041307" lon="10.179671776898498"><ele>367.0</ele><time>2026-05-02T10:17:19Z</time></trkpt><trkpt lat="44.05948913004832" lon="10.179809288366602"><ele>369.8</ele><time>2026-05-02T10:17:20Z</time></trkpt><trkpt lat="44.05944837201184" lon="10.179951886899236"><ele>372.6</ele><time>2026-05-02T10:17:21Z</time></trkpt><trkpt lat="44.05938493985359" lon="10.180079477168817"><ele>375.40000000000003</ele><time>2026-05-02T10:17:22Z</time></trkpt><trkpt lat="44.059326012472916" lon="10.180199957355338"><ele>378.20000000000005</ele><time>2026-05-02T10:17:23Z</time></trkpt><trkpt lat="44.059266659118876" lon="10.18030981075504"><ele>381.0</ele><time>2026-05-02T10:17:24Z</time></trkpt><trkpt lat="44.059209305758124" lon="10.180433429510327"><ele>381.0</ele><time>2026-05-02T10:17:25Z</time></trkpt><trkpt lat="44.05913708191239" lon="10.18052435507714"><ele>381.0</ele><time>2026-05-02T10:17:26Z</time></trkpt><trkpt lat="44.05904312337099" lon="10.18060540393646"><ele>381.0</ele><time>2026-05-02T10:17:27Z</time></trkpt><trkpt lat="44.058961856498186" lon="10.180706446247315"><ele>381.0</ele><time>2026-05-02T10:17:28Z</time></trkpt><trkpt lat="44.058875596824684" lon="10.180798572778881"><ele>381.0</ele><time>2026-05-02T10:17:29Z</time></trkpt><trkpt lat="44.05877318276936" lon="10.180871914621012"><ele>379.0</ele><time>2026-05-02T10:17:30Z</time></trkpt><trkpt lat="44.05866605230581" lon="10.180922171383719"><ele>377.0</ele><time>2026-05-02T10:17:31Z</time></trkpt><trkpt lat="44.058556699019704" lon="10.18097851456941"><ele>375.0</ele><time>2026-05-02T10:17:32Z</time></trkpt><trkpt lat="44.058454889164636" lon="10.181049980591544"><ele>373.0</ele><time>2026-05-02T10:17:33Z</time></trkpt><trkpt lat="44.058349344568526" lon="10.181122396267895"><ele>368.0</ele><time>2026-05-02T10:17:34Z</time></trkpt><trkpt lat="44.058236759032155" lon="10.181193812240876"><ele>363.0</ele><time>2026-05-02T10:17:35Z</time></trkpt><trkpt lat="44.05811737837279" lon="10.181260893259617"><ele>358.0</ele><time>2026-05-02T10:17:36Z</time></trkpt><trkpt lat="44.057995742525094" lon="10.181329494188256"><ele>353.0</ele><time>2026-05-02T10:17:37Z</time></trkpt><trkpt lat="44.057878103533575" lon="10.18139650445609"><ele>353.0</ele><time>2026-05-02T10:17:38Z</time></trkpt><trkpt lat="44.0577651440337" lon="10.181464004345731"><ele>353.0</ele><time>2026-05-02T10:17:39Z</time></trkpt><trkpt lat="44.05765387428271" lon="10.181528370432911"><ele>353.0</ele><time>2026-05-02T10:17:40Z</time></trkpt><trkpt lat="44.057551392138016" lon="10.181589388067287"><ele>353.0</ele><time>2026-05-02T10:17:41Z</time></trkpt><trkpt lat="44.05745995376415" lon="10.181649459862358"><ele>353.0</ele><time>2026-05-02T10:17:41.999Z</time></trkpt><trkpt lat="44.057384179296726" lon="10.181707340470256"><ele>353.0</ele><time>2026-05-02T10:17:42.999Z</time></trkpt><trkpt lat="44.057322159524475" lon="10.18179810516844"><ele>353.0</ele><time>2026-05-02T10:17:43.999Z</time></trkpt><trkpt lat="44.05729765830196" lon="10.18192135847228"><ele>353.0</ele><time>2026-05-02T10:17:44.999Z</time></trkpt><trkpt lat="44.05730586854644" lon="10.182049567623839"><ele>353.0</ele><time>2026-05-02T10:17:45.999Z</time></trkpt><trkpt lat="44.05733253140052" lon="10.182174495178733"><ele>353.0</ele><time>2026-05-02T10:17:46.999Z</time></trkpt><trkpt lat="44.057334414598124" lon="10.182293622382847"><ele>353.0</ele><time>2026-05-02T10:17:47.999Z</time></trkpt><trkpt lat="44.05732909511617" lon="10.18241462524683"><ele>353.0</ele><time>2026-05-02T10:17:48.999Z</time></trkpt><trkpt lat="44.057282495414796" lon="10.182514264837753"><ele>353.0</ele><time>2026-05-02T10:17:49.999Z</time></trkpt><trkpt lat="44.05721697417548" lon="10.182600457682637"><ele>353.0</ele><time>2026-05-02T10:17:50.999Z</time></trkpt><trkpt lat="44.057137926239854" lon="10.18265106175353"><ele>353.0</ele><time>2026-05-02T10:17:51.999Z</time></trkpt><trkpt lat="44.057033830675785" lon="10.182636714370002"><ele>353.0</ele><time>2026-05-02T10:17:52.999Z</time></trkpt><trkpt lat="44.05693871593775" lon="10.182543485887688"><ele>353.0</ele><time>2026-05-02T10:17:53.999Z</time></trkpt><trkpt lat="44.05684354892078" lon="10.182449793142377"><ele>353.0</ele><time>2026-05-02T10:17:54.999Z</time></trkpt><trkpt lat="44.05673664565401" lon="10.182350028314966"><ele>353.0</ele><time>2026-05-02T10:17:55.999Z</time></trkpt><trkpt lat="44.05662018577401" lon="10.182269311670035"><ele>352.0</ele><time>2026-05-02T10:17:56.999Z</time></trkpt><trkpt lat="44.05651271855425" lon="10.18215847226138"><ele>351.0</ele><time>2026-05-02T10:17:57.999Z</time></trkpt><trkpt lat="44.05638907902988" lon="10.182096356689838"><ele>350.0</ele><time>2026-05-02T10:17:58.999Z</time></trkpt><trkpt lat="44.05627709701933" lon="10.182009150398109"><ele>349.0</ele><time>2026-05-02T10:17:59.999Z</time></trkpt><trkpt lat="44.05616967489784" lon="10.18192718247655"><ele>349.0</ele><time>2026-05-02T10:18:00.999Z</time></trkpt><trkpt lat="44.05606745425078" lon="10.181859863915856"><ele>349.0</ele><time>2026-05-02T10:18:01.999Z</time></trkpt><trkpt lat="44.055970582225356" lon="10.181810235140828"><ele>349.0</ele><time>2026-05-02T10:18:02.999Z</time></trkpt><trkpt lat="44.055869309724436" lon="10.18178678460917"><ele>349.0</ele><time>2026-05-02T10:18:03.999Z</time></trkpt><trkpt lat="44.055768162731205" lon="10.181776634449568"><ele>349.0</ele><time>2026-05-02T10:18:04.999Z</time></trkpt><trkpt lat="44.05567414978351" lon="10.181849767732386"><ele>342.8</ele><time>2026-05-02T10:18:05.999Z</time></trkpt><trkpt lat="44.055600767538905" lon="10.18192933211914"><ele>336.59999999999997</ele><time>2026-05-02T10:18:06.999Z</time></trkpt><trkpt lat="44.055550150985475" lon="10.182033929144328"><ele>330.4</ele><time>2026-05-02T10:18:07.999Z</time></trkpt><trkpt lat="44.055518346627636" lon="10.18215572627637"><ele>324.2</ele><time>2026-05-02T10:18:08.999Z</time></trkpt><trkpt lat="44.05548836637282" lon="10.182288276828803"><ele>318.0</ele><time>2026-05-02T10:18:09.999Z</time></trkpt><trkpt lat="44.055464515759766" lon="10.182433098603326"><ele>318.0</ele><time>2026-05-02T10:18:10.999Z</time></trkpt><trkpt lat="44.055454071129546" lon="10.18259035275092"><ele>318.0</ele><time>2026-05-02T10:18:11.999Z</time></trkpt><trkpt lat="44.05545904795655" lon="10.182755268725867"><ele>318.0</ele><time>2026-05-02T10:18:12.999Z</time></trkpt><trkpt lat="44.05547350452714" lon="10.182922576649629"><ele>318.0</ele><time>2026-05-02T10:18:13.999Z</time></trkpt><trkpt lat="44.055502491930795" lon="10.183084364395464"><ele>316.5</ele><time>2026-05-02T10:18:14.999Z</time></trkpt><trkpt lat="44.055550435555254" lon="10.183239304642527"><ele>315.0</ele><time>2026-05-02T10:18:15.999Z</time></trkpt><trkpt lat="44.05561023803049" lon="10.183389641826386"><ele>313.5</ele><time>2026-05-02T10:18:16.999Z</time></trkpt><trkpt lat="44.05566850778421" lon="10.183542592780796"><ele>312.0</ele><time>2026-05-02T10:18:17.999Z</time></trkpt><trkpt lat="44.055709867139704" lon="10.183693398511208"><ele>312.0</ele><time>2026-05-02T10:18:18.999Z</time></trkpt><trkpt lat="44.05569815126536" lon="10.183852386568706"><ele>312.0</ele><time>2026-05-02T10:18:19.999Z</time></trkpt><trkpt lat="44.05567822839834" lon="10.183997271556695"><ele>312.0</ele><time>2026-05-02T10:18:20.999Z</time></trkpt><trkpt lat="44.055652596103215" lon="10.184134950101422"><ele>312.0</ele><time>2026-05-02T10:18:21.999Z</time></trkpt><trkpt lat="44.05561831427162" lon="10.184240103850271"><ele>312.0</ele><time>2026-05-02T10:18:22.999Z</time></trkpt><trkpt lat="44.05555658555611" lon="10.184293812529933"><ele>315.8</ele><time>2026-05-02T10:18:23.999Z</time></trkpt><trkpt lat="44.05548110387005" lon="10.18429680819832"><ele>319.6</ele><time>2026-05-02T10:18:24.999Z</time></trkpt><trkpt lat="44.05540382442014" lon="10.184247720288365"><ele>323.40000000000003</ele><time>2026-05-02T10:18:25.999Z</time></trkpt><trkpt lat="44.05530547604125" lon="10.184219620754218"><ele>327.2</ele><time>2026-05-02T10:18:26.999Z</time></trkpt><trkpt lat="44.05519930845053" lon="10.184220662453784"><ele>331.0</ele><time>2026-05-02T10:18:27.999Z</time></trkpt><trkpt lat="44.05508388456861" lon="10.18424787946841"><ele>331.0</ele><time>2026-05-02T10:18:28.999Z</time></trkpt><trkpt lat="44.05496958957413" lon="10.184315807956565"><ele>331.0</ele><time>2026-05-02T10:18:29.999Z</time></trkpt><trkpt lat="44.054847312060986" lon="10.184372995841095"><ele>331.0</ele><time>2026-05-02T10:18:30.999Z</time></trkpt><trkpt lat="44.05474903344571" lon="10.184476181381141"><ele>331.0</ele><time>2026-05-02T10:18:31.999Z</time></trkpt><trkpt lat="44.054664076125356" lon="10.184572049420662"><ele>326.5</ele><time>2026-05-02T10:18:32.999Z</time></trkpt><trkpt lat="44.05460633367017" lon="10.184696900293192"><ele>322.0</ele><time>2026-05-02T10:18:33.999Z</time></trkpt><trkpt lat="44.054574780721936" lon="10.184844964051825"><ele>317.5</ele><time>2026-05-02T10:18:34.999Z</time></trkpt><trkpt lat="44.054542797679744" lon="10.185000605416631"><ele>313.0</ele><time>2026-05-02T10:18:35.999Z</time></trkpt><trkpt lat="44.054507174037276" lon="10.18516560179979"><ele>313.0</ele><time>2026-05-02T10:18:36.999Z</time></trkpt><trkpt lat="44.05446869075367" lon="10.185340119013452"><ele>313.0</ele><time>2026-05-02T10:18:37.999Z</time></trkpt><trkpt lat="44.05444309344115" lon="10.185520226031663"><ele>313.0</ele><time>2026-05-02T10:18:38.999Z</time></trkpt><trkpt lat="44.05439528502685" lon="10.18569651779689"><ele>313.0</ele><time>2026-05-02T10:18:39.999Z</time></trkpt><trkpt lat="44.0543435677647" lon="10.185869076923137"><ele>314.75</ele><time>2026-05-02T10:18:40.999Z</time></trkpt><trkpt lat="44.05429048880696" lon="10.186040122008196"><ele>316.5</ele><time>2026-05-02T10:18:41.999Z</time></trkpt><trkpt lat="44.054239109601234" lon="10.186214844981052"><ele>318.25</ele><time>2026-05-02T10:18:42.999Z</time></trkpt><trkpt lat="44.05420063069706" lon="10.1863905444208"><ele>320.0</ele><time>2026-05-02T10:18:43.999Z</time></trkpt><trkpt lat="44.05419224187273" lon="10.186580327929454"><ele>323.0</ele><time>2026-05-02T10:18:44.999Z</time></trkpt><trkpt lat="44.05419001833163" lon="10.186760207866865"><ele>326.0</ele><time>2026-05-02T10:18:45.999Z</time></trkpt><trkpt lat="44.054178134435475" lon="10.186935147181021"><ele>329.0</ele><time>2026-05-02T10:18:46.999Z</time></trkpt><trkpt lat="44.054145010358575" lon="10.187101327768646"><ele>332.0</ele><time>2026-05-02T10:18:47.999Z</time></trkpt><trkpt lat="44.05409960942561" lon="10.187255066862122"><ele>322.6</ele><time>2026-05-02T10:18:48.999Z</time></trkpt><trkpt lat="44.05405694417937" lon="10.187403390240343"><ele>313.20000000000005</ele><time>2026-05-02T10:18:49.999Z</time></trkpt><trkpt lat="44.05401227943962" lon="10.187550564556858"><ele>303.8</ele><time>2026-05-02T10:18:50.999Z</time></trkpt><trkpt lat="44.05397518634734" lon="10.187691502193793"><ele>294.4</ele><time>2026-05-02T10:18:51.999Z</time></trkpt><trkpt lat="44.05394488904506" lon="10.187839404893733"><ele>285.0</ele><time>2026-05-02T10:18:52.999Z</time></trkpt><trkpt lat="44.05386787779677" lon="10.187944028119963"><ele>285.0</ele><time>2026-05-02T10:18:53.999Z</time></trkpt><trkpt lat="44.053782400311945" lon="10.188038693149412"><ele>285.0</ele><time>2026-05-02T10:18:54.999Z</time></trkpt><trkpt lat="44.05371294796362" lon="10.188147035016305"><ele>285.0</ele><time>2026-05-02T10:18:55.999Z</time></trkpt><trkpt lat="44.05367076058484" lon="10.188252689151641"><ele>285.0</ele><time>2026-05-02T10:18:56.999Z</time></trkpt><trkpt lat="44.05367996799658" lon="10.188377507919183"><ele>285.0</ele><time>2026-05-02T10:18:57.999Z</time></trkpt><trkpt lat="44.05373877431115" lon="10.18850194716151"><ele>289.0</ele><time>2026-05-02T10:18:58.999Z</time></trkpt><trkpt lat="44.05383283868756" lon="10.188616101935809"><ele>293.0</ele><time>2026-05-02T10:18:59.999Z</time></trkpt><trkpt lat="44.05393275254932" lon="10.188726634516561"><ele>297.0</ele><time>2026-05-02T10:19:00.999Z</time></trkpt><trkpt lat="44.05400558902703" lon="10.188842707251695"><ele>301.0</ele><time>2026-05-02T10:19:01.999Z</time></trkpt><trkpt lat="44.054040735227034" lon="10.188968423960302"><ele>304.0</ele><time>2026-05-02T10:19:02.999Z</time></trkpt><trkpt lat="44.05403349977262" lon="10.189094136159314"><ele>307.0</ele><time>2026-05-02T10:19:03.999Z</time></trkpt><trkpt lat="44.05395471372854" lon="10.189176852198349"><ele>310.0</ele><time>2026-05-02T10:19:04.999Z</time></trkpt><trkpt lat="44.05387201523343" lon="10.18920857306423"><ele>313.0</ele><time>2026-05-02T10:19:05.999Z</time></trkpt><trkpt lat="44.05377424183541" lon="10.189187090983566"><ele>316.0</ele><time>2026-05-02T10:19:06.999Z</time></trkpt><trkpt lat="44.05365922188499" lon="10.189207929892726"><ele>316.0</ele><time>2026-05-02T10:19:07.999Z</time></trkpt><trkpt lat="44.05353637429767" lon="10.189211049600953"><ele>316.0</ele><time>2026-05-02T10:19:08.999Z</time></trkpt><trkpt lat="44.05343549766289" lon="10.189254957913855"><ele>316.0</ele><time>2026-05-02T10:19:09.999Z</time></trkpt><trkpt lat="44.05335596928932" lon="10.189345056144083"><ele>316.0</ele><time>2026-05-02T10:19:10.999Z</time></trkpt><trkpt lat="44.05331211368248" lon="10.189480663508437"><ele>316.0</ele><time>2026-05-02T10:19:11.999Z</time></trkpt><trkpt lat="44.053285841315756" lon="10.189638536487463"><ele>314.0</ele><time>2026-05-02T10:19:12.999Z</time></trkpt><trkpt lat="44.05327095989353" lon="10.189818393244435"><ele>312.0</ele><time>2026-05-02T10:19:13.999Z</time></trkpt><trkpt lat="44.05324542686968" lon="10.189997974654355"><ele>310.0</ele><time>2026-05-02T10:19:14.999Z</time></trkpt><trkpt lat="44.053233068588725" lon="10.190174204515257"><ele>308.0</ele><time>2026-05-02T10:19:15.999Z</time></trkpt><trkpt lat="44.05320637036102" lon="10.19033045187677"><ele>308.0</ele><time>2026-05-02T10:19:16.999Z</time></trkpt><trkpt lat="44.05311620742005" lon="10.190452526264842"><ele>308.0</ele><time>2026-05-02T10:19:17.999Z</time></trkpt><trkpt lat="44.05304267799707" lon="10.190591658360697"><ele>308.0</ele><time>2026-05-02T10:19:18.999Z</time></trkpt><trkpt lat="44.052948544096324" lon="10.190719447054699"><ele>308.0</ele><time>2026-05-02T10:19:19.999Z</time></trkpt><trkpt lat="44.05285285762874" lon="10.190854572060024"><ele>308.25</ele><time>2026-05-02T10:19:20.999Z</time></trkpt><trkpt lat="44.0527644892239" lon="10.190993371756203"><ele>308.5</ele><time>2026-05-02T10:19:21.999Z</time></trkpt><trkpt lat="44.05266869451792" lon="10.191106948789058"><ele>308.75</ele><time>2026-05-02T10:19:22.999Z</time></trkpt><trkpt lat="44.05258526886475" lon="10.19122628251858"><ele>309.0</ele><time>2026-05-02T10:19:23.999Z</time></trkpt><trkpt lat="44.0524991834487" lon="10.191332084265701"><ele>313.6</ele><time>2026-05-02T10:19:24.999Z</time></trkpt><trkpt lat="44.05238610056804" lon="10.191329116389275"><ele>318.2</ele><time>2026-05-02T10:19:25.999Z</time></trkpt><trkpt lat="44.05227626792174" lon="10.191329239031582"><ele>322.8</ele><time>2026-05-02T10:19:26.999Z</time></trkpt><trkpt lat="44.052180208434976" lon="10.191300645307335"><ele>327.40000000000003</ele><time>2026-05-02T10:19:27.999Z</time></trkpt><trkpt lat="44.052109080866856" lon="10.191218368077585"><ele>332.0</ele><time>2026-05-02T10:19:28.999Z</time></trkpt><trkpt lat="44.052057814813885" lon="10.1911051515344"><ele>332.0</ele><time>2026-05-02T10:19:29.999Z</time></trkpt><trkpt lat="44.052024686264396" lon="10.190967901385147"><ele>332.0</ele><time>2026-05-02T10:19:30.999Z</time></trkpt><trkpt lat="44.05204802696672" lon="10.19082693468716"><ele>332.0</ele><time>2026-05-02T10:19:31.999Z</time></trkpt><trkpt lat="44.052108396093026" lon="10.190688011603841"><ele>332.0</ele><time>2026-05-02T10:19:32.999Z</time></trkpt><trkpt lat="44.05219825550047" lon="10.190559579017275"><ele>337.25</ele><time>2026-05-02T10:19:33.999Z</time></trkpt><trkpt lat="44.052280677402116" lon="10.190409449422175"><ele>342.5</ele><time>2026-05-02T10:19:34.999Z</time></trkpt><trkpt lat="44.05234109728065" lon="10.19023025645739"><ele>347.75</ele><time>2026-05-02T10:19:35.999Z</time></trkpt><trkpt lat="44.052363174247766" lon="10.190015687417066"><ele>353.0</ele><time>2026-05-02T10:19:36.999Z</time></trkpt><trkpt lat="44.05233998088314" lon="10.18979209445613"><ele>353.6666666666667</ele><time>2026-05-02T10:19:37.999Z</time></trkpt><trkpt lat="44.052302025965886" lon="10.189567625226184"><ele>354.3333333333333</ele><time>2026-05-02T10:19:38.999Z</time></trkpt><trkpt lat="44.05228074810543" lon="10.189333689144574"><ele>355.0</ele><time>2026-05-02T10:19:39.999Z</time></trkpt><trkpt lat="44.0522798778091" lon="10.189113604498822"><ele>350.0</ele><time>2026-05-02T10:19:40.999Z</time></trkpt><trkpt lat="44.0522588253924" lon="10.188931330862955"><ele>345.0</ele><time>2026-05-02T10:19:41.999Z</time></trkpt><trkpt lat="44.052202041019704" lon="10.1887828257496"><ele>340.0</ele><time>2026-05-02T10:19:42.999Z</time></trkpt><trkpt lat="44.0521388832594" lon="10.188641257695975"><ele>335.0</ele><time>2026-05-02T10:19:43.999Z</time></trkpt><trkpt lat="44.05208081331676" lon="10.188522458256672"><ele>335.0</ele><time>2026-05-02T10:19:44.999Z</time></trkpt><trkpt lat="44.05203826223053" lon="10.188422937116915"><ele>335.0</ele><time>2026-05-02T10:19:45.999Z</time></trkpt><trkpt lat="44.052038405431915" lon="10.188293672703699"><ele>335.0</ele><time>2026-05-02T10:19:46.999Z</time></trkpt><trkpt lat="44.052072999805276" lon="10.188140567669441"><ele>335.0</ele><time>2026-05-02T10:19:47.999Z</time></trkpt><trkpt lat="44.0521059222398" lon="10.187966110251786"><ele>335.0</ele><time>2026-05-02T10:19:48.999Z</time></trkpt><trkpt lat="44.0521383666037" lon="10.187771366870669"><ele>337.33333333333337</ele><time>2026-05-02T10:19:49.999Z</time></trkpt><trkpt lat="44.05217515764961" lon="10.187571844729097"><ele>339.6666666666667</ele><time>2026-05-02T10:19:50.999Z</time></trkpt><trkpt lat="44.05221484017964" lon="10.187359113790713"><ele>342.0</ele><time>2026-05-02T10:19:51.999Z</time></trkpt><trkpt lat="44.05225705075121" lon="10.18713629668355"><ele>342.0</ele><time>2026-05-02T10:19:52.999Z</time></trkpt><trkpt lat="44.05229110649299" lon="10.186908465432726"><ele>342.0</ele><time>2026-05-02T10:19:53.999Z</time></trkpt><trkpt lat="44.052309022587536" lon="10.186682120081104"><ele>342.0</ele><time>2026-05-02T10:19:54.999Z</time></trkpt><trkpt lat="44.052316639759205" lon="10.18645574114213"><ele>351.0</ele><time>2026-05-02T10:19:55.999Z</time></trkpt><trkpt lat="44.052335574226" lon="10.186231187309971"><ele>360.0</ele><time>2026-05-02T10:19:56.999Z</time></trkpt><trkpt lat="44.05236522116613" lon="10.186013008247837"><ele>369.0</ele><time>2026-05-02T10:19:57.999Z</time></trkpt><trkpt lat="44.052391738151556" lon="10.185789562460748"><ele>370.3333333333333</ele><time>2026-05-02T10:19:58.999Z</time></trkpt><trkpt lat="44.052396919231256" lon="10.185583105817905"><ele>371.66666666666663</ele><time>2026-05-02T10:19:59.999Z</time></trkpt><trkpt lat="44.05236243666032" lon="10.185359947899055"><ele>373.0</ele><time>2026-05-02T10:20:00.999Z</time></trkpt><trkpt lat="44.052326078061036" lon="10.18514440779631"><ele>373.0</ele><time>2026-05-02T10:20:01.999Z</time></trkpt><trkpt lat="44.05229479322118" lon="10.184940055913563"><ele>373.0</ele><time>2026-05-02T10:20:02.999Z</time></trkpt><trkpt lat="44.052281214299384" lon="10.184753797723605"><ele>373.0</ele><time>2026-05-02T10:20:03.999Z</time></trkpt><trkpt lat="44.052298428977785" lon="10.184579332685232"><ele>373.0</ele><time>2026-05-02T10:20:04.999Z</time></trkpt><trkpt lat="44.052323309389834" lon="10.184423871374799"><ele>367.25</ele><time>2026-05-02T10:20:05.999Z</time></trkpt><trkpt lat="44.05230998654747" lon="10.18426091823654"><ele>361.5</ele><time>2026-05-02T10:20:06.999Z</time></trkpt><trkpt lat="44.05226324486097" lon="10.184098188505814"><ele>355.75</ele><time>2026-05-02T10:20:07.999Z</time></trkpt><trkpt lat="44.05219881752602" lon="10.183946088559296"><ele>350.0</ele><time>2026-05-02T10:20:08.999Z</time></trkpt><trkpt lat="44.05212027589405" lon="10.183826361736411"><ele>345.25</ele><time>2026-05-02T10:20:09.999Z</time></trkpt><trkpt lat="44.052032821890606" lon="10.183729049974213"><ele>340.5</ele><time>2026-05-02T10:20:10.999Z</time></trkpt><trkpt lat="44.05193245582484" lon="10.183637672851605"><ele>335.75</ele><time>2026-05-02T10:20:11.999Z</time></trkpt><trkpt lat="44.051821404102405" lon="10.183560744826261"><ele>331.0</ele><time>2026-05-02T10:20:12.999Z</time></trkpt><trkpt lat="44.051721066424584" lon="10.183472631657084"><ele>331.0</ele><time>2026-05-02T10:20:13.999Z</time></trkpt><trkpt lat="44.051656706405495" lon="10.183348910378015"><ele>331.0</ele><time>2026-05-02T10:20:14.999Z</time></trkpt><trkpt lat="44.051635150770096" lon="10.183209445638687"><ele>331.0</ele><time>2026-05-02T10:20:15.999Z</time></trkpt><trkpt lat="44.051660532107434" lon="10.183079486945271"><ele>331.0</ele><time>2026-05-02T10:20:16.999Z</time></trkpt><trkpt lat="44.05171925470573" lon="10.182984703866133"><ele>331.0</ele><time>2026-05-02T10:20:17.999Z</time></trkpt><trkpt lat="44.05180499421012" lon="10.182897245690338"><ele>337.25</ele><time>2026-05-02T10:20:18.999Z</time></trkpt><trkpt lat="44.05191048688726" lon="10.182823754809668"><ele>343.5</ele><time>2026-05-02T10:20:19.999Z</time></trkpt><trkpt lat="44.05202021687445" lon="10.182743919943396"><ele>349.75</ele><time>2026-05-02T10:20:20.999Z</time></trkpt><trkpt lat="44.0521323611258" lon="10.182670057676079"><ele>356.0</ele><time>2026-05-02T10:20:21.999Z</time></trkpt><trkpt lat="44.05224238274548" lon="10.182629584159315"><ele>356.0</ele><time>2026-05-02T10:20:22.999Z</time></trkpt><trkpt lat="44.05233925362903" lon="10.182588555360173"><ele>356.0</ele><time>2026-05-02T10:20:23.999Z</time></trkpt><trkpt lat="44.05240963528786" lon="10.18249589706166"><ele>356.0</ele><time>2026-05-02T10:20:24.999Z</time></trkpt><trkpt lat="44.05244505630931" lon="10.182369474872768"><ele>356.0</ele><time>2026-05-02T10:20:25.999Z</time></trkpt><trkpt lat="44.05243981063867" lon="10.182218730371936"><ele>356.0</ele><time>2026-05-02T10:20:26.999Z</time></trkpt><trkpt lat="44.0523985103216" lon="10.182061963189712"><ele>355.75</ele><time>2026-05-02T10:20:27.999Z</time></trkpt><trkpt lat="44.0523157343127" lon="10.181913555045396"><ele>355.5</ele><time>2026-05-02T10:20:28.999Z</time></trkpt><trkpt lat="44.052221480746454" lon="10.181767962089125"><ele>355.25</ele><time>2026-05-02T10:20:29.999Z</time></trkpt><trkpt lat="44.0521172002979" lon="10.181621504692316"><ele>355.0</ele><time>2026-05-02T10:20:30.999Z</time></trkpt><trkpt lat="44.05204384474514" lon="10.18144143531689"><ele>355.0</ele><time>2026-05-02T10:20:31.999Z</time></trkpt><trkpt lat="44.05197767108747" lon="10.181279143891649"><ele>355.0</ele><time>2026-05-02T10:20:32.999Z</time></trkpt><trkpt lat="44.0519185752436" lon="10.181132289295014"><ele>355.0</ele><time>2026-05-02T10:20:33.999Z</time></trkpt><trkpt lat="44.05186912132724" lon="10.181002735896442"><ele>355.0</ele><time>2026-05-02T10:20:34.999Z</time></trkpt><trkpt lat="44.05182856077207" lon="10.180891210508516"><ele>355.0</ele><time>2026-05-02T10:20:35.999Z</time></trkpt><trkpt lat="44.05180406861385" lon="10.180774611090957"><ele>355.0</ele><time>2026-05-02T10:20:36.999Z</time></trkpt><trkpt lat="44.0518014362067" lon="10.180658002116871"><ele>355.0</ele><time>2026-05-02T10:20:37.999Z</time></trkpt><trkpt lat="44.0518132291799" lon="10.180540340288708"><ele>355.0</ele><time>2026-05-02T10:20:38.999Z</time></trkpt><trkpt lat="44.05183550631911" lon="10.180424586977997"><ele>355.0</ele><time>2026-05-02T10:20:39.999Z</time></trkpt><trkpt lat="44.05188355659066" lon="10.180322235450747"><ele>355.0</ele><time>2026-05-02T10:20:40.999Z</time></trkpt><trkpt lat="44.05195255765844" lon="10.180248173870734"><ele>356.0</ele><time>2026-05-02T10:20:41.999Z</time></trkpt><trkpt lat="44.05202877260824" lon="10.18018043062594"><ele>357.0</ele><time>2026-05-02T10:20:42.999Z</time></trkpt><trkpt lat="44.0521110867372" lon="10.180105306229938"><ele>358.0</ele><time>2026-05-02T10:20:43.999Z</time></trkpt><trkpt lat="44.0521942466023" lon="10.180018248341035"><ele>359.0</ele><time>2026-05-02T10:20:44.999Z</time></trkpt><trkpt lat="44.05227422562687" lon="10.179929710228235"><ele>360.0</ele><time>2026-05-02T10:20:45.999Z</time></trkpt><trkpt lat="44.05235728524484" lon="10.179857758997452"><ele>364.0</ele><time>2026-05-02T10:20:46.999Z</time></trkpt><trkpt lat="44.05243688245365" lon="10.179787237093887"><ele>368.0</ele><time>2026-05-02T10:20:47.999Z</time></trkpt><trkpt lat="44.052505572259065" lon="10.179697038461793"><ele>372.0</ele><time>2026-05-02T10:20:48.999Z</time></trkpt><trkpt lat="44.05255540805511" lon="10.179583280902344"><ele>376.0</ele><time>2026-05-02T10:20:49.999Z</time></trkpt><trkpt lat="44.05258265511803" lon="10.179445961890618"><ele>380.0</ele><time>2026-05-02T10:20:50.999Z</time></trkpt><trkpt lat="44.05258420802354" lon="10.179293142459684"><ele>383.0</ele><time>2026-05-02T10:20:51.999Z</time></trkpt><trkpt lat="44.05254883291227" lon="10.17913382544916"><ele>386.0</ele><time>2026-05-02T10:20:52.999Z</time></trkpt><trkpt lat="44.052514612496246" lon="10.178977487673015"><ele>389.0</ele><time>2026-05-02T10:20:53.999Z</time></trkpt><trkpt lat="44.052492682402445" lon="10.17883204474225"><ele>392.0</ele><time>2026-05-02T10:20:54.999Z</time></trkpt><trkpt lat="44.052469623381405" lon="10.178689562391028"><ele>395.0</ele><time>2026-05-02T10:20:55.999Z</time></trkpt><trkpt lat="44.052444533572896" lon="10.17854339079435"><ele>395.0</ele><time>2026-05-02T10:20:56.999Z</time></trkpt><trkpt lat="44.05242489403235" lon="10.17839920061704"><ele>395.0</ele><time>2026-05-02T10:20:57.999Z</time></trkpt><trkpt lat="44.052411055255256" lon="10.178260152149525"><ele>395.0</ele><time>2026-05-02T10:20:58.999Z</time></trkpt><trkpt lat="44.05241427131479" lon="10.178127753068084"><ele>395.0</ele><time>2026-05-02T10:20:59.999Z</time></trkpt><trkpt lat="44.05243407474889" lon="10.178003901559011"><ele>395.0</ele><time>2026-05-02T10:21:00.999Z</time></trkpt><trkpt lat="44.0524544397221" lon="10.17788165569977"><ele>386.6</ele><time>2026-05-02T10:21:01.999Z</time></trkpt><trkpt lat="44.05250265368027" lon="10.177770912422988"><ele>378.2</ele><time>2026-05-02T10:21:02.999Z</time></trkpt><trkpt lat="44.05256488246222" lon="10.177668274717346"><ele>369.79999999999995</ele><time>2026-05-02T10:21:03.999Z</time></trkpt><trkpt lat="44.05264670953999" lon="10.177586751484693"><ele>361.4</ele><time>2026-05-02T10:21:04.999Z</time></trkpt><trkpt lat="44.052738543463086" lon="10.17751687077677"><ele>353.0</ele><time>2026-05-02T10:21:05.999Z</time></trkpt><trkpt lat="44.05281840098732" lon="10.177453545185118"><ele>353.0</ele><time>2026-05-02T10:21:06.999Z</time></trkpt><trkpt lat="44.05288177696414" lon="10.177378864609182"><ele>353.0</ele><time>2026-05-02T10:21:07.999Z</time></trkpt><trkpt lat="44.05293763925083" lon="10.177270472422562"><ele>353.0</ele><time>2026-05-02T10:21:08.999Z</time></trkpt><trkpt lat="44.05297308214784" lon="10.177145206488037"><ele>353.0</ele><time>2026-05-02T10:21:09.999Z</time></trkpt><trkpt lat="44.0530032063478" lon="10.177022966509615"><ele>353.0</ele><time>2026-05-02T10:21:10.999Z</time></trkpt><trkpt lat="44.05304580382051" lon="10.17692506846067"><ele>356.0</ele><time>2026-05-02T10:21:11.999Z</time></trkpt><trkpt lat="44.05311031089817" lon="10.176863294131229"><ele>359.0</ele><time>2026-05-02T10:21:12.999Z</time></trkpt><trkpt lat="44.05318890693002" lon="10.176835441256841"><ele>362.0</ele><time>2026-05-02T10:21:13.999Z</time></trkpt><trkpt lat="44.05327486095025" lon="10.176819065818382"><ele>365.0</ele><time>2026-05-02T10:21:14.999Z</time></trkpt><trkpt lat="44.053364987871156" lon="10.176796773930596"><ele>368.0</ele><time>2026-05-02T10:21:15.999Z</time></trkpt><trkpt lat="44.05345891586755" lon="10.176772000201675"><ele>371.0</ele><time>2026-05-02T10:21:16.999Z</time></trkpt><trkpt lat="44.05355091016702" lon="10.176738753879567"><ele>368.20000000000005</ele><time>2026-05-02T10:21:17.999Z</time></trkpt><trkpt lat="44.05364274624045" lon="10.17669443444715"><ele>365.40000000000003</ele><time>2026-05-02T10:21:18.999Z</time></trkpt><trkpt lat="44.05373612948955" lon="10.176634899073356"><ele>362.6</ele><time>2026-05-02T10:21:19.999Z</time></trkpt><trkpt lat="44.053825061528066" lon="10.176561943196715"><ele>359.8</ele><time>2026-05-02T10:21:20.999Z</time></trkpt><trkpt lat="44.05390484799061" lon="10.176470542116592"><ele>357.0</ele><time>2026-05-02T10:21:21.999Z</time></trkpt><trkpt lat="44.0539663972537" lon="10.17635443431768"><ele>357.0</ele><time>2026-05-02T10:21:22.999Z</time></trkpt><trkpt lat="44.054005380896754" lon="10.176228370371454"><ele>357.0</ele><time>2026-05-02T10:21:23.999Z</time></trkpt><trkpt lat="44.054030947730574" lon="10.17610582159322"><ele>357.0</ele><time>2026-05-02T10:21:24.999Z</time></trkpt><trkpt lat="44.054049413684794" lon="10.175993610547541"><ele>357.0</ele><time>2026-05-02T10:21:25.999Z</time></trkpt><trkpt lat="44.05406396358385" lon="10.175890329672873"><ele>357.0</ele><time>2026-05-02T10:21:26.999Z</time></trkpt><trkpt lat="44.05407885542852" lon="10.175790632154747"><ele>357.0</ele><time>2026-05-02T10:21:27.999Z</time></trkpt><trkpt lat="44.05408744257812" lon="10.175694374478521"><ele>353.6</ele><time>2026-05-02T10:21:28.999Z</time></trkpt><trkpt lat="44.05408614401611" lon="10.175602803157267"><ele>350.20000000000005</ele><time>2026-05-02T10:21:29.999Z</time></trkpt><trkpt lat="44.05405952776382" lon="10.175433621163844"><ele>346.8</ele><time>2026-05-02T10:21:31.999Z</time></trkpt><trkpt lat="44.054018189100546" lon="10.175281684364144"><ele>343.4</ele><time>2026-05-02T10:21:33.999Z</time></trkpt><trkpt lat="44.05395508019657" lon="10.175134520456407"><ele>340.0</ele><time>2026-05-02T10:21:35.999Z</time></trkpt><trkpt lat="44.05391333999429" lon="10.175065826276516"><ele>340.0</ele><time>2026-05-02T10:21:36.999Z</time></trkpt><trkpt lat="44.053860866081024" lon="10.174994329338276"><ele>340.0</ele><time>2026-05-02T10:21:37.999Z</time></trkpt><trkpt lat="44.05379347275529" lon="10.17492719422095"><ele>340.0</ele><time>2026-05-02T10:21:38.999Z</time></trkpt><trkpt lat="44.053717015244615" lon="10.174872473269874"><ele>340.0</ele><time>2026-05-02T10:21:39.999Z</time></trkpt><trkpt lat="44.05364867718554" lon="10.174791950116582"><ele>340.0</ele><time>2026-05-02T10:21:40.999Z</time></trkpt><trkpt lat="44.0535601334666" lon="10.174751944781727"><ele>340.0</ele><time>2026-05-02T10:21:42Z</time></trkpt><trkpt lat="44.05348295659711" lon="10.174673378661842"><ele>342.4</ele><time>2026-05-02T10:21:43Z</time></trkpt><trkpt lat="44.05339364073359" lon="10.174615492249515"><ele>344.8</ele><time>2026-05-02T10:21:44Z</time></trkpt><trkpt lat="44.05328619673048" lon="10.174556140365198"><ele>347.20000000000005</ele><time>2026-05-02T10:21:45Z</time></trkpt><trkpt lat="44.05317348497288" lon="10.174496650667457"><ele>349.6</ele><time>2026-05-02T10:21:46Z</time></trkpt><trkpt lat="44.053080702540576" lon="10.174440981658174"><ele>352.0</ele><time>2026-05-02T10:21:47Z</time></trkpt><trkpt lat="44.0530211658854" lon="10.174344563158112"><ele>352.0</ele><time>2026-05-02T10:21:48Z</time></trkpt><trkpt lat="44.05299698727689" lon="10.174230854993475"><ele>352.0</ele><time>2026-05-02T10:21:49Z</time></trkpt><trkpt lat="44.05300131129443" lon="10.174103902458075"><ele>352.0</ele><time>2026-05-02T10:21:50Z</time></trkpt><trkpt lat="44.053019634708306" lon="10.17397866338958"><ele>352.0</ele><time>2026-05-02T10:21:51Z</time></trkpt><trkpt lat="44.05304931662475" lon="10.173842848627809"><ele>352.0</ele><time>2026-05-02T10:21:52Z</time></trkpt><trkpt lat="44.05307229555507" lon="10.17372025535491"><ele>349.8333333333333</ele><time>2026-05-02T10:21:53Z</time></trkpt><trkpt lat="44.05308719686583" lon="10.17361431632801"><ele>347.66666666666663</ele><time>2026-05-02T10:21:54Z</time></trkpt><trkpt lat="44.053087113232195" lon="10.173514228787171"><ele>345.5</ele><time>2026-05-02T10:21:55Z</time></trkpt><trkpt lat="44.05307132832045" lon="10.173421083330968"><ele>343.3333333333333</ele><time>2026-05-02T10:21:56Z</time></trkpt><trkpt lat="44.05303745115235" lon="10.173335930512913"><ele>341.1666666666667</ele><time>2026-05-02T10:21:57Z</time></trkpt><trkpt lat="44.05298314085364" lon="10.173265638106539"><ele>339.0</ele><time>2026-05-02T10:21:58Z</time></trkpt><trkpt lat="44.05288705962277" lon="10.173190616972255"><ele>333.5</ele><time>2026-05-02T10:21:59Z</time></trkpt><trkpt lat="44.05279263958842" lon="10.173107870814809"><ele>328.0</ele><time>2026-05-02T10:22:00Z</time></trkpt><trkpt lat="44.05268940448286" lon="10.173015198915458"><ele>322.5</ele><time>2026-05-02T10:22:01Z</time></trkpt><trkpt lat="44.05257959706856" lon="10.1729091967654"><ele>317.0</ele><time>2026-05-02T10:22:02Z</time></trkpt><trkpt lat="44.05245719064004" lon="10.172803797272751"><ele>318.5</ele><time>2026-05-02T10:22:03Z</time></trkpt><trkpt lat="44.05234421545878" lon="10.172719676266912"><ele>320.0</ele><time>2026-05-02T10:22:04Z</time></trkpt><trkpt lat="44.0522395228261" lon="10.172622830798124"><ele>321.5</ele><time>2026-05-02T10:22:05Z</time></trkpt><trkpt lat="44.05216034239443" lon="10.172487521846492"><ele>323.0</ele><time>2026-05-02T10:22:06Z</time></trkpt><trkpt lat="44.05207764313236" lon="10.172346799776637"><ele>323.0</ele><time>2026-05-02T10:22:07Z</time></trkpt><trkpt lat="44.05197768357971" lon="10.172220666353788"><ele>323.0</ele><time>2026-05-02T10:22:08Z</time></trkpt><trkpt lat="44.0518994617264" lon="10.172074193662633"><ele>323.0</ele><time>2026-05-02T10:22:09Z</time></trkpt><trkpt lat="44.05182386652925" lon="10.171943359758313"><ele>323.0</ele><time>2026-05-02T10:22:10Z</time></trkpt><trkpt lat="44.0517635029049" lon="10.171817911258307"><ele>323.0</ele><time>2026-05-02T10:22:11Z</time></trkpt><trkpt lat="44.05172201907688" lon="10.171690028463384"><ele>323.0</ele><time>2026-05-02T10:22:12Z</time></trkpt><trkpt lat="44.05168532667198" lon="10.171566011664238"><ele>323.0</ele><time>2026-05-02T10:22:13Z</time></trkpt><trkpt lat="44.05163615738033" lon="10.171461776672798"><ele>323.0</ele><time>2026-05-02T10:22:14Z</time></trkpt><trkpt lat="44.0515721746328" lon="10.171368531175004"><ele>323.0</ele><time>2026-05-02T10:22:15Z</time></trkpt><trkpt lat="44.05149693272535" lon="10.171289834799769"><ele>321.79999999999995</ele><time>2026-05-02T10:22:16Z</time></trkpt><trkpt lat="44.051411921605265" lon="10.171220221536842"><ele>320.59999999999997</ele><time>2026-05-02T10:22:17Z</time></trkpt><trkpt lat="44.051333440652684" lon="10.171135884151518"><ele>319.4</ele><time>2026-05-02T10:22:18Z</time></trkpt><trkpt lat="44.05125283268854" lon="10.17107053378665"><ele>318.2</ele><time>2026-05-02T10:22:19Z</time></trkpt><trkpt lat="44.05116934581597" lon="10.17100284944941"><ele>317.0</ele><time>2026-05-02T10:22:20Z</time></trkpt><trkpt lat="44.05107237321497" lon="10.170950037060027"><ele>317.0</ele><time>2026-05-02T10:22:21Z</time></trkpt><trkpt lat="44.05099004335791" lon="10.170853503604729"><ele>317.0</ele><time>2026-05-02T10:22:22Z</time></trkpt><trkpt lat="44.05089446725664" lon="10.170772305536001"><ele>317.0</ele><time>2026-05-02T10:22:23Z</time></trkpt><trkpt lat="44.050793783812615" lon="10.17068676845434"><ele>317.0</ele><time>2026-05-02T10:22:24Z</time></trkpt><trkpt lat="44.05069404807652" lon="10.170602556500253"><ele>317.25</ele><time>2026-05-02T10:22:25Z</time></trkpt><trkpt lat="44.05058235209517" lon="10.170530313064114"><ele>317.5</ele><time>2026-05-02T10:22:26Z</time></trkpt><trkpt lat="44.05047641305743" lon="10.170436756961422"><ele>317.75</ele><time>2026-05-02T10:22:27Z</time></trkpt><trkpt lat="44.050371373761166" lon="10.170356930913213"><ele>318.0</ele><time>2026-05-02T10:22:28Z</time></trkpt><trkpt lat="44.050272643912066" lon="10.17028153692811"><ele>318.0</ele><time>2026-05-02T10:22:29Z</time></trkpt><trkpt lat="44.050178890916" lon="10.170205369921927"><ele>318.0</ele><time>2026-05-02T10:22:30Z</time></trkpt><trkpt lat="44.05008707163205" lon="10.17010961290949"><ele>318.0</ele><time>2026-05-02T10:22:31Z</time></trkpt><trkpt lat="44.04999809605134" lon="10.169993455949664"><ele>318.0</ele><time>2026-05-02T10:22:32Z</time></trkpt><trkpt lat="44.04991715832121" lon="10.169859230670992"><ele>319.6</ele><time>2026-05-02T10:22:33Z</time></trkpt><trkpt lat="44.04984162228034" lon="10.169727297322131"><ele>321.20000000000005</ele><time>2026-05-02T10:22:34Z</time></trkpt><trkpt lat="44.04977198140629" lon="10.169612358695192"><ele>322.8</ele><time>2026-05-02T10:22:35Z</time></trkpt><trkpt lat="44.049699243797754" lon="10.16950493807378"><ele>324.40000000000003</ele><time>2026-05-02T10:22:36Z</time></trkpt><trkpt lat="44.04962988037971" lon="10.169407285551754"><ele>326.0</ele><time>2026-05-02T10:22:37Z</time></trkpt><trkpt lat="44.049568384322654" lon="10.169320605479875"><ele>326.0</ele><time>2026-05-02T10:22:38Z</time></trkpt><trkpt lat="44.0495165458343" lon="10.169238719229483"><ele>326.0</ele><time>2026-05-02T10:22:39Z</time></trkpt><trkpt lat="44.04946632422536" lon="10.16915385829299"><ele>326.0</ele><time>2026-05-02T10:22:40Z</time></trkpt><trkpt lat="44.04941605864137" lon="10.169064000616586"><ele>326.0</ele><time>2026-05-02T10:22:41Z</time></trkpt><trkpt lat="44.049362211165686" lon="10.168981411351448"><ele>326.0</ele><time>2026-05-02T10:22:42Z</time></trkpt><trkpt lat="44.04931039726521" lon="10.168906550091462"><ele>326.0</ele><time>2026-05-02T10:22:43Z</time></trkpt><trkpt lat="44.049257239803765" lon="10.168824132439298"><ele>323.0</ele><time>2026-05-02T10:22:44Z</time></trkpt><trkpt lat="44.049199969645514" lon="10.168732249415482"><ele>320.0</ele><time>2026-05-02T10:22:45Z</time></trkpt><trkpt lat="44.04913679101562" lon="10.168637545890967"><ele>317.0</ele><time>2026-05-02T10:22:46Z</time></trkpt><trkpt lat="44.049073243883576" lon="10.168541880908299"><ele>314.0</ele><time>2026-05-02T10:22:47Z</time></trkpt><trkpt lat="44.04901385742204" lon="10.168455546717157"><ele>311.0</ele><time>2026-05-02T10:22:48Z</time></trkpt><trkpt lat="44.04895603493615" lon="10.168379362271438"><ele>308.0</ele><time>2026-05-02T10:22:49Z</time></trkpt><trkpt lat="44.048907805348776" lon="10.168316967703534"><ele>312.6666666666667</ele><time>2026-05-02T10:22:50Z</time></trkpt><trkpt lat="44.04886544085929" lon="10.168218738364803"><ele>317.33333333333337</ele><time>2026-05-02T10:22:52Z</time></trkpt><trkpt lat="44.04882542255667" lon="10.16813068656822"><ele>322.0</ele><time>2026-05-02T10:22:54Z</time></trkpt><trkpt lat="44.04879542258673" lon="10.168044522119455"><ele>326.6666666666667</ele><time>2026-05-02T10:22:55Z</time></trkpt><trkpt lat="44.048748345909516" lon="10.167934044040408"><ele>331.3333333333333</ele><time>2026-05-02T10:22:56Z</time></trkpt><trkpt lat="44.04871203562544" lon="10.16781793867341"><ele>336.0</ele><time>2026-05-02T10:22:57Z</time></trkpt><trkpt lat="44.04867975155424" lon="10.167703906415122"><ele>336.0</ele><time>2026-05-02T10:22:58Z</time></trkpt><trkpt lat="44.04865669145686" lon="10.167592558624694"><ele>336.0</ele><time>2026-05-02T10:22:59Z</time></trkpt><trkpt lat="44.04863879108164" lon="10.16748660853522"><ele>336.0</ele><time>2026-05-02T10:23:00Z</time></trkpt><trkpt lat="44.04862928221761" lon="10.167386932408107"><ele>336.0</ele><time>2026-05-02T10:23:01Z</time></trkpt><trkpt lat="44.04862402294624" lon="10.167289484927508"><ele>336.0</ele><time>2026-05-02T10:23:02Z</time></trkpt><trkpt lat="44.048620047298854" lon="10.167197284340775"><ele>336.0</ele><time>2026-05-02T10:23:03Z</time></trkpt><trkpt lat="44.048615222982775" lon="10.167033414271215"><ele>334.1666666666667</ele><time>2026-05-02T10:23:05Z</time></trkpt><trkpt lat="44.048634036854686" lon="10.166878942072692"><ele>332.3333333333333</ele><time>2026-05-02T10:23:07Z</time></trkpt><trkpt lat="44.04866137401078" lon="10.166716636423658"><ele>330.5</ele><time>2026-05-02T10:23:09Z</time></trkpt><trkpt lat="44.04868068225549" lon="10.166630759294362"><ele>328.66666666666663</ele><time>2026-05-02T10:23:10Z</time></trkpt><trkpt lat="44.04870441347461" lon="10.166547486413648"><ele>326.8333333333333</ele><time>2026-05-02T10:23:11Z</time></trkpt><trkpt lat="44.04873018906337" lon="10.166466757856673"><ele>325.0</ele><time>2026-05-02T10:23:12Z</time></trkpt><trkpt lat="44.048758875510856" lon="10.166388457935053"><ele>322.8</ele><time>2026-05-02T10:23:13Z</time></trkpt><trkpt lat="44.048811636966235" lon="10.16623489947019"><ele>320.6</ele><time>2026-05-02T10:23:15Z</time></trkpt><trkpt lat="44.048880824343165" lon="10.16612507389425"><ele>318.4</ele><time>2026-05-02T10:23:17Z</time></trkpt><trkpt lat="44.04887487110017" lon="10.166026381389349"><ele>316.2</ele><time>2026-05-02T10:23:39.999Z</time></trkpt><trkpt lat="44.048825094391276" lon="10.166133808059602"><ele>314.0</ele><time>2026-05-02T10:23:43.999Z</time></trkpt><trkpt lat="44.04878823408262" lon="10.16628674261031"><ele>314.0</ele><time>2026-05-02T10:23:45.999Z</time></trkpt><trkpt lat="44.04873686731006" lon="10.166434017279428"><ele>314.0</ele><time>2026-05-02T10:23:48.001Z</time></trkpt><trkpt lat="44.04869443889196" lon="10.16650326245507"><ele>314.0</ele><time>2026-05-02T10:23:49.001Z</time></trkpt><trkpt lat="44.048670671801496" lon="10.166598373159232"><ele>314.0</ele><time>2026-05-02T10:23:50.001Z</time></trkpt><trkpt lat="44.048646664359076" lon="10.166695542024295"><ele>314.0</ele><time>2026-05-02T10:23:51.001Z</time></trkpt><trkpt lat="44.048611375446676" lon="10.166885558077363"><ele>316.2</ele><time>2026-05-02T10:23:52.001Z</time></trkpt><trkpt lat="44.04859605632361" lon="10.167008930694918"><ele>318.4</ele><time>2026-05-02T10:23:53.001Z</time></trkpt><trkpt lat="44.04858764622791" lon="10.167138859026906"><ele>320.6</ele><time>2026-05-02T10:23:54.001Z</time></trkpt><trkpt lat="44.04858726867553" lon="10.16727323563994"><ele>322.8</ele><time>2026-05-02T10:23:55.001Z</time></trkpt><trkpt lat="44.048594690025325" lon="10.167407760865332"><ele>325.0</ele><time>2026-05-02T10:23:56.001Z</time></trkpt><trkpt lat="44.048611848050584" lon="10.167540876087989"><ele>326.8333333333333</ele><time>2026-05-02T10:23:57.001Z</time></trkpt><trkpt lat="44.04863353169199" lon="10.167670503968774"><ele>328.66666666666663</ele><time>2026-05-02T10:23:58.001Z</time></trkpt><trkpt lat="44.0486648202016" lon="10.167793834566535"><ele>330.5</ele><time>2026-05-02T10:23:59.001Z</time></trkpt><trkpt lat="44.04869789528241" lon="10.167907964841875"><ele>332.3333333333333</ele><time>2026-05-02T10:24:00.001Z</time></trkpt><trkpt lat="44.04873240596449" lon="10.168012140937632"><ele>334.1666666666667</ele><time>2026-05-02T10:24:01.001Z</time></trkpt><trkpt lat="44.04878443978626" lon="10.168108098743838"><ele>336.0</ele><time>2026-05-02T10:24:02.001Z</time></trkpt><trkpt lat="44.04882966194426" lon="10.168185573358741"><ele>339.0</ele><time>2026-05-02T10:24:03.001Z</time></trkpt><trkpt lat="44.048899511979165" lon="10.168250896366478"><ele>342.0</ele><time>2026-05-02T10:24:04.001Z</time></trkpt><trkpt lat="44.048985205043074" lon="10.168331095146645"><ele>345.0</ele><time>2026-05-02T10:24:05.001Z</time></trkpt><trkpt lat="44.049084537868" lon="10.168420255799617"><ele>348.0</ele><time>2026-05-02T10:24:06.001Z</time></trkpt><trkpt lat="44.049178762009795" lon="10.16849974745797"><ele>351.0</ele><time>2026-05-02T10:24:07.001Z</time></trkpt><trkpt lat="44.04928588576561" lon="10.16858881158971"><ele>340.25</ele><time>2026-05-02T10:24:08.001Z</time></trkpt><trkpt lat="44.049395939094985" lon="10.168675109552057"><ele>329.5</ele><time>2026-05-02T10:24:09.001Z</time></trkpt><trkpt lat="44.049505711120034" lon="10.168763863616277"><ele>318.75</ele><time>2026-05-02T10:24:10.001Z</time></trkpt><trkpt lat="44.0496115764519" lon="10.168860000552069"><ele>308.0</ele><time>2026-05-02T10:24:11.001Z</time></trkpt><trkpt lat="44.049717880202174" lon="10.168954043321454"><ele>305.75</ele><time>2026-05-02T10:24:12.001Z</time></trkpt><trkpt lat="44.04982917723039" lon="10.16903903242234"><ele>303.5</ele><time>2026-05-02T10:24:13.001Z</time></trkpt><trkpt lat="44.049943766589706" lon="10.169119209941295"><ele>301.25</ele><time>2026-05-02T10:24:14.001Z</time></trkpt><trkpt lat="44.05005303600967" lon="10.169187060155643"><ele>299.0</ele><time>2026-05-02T10:24:15Z</time></trkpt><trkpt lat="44.05015080286544" lon="10.16924720590269"><ele>299.0</ele><time>2026-05-02T10:24:16Z</time></trkpt><trkpt lat="44.05023153064321" lon="10.169302825448836"><ele>299.0</ele><time>2026-05-02T10:24:17Z</time></trkpt><trkpt lat="44.050305500720945" lon="10.169360727114988"><ele>299.0</ele><time>2026-05-02T10:24:18Z</time></trkpt><trkpt lat="44.050394450165456" lon="10.169404367931325"><ele>299.0</ele><time>2026-05-02T10:24:19Z</time></trkpt><trkpt lat="44.05049051453423" lon="10.169411438474059"><ele>299.0</ele><time>2026-05-02T10:24:20Z</time></trkpt><trkpt lat="44.05060795701528" lon="10.169397384575378"><ele>299.0</ele><time>2026-05-02T10:24:21Z</time></trkpt><trkpt lat="44.05072409930251" lon="10.169397210686935"><ele>299.0</ele><time>2026-05-02T10:24:22Z</time></trkpt><trkpt lat="44.050837144302704" lon="10.169400387327169"><ele>299.0</ele><time>2026-05-02T10:24:23Z</time></trkpt><trkpt lat="44.05095385491482" lon="10.169388311039699"><ele>299.0</ele><time>2026-05-02T10:24:24Z</time></trkpt><trkpt lat="44.0510676098007" lon="10.16936765506373"><ele>295.8</ele><time>2026-05-02T10:24:25Z</time></trkpt><trkpt lat="44.051179976678206" lon="10.169338150319872"><ele>292.59999999999997</ele><time>2026-05-02T10:24:26Z</time></trkpt><trkpt lat="44.05128868055612" lon="10.16930858897935"><ele>289.4</ele><time>2026-05-02T10:24:27Z</time></trkpt><trkpt lat="44.051398704309676" lon="10.169303752625721"><ele>286.2</ele><time>2026-05-02T10:24:28Z</time></trkpt><trkpt lat="44.051504637463005" lon="10.169322435694966"><ele>283.0</ele><time>2026-05-02T10:24:29Z</time></trkpt><trkpt lat="44.05160237891895" lon="10.169375348539429"><ele>281.8</ele><time>2026-05-02T10:24:30Z</time></trkpt><trkpt lat="44.0516960169447" lon="10.169440628642231"><ele>280.6</ele><time>2026-05-02T10:24:31Z</time></trkpt><trkpt lat="44.05177399508042" lon="10.169542390253117"><ele>279.4</ele><time>2026-05-02T10:24:32Z</time></trkpt><trkpt lat="44.051833903227795" lon="10.169665618193177"><ele>278.2</ele><time>2026-05-02T10:24:33Z</time></trkpt><trkpt lat="44.05188170758694" lon="10.16980470928891"><ele>277.0</ele><time>2026-05-02T10:24:34Z</time></trkpt><trkpt lat="44.05193538357484" lon="10.169931259576305"><ele>279.4</ele><time>2026-05-02T10:24:35Z</time></trkpt><trkpt lat="44.05200106033247" lon="10.17004475831818"><ele>281.79999999999995</ele><time>2026-05-02T10:24:36Z</time></trkpt><trkpt lat="44.05208690659187" lon="10.17012657198312"><ele>284.2</ele><time>2026-05-02T10:24:37Z</time></trkpt><trkpt lat="44.05217844855409" lon="10.170173638867983"><ele>286.59999999999997</ele><time>2026-05-02T10:24:38Z</time></trkpt><trkpt lat="44.05228406775959" lon="10.170192618821948"><ele>289.0</ele><time>2026-05-02T10:24:39Z</time></trkpt><trkpt lat="44.052396039257594" lon="10.170213072634649"><ele>284.4</ele><time>2026-05-02T10:24:40Z</time></trkpt><trkpt lat="44.05251123817299" lon="10.170221528481033"><ele>279.79999999999995</ele><time>2026-05-02T10:24:41Z</time></trkpt><trkpt lat="44.05262025678579" lon="10.17025468587378"><ele>275.20000000000005</ele><time>2026-05-02T10:24:42Z</time></trkpt><trkpt lat="44.05271665452719" lon="10.170302654983844"><ele>270.6</ele><time>2026-05-02T10:24:43Z</time></trkpt><trkpt lat="44.05278830300947" lon="10.170376217222042"><ele>266.0</ele><time>2026-05-02T10:24:44Z</time></trkpt><trkpt lat="44.05284496528561" lon="10.170489455715424"><ele>266.0</ele><time>2026-05-02T10:24:45Z</time></trkpt><trkpt lat="44.05290672474109" lon="10.170596105063066"><ele>266.0</ele><time>2026-05-02T10:24:46Z</time></trkpt><trkpt lat="44.05296519643816" lon="10.17069452208586"><ele>266.0</ele><time>2026-05-02T10:24:47Z</time></trkpt><trkpt lat="44.05302154462187" lon="10.17078726141187"><ele>266.0</ele><time>2026-05-02T10:24:48Z</time></trkpt><trkpt lat="44.053075108507805" lon="10.170873113851549"><ele>266.0</ele><time>2026-05-02T10:24:49Z</time></trkpt><trkpt lat="44.05312147385136" lon="10.170960205383464"><ele>266.0</ele><time>2026-05-02T10:24:50Z</time></trkpt><trkpt lat="44.053172166967705" lon="10.171026009900372"><ele>266.0</ele><time>2026-05-02T10:24:51Z</time></trkpt><trkpt lat="44.053274626959826" lon="10.171025141215361"><ele>266.0</ele><time>2026-05-02T10:24:53Z</time></trkpt><trkpt lat="44.053307851432386" lon="10.17094827030141"><ele>266.0</ele><time>2026-05-02T10:24:54Z</time></trkpt><trkpt lat="44.0533276990657" lon="10.170833854691024"><ele>266.0</ele><time>2026-05-02T10:24:55Z</time></trkpt><trkpt lat="44.05330745338756" lon="10.1707018813267"><ele>266.0</ele><time>2026-05-02T10:24:56Z</time></trkpt><trkpt lat="44.05327827700971" lon="10.170547391175383"><ele>266.0</ele><time>2026-05-02T10:24:57Z</time></trkpt><trkpt lat="44.05325081960574" lon="10.170370740516077"><ele>266.0</ele><time>2026-05-02T10:24:58Z</time></trkpt><trkpt lat="44.05322742999129" lon="10.170198807136394"><ele>266.0</ele><time>2026-05-02T10:24:59Z</time></trkpt><trkpt lat="44.05319557259932" lon="10.170038264383027"><ele>266.0</ele><time>2026-05-02T10:25:00Z</time></trkpt><trkpt lat="44.053166211264575" lon="10.169879414119828"><ele>262.5</ele><time>2026-05-02T10:25:01Z</time></trkpt><trkpt lat="44.05312288265222" lon="10.169717379052038"><ele>259.0</ele><time>2026-05-02T10:25:02Z</time></trkpt><trkpt lat="44.05307195686909" lon="10.169558200743536"><ele>255.5</ele><time>2026-05-02T10:25:03Z</time></trkpt><trkpt lat="44.05300258885641" lon="10.169406098178403"><ele>252.0</ele><time>2026-05-02T10:25:04Z</time></trkpt><trkpt lat="44.0529270463746" lon="10.16926010797121"><ele>252.0</ele><time>2026-05-02T10:25:05Z</time></trkpt><trkpt lat="44.052848356494955" lon="10.169109122416456"><ele>252.0</ele><time>2026-05-02T10:25:06Z</time></trkpt><trkpt lat="44.05277400910505" lon="10.16895469049752"><ele>252.0</ele><time>2026-05-02T10:25:07Z</time></trkpt><trkpt lat="44.05269930922643" lon="10.16880575112845"><ele>252.0</ele><time>2026-05-02T10:25:08Z</time></trkpt><trkpt lat="44.052631609057286" lon="10.168654138893737"><ele>247.0</ele><time>2026-05-02T10:25:09Z</time></trkpt><trkpt lat="44.05257621184872" lon="10.16849603809941"><ele>242.0</ele><time>2026-05-02T10:25:10Z</time></trkpt><trkpt lat="44.05252923480396" lon="10.168330392142483"><ele>237.0</ele><time>2026-05-02T10:25:11Z</time></trkpt><trkpt lat="44.052479117169746" lon="10.168178936252787"><ele>232.0</ele><time>2026-05-02T10:25:12Z</time></trkpt><trkpt lat="44.052428467663006" lon="10.168038275564413"><ele>231.39999999999998</ele><time>2026-05-02T10:25:13Z</time></trkpt><trkpt lat="44.052391636650746" lon="10.167914674377862"><ele>230.79999999999998</ele><time>2026-05-02T10:25:14Z</time></trkpt><trkpt lat="44.052356640836535" lon="10.167803368570588"><ele>230.2</ele><time>2026-05-02T10:25:15Z</time></trkpt><trkpt lat="44.05231307030679" lon="10.167706572512357"><ele>229.6</ele><time>2026-05-02T10:25:16Z</time></trkpt><trkpt lat="44.05224276101487" lon="10.167616308166151"><ele>229.0</ele><time>2026-05-02T10:25:17Z</time></trkpt><trkpt lat="44.05215809231011" lon="10.167536684275495"><ele>229.0</ele><time>2026-05-02T10:25:18Z</time></trkpt><trkpt lat="44.05206921332917" lon="10.167470522852602"><ele>228.99999999999997</ele><time>2026-05-02T10:25:19Z</time></trkpt><trkpt lat="44.05198317065107" lon="10.16740450714616"><ele>228.99999999999997</ele><time>2026-05-02T10:25:20Z</time></trkpt><trkpt lat="44.051899898768326" lon="10.167335390623819"><ele>229.0</ele><time>2026-05-02T10:25:21Z</time></trkpt><trkpt lat="44.051826853563725" lon="10.167180475823308"><ele>229.0</ele><time>2026-05-02T10:25:23Z</time></trkpt><trkpt lat="44.05180855588558" lon="10.167077209148578"><ele>230.16666666666666</ele><time>2026-05-02T10:25:24Z</time></trkpt><trkpt lat="44.051757507120215" lon="10.166990485809011"><ele>231.33333333333331</ele><time>2026-05-02T10:25:25Z</time></trkpt><trkpt lat="44.05170989381114" lon="10.166901454262193"><ele>232.5</ele><time>2026-05-02T10:25:26Z</time></trkpt><trkpt lat="44.05162981573438" lon="10.166842451969622"><ele>233.66666666666669</ele><time>2026-05-02T10:25:27Z</time></trkpt><trkpt lat="44.051553375230164" lon="10.166797951379012"><ele>234.83333333333334</ele><time>2026-05-02T10:25:28Z</time></trkpt><trkpt lat="44.051472256625054" lon="10.166765358626577"><ele>236.0</ele><time>2026-05-02T10:25:29Z</time></trkpt><trkpt lat="44.051386091009704" lon="10.166745984993101"><ele>236.00000000000003</ele><time>2026-05-02T10:25:30Z</time></trkpt><trkpt lat="44.05129429970139" lon="10.166728741908317"><ele>236.0</ele><time>2026-05-02T10:25:31Z</time></trkpt><trkpt lat="44.05121956773748" lon="10.166687530684634"><ele>236.0</ele><time>2026-05-02T10:25:32Z</time></trkpt><trkpt lat="44.0511953007784" lon="10.166582917814834"><ele>236.0</ele><time>2026-05-02T10:25:33Z</time></trkpt><trkpt lat="44.05121870189118" lon="10.166472265236822"><ele>236.00000000000003</ele><time>2026-05-02T10:25:34Z</time></trkpt><trkpt lat="44.051222622465815" lon="10.166333990827114"><ele>236.0</ele><time>2026-05-02T10:25:35Z</time></trkpt><trkpt lat="44.05122394916316" lon="10.166166844470952"><ele>232.25</ele><time>2026-05-02T10:25:36Z</time></trkpt><trkpt lat="44.051203450135304" lon="10.16600269377467"><ele>228.5</ele><time>2026-05-02T10:25:37Z</time></trkpt><trkpt lat="44.05119855002039" lon="10.165842665058442"><ele>224.75</ele><time>2026-05-02T10:25:38Z</time></trkpt><trkpt lat="44.05118808017346" lon="10.165691637157169"><ele>221.0</ele><time>2026-05-02T10:25:39Z</time></trkpt><trkpt lat="44.05118071115636" lon="10.16554051468402"><ele>217.0</ele><time>2026-05-02T10:25:40Z</time></trkpt><trkpt lat="44.051174735581945" lon="10.165398420542646"><ele>213.00000000000003</ele><time>2026-05-02T10:25:41Z</time></trkpt><trkpt lat="44.051164956127025" lon="10.165254968419836"><ele>209.0</ele><time>2026-05-02T10:25:42Z</time></trkpt><trkpt lat="44.05114226929564" lon="10.16510745226614"><ele>205.0</ele><time>2026-05-02T10:25:43Z</time></trkpt><trkpt lat="44.05112096242381" lon="10.164966668385405"><ele>201.0</ele><time>2026-05-02T10:25:44Z</time></trkpt><trkpt lat="44.05109620291628" lon="10.164813991550428"><ele>197.0</ele><time>2026-05-02T10:25:45Z</time></trkpt><trkpt lat="44.05107185695471" lon="10.164666000928058"><ele>193.0</ele><time>2026-05-02T10:25:46Z</time></trkpt><trkpt lat="44.05104416780474" lon="10.164520036674997"><ele>189.0</ele><time>2026-05-02T10:25:47Z</time></trkpt><trkpt lat="44.05101533225767" lon="10.164377774694199"><ele>185.0</ele><time>2026-05-02T10:25:48Z</time></trkpt><trkpt lat="44.050990694703046" lon="10.16424566410472"><ele>181.0</ele><time>2026-05-02T10:25:49Z</time></trkpt><trkpt lat="44.05096322252791" lon="10.164111508551345"><ele>177.25</ele><time>2026-05-02T10:25:50Z</time></trkpt><trkpt lat="44.050923736795184" lon="10.16398079967831"><ele>173.5</ele><time>2026-05-02T10:25:51Z</time></trkpt><trkpt lat="44.0508620255743" lon="10.163859471824159"><ele>169.75</ele><time>2026-05-02T10:25:52Z</time></trkpt><trkpt lat="44.0507822848005" lon="10.163722797264237"><ele>166.0</ele><time>2026-05-02T10:25:53Z</time></trkpt><trkpt lat="44.05070590372499" lon="10.163580742604523"><ele>172.5</ele><time>2026-05-02T10:25:54.002Z</time></trkpt><trkpt lat="44.050637783206646" lon="10.163425911761554"><ele>179.0</ele><time>2026-05-02T10:25:55.002Z</time></trkpt><trkpt lat="44.050586594184914" lon="10.163261738410089"><ele>185.5</ele><time>2026-05-02T10:25:56.002Z</time></trkpt><trkpt lat="44.05055043083484" lon="10.163093057381941"><ele>192.0</ele><time>2026-05-02T10:25:57.002Z</time></trkpt><trkpt lat="44.05052825033393" lon="10.162928759419502"><ele>192.0</ele><time>2026-05-02T10:25:58.002Z</time></trkpt><trkpt lat="44.05050616517339" lon="10.1627643730386"><ele>192.0</ele><time>2026-05-02T10:25:59.002Z</time></trkpt><trkpt lat="44.05050076204946" lon="10.162602134232646"><ele>192.0</ele><time>2026-05-02T10:26:00.002Z</time></trkpt><trkpt lat="44.05051291632719" lon="10.162444802670436"><ele>192.0</ele><time>2026-05-02T10:26:01.002Z</time></trkpt><trkpt lat="44.05053705585148" lon="10.162293722461207"><ele>186.6</ele><time>2026-05-02T10:26:02.002Z</time></trkpt><trkpt lat="44.05057974250694" lon="10.162147545903755"><ele>181.2</ele><time>2026-05-02T10:26:03.002Z</time></trkpt><trkpt lat="44.050642847102694" lon="10.162022984390571"><ele>175.8</ele><time>2026-05-02T10:26:04.002Z</time></trkpt><trkpt lat="44.0507010029905" lon="10.16190659933671"><ele>170.4</ele><time>2026-05-02T10:26:05.002Z</time></trkpt><trkpt lat="44.050736365572455" lon="10.161770894303281"><ele>165.0</ele><time>2026-05-02T10:26:06.002Z</time></trkpt><trkpt lat="44.050738880306746" lon="10.161623719137152"><ele>157.2</ele><time>2026-05-02T10:26:07.001Z</time></trkpt><trkpt lat="44.05071538729007" lon="10.161478582285449"><ele>149.4</ele><time>2026-05-02T10:26:08.001Z</time></trkpt><trkpt lat="44.05066315787076" lon="10.161344758562905"><ele>141.6</ele><time>2026-05-02T10:26:09.001Z</time></trkpt><trkpt lat="44.05058696259985" lon="10.161222603756563"><ele>133.8</ele><time>2026-05-02T10:26:10.001Z</time></trkpt><trkpt lat="44.05049561789559" lon="10.161133539114145"><ele>126.0</ele><time>2026-05-02T10:26:11.001Z</time></trkpt><trkpt lat="44.050391838020865" lon="10.161076312221269"><ele>126.0</ele><time>2026-05-02T10:26:12.001Z</time></trkpt><trkpt lat="44.050272838821144" lon="10.161057368563874"><ele>126.0</ele><time>2026-05-02T10:26:13.001Z</time></trkpt><trkpt lat="44.05014756217319" lon="10.161048682244973"><ele>126.0</ele><time>2026-05-02T10:26:14.001Z</time></trkpt><trkpt lat="44.05003682421645" lon="10.16104728676755"><ele>126.0</ele><time>2026-05-02T10:26:15.001Z</time></trkpt><trkpt lat="44.04993388024358" lon="10.160999106544454"><ele>123.75</ele><time>2026-05-02T10:26:16.001Z</time></trkpt><trkpt lat="44.049849894901385" lon="10.160885254954033"><ele>121.5</ele><time>2026-05-02T10:26:17.001Z</time></trkpt><trkpt lat="44.04974554169982" lon="10.160769657174606"><ele>119.25</ele><time>2026-05-02T10:26:18.001Z</time></trkpt><trkpt lat="44.04964835306404" lon="10.16065635226128"><ele>117.0</ele><time>2026-05-02T10:26:19.001Z</time></trkpt><trkpt lat="44.049554379464944" lon="10.160536400216845"><ele>117.0</ele><time>2026-05-02T10:26:20.001Z</time></trkpt><trkpt lat="44.049456034867674" lon="10.160419850442853"><ele>117.0</ele><time>2026-05-02T10:26:21.001Z</time></trkpt><trkpt lat="44.04939478002804" lon="10.160251096932583"><ele>117.0</ele><time>2026-05-02T10:26:22.001Z</time></trkpt><trkpt lat="44.049309250388546" lon="10.160107488650079"><ele>117.0</ele><time>2026-05-02T10:26:23.001Z</time></trkpt><trkpt lat="44.04923957146337" lon="10.15996823523123"><ele>115.5</ele><time>2026-05-02T10:26:24.001Z</time></trkpt><trkpt lat="44.04917018843689" lon="10.159847361226497"><ele>114.0</ele><time>2026-05-02T10:26:25.001Z</time></trkpt><trkpt lat="44.04910198238461" lon="10.159721735335157"><ele>112.5</ele><time>2026-05-02T10:26:26.001Z</time></trkpt><trkpt lat="44.04900977483562" lon="10.159617606461767"><ele>111.0</ele><time>2026-05-02T10:26:27.001Z</time></trkpt><trkpt lat="44.04890511036382" lon="10.159546040154463"><ele>111.0</ele><time>2026-05-02T10:26:28.001Z</time></trkpt><trkpt lat="44.04880498174729" lon="10.159483786140296"><ele>111.0</ele><time>2026-05-02T10:26:29.001Z</time></trkpt><trkpt lat="44.048733233041986" lon="10.159375469487873"><ele>111.0</ele><time>2026-05-02T10:26:30.001Z</time></trkpt><trkpt lat="44.04867116295311" lon="10.159240004118521"><ele>111.0</ele><time>2026-05-02T10:26:31.001Z</time></trkpt><trkpt lat="44.048592551510424" lon="10.159108273390636"><ele>106.5</ele><time>2026-05-02T10:26:32.001Z</time></trkpt><trkpt lat="44.048530832448094" lon="10.158957245139568"><ele>102.0</ele><time>2026-05-02T10:26:33.001Z</time></trkpt><trkpt lat="44.04846331255477" lon="10.158805339459475"><ele>97.5</ele><time>2026-05-02T10:26:34.001Z</time></trkpt><trkpt lat="44.048398205204435" lon="10.158658657595694"><ele>93.0</ele><time>2026-05-02T10:26:35.001Z</time></trkpt><trkpt lat="44.04833637138339" lon="10.158519011912595"><ele>99.60000000000001</ele><time>2026-05-02T10:26:36.001Z</time></trkpt><trkpt lat="44.04827559737275" lon="10.158390350165709"><ele>106.2</ele><time>2026-05-02T10:26:37.001Z</time></trkpt><trkpt lat="44.048220651510945" lon="10.158273027501274"><ele>112.8</ele><time>2026-05-02T10:26:38.001Z</time></trkpt><trkpt lat="44.048162661020214" lon="10.158174970229826"><ele>119.4</ele><time>2026-05-02T10:26:39.001Z</time></trkpt><trkpt lat="44.04811814871352" lon="10.158091661726619"><ele>126.0</ele><time>2026-05-02T10:26:40.001Z</time></trkpt><trkpt lat="44.048130175643486" lon="10.15798524368234"><ele>126.0</ele><time>2026-05-02T10:26:41.001Z</time></trkpt><trkpt lat="44.048078939438035" lon="10.157888907444788"><ele>126.0</ele><time>2026-05-02T10:26:42.001Z</time></trkpt><trkpt lat="44.048074685951285" lon="10.157763626709544"><ele>126.0</ele><time>2026-05-02T10:26:43.001Z</time></trkpt><trkpt lat="44.048071296331024" lon="10.157617866979253"><ele>126.0</ele><time>2026-05-02T10:26:44.001Z</time></trkpt><trkpt lat="44.048080185433335" lon="10.157459833338962"><ele>126.0</ele><time>2026-05-02T10:26:45.001Z</time></trkpt><trkpt lat="44.04809785221074" lon="10.15729217477618"><ele>127.0</ele><time>2026-05-02T10:26:46.001Z</time></trkpt><trkpt lat="44.04811721805354" lon="10.157121219779954"><ele>128.0</ele><time>2026-05-02T10:26:47.001Z</time></trkpt><trkpt lat="44.04813299659174" lon="10.156946440748534"><ele>129.0</ele><time>2026-05-02T10:26:48.001Z</time></trkpt><trkpt lat="44.04813990834152" lon="10.156763946924494"><ele>130.0</ele><time>2026-05-02T10:26:49.001Z</time></trkpt><trkpt lat="44.04813112325463" lon="10.156580604469005"><ele>123.75</ele><time>2026-05-02T10:26:50.001Z</time></trkpt><trkpt lat="44.0481169037284" lon="10.15640516106518"><ele>117.5</ele><time>2026-05-02T10:26:51.001Z</time></trkpt><trkpt lat="44.04809230337296" lon="10.156234191095644"><ele>111.25</ele><time>2026-05-02T10:26:52.001Z</time></trkpt><trkpt lat="44.04806013932205" lon="10.156070267140922"><ele>105.0</ele><time>2026-05-02T10:26:53.001Z</time></trkpt><trkpt lat="44.04801560272174" lon="10.155915274065206"><ele>105.0</ele><time>2026-05-02T10:26:54.001Z</time></trkpt><trkpt lat="44.04795172652355" lon="10.155769609707368"><ele>105.0</ele><time>2026-05-02T10:26:55.001Z</time></trkpt><trkpt lat="44.04787572876802" lon="10.155633772309027"><ele>105.0</ele><time>2026-05-02T10:26:56.001Z</time></trkpt><trkpt lat="44.04779554683957" lon="10.155499759049365"><ele>105.0</ele><time>2026-05-02T10:26:57.001Z</time></trkpt><trkpt lat="44.04770772443777" lon="10.155374709469255"><ele>101.0</ele><time>2026-05-02T10:26:58.001Z</time></trkpt><trkpt lat="44.047606045594286" lon="10.15527087358342"><ele>97.0</ele><time>2026-05-02T10:26:59.001Z</time></trkpt><trkpt lat="44.047489696222556" lon="10.155192902758904"><ele>93.0</ele><time>2026-05-02T10:27:00.001Z</time></trkpt><trkpt lat="44.04736569341162" lon="10.155135875551917"><ele>89.0</ele><time>2026-05-02T10:27:01.001Z</time></trkpt><trkpt lat="44.04724257169146" lon="10.155080310137347"><ele>89.0</ele><time>2026-05-02T10:27:02.001Z</time></trkpt><trkpt lat="44.04711901043332" lon="10.155018294744902"><ele>89.0</ele><time>2026-05-02T10:27:03.001Z</time></trkpt><trkpt lat="44.04699629909806" lon="10.15495206321123"><ele>89.0</ele><time>2026-05-02T10:27:04.001Z</time></trkpt><trkpt lat="44.04687372547" lon="10.154888015883179"><ele>89.0</ele><time>2026-05-02T10:27:05.001Z</time></trkpt><trkpt lat="44.04674682417897" lon="10.154826499594014"><ele>90.0</ele><time>2026-05-02T10:27:06.001Z</time></trkpt><trkpt lat="44.046619534066984" lon="10.154762984694695"><ele>91.0</ele><time>2026-05-02T10:27:07.001Z</time></trkpt><trkpt lat="44.0464918375125" lon="10.154695887741001"><ele>92.0</ele><time>2026-05-02T10:27:08Z</time></trkpt><trkpt lat="44.046366651635154" lon="10.154630945894887"><ele>93.0</ele><time>2026-05-02T10:27:09Z</time></trkpt><trkpt lat="44.04624606380362" lon="10.154560402383003"><ele>93.0</ele><time>2026-05-02T10:27:10Z</time></trkpt><trkpt lat="44.046131080046536" lon="10.15447249306483"><ele>93.0</ele><time>2026-05-02T10:27:11Z</time></trkpt><trkpt lat="44.04602557569476" lon="10.154372062471579"><ele>93.0</ele><time>2026-05-02T10:27:12Z</time></trkpt><trkpt lat="44.045925135275134" lon="10.15426280675303"><ele>93.0</ele><time>2026-05-02T10:27:13Z</time></trkpt><trkpt lat="44.04583617314663" lon="10.154141536018015"><ele>100.2</ele><time>2026-05-02T10:27:14Z</time></trkpt><trkpt lat="44.04575376232784" lon="10.154012455992463"><ele>107.4</ele><time>2026-05-02T10:27:15Z</time></trkpt><trkpt lat="44.0456817876162" lon="10.15388793199475"><ele>114.60000000000001</ele><time>2026-05-02T10:27:16Z</time></trkpt><trkpt lat="44.04562083837496" lon="10.153771171662788"><ele>121.80000000000001</ele><time>2026-05-02T10:27:17Z</time></trkpt><trkpt lat="44.04556627667931" lon="10.153656938563337"><ele>129.0</ele><time>2026-05-02T10:27:18Z</time></trkpt><trkpt lat="44.04551728858771" lon="10.153537411230964"><ele>129.0</ele><time>2026-05-02T10:27:19Z</time></trkpt><trkpt lat="44.04548027289027" lon="10.153408201845417"><ele>129.0</ele><time>2026-05-02T10:27:20Z</time></trkpt><trkpt lat="44.04545287917895" lon="10.153265986769926"><ele>129.0</ele><time>2026-05-02T10:27:21Z</time></trkpt><trkpt lat="44.04543855581083" lon="10.153118122133296"><ele>129.0</ele><time>2026-05-02T10:27:22Z</time></trkpt><trkpt lat="44.045435844981505" lon="10.152965777776433"><ele>129.0</ele><time>2026-05-02T10:27:23Z</time></trkpt><trkpt lat="44.045445790614544" lon="10.1528096779248"><ele>133.0</ele><time>2026-05-02T10:27:24Z</time></trkpt><trkpt lat="44.04546255909016" lon="10.152649397549956"><ele>137.0</ele><time>2026-05-02T10:27:25Z</time></trkpt><trkpt lat="44.045489378400966" lon="10.15248922888188"><ele>141.0</ele><time>2026-05-02T10:27:26Z</time></trkpt><trkpt lat="44.04553174739788" lon="10.15233096795084"><ele>145.0</ele><time>2026-05-02T10:27:27Z</time></trkpt><trkpt lat="44.04557892517238" lon="10.152175336750558"><ele>149.2</ele><time>2026-05-02T10:27:28Z</time></trkpt><trkpt lat="44.0456274432104" lon="10.152031730696443"><ele>153.4</ele><time>2026-05-02T10:27:29Z</time></trkpt><trkpt lat="44.04567450418859" lon="10.15192786417749"><ele>157.60000000000002</ele><time>2026-05-02T10:27:30Z</time></trkpt><trkpt lat="44.045739956842915" lon="10.151777673263924"><ele>161.8</ele><time>2026-05-02T10:27:32Z</time></trkpt><trkpt lat="44.04577712729978" lon="10.151685268142314"><ele>166.0</ele><time>2026-05-02T10:27:33Z</time></trkpt><trkpt lat="44.045815852879656" lon="10.151574443649398"><ele>148.5</ele><time>2026-05-02T10:27:34Z</time></trkpt><trkpt lat="44.045871882057426" lon="10.151450799149945"><ele>131.0</ele><time>2026-05-02T10:27:35Z</time></trkpt><trkpt lat="44.04592772374365" lon="10.151310598123878"><ele>113.5</ele><time>2026-05-02T10:27:36Z</time></trkpt><trkpt lat="44.045969317257445" lon="10.15114775593554"><ele>96.0</ele><time>2026-05-02T10:27:37Z</time></trkpt><trkpt lat="44.04601236977204" lon="10.150971266141672"><ele>96.0</ele><time>2026-05-02T10:27:38Z</time></trkpt><trkpt lat="44.04604566281532" lon="10.150792941236286"><ele>96.0</ele><time>2026-05-02T10:27:39Z</time></trkpt><trkpt lat="44.04607289680979" lon="10.1506129579331"><ele>96.0</ele><time>2026-05-02T10:27:40Z</time></trkpt><trkpt lat="44.046087189950924" lon="10.150428015408906"><ele>96.0</ele><time>2026-05-02T10:27:41Z</time></trkpt><trkpt lat="44.04608191125982" lon="10.150235102605377"><ele>96.75</ele><time>2026-05-02T10:27:42Z</time></trkpt><trkpt lat="44.04605954105021" lon="10.150044895786971"><ele>97.5</ele><time>2026-05-02T10:27:43Z</time></trkpt><trkpt lat="44.04602722600309" lon="10.149858149208217"><ele>98.25</ele><time>2026-05-02T10:27:44Z</time></trkpt><trkpt lat="44.045996385543106" lon="10.149672758696955"><ele>99.0</ele><time>2026-05-02T10:27:45Z</time></trkpt><trkpt lat="44.04596470582748" lon="10.149494891677028"><ele>99.0</ele><time>2026-05-02T10:27:46Z</time></trkpt><trkpt lat="44.04591924008049" lon="10.149328106289145"><ele>99.0</ele><time>2026-05-02T10:27:47Z</time></trkpt><trkpt lat="44.04587105704059" lon="10.14915929029171"><ele>99.0</ele><time>2026-05-02T10:27:48Z</time></trkpt><trkpt lat="44.04584157384685" lon="10.148986898857599"><ele>99.0</ele><time>2026-05-02T10:27:49Z</time></trkpt><trkpt lat="44.04582289535133" lon="10.148809702553462"><ele>96.25</ele><time>2026-05-02T10:27:50Z</time></trkpt><trkpt lat="44.04580545385532" lon="10.148630005109336"><ele>93.5</ele><time>2026-05-02T10:27:51Z</time></trkpt><trkpt lat="44.045797421079975" lon="10.148453927467308"><ele>90.75</ele><time>2026-05-02T10:27:52Z</time></trkpt><trkpt lat="44.04580983929479" lon="10.14829209315222"><ele>88.0</ele><time>2026-05-02T10:27:53Z</time></trkpt><trkpt lat="44.045831792694386" lon="10.148141870261771"><ele>86.4</ele><time>2026-05-02T10:27:54Z</time></trkpt><trkpt lat="44.045846549154184" lon="10.14800248039115"><ele>84.80000000000001</ele><time>2026-05-02T10:27:55Z</time></trkpt><trkpt lat="44.04584224258322" lon="10.147861419138787"><ele>83.2</ele><time>2026-05-02T10:27:56Z</time></trkpt><trkpt lat="44.04582406806914" lon="10.147718966014585"><ele>81.6</ele><time>2026-05-02T10:27:57Z</time></trkpt><trkpt lat="44.045789988841996" lon="10.147586193506939"><ele>80.0</ele><time>2026-05-02T10:27:58Z</time></trkpt><trkpt lat="44.045754301691815" lon="10.147458920032912"><ele>82.8</ele><time>2026-05-02T10:27:59Z</time></trkpt><trkpt lat="44.045716771233316" lon="10.147329285087906"><ele>85.6</ele><time>2026-05-02T10:28:00.002Z</time></trkpt><trkpt lat="44.04567925087023" lon="10.14719720596627"><ele>88.4</ele><time>2026-05-02T10:28:01.002Z</time></trkpt><trkpt lat="44.045635471324516" lon="10.147062756191703"><ele>91.2</ele><time>2026-05-02T10:28:02.002Z</time></trkpt><trkpt lat="44.045580386721156" lon="10.146931059201469"><ele>94.0</ele><time>2026-05-02T10:28:03.002Z</time></trkpt><trkpt lat="44.04551553670188" lon="10.146798292671194"><ele>94.0</ele><time>2026-05-02T10:28:04.002Z</time></trkpt><trkpt lat="44.045448539534036" lon="10.14667019678199"><ele>94.0</ele><time>2026-05-02T10:28:05.002Z</time></trkpt><trkpt lat="44.04538139007272" lon="10.146548038165953"><ele>94.0</ele><time>2026-05-02T10:28:06.002Z</time></trkpt><trkpt lat="44.04531475387205" lon="10.146430217275855"><ele>94.0</ele><time>2026-05-02T10:28:07.002Z</time></trkpt><trkpt lat="44.04525297534835" lon="10.146309253467765"><ele>94.0</ele><time>2026-05-02T10:28:08.002Z</time></trkpt><trkpt lat="44.04515260119465" lon="10.146248779127383"><ele>90.2</ele><time>2026-05-02T10:28:09.002Z</time></trkpt><trkpt lat="44.0450523867566" lon="10.146191365229814"><ele>86.4</ele><time>2026-05-02T10:28:10.002Z</time></trkpt><trkpt lat="44.04494910170545" lon="10.14614039198729"><ele>82.6</ele><time>2026-05-02T10:28:11.002Z</time></trkpt><trkpt lat="44.044848841628124" lon="10.146083404245076"><ele>78.8</ele><time>2026-05-02T10:28:12.002Z</time></trkpt><trkpt lat="44.044750172727014" lon="10.146025138185413"><ele>75.0</ele><time>2026-05-02T10:28:13.002Z</time></trkpt><trkpt lat="44.04465454021384" lon="10.145971603724414"><ele>75.0</ele><time>2026-05-02T10:28:14.002Z</time></trkpt><trkpt lat="44.04456871094777" lon="10.145900474870144"><ele>75.0</ele><time>2026-05-02T10:28:15.002Z</time></trkpt><trkpt lat="44.04449890121671" lon="10.145807647790864"><ele>75.0</ele><time>2026-05-02T10:28:16.002Z</time></trkpt><trkpt lat="44.04443819261078" lon="10.145695386629026"><ele>75.0</ele><time>2026-05-02T10:28:17.002Z</time></trkpt><trkpt lat="44.04438636903735" lon="10.145577180215076"><ele>75.0</ele><time>2026-05-02T10:28:18.002Z</time></trkpt><trkpt lat="44.04434007779078" lon="10.14546035500305"><ele>74.6</ele><time>2026-05-02T10:28:19.002Z</time></trkpt><trkpt lat="44.044288918402756" lon="10.145350213018473"><ele>74.2</ele><time>2026-05-02T10:28:20.002Z</time></trkpt><trkpt lat="44.04424203511696" lon="10.145239126793006"><ele>73.8</ele><time>2026-05-02T10:28:21.002Z</time></trkpt><trkpt lat="44.044190275441274" lon="10.14512819312467"><ele>73.4</ele><time>2026-05-02T10:28:22.002Z</time></trkpt><trkpt lat="44.044143850299406" lon="10.145014486085321"><ele>73.0</ele><time>2026-05-02T10:28:23.001Z</time></trkpt><trkpt lat="44.04409248281069" lon="10.144902583838743"><ele>72.4</ele><time>2026-05-02T10:28:24.001Z</time></trkpt><trkpt lat="44.044043315578044" lon="10.14478600431519"><ele>71.8</ele><time>2026-05-02T10:28:25.001Z</time></trkpt><trkpt lat="44.04399090310853" lon="10.144665774996229"><ele>71.2</ele><time>2026-05-02T10:28:26.001Z</time></trkpt><trkpt lat="44.04393385132065" lon="10.144547133525592"><ele>70.6</ele><time>2026-05-02T10:28:27.001Z</time></trkpt><trkpt lat="44.04387777836667" lon="10.144425545507307"><ele>70.0</ele><time>2026-05-02T10:28:28.001Z</time></trkpt><trkpt lat="44.04382124540408" lon="10.144304102434425"><ele>70.0</ele><time>2026-05-02T10:28:29.001Z</time></trkpt><trkpt lat="44.04376716835048" lon="10.144183609728522"><ele>70.0</ele><time>2026-05-02T10:28:30.001Z</time></trkpt><trkpt lat="44.04371412530538" lon="10.144065396471188"><ele>70.0</ele><time>2026-05-02T10:28:31.001Z</time></trkpt><trkpt lat="44.043664815717435" lon="10.143954755119283"><ele>70.0</ele><time>2026-05-02T10:28:32.001Z</time></trkpt><trkpt lat="44.04362092049839" lon="10.143847028086451"><ele>70.0</ele><time>2026-05-02T10:28:33.001Z</time></trkpt><trkpt lat="44.04357916278736" lon="10.143734068536048"><ele>69.0</ele><time>2026-05-02T10:28:34.001Z</time></trkpt><trkpt lat="44.04354282581854" lon="10.143614574634155"><ele>68.0</ele><time>2026-05-02T10:28:35.001Z</time></trkpt><trkpt lat="44.04350555155078" lon="10.143494608769712"><ele>67.0</ele><time>2026-05-02T10:28:36.001Z</time></trkpt><trkpt lat="44.04346256146243" lon="10.143385937451907"><ele>66.0</ele><time>2026-05-02T10:28:37.001Z</time></trkpt><trkpt lat="44.04343082459055" lon="10.14327256683786"><ele>65.0</ele><time>2026-05-02T10:28:38.001Z</time></trkpt><trkpt lat="44.043369546067275" lon="10.143186950513515"><ele>65.0</ele><time>2026-05-02T10:28:39.001Z</time></trkpt><trkpt lat="44.04330077170851" lon="10.143116162950733"><ele>65.0</ele><time>2026-05-02T10:28:40.001Z</time></trkpt><trkpt lat="44.043226260654336" lon="10.143073424949021"><ele>65.0</ele><time>2026-05-02T10:28:41.001Z</time></trkpt><trkpt lat="44.043150533183905" lon="10.143066731076505"><ele>65.0</ele><time>2026-05-02T10:28:42.001Z</time></trkpt><trkpt lat="44.043075620537564" lon="10.14301087898267"><ele>65.0</ele><time>2026-05-02T10:28:43.001Z</time></trkpt><trkpt lat="44.042993804075785" lon="10.14297458684099"><ele>65.0</ele><time>2026-05-02T10:28:44.001Z</time></trkpt><trkpt lat="44.04291063058681" lon="10.142955986556295"><ele>64.83333333333334</ele><time>2026-05-02T10:28:45.001Z</time></trkpt><trkpt lat="44.04282544162106" lon="10.142925729158062"><ele>64.66666666666667</ele><time>2026-05-02T10:28:46.001Z</time></trkpt><trkpt lat="44.04273976719829" lon="10.142886245591017"><ele>64.5</ele><time>2026-05-02T10:28:47.001Z</time></trkpt><trkpt lat="44.04265765612455" lon="10.142855394865466"><ele>64.33333333333333</ele><time>2026-05-02T10:28:48.001Z</time></trkpt><trkpt lat="44.04257577359443" lon="10.142824322502763"><ele>64.16666666666666</ele><time>2026-05-02T10:28:49.001Z</time></trkpt><trkpt lat="44.04249443932645" lon="10.142794101880803"><ele>64.0</ele><time>2026-05-02T10:28:50.001Z</time></trkpt><trkpt lat="44.04241429064358" lon="10.14275744086544"><ele>63.666666666666664</ele><time>2026-05-02T10:28:51.001Z</time></trkpt><trkpt lat="44.042331592373436" lon="10.142721172744627"><ele>63.33333333333333</ele><time>2026-05-02T10:28:52.001Z</time></trkpt><trkpt lat="44.04224763414408" lon="10.142675414936509"><ele>63.0</ele><time>2026-05-02T10:28:53.001Z</time></trkpt><trkpt lat="44.04216404569967" lon="10.142640244736043"><ele>62.66666666666667</ele><time>2026-05-02T10:28:54.001Z</time></trkpt><trkpt lat="44.0420856655773" lon="10.142612885119751"><ele>62.333333333333336</ele><time>2026-05-02T10:28:55.001Z</time></trkpt><trkpt lat="44.04200741311421" lon="10.142581764966948"><ele>62.0</ele><time>2026-05-02T10:28:56.001Z</time></trkpt><trkpt lat="44.04192724572913" lon="10.142547859045752"><ele>62.00000000000001</ele><time>2026-05-02T10:28:57.001Z</time></trkpt><trkpt lat="44.04184393811144" lon="10.142517428078708"><ele>62.0</ele><time>2026-05-02T10:28:58.001Z</time></trkpt><trkpt lat="44.04175500984185" lon="10.142488738650448"><ele>62.0</ele><time>2026-05-02T10:28:59.001Z</time></trkpt><trkpt lat="44.04166499748834" lon="10.142449505183968"><ele>62.0</ele><time>2026-05-02T10:29:00.001Z</time></trkpt><trkpt lat="44.0415791248669" lon="10.142405554498456"><ele>62.00000000000001</ele><time>2026-05-02T10:29:01.001Z</time></trkpt><trkpt lat="44.04150269179267" lon="10.142359515558066"><ele>62.0</ele><time>2026-05-02T10:29:02.001Z</time></trkpt><trkpt lat="44.04143146442963" lon="10.142305997551183"><ele>62.00000000000001</ele><time>2026-05-02T10:29:03.001Z</time></trkpt><trkpt lat="44.04136102392989" lon="10.142242881048158"><ele>62.0</ele><time>2026-05-02T10:29:04.001Z</time></trkpt><trkpt lat="44.04129681535894" lon="10.142163415599493"><ele>62.0</ele><time>2026-05-02T10:29:05.001Z</time></trkpt><trkpt lat="44.04124115197956" lon="10.142076732943146"><ele>62.0</ele><time>2026-05-02T10:29:06.001Z</time></trkpt><trkpt lat="44.0411911638411" lon="10.141986746299102"><ele>62.00000000000001</ele><time>2026-05-02T10:29:07.001Z</time></trkpt><trkpt lat="44.04114067253271" lon="10.141888214066226"><ele>62.0</ele><time>2026-05-02T10:29:08.001Z</time></trkpt><trkpt lat="44.04109431169823" lon="10.141798640053434"><ele>62.00000000000001</ele><time>2026-05-02T10:29:09.001Z</time></trkpt><trkpt lat="44.041049865202154" lon="10.141716308633008"><ele>62.0</ele><time>2026-05-02T10:29:10.001Z</time></trkpt><trkpt lat="44.04099585285217" lon="10.141612672083756"><ele>62.0</ele><time>2026-05-02T10:29:12.001Z</time></trkpt><trkpt lat="44.0409608800236" lon="10.141526830760574"><ele>62.0</ele><time>2026-05-02T10:29:15.001Z</time></trkpt><trkpt lat="44.04091185634673" lon="10.141456068044766"><ele>62.00000000000001</ele><time>2026-05-02T10:29:17.001Z</time></trkpt><trkpt lat="44.040846789020264" lon="10.141340865440752"><ele>62.0</ele><time>2026-05-02T10:29:19.001Z</time></trkpt><trkpt lat="44.04080752062958" lon="10.141266666897945"><ele>61.66666666666667</ele><time>2026-05-02T10:29:20.001Z</time></trkpt><trkpt lat="44.04076029946886" lon="10.141187448581741"><ele>61.333333333333336</ele><time>2026-05-02T10:29:21.001Z</time></trkpt><trkpt lat="44.04071127400628" lon="10.141103829467646"><ele>61.0</ele><time>2026-05-02T10:29:22.001Z</time></trkpt><trkpt lat="44.040665667994205" lon="10.14101299764517"><ele>60.66666666666667</ele><time>2026-05-02T10:29:23.001Z</time></trkpt><trkpt lat="44.04062594641935" lon="10.140919338817971"><ele>60.333333333333336</ele><time>2026-05-02T10:29:24.001Z</time></trkpt><trkpt lat="44.04057510060537" lon="10.140826094649668"><ele>60.0</ele><time>2026-05-02T10:29:25.001Z</time></trkpt><trkpt lat="44.04052382449271" lon="10.140728984547467"><ele>59.714285714285715</ele><time>2026-05-02T10:29:26.001Z</time></trkpt><trkpt lat="44.04047727346623" lon="10.140636167601336"><ele>59.42857142857143</ele><time>2026-05-02T10:29:27Z</time></trkpt><trkpt lat="44.04043340633938" lon="10.140551130081048"><ele>59.142857142857146</ele><time>2026-05-02T10:29:28Z</time></trkpt><trkpt lat="44.04039061867461" lon="10.140475147706873"><ele>58.85714285714286</ele><time>2026-05-02T10:29:29Z</time></trkpt><trkpt lat="44.04035177290431" lon="10.140395163680848"><ele>58.57142857142857</ele><time>2026-05-02T10:29:30Z</time></trkpt><trkpt lat="44.04031574740211" lon="10.140310690622357"><ele>58.28571428571429</ele><time>2026-05-02T10:29:31Z</time></trkpt><trkpt lat="44.04028093303643" lon="10.140225677506223"><ele>58.00000000000001</ele><time>2026-05-02T10:29:32Z</time></trkpt><trkpt lat="44.040243371878965" lon="10.140141834946006"><ele>57.99999999999999</ele><time>2026-05-02T10:29:33Z</time></trkpt><trkpt lat="44.04020810957878" lon="10.140056694132829"><ele>58.0</ele><time>2026-05-02T10:29:34Z</time></trkpt><trkpt lat="44.04017180994914" lon="10.13997885262689"><ele>58.0</ele><time>2026-05-02T10:29:35Z</time></trkpt><trkpt lat="44.04013843136693" lon="10.139895249440373"><ele>58.0</ele><time>2026-05-02T10:29:36Z</time></trkpt><trkpt lat="44.04010833090016" lon="10.1398153959541"><ele>57.99999999999999</ele><time>2026-05-02T10:29:37Z</time></trkpt><trkpt lat="44.040051996434684" lon="10.139677245938902"><ele>58.0</ele><time>2026-05-02T10:29:39Z</time></trkpt><trkpt lat="44.040007192363376" lon="10.139566033423014"><ele>57.666666666666664</ele><time>2026-05-02T10:29:41Z</time></trkpt><trkpt lat="44.039970047017626" lon="10.13949080187091"><ele>57.33333333333333</ele><time>2026-05-02T10:29:43Z</time></trkpt><trkpt lat="44.03992296381273" lon="10.139396860647938"><ele>57.0</ele><time>2026-05-02T10:29:52Z</time></trkpt><trkpt lat="44.03988328480084" lon="10.139296825750927"><ele>56.66666666666667</ele><time>2026-05-02T10:29:54Z</time></trkpt><trkpt lat="44.03985465312023" lon="10.139203370073965"><ele>56.333333333333336</ele><time>2026-05-02T10:30:00Z</time></trkpt><trkpt lat="44.0399077145281" lon="10.139127998051702"><ele>56.0</ele><time>2026-05-02T10:30:02Z</time></trkpt><trkpt lat="44.04002484268973" lon="10.139054300968587"><ele>53.00000000000001</ele><time>2026-05-02T10:30:04Z</time></trkpt><trkpt lat="44.04008614938408" lon="10.13899504948281"><ele>50.0</ele><time>2026-05-02T10:30:05Z</time></trkpt><trkpt lat="44.040151152101004" lon="10.138933975285005"><ele>47.0</ele><time>2026-05-02T10:30:06.002Z</time></trkpt><trkpt lat="44.040223105250114" lon="10.138877632129363"><ele>44.0</ele><time>2026-05-02T10:30:07.002Z</time></trkpt><trkpt lat="44.040298422451265" lon="10.138816376571043"><ele>41.0</ele><time>2026-05-02T10:30:08.002Z</time></trkpt><trkpt lat="44.0403753720347" lon="10.138748795328802"><ele>38.0</ele><time>2026-05-02T10:30:09.002Z</time></trkpt><trkpt lat="44.04045639840495" lon="10.138679232172715"><ele>38.0</ele><time>2026-05-02T10:30:10.001Z</time></trkpt><trkpt lat="44.04053850334741" lon="10.138609890873903"><ele>38.0</ele><time>2026-05-02T10:30:11.001Z</time></trkpt><trkpt lat="44.04062053870805" lon="10.13853570034868"><ele>38.0</ele><time>2026-05-02T10:30:12.001Z</time></trkpt><trkpt lat="44.0407058023214" lon="10.138460832926478"><ele>38.0</ele><time>2026-05-02T10:30:13.001Z</time></trkpt><trkpt lat="44.04079275905904" lon="10.13838462106901"><ele>38.0</ele><time>2026-05-02T10:30:14.001Z</time></trkpt><trkpt lat="44.04088499302142" lon="10.138307920373299"><ele>38.199999999999996</ele><time>2026-05-02T10:30:15.001Z</time></trkpt><trkpt lat="44.040979248648874" lon="10.13822904344591"><ele>38.4</ele><time>2026-05-02T10:30:16.001Z</time></trkpt><trkpt lat="44.041073564839884" lon="10.138148228376611"><ele>38.599999999999994</ele><time>2026-05-02T10:30:17.001Z</time></trkpt><trkpt lat="44.04116920201414" lon="10.138067507105106"><ele>38.8</ele><time>2026-05-02T10:30:18.001Z</time></trkpt><trkpt lat="44.041260418039435" lon="10.137989988429439"><ele>39.0</ele><time>2026-05-02T10:30:19.001Z</time></trkpt><trkpt lat="44.04134628730721" lon="10.137918340234325"><ele>39.8</ele><time>2026-05-02T10:30:20.001Z</time></trkpt><trkpt lat="44.04142903267895" lon="10.13784466975728"><ele>40.599999999999994</ele><time>2026-05-02T10:30:21.001Z</time></trkpt><trkpt lat="44.04151314554565" lon="10.137770533558822"><ele>41.4</ele><time>2026-05-02T10:30:22.001Z</time></trkpt><trkpt lat="44.04159819359338" lon="10.137692257320358"><ele>42.199999999999996</ele><time>2026-05-02T10:30:23.001Z</time></trkpt><trkpt lat="44.04168908073419" lon="10.13760829267523"><ele>43.0</ele><time>2026-05-02T10:30:24.001Z</time></trkpt><trkpt lat="44.041785103222104" lon="10.137528573452869"><ele>44.75</ele><time>2026-05-02T10:30:25.001Z</time></trkpt><trkpt lat="44.041884621000314" lon="10.137448139438751"><ele>46.5</ele><time>2026-05-02T10:30:26.001Z</time></trkpt><trkpt lat="44.04198268243788" lon="10.137366904912588"><ele>48.25</ele><time>2026-05-02T10:30:27.001Z</time></trkpt><trkpt lat="44.04208132023172" lon="10.137283111234625"><ele>50.0</ele><time>2026-05-02T10:30:28.001Z</time></trkpt><trkpt lat="44.04218111204304" lon="10.137196587714806"><ele>50.75</ele><time>2026-05-02T10:30:29.001Z</time></trkpt><trkpt lat="44.042282647463495" lon="10.137107202586193"><ele>51.5</ele><time>2026-05-02T10:30:30.001Z</time></trkpt><trkpt lat="44.042384947861315" lon="10.137022033583621"><ele>52.25</ele><time>2026-05-02T10:30:31.001Z</time></trkpt><trkpt lat="44.04248902373867" lon="10.13693311440831"><ele>53.0</ele><time>2026-05-02T10:30:32.001Z</time></trkpt><trkpt lat="44.04259155926413" lon="10.13684426521928"><ele>53.599999999999994</ele><time>2026-05-02T10:30:33.001Z</time></trkpt><trkpt lat="44.04269075844813" lon="10.136757966711366"><ele>54.199999999999996</ele><time>2026-05-02T10:30:34.001Z</time></trkpt><trkpt lat="44.042787999896596" lon="10.136677916381016"><ele>54.8</ele><time>2026-05-02T10:30:35.001Z</time></trkpt><trkpt lat="44.04288085932184" lon="10.136599864996244"><ele>55.4</ele><time>2026-05-02T10:30:36.001Z</time></trkpt><trkpt lat="44.04297057378484" lon="10.136513991415882"><ele>56.0</ele><time>2026-05-02T10:30:37.001Z</time></trkpt><trkpt lat="44.043063868158" lon="10.136428200121333"><ele>56.0</ele><time>2026-05-02T10:30:38.001Z</time></trkpt><trkpt lat="44.04315670353976" lon="10.136344482748585"><ele>55.99999999999999</ele><time>2026-05-02T10:30:39.001Z</time></trkpt><trkpt lat="44.04324836857893" lon="10.136259403863303"><ele>55.99999999999999</ele><time>2026-05-02T10:30:40.001Z</time></trkpt><trkpt lat="44.043343312816056" lon="10.136178402421633"><ele>56.0</ele><time>2026-05-02T10:30:41.001Z</time></trkpt><trkpt lat="44.043436706464625" lon="10.13609487003462"><ele>56.0</ele><time>2026-05-02T10:30:42.001Z</time></trkpt><trkpt lat="44.04352230387084" lon="10.136016416020704"><ele>56.199999999999996</ele><time>2026-05-02T10:30:43.001Z</time></trkpt><trkpt lat="44.0436037810132" lon="10.135946820225728"><ele>56.39999999999999</ele><time>2026-05-02T10:30:44.001Z</time></trkpt><trkpt lat="44.043681424766575" lon="10.135881968138232"><ele>56.6</ele><time>2026-05-02T10:30:45.001Z</time></trkpt><trkpt lat="44.043758773698265" lon="10.13581795786924"><ele>56.8</ele><time>2026-05-02T10:30:46.001Z</time></trkpt><trkpt lat="44.04383471748837" lon="10.13574847494209"><ele>57.0</ele><time>2026-05-02T10:30:47.001Z</time></trkpt><trkpt lat="44.04391209352629" lon="10.135679688798568"><ele>57.0</ele><time>2026-05-02T10:30:48.001Z</time></trkpt><trkpt lat="44.043985902305266" lon="10.135606344206455"><ele>57.0</ele><time>2026-05-02T10:30:49.001Z</time></trkpt><trkpt lat="44.04405692825417" lon="10.135534207527888"><ele>57.0</ele><time>2026-05-02T10:30:50.001Z</time></trkpt><trkpt lat="44.04412046029207" lon="10.13547542479381"><ele>57.0</ele><time>2026-05-02T10:30:51.001Z</time></trkpt><trkpt lat="44.04422108649146" lon="10.135398426772449"><ele>57.0</ele><time>2026-05-02T10:30:53.001Z</time></trkpt><trkpt lat="44.04427499835874" lon="10.13534983831939"><ele>57.0</ele><time>2026-05-02T10:30:54.001Z</time></trkpt><trkpt lat="44.04434739679904" lon="10.135293386782795"><ele>58.0</ele><time>2026-05-02T10:30:55Z</time></trkpt><trkpt lat="44.04442749552198" lon="10.135223275736825"><ele>59.0</ele><time>2026-05-02T10:30:56Z</time></trkpt><trkpt lat="44.044515950786376" lon="10.135142110269308"><ele>60.0</ele><time>2026-05-02T10:30:57Z</time></trkpt><trkpt lat="44.04460953258277" lon="10.1350641230287"><ele>61.0</ele><time>2026-05-02T10:30:58Z</time></trkpt><trkpt lat="44.044701298237484" lon="10.134979654899638"><ele>62.0</ele><time>2026-05-02T10:30:59Z</time></trkpt><trkpt lat="44.04479439264526" lon="10.134895717347346"><ele>61.8</ele><time>2026-05-02T10:31:00Z</time></trkpt><trkpt lat="44.04488968240491" lon="10.134814542634944"><ele>61.6</ele><time>2026-05-02T10:31:01Z</time></trkpt><trkpt lat="44.04498465957036" lon="10.134734657831705"><ele>61.39999999999999</ele><time>2026-05-02T10:31:02Z</time></trkpt><trkpt lat="44.04508198261776" lon="10.13465221456967"><ele>61.199999999999996</ele><time>2026-05-02T10:31:03Z</time></trkpt><trkpt lat="44.045173696119086" lon="10.134571238703913"><ele>61.0</ele><time>2026-05-02T10:31:04Z</time></trkpt><trkpt lat="44.04526696730159" lon="10.134481310597025"><ele>61.0</ele><time>2026-05-02T10:31:05Z</time></trkpt><trkpt lat="44.04536092412928" lon="10.13439191577991"><ele>61.0</ele><time>2026-05-02T10:31:06Z</time></trkpt><trkpt lat="44.04545659198906" lon="10.134308310064876"><ele>61.0</ele><time>2026-05-02T10:31:07Z</time></trkpt><trkpt lat="44.04555401342449" lon="10.134225417066327"><ele>61.0</ele><time>2026-05-02T10:31:08Z</time></trkpt><trkpt lat="44.04565340729462" lon="10.134139186844301"><ele>60.75</ele><time>2026-05-02T10:31:09Z</time></trkpt><trkpt lat="44.04575358687301" lon="10.134050393252789"><ele>60.5</ele><time>2026-05-02T10:31:10Z</time></trkpt><trkpt lat="44.0458561158631" lon="10.133960248903534"><ele>60.25</ele><time>2026-05-02T10:31:11Z</time></trkpt><trkpt lat="44.04596259038612" lon="10.133869572138867"><ele>60.0</ele><time>2026-05-02T10:31:12Z</time></trkpt><trkpt lat="44.046070396295" lon="10.13377988427323"><ele>60.0</ele><time>2026-05-02T10:31:13Z</time></trkpt><trkpt lat="44.04617386683725" lon="10.133690419187209"><ele>60.0</ele><time>2026-05-02T10:31:14Z</time></trkpt><trkpt lat="44.04628008811192" lon="10.133596953406705"><ele>60.0</ele><time>2026-05-02T10:31:15Z</time></trkpt><trkpt lat="44.046386968204885" lon="10.133501333292719"><ele>60.0</ele><time>2026-05-02T10:31:16Z</time></trkpt><trkpt lat="44.04649271293352" lon="10.133408379962557"><ele>60.0</ele><time>2026-05-02T10:31:17Z</time></trkpt><trkpt lat="44.04659787534906" lon="10.133313717338966"><ele>60.0</ele><time>2026-05-02T10:31:18Z</time></trkpt><trkpt lat="44.04670162793503" lon="10.133218981311796"><ele>60.0</ele><time>2026-05-02T10:31:19Z</time></trkpt><trkpt lat="44.04680942398288" lon="10.133124571338287"><ele>60.0</ele><time>2026-05-02T10:31:20Z</time></trkpt><trkpt lat="44.04691788824954" lon="10.133036665976524"><ele>60.0</ele><time>2026-05-02T10:31:21Z</time></trkpt><trkpt lat="44.04702873639593" lon="10.132949424996246"><ele>60.0</ele><time>2026-05-02T10:31:22Z</time></trkpt><trkpt lat="44.0471378442193" lon="10.132856677038749"><ele>60.0</ele><time>2026-05-02T10:31:23Z</time></trkpt><trkpt lat="44.047241052362715" lon="10.132761208418318"><ele>60.0</ele><time>2026-05-02T10:31:24Z</time></trkpt><trkpt lat="44.047349794886415" lon="10.132664837158792"><ele>60.0</ele><time>2026-05-02T10:31:25Z</time></trkpt><trkpt lat="44.04745791361144" lon="10.132564515872007"><ele>60.0</ele><time>2026-05-02T10:31:26Z</time></trkpt><trkpt lat="44.04756473400759" lon="10.132472877837339"><ele>60.0</ele><time>2026-05-02T10:31:27Z</time></trkpt><trkpt lat="44.047671127296844" lon="10.132381989477711"><ele>60.0</ele><time>2026-05-02T10:31:28Z</time></trkpt><trkpt lat="44.04776922168898" lon="10.132283780554593"><ele>60.0</ele><time>2026-05-02T10:31:29Z</time></trkpt><trkpt lat="44.04785300445074" lon="10.132162364957795"><ele>60.0</ele><time>2026-05-02T10:31:30Z</time></trkpt><trkpt lat="44.04791958957372" lon="10.132025991483374"><ele>60.0</ele><time>2026-05-02T10:31:31Z</time></trkpt><trkpt lat="44.047976867486" lon="10.131883026727639"><ele>60.0</ele><time>2026-05-02T10:31:32Z</time></trkpt><trkpt lat="44.04802833564825" lon="10.131737907828061"><ele>60.0</ele><time>2026-05-02T10:31:33Z</time></trkpt><trkpt lat="44.04808104676374" lon="10.131592470957779"><ele>60.0</ele><time>2026-05-02T10:31:34Z</time></trkpt><trkpt lat="44.0481400851932" lon="10.131450888676326"><ele>60.0</ele><time>2026-05-02T10:31:35Z</time></trkpt><trkpt lat="44.0482038706348" lon="10.131312472641802"><ele>60.0</ele><time>2026-05-02T10:31:36Z</time></trkpt><trkpt lat="44.04827816703274" lon="10.131179395178435"><ele>61.25</ele><time>2026-05-02T10:31:37Z</time></trkpt><trkpt lat="44.04835458343471" lon="10.131048455176007"><ele>62.5</ele><time>2026-05-02T10:31:38Z</time></trkpt><trkpt lat="44.04843754942186" lon="10.130917737403243"><ele>63.75</ele><time>2026-05-02T10:31:39Z</time></trkpt><trkpt lat="44.048515649298956" lon="10.130787352568737"><ele>65.0</ele><time>2026-05-02T10:31:40Z</time></trkpt><trkpt lat="44.048594529560546" lon="10.130657451324872"><ele>65.0</ele><time>2026-05-02T10:31:41Z</time></trkpt><trkpt lat="44.048684249037485" lon="10.130541194671926"><ele>65.0</ele><time>2026-05-02T10:31:42Z</time></trkpt><trkpt lat="44.04878743411998" lon="10.130438471026748"><ele>65.0</ele><time>2026-05-02T10:31:43Z</time></trkpt><trkpt lat="44.048893367195035" lon="10.130350477260942"><ele>65.0</ele><time>2026-05-02T10:31:44Z</time></trkpt><trkpt lat="44.0490054236879" lon="10.130275959616863"><ele>65.0</ele><time>2026-05-02T10:31:45Z</time></trkpt><trkpt lat="44.049107842512186" lon="10.130186368915918"><ele>65.0</ele><time>2026-05-02T10:31:46Z</time></trkpt><trkpt lat="44.049188152002614" lon="10.130061348442887"><ele>65.0</ele><time>2026-05-02T10:31:47Z</time></trkpt><trkpt lat="44.049263751773935" lon="10.129936507875547"><ele>65.0</ele><time>2026-05-02T10:31:48Z</time></trkpt><trkpt lat="44.04934795430493" lon="10.12981720066442"><ele>67.25</ele><time>2026-05-02T10:31:49Z</time></trkpt><trkpt lat="44.04943262702858" lon="10.129709813221417"><ele>69.5</ele><time>2026-05-02T10:31:50Z</time></trkpt><trkpt lat="44.04952748845405" lon="10.12960758245666"><ele>71.75</ele><time>2026-05-02T10:31:51Z</time></trkpt><trkpt lat="44.04962834600487" lon="10.129517159444822"><ele>74.0</ele><time>2026-05-02T10:31:52Z</time></trkpt><trkpt lat="44.04973351686217" lon="10.129432893494306"><ele>74.0</ele><time>2026-05-02T10:31:53Z</time></trkpt><trkpt lat="44.049839298101936" lon="10.129348543135519"><ele>74.0</ele><time>2026-05-02T10:31:54Z</time></trkpt><trkpt lat="44.04994603790148" lon="10.12926990295831"><ele>74.0</ele><time>2026-05-02T10:31:55Z</time></trkpt><trkpt lat="44.05004681357946" lon="10.12919200784893"><ele>74.0</ele><time>2026-05-02T10:31:56Z</time></trkpt><trkpt lat="44.050145769647784" lon="10.129114857823549"><ele>76.75</ele><time>2026-05-02T10:31:57Z</time></trkpt><trkpt lat="44.05024169556719" lon="10.129027820423797"><ele>79.5</ele><time>2026-05-02T10:31:58Z</time></trkpt><trkpt lat="44.050332966776395" lon="10.128928517951048"><ele>82.25</ele><time>2026-05-02T10:31:59Z</time></trkpt><trkpt lat="44.05042106055488" lon="10.128828633121753"><ele>85.0</ele><time>2026-05-02T10:32:00Z</time></trkpt><trkpt lat="44.05051721170312" lon="10.128728215685994"><ele>85.0</ele><time>2026-05-02T10:32:01Z</time></trkpt><trkpt lat="44.050612890405" lon="10.128630012218169"><ele>85.0</ele><time>2026-05-02T10:32:02Z</time></trkpt><trkpt lat="44.05070561420895" lon="10.128526775436672"><ele>85.0</ele><time>2026-05-02T10:32:03Z</time></trkpt><trkpt lat="44.050793282850854" lon="10.128417877633341"><ele>85.0</ele><time>2026-05-02T10:32:04Z</time></trkpt><trkpt lat="44.05087165199264" lon="10.128301991556404"><ele>87.4</ele><time>2026-05-02T10:32:05Z</time></trkpt><trkpt lat="44.050936770568995" lon="10.128172610949582"><ele>89.8</ele><time>2026-05-02T10:32:06Z</time></trkpt><trkpt lat="44.050986763286836" lon="10.128035527024226"><ele>92.19999999999999</ele><time>2026-05-02T10:32:07Z</time></trkpt><trkpt lat="44.05102742002992" lon="10.127909472011474"><ele>94.6</ele><time>2026-05-02T10:32:08Z</time></trkpt><trkpt lat="44.05106612969093" lon="10.12779700286174"><ele>97.0</ele><time>2026-05-02T10:32:09Z</time></trkpt><trkpt lat="44.051112858407954" lon="10.12769476129981"><ele>97.0</ele><time>2026-05-02T10:32:10Z</time></trkpt><trkpt lat="44.051167255887044" lon="10.127600378025281"><ele>97.0</ele><time>2026-05-02T10:32:11Z</time></trkpt><trkpt lat="44.051233868145644" lon="10.12751757417133"><ele>97.0</ele><time>2026-05-02T10:32:12.001Z</time></trkpt><trkpt lat="44.05130944438038" lon="10.127447172576312"><ele>97.0</ele><time>2026-05-02T10:32:13.001Z</time></trkpt><trkpt lat="44.05138784450597" lon="10.127383040090374"><ele>97.0</ele><time>2026-05-02T10:32:14.001Z</time></trkpt><trkpt lat="44.05146944428057" lon="10.127316402029383"><ele>97.0</ele><time>2026-05-02T10:32:15.001Z</time></trkpt><trkpt lat="44.051550043423724" lon="10.127248828368344"><ele>97.0</ele><time>2026-05-02T10:32:16.001Z</time></trkpt><trkpt lat="44.051635252465736" lon="10.127180754585485"><ele>97.0</ele><time>2026-05-02T10:32:17.001Z</time></trkpt><trkpt lat="44.05172372879622" lon="10.127114597677398"><ele>97.0</ele><time>2026-05-02T10:32:18.001Z</time></trkpt><trkpt lat="44.05181215963687" lon="10.127042473055617"><ele>97.0</ele><time>2026-05-02T10:32:19.001Z</time></trkpt><trkpt lat="44.05189587701721" lon="10.126964935484244"><ele>97.0</ele><time>2026-05-02T10:32:20.001Z</time></trkpt><trkpt lat="44.05197237266196" lon="10.126880135518814"><ele>97.0</ele><time>2026-05-02T10:32:21.001Z</time></trkpt><trkpt lat="44.05204051063455" lon="10.126776319106858"><ele>97.0</ele><time>2026-05-02T10:32:22.001Z</time></trkpt><trkpt lat="44.05208922526186" lon="10.126670180826778"><ele>97.0</ele><time>2026-05-02T10:32:23.001Z</time></trkpt><trkpt lat="44.05213081201439" lon="10.126550085519591"><ele>97.0</ele><time>2026-05-02T10:32:24.001Z</time></trkpt><trkpt lat="44.05216291834649" lon="10.126427195296124"><ele>95.0</ele><time>2026-05-02T10:32:25.001Z</time></trkpt><trkpt lat="44.05219588653449" lon="10.126301400440349"><ele>93.0</ele><time>2026-05-02T10:32:26.001Z</time></trkpt><trkpt lat="44.05222875497483" lon="10.126176965375217"><ele>91.0</ele><time>2026-05-02T10:32:27.001Z</time></trkpt><trkpt lat="44.052266726027305" lon="10.12605437709489"><ele>89.0</ele><time>2026-05-02T10:32:28.001Z</time></trkpt><trkpt lat="44.05231471229855" lon="10.125932460943634"><ele>87.0</ele><time>2026-05-02T10:32:29.001Z</time></trkpt><trkpt lat="44.05237195297937" lon="10.12581556921151"><ele>85.39999999999999</ele><time>2026-05-02T10:32:30.001Z</time></trkpt><trkpt lat="44.05243381749867" lon="10.125700559370777"><ele>83.8</ele><time>2026-05-02T10:32:31.001Z</time></trkpt><trkpt lat="44.052497246958666" lon="10.125581136182294"><ele>82.2</ele><time>2026-05-02T10:32:32.001Z</time></trkpt><trkpt lat="44.05255971564386" lon="10.125465690219386"><ele>80.6</ele><time>2026-05-02T10:32:33.001Z</time></trkpt><trkpt lat="44.05261848263516" lon="10.12535033124895"><ele>79.0</ele><time>2026-05-02T10:32:34.001Z</time></trkpt><trkpt lat="44.05267589237104" lon="10.12523726537938"><ele>80.6</ele><time>2026-05-02T10:32:35.001Z</time></trkpt><trkpt lat="44.05273260920375" lon="10.125126738148497"><ele>82.2</ele><time>2026-05-02T10:32:36.001Z</time></trkpt><trkpt lat="44.052805593239555" lon="10.125036151064178"><ele>83.8</ele><time>2026-05-02T10:32:37.001Z</time></trkpt><trkpt lat="44.05288402193585" lon="10.124956261192484"><ele>85.39999999999999</ele><time>2026-05-02T10:32:38.001Z</time></trkpt><trkpt lat="44.05296960046762" lon="10.124881161657731"><ele>87.0</ele><time>2026-05-02T10:32:39.001Z</time></trkpt><trkpt lat="44.05305547632367" lon="10.124803479451042"><ele>87.0</ele><time>2026-05-02T10:32:40.001Z</time></trkpt><trkpt lat="44.05313817250454" lon="10.124725088968097"><ele>87.0</ele><time>2026-05-02T10:32:41.001Z</time></trkpt><trkpt lat="44.05322399066698" lon="10.124658893253091"><ele>87.0</ele><time>2026-05-02T10:32:42.001Z</time></trkpt><trkpt lat="44.053318211986024" lon="10.124641282284962"><ele>87.0</ele><time>2026-05-02T10:32:43.001Z</time></trkpt><trkpt lat="44.053403100708195" lon="10.124684713730675"><ele>87.0</ele><time>2026-05-02T10:32:44Z</time></trkpt><trkpt lat="44.05347198593616" lon="10.124768095078093"><ele>90.19999999999999</ele><time>2026-05-02T10:32:45Z</time></trkpt><trkpt lat="44.05353359810228" lon="10.12487282517464"><ele>93.4</ele><time>2026-05-02T10:32:46Z</time></trkpt><trkpt lat="44.05360111057532" lon="10.124974194987388"><ele>96.6</ele><time>2026-05-02T10:32:47Z</time></trkpt><trkpt lat="44.05367708937498" lon="10.125068977671255"><ele>99.80000000000001</ele><time>2026-05-02T10:32:48Z</time></trkpt><trkpt lat="44.05375139603047" lon="10.125162636166278"><ele>103.0</ele><time>2026-05-02T10:32:49Z</time></trkpt><trkpt lat="44.053823914276286" lon="10.125252931302096"><ele>108.66666666666667</ele><time>2026-05-02T10:32:50Z</time></trkpt><trkpt lat="44.053901305294005" lon="10.125314785171401"><ele>114.33333333333334</ele><time>2026-05-02T10:32:51Z</time></trkpt><trkpt lat="44.053986162022014" lon="10.125330978067403"><ele>120.0</ele><time>2026-05-02T10:32:52Z</time></trkpt><trkpt lat="44.05406611904094" lon="10.125299080736719"><ele>125.66666666666666</ele><time>2026-05-02T10:32:53Z</time></trkpt><trkpt lat="44.05413065134037" lon="10.125223108868179"><ele>131.33333333333331</ele><time>2026-05-02T10:32:54Z</time></trkpt><trkpt lat="44.054178320707464" lon="10.125120832686859"><ele>137.0</ele><time>2026-05-02T10:32:55Z</time></trkpt><trkpt lat="44.0542074287081" lon="10.124995862728367"><ele>133.4</ele><time>2026-05-02T10:32:56Z</time></trkpt><trkpt lat="44.05426235419081" lon="10.124877880537607"><ele>129.79999999999998</ele><time>2026-05-02T10:32:57Z</time></trkpt><trkpt lat="44.05430578187453" lon="10.124749677082596"><ele>126.2</ele><time>2026-05-02T10:32:58Z</time></trkpt><trkpt lat="44.05434702260977" lon="10.124609164004774"><ele>122.6</ele><time>2026-05-02T10:32:59Z</time></trkpt><trkpt lat="44.05441738024855" lon="10.124485532760028"><ele>119.0</ele><time>2026-05-02T10:33:00Z</time></trkpt><trkpt lat="44.05449499568157" lon="10.124363553796464"><ele>119.0</ele><time>2026-05-02T10:33:01Z</time></trkpt><trkpt lat="44.05458152539557" lon="10.124246943238223"><ele>119.0</ele><time>2026-05-02T10:33:02Z</time></trkpt><trkpt lat="44.05467772603004" lon="10.124141509933466"><ele>119.0</ele><time>2026-05-02T10:33:03Z</time></trkpt><trkpt lat="44.054782430717694" lon="10.124046080656587"><ele>119.0</ele><time>2026-05-02T10:33:04Z</time></trkpt><trkpt lat="44.05488751175493" lon="10.123949901107437"><ele>121.25</ele><time>2026-05-02T10:33:05Z</time></trkpt><trkpt lat="44.0549917064047" lon="10.123857252779699"><ele>123.5</ele><time>2026-05-02T10:33:06Z</time></trkpt><trkpt lat="44.055092667661185" lon="10.1237686990137"><ele>125.75</ele><time>2026-05-02T10:33:07Z</time></trkpt><trkpt lat="44.05519668719521" lon="10.123690082707821"><ele>128.0</ele><time>2026-05-02T10:33:08Z</time></trkpt><trkpt lat="44.05530292419194" lon="10.123616665446663"><ele>128.0</ele><time>2026-05-02T10:33:09Z</time></trkpt><trkpt lat="44.055409406702104" lon="10.123542322514766"><ele>128.0</ele><time>2026-05-02T10:33:10Z</time></trkpt><trkpt lat="44.055516770359525" lon="10.123463629519986"><ele>128.0</ele><time>2026-05-02T10:33:11Z</time></trkpt><trkpt lat="44.05562364986788" lon="10.123385923070396"><ele>128.0</ele><time>2026-05-02T10:33:12Z</time></trkpt><trkpt lat="44.05573033365403" lon="10.1233077170448"><ele>129.25</ele><time>2026-05-02T10:33:13Z</time></trkpt><trkpt lat="44.055840826576514" lon="10.123231650589764"><ele>130.5</ele><time>2026-05-02T10:33:14Z</time></trkpt><trkpt lat="44.05595545805448" lon="10.123170236657739"><ele>131.75</ele><time>2026-05-02T10:33:15Z</time></trkpt><trkpt lat="44.05607343669388" lon="10.123116002927517"><ele>133.0</ele><time>2026-05-02T10:33:16Z</time></trkpt><trkpt lat="44.05619003857009" lon="10.123063751798101"><ele>133.0</ele><time>2026-05-02T10:33:17Z</time></trkpt><trkpt lat="44.05630498004887" lon="10.123016676131732"><ele>133.0</ele><time>2026-05-02T10:33:18Z</time></trkpt><trkpt lat="44.05641899476032" lon="10.122976390210097"><ele>133.0</ele><time>2026-05-02T10:33:19Z</time></trkpt><trkpt lat="44.05652949527978" lon="10.122939422162245"><ele>133.0</ele><time>2026-05-02T10:33:20Z</time></trkpt><trkpt lat="44.05663293246267" lon="10.12290760629573"><ele>136.4</ele><time>2026-05-02T10:33:21Z</time></trkpt><trkpt lat="44.056729434158235" lon="10.122872858347955"><ele>139.8</ele><time>2026-05-02T10:33:22Z</time></trkpt><trkpt lat="44.05682101651206" lon="10.1228241011555"><ele>143.2</ele><time>2026-05-02T10:33:23Z</time></trkpt><trkpt lat="44.056904431127364" lon="10.122744486773117"><ele>146.6</ele><time>2026-05-02T10:33:24Z</time></trkpt><trkpt lat="44.056973559139955" lon="10.1226353892296"><ele>150.0</ele><time>2026-05-02T10:33:25Z</time></trkpt><trkpt lat="44.05703548598667" lon="10.122513356345161"><ele>145.25</ele><time>2026-05-02T10:33:26Z</time></trkpt><trkpt lat="44.05710018042672" lon="10.122389045011472"><ele>140.5</ele><time>2026-05-02T10:33:27Z</time></trkpt><trkpt lat="44.05716934917737" lon="10.122264184826982"><ele>135.75</ele><time>2026-05-02T10:33:28Z</time></trkpt><trkpt lat="44.0572431142033" lon="10.122136595800033"><ele>131.0</ele><time>2026-05-02T10:33:29Z</time></trkpt><trkpt lat="44.05732675673852" lon="10.12201336650552"><ele>131.0</ele><time>2026-05-02T10:33:30Z</time></trkpt><trkpt lat="44.057415301513046" lon="10.121890641063537"><ele>131.0</ele><time>2026-05-02T10:33:31Z</time></trkpt><trkpt lat="44.05750851205106" lon="10.121769311791768"><ele>131.0</ele><time>2026-05-02T10:33:32Z</time></trkpt><trkpt lat="44.05760061958519" lon="10.121650671664614"><ele>131.0</ele><time>2026-05-02T10:33:33Z</time></trkpt><trkpt lat="44.05769161156873" lon="10.121537014343277"><ele>133.0</ele><time>2026-05-02T10:33:34Z</time></trkpt><trkpt lat="44.05778749022437" lon="10.12143316250203"><ele>135.0</ele><time>2026-05-02T10:33:35Z</time></trkpt><trkpt lat="44.05788237087627" lon="10.121339811622665"><ele>137.0</ele><time>2026-05-02T10:33:36Z</time></trkpt><trkpt lat="44.05796842346961" lon="10.121238619793562"><ele>139.0</ele><time>2026-05-02T10:33:37Z</time></trkpt><trkpt lat="44.05805182378341" lon="10.121129019589066"><ele>139.0</ele><time>2026-05-02T10:33:38Z</time></trkpt><trkpt lat="44.05813195123557" lon="10.121013372403098"><ele>139.0</ele><time>2026-05-02T10:33:39Z</time></trkpt><trkpt lat="44.058214643519555" lon="10.120898239818034"><ele>139.0</ele><time>2026-05-02T10:33:40Z</time></trkpt><trkpt lat="44.058302037831034" lon="10.120788855062262"><ele>139.0</ele><time>2026-05-02T10:33:41Z</time></trkpt><trkpt lat="44.058398268687206" lon="10.120694975438635"><ele>141.0</ele><time>2026-05-02T10:33:42Z</time></trkpt><trkpt lat="44.058498135093814" lon="10.12060830301582"><ele>143.0</ele><time>2026-05-02T10:33:43Z</time></trkpt><trkpt lat="44.05860012828862" lon="10.120523263152457"><ele>145.0</ele><time>2026-05-02T10:33:44Z</time></trkpt><trkpt lat="44.05870455040647" lon="10.120441097761319"><ele>147.0</ele><time>2026-05-02T10:33:45Z</time></trkpt><trkpt lat="44.05881111281194" lon="10.120362857015094"><ele>147.0</ele><time>2026-05-02T10:33:46Z</time></trkpt><trkpt lat="44.058922571357925" lon="10.120291249166275"><ele>147.0</ele><time>2026-05-02T10:33:47Z</time></trkpt><trkpt lat="44.05903903595933" lon="10.120230373388585"><ele>147.0</ele><time>2026-05-02T10:33:48Z</time></trkpt><trkpt lat="44.059155173687806" lon="10.120163119963781"><ele>147.0</ele><time>2026-05-02T10:33:49Z</time></trkpt><trkpt lat="44.05927171150619" lon="10.12009541938024"><ele>143.0</ele><time>2026-05-02T10:33:50Z</time></trkpt><trkpt lat="44.0593852182354" lon="10.120014845792388"><ele>139.0</ele><time>2026-05-02T10:33:51Z</time></trkpt><trkpt lat="44.05949517277616" lon="10.11992341143282"><ele>135.0</ele><time>2026-05-02T10:33:52Z</time></trkpt><trkpt lat="44.059610161671785" lon="10.119834698394373"><ele>131.0</ele><time>2026-05-02T10:33:53Z</time></trkpt><trkpt lat="44.05972655608073" lon="10.11975038362333"><ele>131.0</ele><time>2026-05-02T10:33:54Z</time></trkpt><trkpt lat="44.059846088626415" lon="10.119670157825178"><ele>131.0</ele><time>2026-05-02T10:33:55Z</time></trkpt><trkpt lat="44.059966711099456" lon="10.119593068078736"><ele>131.0</ele><time>2026-05-02T10:33:56Z</time></trkpt><trkpt lat="44.06008789897093" lon="10.119514243078202"><ele>131.0</ele><time>2026-05-02T10:33:57Z</time></trkpt><trkpt lat="44.060211516426655" lon="10.119439409859522"><ele>134.0</ele><time>2026-05-02T10:33:57.999Z</time></trkpt><trkpt lat="44.06033655219154" lon="10.11936830491601"><ele>137.0</ele><time>2026-05-02T10:33:58.999Z</time></trkpt><trkpt lat="44.060455552329834" lon="10.119280188167384"><ele>140.0</ele><time>2026-05-02T10:33:59.999Z</time></trkpt><trkpt lat="44.060569360541905" lon="10.119172938687768"><ele>143.0</ele><time>2026-05-02T10:34:00.999Z</time></trkpt><trkpt lat="44.060680240092594" lon="10.119056997873491"><ele>150.5</ele><time>2026-05-02T10:34:01.999Z</time></trkpt><trkpt lat="44.0607889827222" lon="10.118944176174795"><ele>158.0</ele><time>2026-05-02T10:34:02.999Z</time></trkpt><trkpt lat="44.06089669612196" lon="10.118830818899166"><ele>165.5</ele><time>2026-05-02T10:34:03.999Z</time></trkpt><trkpt lat="44.06100099840282" lon="10.118716666663625"><ele>173.0</ele><time>2026-05-02T10:34:04.999Z</time></trkpt><trkpt lat="44.06110478798454" lon="10.118606188790716"><ele>173.0</ele><time>2026-05-02T10:34:05.999Z</time></trkpt><trkpt lat="44.06120771778194" lon="10.118504964080309"><ele>173.0</ele><time>2026-05-02T10:34:06.999Z</time></trkpt><trkpt lat="44.06130264345606" lon="10.118397162950927"><ele>173.0</ele><time>2026-05-02T10:34:07.999Z</time></trkpt><trkpt lat="44.06139663861773" lon="10.118291149431451"><ele>173.0</ele><time>2026-05-02T10:34:08.999Z</time></trkpt><trkpt lat="44.061492556204094" lon="10.118187414897763"><ele>173.0</ele><time>2026-05-02T10:34:09.999Z</time></trkpt><trkpt lat="44.06160354559156" lon="10.118094704032512"><ele>173.0</ele><time>2026-05-02T10:34:10.999Z</time></trkpt><trkpt lat="44.06171933604837" lon="10.118012172149104"><ele>173.0</ele><time>2026-05-02T10:34:11.999Z</time></trkpt><trkpt lat="44.06184205633977" lon="10.117922467932097"><ele>173.0</ele><time>2026-05-02T10:34:12.999Z</time></trkpt><trkpt lat="44.061976550367426" lon="10.117817829315351"><ele>173.0</ele><time>2026-05-02T10:34:13.999Z</time></trkpt><trkpt lat="44.062138908716356" lon="10.11771779669977"><ele>173.0</ele><time>2026-05-02T10:34:14.999Z</time></trkpt><trkpt lat="44.06231733676125" lon="10.117618406890784"><ele>173.0</ele><time>2026-05-02T10:34:15.999Z</time></trkpt><trkpt lat="44.06249318169762" lon="10.117524137094037"><ele>176.0</ele><time>2026-05-02T10:34:16.999Z</time></trkpt><trkpt lat="44.06265024203451" lon="10.117423125676911"><ele>179.0</ele><time>2026-05-02T10:34:18Z</time></trkpt><trkpt lat="44.06279213454655" lon="10.11733416734486"><ele>182.0</ele><time>2026-05-02T10:34:19Z</time></trkpt><trkpt lat="44.06291987053066" lon="10.117254260577724"><ele>182.0</ele><time>2026-05-02T10:34:20Z</time></trkpt><trkpt lat="44.06302638889969" lon="10.117160682862963"><ele>182.0</ele><time>2026-05-02T10:34:21Z</time></trkpt><trkpt lat="44.06309690190184" lon="10.117031389173306"><ele>182.0</ele><time>2026-05-02T10:34:22Z</time></trkpt><trkpt lat="44.06312623278295" lon="10.116877496386811"><ele>182.0</ele><time>2026-05-02T10:34:23Z</time></trkpt><trkpt lat="44.06311996113863" lon="10.11670340769018"><ele>177.0</ele><time>2026-05-02T10:34:24Z</time></trkpt><trkpt lat="44.06310956351439" lon="10.116524646438188"><ele>172.0</ele><time>2026-05-02T10:34:25Z</time></trkpt><trkpt lat="44.06314914702539" lon="10.116338219987604"><ele>167.0</ele><time>2026-05-02T10:34:26Z</time></trkpt><trkpt lat="44.063217934198306" lon="10.11617054750407"><ele>162.0</ele><time>2026-05-02T10:34:27Z</time></trkpt><trkpt lat="44.06330939139888" lon="10.116008403708177"><ele>167.75</ele><time>2026-05-02T10:34:28Z</time></trkpt><trkpt lat="44.063409580005995" lon="10.115861161056138"><ele>173.5</ele><time>2026-05-02T10:34:29Z</time></trkpt><trkpt lat="44.06352180767269" lon="10.1157224712211"><ele>179.25</ele><time>2026-05-02T10:34:30Z</time></trkpt><trkpt lat="44.06364216236139" lon="10.11559412012221"><ele>185.0</ele><time>2026-05-02T10:34:31Z</time></trkpt><trkpt lat="44.06375992776004" lon="10.115485526941816"><ele>185.0</ele><time>2026-05-02T10:34:32Z</time></trkpt><trkpt lat="44.06388463754447" lon="10.115396436899998"><ele>185.0</ele><time>2026-05-02T10:34:33Z</time></trkpt><trkpt lat="44.064016686655904" lon="10.115333292916459"><ele>185.0</ele><time>2026-05-02T10:34:33.999Z</time></trkpt><trkpt lat="44.06415310370598" lon="10.115271483939352"><ele>185.0</ele><time>2026-05-02T10:34:34.999Z</time></trkpt><trkpt lat="44.0642808720807" lon="10.115174838289715"><ele>190.33333333333331</ele><time>2026-05-02T10:34:35.999Z</time></trkpt><trkpt lat="44.06439739227782" lon="10.115038698995791"><ele>195.66666666666666</ele><time>2026-05-02T10:34:36.999Z</time></trkpt><trkpt lat="44.06449022830817" lon="10.114866426484854"><ele>201.0</ele><time>2026-05-02T10:34:37.999Z</time></trkpt><trkpt lat="44.06456407860107" lon="10.114663076468624"><ele>201.0</ele><time>2026-05-02T10:34:38.999Z</time></trkpt><trkpt lat="44.06465118819044" lon="10.114469004742425"><ele>201.0</ele><time>2026-05-02T10:34:39.999Z</time></trkpt><trkpt lat="44.064742732036294" lon="10.11426776730639"><ele>201.0</ele><time>2026-05-02T10:34:40.999Z</time></trkpt><trkpt lat="44.064836303212445" lon="10.11406391701436"><ele>196.66666666666666</ele><time>2026-05-02T10:34:41.999Z</time></trkpt><trkpt lat="44.06493139634622" lon="10.11385520992674"><ele>192.33333333333331</ele><time>2026-05-02T10:34:42.999Z</time></trkpt><trkpt lat="44.06502685485022" lon="10.11364328736388"><ele>188.0</ele><time>2026-05-02T10:34:43.999Z</time></trkpt><trkpt lat="44.06512291962503" lon="10.113429704757376"><ele>196.33333333333331</ele><time>2026-05-02T10:34:44.999Z</time></trkpt><trkpt lat="44.065220919086755" lon="10.113225212384423"><ele>204.66666666666666</ele><time>2026-05-02T10:34:45.999Z</time></trkpt><trkpt lat="44.06531653479476" lon="10.113028528635862"><ele>213.0</ele><time>2026-05-02T10:34:46.999Z</time></trkpt><trkpt lat="44.065404717679435" lon="10.112835250968022"><ele>213.0</ele><time>2026-05-02T10:34:47.999Z</time></trkpt><trkpt lat="44.065477850164285" lon="10.112651124701795"><ele>213.0</ele><time>2026-05-02T10:34:48.999Z</time></trkpt><trkpt lat="44.06551333536126" lon="10.112465215456668"><ele>213.0</ele><time>2026-05-02T10:34:49.999Z</time></trkpt><trkpt lat="44.06550334680668" lon="10.112278946448622"><ele>213.0</ele><time>2026-05-02T10:34:50.999Z</time></trkpt><trkpt lat="44.065457476079104" lon="10.112114687945565"><ele>216.0</ele><time>2026-05-02T10:34:51.999Z</time></trkpt><trkpt lat="44.06538732678445" lon="10.11197919075065"><ele>219.0</ele><time>2026-05-02T10:34:52.999Z</time></trkpt><trkpt lat="44.06531892793459" lon="10.11183867011674"><ele>222.0</ele><time>2026-05-02T10:34:53.999Z</time></trkpt><trkpt lat="44.065291200121905" lon="10.111679535244907"><ele>225.0</ele><time>2026-05-02T10:34:54.999Z</time></trkpt><trkpt lat="44.06530326321272" lon="10.111523080006242"><ele>229.2</ele><time>2026-05-02T10:34:55.999Z</time></trkpt><trkpt lat="44.06534782453739" lon="10.111380332463481"><ele>233.4</ele><time>2026-05-02T10:34:56.999Z</time></trkpt><trkpt lat="44.06541963519391" lon="10.111273725138673"><ele>237.60000000000002</ele><time>2026-05-02T10:34:57.999Z</time></trkpt><trkpt lat="44.06550982160842" lon="10.111196586219327"><ele>241.8</ele><time>2026-05-02T10:34:58.999Z</time></trkpt><trkpt lat="44.06561079951407" lon="10.111148186963458"><ele>246.0</ele><time>2026-05-02T10:34:59.999Z</time></trkpt><trkpt lat="44.06570895679756" lon="10.111106894027207"><ele>246.25</ele><time>2026-05-02T10:35:00.999Z</time></trkpt><trkpt lat="44.06582210496739" lon="10.111062672293373"><ele>246.5</ele><time>2026-05-02T10:35:01.999Z</time></trkpt><trkpt lat="44.0659402134009" lon="10.111012950129648"><ele>246.75</ele><time>2026-05-02T10:35:02.999Z</time></trkpt><trkpt lat="44.066061495296665" lon="10.110962634690905"><ele>247.0</ele><time>2026-05-02T10:35:03.999Z</time></trkpt><trkpt lat="44.06618407562794" lon="10.110915957916765"><ele>247.0</ele><time>2026-05-02T10:35:04.999Z</time></trkpt><trkpt lat="44.06630733070321" lon="10.11086361460025"><ele>247.0</ele><time>2026-05-02T10:35:05.999Z</time></trkpt><trkpt lat="44.066431322035726" lon="10.110806462624764"><ele>247.0</ele><time>2026-05-02T10:35:06.999Z</time></trkpt><trkpt lat="44.06655140045656" lon="10.11075249744934"><ele>247.0</ele><time>2026-05-02T10:35:07.999Z</time></trkpt><trkpt lat="44.06666826266413" lon="10.110693707613793"><ele>245.75</ele><time>2026-05-02T10:35:08.999Z</time></trkpt><trkpt lat="44.066785839102884" lon="10.11062706443651"><ele>244.5</ele><time>2026-05-02T10:35:09.999Z</time></trkpt><trkpt lat="44.06690485090623" lon="10.110553870522127"><ele>243.25</ele><time>2026-05-02T10:35:10.999Z</time></trkpt><trkpt lat="44.06702486097152" lon="10.110477871948273"><ele>242.0</ele><time>2026-05-02T10:35:11.999Z</time></trkpt><trkpt lat="44.06714664690976" lon="10.11039512990759"><ele>242.0</ele><time>2026-05-02T10:35:12.999Z</time></trkpt><trkpt lat="44.06726739490813" lon="10.11030854266472"><ele>242.0</ele><time>2026-05-02T10:35:13.999Z</time></trkpt><trkpt lat="44.067392704571525" lon="10.110221739365828"><ele>242.0</ele><time>2026-05-02T10:35:14.999Z</time></trkpt><trkpt lat="44.06752059077259" lon="10.110134703453626"><ele>242.0</ele><time>2026-05-02T10:35:15.999Z</time></trkpt><trkpt lat="44.06764795194656" lon="10.110046234670863"><ele>239.0</ele><time>2026-05-02T10:35:16.999Z</time></trkpt><trkpt lat="44.06777513241165" lon="10.109953113655349"><ele>236.0</ele><time>2026-05-02T10:35:17.999Z</time></trkpt><trkpt lat="44.0679070633151" lon="10.10986092337541"><ele>233.0</ele><time>2026-05-02T10:35:18.999Z</time></trkpt><trkpt lat="44.06803543436799" lon="10.109773791492081"><ele>230.0</ele><time>2026-05-02T10:35:19.999Z</time></trkpt><trkpt lat="44.06816471522962" lon="10.109687303453777"><ele>228.0</ele><time>2026-05-02T10:35:20.999Z</time></trkpt><trkpt lat="44.06829571643226" lon="10.109603448415195"><ele>226.0</ele><time>2026-05-02T10:35:21.999Z</time></trkpt><trkpt lat="44.068427254661756" lon="10.109528627513143"><ele>224.0</ele><time>2026-05-02T10:35:22.999Z</time></trkpt><trkpt lat="44.06855942425963" lon="10.109456459219713"><ele>222.0</ele><time>2026-05-02T10:35:23.999Z</time></trkpt><trkpt lat="44.06869328419252" lon="10.109384186182291"><ele>222.0</ele><time>2026-05-02T10:35:24.999Z</time></trkpt><trkpt lat="44.06882395485742" lon="10.109311449078175"><ele>222.0</ele><time>2026-05-02T10:35:25.999Z</time></trkpt><trkpt lat="44.06895873893383" lon="10.10925003172918"><ele>222.0</ele><time>2026-05-02T10:35:26.999Z</time></trkpt><trkpt lat="44.06909703100563" lon="10.109202716480256"><ele>222.0</ele><time>2026-05-02T10:35:27.999Z</time></trkpt><trkpt lat="44.06923562998774" lon="10.109150836772846"><ele>221.0</ele><time>2026-05-02T10:35:28.999Z</time></trkpt><trkpt lat="44.06937264545191" lon="10.10907953787043"><ele>220.0</ele><time>2026-05-02T10:35:29.999Z</time></trkpt><trkpt lat="44.06950444352431" lon="10.108979342135104"><ele>219.0</ele><time>2026-05-02T10:35:30.999Z</time></trkpt><trkpt lat="44.06962286903718" lon="10.108843389967282"><ele>223.33333333333331</ele><time>2026-05-02T10:35:31.999Z</time></trkpt><trkpt lat="44.06971967294989" lon="10.10867348891983"><ele>227.66666666666666</ele><time>2026-05-02T10:35:32.999Z</time></trkpt><trkpt lat="44.06979140953335" lon="10.108491185355154"><ele>232.0</ele><time>2026-05-02T10:35:33.999Z</time></trkpt><trkpt lat="44.06983804562239" lon="10.108297585267525"><ele>232.75</ele><time>2026-05-02T10:35:34.999Z</time></trkpt><trkpt lat="44.06985035199509" lon="10.108101415658163"><ele>233.5</ele><time>2026-05-02T10:35:35.999Z</time></trkpt><trkpt lat="44.06983394746842" lon="10.107908437733164"><ele>234.25</ele><time>2026-05-02T10:35:36.998Z</time></trkpt><trkpt lat="44.069806528346795" lon="10.10773642621521"><ele>235.0</ele><time>2026-05-02T10:35:37.998Z</time></trkpt><trkpt lat="44.06977831610352" lon="10.107573900599869"><ele>235.0</ele><time>2026-05-02T10:35:38.998Z</time></trkpt><trkpt lat="44.06976726036602" lon="10.107415047658618"><ele>235.0</ele><time>2026-05-02T10:35:39.998Z</time></trkpt><trkpt lat="44.06978699847262" lon="10.107266981975233"><ele>235.0</ele><time>2026-05-02T10:35:40.998Z</time></trkpt><trkpt lat="44.06982969707116" lon="10.107150660623425"><ele>235.0</ele><time>2026-05-02T10:35:41.998Z</time></trkpt><trkpt lat="44.06989868654397" lon="10.10706077676568"><ele>235.0</ele><time>2026-05-02T10:35:42.998Z</time></trkpt><trkpt lat="44.06998880995044" lon="10.107000255074801"><ele>229.8</ele><time>2026-05-02T10:35:43.998Z</time></trkpt><trkpt lat="44.070088307487374" lon="10.106968528348837"><ele>224.6</ele><time>2026-05-02T10:35:44.998Z</time></trkpt><trkpt lat="44.070191586951125" lon="10.106936525992406"><ele>219.39999999999998</ele><time>2026-05-02T10:35:45.998Z</time></trkpt><trkpt lat="44.07029869852498" lon="10.1068959216136"><ele>214.2</ele><time>2026-05-02T10:35:46.998Z</time></trkpt><trkpt lat="44.07040577312317" lon="10.106847522607287"><ele>209.0</ele><time>2026-05-02T10:35:47.998Z</time></trkpt><trkpt lat="44.07050951803719" lon="10.10680219128434"><ele>209.0</ele><time>2026-05-02T10:35:48.998Z</time></trkpt><trkpt lat="44.070615770728025" lon="10.106757954393592"><ele>209.0</ele><time>2026-05-02T10:35:49.998Z</time></trkpt><trkpt lat="44.070713982632945" lon="10.106714453475595"><ele>209.0</ele><time>2026-05-02T10:35:50.998Z</time></trkpt><trkpt lat="44.070804325142596" lon="10.106660377680745"><ele>209.0</ele><time>2026-05-02T10:35:51.998Z</time></trkpt><trkpt lat="44.0708857739253" lon="10.106575078867037"><ele>209.0</ele><time>2026-05-02T10:35:52.998Z</time></trkpt><trkpt lat="44.07094874292391" lon="10.106457114080293"><ele>208.6</ele><time>2026-05-02T10:35:53.998Z</time></trkpt><trkpt lat="44.07099826210364" lon="10.106324632625554"><ele>208.2</ele><time>2026-05-02T10:35:54.998Z</time></trkpt><trkpt lat="44.07105130890266" lon="10.106192675259786"><ele>207.79999999999998</ele><time>2026-05-02T10:35:55.998Z</time></trkpt><trkpt lat="44.07111583346937" lon="10.106071761242882"><ele>207.39999999999998</ele><time>2026-05-02T10:35:56.998Z</time></trkpt><trkpt lat="44.07119097639684" lon="10.105970574030161"><ele>207.0</ele><time>2026-05-02T10:35:57.998Z</time></trkpt><trkpt lat="44.07128297367224" lon="10.105894801596829"><ele>207.0</ele><time>2026-05-02T10:35:58.998Z</time></trkpt><trkpt lat="44.07139201741904" lon="10.105857676723248"><ele>207.0</ele><time>2026-05-02T10:35:59.998Z</time></trkpt><trkpt lat="44.071499306097564" lon="10.105864244563453"><ele>207.0</ele><time>2026-05-02T10:36:00.998Z</time></trkpt><trkpt lat="44.07160236398998" lon="10.105889862581115"><ele>207.0</ele><time>2026-05-02T10:36:01.998Z</time></trkpt><trkpt lat="44.071688063888345" lon="10.105942955739899"><ele>207.0</ele><time>2026-05-02T10:36:02.998Z</time></trkpt><trkpt lat="44.07176869897547" lon="10.106002657974939"><ele>202.75</ele><time>2026-05-02T10:36:03.998Z</time></trkpt><trkpt lat="44.071859294134846" lon="10.106044923265106"><ele>198.5</ele><time>2026-05-02T10:36:04.998Z</time></trkpt><trkpt lat="44.071963373645204" lon="10.106047934869244"><ele>194.25</ele><time>2026-05-02T10:36:05.998Z</time></trkpt><trkpt lat="44.07208086892974" lon="10.106008608803862"><ele>190.0</ele><time>2026-05-02T10:36:06.998Z</time></trkpt><trkpt lat="44.0722109448564" lon="10.105917414872474"><ele>190.0</ele><time>2026-05-02T10:36:07.998Z</time></trkpt><trkpt lat="44.07235855806628" lon="10.105807514200794"><ele>190.0</ele><time>2026-05-02T10:36:08.998Z</time></trkpt><trkpt lat="44.072518057052775" lon="10.10571423406272"><ele>190.0</ele><time>2026-05-02T10:36:09.998Z</time></trkpt><trkpt lat="44.07267997338032" lon="10.105630635232533"><ele>187.33333333333334</ele><time>2026-05-02T10:36:10.998Z</time></trkpt><trkpt lat="44.07283495372345" lon="10.105548148560125"><ele>184.66666666666666</ele><time>2026-05-02T10:36:11.998Z</time></trkpt><trkpt lat="44.07298832667491" lon="10.10548359172935"><ele>182.0</ele><time>2026-05-02T10:36:12.998Z</time></trkpt><trkpt lat="44.07312489252131" lon="10.10543628275896"><ele>182.0</ele><time>2026-05-02T10:36:13.998Z</time></trkpt><trkpt lat="44.073246983418194" lon="10.105394377687373"><ele>182.0</ele><time>2026-05-02T10:36:14.998Z</time></trkpt><trkpt lat="44.0733485775431" lon="10.105360613873335"><ele>182.0</ele><time>2026-05-02T10:36:15.998Z</time></trkpt><trkpt lat="44.07344238591003" lon="10.105354826577667"><ele>182.0</ele><time>2026-05-02T10:36:16.998Z</time></trkpt><trkpt lat="44.07350778200381" lon="10.10541015945119"><ele>182.0</ele><time>2026-05-02T10:36:17.998Z</time></trkpt><trkpt lat="44.07354673276442" lon="10.105495346562956"><ele>180.33333333333331</ele><time>2026-05-02T10:36:18.998Z</time></trkpt><trkpt lat="44.07354815189581" lon="10.105591327793118"><ele>178.66666666666666</ele><time>2026-05-02T10:36:19.998Z</time></trkpt><trkpt lat="44.07350618372086" lon="10.105689430718018"><ele>177.0</ele><time>2026-05-02T10:36:20.998Z</time></trkpt><trkpt lat="44.073432092398335" lon="10.105761206882322"><ele>175.33333333333334</ele><time>2026-05-02T10:36:21.998Z</time></trkpt><trkpt lat="44.07334269771217" lon="10.105791599527432"><ele>173.66666666666669</ele><time>2026-05-02T10:36:22.998Z</time></trkpt><trkpt lat="44.073245113711614" lon="10.105786098087046"><ele>172.0</ele><time>2026-05-02T10:36:23.998Z</time></trkpt><trkpt lat="44.073154616168964" lon="10.105790271834586"><ele>172.0</ele><time>2026-05-02T10:36:24.998Z</time></trkpt><trkpt lat="44.0730806325668" lon="10.105805662398517"><ele>172.0</ele><time>2026-05-02T10:36:25.998Z</time></trkpt><trkpt lat="44.07301964398075" lon="10.105833600796336"><ele>172.0</ele><time>2026-05-02T10:36:26.998Z</time></trkpt><trkpt lat="44.07295287675777" lon="10.105943041272987"><ele>172.0</ele><time>2026-05-02T10:36:28.998Z</time></trkpt><trkpt lat="44.07301524210903" lon="10.106068204323503"><ele>172.0</ele><time>2026-05-02T10:36:30.998Z</time></trkpt><trkpt lat="44.07309188525479" lon="10.106086000239184"><ele>172.0</ele><time>2026-05-02T10:36:31.998Z</time></trkpt><trkpt lat="44.07319525913653" lon="10.106057693339958"><ele>168.0</ele><time>2026-05-02T10:36:32.998Z</time></trkpt><trkpt lat="44.07330287003783" lon="10.106023438264115"><ele>164.0</ele><time>2026-05-02T10:36:33.998Z</time></trkpt><trkpt lat="44.07342491097829" lon="10.105986064820305"><ele>160.0</ele><time>2026-05-02T10:36:34.998Z</time></trkpt><trkpt lat="44.073523766674" lon="10.10593469732206"><ele>156.0</ele><time>2026-05-02T10:36:35.998Z</time></trkpt><trkpt lat="44.07361443727761" lon="10.105878793717098"><ele>152.0</ele><time>2026-05-02T10:36:36.998Z</time></trkpt><trkpt lat="44.07369497634581" lon="10.105805762833777"><ele>152.4</ele><time>2026-05-02T10:36:37.998Z</time></trkpt><trkpt lat="44.073755485280444" lon="10.105713162235109"><ele>152.79999999999998</ele><time>2026-05-02T10:36:38.998Z</time></trkpt><trkpt lat="44.0737916120507" lon="10.105599855121516"><ele>153.2</ele><time>2026-05-02T10:36:39.998Z</time></trkpt><trkpt lat="44.07379926377082" lon="10.10548716235805"><ele>153.6</ele><time>2026-05-02T10:36:40.998Z</time></trkpt><trkpt lat="44.07379561091357" lon="10.10535674793771"><ele>154.0</ele><time>2026-05-02T10:36:42.998Z</time></trkpt><trkpt lat="44.07389468114599" lon="10.105314833223748"><ele>154.0</ele><time>2026-05-02T10:36:45.998Z</time></trkpt><trkpt lat="44.073932354115655" lon="10.105407533659092"><ele>154.0</ele><time>2026-05-02T10:36:46.999Z</time></trkpt><trkpt lat="44.0739406466339" lon="10.105534022516887"><ele>154.0</ele><time>2026-05-02T10:36:47.999Z</time></trkpt><trkpt lat="44.07394237339264" lon="10.105734917458824"><ele>154.0</ele><time>2026-05-02T10:36:49.999Z</time></trkpt><trkpt lat="44.07390593452871" lon="10.10584507343409"><ele>154.0</ele><time>2026-05-02T10:36:50.999Z</time></trkpt><trkpt lat="44.07384448071588" lon="10.105936773059621"><ele>153.71428571428572</ele><time>2026-05-02T10:36:51.999Z</time></trkpt><trkpt lat="44.07376561464679" lon="10.106001850810221"><ele>153.42857142857144</ele><time>2026-05-02T10:36:52.999Z</time></trkpt><trkpt lat="44.073689232868325" lon="10.106054710299855"><ele>153.14285714285714</ele><time>2026-05-02T10:36:53.999Z</time></trkpt><trkpt lat="44.073628866358575" lon="10.106108168989733"><ele>152.85714285714286</ele><time>2026-05-02T10:36:54.999Z</time></trkpt><trkpt lat="44.07358776899169" lon="10.106178250102907"><ele>152.57142857142858</ele><time>2026-05-02T10:36:55.999Z</time></trkpt><trkpt lat="44.073578578451304" lon="10.106268670286486"><ele>152.28571428571428</ele><time>2026-05-02T10:36:56.999Z</time></trkpt><trkpt lat="44.073612775868426" lon="10.106346385819895"><ele>152.0</ele><time>2026-05-02T10:36:57.999Z</time></trkpt><trkpt lat="44.073673108430896" lon="10.106381326755182"><ele>152.0</ele><time>2026-05-02T10:36:58.999Z</time></trkpt><trkpt lat="44.07374145718963" lon="10.106353127697233"><ele>152.0</ele><time>2026-05-02T10:36:59.999Z</time></trkpt><trkpt lat="44.073807892732745" lon="10.10629243137336"><ele>152.0</ele><time>2026-05-02T10:37:00.999Z</time></trkpt><trkpt lat="44.07387455481913" lon="10.106231100521207"><ele>152.0</ele><time>2026-05-02T10:37:01.999Z</time></trkpt><trkpt lat="44.07395446879041" lon="10.106158616850456"><ele>152.0</ele><time>2026-05-02T10:37:02.999Z</time></trkpt><trkpt lat="44.074042531943235" lon="10.106080201226725"><ele>152.0</ele><time>2026-05-02T10:37:03.999Z</time></trkpt><trkpt lat="44.07413272245551" lon="10.105992348521383"><ele>147.75</ele><time>2026-05-02T10:37:04.999Z</time></trkpt><trkpt lat="44.074219375013556" lon="10.105884284845004"><ele>143.5</ele><time>2026-05-02T10:37:05.999Z</time></trkpt><trkpt lat="44.07430312817329" lon="10.105771056914099"><ele>139.25</ele><time>2026-05-02T10:37:06.999Z</time></trkpt><trkpt lat="44.074383277496416" lon="10.10565895353259"><ele>135.0</ele><time>2026-05-02T10:37:07.999Z</time></trkpt><trkpt lat="44.07445343072025" lon="10.1055517712183"><ele>134.8</ele><time>2026-05-02T10:37:08.999Z</time></trkpt><trkpt lat="44.074520902947086" lon="10.105445583663359"><ele>134.6</ele><time>2026-05-02T10:37:09.999Z</time></trkpt><trkpt lat="44.07458593045755" lon="10.105342295724178"><ele>134.4</ele><time>2026-05-02T10:37:10.999Z</time></trkpt><trkpt lat="44.07464581673718" lon="10.105243658421282"><ele>134.2</ele><time>2026-05-02T10:37:11.999Z</time></trkpt><trkpt lat="44.074709781754834" lon="10.105142863666345"><ele>134.0</ele><time>2026-05-02T10:37:12.999Z</time></trkpt><trkpt lat="44.074778177734245" lon="10.105041950288305"><ele>134.0</ele><time>2026-05-02T10:37:13.999Z</time></trkpt><trkpt lat="44.074845527636754" lon="10.104950855471143"><ele>134.0</ele><time>2026-05-02T10:37:14.999Z</time></trkpt><trkpt lat="44.07490225151138" lon="10.104859371003297"><ele>134.0</ele><time>2026-05-02T10:37:15.999Z</time></trkpt><trkpt lat="44.07495268428746" lon="10.104789473462494"><ele>134.0</ele><time>2026-05-02T10:37:16.999Z</time></trkpt><trkpt lat="44.075027572376364" lon="10.104689996809938"><ele>134.0</ele><time>2026-05-02T10:37:18.999Z</time></trkpt><trkpt lat="44.07508410365806" lon="10.10460811691396"><ele>134.0</ele><time>2026-05-02T10:37:20.998Z</time></trkpt><trkpt lat="44.0751554021195" lon="10.104464699669597"><ele>131.66666666666666</ele><time>2026-05-02T10:37:22.998Z</time></trkpt><trkpt lat="44.075211404932865" lon="10.104382175244881"><ele>129.33333333333331</ele><time>2026-05-02T10:37:23.998Z</time></trkpt><trkpt lat="44.07526843558023" lon="10.10430192814948"><ele>127.0</ele><time>2026-05-02T10:37:24.998Z</time></trkpt><trkpt lat="44.0753232957904" lon="10.10421826030978"><ele>124.66666666666666</ele><time>2026-05-02T10:37:25.998Z</time></trkpt><trkpt lat="44.075374642220005" lon="10.10413525693275"><ele>122.33333333333333</ele><time>2026-05-02T10:37:26.998Z</time></trkpt><trkpt lat="44.0754251651109" lon="10.104053376860906"><ele>120.0</ele><time>2026-05-02T10:37:27.998Z</time></trkpt><trkpt lat="44.075478552655554" lon="10.10397895874759"><ele>119.5</ele><time>2026-05-02T10:37:28.998Z</time></trkpt><trkpt lat="44.07552448906472" lon="10.103910119992124"><ele>119.0</ele><time>2026-05-02T10:37:29.998Z</time></trkpt><trkpt lat="44.075564782992544" lon="10.103842367250135"><ele>118.5</ele><time>2026-05-02T10:37:30.998Z</time></trkpt><trkpt lat="44.07560638243832" lon="10.1037758999795"><ele>118.0</ele><time>2026-05-02T10:37:31.998Z</time></trkpt><trkpt lat="44.075692735691774" lon="10.10366151764719"><ele>117.5</ele><time>2026-05-02T10:37:33.998Z</time></trkpt><trkpt lat="44.075758225134" lon="10.103571715719916"><ele>117.0</ele><time>2026-05-02T10:37:35.998Z</time></trkpt><trkpt lat="44.07589258444793" lon="10.103663543799717"><ele>117.0</ele><time>2026-05-02T10:37:38.998Z</time></trkpt><trkpt lat="44.075939978705954" lon="10.103732553584925"><ele>117.00000000000001</ele><time>2026-05-02T10:37:39.998Z</time></trkpt><trkpt lat="44.075991331031034" lon="10.103803559867641"><ele>117.0</ele><time>2026-05-02T10:37:40.998Z</time></trkpt><trkpt lat="44.076048595690374" lon="10.103868757219583"><ele>117.0</ele><time>2026-05-02T10:37:41.998Z</time></trkpt><trkpt lat="44.07610374779615" lon="10.103933941611805"><ele>117.00000000000001</ele><time>2026-05-02T10:37:42.998Z</time></trkpt><trkpt lat="44.07615808648309" lon="10.104001056522797"><ele>117.0</ele><time>2026-05-02T10:37:43.998Z</time></trkpt><trkpt lat="44.07620975620631" lon="10.104068361804025"><ele>117.0</ele><time>2026-05-02T10:37:44.998Z</time></trkpt><trkpt lat="44.076277755437495" lon="10.104156413203144"><ele>117.0</ele><time>2026-05-02T10:37:46.998Z</time></trkpt><trkpt lat="44.07636002777271" lon="10.104154477576955"><ele>117.0</ele><time>2026-05-02T10:37:49.998Z</time></trkpt><trkpt lat="44.07640964706933" lon="10.104069900700775"><ele>117.0</ele><time>2026-05-02T10:37:50.998Z</time></trkpt><trkpt lat="44.076451416684066" lon="10.10397910878456"><ele>117.0</ele><time>2026-05-02T10:37:51.998Z</time></trkpt><trkpt lat="44.07650378671924" lon="10.103890662883684"><ele>117.0</ele><time>2026-05-02T10:37:52.998Z</time></trkpt><trkpt lat="44.07655841872631" lon="10.103797957214459"><ele>117.0</ele><time>2026-05-02T10:37:53.998Z</time></trkpt><trkpt lat="44.07661523399376" lon="10.103719924660627"><ele>116.0</ele><time>2026-05-02T10:37:54.998Z</time></trkpt><trkpt lat="44.07666129636802" lon="10.103649810716513"><ele>115.0</ele><time>2026-05-02T10:37:55.998Z</time></trkpt><trkpt lat="44.076710960808995" lon="10.10356650126321"><ele>114.0</ele><time>2026-05-02T10:37:56.998Z</time></trkpt><trkpt lat="44.07677078721727" lon="10.103474515634018"><ele>113.0</ele><time>2026-05-02T10:37:57.998Z</time></trkpt><trkpt lat="44.07683825474135" lon="10.103371860208288"><ele>112.0</ele><time>2026-05-02T10:37:58.998Z</time></trkpt><trkpt lat="44.07689337487038" lon="10.1032772717339"><ele>111.0</ele><time>2026-05-02T10:37:59.998Z</time></trkpt><trkpt lat="44.07694009828378" lon="10.103203518859656"><ele>111.0</ele><time>2026-05-02T10:38:00.998Z</time></trkpt><trkpt lat="44.07701111076571" lon="10.103070975724574"><ele>111.0</ele><time>2026-05-02T10:38:02.998Z</time></trkpt><trkpt lat="44.07705464818073" lon="10.103001280955553"><ele>111.0</ele><time>2026-05-02T10:38:03.998Z</time></trkpt><trkpt lat="44.07711212289624" lon="10.102939877802838"><ele>111.0</ele><time>2026-05-02T10:38:04.998Z</time></trkpt><trkpt lat="44.07716027005365" lon="10.102866347111018"><ele>111.0</ele><time>2026-05-02T10:38:05.998Z</time></trkpt><trkpt lat="44.07722877699237" lon="10.102761722808662"><ele>111.0</ele><time>2026-05-02T10:38:07.998Z</time></trkpt><trkpt lat="44.07729766940373" lon="10.102699797431006"><ele>111.0</ele><time>2026-05-02T10:38:14.998Z</time></trkpt><trkpt lat="44.07742572759817" lon="10.102740495313396"><ele>111.0</ele><time>2026-05-02T10:38:16.998Z</time></trkpt><trkpt lat="44.077520937584765" lon="10.102776086772725"><ele>111.0</ele><time>2026-05-02T10:38:17.998Z</time></trkpt><trkpt lat="44.077626682512026" lon="10.102795033291148"><ele>111.0</ele><time>2026-05-02T10:38:18.998Z</time></trkpt><trkpt lat="44.07774874647155" lon="10.10281016500152"><ele>110.75</ele><time>2026-05-02T10:38:19.998Z</time></trkpt><trkpt lat="44.07788195708427" lon="10.102816942718942"><ele>110.5</ele><time>2026-05-02T10:38:20.998Z</time></trkpt><trkpt lat="44.078015172606285" lon="10.102810664079529"><ele>110.25</ele><time>2026-05-02T10:38:21.998Z</time></trkpt><trkpt lat="44.07813253396322" lon="10.102799136372694"><ele>110.0</ele><time>2026-05-02T10:38:22.998Z</time></trkpt><trkpt lat="44.07823242569345" lon="10.102792120132342"><ele>110.49999999999999</ele><time>2026-05-02T10:38:23.998Z</time></trkpt><trkpt lat="44.078320800971085" lon="10.10278963677561"><ele>111.0</ele><time>2026-05-02T10:38:24.998Z</time></trkpt><trkpt lat="44.07840406026963" lon="10.102782993066961"><ele>111.5</ele><time>2026-05-02T10:38:25.998Z</time></trkpt><trkpt lat="44.07847879946759" lon="10.10275948231882"><ele>112.0</ele><time>2026-05-02T10:38:26.998Z</time></trkpt><trkpt lat="44.07854813563205" lon="10.10271910995418"><ele>112.49999999999999</ele><time>2026-05-02T10:38:27.998Z</time></trkpt><trkpt lat="44.07861324327792" lon="10.102679016712212"><ele>113.0</ele><time>2026-05-02T10:38:28.998Z</time></trkpt><trkpt lat="44.07867958954374" lon="10.10265379609213"><ele>112.99999999999999</ele><time>2026-05-02T10:38:29.998Z</time></trkpt><trkpt lat="44.078748042682705" lon="10.102649661859463"><ele>113.0</ele><time>2026-05-02T10:38:30.998Z</time></trkpt><trkpt lat="44.078812610692246" lon="10.10267789051999"><ele>113.0</ele><time>2026-05-02T10:38:31.998Z</time></trkpt><trkpt lat="44.078868278642496" lon="10.102726727403164"><ele>113.0</ele><time>2026-05-02T10:38:32.998Z</time></trkpt><trkpt lat="44.07897891080878" lon="10.102805189858945"><ele>112.99999999999999</ele><time>2026-05-02T10:38:34.998Z</time></trkpt><trkpt lat="44.079020786973004" lon="10.102894273054224"><ele>113.0</ele><time>2026-05-02T10:38:35.998Z</time></trkpt><trkpt lat="44.079076059017" lon="10.102951140131058"><ele>113.66666666666666</ele><time>2026-05-02T10:38:36.998Z</time></trkpt><trkpt lat="44.079131034961" lon="10.103011579881573"><ele>114.33333333333333</ele><time>2026-05-02T10:38:37.998Z</time></trkpt><trkpt lat="44.07919364168215" lon="10.103069029485717"><ele>115.0</ele><time>2026-05-02T10:38:38.998Z</time></trkpt><trkpt lat="44.07925441115079" lon="10.103136159923746"><ele>115.66666666666666</ele><time>2026-05-02T10:38:39.998Z</time></trkpt><trkpt lat="44.07931517671309" lon="10.103205449687824"><ele>116.33333333333333</ele><time>2026-05-02T10:38:40.998Z</time></trkpt><trkpt lat="44.079380976646334" lon="10.103273100913913"><ele>117.0</ele><time>2026-05-02T10:38:41.998Z</time></trkpt><trkpt lat="44.07944179073551" lon="10.103341810459781"><ele>117.33333333333333</ele><time>2026-05-02T10:38:42.998Z</time></trkpt><trkpt lat="44.07950020140933" lon="10.103406229648385"><ele>117.66666666666666</ele><time>2026-05-02T10:38:43.998Z</time></trkpt><trkpt lat="44.079551133461806" lon="10.103464560097459"><ele>118.0</ele><time>2026-05-02T10:38:44.998Z</time></trkpt><trkpt lat="44.079637940201955" lon="10.103568726371666"><ele>118.33333333333333</ele><time>2026-05-02T10:38:46.998Z</time></trkpt><trkpt lat="44.07970540286046" lon="10.103661630812507"><ele>118.66666666666666</ele><time>2026-05-02T10:38:48.998Z</time></trkpt><trkpt lat="44.079792289442864" lon="10.103707063992053"><ele>119.0</ele><time>2026-05-02T10:38:50.998Z</time></trkpt><trkpt lat="44.079877629084514" lon="10.103592239425865"><ele>118.99999999999999</ele><time>2026-05-02T10:38:51.998Z</time></trkpt><trkpt lat="44.07993004742525" lon="10.10351082456937"><ele>119.0</ele><time>2026-05-02T10:38:52.998Z</time></trkpt><trkpt lat="44.07998082817373" lon="10.103419351020488"><ele>119.0</ele><time>2026-05-02T10:38:53.998Z</time></trkpt><trkpt lat="44.08001927960423" lon="10.10332763347747"><ele>119.0</ele><time>2026-05-02T10:38:54.998Z</time></trkpt><trkpt lat="44.08002861743134" lon="10.103231055354168"><ele>118.99999999999999</ele><time>2026-05-02T10:38:55.998Z</time></trkpt><trkpt lat="44.08000622161488" lon="10.103134995519525"><ele>119.0</ele><time>2026-05-02T10:38:56.998Z</time></trkpt><trkpt lat="44.07995919943958" lon="10.103048042641385"><ele>118.80000000000001</ele><time>2026-05-02T10:38:57.998Z</time></trkpt><trkpt lat="44.07991396269394" lon="10.10297506224578"><ele>118.60000000000001</ele><time>2026-05-02T10:38:58.998Z</time></trkpt><trkpt lat="44.079875502329735" lon="10.102838083444283"><ele>118.4</ele><time>2026-05-02T10:39:00.998Z</time></trkpt><trkpt lat="44.0799713877986" lon="10.102714048250164"><ele>118.2</ele><time>2026-05-02T10:39:03.998Z</time></trkpt><trkpt lat="44.08005809975624" lon="10.102710336517193"><ele>118.0</ele><time>2026-05-02T10:39:04.998Z</time></trkpt><trkpt lat="44.080153347881286" lon="10.102706733778593"><ele>118.0</ele><time>2026-05-02T10:39:05.998Z</time></trkpt><trkpt lat="44.08025662784965" lon="10.102713632820677"><ele>118.0</ele><time>2026-05-02T10:39:06.998Z</time></trkpt><trkpt lat="44.08036669120737" lon="10.102729993939633"><ele>118.0</ele><time>2026-05-02T10:39:07.998Z</time></trkpt><trkpt lat="44.08048176923059" lon="10.10272782125589"><ele>118.0</ele><time>2026-05-02T10:39:08.998Z</time></trkpt><trkpt lat="44.08060530415076" lon="10.102727754626608"><ele>118.0</ele><time>2026-05-02T10:39:09.998Z</time></trkpt><trkpt lat="44.08072928860334" lon="10.102744609354417"><ele>118.0</ele><time>2026-05-02T10:39:10.998Z</time></trkpt><trkpt lat="44.0808494092438" lon="10.10277727362093"><ele>118.0</ele><time>2026-05-02T10:39:11.998Z</time></trkpt><trkpt lat="44.080968044812764" lon="10.102819094519797"><ele>118.0</ele><time>2026-05-02T10:39:12.998Z</time></trkpt><trkpt lat="44.08108258044815" lon="10.10288630841905"><ele>116.5</ele><time>2026-05-02T10:39:13.998Z</time></trkpt><trkpt lat="44.08119197876465" lon="10.102989433058378"><ele>115.0</ele><time>2026-05-02T10:39:14.998Z</time></trkpt><trkpt lat="44.08129840337057" lon="10.10310751304304"><ele>113.5</ele><time>2026-05-02T10:39:15.998Z</time></trkpt><trkpt lat="44.08140611286454" lon="10.103227341968724"><ele>112.0</ele><time>2026-05-02T10:39:16.998Z</time></trkpt><trkpt lat="44.081508306286416" lon="10.103347574805241"><ele>113.75</ele><time>2026-05-02T10:39:17.998Z</time></trkpt><trkpt lat="44.081602597823895" lon="10.103475209483415"><ele>115.5</ele><time>2026-05-02T10:39:18.998Z</time></trkpt><trkpt lat="44.081685359658586" lon="10.103619547307265"><ele>117.25</ele><time>2026-05-02T10:39:19.998Z</time></trkpt><trkpt lat="44.081757904013024" lon="10.103776213771672"><ele>119.0</ele><time>2026-05-02T10:39:20.998Z</time></trkpt><trkpt lat="44.081815274325116" lon="10.103938949235449"><ele>123.0</ele><time>2026-05-02T10:39:21.998Z</time></trkpt><trkpt lat="44.08185358166276" lon="10.104106805697791"><ele>127.0</ele><time>2026-05-02T10:39:22.998Z</time></trkpt><trkpt lat="44.08187387386141" lon="10.104275872034695"><ele>131.0</ele><time>2026-05-02T10:39:23.998Z</time></trkpt><trkpt lat="44.08187886925819" lon="10.10444199847424"><ele>135.0</ele><time>2026-05-02T10:39:24.998Z</time></trkpt><trkpt lat="44.081882556354465" lon="10.104608124371369"><ele>135.0</ele><time>2026-05-02T10:39:25.998Z</time></trkpt><trkpt lat="44.08187826068295" lon="10.104775787328322"><ele>135.0</ele><time>2026-05-02T10:39:26.998Z</time></trkpt><trkpt lat="44.081864436984475" lon="10.104951044492633"><ele>135.0</ele><time>2026-05-02T10:39:27.998Z</time></trkpt><trkpt lat="44.08184360583274" lon="10.105126723333354"><ele>135.0</ele><time>2026-05-02T10:39:28.998Z</time></trkpt><trkpt lat="44.081808847604556" lon="10.105299787668836"><ele>135.0</ele><time>2026-05-02T10:39:29.997Z</time></trkpt><trkpt lat="44.08176677821753" lon="10.105472336619739"><ele>135.0</ele><time>2026-05-02T10:39:30.997Z</time></trkpt><trkpt lat="44.08171999783718" lon="10.105643318199682"><ele>135.0</ele><time>2026-05-02T10:39:31.997Z</time></trkpt><trkpt lat="44.08167270461912" lon="10.105822309593696"><ele>135.0</ele><time>2026-05-02T10:39:32.997Z</time></trkpt><trkpt lat="44.08162838306463" lon="10.10599537799194"><ele>138.0</ele><time>2026-05-02T10:39:33.997Z</time></trkpt><trkpt lat="44.08159371259689" lon="10.106161261724202"><ele>141.0</ele><time>2026-05-02T10:39:34.997Z</time></trkpt><trkpt lat="44.08156870297642" lon="10.10632222916362"><ele>144.0</ele><time>2026-05-02T10:39:35.997Z</time></trkpt><trkpt lat="44.08154410045038" lon="10.106480156184677"><ele>147.0</ele><time>2026-05-02T10:39:36.997Z</time></trkpt><trkpt lat="44.08152382080683" lon="10.10663553053643"><ele>149.33333333333334</ele><time>2026-05-02T10:39:37.997Z</time></trkpt><trkpt lat="44.08151531420143" lon="10.106769998349838"><ele>151.66666666666666</ele><time>2026-05-02T10:39:38.997Z</time></trkpt><trkpt lat="44.08154047108712" lon="10.106883111569674"><ele>154.0</ele><time>2026-05-02T10:39:39.997Z</time></trkpt><trkpt lat="44.08158284176197" lon="10.106962197205771"><ele>156.33333333333331</ele><time>2026-05-02T10:39:40.997Z</time></trkpt><trkpt lat="44.08164097319819" lon="10.10702384793283"><ele>158.66666666666666</ele><time>2026-05-02T10:39:41.997Z</time></trkpt><trkpt lat="44.08170621332228" lon="10.107110694468494"><ele>161.0</ele><time>2026-05-02T10:39:42.997Z</time></trkpt><trkpt lat="44.08175828134161" lon="10.10720614318427"><ele>157.33333333333331</ele><time>2026-05-02T10:39:43.997Z</time></trkpt><trkpt lat="44.08180643672242" lon="10.107289252060573"><ele>153.66666666666666</ele><time>2026-05-02T10:39:44.997Z</time></trkpt><trkpt lat="44.081848145471035" lon="10.107361563475495"><ele>150.0</ele><time>2026-05-02T10:39:45.997Z</time></trkpt><trkpt lat="44.08188827122701" lon="10.107430798400177"><ele>146.33333333333334</ele><time>2026-05-02T10:39:48.997Z</time></trkpt><trkpt lat="44.08193130356701" lon="10.107495898079442"><ele>142.66666666666669</ele><time>2026-05-02T10:39:57.997Z</time></trkpt><trkpt lat="44.08202298602952" lon="10.10737441297651"><ele>139.0</ele><time>2026-05-02T10:39:58.997Z</time></trkpt><trkpt lat="44.08205829553208" lon="10.10724887896809"><ele>137.6</ele><time>2026-05-02T10:39:59.997Z</time></trkpt><trkpt lat="44.08209963970453" lon="10.10712427758366"><ele>136.2</ele><time>2026-05-02T10:40:00.997Z</time></trkpt><trkpt lat="44.08214671958803" lon="10.106994761964172"><ele>134.79999999999998</ele><time>2026-05-02T10:40:01.997Z</time></trkpt><trkpt lat="44.08219874933747" lon="10.106850802102436"><ele>133.4</ele><time>2026-05-02T10:40:02.997Z</time></trkpt><trkpt lat="44.08225788932147" lon="10.106705091292712"><ele>132.0</ele><time>2026-05-02T10:40:03.997Z</time></trkpt><trkpt lat="44.08233186847997" lon="10.10657938917303"><ele>132.6</ele><time>2026-05-02T10:40:04.997Z</time></trkpt><trkpt lat="44.08237599904553" lon="10.106437625633992"><ele>133.2</ele><time>2026-05-02T10:40:05.997Z</time></trkpt><trkpt lat="44.082445711720936" lon="10.106325363451884"><ele>133.8</ele><time>2026-05-02T10:40:06.997Z</time></trkpt><trkpt lat="44.08253169999661" lon="10.106233349154662"><ele>134.4</ele><time>2026-05-02T10:40:07.997Z</time></trkpt><trkpt lat="44.082623543232124" lon="10.106143604471386"><ele>135.0</ele><time>2026-05-02T10:40:08.997Z</time></trkpt><trkpt lat="44.0826943755267" lon="10.106022474966673"><ele>132.75</ele><time>2026-05-02T10:40:09.997Z</time></trkpt><trkpt lat="44.082731190778595" lon="10.105867447126633"><ele>130.5</ele><time>2026-05-02T10:40:10.997Z</time></trkpt><trkpt lat="44.082748357325286" lon="10.105700197151675"><ele>128.25</ele><time>2026-05-02T10:40:11.997Z</time></trkpt><trkpt lat="44.08277021942585" lon="10.105530541524837"><ele>126.0</ele><time>2026-05-02T10:40:12.997Z</time></trkpt><trkpt lat="44.08280416433232" lon="10.10538833534077"><ele>125.33333333333333</ele><time>2026-05-02T10:40:13.997Z</time></trkpt><trkpt lat="44.08282020269052" lon="10.105277731276328"><ele>124.66666666666666</ele><time>2026-05-02T10:40:14.997Z</time></trkpt><trkpt lat="44.0828250963395" lon="10.105187341153224"><ele>124.0</ele><time>2026-05-02T10:40:15.997Z</time></trkpt><trkpt lat="44.08290080787925" lon="10.105124783996146"><ele>123.33333333333333</ele><time>2026-05-02T10:40:17.997Z</time></trkpt><trkpt lat="44.0829278165638" lon="10.105257121298168"><ele>122.66666666666666</ele><time>2026-05-02T10:40:19.997Z</time></trkpt><trkpt lat="44.082931678510505" lon="10.105385512567826"><ele>122.0</ele><time>2026-05-02T10:40:20.997Z</time></trkpt><trkpt lat="44.08291842129833" lon="10.10552182940301"><ele>122.0</ele><time>2026-05-02T10:40:21.997Z</time></trkpt><trkpt lat="44.08290106135812" lon="10.105679185661137"><ele>121.99999999999999</ele><time>2026-05-02T10:40:22.997Z</time></trkpt><trkpt lat="44.082883291079945" lon="10.105843036182549"><ele>121.99999999999999</ele><time>2026-05-02T10:40:23.997Z</time></trkpt><trkpt lat="44.082854199041" lon="10.10599378489302"><ele>122.0</ele><time>2026-05-02T10:40:24.997Z</time></trkpt><trkpt lat="44.08281933535631" lon="10.10611962236165"><ele>122.0</ele><time>2026-05-02T10:40:25.997Z</time></trkpt><trkpt lat="44.082779263173734" lon="10.106225323851797"><ele>122.8</ele><time>2026-05-02T10:40:26.997Z</time></trkpt><trkpt lat="44.0827381561255" lon="10.106305296182397"><ele>123.6</ele><time>2026-05-02T10:40:27.997Z</time></trkpt><trkpt lat="44.08269783431201" lon="10.10637494861259"><ele>124.39999999999999</ele><time>2026-05-02T10:40:28.997Z</time></trkpt><trkpt lat="44.082626484963065" lon="10.106495804279199"><ele>125.19999999999999</ele><time>2026-05-02T10:40:30.997Z</time></trkpt><trkpt lat="44.08255323412544" lon="10.106650058168638"><ele>126.0</ele><time>2026-05-02T10:40:32.997Z</time></trkpt><trkpt lat="44.082519871586264" lon="10.106741447285328"><ele>127.0</ele><time>2026-05-02T10:40:33.997Z</time></trkpt><trkpt lat="44.082490708590385" lon="10.10683564627508"><ele>128.0</ele><time>2026-05-02T10:40:34.997Z</time></trkpt><trkpt lat="44.08246434472154" lon="10.10692654670668"><ele>129.0</ele><time>2026-05-02T10:40:35.997Z</time></trkpt><trkpt lat="44.082441170249496" lon="10.107009613364115"><ele>130.0</ele><time>2026-05-02T10:40:36.997Z</time></trkpt><trkpt lat="44.08240683499073" lon="10.107163873607536"><ele>131.0</ele><time>2026-05-02T10:40:38.997Z</time></trkpt><trkpt lat="44.0823696456782" lon="10.107325311391953"><ele>132.0</ele><time>2026-05-02T10:40:40.997Z</time></trkpt><trkpt lat="44.08234695979738" lon="10.10740837095924"><ele>133.0</ele><time>2026-05-02T10:40:41.997Z</time></trkpt><trkpt lat="44.0823257746442" lon="10.10749365009807"><ele>134.0</ele><time>2026-05-02T10:40:42.997Z</time></trkpt><trkpt lat="44.082307841635384" lon="10.10758669560954"><ele>135.0</ele><time>2026-05-02T10:40:43.997Z</time></trkpt><trkpt lat="44.08229471932668" lon="10.107684226887743"><ele>136.0</ele><time>2026-05-02T10:40:44.997Z</time></trkpt><trkpt lat="44.08229145052495" lon="10.107782406598682"><ele>137.0</ele><time>2026-05-02T10:40:45.997Z</time></trkpt><trkpt lat="44.08230119205034" lon="10.107878984915116"><ele>138.0</ele><time>2026-05-02T10:40:46.997Z</time></trkpt><trkpt lat="44.082320817516504" lon="10.107965642017723"><ele>139.0</ele><time>2026-05-02T10:40:47.998Z</time></trkpt><trkpt lat="44.08234479465027" lon="10.108048908989014"><ele>139.0</ele><time>2026-05-02T10:40:48.998Z</time></trkpt><trkpt lat="44.082374649911756" lon="10.108128025690972"><ele>139.0</ele><time>2026-05-02T10:40:49.998Z</time></trkpt><trkpt lat="44.082431840022885" lon="10.108276323376323"><ele>139.0</ele><time>2026-05-02T10:40:51.998Z</time></trkpt><trkpt lat="44.08248526923684" lon="10.108400602265052"><ele>139.0</ele><time>2026-05-02T10:40:53.998Z</time></trkpt><trkpt lat="44.08253018366371" lon="10.108476784346584"><ele>139.0</ele><time>2026-05-02T10:40:55.998Z</time></trkpt><trkpt lat="44.08258237712357" lon="10.108554104400527"><ele>139.0</ele><time>2026-05-02T10:40:58.998Z</time></trkpt><trkpt lat="44.0826212611677" lon="10.1086289291259"><ele>142.5</ele><time>2026-05-02T10:41:01.998Z</time></trkpt><trkpt lat="44.082675887363195" lon="10.108694656840601"><ele>146.0</ele><time>2026-05-02T10:41:06.998Z</time></trkpt><trkpt lat="44.0827299678585" lon="10.10875351466445"><ele>149.5</ele><time>2026-05-02T10:41:08.998Z</time></trkpt><trkpt lat="44.082805287555125" lon="10.108810252651223"><ele>153.0</ele><time>2026-05-02T10:41:10.999Z</time></trkpt><trkpt lat="44.082856786615125" lon="10.108875614457721"><ele>156.5</ele><time>2026-05-02T10:41:11.999Z</time></trkpt><trkpt lat="44.08292078891567" lon="10.10894786953013"><ele>160.0</ele><time>2026-05-02T10:41:12.999Z</time></trkpt><trkpt lat="44.08298785091458" lon="10.109012296576122"><ele>158.0</ele><time>2026-05-02T10:41:13.999Z</time></trkpt><trkpt lat="44.08306488858702" lon="10.109099433105648"><ele>156.0</ele><time>2026-05-02T10:41:14.999Z</time></trkpt><trkpt lat="44.0831408899044" lon="10.109192806288082"><ele>154.0</ele><time>2026-05-02T10:41:15.999Z</time></trkpt><trkpt lat="44.08321661095801" lon="10.10928074060568"><ele>152.0</ele><time>2026-05-02T10:41:16.999Z</time></trkpt><trkpt lat="44.08328632311403" lon="10.10936892080723"><ele>150.0</ele><time>2026-05-02T10:41:17.999Z</time></trkpt><trkpt lat="44.08334302229209" lon="10.109480732340332"><ele>153.8</ele><time>2026-05-02T10:41:18.999Z</time></trkpt><trkpt lat="44.08337749725819" lon="10.109616351909764"><ele>157.6</ele><time>2026-05-02T10:41:19.999Z</time></trkpt><trkpt lat="44.08339162158233" lon="10.109755103001293"><ele>161.39999999999998</ele><time>2026-05-02T10:41:20.999Z</time></trkpt><trkpt lat="44.08340959642137" lon="10.109893028814394"><ele>165.2</ele><time>2026-05-02T10:41:21.999Z</time></trkpt><trkpt lat="44.08345592553494" lon="10.110023437131714"><ele>169.0</ele><time>2026-05-02T10:41:22.999Z</time></trkpt><trkpt lat="44.08353560406056" lon="10.11014604748361"><ele>169.0</ele><time>2026-05-02T10:41:23.999Z</time></trkpt><trkpt lat="44.08362257406476" lon="10.11026566305447"><ele>169.0</ele><time>2026-05-02T10:41:24.999Z</time></trkpt><trkpt lat="44.08369776266024" lon="10.110378191599287"><ele>169.0</ele><time>2026-05-02T10:41:25.999Z</time></trkpt><trkpt lat="44.083748156212124" lon="10.110472648918627"><ele>169.0</ele><time>2026-05-02T10:41:26.999Z</time></trkpt><trkpt lat="44.08375833060016" lon="10.110572344517404"><ele>169.0</ele><time>2026-05-02T10:41:27.999Z</time></trkpt><trkpt lat="44.083722733998414" lon="10.1106528281277"><ele>169.0</ele><time>2026-05-02T10:41:28.999Z</time></trkpt><trkpt lat="44.08365195901935" lon="10.110697192271124"><ele>169.0</ele><time>2026-05-02T10:41:29.999Z</time></trkpt><trkpt lat="44.08355955013415" lon="10.110720726319819"><ele>169.0</ele><time>2026-05-02T10:41:30.999Z</time></trkpt><trkpt lat="44.0834740877309" lon="10.11076425019348"><ele>169.0</ele><time>2026-05-02T10:41:31.999Z</time></trkpt><trkpt lat="44.08344109112628" lon="10.110872591668635"><ele>169.0</ele><time>2026-05-02T10:41:32.999Z</time></trkpt><trkpt lat="44.08345730191839" lon="10.110961313199224"><ele>169.0</ele><time>2026-05-02T10:41:33.999Z</time></trkpt><trkpt lat="44.08358478317034" lon="10.110986229422787"><ele>169.0</ele><time>2026-05-02T10:41:35.999Z</time></trkpt><trkpt lat="44.08367575168448" lon="10.110916324055266"><ele>169.0</ele><time>2026-05-02T10:41:36.999Z</time></trkpt><trkpt lat="44.08375706114736" lon="10.110805849139059"><ele>169.0</ele><time>2026-05-02T10:41:37.999Z</time></trkpt><trkpt lat="44.08383396156549" lon="10.110677836631575"><ele>169.0</ele><time>2026-05-02T10:41:38.999Z</time></trkpt><trkpt lat="44.08392561597988" lon="10.110580028524227"><ele>169.0</ele><time>2026-05-02T10:41:39.999Z</time></trkpt><trkpt lat="44.08395292901483" lon="10.11041303728575"><ele>169.0</ele><time>2026-05-02T10:41:40.999Z</time></trkpt><trkpt lat="44.08391287898265" lon="10.11024638869366"><ele>169.0</ele><time>2026-05-02T10:41:41.999Z</time></trkpt><trkpt lat="44.08389478009806" lon="10.11006691705351"><ele>169.0</ele><time>2026-05-02T10:41:42.999Z</time></trkpt><trkpt lat="44.08389254837665" lon="10.109895958414185"><ele>172.0</ele><time>2026-05-02T10:41:43.999Z</time></trkpt><trkpt lat="44.083893722693624" lon="10.109704782968404"><ele>175.0</ele><time>2026-05-02T10:41:44.999Z</time></trkpt><trkpt lat="44.083863921588595" lon="10.109530873419839"><ele>178.0</ele><time>2026-05-02T10:41:45.999Z</time></trkpt><trkpt lat="44.08382981355934" lon="10.109374849049512"><ele>181.0</ele><time>2026-05-02T10:41:46.999Z</time></trkpt><trkpt lat="44.0837488846164" lon="10.10925925758109"><ele>181.0</ele><time>2026-05-02T10:41:47.999Z</time></trkpt><trkpt lat="44.083648191658774" lon="10.109184007212924"><ele>181.0</ele><time>2026-05-02T10:41:48.999Z</time></trkpt><trkpt lat="44.083576731750966" lon="10.109054737439454"><ele>181.0</ele><time>2026-05-02T10:41:49.999Z</time></trkpt><trkpt lat="44.083519003142555" lon="10.108884477768997"><ele>181.0</ele><time>2026-05-02T10:41:50.999Z</time></trkpt><trkpt lat="44.08340771850301" lon="10.108747086911348"><ele>184.5</ele><time>2026-05-02T10:41:51.999Z</time></trkpt><trkpt lat="44.083303800626624" lon="10.108588971265336"><ele>188.0</ele><time>2026-05-02T10:41:52.999Z</time></trkpt><trkpt lat="44.08318894216641" lon="10.108445919864891"><ele>191.5</ele><time>2026-05-02T10:41:53.999Z</time></trkpt><trkpt lat="44.08307806046762" lon="10.108336219838957"><ele>195.0</ele><time>2026-05-02T10:41:54.999Z</time></trkpt><trkpt lat="44.082993081858454" lon="10.108228758570576"><ele>187.2</ele><time>2026-05-02T10:41:55.999Z</time></trkpt><trkpt lat="44.08293497466592" lon="10.10812105081001"><ele>179.4</ele><time>2026-05-02T10:41:56.999Z</time></trkpt><trkpt lat="44.082882555289295" lon="10.108059567512964"><ele>171.6</ele><time>2026-05-02T10:41:57.999Z</time></trkpt><trkpt lat="44.08293119774519" lon="10.107914555714382"><ele>163.8</ele><time>2026-05-02T10:41:59.999Z</time></trkpt><trkpt lat="44.083076507577466" lon="10.107932939996818"><ele>156.0</ele><time>2026-05-02T10:42:01.999Z</time></trkpt><trkpt lat="44.083141646958055" lon="10.108051774716332"><ele>156.0</ele><time>2026-05-02T10:42:02.999Z</time></trkpt><trkpt lat="44.083218828399154" lon="10.108160774894062"><ele>156.0</ele><time>2026-05-02T10:42:03.999Z</time></trkpt><trkpt lat="44.083312194466004" lon="10.108263609215562"><ele>156.0</ele><time>2026-05-02T10:42:04.999Z</time></trkpt><trkpt lat="44.08340582516541" lon="10.108401967787074"><ele>156.0</ele><time>2026-05-02T10:42:05.999Z</time></trkpt><trkpt lat="44.08350485400962" lon="10.108557378680185"><ele>162.25</ele><time>2026-05-02T10:42:06.999Z</time></trkpt><trkpt lat="44.08359829831195" lon="10.108721482229821"><ele>168.5</ele><time>2026-05-02T10:42:07.999Z</time></trkpt><trkpt lat="44.083679457649296" lon="10.10887127609333"><ele>174.75</ele><time>2026-05-02T10:42:08.999Z</time></trkpt><trkpt lat="44.08376700852208" lon="10.109015232170233"><ele>181.0</ele><time>2026-05-02T10:42:09.999Z</time></trkpt><trkpt lat="44.08387524288412" lon="10.109138448360245"><ele>181.0</ele><time>2026-05-02T10:42:10.999Z</time></trkpt><trkpt lat="44.08398319149801" lon="10.109259628950092"><ele>181.0</ele><time>2026-05-02T10:42:11.999Z</time></trkpt><trkpt lat="44.084082934336244" lon="10.109393312790223"><ele>181.0</ele><time>2026-05-02T10:42:12.999Z</time></trkpt><trkpt lat="44.084164660154514" lon="10.109548930238025"><ele>181.0</ele><time>2026-05-02T10:42:13.999Z</time></trkpt><trkpt lat="44.084229659315554" lon="10.109724457473416"><ele>188.75</ele><time>2026-05-02T10:42:14.999Z</time></trkpt><trkpt lat="44.08428666758318" lon="10.109909150480132"><ele>196.5</ele><time>2026-05-02T10:42:15.999Z</time></trkpt><trkpt lat="44.08433268327289" lon="10.11009529047995"><ele>204.25</ele><time>2026-05-02T10:42:16.999Z</time></trkpt><trkpt lat="44.08435838748422" lon="10.110277943800561"><ele>212.0</ele><time>2026-05-02T10:42:17.999Z</time></trkpt><trkpt lat="44.08436114030267" lon="10.110450245687426"><ele>212.0</ele><time>2026-05-02T10:42:18.999Z</time></trkpt><trkpt lat="44.084343464886295" lon="10.110625653169748"><ele>212.0</ele><time>2026-05-02T10:42:19.999Z</time></trkpt><trkpt lat="44.08429932159967" lon="10.110795316607614"><ele>212.0</ele><time>2026-05-02T10:42:20.999Z</time></trkpt><trkpt lat="44.084218175232714" lon="10.110953668592302"><ele>212.0</ele><time>2026-05-02T10:42:21.999Z</time></trkpt><trkpt lat="44.084155653235825" lon="10.111134229654725"><ele>206.5</ele><time>2026-05-02T10:42:22.999Z</time></trkpt><trkpt lat="44.08409211707167" lon="10.111308713142959"><ele>201.0</ele><time>2026-05-02T10:42:23.999Z</time></trkpt><trkpt lat="44.084064150202046" lon="10.111509580735031"><ele>195.5</ele><time>2026-05-02T10:42:24.999Z</time></trkpt><trkpt lat="44.08402455956041" lon="10.111702992335436"><ele>190.0</ele><time>2026-05-02T10:42:25.999Z</time></trkpt><trkpt lat="44.08397863190022" lon="10.111885474886472"><ele>190.0</ele><time>2026-05-02T10:42:26.999Z</time></trkpt><trkpt lat="44.08391972328677" lon="10.112051224323237"><ele>190.0</ele><time>2026-05-02T10:42:27.999Z</time></trkpt><trkpt lat="44.0838802231072" lon="10.112229582192793"><ele>190.0</ele><time>2026-05-02T10:42:28.999Z</time></trkpt><trkpt lat="44.08381961811656" lon="10.112379810268319"><ele>190.0</ele><time>2026-05-02T10:42:29.999Z</time></trkpt><trkpt lat="44.08376860457481" lon="10.112514896115655"><ele>193.66666666666669</ele><time>2026-05-02T10:42:30.999Z</time></trkpt><trkpt lat="44.08372986589071" lon="10.112635894079382"><ele>197.33333333333334</ele><time>2026-05-02T10:42:31.999Z</time></trkpt><trkpt lat="44.08369493398277" lon="10.112746764952654"><ele>201.0</ele><time>2026-05-02T10:42:32.999Z</time></trkpt><trkpt lat="44.08367899444494" lon="10.11285511276249"><ele>204.66666666666669</ele><time>2026-05-02T10:42:33.999Z</time></trkpt><trkpt lat="44.08368651496953" lon="10.112982153399702"><ele>208.33333333333334</ele><time>2026-05-02T10:42:34.999Z</time></trkpt><trkpt lat="44.0836934834912" lon="10.113113520889222"><ele>212.0</ele><time>2026-05-02T10:42:35.999Z</time></trkpt><trkpt lat="44.08370138605126" lon="10.113244631755098"><ele>214.6</ele><time>2026-05-02T10:42:36.999Z</time></trkpt><trkpt lat="44.08370502103426" lon="10.113370456884718"><ele>217.2</ele><time>2026-05-02T10:42:37.999Z</time></trkpt><trkpt lat="44.08370477349944" lon="10.11349028034325"><ele>219.8</ele><time>2026-05-02T10:42:38.999Z</time></trkpt><trkpt lat="44.08367681146101" lon="10.113593302478504"><ele>222.4</ele><time>2026-05-02T10:42:39.999Z</time></trkpt><trkpt lat="44.08362194781935" lon="10.113660513968922"><ele>225.0</ele><time>2026-05-02T10:42:40.999Z</time></trkpt><trkpt lat="44.08345947791361" lon="10.113668816312646"><ele>225.0</ele><time>2026-05-02T10:42:42.998Z</time></trkpt><trkpt lat="44.08335369457925" lon="10.113677572143635"><ele>225.0</ele><time>2026-05-02T10:42:43.998Z</time></trkpt><trkpt lat="44.083245616003005" lon="10.11366912515427"><ele>225.0</ele><time>2026-05-02T10:42:44.998Z</time></trkpt><trkpt lat="44.08314230981558" lon="10.11368466908418"><ele>225.0</ele><time>2026-05-02T10:42:45.998Z</time></trkpt><trkpt lat="44.08304781427089" lon="10.11371940234821"><ele>225.0</ele><time>2026-05-02T10:42:46.998Z</time></trkpt><trkpt lat="44.08296453062868" lon="10.11379884773861"><ele>220.0</ele><time>2026-05-02T10:42:47.998Z</time></trkpt><trkpt lat="44.08290417134238" lon="10.113921148984092"><ele>215.0</ele><time>2026-05-02T10:42:48.998Z</time></trkpt><trkpt lat="44.08287220292578" lon="10.114063246114494"><ele>210.0</ele><time>2026-05-02T10:42:49.998Z</time></trkpt><trkpt lat="44.08287105585024" lon="10.114212827251482"><ele>205.0</ele><time>2026-05-02T10:42:50.998Z</time></trkpt><trkpt lat="44.08288800165907" lon="10.114334168497443"><ele>200.0</ele><time>2026-05-02T10:42:51.998Z</time></trkpt><trkpt lat="44.082907534024784" lon="10.114461718480806"><ele>200.0</ele><time>2026-05-02T10:42:53.998Z</time></trkpt><trkpt lat="44.08291275123879" lon="10.114561387703487"><ele>200.0</ele><time>2026-05-02T10:42:55.998Z</time></trkpt><trkpt lat="44.08293033129501" lon="10.114745655023833"><ele>200.0</ele><time>2026-05-02T10:42:57.999Z</time></trkpt><trkpt lat="44.08294156673987" lon="10.114871766842912"><ele>200.0</ele><time>2026-05-02T10:42:58.999Z</time></trkpt><trkpt lat="44.08295081439765" lon="10.115004791622681"><ele>200.0</ele><time>2026-05-02T10:42:59.999Z</time></trkpt><trkpt lat="44.082960205388524" lon="10.115150661378383"><ele>200.6</ele><time>2026-05-02T10:43:00.999Z</time></trkpt><trkpt lat="44.082970958154796" lon="10.115298326426641"><ele>201.2</ele><time>2026-05-02T10:43:01.999Z</time></trkpt><trkpt lat="44.08298286746334" lon="10.115436501245917"><ele>201.8</ele><time>2026-05-02T10:43:02.999Z</time></trkpt><trkpt lat="44.0829927353634" lon="10.11556435610693"><ele>202.4</ele><time>2026-05-02T10:43:03.999Z</time></trkpt><trkpt lat="44.08300048133162" lon="10.115688141070125"><ele>203.0</ele><time>2026-05-02T10:43:04.999Z</time></trkpt><trkpt lat="44.083009864955024" lon="10.115814830589555"><ele>203.50000000000003</ele><time>2026-05-02T10:43:05.999Z</time></trkpt><trkpt lat="44.08302749372157" lon="10.115935961846521"><ele>204.0</ele><time>2026-05-02T10:43:06.999Z</time></trkpt><trkpt lat="44.08306573148433" lon="10.116041614174854"><ele>204.5</ele><time>2026-05-02T10:43:07.999Z</time></trkpt><trkpt lat="44.08312896486165" lon="10.116119961891524"><ele>205.0</ele><time>2026-05-02T10:43:08.999Z</time></trkpt><trkpt lat="44.083200660618104" lon="10.11615029687457"><ele>205.50000000000003</ele><time>2026-05-02T10:43:09.999Z</time></trkpt><trkpt lat="44.08327412918946" lon="10.11614094660711"><ele>206.0</ele><time>2026-05-02T10:43:10.999Z</time></trkpt><trkpt lat="44.0833470159321" lon="10.116121703940035"><ele>210.33333333333334</ele><time>2026-05-02T10:43:11.999Z</time></trkpt><trkpt lat="44.08342644285586" lon="10.116095050827436"><ele>214.66666666666669</ele><time>2026-05-02T10:43:12.999Z</time></trkpt><trkpt lat="44.08349541845884" lon="10.116067371650042"><ele>219.0</ele><time>2026-05-02T10:43:13.999Z</time></trkpt><trkpt lat="44.0836176912124" lon="10.116049826972466"><ele>223.33333333333331</ele><time>2026-05-02T10:43:15.999Z</time></trkpt><trkpt lat="44.08366887678467" lon="10.116101789439687"><ele>227.66666666666666</ele><time>2026-05-02T10:43:16.999Z</time></trkpt><trkpt lat="44.08370867886596" lon="10.116197356620527"><ele>232.0</ele><time>2026-05-02T10:43:17.999Z</time></trkpt><trkpt lat="44.083741344057835" lon="10.116315311834253"><ele>232.0</ele><time>2026-05-02T10:43:18.999Z</time></trkpt><trkpt lat="44.08377852964285" lon="10.116440002351782"><ele>232.0</ele><time>2026-05-02T10:43:19.999Z</time></trkpt><trkpt lat="44.08381764267109" lon="10.116586905911847"><ele>232.0</ele><time>2026-05-02T10:43:20.999Z</time></trkpt><trkpt lat="44.083857088213826" lon="10.116745590259619"><ele>232.0</ele><time>2026-05-02T10:43:21.999Z</time></trkpt><trkpt lat="44.08390105949013" lon="10.11690564645208"><ele>230.0</ele><time>2026-05-02T10:43:22.999Z</time></trkpt><trkpt lat="44.08394510267992" lon="10.117048516238333"><ele>228.0</ele><time>2026-05-02T10:43:23.999Z</time></trkpt><trkpt lat="44.08400719533739" lon="10.117165646708312"><ele>226.0</ele><time>2026-05-02T10:43:24.999Z</time></trkpt><trkpt lat="44.08409129565267" lon="10.117247653821739"><ele>224.0</ele><time>2026-05-02T10:43:25.999Z</time></trkpt><trkpt lat="44.084167144411744" lon="10.117329615348977"><ele>222.0</ele><time>2026-05-02T10:43:26.999Z</time></trkpt><trkpt lat="44.08419655072849" lon="10.117430662631206"><ele>222.16666666666666</ele><time>2026-05-02T10:43:27.999Z</time></trkpt><trkpt lat="44.08418534819493" lon="10.117523978477335"><ele>222.33333333333331</ele><time>2026-05-02T10:43:28.999Z</time></trkpt><trkpt lat="44.08414930667792" lon="10.117613589339493"><ele>222.5</ele><time>2026-05-02T10:43:29.999Z</time></trkpt><trkpt lat="44.08408229825935" lon="10.117679698279229"><ele>222.66666666666666</ele><time>2026-05-02T10:43:30.999Z</time></trkpt><trkpt lat="44.083996550323675" lon="10.117711240477325"><ele>222.83333333333331</ele><time>2026-05-02T10:43:31.999Z</time></trkpt><trkpt lat="44.08390302784022" lon="10.117732965668795"><ele>223.0</ele><time>2026-05-02T10:43:32.999Z</time></trkpt><trkpt lat="44.083820606679886" lon="10.117772956079225"><ele>223.0</ele><time>2026-05-02T10:43:33.999Z</time></trkpt><trkpt lat="44.083750288655644" lon="10.117856480088163"><ele>223.0</ele><time>2026-05-02T10:43:34.999Z</time></trkpt><trkpt lat="44.08368819330549" lon="10.117972893318148"><ele>223.0</ele><time>2026-05-02T10:43:35.999Z</time></trkpt><trkpt lat="44.083633573757375" lon="10.11810554722663"><ele>223.0</ele><time>2026-05-02T10:43:36.999Z</time></trkpt><trkpt lat="44.08358667224402" lon="10.118253988476194"><ele>223.0</ele><time>2026-05-02T10:43:37.999Z</time></trkpt><trkpt lat="44.083551634718475" lon="10.118410144476648"><ele>223.5</ele><time>2026-05-02T10:43:38.999Z</time></trkpt><trkpt lat="44.08353324690936" lon="10.118579262176333"><ele>224.0</ele><time>2026-05-02T10:43:39.999Z</time></trkpt><trkpt lat="44.08352936695355" lon="10.118756436793253"><ele>224.5</ele><time>2026-05-02T10:43:40.999Z</time></trkpt><trkpt lat="44.08350035618437" lon="10.11893595796583"><ele>225.0</ele><time>2026-05-02T10:43:41.999Z</time></trkpt><trkpt lat="44.083478445195354" lon="10.119120125303798"><ele>227.0</ele><time>2026-05-02T10:43:42.999Z</time></trkpt><trkpt lat="44.08346529311684" lon="10.11930800949649"><ele>229.0</ele><time>2026-05-02T10:43:43.999Z</time></trkpt><trkpt lat="44.0834445155769" lon="10.119483564389682"><ele>231.0</ele><time>2026-05-02T10:43:44.999Z</time></trkpt><trkpt lat="44.083425483108584" lon="10.119668529366688"><ele>233.0</ele><time>2026-05-02T10:43:45.999Z</time></trkpt><trkpt lat="44.08346837717872" lon="10.119857286530605"><ele>235.5</ele><time>2026-05-02T10:43:46.999Z</time></trkpt><trkpt lat="44.08348209349947" lon="10.120043993725709"><ele>238.0</ele><time>2026-05-02T10:43:47.999Z</time></trkpt><trkpt lat="44.08341719831273" lon="10.120210319464864"><ele>240.5</ele><time>2026-05-02T10:43:48.999Z</time></trkpt><trkpt lat="44.08335775860411" lon="10.120384177291692"><ele>243.0</ele><time>2026-05-02T10:43:49.999Z</time></trkpt><trkpt lat="44.083321444081385" lon="10.120562110888807"><ele>249.75</ele><time>2026-05-02T10:43:50.999Z</time></trkpt><trkpt lat="44.08331201024865" lon="10.12075363742961"><ele>256.5</ele><time>2026-05-02T10:43:51.999Z</time></trkpt><trkpt lat="44.0833223447199" lon="10.120960120586197"><ele>263.25</ele><time>2026-05-02T10:43:52.999Z</time></trkpt><trkpt lat="44.0833254568501" lon="10.12116970670964"><ele>270.0</ele><time>2026-05-02T10:43:53.999Z</time></trkpt><trkpt lat="44.08329368371988" lon="10.121368625016073"><ele>256.75</ele><time>2026-05-02T10:43:54.999Z</time></trkpt><trkpt lat="44.083226844545614" lon="10.121535594002195"><ele>243.5</ele><time>2026-05-02T10:43:55.999Z</time></trkpt><trkpt lat="44.083155923149604" lon="10.12171697891843"><ele>230.25</ele><time>2026-05-02T10:43:56.999Z</time></trkpt><trkpt lat="44.083085089814915" lon="10.121858223235652"><ele>217.0</ele><time>2026-05-02T10:43:57.999Z</time></trkpt><trkpt lat="44.083033806410974" lon="10.122005603683219"><ele>217.0</ele><time>2026-05-02T10:43:58.999Z</time></trkpt><trkpt lat="44.08300363030346" lon="10.122175685169633"><ele>217.0</ele><time>2026-05-02T10:43:59.999Z</time></trkpt><trkpt lat="44.082990445981316" lon="10.122348384171769"><ele>217.0</ele><time>2026-05-02T10:44:00.999Z</time></trkpt><trkpt lat="44.083001002660026" lon="10.12252196146751"><ele>217.0</ele><time>2026-05-02T10:44:01.999Z</time></trkpt><trkpt lat="44.08302577340859" lon="10.12268598282568"><ele>219.39999999999998</ele><time>2026-05-02T10:44:02.999Z</time></trkpt><trkpt lat="44.083054751263084" lon="10.122833010297521"><ele>221.79999999999998</ele><time>2026-05-02T10:44:03.999Z</time></trkpt><trkpt lat="44.08308736422286" lon="10.122954372440798"><ele>224.2</ele><time>2026-05-02T10:44:04.999Z</time></trkpt><trkpt lat="44.083134773369025" lon="10.123048463743224"><ele>226.6</ele><time>2026-05-02T10:44:05.999Z</time></trkpt><trkpt lat="44.083201860730824" lon="10.123115511512589"><ele>229.0</ele><time>2026-05-02T10:44:06.999Z</time></trkpt><trkpt lat="44.08328452546602" lon="10.12313741656611"><ele>237.6</ele><time>2026-05-02T10:44:07.999Z</time></trkpt><trkpt lat="44.08337104101006" lon="10.12312456984973"><ele>246.2</ele><time>2026-05-02T10:44:08.999Z</time></trkpt><trkpt lat="44.08345524873001" lon="10.123116321482343"><ele>254.79999999999998</ele><time>2026-05-02T10:44:09.999Z</time></trkpt><trkpt lat="44.08354924336002" lon="10.123127427878101"><ele>263.4</ele><time>2026-05-02T10:44:10.999Z</time></trkpt><trkpt lat="44.08364693252846" lon="10.12315960231807"><ele>272.0</ele><time>2026-05-02T10:44:11.999Z</time></trkpt><trkpt lat="44.083730642934036" lon="10.123236194567324"><ele>272.0</ele><time>2026-05-02T10:44:12.999Z</time></trkpt><trkpt lat="44.0838106915446" lon="10.12330812997926"><ele>272.0</ele><time>2026-05-02T10:44:13.999Z</time></trkpt><trkpt lat="44.083869155281036" lon="10.123424273634265"><ele>272.0</ele><time>2026-05-02T10:44:14.999Z</time></trkpt><trkpt lat="44.08390937983998" lon="10.12355049317527"><ele>272.0</ele><time>2026-05-02T10:44:15.999Z</time></trkpt><trkpt lat="44.08392742244954" lon="10.123688482423214"><ele>272.0</ele><time>2026-05-02T10:44:16.999Z</time></trkpt><trkpt lat="44.083931018399134" lon="10.12382755651626"><ele>272.0</ele><time>2026-05-02T10:44:17.999Z</time></trkpt><trkpt lat="44.08393325094429" lon="10.123966909813456"><ele>272.0</ele><time>2026-05-02T10:44:18.999Z</time></trkpt><trkpt lat="44.08394135808088" lon="10.124103177513671"><ele>272.0</ele><time>2026-05-02T10:44:19.999Z</time></trkpt><trkpt lat="44.08395431698962" lon="10.124236246935284"><ele>272.0</ele><time>2026-05-02T10:44:20.999Z</time></trkpt><trkpt lat="44.08397719691118" lon="10.124364415509053"><ele>272.0</ele><time>2026-05-02T10:44:21.999Z</time></trkpt><trkpt lat="44.08401684589093" lon="10.124487363710958"><ele>275.4</ele><time>2026-05-02T10:44:22.999Z</time></trkpt><trkpt lat="44.0840726673658" lon="10.124600041678038"><ele>278.79999999999995</ele><time>2026-05-02T10:44:23.999Z</time></trkpt><trkpt lat="44.08414250894538" lon="10.124706095513075"><ele>282.2</ele><time>2026-05-02T10:44:24.999Z</time></trkpt><trkpt lat="44.08421742901075" lon="10.124804581252375"><ele>285.59999999999997</ele><time>2026-05-02T10:44:25.999Z</time></trkpt><trkpt lat="44.08430439874946" lon="10.124886939893281"><ele>289.0</ele><time>2026-05-02T10:44:26.999Z</time></trkpt><trkpt lat="44.08439888762231" lon="10.124954658746105"><ele>289.0</ele><time>2026-05-02T10:44:27.999Z</time></trkpt><trkpt lat="44.08449698842799" lon="10.125006908460216"><ele>289.0</ele><time>2026-05-02T10:44:28.999Z</time></trkpt><trkpt lat="44.08460042091194" lon="10.125041414651411"><ele>289.0</ele><time>2026-05-02T10:44:29.999Z</time></trkpt><trkpt lat="44.084705088930654" lon="10.125057075585396"><ele>289.0</ele><time>2026-05-02T10:44:30.999Z</time></trkpt><trkpt lat="44.08481159554909" lon="10.12506110157762"><ele>289.0</ele><time>2026-05-02T10:44:31.999Z</time></trkpt><trkpt lat="44.084914158038686" lon="10.12506531540624"><ele>293.0</ele><time>2026-05-02T10:44:32.999Z</time></trkpt><trkpt lat="44.08501422419729" lon="10.12506642459663"><ele>297.0</ele><time>2026-05-02T10:44:33.999Z</time></trkpt><trkpt lat="44.085109969459154" lon="10.125069466770734"><ele>301.0</ele><time>2026-05-02T10:44:34.999Z</time></trkpt><trkpt lat="44.08520297181875" lon="10.125075755541554"><ele>305.0</ele><time>2026-05-02T10:44:35.999Z</time></trkpt><trkpt lat="44.085293148086" lon="10.125084089443586"><ele>309.0</ele><time>2026-05-02T10:44:36.999Z</time></trkpt><trkpt lat="44.085378395476546" lon="10.125110618948495"><ele>309.0</ele><time>2026-05-02T10:44:37.999Z</time></trkpt><trkpt lat="44.085452284429834" lon="10.12516929923029"><ele>309.0</ele><time>2026-05-02T10:44:38.999Z</time></trkpt><trkpt lat="44.085508593898716" lon="10.125251981641169"><ele>309.0</ele><time>2026-05-02T10:44:39.999Z</time></trkpt><trkpt lat="44.0855486409511" lon="10.125349441420104"><ele>309.0</ele><time>2026-05-02T10:44:40.999Z</time></trkpt><trkpt lat="44.08557850739388" lon="10.125452989616644"><ele>309.0</ele><time>2026-05-02T10:44:41.999Z</time></trkpt><trkpt lat="44.08560863022419" lon="10.125556131847341"><ele>309.0</ele><time>2026-05-02T10:44:42.999Z</time></trkpt><trkpt lat="44.08564126310834" lon="10.125660053229659"><ele>309.6666666666667</ele><time>2026-05-02T10:44:43.999Z</time></trkpt><trkpt lat="44.08567682315133" lon="10.125765327925846"><ele>310.3333333333333</ele><time>2026-05-02T10:44:44.999Z</time></trkpt><trkpt lat="44.08571341499028" lon="10.125865853874577"><ele>311.0</ele><time>2026-05-02T10:44:45.999Z</time></trkpt><trkpt lat="44.08574835137144" lon="10.125965298372405"><ele>311.66666666666663</ele><time>2026-05-02T10:44:46.999Z</time></trkpt><trkpt lat="44.08578022123493" lon="10.126063595905569"><ele>312.3333333333333</ele><time>2026-05-02T10:44:47.999Z</time></trkpt><trkpt lat="44.085811956693036" lon="10.12614991277358"><ele>313.0</ele><time>2026-05-02T10:44:48.999Z</time></trkpt><trkpt lat="44.08584962099488" lon="10.126283334567566"><ele>313.0</ele><time>2026-05-02T10:44:50.999Z</time></trkpt><trkpt lat="44.08587704355124" lon="10.126366935879338"><ele>313.0</ele><time>2026-05-02T10:44:52.999Z</time></trkpt><trkpt lat="44.08592289637815" lon="10.126490853723128"><ele>313.0</ele><time>2026-05-02T10:45:29Z</time></trkpt><trkpt lat="44.08596977114454" lon="10.126606957915396"><ele>313.0</ele><time>2026-05-02T10:45:31Z</time></trkpt><trkpt lat="44.08601294413803" lon="10.126741784784828"><ele>313.0</ele><time>2026-05-02T10:45:33Z</time></trkpt><trkpt lat="44.0860568490333" lon="10.126873765638237"><ele>310.16666666666663</ele><time>2026-05-02T10:45:35Z</time></trkpt><trkpt lat="44.08609460761211" lon="10.126997162042134"><ele>307.3333333333333</ele><time>2026-05-02T10:45:37Z</time></trkpt><trkpt lat="44.0861208184024" lon="10.127097276422994"><ele>304.5</ele><time>2026-05-02T10:45:39Z</time></trkpt><trkpt lat="44.086136635826065" lon="10.127198931143031"><ele>301.6666666666667</ele><time>2026-05-02T10:45:41Z</time></trkpt><trkpt lat="44.08615437405087" lon="10.127285129576963"><ele>298.83333333333337</ele><time>2026-05-02T10:45:43Z</time></trkpt><trkpt lat="44.08619110848741" lon="10.127372837773025"><ele>296.0</ele><time>2026-05-02T10:45:46Z</time></trkpt><trkpt lat="44.08626002942867" lon="10.127300838127102"><ele>296.0</ele><time>2026-05-02T10:45:52Z</time></trkpt><trkpt lat="44.08619337658073" lon="10.127363303091379"><ele>296.0</ele><time>2026-05-02T10:45:53Z</time></trkpt><trkpt lat="44.08622292871765" lon="10.12748116988026"><ele>296.0</ele><time>2026-05-02T10:46:17Z</time></trkpt><trkpt lat="44.086288044487745" lon="10.12725483421943"><ele>296.0</ele><time>2026-05-02T10:46:23Z</time></trkpt><trkpt lat="44.08632410170089" lon="10.127182202186459"><ele>296.0</ele><time>2026-05-02T10:46:26Z</time></trkpt><trkpt lat="44.08627101110164" lon="10.127285225596966"><ele>296.0</ele><time>2026-05-02T10:47:09.001Z</time></trkpt><trkpt lat="44.086222453988256" lon="10.1273529121964"><ele>296.0</ele><time>2026-05-02T10:47:13.001Z</time></trkpt><trkpt lat="44.08630174150905" lon="10.127872468642863"><ele>296.1666666666667</ele><time>2026-05-02T10:47:38Z</time></trkpt><trkpt lat="44.086319973167086" lon="10.12796880388947"><ele>296.33333333333337</ele><time>2026-05-02T10:47:39Z</time></trkpt><trkpt lat="44.086339549646716" lon="10.128066870552408"><ele>296.5</ele><time>2026-05-02T10:47:40Z</time></trkpt><trkpt lat="44.086364695443116" lon="10.128166184641763"><ele>296.6666666666667</ele><time>2026-05-02T10:47:41Z</time></trkpt><trkpt lat="44.08639915726835" lon="10.128258106252842"><ele>296.8333333333333</ele><time>2026-05-02T10:47:42Z</time></trkpt><trkpt lat="44.08644207354893" lon="10.12834779185085"><ele>297.0</ele><time>2026-05-02T10:47:43Z</time></trkpt><trkpt lat="44.086491415483195" lon="10.1284392178372"><ele>297.3333333333333</ele><time>2026-05-02T10:47:44Z</time></trkpt><trkpt lat="44.08655075743722" lon="10.128526466627308"><ele>297.6666666666667</ele><time>2026-05-02T10:47:45Z</time></trkpt><trkpt lat="44.08661569130135" lon="10.12861221684779"><ele>298.0</ele><time>2026-05-02T10:47:46Z</time></trkpt><trkpt lat="44.08668394833213" lon="10.128695525250782"><ele>298.33333333333337</ele><time>2026-05-02T10:47:47Z</time></trkpt><trkpt lat="44.0867511402007" lon="10.12878068453859"><ele>298.6666666666667</ele><time>2026-05-02T10:47:48Z</time></trkpt><trkpt lat="44.08681186158933" lon="10.128872849187486"><ele>299.0</ele><time>2026-05-02T10:47:49Z</time></trkpt><trkpt lat="44.08686997813723" lon="10.128969404855493"><ele>304.6</ele><time>2026-05-02T10:47:50Z</time></trkpt><trkpt lat="44.086927771248504" lon="10.129065512859881"><ele>310.2</ele><time>2026-05-02T10:47:51Z</time></trkpt><trkpt lat="44.08698470224201" lon="10.129161449394136"><ele>315.8</ele><time>2026-05-02T10:47:52Z</time></trkpt><trkpt lat="44.08704168080709" lon="10.12926198795857"><ele>321.40000000000003</ele><time>2026-05-02T10:47:53Z</time></trkpt><trkpt lat="44.08709064642197" lon="10.12936862231851"><ele>327.0</ele><time>2026-05-02T10:47:54Z</time></trkpt><trkpt lat="44.08713203177962" lon="10.129483909379234"><ele>327.0</ele><time>2026-05-02T10:47:55Z</time></trkpt><trkpt lat="44.08717111835435" lon="10.129603775650043"><ele>327.0</ele><time>2026-05-02T10:47:56Z</time></trkpt><trkpt lat="44.08721683975154" lon="10.129718884203484"><ele>327.0</ele><time>2026-05-02T10:47:57Z</time></trkpt><trkpt lat="44.08727041453468" lon="10.129829917646623"><ele>327.0</ele><time>2026-05-02T10:47:58Z</time></trkpt><trkpt lat="44.08733006905855" lon="10.12993748688196"><ele>327.0</ele><time>2026-05-02T10:47:59Z</time></trkpt><trkpt lat="44.087393658924775" lon="10.13003729523323"><ele>331.40000000000003</ele><time>2026-05-02T10:48:00Z</time></trkpt><trkpt lat="44.08746139697821" lon="10.130138662332815"><ele>335.8</ele><time>2026-05-02T10:48:01Z</time></trkpt><trkpt lat="44.0875322575126" lon="10.130236353445142"><ele>340.2</ele><time>2026-05-02T10:48:02Z</time></trkpt><trkpt lat="44.08760534624882" lon="10.130326232767358"><ele>344.6</ele><time>2026-05-02T10:48:03Z</time></trkpt><trkpt lat="44.087682942306294" lon="10.130408934081805"><ele>349.0</ele><time>2026-05-02T10:48:04Z</time></trkpt><trkpt lat="44.08776087549009" lon="10.130487949304777"><ele>349.0</ele><time>2026-05-02T10:48:05Z</time></trkpt><trkpt lat="44.08783880554779" lon="10.130564042160898"><ele>349.0</ele><time>2026-05-02T10:48:06Z</time></trkpt><trkpt lat="44.087921920569926" lon="10.13062727948088"><ele>349.0</ele><time>2026-05-02T10:48:07Z</time></trkpt><trkpt lat="44.088003293473726" lon="10.13069715598904"><ele>349.0</ele><time>2026-05-02T10:48:08Z</time></trkpt><trkpt lat="44.08808329718549" lon="10.130770694039333"><ele>349.0</ele><time>2026-05-02T10:48:09Z</time></trkpt><trkpt lat="44.088160834928445" lon="10.130846580597181"><ele>349.6</ele><time>2026-05-02T10:48:10Z</time></trkpt><trkpt lat="44.08823639917305" lon="10.130921990224346"><ele>350.2</ele><time>2026-05-02T10:48:11Z</time></trkpt><trkpt lat="44.08831080376063" lon="10.130997389143433"><ele>350.8</ele><time>2026-05-02T10:48:12Z</time></trkpt><trkpt lat="44.088378516796155" lon="10.131075790954208"><ele>351.40000000000003</ele><time>2026-05-02T10:48:13Z</time></trkpt><trkpt lat="44.088456904498514" lon="10.131142430395574"><ele>352.0</ele><time>2026-05-02T10:48:14Z</time></trkpt><trkpt lat="44.088525563162065" lon="10.131223908052608"><ele>352.0</ele><time>2026-05-02T10:48:15Z</time></trkpt><trkpt lat="44.08859668300779" lon="10.131303592454225"><ele>352.0</ele><time>2026-05-02T10:48:16Z</time></trkpt><trkpt lat="44.088670037081435" lon="10.13138352639416"><ele>352.0</ele><time>2026-05-02T10:48:17Z</time></trkpt><trkpt lat="44.08874471634416" lon="10.131463848456574"><ele>352.0</ele><time>2026-05-02T10:48:18Z</time></trkpt><trkpt lat="44.088820839559794" lon="10.131546287579557"><ele>352.0</ele><time>2026-05-02T10:48:19Z</time></trkpt><trkpt lat="44.088897221310454" lon="10.13162674527512"><ele>356.0</ele><time>2026-05-02T10:48:20Z</time></trkpt><trkpt lat="44.08897378775906" lon="10.131704282060777"><ele>360.0</ele><time>2026-05-02T10:48:21Z</time></trkpt><trkpt lat="44.089043264375526" lon="10.131763639734485"><ele>364.0</ele><time>2026-05-02T10:48:22Z</time></trkpt><trkpt lat="44.08910897296031" lon="10.131778893370232"><ele>368.0</ele><time>2026-05-02T10:48:23Z</time></trkpt><trkpt lat="44.08919208271684" lon="10.131654852264552"><ele>372.0</ele><time>2026-05-02T10:48:25Z</time></trkpt><trkpt lat="44.08918779711269" lon="10.131551420855654"><ele>376.0</ele><time>2026-05-02T10:48:26Z</time></trkpt><trkpt lat="44.089148929246534" lon="10.131448086552759"><ele>371.20000000000005</ele><time>2026-05-02T10:48:27Z</time></trkpt><trkpt lat="44.08909119599986" lon="10.131357477590992"><ele>366.40000000000003</ele><time>2026-05-02T10:48:28Z</time></trkpt><trkpt lat="44.08902951189639" lon="10.131254883402185"><ele>361.6</ele><time>2026-05-02T10:48:29Z</time></trkpt><trkpt lat="44.0889636746301" lon="10.131142085945013"><ele>356.8</ele><time>2026-05-02T10:48:30Z</time></trkpt><trkpt lat="44.0888940897782" lon="10.13102659838405"><ele>352.0</ele><time>2026-05-02T10:48:31Z</time></trkpt><trkpt lat="44.0888249210302" lon="10.1309143225615"><ele>352.0</ele><time>2026-05-02T10:48:32Z</time></trkpt><trkpt lat="44.08875449919545" lon="10.13081167909824"><ele>352.0</ele><time>2026-05-02T10:48:33Z</time></trkpt><trkpt lat="44.08870063945813" lon="10.130720579379355"><ele>352.0</ele><time>2026-05-02T10:48:34Z</time></trkpt><trkpt lat="44.08866901655797" lon="10.130640126500554"><ele>352.0</ele><time>2026-05-02T10:48:35Z</time></trkpt><trkpt lat="44.088640635352974" lon="10.130485925504884"><ele>352.0</ele><time>2026-05-02T10:48:37Z</time></trkpt><trkpt lat="44.0887284919677" lon="10.130397805396832"><ele>352.0</ele><time>2026-05-02T10:48:39Z</time></trkpt><trkpt lat="44.088793754966105" lon="10.130417480798457"><ele>352.0</ele><time>2026-05-02T10:48:40Z</time></trkpt><trkpt lat="44.088854703383994" lon="10.130480317043318"><ele>352.0</ele><time>2026-05-02T10:48:41Z</time></trkpt><trkpt lat="44.08888141874212" lon="10.130582885442694"><ele>352.0</ele><time>2026-05-02T10:48:42Z</time></trkpt><trkpt lat="44.08894491581258" lon="10.130666034965268"><ele>352.0</ele><time>2026-05-02T10:48:43Z</time></trkpt><trkpt lat="44.089000336120044" lon="10.1307629445428"><ele>352.0</ele><time>2026-05-02T10:48:44Z</time></trkpt><trkpt lat="44.08907153815238" lon="10.130851845606745"><ele>360.0</ele><time>2026-05-02T10:48:45Z</time></trkpt><trkpt lat="44.08915107818118" lon="10.130941548669071"><ele>368.0</ele><time>2026-05-02T10:48:46Z</time></trkpt><trkpt lat="44.0892335736268" lon="10.13103183416789"><ele>376.0</ele><time>2026-05-02T10:48:47Z</time></trkpt><trkpt lat="44.08931957664366" lon="10.131120096421421"><ele>384.0</ele><time>2026-05-02T10:48:48Z</time></trkpt><trkpt lat="44.089411815260995" lon="10.131204960962675"><ele>392.0</ele><time>2026-05-02T10:48:49Z</time></trkpt><trkpt lat="44.089503460138076" lon="10.13129300116993"><ele>392.0</ele><time>2026-05-02T10:48:50Z</time></trkpt><trkpt lat="44.08959135895501" lon="10.13138492686588"><ele>392.0</ele><time>2026-05-02T10:48:51Z</time></trkpt><trkpt lat="44.08967693199647" lon="10.131477258332948"><ele>392.0</ele><time>2026-05-02T10:48:52Z</time></trkpt><trkpt lat="44.0897637609791" lon="10.131565188014159"><ele>392.0</ele><time>2026-05-02T10:48:53Z</time></trkpt><trkpt lat="44.08984585244344" lon="10.131659663297368"><ele>392.0</ele><time>2026-05-02T10:48:54Z</time></trkpt><trkpt lat="44.08992041581641" lon="10.13176483884149"><ele>396.6</ele><time>2026-05-02T10:48:55Z</time></trkpt><trkpt lat="44.08998422603195" lon="10.131879712116753"><ele>401.20000000000005</ele><time>2026-05-02T10:48:56Z</time></trkpt><trkpt lat="44.09004091123598" lon="10.132000657337915"><ele>405.8</ele><time>2026-05-02T10:48:57Z</time></trkpt><trkpt lat="44.090100828033556" lon="10.132119439971413"><ele>410.4</ele><time>2026-05-02T10:48:58Z</time></trkpt><trkpt lat="44.09016447113742" lon="10.13223270397189"><ele>415.0</ele><time>2026-05-02T10:48:59Z</time></trkpt><trkpt lat="44.0902299640975" lon="10.132342062793024"><ele>414.0</ele><time>2026-05-02T10:49:00.001Z</time></trkpt><trkpt lat="44.09029972755873" lon="10.132444465812325"><ele>413.0</ele><time>2026-05-02T10:49:01.001Z</time></trkpt><trkpt lat="44.09036767015592" lon="10.132548494557094"><ele>412.0</ele><time>2026-05-02T10:49:02.001Z</time></trkpt><trkpt lat="44.090433455028425" lon="10.13265373737787"><ele>411.0</ele><time>2026-05-02T10:49:03.001Z</time></trkpt><trkpt lat="44.090495085895135" lon="10.132758712246941"><ele>410.0</ele><time>2026-05-02T10:49:04.001Z</time></trkpt><trkpt lat="44.09055701615602" lon="10.132850183293918"><ele>409.99999999999994</ele><time>2026-05-02T10:49:05.001Z</time></trkpt><trkpt lat="44.09061391008542" lon="10.13292313463913"><ele>410.0</ele><time>2026-05-02T10:49:06.001Z</time></trkpt><trkpt lat="44.09064534547362" lon="10.133001521780379"><ele>410.0</ele><time>2026-05-02T10:49:07.001Z</time></trkpt><trkpt lat="44.090698954845266" lon="10.133132461937004"><ele>410.0</ele><time>2026-05-02T10:49:09.001Z</time></trkpt><trkpt lat="44.09070439887038" lon="10.13325056354457"><ele>409.99999999999994</ele><time>2026-05-02T10:49:11.001Z</time></trkpt><trkpt lat="44.090692313576994" lon="10.133358269991533"><ele>410.0</ele><time>2026-05-02T10:49:13.001Z</time></trkpt><trkpt lat="44.0906576611491" lon="10.133454126292905"><ele>416.0</ele><time>2026-05-02T10:49:16.001Z</time></trkpt><trkpt lat="44.0906451359503" lon="10.13356235151242"><ele>416.0</ele><time>2026-05-02T10:59:01Z</time></trkpt></trkseg><trkseg><trkpt lat="44.09062390824664" lon="10.13355945237479"><ele>415.99999999999994</ele><time>2026-05-02T12:49:00.999Z</time></trkpt><trkpt lat="44.09059946783248" lon="10.133652964469182"><ele>416.0</ele><time>2026-05-02T12:49:02.999Z</time></trkpt><trkpt lat="44.09057863978385" lon="10.133742093336032"><ele>416.0</ele><time>2026-05-02T12:49:03.999Z</time></trkpt><trkpt lat="44.09054153585082" lon="10.133830658395093"><ele>416.0</ele><time>2026-05-02T12:49:05.999Z</time></trkpt><trkpt lat="44.0904955633169" lon="10.133895479540753"><ele>415.99999999999994</ele><time>2026-05-02T12:49:07.999Z</time></trkpt><trkpt lat="44.09040871251328" lon="10.133940463747425"><ele>416.0</ele><time>2026-05-02T12:49:10.999Z</time></trkpt><trkpt lat="44.09032800250218" lon="10.133968313660498"><ele>415.99999999999994</ele><time>2026-05-02T12:49:13.999Z</time></trkpt><trkpt lat="44.09025025002405" lon="10.133995376784645"><ele>416.0</ele><time>2026-05-02T12:49:16.999Z</time></trkpt><trkpt lat="44.09016785998936" lon="10.134015276401716"><ele>416.0</ele><time>2026-05-02T12:49:19.999Z</time></trkpt><trkpt lat="44.09010275174307" lon="10.134024773956188"><ele>416.0</ele><time>2026-05-02T12:49:21.999Z</time></trkpt><trkpt lat="44.090040636536706" lon="10.13404518653238"><ele>415.99999999999994</ele><time>2026-05-02T12:49:23.998Z</time></trkpt><trkpt lat="44.08995790334025" lon="10.13402165316108"><ele>416.0</ele><time>2026-05-02T12:49:26.998Z</time></trkpt><trkpt lat="44.089891160122384" lon="10.13397680204733"><ele>415.8333333333333</ele><time>2026-05-02T12:49:28.998Z</time></trkpt><trkpt lat="44.08981119731182" lon="10.133934493503718"><ele>415.66666666666663</ele><time>2026-05-02T12:49:30.998Z</time></trkpt><trkpt lat="44.08972449498954" lon="10.133896949612186"><ele>415.5</ele><time>2026-05-02T12:49:32.998Z</time></trkpt><trkpt lat="44.08962421448899" lon="10.13385078297975"><ele>415.33333333333337</ele><time>2026-05-02T12:49:34.998Z</time></trkpt><trkpt lat="44.089579314738494" lon="10.133769759037413"><ele>415.1666666666667</ele><time>2026-05-02T12:49:35.998Z</time></trkpt><trkpt lat="44.089516601836415" lon="10.133755390771606"><ele>415.0</ele><time>2026-05-02T12:49:36.998Z</time></trkpt><trkpt lat="44.08943825318496" lon="10.133752503681436"><ele>415.00000000000006</ele><time>2026-05-02T12:49:38.998Z</time></trkpt><trkpt lat="44.08937382646528" lon="10.13378691942908"><ele>415.0</ele><time>2026-05-02T12:49:53.998Z</time></trkpt><trkpt lat="44.08930963204535" lon="10.133804070454397"><ele>415.0</ele><time>2026-05-02T12:49:55.998Z</time></trkpt><trkpt lat="44.08924917162905" lon="10.133878988837907"><ele>415.0</ele><time>2026-05-02T12:49:57.998Z</time></trkpt><trkpt lat="44.08913466361997" lon="10.133896541322782"><ele>415.00000000000006</ele><time>2026-05-02T12:49:59.998Z</time></trkpt><trkpt lat="44.08907119255279" lon="10.133919886639186"><ele>415.0</ele><time>2026-05-02T12:50:00.998Z</time></trkpt><trkpt lat="44.089002319137315" lon="10.133942804031802"><ele>417.50000000000006</ele><time>2026-05-02T12:50:01.998Z</time></trkpt><trkpt lat="44.088933700083395" lon="10.13397225684903"><ele>420.0</ele><time>2026-05-02T12:50:02.998Z</time></trkpt><trkpt lat="44.088865280672486" lon="10.134010393615506"><ele>422.5</ele><time>2026-05-02T12:50:03.998Z</time></trkpt><trkpt lat="44.088797558201954" lon="10.134054343418395"><ele>425.0</ele><time>2026-05-02T12:50:04.998Z</time></trkpt><trkpt lat="44.08873019943891" lon="10.1341025072685"><ele>427.50000000000006</ele><time>2026-05-02T12:50:05.998Z</time></trkpt><trkpt lat="44.08866221960622" lon="10.134152377556408"><ele>430.0</ele><time>2026-05-02T12:50:06.998Z</time></trkpt><trkpt lat="44.08858417788691" lon="10.134229713346587"><ele>435.50000000000006</ele><time>2026-05-02T12:50:07.998Z</time></trkpt><trkpt lat="44.08851504289278" lon="10.134293619844629"><ele>441.0</ele><time>2026-05-02T12:50:08.997Z</time></trkpt><trkpt lat="44.08844633132544" lon="10.134358171484987"><ele>446.5</ele><time>2026-05-02T12:50:09.997Z</time></trkpt><trkpt lat="44.08837525791309" lon="10.134421007475245"><ele>452.0</ele><time>2026-05-02T12:50:10.997Z</time></trkpt><trkpt lat="44.0883066964243" lon="10.13448735475225"><ele>457.50000000000006</ele><time>2026-05-02T12:50:11.997Z</time></trkpt><trkpt lat="44.088237987920024" lon="10.134553828172006"><ele>463.0</ele><time>2026-05-02T12:50:12.997Z</time></trkpt><trkpt lat="44.08816734116858" lon="10.134614247457527"><ele>468.50000000000006</ele><time>2026-05-02T12:50:13.997Z</time></trkpt><trkpt lat="44.08809622520875" lon="10.134672189077378"><ele>474.0</ele><time>2026-05-02T12:50:14.997Z</time></trkpt><trkpt lat="44.088025997761996" lon="10.134724385120377"><ele>479.5</ele><time>2026-05-02T12:50:15.997Z</time></trkpt><trkpt lat="44.08795443528029" lon="10.134781387711067"><ele>485.0</ele><time>2026-05-02T12:50:16.997Z</time></trkpt><trkpt lat="44.087885424358795" lon="10.134840373289434"><ele>490.50000000000006</ele><time>2026-05-02T12:50:17.997Z</time></trkpt><trkpt lat="44.08781438559775" lon="10.134902586544305"><ele>496.0</ele><time>2026-05-02T12:50:18.997Z</time></trkpt><trkpt lat="44.087742220766714" lon="10.134964750507732"><ele>502.83333333333337</ele><time>2026-05-02T12:50:19.997Z</time></trkpt><trkpt lat="44.08767073980252" lon="10.135024615947193"><ele>509.6666666666667</ele><time>2026-05-02T12:50:20.997Z</time></trkpt><trkpt lat="44.087597289260046" lon="10.13508791369268"><ele>516.5</ele><time>2026-05-02T12:50:21.997Z</time></trkpt><trkpt lat="44.08752876223262" lon="10.135144966123969"><ele>523.3333333333334</ele><time>2026-05-02T12:50:22.997Z</time></trkpt><trkpt lat="44.087457069813546" lon="10.13520441627545"><ele>530.1666666666666</ele><time>2026-05-02T12:50:23.997Z</time></trkpt><trkpt lat="44.087385266613424" lon="10.1352632512195"><ele>537.0</ele><time>2026-05-02T12:50:24.997Z</time></trkpt><trkpt lat="44.087320454364054" lon="10.135315147158037"><ele>543.8333333333334</ele><time>2026-05-02T12:50:25.997Z</time></trkpt><trkpt lat="44.087250189359345" lon="10.1353757365926"><ele>550.6666666666666</ele><time>2026-05-02T12:50:26.997Z</time></trkpt><trkpt lat="44.08717166210158" lon="10.135442762324212"><ele>557.5</ele><time>2026-05-02T12:50:27.997Z</time></trkpt><trkpt lat="44.087089073302714" lon="10.135513242857748"><ele>564.3333333333333</ele><time>2026-05-02T12:50:28.997Z</time></trkpt><trkpt lat="44.08701448721087" lon="10.135575501028342"><ele>571.1666666666666</ele><time>2026-05-02T12:50:29.997Z</time></trkpt><trkpt lat="44.08694171843694" lon="10.135636435492447"><ele>578.0</ele><time>2026-05-02T12:50:30.997Z</time></trkpt><trkpt lat="44.086879065826956" lon="10.13568816722404"><ele>584.6666666666666</ele><time>2026-05-02T12:50:31.997Z</time></trkpt><trkpt lat="44.08679918007844" lon="10.13575716580924"><ele>591.3333333333334</ele><time>2026-05-02T12:50:33.015Z</time></trkpt><trkpt lat="44.08651563456283" lon="10.135991309833615"><ele>598.0</ele><time>2026-05-02T12:50:36.681Z</time></trkpt><trkpt lat="44.086438894312664" lon="10.136055684988095"><ele>598.3333333333334</ele><time>2026-05-02T12:50:37.682Z</time></trkpt><trkpt lat="44.08636208917713" lon="10.13611936831934"><ele>598.6666666666667</ele><time>2026-05-02T12:50:38.68Z</time></trkpt><trkpt lat="44.08628484764487" lon="10.13618247414635"><ele>599.0</ele><time>2026-05-02T12:50:39.681Z</time></trkpt><trkpt lat="44.08620769203253" lon="10.136245509777346"><ele>599.3333333333334</ele><time>2026-05-02T12:50:40.68Z</time></trkpt><trkpt lat="44.08613040634391" lon="10.136308651679814"><ele>599.6666666666666</ele><time>2026-05-02T12:50:41.682Z</time></trkpt><trkpt lat="44.086053288482596" lon="10.136371656468473"><ele>600.0</ele><time>2026-05-02T12:50:42.68Z</time></trkpt><trkpt lat="44.08597642749836" lon="10.136435669620225"><ele>600.0</ele><time>2026-05-02T12:50:43.681Z</time></trkpt><trkpt lat="44.08590008045714" lon="10.136500540012442"><ele>600.0</ele><time>2026-05-02T12:50:44.68Z</time></trkpt><trkpt lat="44.08582364455033" lon="10.13656548591178"><ele>600.0</ele><time>2026-05-02T12:50:45.681Z</time></trkpt><trkpt lat="44.0857472803954" lon="10.136630370845134"><ele>600.0</ele><time>2026-05-02T12:50:46.68Z</time></trkpt><trkpt lat="44.085670167021306" lon="10.136693662514565"><ele>600.0</ele><time>2026-05-02T12:50:47.68Z</time></trkpt><trkpt lat="44.085592923347775" lon="10.136756609046834"><ele>600.0</ele><time>2026-05-02T12:50:48.68Z</time></trkpt><trkpt lat="44.08551567109134" lon="10.136819562573384"><ele>608.3333333333334</ele><time>2026-05-02T12:50:49.68Z</time></trkpt><trkpt lat="44.08543837665713" lon="10.136882550470967"><ele>616.6666666666666</ele><time>2026-05-02T12:50:50.681Z</time></trkpt><trkpt lat="44.08536131810281" lon="10.136945944907277"><ele>625.0</ele><time>2026-05-02T12:50:51.681Z</time></trkpt><trkpt lat="44.085284923415436" lon="10.137010816130264"><ele>633.3333333333333</ele><time>2026-05-02T12:50:52.681Z</time></trkpt><trkpt lat="44.0852084567456" lon="10.137075748477793"><ele>641.6666666666666</ele><time>2026-05-02T12:50:53.681Z</time></trkpt><trkpt lat="44.08513212777341" lon="10.137140563898143"><ele>650.0</ele><time>2026-05-02T12:50:54.68Z</time></trkpt><trkpt lat="44.08505567638914" lon="10.137205483265795"><ele>650.0</ele><time>2026-05-02T12:50:55.681Z</time></trkpt><trkpt lat="44.084978726197875" lon="10.137269017247325"><ele>650.0</ele><time>2026-05-02T12:50:56.68Z</time></trkpt><trkpt lat="44.08490139240133" lon="10.137331852575155"><ele>650.0</ele><time>2026-05-02T12:50:57.68Z</time></trkpt><trkpt lat="44.08482411016852" lon="10.13739464600636"><ele>650.0</ele><time>2026-05-02T12:50:58.68Z</time></trkpt><trkpt lat="44.084746761377474" lon="10.137457493517534"><ele>650.0</ele><time>2026-05-02T12:50:59.681Z</time></trkpt><trkpt lat="44.08466997482486" lon="10.137521392390127"><ele>650.0</ele><time>2026-05-02T12:51:00.68Z</time></trkpt><trkpt lat="44.08459320422539" lon="10.13758571852178"><ele>640.8333333333333</ele><time>2026-05-02T12:51:01.681Z</time></trkpt><trkpt lat="44.08451658462879" lon="10.13764991812804"><ele>631.6666666666666</ele><time>2026-05-02T12:51:02.68Z</time></trkpt><trkpt lat="44.084439907445024" lon="10.137714165986614"><ele>622.5</ele><time>2026-05-02T12:51:03.68Z</time></trkpt><trkpt lat="44.08436320863065" lon="10.137778431969487"><ele>613.3333333333334</ele><time>2026-05-02T12:51:04.68Z</time></trkpt><trkpt lat="44.08428634701317" lon="10.13784248627484"><ele>604.1666666666667</ele><time>2026-05-02T12:51:05.681Z</time></trkpt><trkpt lat="44.084209046260874" lon="10.137905095883585"><ele>595.0</ele><time>2026-05-02T12:51:06.68Z</time></trkpt><trkpt lat="44.08413165048819" lon="10.137967782453932"><ele>587.0</ele><time>2026-05-02T12:51:07.68Z</time></trkpt><trkpt lat="44.08405430099897" lon="10.138030431537063"><ele>579.0</ele><time>2026-05-02T12:51:08.68Z</time></trkpt><trkpt lat="44.08397686724395" lon="10.138093148871134"><ele>571.0</ele><time>2026-05-02T12:51:09.681Z</time></trkpt><trkpt lat="44.08390002841608" lon="10.138156842657935"><ele>563.0</ele><time>2026-05-02T12:51:10.68Z</time></trkpt><trkpt lat="44.0838232897329" lon="10.138221192537495"><ele>555.0</ele><time>2026-05-02T12:51:11.681Z</time></trkpt><trkpt lat="44.08374668276216" lon="10.138285431968448"><ele>547.0</ele><time>2026-05-02T12:51:12.68Z</time></trkpt><trkpt lat="44.0836699578809" lon="10.138349770274283"><ele>542.6666666666667</ele><time>2026-05-02T12:51:13.68Z</time></trkpt><trkpt lat="44.08359329908438" lon="10.138414053164198"><ele>538.3333333333334</ele><time>2026-05-02T12:51:14.68Z</time></trkpt><trkpt lat="44.083516665515226" lon="10.138478314899485"><ele>534.0</ele><time>2026-05-02T12:51:15.68Z</time></trkpt><trkpt lat="44.08343997182998" lon="10.138542627045632"><ele>529.6666666666666</ele><time>2026-05-02T12:51:16.68Z</time></trkpt><trkpt lat="44.08336298387681" lon="10.138606342895772"><ele>525.3333333333333</ele><time>2026-05-02T12:51:17.681Z</time></trkpt><trkpt lat="44.08328576766551" lon="10.138669121517596"><ele>521.0</ele><time>2026-05-02T12:51:18.679Z</time></trkpt><trkpt lat="44.08320842724162" lon="10.138732001127217"><ele>514.8333333333333</ele><time>2026-05-02T12:51:19.68Z</time></trkpt><trkpt lat="44.08313116750985" lon="10.138794815132227"><ele>508.66666666666663</ele><time>2026-05-02T12:51:20.68Z</time></trkpt><trkpt lat="44.08305436003769" lon="10.138859074750757"><ele>502.5</ele><time>2026-05-02T12:51:21.681Z</time></trkpt><trkpt lat="44.08297856526073" lon="10.138925069204168"><ele>496.33333333333337</ele><time>2026-05-02T12:51:22.68Z</time></trkpt><trkpt lat="44.082902570977744" lon="10.138991050615994"><ele>490.1666666666667</ele><time>2026-05-02T12:51:23.68Z</time></trkpt><trkpt lat="44.0828246439095" lon="10.139052440480931"><ele>484.0</ele><time>2026-05-02T12:51:24.681Z</time></trkpt><trkpt lat="44.08274456321849" lon="10.139107920611456"><ele>477.00000000000006</ele><time>2026-05-02T12:51:25.68Z</time></trkpt><trkpt lat="44.08266208294388" lon="10.139156413234717"><ele>470.0</ele><time>2026-05-02T12:51:26.68Z</time></trkpt><trkpt lat="44.08257829829806" lon="10.139200312696518"><ele>463.0</ele><time>2026-05-02T12:51:27.68Z</time></trkpt><trkpt lat="44.08249242944147" lon="10.139235495970553"><ele>456.0</ele><time>2026-05-02T12:51:28.679Z</time></trkpt><trkpt lat="44.08240441952317" lon="10.139258458787307"><ele>449.00000000000006</ele><time>2026-05-02T12:51:29.679Z</time></trkpt><trkpt lat="44.082315658016825" lon="10.139275149083076"><ele>442.0</ele><time>2026-05-02T12:51:30.679Z</time></trkpt><trkpt lat="44.082226327046065" lon="10.1392837"><ele>434.83333333333337</ele><time>2026-05-02T12:51:31.68Z</time></trkpt><trkpt lat="44.08213645554221" lon="10.139283327858271"><ele>427.6666666666667</ele><time>2026-05-02T12:51:32.683Z</time></trkpt><trkpt lat="44.08204732540556" lon="10.139277351911584"><ele>420.5</ele><time>2026-05-02T12:51:33.679Z</time></trkpt><trkpt lat="44.08195833092644" lon="10.139263125458179"><ele>413.33333333333337</ele><time>2026-05-02T12:51:34.679Z</time></trkpt><trkpt lat="44.08187074571313" lon="10.139237628789559"><ele>406.1666666666667</ele><time>2026-05-02T12:51:35.679Z</time></trkpt><trkpt lat="44.081784514458846" lon="10.13920393734321"><ele>399.0</ele><time>2026-05-02T12:51:36.679Z</time></trkpt><trkpt lat="44.080107058618815" lon="10.136973979393927"><ele>392.6</ele><time>2026-05-02T12:51:50.995Z</time></trkpt><trkpt lat="44.08004523682091" lon="10.136857586826633"><ele>386.2</ele><time>2026-05-02T12:51:51.995Z</time></trkpt><trkpt lat="44.07999083570581" lon="10.136735596111443"><ele>379.8</ele><time>2026-05-02T12:51:52.995Z</time></trkpt><trkpt lat="44.079952512139165" lon="10.136603867396088"><ele>373.40000000000003</ele><time>2026-05-02T12:51:53.995Z</time></trkpt><trkpt lat="44.07992502648101" lon="10.13647885849813"><ele>367.0</ele><time>2026-05-02T12:51:54.995Z</time></trkpt><trkpt lat="44.07990207410677" lon="10.136346408360094"><ele>359.8</ele><time>2026-05-02T12:51:55.995Z</time></trkpt><trkpt lat="44.079883649372825" lon="10.136209736695154"><ele>352.6</ele><time>2026-05-02T12:51:56.997Z</time></trkpt><trkpt lat="44.07987476904904" lon="10.136072136297447"><ele>345.40000000000003</ele><time>2026-05-02T12:51:57.997Z</time></trkpt><trkpt lat="44.079869266361044" lon="10.135940558761197"><ele>338.20000000000005</ele><time>2026-05-02T12:51:58.997Z</time></trkpt><trkpt lat="44.0798565720761" lon="10.135814730853209"><ele>331.0</ele><time>2026-05-02T12:51:59.997Z</time></trkpt><trkpt lat="44.07984500661335" lon="10.135689385595434"><ele>329.6</ele><time>2026-05-02T12:52:00.997Z</time></trkpt><trkpt lat="44.079830185346175" lon="10.135563919875056"><ele>328.20000000000005</ele><time>2026-05-02T12:52:01.997Z</time></trkpt><trkpt lat="44.07979387610858" lon="10.135443206455149"><ele>326.79999999999995</ele><time>2026-05-02T12:52:03.997Z</time></trkpt><trkpt lat="44.07978035309335" lon="10.135326198550704"><ele>325.4</ele><time>2026-05-02T12:52:04.997Z</time></trkpt><trkpt lat="44.07977660559061" lon="10.135201733723884"><ele>324.0</ele><time>2026-05-02T12:52:05.998Z</time></trkpt><trkpt lat="44.07977980255196" lon="10.135073447720131"><ele>324.0</ele><time>2026-05-02T12:52:06.998Z</time></trkpt><trkpt lat="44.079791291932075" lon="10.134938804901244"><ele>324.0</ele><time>2026-05-02T12:52:07.998Z</time></trkpt><trkpt lat="44.07981603215662" lon="10.13480127542441"><ele>324.0</ele><time>2026-05-02T12:52:08.998Z</time></trkpt><trkpt lat="44.07984809994995" lon="10.13465345552999"><ele>324.0</ele><time>2026-05-02T12:52:09.998Z</time></trkpt><trkpt lat="44.07989050597868" lon="10.134515235310436"><ele>324.0</ele><time>2026-05-02T12:52:10.998Z</time></trkpt><trkpt lat="44.07994315588426" lon="10.134381132749105"><ele>325.2</ele><time>2026-05-02T12:52:11.998Z</time></trkpt><trkpt lat="44.080002789647246" lon="10.13425675196311"><ele>326.4</ele><time>2026-05-02T12:52:12.998Z</time></trkpt><trkpt lat="44.08006570152122" lon="10.134137557548732"><ele>327.6</ele><time>2026-05-02T12:52:13.998Z</time></trkpt><trkpt lat="44.0801318621687" lon="10.134033112197526"><ele>328.8</ele><time>2026-05-02T12:52:14.998Z</time></trkpt><trkpt lat="44.08019892880553" lon="10.13393047489667"><ele>330.0</ele><time>2026-05-02T12:52:15.998Z</time></trkpt><trkpt lat="44.08026474696008" lon="10.133819528996346"><ele>330.0</ele><time>2026-05-02T12:52:16.998Z</time></trkpt><trkpt lat="44.08033776084078" lon="10.133711056713464"><ele>330.0</ele><time>2026-05-02T12:52:17.998Z</time></trkpt><trkpt lat="44.08046336954467" lon="10.13340232920572"><ele>330.0</ele><time>2026-05-02T12:52:18.998Z</time></trkpt><trkpt lat="44.08053984077915" lon="10.133282790002147"><ele>334.0</ele><time>2026-05-02T12:52:19.998Z</time></trkpt><trkpt lat="44.080596053826135" lon="10.133193178413867"><ele>338.0</ele><time>2026-05-02T12:52:20.999Z</time></trkpt><trkpt lat="44.080672702527195" lon="10.133066820879927"><ele>342.0</ele><time>2026-05-02T12:52:21.999Z</time></trkpt><trkpt lat="44.080719596713394" lon="10.132965026079152"><ele>346.0</ele><time>2026-05-02T12:52:22.999Z</time></trkpt><trkpt lat="44.08078284329235" lon="10.132842685806493"><ele>350.0</ele><time>2026-05-02T12:52:23.999Z</time></trkpt><trkpt lat="44.08084484473035" lon="10.132720496999461"><ele>350.0</ele><time>2026-05-02T12:52:24.999Z</time></trkpt><trkpt lat="44.08090322409718" lon="10.132585558693105"><ele>350.0</ele><time>2026-05-02T12:52:25.999Z</time></trkpt><trkpt lat="44.080968277699796" lon="10.132449306563501"><ele>350.0</ele><time>2026-05-02T12:52:26.999Z</time></trkpt><trkpt lat="44.08103023511634" lon="10.132314641228945"><ele>350.0</ele><time>2026-05-02T12:52:27.999Z</time></trkpt><trkpt lat="44.081091221534365" lon="10.13216966023559"><ele>350.75</ele><time>2026-05-02T12:52:28.999Z</time></trkpt><trkpt lat="44.08114799220167" lon="10.132023419343748"><ele>351.5</ele><time>2026-05-02T12:52:29.999Z</time></trkpt><trkpt lat="44.081184731823114" lon="10.131872957106552"><ele>352.25</ele><time>2026-05-02T12:52:30.999Z</time></trkpt><trkpt lat="44.08121309126404" lon="10.131706953895138"><ele>353.0</ele><time>2026-05-02T12:52:31.999Z</time></trkpt><trkpt lat="44.08122726225945" lon="10.131555541170863"><ele>353.0</ele><time>2026-05-02T12:52:32.999Z</time></trkpt><trkpt lat="44.08123393046095" lon="10.13141187860799"><ele>353.0</ele><time>2026-05-02T12:52:33.999Z</time></trkpt><trkpt lat="44.08121869093078" lon="10.13116748319164"><ele>353.0</ele><time>2026-05-02T12:52:34.999Z</time></trkpt><trkpt lat="44.081204945588674" lon="10.130985381314552"><ele>353.0</ele><time>2026-05-02T12:52:35.999Z</time></trkpt><trkpt lat="44.08120502880448" lon="10.130794050169444"><ele>349.25</ele><time>2026-05-02T12:52:36.999Z</time></trkpt><trkpt lat="44.0812020502901" lon="10.130603488269013"><ele>345.5</ele><time>2026-05-02T12:52:37.999Z</time></trkpt><trkpt lat="44.08120318148441" lon="10.130412257590516"><ele>341.75</ele><time>2026-05-02T12:52:38.999Z</time></trkpt><trkpt lat="44.081202310365555" lon="10.130213724297485"><ele>338.0</ele><time>2026-05-02T12:52:39.999Z</time></trkpt><trkpt lat="44.08120690740216" lon="10.130013095970464"><ele>331.25</ele><time>2026-05-02T12:52:40.999Z</time></trkpt><trkpt lat="44.081202538201865" lon="10.129808590596639"><ele>324.5</ele><time>2026-05-02T12:52:41.999Z</time></trkpt><trkpt lat="44.08121644759601" lon="10.12960295408783"><ele>317.75</ele><time>2026-05-02T12:52:42.999Z</time></trkpt><trkpt lat="44.08121597565493" lon="10.129397198703531"><ele>311.0</ele><time>2026-05-02T12:52:43.999Z</time></trkpt><trkpt lat="44.08121500501594" lon="10.129190218962599"><ele>305.5</ele><time>2026-05-02T12:52:44.999Z</time></trkpt><trkpt lat="44.081218108588686" lon="10.128985834350535"><ele>300.0</ele><time>2026-05-02T12:52:45.999Z</time></trkpt><trkpt lat="44.081226679228536" lon="10.128779796699572"><ele>294.5</ele><time>2026-05-02T12:52:46.999Z</time></trkpt><trkpt lat="44.081246508468624" lon="10.128578270807834"><ele>289.0</ele><time>2026-05-02T12:52:47.999Z</time></trkpt><trkpt lat="44.081261344619634" lon="10.128492097265829"><ele>289.0</ele><time>2026-05-02T12:52:49.999Z</time></trkpt><trkpt lat="44.081281791975414" lon="10.128385942546554"><ele>289.0</ele><time>2026-05-02T12:52:50.999Z</time></trkpt><trkpt lat="44.0813158415553" lon="10.12825265905639"><ele>289.0</ele><time>2026-05-02T12:52:51.999Z</time></trkpt><trkpt lat="44.081355227339294" lon="10.128101664711453"><ele>289.0</ele><time>2026-05-02T12:52:52.999Z</time></trkpt><trkpt lat="44.08142182989877" lon="10.127968143914126"><ele>289.0</ele><time>2026-05-02T12:52:53.999Z</time></trkpt><trkpt lat="44.08149134787888" lon="10.127831326465223"><ele>290.5</ele><time>2026-05-02T12:52:54.999Z</time></trkpt><trkpt lat="44.08156848955645" lon="10.127693511132241"><ele>292.0</ele><time>2026-05-02T12:52:55.999Z</time></trkpt><trkpt lat="44.08165197493037" lon="10.127562868099101"><ele>293.5</ele><time>2026-05-02T12:52:56.999Z</time></trkpt><trkpt lat="44.0817387240851" lon="10.127439756954846"><ele>295.0</ele><time>2026-05-02T12:52:57.999Z</time></trkpt><trkpt lat="44.081832955446174" lon="10.127334592837709"><ele>295.0</ele><time>2026-05-02T12:52:58.999Z</time></trkpt><trkpt lat="44.0819428679411" lon="10.127249993155825"><ele>295.0</ele><time>2026-05-02T12:52:59.999Z</time></trkpt><trkpt lat="44.08205072066701" lon="10.127177389354095"><ele>295.0</ele><time>2026-05-02T12:53:00.999Z</time></trkpt><trkpt lat="44.08216543340461" lon="10.127118308062471"><ele>295.0</ele><time>2026-05-02T12:53:01.999Z</time></trkpt><trkpt lat="44.08227890425643" lon="10.127060688312001"><ele>295.0</ele><time>2026-05-02T12:53:02.999Z</time></trkpt><trkpt lat="44.08239572827295" lon="10.127020242311797"><ele>295.0</ele><time>2026-05-02T12:53:03.999Z</time></trkpt><trkpt lat="44.08251161432859" lon="10.12698614274282"><ele>295.0</ele><time>2026-05-02T12:53:04.998Z</time></trkpt><trkpt lat="44.08262491279243" lon="10.126983247027244"><ele>295.0</ele><time>2026-05-02T12:53:05.998Z</time></trkpt><trkpt lat="44.08274435204019" lon="10.126993531050907"><ele>299.8</ele><time>2026-05-02T12:53:06.998Z</time></trkpt><trkpt lat="44.08286090929557" lon="10.127013101062946"><ele>304.6</ele><time>2026-05-02T12:53:07.998Z</time></trkpt><trkpt lat="44.08297274734358" lon="10.127038344605491"><ele>309.4</ele><time>2026-05-02T12:53:08.998Z</time></trkpt><trkpt lat="44.08307449261213" lon="10.127085258760705"><ele>314.2</ele><time>2026-05-02T12:53:09.998Z</time></trkpt><trkpt lat="44.08316678528454" lon="10.127137394221242"><ele>319.0</ele><time>2026-05-02T12:53:10.998Z</time></trkpt><trkpt lat="44.08325979022714" lon="10.127204897227825"><ele>317.2</ele><time>2026-05-02T12:53:11.998Z</time></trkpt><trkpt lat="44.083341170849415" lon="10.127277875447742"><ele>315.4</ele><time>2026-05-02T12:53:12.998Z</time></trkpt><trkpt lat="44.08341686824312" lon="10.127346989347561"><ele>313.6</ele><time>2026-05-02T12:53:13.998Z</time></trkpt><trkpt lat="44.083487093085694" lon="10.12742404850852"><ele>311.8</ele><time>2026-05-02T12:53:14.998Z</time></trkpt><trkpt lat="44.08356009095076" lon="10.12750845237555"><ele>310.0</ele><time>2026-05-02T12:53:15.998Z</time></trkpt><trkpt lat="44.08363140464392" lon="10.127604881666686"><ele>318.8</ele><time>2026-05-02T12:53:16.998Z</time></trkpt><trkpt lat="44.08371010022036" lon="10.12768747898573"><ele>327.6</ele><time>2026-05-02T12:53:17.998Z</time></trkpt><trkpt lat="44.08380120836989" lon="10.127755147526393"><ele>336.4</ele><time>2026-05-02T12:53:18.998Z</time></trkpt><trkpt lat="44.08388086707365" lon="10.1278350129351"><ele>345.2</ele><time>2026-05-02T12:53:19.998Z</time></trkpt><trkpt lat="44.08396155310845" lon="10.127910409074618"><ele>354.0</ele><time>2026-05-02T12:53:20.998Z</time></trkpt><trkpt lat="44.084044474214" lon="10.127978694286066"><ele>350.2</ele><time>2026-05-02T12:53:21.998Z</time></trkpt><trkpt lat="44.08412956729404" lon="10.12803646298545"><ele>346.4</ele><time>2026-05-02T12:53:22.998Z</time></trkpt><trkpt lat="44.084213283484324" lon="10.128084474252482"><ele>342.6</ele><time>2026-05-02T12:53:25.998Z</time></trkpt><trkpt lat="44.08434814881218" lon="10.128152391977697"><ele>338.8</ele><time>2026-05-02T12:53:27.998Z</time></trkpt><trkpt lat="44.08441991623708" lon="10.128169415683944"><ele>335.0</ele><time>2026-05-02T12:53:28.998Z</time></trkpt><trkpt lat="44.084507952546666" lon="10.12819451791355"><ele>335.0</ele><time>2026-05-02T12:53:29.998Z</time></trkpt><trkpt lat="44.084594453566375" lon="10.128204968749667"><ele>335.0</ele><time>2026-05-02T12:53:30.998Z</time></trkpt><trkpt lat="44.084676667711165" lon="10.12819746315966"><ele>335.0</ele><time>2026-05-02T12:53:31.998Z</time></trkpt><trkpt lat="44.084759839230614" lon="10.12818241329551"><ele>335.0</ele><time>2026-05-02T12:53:32.998Z</time></trkpt><trkpt lat="44.084851234878776" lon="10.128166311786341"><ele>335.0</ele><time>2026-05-02T12:53:33.998Z</time></trkpt><trkpt lat="44.084937065020036" lon="10.128135247027743"><ele>335.0</ele><time>2026-05-02T12:53:34.998Z</time></trkpt><trkpt lat="44.08502923348777" lon="10.128101633463288"><ele>330.4</ele><time>2026-05-02T12:53:35.998Z</time></trkpt><trkpt lat="44.085108462049455" lon="10.128079267537842"><ele>325.8</ele><time>2026-05-02T12:53:36.998Z</time></trkpt><trkpt lat="44.08518398038875" lon="10.128042557654624"><ele>321.2</ele><time>2026-05-02T12:53:37.998Z</time></trkpt><trkpt lat="44.08526279734745" lon="10.128002003415705"><ele>316.6</ele><time>2026-05-02T12:53:38.998Z</time></trkpt><trkpt lat="44.085382336066054" lon="10.127934683155543"><ele>312.0</ele><time>2026-05-02T12:53:39.998Z</time></trkpt><trkpt lat="44.08550970259385" lon="10.127879311379045"><ele>312.0</ele><time>2026-05-02T12:53:40.998Z</time></trkpt><trkpt lat="44.08558978386016" lon="10.127837730894123"><ele>312.0</ele><time>2026-05-02T12:53:41.998Z</time></trkpt><trkpt lat="44.08568535208945" lon="10.127774468558238"><ele>312.0</ele><time>2026-05-02T12:53:42.998Z</time></trkpt><trkpt lat="44.08578258557811" lon="10.127752749961118"><ele>312.0</ele><time>2026-05-02T12:53:43.998Z</time></trkpt><trkpt lat="44.085865145940694" lon="10.12770651438934"><ele>312.0</ele><time>2026-05-02T12:53:44.998Z</time></trkpt><trkpt lat="44.085935141062365" lon="10.127652054820402"><ele>309.5</ele><time>2026-05-02T12:53:45.998Z</time></trkpt><trkpt lat="44.08599900862088" lon="10.127599010891347"><ele>307.0</ele><time>2026-05-02T12:53:46.998Z</time></trkpt><trkpt lat="44.08605372079558" lon="10.127542548201708"><ele>304.5</ele><time>2026-05-02T12:53:47.998Z</time></trkpt><trkpt lat="44.08613182641757" lon="10.127455192132786"><ele>302.0</ele><time>2026-05-02T12:53:49.998Z</time></trkpt><trkpt lat="44.08617218130597" lon="10.127366964722295"><ele>299.5</ele><time>2026-05-02T12:53:52.998Z</time></trkpt><trkpt lat="44.08626293873071" lon="10.127268956579275"><ele>297.0</ele><time>2026-05-02T12:53:56.998Z</time></trkpt><trkpt lat="44.08617257561679" lon="10.12713429053868"><ele>296.8333333333333</ele><time>2026-05-02T12:53:57.998Z</time></trkpt><trkpt lat="44.0861503750471" lon="10.127042669928034"><ele>296.6666666666667</ele><time>2026-05-02T12:53:59.998Z</time></trkpt><trkpt lat="44.08610460891593" lon="10.126956759210954"><ele>296.5</ele><time>2026-05-02T12:54:07.999Z</time></trkpt><trkpt lat="44.08606902175907" lon="10.126819974566063"><ele>296.33333333333337</ele><time>2026-05-02T12:54:09.999Z</time></trkpt><trkpt lat="44.08603896049241" lon="10.126734639597432"><ele>296.1666666666667</ele><time>2026-05-02T12:54:11Z</time></trkpt><trkpt lat="44.08600929943041" lon="10.12665044043681"><ele>296.0</ele><time>2026-05-02T12:54:12Z</time></trkpt><trkpt lat="44.08596328915295" lon="10.126519839209271"><ele>294.83333333333337</ele><time>2026-05-02T12:54:14Z</time></trkpt><trkpt lat="44.08593514435989" lon="10.12643557665356"><ele>293.6666666666667</ele><time>2026-05-02T12:54:17Z</time></trkpt><trkpt lat="44.08589848588073" lon="10.126325824907491"><ele>292.5</ele><time>2026-05-02T12:56:15.998Z</time></trkpt><trkpt lat="44.0858701299736" lon="10.126240930225071"><ele>291.3333333333333</ele><time>2026-05-02T12:56:16.998Z</time></trkpt><trkpt lat="44.08583873838541" lon="10.126146660677437"><ele>290.16666666666663</ele><time>2026-05-02T12:56:17.998Z</time></trkpt><trkpt lat="44.085802763615916" lon="10.126037912971313"><ele>289.0</ele><time>2026-05-02T12:56:18.999Z</time></trkpt><trkpt lat="44.085749143773754" lon="10.125927266528286"><ele>289.0</ele><time>2026-05-02T12:56:19.999Z</time></trkpt><trkpt lat="44.08571195541943" lon="10.125788993015163"><ele>289.0</ele><time>2026-05-02T12:56:20.999Z</time></trkpt><trkpt lat="44.08566658018139" lon="10.125651365311557"><ele>289.0</ele><time>2026-05-02T12:56:21.999Z</time></trkpt><trkpt lat="44.08562094753819" lon="10.125518950289909"><ele>289.0</ele><time>2026-05-02T12:56:22.999Z</time></trkpt><trkpt lat="44.085576030251424" lon="10.125382395047044"><ele>289.0</ele><time>2026-05-02T12:56:23.999Z</time></trkpt><trkpt lat="44.085522789649126" lon="10.125255276368035"><ele>293.0</ele><time>2026-05-02T12:56:24.999Z</time></trkpt><trkpt lat="44.08545251401777" lon="10.125155664539587"><ele>297.0</ele><time>2026-05-02T12:56:25.999Z</time></trkpt><trkpt lat="44.085365227497846" lon="10.125087006859204"><ele>301.0</ele><time>2026-05-02T12:56:26.999Z</time></trkpt><trkpt lat="44.08526309410429" lon="10.125061464519291"><ele>305.0</ele><time>2026-05-02T12:56:27.999Z</time></trkpt><trkpt lat="44.085154705497445" lon="10.125038333724062"><ele>309.0</ele><time>2026-05-02T12:56:28.999Z</time></trkpt><trkpt lat="44.08504291785516" lon="10.125035519681623"><ele>304.0</ele><time>2026-05-02T12:56:29.999Z</time></trkpt><trkpt lat="44.084926637277455" lon="10.125031854430793"><ele>299.0</ele><time>2026-05-02T12:56:30.999Z</time></trkpt><trkpt lat="44.08480839020855" lon="10.125029311480068"><ele>294.0</ele><time>2026-05-02T12:56:31.999Z</time></trkpt><trkpt lat="44.084694112065506" lon="10.125022156846493"><ele>289.0</ele><time>2026-05-02T12:56:32.999Z</time></trkpt><trkpt lat="44.084585604635166" lon="10.124995853809253"><ele>289.0</ele><time>2026-05-02T12:56:33.999Z</time></trkpt><trkpt lat="44.0844740471962" lon="10.124975180723744"><ele>289.0</ele><time>2026-05-02T12:56:34.999Z</time></trkpt><trkpt lat="44.08437284026943" lon="10.124916734097022"><ele>289.0</ele><time>2026-05-02T12:56:35.999Z</time></trkpt><trkpt lat="44.084287774537174" lon="10.124824048254492"><ele>289.0</ele><time>2026-05-02T12:56:36.999Z</time></trkpt><trkpt lat="44.08419365003284" lon="10.12475502944345"><ele>289.0</ele><time>2026-05-02T12:56:37.999Z</time></trkpt><trkpt lat="44.084121710302114" lon="10.124646569581047"><ele>285.59999999999997</ele><time>2026-05-02T12:56:38.999Z</time></trkpt><trkpt lat="44.08405908675982" lon="10.124528534070185"><ele>282.2</ele><time>2026-05-02T12:56:39.999Z</time></trkpt><trkpt lat="44.084008522889526" lon="10.12439747902315"><ele>278.79999999999995</ele><time>2026-05-02T12:56:40.999Z</time></trkpt><trkpt lat="44.08397388923979" lon="10.124249413894438"><ele>275.4</ele><time>2026-05-02T12:56:41.999Z</time></trkpt><trkpt lat="44.083955049101576" lon="10.124096155397318"><ele>272.0</ele><time>2026-05-02T12:56:42.999Z</time></trkpt><trkpt lat="44.08394832232617" lon="10.123940772526622"><ele>272.0</ele><time>2026-05-02T12:56:43.999Z</time></trkpt><trkpt lat="44.08394382649631" lon="10.123778854060227"><ele>272.0</ele><time>2026-05-02T12:56:44.999Z</time></trkpt><trkpt lat="44.08393464454858" lon="10.123620554102866"><ele>272.0</ele><time>2026-05-02T12:56:45.999Z</time></trkpt><trkpt lat="44.083902675089774" lon="10.123470316145683"><ele>272.0</ele><time>2026-05-02T12:56:46.999Z</time></trkpt><trkpt lat="44.08384383488742" lon="10.123339998395435"><ele>272.0</ele><time>2026-05-02T12:56:47.999Z</time></trkpt><trkpt lat="44.08376300274361" lon="10.123231911683392"><ele>272.0</ele><time>2026-05-02T12:56:48.999Z</time></trkpt><trkpt lat="44.08366342413354" lon="10.12315044062298"><ele>272.0</ele><time>2026-05-02T12:56:49.999Z</time></trkpt><trkpt lat="44.083560235611046" lon="10.123087061785045"><ele>272.0</ele><time>2026-05-02T12:56:50.999Z</time></trkpt><trkpt lat="44.08344225514747" lon="10.123076320624437"><ele>275.1666666666667</ele><time>2026-05-02T12:56:51.999Z</time></trkpt><trkpt lat="44.08334404187389" lon="10.123112422046018"><ele>278.33333333333337</ele><time>2026-05-02T12:56:52.999Z</time></trkpt><trkpt lat="44.083260052175646" lon="10.123106356532768"><ele>281.5</ele><time>2026-05-02T12:56:53.998Z</time></trkpt><trkpt lat="44.083183608839725" lon="10.123066438404766"><ele>284.6666666666667</ele><time>2026-05-02T12:56:54.998Z</time></trkpt><trkpt lat="44.08312324476567" lon="10.122982615572203"><ele>287.8333333333333</ele><time>2026-05-02T12:56:55.998Z</time></trkpt><trkpt lat="44.08308414237222" lon="10.12286995192378"><ele>291.0</ele><time>2026-05-02T12:56:56.998Z</time></trkpt><trkpt lat="44.083053178362555" lon="10.122733915659314"><ele>275.5</ele><time>2026-05-02T12:56:57.998Z</time></trkpt><trkpt lat="44.08302834895542" lon="10.12258148631169"><ele>260.0</ele><time>2026-05-02T12:56:58.998Z</time></trkpt><trkpt lat="44.08301396110464" lon="10.122418098318027"><ele>244.5</ele><time>2026-05-02T12:56:59.998Z</time></trkpt><trkpt lat="44.08301439415678" lon="10.122247211134694"><ele>229.0</ele><time>2026-05-02T12:57:00.998Z</time></trkpt><trkpt lat="44.08303551431732" lon="10.122086984469663"><ele>226.0</ele><time>2026-05-02T12:57:01.998Z</time></trkpt><trkpt lat="44.08307846236024" lon="10.121937805190282"><ele>223.0</ele><time>2026-05-02T12:57:02.998Z</time></trkpt><trkpt lat="44.08313423524668" lon="10.121795365453004"><ele>220.0</ele><time>2026-05-02T12:57:03.998Z</time></trkpt><trkpt lat="44.08320985929866" lon="10.121654753968073"><ele>217.0</ele><time>2026-05-02T12:57:04.998Z</time></trkpt><trkpt lat="44.08328049060023" lon="10.121493234856507"><ele>230.25</ele><time>2026-05-02T12:57:05.998Z</time></trkpt><trkpt lat="44.0833327902709" lon="10.121324681195917"><ele>243.5</ele><time>2026-05-02T12:57:06.998Z</time></trkpt><trkpt lat="44.08334150691245" lon="10.121134320047707"><ele>256.75</ele><time>2026-05-02T12:57:07.998Z</time></trkpt><trkpt lat="44.083342266261624" lon="10.120941687030786"><ele>270.0</ele><time>2026-05-02T12:57:08.998Z</time></trkpt><trkpt lat="44.083337101751155" lon="10.120750538749816"><ele>263.25</ele><time>2026-05-02T12:57:09.998Z</time></trkpt><trkpt lat="44.08335592364578" lon="10.12057463497049"><ele>256.5</ele><time>2026-05-02T12:57:10.998Z</time></trkpt><trkpt lat="44.08338590447875" lon="10.120412988240393"><ele>249.75</ele><time>2026-05-02T12:57:11.998Z</time></trkpt><trkpt lat="44.08342766985152" lon="10.120239291178175"><ele>243.0</ele><time>2026-05-02T12:57:12.998Z</time></trkpt><trkpt lat="44.08348667585315" lon="10.120075798992616"><ele>240.5</ele><time>2026-05-02T12:57:13.998Z</time></trkpt><trkpt lat="44.08349592803888" lon="10.119875028780326"><ele>238.0</ele><time>2026-05-02T12:57:14.998Z</time></trkpt><trkpt lat="44.08345286760304" lon="10.11968544786848"><ele>235.5</ele><time>2026-05-02T12:57:15.998Z</time></trkpt><trkpt lat="44.083470419258774" lon="10.119488095490642"><ele>233.0</ele><time>2026-05-02T12:57:16.998Z</time></trkpt><trkpt lat="44.08349272050435" lon="10.119285058453032"><ele>233.0</ele><time>2026-05-02T12:57:17.998Z</time></trkpt><trkpt lat="44.08350180253944" lon="10.119077648048272"><ele>233.0</ele><time>2026-05-02T12:57:18.998Z</time></trkpt><trkpt lat="44.08354024127605" lon="10.11888347646322"><ele>233.0</ele><time>2026-05-02T12:57:19.998Z</time></trkpt><trkpt lat="44.0835474262222" lon="10.118688302871757"><ele>233.0</ele><time>2026-05-02T12:57:20.998Z</time></trkpt><trkpt lat="44.083545151627945" lon="10.11850352492808"><ele>231.0</ele><time>2026-05-02T12:57:21.998Z</time></trkpt><trkpt lat="44.08357627576623" lon="10.118329278384113"><ele>229.0</ele><time>2026-05-02T12:57:22.998Z</time></trkpt><trkpt lat="44.08362335031678" lon="10.118164188708077"><ele>227.0</ele><time>2026-05-02T12:57:23.998Z</time></trkpt><trkpt lat="44.083700274205306" lon="10.11802231172277"><ele>225.0</ele><time>2026-05-02T12:57:24.998Z</time></trkpt><trkpt lat="44.08375695398182" lon="10.117887580193013"><ele>224.66666666666666</ele><time>2026-05-02T12:57:25.998Z</time></trkpt><trkpt lat="44.08382308181826" lon="10.117800884753363"><ele>224.33333333333331</ele><time>2026-05-02T12:57:26.998Z</time></trkpt><trkpt lat="44.083897065481686" lon="10.117748214194172"><ele>224.0</ele><time>2026-05-02T12:57:27.998Z</time></trkpt><trkpt lat="44.08398655505997" lon="10.11772791837229"><ele>223.66666666666666</ele><time>2026-05-02T12:57:28.998Z</time></trkpt><trkpt lat="44.084074835894874" lon="10.117708010089473"><ele>223.33333333333331</ele><time>2026-05-02T12:57:29.998Z</time></trkpt><trkpt lat="44.084151580115595" lon="10.117640735461174"><ele>223.0</ele><time>2026-05-02T12:57:30.998Z</time></trkpt><trkpt lat="44.084202648118875" lon="10.117540280329184"><ele>222.8</ele><time>2026-05-02T12:57:31.998Z</time></trkpt><trkpt lat="44.08420963813183" lon="10.117406642436242"><ele>222.60000000000002</ele><time>2026-05-02T12:57:32.998Z</time></trkpt><trkpt lat="44.084170994482555" lon="10.11729421572251"><ele>222.39999999999998</ele><time>2026-05-02T12:57:33.998Z</time></trkpt><trkpt lat="44.0841048939236" lon="10.11721865624338"><ele>222.2</ele><time>2026-05-02T12:57:34.998Z</time></trkpt><trkpt lat="44.08402814283784" lon="10.117163967198056"><ele>222.0</ele><time>2026-05-02T12:57:35.998Z</time></trkpt><trkpt lat="44.08397624145752" lon="10.117053490912244"><ele>222.0</ele><time>2026-05-02T12:57:36.998Z</time></trkpt><trkpt lat="44.083939902881" lon="10.116932793156236"><ele>222.0</ele><time>2026-05-02T12:57:37.998Z</time></trkpt><trkpt lat="44.083901000112796" lon="10.116799617472456"><ele>222.0</ele><time>2026-05-02T12:57:38.998Z</time></trkpt><trkpt lat="44.08386320401762" lon="10.116667792851905"><ele>222.0</ele><time>2026-05-02T12:57:39.998Z</time></trkpt><trkpt lat="44.08382620963635" lon="10.116538764412525"><ele>222.0</ele><time>2026-05-02T12:57:40.998Z</time></trkpt><trkpt lat="44.08379447412279" lon="10.116425594462237"><ele>223.66666666666666</ele><time>2026-05-02T12:57:41.998Z</time></trkpt><trkpt lat="44.08376689456889" lon="10.116326621646687"><ele>225.33333333333331</ele><time>2026-05-02T12:57:42.998Z</time></trkpt><trkpt lat="44.08374209441212" lon="10.116243214768156"><ele>227.0</ele><time>2026-05-02T12:57:43.998Z</time></trkpt><trkpt lat="44.08368366712874" lon="10.116107954800238"><ele>228.66666666666666</ele><time>2026-05-02T12:57:45.998Z</time></trkpt><trkpt lat="44.083626804714854" lon="10.116022364088881"><ele>230.33333333333331</ele><time>2026-05-02T12:57:47.998Z</time></trkpt><trkpt lat="44.08354252477543" lon="10.116010433237728"><ele>232.0</ele><time>2026-05-02T12:57:49.998Z</time></trkpt><trkpt lat="44.08342422246034" lon="10.116045026417632"><ele>232.0</ele><time>2026-05-02T12:57:51.998Z</time></trkpt><trkpt lat="44.08331070738202" lon="10.116087371108987"><ele>232.0</ele><time>2026-05-02T12:57:53.998Z</time></trkpt><trkpt lat="44.08321241962729" lon="10.116096611239007"><ele>232.0</ele><time>2026-05-02T12:57:55.998Z</time></trkpt><trkpt lat="44.0831047196394" lon="10.116066767452256"><ele>232.0</ele><time>2026-05-02T12:57:57.998Z</time></trkpt><trkpt lat="44.083038441534065" lon="10.115924628073559"><ele>232.0</ele><time>2026-05-02T12:57:59.998Z</time></trkpt><trkpt lat="44.08301687555086" lon="10.115754404810588"><ele>227.8571428571429</ele><time>2026-05-02T12:58:01.998Z</time></trkpt><trkpt lat="44.083011564468926" lon="10.115643081052271"><ele>223.71428571428572</ele><time>2026-05-02T12:58:02.998Z</time></trkpt><trkpt lat="44.083006152138516" lon="10.115539750770148"><ele>219.57142857142858</ele><time>2026-05-02T12:58:03.998Z</time></trkpt><trkpt lat="44.08300182409874" lon="10.11544622625779"><ele>215.42857142857144</ele><time>2026-05-02T12:58:04.998Z</time></trkpt><trkpt lat="44.08299193059224" lon="10.115356627175721"><ele>211.28571428571428</ele><time>2026-05-02T12:58:05.998Z</time></trkpt><trkpt lat="44.08298128615967" lon="10.11526782376678"><ele>207.14285714285714</ele><time>2026-05-02T12:58:06.998Z</time></trkpt><trkpt lat="44.082968517451775" lon="10.115172191402097"><ele>203.0</ele><time>2026-05-02T12:58:07.998Z</time></trkpt><trkpt lat="44.08296078530157" lon="10.115067930665289"><ele>203.00000000000003</ele><time>2026-05-02T12:58:08.998Z</time></trkpt><trkpt lat="44.08296671584885" lon="10.114959338714458"><ele>203.0</ele><time>2026-05-02T12:58:09.998Z</time></trkpt><trkpt lat="44.08295939182709" lon="10.114848603256565"><ele>203.0</ele><time>2026-05-02T12:58:10.998Z</time></trkpt><trkpt lat="44.08295203466395" lon="10.114737366790955"><ele>203.0</ele><time>2026-05-02T12:58:11.998Z</time></trkpt><trkpt lat="44.082929750876495" lon="10.114633928940696"><ele>203.00000000000003</ele><time>2026-05-02T12:58:12.998Z</time></trkpt><trkpt lat="44.08292665620075" lon="10.114528545046563"><ele>203.0</ele><time>2026-05-02T12:58:13.999Z</time></trkpt><trkpt lat="44.082921004090885" lon="10.114428272982897"><ele>202.57142857142858</ele><time>2026-05-02T12:58:14.999Z</time></trkpt><trkpt lat="44.082916099411236" lon="10.114329990835534"><ele>202.14285714285714</ele><time>2026-05-02T12:58:15.999Z</time></trkpt><trkpt lat="44.08291069213071" lon="10.114234097582525"><ele>201.71428571428572</ele><time>2026-05-02T12:58:16.999Z</time></trkpt><trkpt lat="44.082908070432055" lon="10.114134960644849"><ele>201.28571428571428</ele><time>2026-05-02T12:58:17.999Z</time></trkpt><trkpt lat="44.082919307437685" lon="10.114034632365406"><ele>200.85714285714286</ele><time>2026-05-02T12:58:18.999Z</time></trkpt><trkpt lat="44.08294424039549" lon="10.113940287132504"><ele>200.42857142857144</ele><time>2026-05-02T12:58:19.999Z</time></trkpt><trkpt lat="44.08298217186465" lon="10.113854027678162"><ele>200.0</ele><time>2026-05-02T12:58:20.999Z</time></trkpt><trkpt lat="44.083035939514666" lon="10.113784653380273"><ele>198.85714285714286</ele><time>2026-05-02T12:58:21.999Z</time></trkpt><trkpt lat="44.08309624702583" lon="10.113733469076623"><ele>197.71428571428572</ele><time>2026-05-02T12:58:22.999Z</time></trkpt><trkpt lat="44.08316177550326" lon="10.113704304335148"><ele>196.57142857142856</ele><time>2026-05-02T12:58:23.999Z</time></trkpt><trkpt lat="44.08322761436818" lon="10.113692588442149"><ele>195.42857142857144</ele><time>2026-05-02T12:58:24.999Z</time></trkpt><trkpt lat="44.08329251229317" lon="10.11369248386728"><ele>194.28571428571428</ele><time>2026-05-02T12:58:26Z</time></trkpt><trkpt lat="44.08335763025003" lon="10.113701664023411"><ele>193.14285714285714</ele><time>2026-05-02T12:58:27Z</time></trkpt><trkpt lat="44.08342310411024" lon="10.113706040594408"><ele>192.0</ele><time>2026-05-02T12:58:28Z</time></trkpt><trkpt lat="44.083487940395756" lon="10.113706194306646"><ele>197.5</ele><time>2026-05-02T12:58:29Z</time></trkpt><trkpt lat="44.08360461431999" lon="10.113698475796363"><ele>203.0</ele><time>2026-05-02T12:58:31Z</time></trkpt><trkpt lat="44.083695658413" lon="10.113611309818962"><ele>208.5</ele><time>2026-05-02T12:58:33Z</time></trkpt><trkpt lat="44.08371576069794" lon="10.113527896177443"><ele>214.0</ele><time>2026-05-02T12:58:34Z</time></trkpt><trkpt lat="44.08371994938788" lon="10.113438067063155"><ele>219.5</ele><time>2026-05-02T12:58:35Z</time></trkpt><trkpt lat="44.083715070566775" lon="10.113350333570386"><ele>225.0</ele><time>2026-05-02T12:58:35.999Z</time></trkpt><trkpt lat="44.08369233104124" lon="10.113249033269915"><ele>222.4</ele><time>2026-05-02T12:58:36.999Z</time></trkpt><trkpt lat="44.08369237510562" lon="10.113121773533962"><ele>219.8</ele><time>2026-05-02T12:58:37.999Z</time></trkpt><trkpt lat="44.08369463507018" lon="10.112973743615704"><ele>217.2</ele><time>2026-05-02T12:58:38.999Z</time></trkpt><trkpt lat="44.08370119887442" lon="10.11282024295231"><ele>214.6</ele><time>2026-05-02T12:58:39.999Z</time></trkpt><trkpt lat="44.08373768998651" lon="10.11266357826891"><ele>212.0</ele><time>2026-05-02T12:58:40.999Z</time></trkpt><trkpt lat="44.08379462003908" lon="10.112505413034421"><ele>204.66666666666669</ele><time>2026-05-02T12:58:41.999Z</time></trkpt><trkpt lat="44.08385757610809" lon="10.112317341284326"><ele>197.33333333333334</ele><time>2026-05-02T12:58:42.999Z</time></trkpt><trkpt lat="44.08392330879078" lon="10.112114450617582"><ele>190.0</ele><time>2026-05-02T12:58:43.999Z</time></trkpt><trkpt lat="44.08398045295328" lon="10.111895936521847"><ele>190.0</ele><time>2026-05-02T12:58:44.999Z</time></trkpt><trkpt lat="44.08403342827492" lon="10.11166053197759"><ele>190.0</ele><time>2026-05-02T12:58:45.999Z</time></trkpt><trkpt lat="44.08407867030471" lon="10.111437859567078"><ele>190.0</ele><time>2026-05-02T12:58:46.999Z</time></trkpt><trkpt lat="44.084135019332244" lon="10.111228067947408"><ele>197.33333333333334</ele><time>2026-05-02T12:58:47.999Z</time></trkpt><trkpt lat="44.08421259352673" lon="10.111033473014045"><ele>204.66666666666669</ele><time>2026-05-02T12:58:48.999Z</time></trkpt><trkpt lat="44.08428603450737" lon="10.110847627324548"><ele>212.0</ele><time>2026-05-02T12:58:49.999Z</time></trkpt><trkpt lat="44.084340198903135" lon="10.110668508224732"><ele>212.0</ele><time>2026-05-02T12:58:50.999Z</time></trkpt><trkpt lat="44.084372343050354" lon="10.110493189264835"><ele>212.0</ele><time>2026-05-02T12:58:51.999Z</time></trkpt><trkpt lat="44.08437472116201" lon="10.110297272666223"><ele>212.0</ele><time>2026-05-02T12:58:52.999Z</time></trkpt><trkpt lat="44.08434025181362" lon="10.110076421983802"><ele>212.0</ele><time>2026-05-02T12:58:53.999Z</time></trkpt><trkpt lat="44.084299966164934" lon="10.109847772655156"><ele>216.66666666666669</ele><time>2026-05-02T12:58:54.999Z</time></trkpt><trkpt lat="44.08422881972487" lon="10.109648519716659"><ele>221.33333333333331</ele><time>2026-05-02T12:58:55.999Z</time></trkpt><trkpt lat="44.08413884559275" lon="10.109475468420268"><ele>226.0</ele><time>2026-05-02T12:58:56.999Z</time></trkpt><trkpt lat="44.08405632075512" lon="10.109291551703762"><ele>215.66666666666666</ele><time>2026-05-02T12:58:57.999Z</time></trkpt><trkpt lat="44.0839253236072" lon="10.109136037827563"><ele>205.33333333333331</ele><time>2026-05-02T12:58:58.999Z</time></trkpt><trkpt lat="44.08379594798268" lon="10.108988740367856"><ele>195.0</ele><time>2026-05-02T12:58:59.999Z</time></trkpt><trkpt lat="44.08369714375317" lon="10.108819856689813"><ele>195.0</ele><time>2026-05-02T12:59:00.999Z</time></trkpt><trkpt lat="44.08358771728515" lon="10.108633559560232"><ele>195.0</ele><time>2026-05-02T12:59:01.999Z</time></trkpt><trkpt lat="44.083473552716676" lon="10.10845804614894"><ele>195.0</ele><time>2026-05-02T12:59:02.999Z</time></trkpt><trkpt lat="44.08336881564044" lon="10.108307024591964"><ele>195.6</ele><time>2026-05-02T12:59:03.999Z</time></trkpt><trkpt lat="44.0832677260144" lon="10.10818711807453"><ele>196.2</ele><time>2026-05-02T12:59:04.999Z</time></trkpt><trkpt lat="44.08318865487442" lon="10.108070554964302"><ele>196.8</ele><time>2026-05-02T12:59:05.999Z</time></trkpt><trkpt lat="44.08312181983718" lon="10.107969937375493"><ele>197.4</ele><time>2026-05-02T12:59:06.999Z</time></trkpt><trkpt lat="44.08305870251134" lon="10.107898890623826"><ele>198.0</ele><time>2026-05-02T12:59:07.999Z</time></trkpt><trkpt lat="44.082987138621824" lon="10.107870473551285"><ele>190.4</ele><time>2026-05-02T12:59:08.999Z</time></trkpt><trkpt lat="44.08292536404113" lon="10.107893219228282"><ele>182.8</ele><time>2026-05-02T12:59:09.999Z</time></trkpt><trkpt lat="44.082876302322646" lon="10.108053920149086"><ele>175.2</ele><time>2026-05-02T12:59:11.999Z</time></trkpt><trkpt lat="44.082909194208334" lon="10.10815943066658"><ele>167.6</ele><time>2026-05-02T12:59:12.999Z</time></trkpt><trkpt lat="44.082985034546034" lon="10.108250425151711"><ele>160.0</ele><time>2026-05-02T12:59:13.999Z</time></trkpt><trkpt lat="44.083084296013844" lon="10.108351260494418"><ele>160.0</ele><time>2026-05-02T12:59:14.999Z</time></trkpt><trkpt lat="44.083184409793624" lon="10.108481316417762"><ele>160.0</ele><time>2026-05-02T12:59:15.999Z</time></trkpt><trkpt lat="44.083284879461736" lon="10.108615271252976"><ele>160.0</ele><time>2026-05-02T12:59:16.999Z</time></trkpt><trkpt lat="44.08338100525807" lon="10.108737237555323"><ele>160.0</ele><time>2026-05-02T12:59:17.999Z</time></trkpt><trkpt lat="44.08347189184115" lon="10.108867815084865"><ele>165.25</ele><time>2026-05-02T12:59:18.999Z</time></trkpt><trkpt lat="44.08354347917287" lon="10.10900911121017"><ele>170.5</ele><time>2026-05-02T12:59:19.999Z</time></trkpt><trkpt lat="44.08360131202298" lon="10.109152654760978"><ele>175.75</ele><time>2026-05-02T12:59:20.999Z</time></trkpt><trkpt lat="44.08368650784678" lon="10.109258496646586"><ele>181.0</ele><time>2026-05-02T12:59:21.999Z</time></trkpt><trkpt lat="44.083775115860966" lon="10.109340530562948"><ele>181.0</ele><time>2026-05-02T12:59:22.999Z</time></trkpt><trkpt lat="44.083833036241785" lon="10.109459428516429"><ele>181.0</ele><time>2026-05-02T12:59:23.999Z</time></trkpt><trkpt lat="44.08385666209459" lon="10.109618172479783"><ele>181.0</ele><time>2026-05-02T12:59:24.999Z</time></trkpt><trkpt lat="44.083861987929986" lon="10.109806627421232"><ele>181.0</ele><time>2026-05-02T12:59:25.999Z</time></trkpt><trkpt lat="44.08386667516201" lon="10.109993211906017"><ele>178.60000000000002</ele><time>2026-05-02T12:59:26.999Z</time></trkpt><trkpt lat="44.08387932399304" lon="10.110159621894775"><ele>176.2</ele><time>2026-05-02T12:59:27.999Z</time></trkpt><trkpt lat="44.08389847811172" lon="10.110309961184804"><ele>173.8</ele><time>2026-05-02T12:59:28.999Z</time></trkpt><trkpt lat="44.083909772793916" lon="10.11044638680754"><ele>171.39999999999998</ele><time>2026-05-02T12:59:29.999Z</time></trkpt><trkpt lat="44.08389542266474" lon="10.110580760259545"><ele>169.0</ele><time>2026-05-02T12:59:30.999Z</time></trkpt><trkpt lat="44.083811177658525" lon="10.110672836085959"><ele>170.2</ele><time>2026-05-02T12:59:31.999Z</time></trkpt><trkpt lat="44.0837277647925" lon="10.110781030056518"><ele>171.39999999999998</ele><time>2026-05-02T12:59:32.999Z</time></trkpt><trkpt lat="44.08366995433109" lon="10.110890711034402"><ele>172.6</ele><time>2026-05-02T12:59:33.999Z</time></trkpt><trkpt lat="44.08359598823463" lon="10.110935517984691"><ele>173.8</ele><time>2026-05-02T12:59:34.999Z</time></trkpt><trkpt lat="44.08350109920102" lon="10.110922390003635"><ele>175.0</ele><time>2026-05-02T12:59:36.999Z</time></trkpt><trkpt lat="44.08350708957241" lon="10.110799753826166"><ele>175.0</ele><time>2026-05-02T12:59:39.999Z</time></trkpt><trkpt lat="44.0835968603858" lon="10.110746282588227"><ele>175.0</ele><time>2026-05-02T12:59:41.999Z</time></trkpt><trkpt lat="44.083659833665095" lon="10.110704118595585"><ele>175.0</ele><time>2026-05-02T12:59:42.999Z</time></trkpt><trkpt lat="44.08372690789146" lon="10.110659960939813"><ele>175.0</ele><time>2026-05-02T12:59:43.999Z</time></trkpt><trkpt lat="44.08378334140421" lon="10.110595584275261"><ele>175.0</ele><time>2026-05-02T12:59:44.999Z</time></trkpt><trkpt lat="44.083773424636775" lon="10.110473786794262"><ele>175.0</ele><time>2026-05-02T12:59:45.999Z</time></trkpt><trkpt lat="44.08373224130668" lon="10.110368312046857"><ele>173.8</ele><time>2026-05-02T12:59:46.999Z</time></trkpt><trkpt lat="44.08366418154747" lon="10.110275185509769"><ele>172.6</ele><time>2026-05-02T12:59:47.999Z</time></trkpt><trkpt lat="44.08359979959192" lon="10.110151927907353"><ele>171.39999999999998</ele><time>2026-05-02T12:59:48.999Z</time></trkpt><trkpt lat="44.08352889900927" lon="10.110034820949766"><ele>170.2</ele><time>2026-05-02T12:59:49.999Z</time></trkpt><trkpt lat="44.08346561144524" lon="10.109907408660458"><ele>169.0</ele><time>2026-05-02T12:59:50.999Z</time></trkpt><trkpt lat="44.08342757989975" lon="10.109766222905678"><ele>171.39999999999998</ele><time>2026-05-02T12:59:51.999Z</time></trkpt><trkpt lat="44.08341698523421" lon="10.109618761433486"><ele>173.8</ele><time>2026-05-02T12:59:52.999Z</time></trkpt><trkpt lat="44.08338806878575" lon="10.10948656582128"><ele>176.2</ele><time>2026-05-02T12:59:53.999Z</time></trkpt><trkpt lat="44.083334751093" lon="10.109373646444828"><ele>178.60000000000002</ele><time>2026-05-02T12:59:54.999Z</time></trkpt><trkpt lat="44.08325404964927" lon="10.109291392998692"><ele>181.0</ele><time>2026-05-02T12:59:55.999Z</time></trkpt><trkpt lat="44.083205221256165" lon="10.109195742405277"><ele>177.5</ele><time>2026-05-02T12:59:56.999Z</time></trkpt><trkpt lat="44.083143503686294" lon="10.109148444428865"><ele>174.0</ele><time>2026-05-02T12:59:57.999Z</time></trkpt><trkpt lat="44.0830763900628" lon="10.10906999628554"><ele>170.5</ele><time>2026-05-02T12:59:59.999Z</time></trkpt><trkpt lat="44.083023058211865" lon="10.109010044019879"><ele>167.0</ele><time>2026-05-02T13:00:01.999Z</time></trkpt><trkpt lat="44.082939308096016" lon="10.108930121088656"><ele>163.5</ele><time>2026-05-02T13:00:04.999Z</time></trkpt><trkpt lat="44.08285332383962" lon="10.10884853026385"><ele>160.0</ele><time>2026-05-02T13:00:06.999Z</time></trkpt><trkpt lat="44.08279859557846" lon="10.108787936832119"><ele>160.0</ele><time>2026-05-02T13:00:07.999Z</time></trkpt><trkpt lat="44.08273634219535" lon="10.108720793156737"><ele>160.0</ele><time>2026-05-02T13:00:08.999Z</time></trkpt><trkpt lat="44.08266953078652" lon="10.108648026038031"><ele>160.0</ele><time>2026-05-02T13:00:09.998Z</time></trkpt><trkpt lat="44.08260267408817" lon="10.108565097958532"><ele>160.0</ele><time>2026-05-02T13:00:10.998Z</time></trkpt><trkpt lat="44.082543543383814" lon="10.108478291977073"><ele>160.0</ele><time>2026-05-02T13:00:11.998Z</time></trkpt><trkpt lat="44.0825053563807" lon="10.108375193592307"><ele>160.0</ele><time>2026-05-02T13:00:12.998Z</time></trkpt><trkpt lat="44.08246208280016" lon="10.108276685752768"><ele>156.5</ele><time>2026-05-02T13:00:13.998Z</time></trkpt><trkpt lat="44.082421581933104" lon="10.108176148152316"><ele>153.0</ele><time>2026-05-02T13:00:14.998Z</time></trkpt><trkpt lat="44.08238582691199" lon="10.108074290964558"><ele>149.5</ele><time>2026-05-02T13:00:15.998Z</time></trkpt><trkpt lat="44.08235682099276" lon="10.107971860477463"><ele>146.0</ele><time>2026-05-02T13:00:16.998Z</time></trkpt><trkpt lat="44.08233622023257" lon="10.107867914639513"><ele>142.5</ele><time>2026-05-02T13:00:17.998Z</time></trkpt><trkpt lat="44.0823270389662" lon="10.107756533856753"><ele>139.0</ele><time>2026-05-02T13:00:18.998Z</time></trkpt><trkpt lat="44.08231526244134" lon="10.107625732741989"><ele>139.0</ele><time>2026-05-02T13:00:20.001Z</time></trkpt><trkpt lat="44.082358210556585" lon="10.107492999937225"><ele>139.0</ele><time>2026-05-02T13:00:21.001Z</time></trkpt><trkpt lat="44.082388947268846" lon="10.107356022540658"><ele>139.0</ele><time>2026-05-02T13:00:22.001Z</time></trkpt><trkpt lat="44.08241955478852" lon="10.10722474278752"><ele>139.0</ele><time>2026-05-02T13:00:23.001Z</time></trkpt><trkpt lat="44.08244948345472" lon="10.107099776524208"><ele>139.0</ele><time>2026-05-02T13:00:24.001Z</time></trkpt><trkpt lat="44.082468759892166" lon="10.106974107664252"><ele>138.4</ele><time>2026-05-02T13:00:25.001Z</time></trkpt><trkpt lat="44.08250258478512" lon="10.10685615548783"><ele>137.8</ele><time>2026-05-02T13:00:26.001Z</time></trkpt><trkpt lat="44.08254074101797" lon="10.106735624375418"><ele>137.2</ele><time>2026-05-02T13:00:27.001Z</time></trkpt><trkpt lat="44.08258800408947" lon="10.106612947545504"><ele>136.6</ele><time>2026-05-02T13:00:28.001Z</time></trkpt><trkpt lat="44.08264951301416" lon="10.10649944471832"><ele>136.0</ele><time>2026-05-02T13:00:29.001Z</time></trkpt><trkpt lat="44.082715698266824" lon="10.10638460107674"><ele>134.0</ele><time>2026-05-02T13:00:30.001Z</time></trkpt><trkpt lat="44.08277846319325" lon="10.106264100083168"><ele>132.0</ele><time>2026-05-02T13:00:31.001Z</time></trkpt><trkpt lat="44.082830034527184" lon="10.106134088770602"><ele>130.0</ele><time>2026-05-02T13:00:32.001Z</time></trkpt><trkpt lat="44.08287014100895" lon="10.106005210990647"><ele>128.0</ele><time>2026-05-02T13:00:33.001Z</time></trkpt><trkpt lat="44.08289633744274" lon="10.105877176894039"><ele>126.0</ele><time>2026-05-02T13:00:34.001Z</time></trkpt><trkpt lat="44.08291404719473" lon="10.105756126052189"><ele>125.33333333333333</ele><time>2026-05-02T13:00:35.001Z</time></trkpt><trkpt lat="44.08292721511817" lon="10.10564276621065"><ele>124.66666666666666</ele><time>2026-05-02T13:00:36.001Z</time></trkpt><trkpt lat="44.082937534542005" lon="10.105529631019824"><ele>124.0</ele><time>2026-05-02T13:00:37Z</time></trkpt><trkpt lat="44.082944356727005" lon="10.105427799976411"><ele>123.33333333333333</ele><time>2026-05-02T13:00:38Z</time></trkpt><trkpt lat="44.08295071188495" lon="10.105338425235958"><ele>122.66666666666666</ele><time>2026-05-02T13:00:39Z</time></trkpt><trkpt lat="44.082957816649106" lon="10.105201341398866"><ele>122.0</ele><time>2026-05-02T13:00:41Z</time></trkpt><trkpt lat="44.0829314036225" lon="10.105087309211353"><ele>121.99999999999999</ele><time>2026-05-02T13:00:43Z</time></trkpt><trkpt lat="44.08283053115595" lon="10.105091198230944"><ele>122.0</ele><time>2026-05-02T13:00:45Z</time></trkpt><trkpt lat="44.08279780520532" lon="10.10517226045215"><ele>122.0</ele><time>2026-05-02T13:00:46Z</time></trkpt><trkpt lat="44.0827907937897" lon="10.105264312009188"><ele>122.0</ele><time>2026-05-02T13:00:47Z</time></trkpt><trkpt lat="44.0827825136718" lon="10.105360914437023"><ele>121.99999999999999</ele><time>2026-05-02T13:00:48Z</time></trkpt><trkpt lat="44.08277124711916" lon="10.105466917003623"><ele>122.0</ele><time>2026-05-02T13:00:49Z</time></trkpt><trkpt lat="44.082756337820165" lon="10.105576801391893"><ele>121.99999999999999</ele><time>2026-05-02T13:00:50Z</time></trkpt><trkpt lat="44.082738061670476" lon="10.10568691477972"><ele>122.0</ele><time>2026-05-02T13:00:51Z</time></trkpt><trkpt lat="44.08272165690792" lon="10.105799646814338"><ele>122.0</ele><time>2026-05-02T13:00:52Z</time></trkpt><trkpt lat="44.08270518901819" lon="10.10590993173249"><ele>122.0</ele><time>2026-05-02T13:00:53Z</time></trkpt><trkpt lat="44.08267626648308" lon="10.106012554110144"><ele>121.99999999999999</ele><time>2026-05-02T13:00:54Z</time></trkpt><trkpt lat="44.082632516284086" lon="10.106107037615526"><ele>122.0</ele><time>2026-05-02T13:00:55Z</time></trkpt><trkpt lat="44.08257311438669" lon="10.106182830889109"><ele>122.66666666666666</ele><time>2026-05-02T13:00:56Z</time></trkpt><trkpt lat="44.08250602755051" lon="10.106244272478762"><ele>123.33333333333333</ele><time>2026-05-02T13:00:57Z</time></trkpt><trkpt lat="44.0824384815824" lon="10.106310670224635"><ele>124.0</ele><time>2026-05-02T13:00:58Z</time></trkpt><trkpt lat="44.08238078611774" lon="10.106398111118382"><ele>124.66666666666666</ele><time>2026-05-02T13:00:59Z</time></trkpt><trkpt lat="44.08233628785112" lon="10.106494615796226"><ele>125.33333333333333</ele><time>2026-05-02T13:01:00Z</time></trkpt><trkpt lat="44.082298075825605" lon="10.106592806486042"><ele>126.0</ele><time>2026-05-02T13:01:01Z</time></trkpt><trkpt lat="44.08225874252871" lon="10.106692467510127"><ele>127.0</ele><time>2026-05-02T13:01:02Z</time></trkpt><trkpt lat="44.082217747907485" lon="10.106791136921194"><ele>128.0</ele><time>2026-05-02T13:01:03Z</time></trkpt><trkpt lat="44.08217869277892" lon="10.10688834486903"><ele>129.0</ele><time>2026-05-02T13:01:04Z</time></trkpt><trkpt lat="44.082144099725994" lon="10.106975125124542"><ele>130.0</ele><time>2026-05-02T13:01:05Z</time></trkpt><trkpt lat="44.08211320477033" lon="10.1070520239139"><ele>131.0</ele><time>2026-05-02T13:01:06Z</time></trkpt><trkpt lat="44.08206022127735" lon="10.107185734934296"><ele>132.0</ele><time>2026-05-02T13:01:08Z</time></trkpt><trkpt lat="44.08202226508096" lon="10.107294217960346"><ele>132.0</ele><time>2026-05-02T13:01:10Z</time></trkpt><trkpt lat="44.0819894212165" lon="10.107379235134662"><ele>132.0</ele><time>2026-05-02T13:01:13Z</time></trkpt><trkpt lat="44.08194820449913" lon="10.10724364290758"><ele>132.0</ele><time>2026-05-02T13:01:20Z</time></trkpt><trkpt lat="44.081980645506086" lon="10.1071555012521"><ele>132.0</ele><time>2026-05-02T13:01:21Z</time></trkpt><trkpt lat="44.082001305732646" lon="10.10704401100494"><ele>132.0</ele><time>2026-05-02T13:01:22Z</time></trkpt><trkpt lat="44.08202759809667" lon="10.106919347225078"><ele>132.0</ele><time>2026-05-02T13:01:23Z</time></trkpt><trkpt lat="44.082056726709325" lon="10.106774770173265"><ele>132.0</ele><time>2026-05-02T13:01:24Z</time></trkpt><trkpt lat="44.08208481971559" lon="10.106625972118906"><ele>132.0</ele><time>2026-05-02T13:01:25Z</time></trkpt><trkpt lat="44.08212945733702" lon="10.10647911075577"><ele>132.0</ele><time>2026-05-02T13:01:26Z</time></trkpt><trkpt lat="44.08214904870803" lon="10.1063152345319"><ele>132.0</ele><time>2026-05-02T13:01:27Z</time></trkpt><trkpt lat="44.08218960593099" lon="10.106150161340466"><ele>132.75</ele><time>2026-05-02T13:01:28Z</time></trkpt><trkpt lat="44.082224370727324" lon="10.105985393717882"><ele>133.5</ele><time>2026-05-02T13:01:29Z</time></trkpt><trkpt lat="44.08225531567086" lon="10.105817773388484"><ele>134.25</ele><time>2026-05-02T13:01:30Z</time></trkpt><trkpt lat="44.08227809729961" lon="10.105650092267446"><ele>135.0</ele><time>2026-05-02T13:01:31Z</time></trkpt><trkpt lat="44.082295903428694" lon="10.10548061974253"><ele>135.0</ele><time>2026-05-02T13:01:32Z</time></trkpt><trkpt lat="44.08230516532542" lon="10.105315728103056"><ele>135.0</ele><time>2026-05-02T13:01:33Z</time></trkpt><trkpt lat="44.0823248975998" lon="10.105159780318818"><ele>135.0</ele><time>2026-05-02T13:01:33.999Z</time></trkpt><trkpt lat="44.0823525645375" lon="10.105018277301264"><ele>135.0</ele><time>2026-05-02T13:01:34.999Z</time></trkpt><trkpt lat="44.082379521698364" lon="10.104903776294718"><ele>135.0</ele><time>2026-05-02T13:01:35.999Z</time></trkpt><trkpt lat="44.08242543428753" lon="10.104815782354851"><ele>131.0</ele><time>2026-05-02T13:01:36.999Z</time></trkpt><trkpt lat="44.08246259410371" lon="10.104719715874818"><ele>127.0</ele><time>2026-05-02T13:01:37.999Z</time></trkpt><trkpt lat="44.082508736394026" lon="10.104619958276167"><ele>123.0</ele><time>2026-05-02T13:01:38.999Z</time></trkpt><trkpt lat="44.08255450289969" lon="10.104488283059439"><ele>119.0</ele><time>2026-05-02T13:01:39.999Z</time></trkpt><trkpt lat="44.08262056770132" lon="10.104355332284632"><ele>115.0</ele><time>2026-05-02T13:01:40.999Z</time></trkpt><trkpt lat="44.082660916832864" lon="10.10419662150829"><ele>113.4</ele><time>2026-05-02T13:01:41.999Z</time></trkpt><trkpt lat="44.08268260960385" lon="10.10402816111164"><ele>111.8</ele><time>2026-05-02T13:01:42.999Z</time></trkpt><trkpt lat="44.08268837364434" lon="10.103869158467665"><ele>110.19999999999999</ele><time>2026-05-02T13:01:43.999Z</time></trkpt><trkpt lat="44.08269671053138" lon="10.103733022603787"><ele>108.6</ele><time>2026-05-02T13:01:44.999Z</time></trkpt><trkpt lat="44.08270015150549" lon="10.103621172386019"><ele>107.0</ele><time>2026-05-02T13:01:45.999Z</time></trkpt><trkpt lat="44.08268233541965" lon="10.103531419481344"><ele>107.0</ele><time>2026-05-02T13:01:46.999Z</time></trkpt><trkpt lat="44.08263476834805" lon="10.103460160704168"><ele>106.99999999999999</ele><time>2026-05-02T13:01:47.999Z</time></trkpt><trkpt lat="44.0825689661462" lon="10.103391066633714"><ele>106.99999999999999</ele><time>2026-05-02T13:01:48.999Z</time></trkpt><trkpt lat="44.08248666523681" lon="10.10329498882533"><ele>107.0</ele><time>2026-05-02T13:01:49.999Z</time></trkpt><trkpt lat="44.082410791862344" lon="10.103185742138088"><ele>107.0</ele><time>2026-05-02T13:01:50.999Z</time></trkpt><trkpt lat="44.08234291191605" lon="10.10306562648977"><ele>106.6</ele><time>2026-05-02T13:01:51.999Z</time></trkpt><trkpt lat="44.0822754314574" lon="10.10294750059816"><ele>106.19999999999999</ele><time>2026-05-02T13:01:52.999Z</time></trkpt><trkpt lat="44.08220564635854" lon="10.10283990203434"><ele>105.8</ele><time>2026-05-02T13:01:53.999Z</time></trkpt><trkpt lat="44.08213120875033" lon="10.102736290583946"><ele>105.4</ele><time>2026-05-02T13:01:54.999Z</time></trkpt><trkpt lat="44.082053496443756" lon="10.102635691671098"><ele>105.0</ele><time>2026-05-02T13:01:55.999Z</time></trkpt><trkpt lat="44.08197363252831" lon="10.102526571486331"><ele>106.5</ele><time>2026-05-02T13:01:56.999Z</time></trkpt><trkpt lat="44.0818943589733" lon="10.102411494067502"><ele>108.0</ele><time>2026-05-02T13:01:57.999Z</time></trkpt><trkpt lat="44.0818111188387" lon="10.102304971896322"><ele>109.5</ele><time>2026-05-02T13:01:58.999Z</time></trkpt><trkpt lat="44.08172321480143" lon="10.102191976192318"><ele>111.0</ele><time>2026-05-02T13:01:59.999Z</time></trkpt><trkpt lat="44.08164787329053" lon="10.1020755936356"><ele>109.8</ele><time>2026-05-02T13:02:00.999Z</time></trkpt><trkpt lat="44.081570448169394" lon="10.10196217073534"><ele>108.6</ele><time>2026-05-02T13:02:01.999Z</time></trkpt><trkpt lat="44.08149330710222" lon="10.101852545384318"><ele>107.4</ele><time>2026-05-02T13:02:02.999Z</time></trkpt><trkpt lat="44.081414494794" lon="10.10175162120029"><ele>106.2</ele><time>2026-05-02T13:02:03.999Z</time></trkpt><trkpt lat="44.08133156177652" lon="10.10166590838579"><ele>105.0</ele><time>2026-05-02T13:02:04.999Z</time></trkpt><trkpt lat="44.08125083988647" lon="10.101583940332008"><ele>104.2</ele><time>2026-05-02T13:02:05.999Z</time></trkpt><trkpt lat="44.08117581567522" lon="10.10149968239657"><ele>103.4</ele><time>2026-05-02T13:02:06.999Z</time></trkpt><trkpt lat="44.081105678494254" lon="10.10141028677107"><ele>102.6</ele><time>2026-05-02T13:02:07.999Z</time></trkpt><trkpt lat="44.08104034552735" lon="10.101318045929975"><ele>101.8</ele><time>2026-05-02T13:02:08.999Z</time></trkpt><trkpt lat="44.08097678391407" lon="10.101223591204647"><ele>101.0</ele><time>2026-05-02T13:02:09.999Z</time></trkpt><trkpt lat="44.080911919321494" lon="10.101135215523003"><ele>100.99999999999999</ele><time>2026-05-02T13:02:10.999Z</time></trkpt><trkpt lat="44.080845386102055" lon="10.101055140093633"><ele>101.0</ele><time>2026-05-02T13:02:11.999Z</time></trkpt><trkpt lat="44.08077084459819" lon="10.100972057757929"><ele>101.0</ele><time>2026-05-02T13:02:12.999Z</time></trkpt><trkpt lat="44.080699543418596" lon="10.100893324939227"><ele>101.0</ele><time>2026-05-02T13:02:13.999Z</time></trkpt><trkpt lat="44.080639303526084" lon="10.100799685338643"><ele>100.99999999999999</ele><time>2026-05-02T13:02:14.999Z</time></trkpt><trkpt lat="44.08059928914227" lon="10.100710317726477"><ele>101.0</ele><time>2026-05-02T13:02:15.999Z</time></trkpt><trkpt lat="44.080565705814166" lon="10.100615711581124"><ele>101.49999999999999</ele><time>2026-05-02T13:02:16.999Z</time></trkpt><trkpt lat="44.080544678756404" lon="10.1005120389628"><ele>102.0</ele><time>2026-05-02T13:02:17.999Z</time></trkpt><trkpt lat="44.08053350858383" lon="10.100390586859833"><ele>102.5</ele><time>2026-05-02T13:02:18.999Z</time></trkpt><trkpt lat="44.08051764333094" lon="10.100273651845676"><ele>103.0</ele><time>2026-05-02T13:02:19.999Z</time></trkpt><trkpt lat="44.080509706713165" lon="10.100153530118131"><ele>103.49999999999999</ele><time>2026-05-02T13:02:20.999Z</time></trkpt><trkpt lat="44.08050182860171" lon="10.10002378770787"><ele>104.0</ele><time>2026-05-02T13:02:21.999Z</time></trkpt><trkpt lat="44.08049564514656" lon="10.099898980769224"><ele>104.0</ele><time>2026-05-02T13:02:22.999Z</time></trkpt><trkpt lat="44.08049102878201" lon="10.099772897268707"><ele>104.0</ele><time>2026-05-02T13:02:23.999Z</time></trkpt><trkpt lat="44.080484056658726" lon="10.099642567565779"><ele>104.0</ele><time>2026-05-02T13:02:24.999Z</time></trkpt><trkpt lat="44.08046560671024" lon="10.099492049043587"><ele>104.0</ele><time>2026-05-02T13:02:26.001Z</time></trkpt><trkpt lat="44.08046231041623" lon="10.099341693038149"><ele>104.0</ele><time>2026-05-02T13:02:27.001Z</time></trkpt><trkpt lat="44.080452428877614" lon="10.099168358346434"><ele>103.33333333333333</ele><time>2026-05-02T13:02:28.001Z</time></trkpt><trkpt lat="44.08043618710343" lon="10.09903263077992"><ele>102.66666666666666</ele><time>2026-05-02T13:02:29.001Z</time></trkpt><trkpt lat="44.08042322251989" lon="10.09891520632745"><ele>102.0</ele><time>2026-05-02T13:02:30.001Z</time></trkpt><trkpt lat="44.0804084291039" lon="10.09880175386054"><ele>101.33333333333334</ele><time>2026-05-02T13:02:31.001Z</time></trkpt><trkpt lat="44.08039819808041" lon="10.098690136957826"><ele>100.66666666666667</ele><time>2026-05-02T13:02:32.001Z</time></trkpt><trkpt lat="44.08038961245406" lon="10.098583226621091"><ele>100.0</ele><time>2026-05-02T13:02:33.001Z</time></trkpt><trkpt lat="44.08038375931372" lon="10.098479158039098"><ele>100.00000000000001</ele><time>2026-05-02T13:02:34.001Z</time></trkpt><trkpt lat="44.080379019553746" lon="10.098376880339185"><ele>100.0</ele><time>2026-05-02T13:02:35.001Z</time></trkpt><trkpt lat="44.08037521376961" lon="10.098273161565741"><ele>100.0</ele><time>2026-05-02T13:02:36.001Z</time></trkpt><trkpt lat="44.08036839585453" lon="10.098166675409397"><ele>100.0</ele><time>2026-05-02T13:02:37.001Z</time></trkpt><trkpt lat="44.080361168478326" lon="10.098058500910929"><ele>100.00000000000001</ele><time>2026-05-02T13:02:38.001Z</time></trkpt><trkpt lat="44.08035248989053" lon="10.097950871146503"><ele>100.0</ele><time>2026-05-02T13:02:39.001Z</time></trkpt><trkpt lat="44.08034436192679" lon="10.097843257107582"><ele>100.00000000000001</ele><time>2026-05-02T13:02:40.001Z</time></trkpt><trkpt lat="44.08033836475789" lon="10.097741199697605"><ele>100.0</ele><time>2026-05-02T13:02:41.001Z</time></trkpt><trkpt lat="44.08032998429789" lon="10.097642707816732"><ele>100.0</ele><time>2026-05-02T13:02:42.001Z</time></trkpt><trkpt lat="44.080316776414136" lon="10.097553492180243"><ele>100.0</ele><time>2026-05-02T13:02:43.001Z</time></trkpt><trkpt lat="44.080305032069504" lon="10.097466617369708"><ele>100.00000000000001</ele><time>2026-05-02T13:02:44.001Z</time></trkpt><trkpt lat="44.08027942726544" lon="10.09730032951034"><ele>100.0</ele><time>2026-05-02T13:02:46.001Z</time></trkpt><trkpt lat="44.08025710061091" lon="10.097217219370057"><ele>99.33333333333334</ele><time>2026-05-02T13:02:47.001Z</time></trkpt><trkpt lat="44.08023109859827" lon="10.09712487175573"><ele>98.66666666666667</ele><time>2026-05-02T13:02:48.001Z</time></trkpt><trkpt lat="44.08020982001369" lon="10.097031328864428"><ele>98.0</ele><time>2026-05-02T13:02:49.001Z</time></trkpt><trkpt lat="44.08019362554771" lon="10.096931112893257"><ele>97.33333333333334</ele><time>2026-05-02T13:02:50.001Z</time></trkpt><trkpt lat="44.08017485665161" lon="10.096828535481942"><ele>96.66666666666667</ele><time>2026-05-02T13:02:51.001Z</time></trkpt><trkpt lat="44.08015084043742" lon="10.096723812423205"><ele>96.0</ele><time>2026-05-02T13:02:52.001Z</time></trkpt><trkpt lat="44.0801258991334" lon="10.096613311223242"><ele>95.0</ele><time>2026-05-02T13:02:53.001Z</time></trkpt><trkpt lat="44.08010293653314" lon="10.096503698420271"><ele>94.0</ele><time>2026-05-02T13:02:54.001Z</time></trkpt><trkpt lat="44.08009056815977" lon="10.096399869200166"><ele>93.0</ele><time>2026-05-02T13:02:55.001Z</time></trkpt><trkpt lat="44.08009311069665" lon="10.096310734896107"><ele>92.0</ele><time>2026-05-02T13:02:56Z</time></trkpt><trkpt lat="44.08007380435345" lon="10.096201129071304"><ele>91.0</ele><time>2026-05-02T13:02:59Z</time></trkpt><trkpt lat="44.08025889331338" lon="10.096152347128491"><ele>91.0</ele><time>2026-05-02T13:03:01Z</time></trkpt><trkpt lat="44.0803348003234" lon="10.096159649315622"><ele>91.0</ele><time>2026-05-02T13:03:02Z</time></trkpt><trkpt lat="44.080417122280686" lon="10.096160938177759"><ele>91.0</ele><time>2026-05-02T13:03:03Z</time></trkpt><trkpt lat="44.08050297477754" lon="10.096165393262668"><ele>91.0</ele><time>2026-05-02T13:03:04Z</time></trkpt><trkpt lat="44.08058934303019" lon="10.096165449049824"><ele>91.0</ele><time>2026-05-02T13:03:05Z</time></trkpt><trkpt lat="44.080668847178664" lon="10.096161539697324"><ele>91.0</ele><time>2026-05-02T13:03:06Z</time></trkpt><trkpt lat="44.0807520615186" lon="10.096163612906624"><ele>92.19999999999999</ele><time>2026-05-02T13:03:07Z</time></trkpt><trkpt lat="44.08082937716694" lon="10.096217455577827"><ele>93.39999999999999</ele><time>2026-05-02T13:03:08Z</time></trkpt><trkpt lat="44.08087889791509" lon="10.096313011865135"><ele>94.6</ele><time>2026-05-02T13:03:09Z</time></trkpt><trkpt lat="44.08093680830103" lon="10.096408298507397"><ele>95.8</ele><time>2026-05-02T13:03:10Z</time></trkpt><trkpt lat="44.08100585625158" lon="10.096507714164144"><ele>97.0</ele><time>2026-05-02T13:03:11Z</time></trkpt><trkpt lat="44.08107790804815" lon="10.096616633474245"><ele>98.6</ele><time>2026-05-02T13:03:12Z</time></trkpt><trkpt lat="44.081147786623234" lon="10.096730965334094"><ele>100.19999999999999</ele><time>2026-05-02T13:03:13Z</time></trkpt><trkpt lat="44.08120561784866" lon="10.096832953050427"><ele>101.8</ele><time>2026-05-02T13:03:14Z</time></trkpt><trkpt lat="44.0812461331633" lon="10.096917094599723"><ele>103.4</ele><time>2026-05-02T13:03:15Z</time></trkpt><trkpt lat="44.081290222675044" lon="10.09698879677932"><ele>105.0</ele><time>2026-05-02T13:03:17Z</time></trkpt><trkpt lat="44.08131275025649" lon="10.097152440977753"><ele>105.0</ele><time>2026-05-02T13:03:20Z</time></trkpt><trkpt lat="44.08132530789379" lon="10.097280010444752"><ele>105.0</ele><time>2026-05-02T13:03:22Z</time></trkpt><trkpt lat="44.081468071550034" lon="10.097291442423844"><ele>105.0</ele><time>2026-05-02T13:03:23Z</time></trkpt><trkpt lat="44.08156133740193" lon="10.097292180744429"><ele>105.0</ele><time>2026-05-02T13:03:24Z</time></trkpt><trkpt lat="44.08166438491812" lon="10.0972856356488"><ele>105.0</ele><time>2026-05-02T13:03:25Z</time></trkpt><trkpt lat="44.08176766423281" lon="10.097264547674548"><ele>105.25</ele><time>2026-05-02T13:03:26Z</time></trkpt><trkpt lat="44.081883968549185" lon="10.09722316277274"><ele>105.5</ele><time>2026-05-02T13:03:27Z</time></trkpt><trkpt lat="44.08200784144077" lon="10.097170995973915"><ele>105.75</ele><time>2026-05-02T13:03:28Z</time></trkpt><trkpt lat="44.08213544802313" lon="10.097112000551496"><ele>106.0</ele><time>2026-05-02T13:03:29Z</time></trkpt><trkpt lat="44.082264570716596" lon="10.097064229790552"><ele>106.0</ele><time>2026-05-02T13:03:30Z</time></trkpt><trkpt lat="44.08240477247636" lon="10.097035253708617"><ele>106.0</ele><time>2026-05-02T13:03:31Z</time></trkpt><trkpt lat="44.082548709971725" lon="10.097020829064785"><ele>106.0</ele><time>2026-05-02T13:03:32Z</time></trkpt><trkpt lat="44.082698403664814" lon="10.096999424608152"><ele>106.0</ele><time>2026-05-02T13:03:33Z</time></trkpt><trkpt lat="44.08285031106437" lon="10.096972429970029"><ele>105.66666666666667</ele><time>2026-05-02T13:03:34Z</time></trkpt><trkpt lat="44.08299869214382" lon="10.096950132495888"><ele>105.33333333333334</ele><time>2026-05-02T13:03:35Z</time></trkpt><trkpt lat="44.08315027368162" lon="10.096967666624456"><ele>105.0</ele><time>2026-05-02T13:03:36Z</time></trkpt><trkpt lat="44.083306689880565" lon="10.0969924085704"><ele>108.66666666666666</ele><time>2026-05-02T13:03:37Z</time></trkpt><trkpt lat="44.08347781987815" lon="10.097004378989404"><ele>112.33333333333333</ele><time>2026-05-02T13:03:38Z</time></trkpt><trkpt lat="44.08364617552859" lon="10.09702568089378"><ele>116.0</ele><time>2026-05-02T13:03:39Z</time></trkpt><trkpt lat="44.08378996243232" lon="10.097019401364461"><ele>116.0</ele><time>2026-05-02T13:03:40Z</time></trkpt><trkpt lat="44.0839153469966" lon="10.097046430150156"><ele>116.0</ele><time>2026-05-02T13:03:41Z</time></trkpt><trkpt lat="44.08403596532788" lon="10.097034226458499"><ele>116.0</ele><time>2026-05-02T13:03:42Z</time></trkpt><trkpt lat="44.08415613627078" lon="10.09700838270502"><ele>116.0</ele><time>2026-05-02T13:03:43Z</time></trkpt><trkpt lat="44.08427470433558" lon="10.09690457041547"><ele>117.75</ele><time>2026-05-02T13:03:44Z</time></trkpt><trkpt lat="44.08439083805724" lon="10.096786186733565"><ele>119.5</ele><time>2026-05-02T13:03:45Z</time></trkpt><trkpt lat="44.08452435351107" lon="10.09672984094751"><ele>121.25</ele><time>2026-05-02T13:03:46Z</time></trkpt><trkpt lat="44.08465351132467" lon="10.09667822235484"><ele>123.0</ele><time>2026-05-02T13:03:47Z</time></trkpt><trkpt lat="44.08480715853199" lon="10.096626901513492"><ele>123.0</ele><time>2026-05-02T13:03:48Z</time></trkpt><trkpt lat="44.08496423089334" lon="10.096578711652255"><ele>123.0</ele><time>2026-05-02T13:03:49Z</time></trkpt><trkpt lat="44.085119228822705" lon="10.096509771169684"><ele>123.0</ele><time>2026-05-02T13:03:50Z</time></trkpt><trkpt lat="44.0852677501354" lon="10.096476338883296"><ele>123.0</ele><time>2026-05-02T13:03:51Z</time></trkpt><trkpt lat="44.085422178692845" lon="10.09649141859998"><ele>123.0</ele><time>2026-05-02T13:03:51.999Z</time></trkpt><trkpt lat="44.08558154128988" lon="10.096470990412463"><ele>123.0</ele><time>2026-05-02T13:03:52.999Z</time></trkpt><trkpt lat="44.08574042879262" lon="10.096471543815365"><ele>123.33333333333334</ele><time>2026-05-02T13:03:53.999Z</time></trkpt><trkpt lat="44.0859013917131" lon="10.09646356847632"><ele>123.66666666666667</ele><time>2026-05-02T13:03:54.999Z</time></trkpt><trkpt lat="44.08606690953725" lon="10.096439041259233"><ele>124.0</ele><time>2026-05-02T13:03:55.999Z</time></trkpt><trkpt lat="44.08623624643943" lon="10.096403510457911"><ele>124.0</ele><time>2026-05-02T13:03:56.999Z</time></trkpt><trkpt lat="44.08640250779517" lon="10.096389426001378"><ele>124.0</ele><time>2026-05-02T13:03:57.999Z</time></trkpt><trkpt lat="44.08655476481836" lon="10.096359204092556"><ele>124.0</ele><time>2026-05-02T13:03:58.999Z</time></trkpt><trkpt lat="44.08670149076145" lon="10.09634934091279"><ele>126.33333333333334</ele><time>2026-05-02T13:03:59.999Z</time></trkpt><trkpt lat="44.08685098386258" lon="10.096346977942307"><ele>128.66666666666666</ele><time>2026-05-02T13:04:00.999Z</time></trkpt><trkpt lat="44.08700474148782" lon="10.096335288839239"><ele>131.0</ele><time>2026-05-02T13:04:01.999Z</time></trkpt><trkpt lat="44.08716217653614" lon="10.096349766065108"><ele>131.0</ele><time>2026-05-02T13:04:02.999Z</time></trkpt><trkpt lat="44.0873166324368" lon="10.096343254080264"><ele>131.0</ele><time>2026-05-02T13:04:03.999Z</time></trkpt><trkpt lat="44.08747331056041" lon="10.09631319422072"><ele>131.0</ele><time>2026-05-02T13:04:04.999Z</time></trkpt><trkpt lat="44.087627665026325" lon="10.096280238262406"><ele>134.0</ele><time>2026-05-02T13:04:05.999Z</time></trkpt><trkpt lat="44.087780752697014" lon="10.096225842616898"><ele>137.0</ele><time>2026-05-02T13:04:06.999Z</time></trkpt><trkpt lat="44.08793699430795" lon="10.096169750612107"><ele>140.0</ele><time>2026-05-02T13:04:07.999Z</time></trkpt><trkpt lat="44.08809046008352" lon="10.096121058438701"><ele>140.0</ele><time>2026-05-02T13:04:08.999Z</time></trkpt><trkpt lat="44.08824605239337" lon="10.096082087109652"><ele>140.0</ele><time>2026-05-02T13:04:09.999Z</time></trkpt><trkpt lat="44.088384793306716" lon="10.096112903266965"><ele>140.0</ele><time>2026-05-02T13:04:10.999Z</time></trkpt><trkpt lat="44.08850904988655" lon="10.096098998794615"><ele>140.0</ele><time>2026-05-02T13:04:11.999Z</time></trkpt><trkpt lat="44.08862467280497" lon="10.096083600834747"><ele>141.0</ele><time>2026-05-02T13:04:12.999Z</time></trkpt><trkpt lat="44.08874773641088" lon="10.095986670958167"><ele>142.0</ele><time>2026-05-02T13:04:13.999Z</time></trkpt><trkpt lat="44.08886958742525" lon="10.095855477095874"><ele>143.0</ele><time>2026-05-02T13:04:14.999Z</time></trkpt><trkpt lat="44.08898035478823" lon="10.09572618444604"><ele>144.0</ele><time>2026-05-02T13:04:15.999Z</time></trkpt><trkpt lat="44.089076579203606" lon="10.095614845777982"><ele>144.75</ele><time>2026-05-02T13:04:16.999Z</time></trkpt><trkpt lat="44.0891645016042" lon="10.095559747846087"><ele>145.5</ele><time>2026-05-02T13:04:17.999Z</time></trkpt><trkpt lat="44.089294830913865" lon="10.095569398044889"><ele>146.25</ele><time>2026-05-02T13:04:18.999Z</time></trkpt><trkpt lat="44.089437003910895" lon="10.095586704673831"><ele>147.0</ele><time>2026-05-02T13:04:19.999Z</time></trkpt><trkpt lat="44.089595429944396" lon="10.0955725641873"><ele>147.0</ele><time>2026-05-02T13:04:20.999Z</time></trkpt><trkpt lat="44.089761952969916" lon="10.095546332478209"><ele>147.0</ele><time>2026-05-02T13:04:21.999Z</time></trkpt><trkpt lat="44.089926171747166" lon="10.095471325607974"><ele>147.0</ele><time>2026-05-02T13:04:22.999Z</time></trkpt><trkpt lat="44.09008637609538" lon="10.095415058681933"><ele>149.5</ele><time>2026-05-02T13:04:23.999Z</time></trkpt><trkpt lat="44.09021929339114" lon="10.095335132338587"><ele>152.0</ele><time>2026-05-02T13:04:24.999Z</time></trkpt><trkpt lat="44.09034369505864" lon="10.095282660237833"><ele>154.5</ele><time>2026-05-02T13:04:25.999Z</time></trkpt><trkpt lat="44.09045743245711" lon="10.095227413166768"><ele>157.0</ele><time>2026-05-02T13:04:26.999Z</time></trkpt><trkpt lat="44.090572663022286" lon="10.095172761329989"><ele>157.0</ele><time>2026-05-02T13:04:27.999Z</time></trkpt><trkpt lat="44.09066060627792" lon="10.09511630342218"><ele>157.0</ele><time>2026-05-02T13:04:28.999Z</time></trkpt><trkpt lat="44.09073621603205" lon="10.09507524681925"><ele>157.0</ele><time>2026-05-02T13:04:29.999Z</time></trkpt><trkpt lat="44.090803786609754" lon="10.095039715547959"><ele>157.0</ele><time>2026-05-02T13:04:30.999Z</time></trkpt><trkpt lat="44.09086918065173" lon="10.094979554745326"><ele>157.0</ele><time>2026-05-02T13:04:32.001Z</time></trkpt><trkpt lat="44.09094190848316" lon="10.094939544855913"><ele>157.0</ele><time>2026-05-02T13:04:33.001Z</time></trkpt><trkpt lat="44.091001664601976" lon="10.094879455482829"><ele>159.66666666666669</ele><time>2026-05-02T13:04:34.001Z</time></trkpt><trkpt lat="44.09106265263379" lon="10.094807155561814"><ele>162.33333333333334</ele><time>2026-05-02T13:04:35.001Z</time></trkpt><trkpt lat="44.09112646793784" lon="10.094724584209724"><ele>165.0</ele><time>2026-05-02T13:04:36.001Z</time></trkpt><trkpt lat="44.09119079143912" lon="10.094631684106718"><ele>167.66666666666666</ele><time>2026-05-02T13:04:37.001Z</time></trkpt><trkpt lat="44.091252772613664" lon="10.09454280412744"><ele>170.33333333333331</ele><time>2026-05-02T13:04:38.001Z</time></trkpt><trkpt lat="44.0913087432163" lon="10.094442784626544"><ele>173.0</ele><time>2026-05-02T13:04:39.001Z</time></trkpt><trkpt lat="44.091388718917095" lon="10.09436560719802"><ele>173.0</ele><time>2026-05-02T13:04:40.001Z</time></trkpt><trkpt lat="44.09147267169801" lon="10.094286383207374"><ele>173.0</ele><time>2026-05-02T13:04:41.001Z</time></trkpt><trkpt lat="44.09156170120471" lon="10.0942075371321"><ele>173.0</ele><time>2026-05-02T13:04:42.001Z</time></trkpt><trkpt lat="44.09165427608441" lon="10.094121827927012"><ele>173.0</ele><time>2026-05-02T13:04:43.001Z</time></trkpt><trkpt lat="44.0917532967111" lon="10.094043432753985"><ele>173.0</ele><time>2026-05-02T13:04:44.001Z</time></trkpt><trkpt lat="44.09185241045677" lon="10.093964703640827"><ele>171.0</ele><time>2026-05-02T13:04:45.001Z</time></trkpt><trkpt lat="44.09194934379135" lon="10.093882275121201"><ele>169.0</ele><time>2026-05-02T13:04:46.001Z</time></trkpt><trkpt lat="44.09204065102812" lon="10.093809363736888"><ele>167.0</ele><time>2026-05-02T13:04:47.001Z</time></trkpt><trkpt lat="44.092123705507085" lon="10.093751558866332"><ele>165.0</ele><time>2026-05-02T13:04:48.001Z</time></trkpt><trkpt lat="44.09218750268973" lon="10.093691876027096"><ele>163.0</ele><time>2026-05-02T13:04:49.001Z</time></trkpt><trkpt lat="44.09224707474946" lon="10.093645421908512"><ele>163.0</ele><time>2026-05-02T13:04:50.001Z</time></trkpt><trkpt lat="44.09228651698713" lon="10.093575060136999"><ele>163.0</ele><time>2026-05-02T13:04:51.001Z</time></trkpt><trkpt lat="44.09231463988325" lon="10.093486618594156"><ele>163.0</ele><time>2026-05-02T13:04:52.001Z</time></trkpt><trkpt lat="44.092347985167656" lon="10.093391041480578"><ele>163.0</ele><time>2026-05-02T13:04:53.001Z</time></trkpt><trkpt lat="44.09233143679202" lon="10.093265796959148"><ele>163.0</ele><time>2026-05-02T13:04:54.001Z</time></trkpt><trkpt lat="44.0923276165428" lon="10.09314093375427"><ele>163.0</ele><time>2026-05-02T13:04:55.001Z</time></trkpt><trkpt lat="44.092329917832565" lon="10.093009851076413"><ele>163.60000000000002</ele><time>2026-05-02T13:04:56.001Z</time></trkpt><trkpt lat="44.092344745634264" lon="10.092879202675437"><ele>164.20000000000002</ele><time>2026-05-02T13:04:57.001Z</time></trkpt><trkpt lat="44.092370665395514" lon="10.092755599133698"><ele>164.8</ele><time>2026-05-02T13:04:58.001Z</time></trkpt><trkpt lat="44.092408964920985" lon="10.092638744592362"><ele>165.4</ele><time>2026-05-02T13:04:59.001Z</time></trkpt><trkpt lat="44.09245628422367" lon="10.092532893934658"><ele>166.0</ele><time>2026-05-02T13:05:00.001Z</time></trkpt><trkpt lat="44.092517074932665" lon="10.092432064363427"><ele>167.8</ele><time>2026-05-02T13:05:01.001Z</time></trkpt><trkpt lat="44.0925935619326" lon="10.092339585632903"><ele>169.60000000000002</ele><time>2026-05-02T13:05:02.001Z</time></trkpt><trkpt lat="44.09269088445091" lon="10.092275665768286"><ele>171.4</ele><time>2026-05-02T13:05:03.001Z</time></trkpt><trkpt lat="44.092779546316365" lon="10.092179405835715"><ele>173.2</ele><time>2026-05-02T13:05:04.001Z</time></trkpt><trkpt lat="44.092889194356864" lon="10.092117510178285"><ele>175.0</ele><time>2026-05-02T13:05:05.001Z</time></trkpt><trkpt lat="44.0929850590439" lon="10.092025330107145"><ele>175.0</ele><time>2026-05-02T13:05:06Z</time></trkpt><trkpt lat="44.09308428865213" lon="10.091960459586076"><ele>175.0</ele><time>2026-05-02T13:05:07Z</time></trkpt><trkpt lat="44.0931697084363" lon="10.091898148961437"><ele>175.0</ele><time>2026-05-02T13:05:08Z</time></trkpt><trkpt lat="44.09324872497589" lon="10.091839854025277"><ele>175.0</ele><time>2026-05-02T13:05:09Z</time></trkpt><trkpt lat="44.09333786578359" lon="10.091775310106211"><ele>175.0</ele><time>2026-05-02T13:05:10Z</time></trkpt><trkpt lat="44.09343859805699" lon="10.091702236582003"><ele>174.75</ele><time>2026-05-02T13:05:11Z</time></trkpt><trkpt lat="44.09354566581843" lon="10.091631468031146"><ele>174.5</ele><time>2026-05-02T13:05:12Z</time></trkpt><trkpt lat="44.0936614868261" lon="10.091568004463232"><ele>174.25</ele><time>2026-05-02T13:05:13Z</time></trkpt><trkpt lat="44.09378424277996" lon="10.09151112335656"><ele>174.0</ele><time>2026-05-02T13:05:14Z</time></trkpt><trkpt lat="44.09390358299432" lon="10.091462463841317"><ele>175.39999999999998</ele><time>2026-05-02T13:05:15Z</time></trkpt><trkpt lat="44.094013568792505" lon="10.091414704180862"><ele>176.8</ele><time>2026-05-02T13:05:16Z</time></trkpt><trkpt lat="44.094118523148744" lon="10.091365680592723"><ele>178.2</ele><time>2026-05-02T13:05:17Z</time></trkpt><trkpt lat="44.094213041070724" lon="10.091297924622296"><ele>179.60000000000002</ele><time>2026-05-02T13:05:18Z</time></trkpt><trkpt lat="44.09429939529785" lon="10.091212095650297"><ele>181.0</ele><time>2026-05-02T13:05:19Z</time></trkpt><trkpt lat="44.094373120035584" lon="10.091108261257162"><ele>181.0</ele><time>2026-05-02T13:05:20Z</time></trkpt><trkpt lat="44.09444101112463" lon="10.090990272843282"><ele>181.0</ele><time>2026-05-02T13:05:21Z</time></trkpt><trkpt lat="44.09450390629377" lon="10.09089569838939"><ele>181.0</ele><time>2026-05-02T13:05:22Z</time></trkpt><trkpt lat="44.09456751991485" lon="10.090804611828213"><ele>181.0</ele><time>2026-05-02T13:05:23Z</time></trkpt><trkpt lat="44.0946328427594" lon="10.09070734742919"><ele>181.0</ele><time>2026-05-02T13:05:24Z</time></trkpt><trkpt lat="44.09469657017828" lon="10.090602881313638"><ele>181.20000000000002</ele><time>2026-05-02T13:05:25Z</time></trkpt><trkpt lat="44.09475832419445" lon="10.09049762579863"><ele>181.4</ele><time>2026-05-02T13:05:26Z</time></trkpt><trkpt lat="44.09482424129733" lon="10.090397024743721"><ele>181.6</ele><time>2026-05-02T13:05:27Z</time></trkpt><trkpt lat="44.09488925696725" lon="10.090320626910648"><ele>181.8</ele><time>2026-05-02T13:05:28Z</time></trkpt><trkpt lat="44.09496016167274" lon="10.090264925011526"><ele>182.0</ele><time>2026-05-02T13:05:29Z</time></trkpt><trkpt lat="44.09504899127343" lon="10.090262150949137"><ele>182.0</ele><time>2026-05-02T13:05:30Z</time></trkpt><trkpt lat="44.09514578576575" lon="10.090231076411737"><ele>182.0</ele><time>2026-05-02T13:05:31Z</time></trkpt><trkpt lat="44.09523310496299" lon="10.090153499115484"><ele>182.0</ele><time>2026-05-02T13:05:32Z</time></trkpt><trkpt lat="44.095311711634025" lon="10.090071781362726"><ele>182.0</ele><time>2026-05-02T13:05:33Z</time></trkpt><trkpt lat="44.09538219503447" lon="10.089974012881664"><ele>182.0</ele><time>2026-05-02T13:05:34Z</time></trkpt><trkpt lat="44.09545731544426" lon="10.089880028655594"><ele>181.25</ele><time>2026-05-02T13:05:35Z</time></trkpt><trkpt lat="44.095544952304294" lon="10.089799530911092"><ele>180.5</ele><time>2026-05-02T13:05:36Z</time></trkpt><trkpt lat="44.095640545974724" lon="10.089722943343173"><ele>179.75</ele><time>2026-05-02T13:05:37Z</time></trkpt><trkpt lat="44.09574035380609" lon="10.089642064154537"><ele>179.0</ele><time>2026-05-02T13:05:38Z</time></trkpt><trkpt lat="44.09583594948257" lon="10.089543399141416"><ele>179.0</ele><time>2026-05-02T13:05:39Z</time></trkpt><trkpt lat="44.09592378951484" lon="10.089432415707329"><ele>179.0</ele><time>2026-05-02T13:05:40Z</time></trkpt><trkpt lat="44.096013265052" lon="10.089327005836596"><ele>179.0</ele><time>2026-05-02T13:05:41Z</time></trkpt><trkpt lat="44.09611000570318" lon="10.089231082865753"><ele>179.0</ele><time>2026-05-02T13:05:42Z</time></trkpt><trkpt lat="44.096200835741364" lon="10.089147664514922"><ele>180.2</ele><time>2026-05-02T13:05:43Z</time></trkpt><trkpt lat="44.09628392346219" lon="10.08907339452934"><ele>181.39999999999998</ele><time>2026-05-02T13:05:44Z</time></trkpt><trkpt lat="44.09636115024216" lon="10.089006454093608"><ele>182.6</ele><time>2026-05-02T13:05:45Z</time></trkpt><trkpt lat="44.096435681214274" lon="10.088943444050347"><ele>183.8</ele><time>2026-05-02T13:05:46Z</time></trkpt><trkpt lat="44.096519157666016" lon="10.088884622548157"><ele>185.0</ele><time>2026-05-02T13:05:47Z</time></trkpt><trkpt lat="44.096610479394265" lon="10.088828249372503"><ele>185.0</ele><time>2026-05-02T13:05:48Z</time></trkpt><trkpt lat="44.09670206586472" lon="10.08876968221859"><ele>185.0</ele><time>2026-05-02T13:05:49Z</time></trkpt><trkpt lat="44.0967995440408" lon="10.08870920567487"><ele>185.0</ele><time>2026-05-02T13:05:50Z</time></trkpt><trkpt lat="44.09688798262074" lon="10.088649035920431"><ele>185.0</ele><time>2026-05-02T13:05:51Z</time></trkpt><trkpt lat="44.096965105144044" lon="10.088597066647285"><ele>185.0</ele><time>2026-05-02T13:05:52Z</time></trkpt><trkpt lat="44.09703488012606" lon="10.088556130624248"><ele>185.0</ele><time>2026-05-02T13:05:53Z</time></trkpt><trkpt lat="44.097101024504425" lon="10.088519843705612"><ele>185.0</ele><time>2026-05-02T13:05:54Z</time></trkpt><trkpt lat="44.09716885340666" lon="10.088489766305027"><ele>185.0</ele><time>2026-05-02T13:05:54.999Z</time></trkpt><trkpt lat="44.097237282408166" lon="10.088490820286749"><ele>185.0</ele><time>2026-05-02T13:05:55.999Z</time></trkpt><trkpt lat="44.09732418535058" lon="10.088454678655072"><ele>185.0</ele><time>2026-05-02T13:05:57.999Z</time></trkpt><trkpt lat="44.0973999910911" lon="10.088420355300022"><ele>185.0</ele><time>2026-05-02T13:05:59.999Z</time></trkpt><trkpt lat="44.097493691403415" lon="10.088372169059621"><ele>192.5</ele><time>2026-05-02T13:06:01.999Z</time></trkpt><trkpt lat="44.097599809169516" lon="10.088309036812365"><ele>200.0</ele><time>2026-05-02T13:06:03.999Z</time></trkpt><trkpt lat="44.09735690568475" lon="10.087851753721164"><ele>200.4</ele><time>2026-05-02T13:06:05.999Z</time></trkpt><trkpt lat="44.09741027816605" lon="10.087727928663163"><ele>200.8</ele><time>2026-05-02T13:06:07.999Z</time></trkpt><trkpt lat="44.09746961804746" lon="10.08762143846175"><ele>201.2</ele><time>2026-05-02T13:06:09.999Z</time></trkpt><trkpt lat="44.09752499398548" lon="10.087467225446218"><ele>201.6</ele><time>2026-05-02T13:06:11.999Z</time></trkpt><trkpt lat="44.09755717023341" lon="10.0873871327088"><ele>202.0</ele><time>2026-05-02T13:06:12.999Z</time></trkpt><trkpt lat="44.09759323833565" lon="10.087303453687836"><ele>202.66666666666666</ele><time>2026-05-02T13:06:13.999Z</time></trkpt><trkpt lat="44.09766157041158" lon="10.087240703858086"><ele>203.33333333333331</ele><time>2026-05-02T13:06:14.999Z</time></trkpt><trkpt lat="44.097697442471365" lon="10.08715185318156"><ele>204.0</ele><time>2026-05-02T13:06:15.999Z</time></trkpt><trkpt lat="44.09774480859667" lon="10.087053076498579"><ele>204.66666666666669</ele><time>2026-05-02T13:06:16.999Z</time></trkpt><trkpt lat="44.097797197937936" lon="10.086949766216096"><ele>205.33333333333334</ele><time>2026-05-02T13:06:17.999Z</time></trkpt><trkpt lat="44.0978492449965" lon="10.086843691384331"><ele>206.0</ele><time>2026-05-02T13:06:18.999Z</time></trkpt><trkpt lat="44.0979024694835" lon="10.08673609519634"><ele>206.00000000000003</ele><time>2026-05-02T13:06:19.999Z</time></trkpt><trkpt lat="44.09794141135997" lon="10.08665132107322"><ele>206.0</ele><time>2026-05-02T13:06:20.999Z</time></trkpt><trkpt lat="44.09798362328409" lon="10.086584488796596"><ele>206.0</ele><time>2026-05-02T13:06:22.999Z</time></trkpt><trkpt lat="44.0980045928156" lon="10.086430573211793"><ele>206.0</ele><time>2026-05-02T13:06:25.999Z</time></trkpt><trkpt lat="44.09803627089446" lon="10.086285083762839"><ele>206.00000000000003</ele><time>2026-05-02T13:06:27.999Z</time></trkpt><trkpt lat="44.098071013620725" lon="10.086204072718113"><ele>206.0</ele><time>2026-05-02T13:06:30.999Z</time></trkpt><trkpt lat="44.09811242520764" lon="10.086114487619621"><ele>207.60000000000002</ele><time>2026-05-02T13:06:33.999Z</time></trkpt><trkpt lat="44.09815783621663" lon="10.086015841076234"><ele>209.2</ele><time>2026-05-02T13:06:35.999Z</time></trkpt><trkpt lat="44.0982058399245" lon="10.085906485717365"><ele>210.79999999999998</ele><time>2026-05-02T13:06:38.001Z</time></trkpt><trkpt lat="44.098258965994305" lon="10.085802062991384"><ele>212.39999999999998</ele><time>2026-05-02T13:06:40.001Z</time></trkpt><trkpt lat="44.098314526632144" lon="10.085686748323848"><ele>214.0</ele><time>2026-05-02T13:06:42.001Z</time></trkpt><trkpt lat="44.09839906463302" lon="10.085598725221322"><ele>217.0</ele><time>2026-05-02T13:06:44.001Z</time></trkpt><trkpt lat="44.09852820683922" lon="10.085563742861808"><ele>219.99999999999997</ele><time>2026-05-02T13:06:46.001Z</time></trkpt><trkpt lat="44.09860516233474" lon="10.08554710286149"><ele>222.99999999999997</ele><time>2026-05-02T13:06:47.001Z</time></trkpt><trkpt lat="44.0986735099615" lon="10.08553010744796"><ele>226.0</ele><time>2026-05-02T13:06:48.001Z</time></trkpt><trkpt lat="44.098756405100076" lon="10.085519633952181"><ele>229.0</ele><time>2026-05-02T13:06:50.001Z</time></trkpt><trkpt lat="44.09884230538168" lon="10.08547222269477"><ele>229.0</ele><time>2026-05-02T13:06:56.001Z</time></trkpt><trkpt lat="44.098934129002735" lon="10.08537194656101"><ele>228.99999999999997</ele><time>2026-05-02T13:06:58.001Z</time></trkpt><trkpt lat="44.099016878553414" lon="10.085249578381253"><ele>228.99999999999997</ele><time>2026-05-02T13:07:00.001Z</time></trkpt><trkpt lat="44.09909748370576" lon="10.085122686730593"><ele>229.0</ele><time>2026-05-02T13:07:02.001Z</time></trkpt><trkpt lat="44.09914319880459" lon="10.085058147059769"><ele>229.0</ele><time>2026-05-02T13:07:03.001Z</time></trkpt><trkpt lat="44.09919008814219" lon="10.084993646242095"><ele>227.6</ele><time>2026-05-02T13:07:04.001Z</time></trkpt><trkpt lat="44.09923927624588" lon="10.084929842960639"><ele>226.2</ele><time>2026-05-02T13:07:05.001Z</time></trkpt><trkpt lat="44.09928724131013" lon="10.084863085782116"><ele>224.79999999999998</ele><time>2026-05-02T13:07:06.001Z</time></trkpt><trkpt lat="44.099371468497864" lon="10.084757619979197"><ele>223.39999999999998</ele><time>2026-05-02T13:07:08.001Z</time></trkpt><trkpt lat="44.09948340703645" lon="10.084684440351634"><ele>222.0</ele><time>2026-05-02T13:07:10.001Z</time></trkpt><trkpt lat="44.09960828472526" lon="10.084661326442161"><ele>221.57142857142856</ele><time>2026-05-02T13:07:12.001Z</time></trkpt><trkpt lat="44.09967708501679" lon="10.084680552505239"><ele>221.14285714285717</ele><time>2026-05-02T13:07:13Z</time></trkpt><trkpt lat="44.09974283974239" lon="10.084718234149122"><ele>220.71428571428572</ele><time>2026-05-02T13:07:14Z</time></trkpt><trkpt lat="44.099801001090206" lon="10.084759005652169"><ele>220.28571428571428</ele><time>2026-05-02T13:07:15Z</time></trkpt><trkpt lat="44.09986110367226" lon="10.084801022952755"><ele>219.85714285714283</ele><time>2026-05-02T13:07:16Z</time></trkpt><trkpt lat="44.09992078837834" lon="10.084837008907623"><ele>219.42857142857144</ele><time>2026-05-02T13:07:17Z</time></trkpt><trkpt lat="44.09998366356782" lon="10.084861994246353"><ele>219.0</ele><time>2026-05-02T13:07:18Z</time></trkpt><trkpt lat="44.100092787296774" lon="10.084876831300562"><ele>219.0</ele><time>2026-05-02T13:07:20Z</time></trkpt><trkpt lat="44.10016346974273" lon="10.084883704037832"><ele>218.99999999999997</ele><time>2026-05-02T13:07:22Z</time></trkpt><trkpt lat="44.100245664318116" lon="10.08490119328547"><ele>218.99999999999997</ele><time>2026-05-02T13:07:24Z</time></trkpt><trkpt lat="44.10033617343119" lon="10.085008081836952"><ele>219.0</ele><time>2026-05-02T13:07:26Z</time></trkpt><trkpt lat="44.10041386445557" lon="10.08513365970211"><ele>219.0</ele><time>2026-05-02T13:07:28Z</time></trkpt><trkpt lat="44.100482962555375" lon="10.085236840040544"><ele>220.6</ele><time>2026-05-02T13:07:30Z</time></trkpt><trkpt lat="44.10056232170754" lon="10.085348076975864"><ele>222.2</ele><time>2026-05-02T13:07:32Z</time></trkpt><trkpt lat="44.10067649630651" lon="10.08542369875283"><ele>223.79999999999998</ele><time>2026-05-02T13:07:34Z</time></trkpt><trkpt lat="44.10074763605745" lon="10.085458722547203"><ele>225.39999999999998</ele><time>2026-05-02T13:07:35Z</time></trkpt><trkpt lat="44.100820962273055" lon="10.085517101234512"><ele>227.0</ele><time>2026-05-02T13:07:36Z</time></trkpt><trkpt lat="44.100885126481366" lon="10.085605929683782"><ele>227.00000000000003</ele><time>2026-05-02T13:07:37Z</time></trkpt><trkpt lat="44.1009463559341" lon="10.08571757763257"><ele>227.0</ele><time>2026-05-02T13:07:38Z</time></trkpt><trkpt lat="44.10101625765979" lon="10.085825662927379"><ele>227.0</ele><time>2026-05-02T13:07:39Z</time></trkpt><trkpt lat="44.10108965754644" lon="10.085916347975989"><ele>227.0</ele><time>2026-05-02T13:07:40Z</time></trkpt><trkpt lat="44.1011516052419" lon="10.08598258739248"><ele>227.00000000000003</ele><time>2026-05-02T13:07:41Z</time></trkpt><trkpt lat="44.10120765366018" lon="10.086028120764542"><ele>227.0</ele><time>2026-05-02T13:07:42Z</time></trkpt><trkpt lat="44.10126938687612" lon="10.086047014050704"><ele>228.83333333333334</ele><time>2026-05-02T13:07:43Z</time></trkpt><trkpt lat="44.101337003834146" lon="10.086061815379777"><ele>230.66666666666669</ele><time>2026-05-02T13:07:44Z</time></trkpt><trkpt lat="44.10140561100361" lon="10.086071792749806"><ele>232.5</ele><time>2026-05-02T13:07:45Z</time></trkpt><trkpt lat="44.101476964646515" lon="10.086072212287334"><ele>234.33333333333331</ele><time>2026-05-02T13:07:46Z</time></trkpt><trkpt lat="44.1015473053958" lon="10.086054727142647"><ele>236.16666666666666</ele><time>2026-05-02T13:07:47Z</time></trkpt><trkpt lat="44.10161414167872" lon="10.086015188964414"><ele>238.0</ele><time>2026-05-02T13:07:48Z</time></trkpt><trkpt lat="44.10169930785062" lon="10.085922694444694"><ele>238.33333333333331</ele><time>2026-05-02T13:07:50Z</time></trkpt><trkpt lat="44.10173988450487" lon="10.08585323361821"><ele>238.66666666666666</ele><time>2026-05-02T13:07:52Z</time></trkpt><trkpt lat="44.10181234569619" lon="10.085772141237637"><ele>239.0</ele><time>2026-05-02T13:07:54Z</time></trkpt><trkpt lat="44.10187791852333" lon="10.085740805538961"><ele>239.33333333333331</ele><time>2026-05-02T13:07:55Z</time></trkpt><trkpt lat="44.10194497740992" lon="10.08572424904991"><ele>239.66666666666666</ele><time>2026-05-02T13:07:56Z</time></trkpt><trkpt lat="44.10202453457305" lon="10.085721467716828"><ele>240.0</ele><time>2026-05-02T13:07:57Z</time></trkpt><trkpt lat="44.102114399963156" lon="10.085728637659901"><ele>237.6</ele><time>2026-05-02T13:07:58Z</time></trkpt><trkpt lat="44.10220514344815" lon="10.085742795327281"><ele>235.2</ele><time>2026-05-02T13:07:59Z</time></trkpt><trkpt lat="44.10229923135714" lon="10.08574933793742"><ele>232.8</ele><time>2026-05-02T13:07:59.999Z</time></trkpt><trkpt lat="44.102398780238445" lon="10.085753287396724"><ele>230.4</ele><time>2026-05-02T13:08:00.999Z</time></trkpt><trkpt lat="44.10250419992939" lon="10.085767345654897"><ele>228.0</ele><time>2026-05-02T13:08:01.999Z</time></trkpt><trkpt lat="44.1026094775977" lon="10.085781147298016"><ele>234.4</ele><time>2026-05-02T13:08:02.999Z</time></trkpt><trkpt lat="44.10271226805165" lon="10.085788760873784"><ele>240.8</ele><time>2026-05-02T13:08:03.999Z</time></trkpt><trkpt lat="44.102819507923435" lon="10.085784524952112"><ele>247.2</ele><time>2026-05-02T13:08:04.999Z</time></trkpt><trkpt lat="44.102931585435655" lon="10.08577306468692"><ele>253.6</ele><time>2026-05-02T13:08:05.999Z</time></trkpt><trkpt lat="44.10304280070391" lon="10.085767828117765"><ele>260.0</ele><time>2026-05-02T13:08:06.999Z</time></trkpt><trkpt lat="44.103150369205224" lon="10.085772892159959"><ele>262.5</ele><time>2026-05-02T13:08:07.999Z</time></trkpt><trkpt lat="44.10325745233247" lon="10.08578919020234"><ele>265.0</ele><time>2026-05-02T13:08:08.999Z</time></trkpt><trkpt lat="44.103366695371626" lon="10.085809835738363"><ele>267.5</ele><time>2026-05-02T13:08:09.999Z</time></trkpt><trkpt lat="44.10348670392328" lon="10.085817712141075"><ele>270.0</ele><time>2026-05-02T13:08:10.999Z</time></trkpt><trkpt lat="44.10363503718646" lon="10.08580532303398"><ele>270.0</ele><time>2026-05-02T13:08:11.999Z</time></trkpt><trkpt lat="44.103809710812406" lon="10.085791770421721"><ele>270.0</ele><time>2026-05-02T13:08:12.999Z</time></trkpt><trkpt lat="44.10398774911703" lon="10.08577725510933"><ele>270.0</ele><time>2026-05-02T13:08:13.999Z</time></trkpt><trkpt lat="44.104132730578904" lon="10.085761054677235"><ele>265.2</ele><time>2026-05-02T13:08:14.999Z</time></trkpt><trkpt lat="44.104254645429386" lon="10.085750037773154"><ele>260.4</ele><time>2026-05-02T13:08:15.999Z</time></trkpt><trkpt lat="44.10435949580988" lon="10.08575619872204"><ele>255.60000000000002</ele><time>2026-05-02T13:08:16.999Z</time></trkpt><trkpt lat="44.10445459377018" lon="10.085752745499065"><ele>250.8</ele><time>2026-05-02T13:08:17.999Z</time></trkpt><trkpt lat="44.104547944717424" lon="10.08574547754788"><ele>246.0</ele><time>2026-05-02T13:08:18.999Z</time></trkpt><trkpt lat="44.104657248803434" lon="10.085709686759303"><ele>246.0</ele><time>2026-05-02T13:08:19.999Z</time></trkpt><trkpt lat="44.10479101910472" lon="10.08563390879289"><ele>246.0</ele><time>2026-05-02T13:08:20.999Z</time></trkpt><trkpt lat="44.10495839590084" lon="10.085564322427995"><ele>246.0</ele><time>2026-05-02T13:08:21.999Z</time></trkpt><trkpt lat="44.105139002574596" lon="10.085503985752018"><ele>249.0</ele><time>2026-05-02T13:08:22.999Z</time></trkpt><trkpt lat="44.10534048647808" lon="10.085419497573083"><ele>252.0</ele><time>2026-05-02T13:08:23.999Z</time></trkpt><trkpt lat="44.1055382173347" lon="10.08533401479868"><ele>255.0</ele><time>2026-05-02T13:08:24.999Z</time></trkpt><trkpt lat="44.10570901657643" lon="10.08526281616052"><ele>261.3333333333333</ele><time>2026-05-02T13:08:25.999Z</time></trkpt><trkpt lat="44.10586002962904" lon="10.085195014719938"><ele>267.66666666666663</ele><time>2026-05-02T13:08:26.999Z</time></trkpt><trkpt lat="44.10600308245052" lon="10.08514397489098"><ele>274.0</ele><time>2026-05-02T13:08:27.999Z</time></trkpt><trkpt lat="44.106148530388445" lon="10.085109455013232"><ele>274.0</ele><time>2026-05-02T13:08:28.999Z</time></trkpt><trkpt lat="44.10629668245436" lon="10.085090014051076"><ele>274.0</ele><time>2026-05-02T13:08:29.999Z</time></trkpt><trkpt lat="44.10643336839206" lon="10.085082761363804"><ele>274.0</ele><time>2026-05-02T13:08:30.999Z</time></trkpt><trkpt lat="44.106557597845025" lon="10.085095702326587"><ele>274.0</ele><time>2026-05-02T13:08:31.999Z</time></trkpt><trkpt lat="44.10669039201742" lon="10.08515655496898"><ele>278.66666666666663</ele><time>2026-05-02T13:08:32.999Z</time></trkpt><trkpt lat="44.106824493352846" lon="10.085230106886765"><ele>283.3333333333333</ele><time>2026-05-02T13:08:33.999Z</time></trkpt><trkpt lat="44.10697721373079" lon="10.08529333832698"><ele>288.0</ele><time>2026-05-02T13:08:34.999Z</time></trkpt><trkpt lat="44.10714456050609" lon="10.085313958015144"><ele>288.0</ele><time>2026-05-02T13:08:35.999Z</time></trkpt><trkpt lat="44.10733433475819" lon="10.085329697450165"><ele>288.0</ele><time>2026-05-02T13:08:36.999Z</time></trkpt><trkpt lat="44.10754475604539" lon="10.085369309069286"><ele>288.0</ele><time>2026-05-02T13:08:37.999Z</time></trkpt><trkpt lat="44.10773497497055" lon="10.085401992335845"><ele>288.5</ele><time>2026-05-02T13:08:38.999Z</time></trkpt><trkpt lat="44.10789737067858" lon="10.085418730933508"><ele>289.0</ele><time>2026-05-02T13:08:39.999Z</time></trkpt><trkpt lat="44.1080393090898" lon="10.085430142430981"><ele>289.5</ele><time>2026-05-02T13:08:40.999Z</time></trkpt><trkpt lat="44.10817070276531" lon="10.085468675260834"><ele>290.0</ele><time>2026-05-02T13:08:41.999Z</time></trkpt><trkpt lat="44.10828433865534" lon="10.085539003834759"><ele>291.0</ele><time>2026-05-02T13:08:42.999Z</time></trkpt><trkpt lat="44.108396835271655" lon="10.085634454032334"><ele>292.0</ele><time>2026-05-02T13:08:44.001Z</time></trkpt><trkpt lat="44.10850287846243" lon="10.085754435207262"><ele>293.0</ele><time>2026-05-02T13:08:45.001Z</time></trkpt><trkpt lat="44.108612460328516" lon="10.085884124271207"><ele>294.0</ele><time>2026-05-02T13:08:46.001Z</time></trkpt><trkpt lat="44.10872919007334" lon="10.086005940377067"><ele>299.5</ele><time>2026-05-02T13:08:47.001Z</time></trkpt><trkpt lat="44.108845631349475" lon="10.08610039450563"><ele>305.0</ele><time>2026-05-02T13:08:48.001Z</time></trkpt><trkpt lat="44.10896816242991" lon="10.086170939727491"><ele>310.5</ele><time>2026-05-02T13:08:49.001Z</time></trkpt><trkpt lat="44.10910493395869" lon="10.086191109702774"><ele>316.0</ele><time>2026-05-02T13:08:50.001Z</time></trkpt><trkpt lat="44.10925157661594" lon="10.086167388949864"><ele>316.0</ele><time>2026-05-02T13:08:51.001Z</time></trkpt><trkpt lat="44.109393443087264" lon="10.086152737523786"><ele>316.0</ele><time>2026-05-02T13:08:52.001Z</time></trkpt><trkpt lat="44.10952312450495" lon="10.086129835621607"><ele>316.0</ele><time>2026-05-02T13:08:53.001Z</time></trkpt><trkpt lat="44.10965191422552" lon="10.086059064776062"><ele>316.0</ele><time>2026-05-02T13:08:54.001Z</time></trkpt><trkpt lat="44.10977693074873" lon="10.085929144956896"><ele>316.0</ele><time>2026-05-02T13:08:55.001Z</time></trkpt><trkpt lat="44.109904591685755" lon="10.08581015391933"><ele>316.0</ele><time>2026-05-02T13:08:56.001Z</time></trkpt><trkpt lat="44.11002738728964" lon="10.085718944852353"><ele>316.0</ele><time>2026-05-02T13:08:57.001Z</time></trkpt><trkpt lat="44.110142669928564" lon="10.085658344919"><ele>316.0</ele><time>2026-05-02T13:08:58.001Z</time></trkpt><trkpt lat="44.11026248145793" lon="10.085630429741851"><ele>320.25</ele><time>2026-05-02T13:08:59.001Z</time></trkpt><trkpt lat="44.11040015015883" lon="10.085645459599563"><ele>324.5</ele><time>2026-05-02T13:09:00.001Z</time></trkpt><trkpt lat="44.11054320900776" lon="10.085685160686696"><ele>328.75</ele><time>2026-05-02T13:09:01.001Z</time></trkpt><trkpt lat="44.11069450385361" lon="10.085682386512502"><ele>333.0</ele><time>2026-05-02T13:09:02.001Z</time></trkpt><trkpt lat="44.11085798481348" lon="10.085613704978435"><ele>333.6666666666667</ele><time>2026-05-02T13:09:03.001Z</time></trkpt><trkpt lat="44.11103524523039" lon="10.085531541405528"><ele>334.33333333333337</ele><time>2026-05-02T13:09:04.001Z</time></trkpt><trkpt lat="44.111220665482" lon="10.0854714094495"><ele>335.0</ele><time>2026-05-02T13:09:05.001Z</time></trkpt><trkpt lat="44.11138815349472" lon="10.085422468129567"><ele>335.0</ele><time>2026-05-02T13:09:06.001Z</time></trkpt><trkpt lat="44.111533788959356" lon="10.085377844094028"><ele>335.0</ele><time>2026-05-02T13:09:07.001Z</time></trkpt><trkpt lat="44.11166802512355" lon="10.085354992045335"><ele>335.0</ele><time>2026-05-02T13:09:08.001Z</time></trkpt><trkpt lat="44.111801427083265" lon="10.085367855241747"><ele>335.0</ele><time>2026-05-02T13:09:09.001Z</time></trkpt><trkpt lat="44.11194110110727" lon="10.085420984632622"><ele>337.5</ele><time>2026-05-02T13:09:10Z</time></trkpt><trkpt lat="44.11208024423642" lon="10.085507354561143"><ele>340.0</ele><time>2026-05-02T13:09:11Z</time></trkpt><trkpt lat="44.11220931432709" lon="10.085599031985028"><ele>342.5</ele><time>2026-05-02T13:09:12Z</time></trkpt><trkpt lat="44.11232311281869" lon="10.085670996513871"><ele>345.0</ele><time>2026-05-02T13:09:13Z</time></trkpt><trkpt lat="44.11242137615378" lon="10.085770653288257"><ele>350.75</ele><time>2026-05-02T13:09:14Z</time></trkpt><trkpt lat="44.112503486373356" lon="10.085901336284644"><ele>356.5</ele><time>2026-05-02T13:09:15Z</time></trkpt><trkpt lat="44.11257914957263" lon="10.086027637134364"><ele>362.25</ele><time>2026-05-02T13:09:16Z</time></trkpt><trkpt lat="44.112667052120294" lon="10.08613530669016"><ele>368.0</ele><time>2026-05-02T13:09:17Z</time></trkpt><trkpt lat="44.112786936744556" lon="10.08621740802474"><ele>368.0</ele><time>2026-05-02T13:09:18Z</time></trkpt><trkpt lat="44.11292761615167" lon="10.086302589184843"><ele>368.0</ele><time>2026-05-02T13:09:19Z</time></trkpt><trkpt lat="44.11306320247703" lon="10.086417810417425"><ele>368.0</ele><time>2026-05-02T13:09:20Z</time></trkpt><trkpt lat="44.113195430601635" lon="10.08652814210922"><ele>371.0</ele><time>2026-05-02T13:09:21Z</time></trkpt><trkpt lat="44.11331948330006" lon="10.08662311650523"><ele>374.0</ele><time>2026-05-02T13:09:22Z</time></trkpt><trkpt lat="44.113421391978555" lon="10.086712148271108"><ele>377.0</ele><time>2026-05-02T13:09:23Z</time></trkpt><trkpt lat="44.11350936100994" lon="10.08678198342646"><ele>380.0</ele><time>2026-05-02T13:09:24Z</time></trkpt><trkpt lat="44.11358609419131" lon="10.086822006507223"><ele>383.0</ele><time>2026-05-02T13:09:25Z</time></trkpt><trkpt lat="44.11365347370037" lon="10.086801688284588"><ele>383.0</ele><time>2026-05-02T13:09:26Z</time></trkpt><trkpt lat="44.113690180026346" lon="10.08671652722318"><ele>383.0</ele><time>2026-05-02T13:09:27Z</time></trkpt><trkpt lat="44.11368596100333" lon="10.08660510801138"><ele>383.0</ele><time>2026-05-02T13:09:28Z</time></trkpt><trkpt lat="44.11363639145802" lon="10.086487139325179"><ele>383.0</ele><time>2026-05-02T13:09:29Z</time></trkpt><trkpt lat="44.11354721195248" lon="10.08636004584627"><ele>383.0</ele><time>2026-05-02T13:09:30Z</time></trkpt><trkpt lat="44.11344016479868" lon="10.086235373159141"><ele>385.5</ele><time>2026-05-02T13:09:31Z</time></trkpt><trkpt lat="44.11332282058177" lon="10.086113998336035"><ele>388.0</ele><time>2026-05-02T13:09:32Z</time></trkpt><trkpt lat="44.11320525953223" lon="10.086001601075601"><ele>390.5</ele><time>2026-05-02T13:09:33Z</time></trkpt><trkpt lat="44.113094024797206" lon="10.085918972695913"><ele>393.0</ele><time>2026-05-02T13:09:34Z</time></trkpt><trkpt lat="44.113010946372576" lon="10.085803932195876"><ele>386.75</ele><time>2026-05-02T13:09:35Z</time></trkpt><trkpt lat="44.112955609104866" lon="10.085657476336898"><ele>380.5</ele><time>2026-05-02T13:09:36Z</time></trkpt><trkpt lat="44.11289649589198" lon="10.085513481951502"><ele>374.25</ele><time>2026-05-02T13:09:37Z</time></trkpt><trkpt lat="44.11287376647007" lon="10.085358438921533"><ele>368.0</ele><time>2026-05-02T13:09:38Z</time></trkpt><trkpt lat="44.11287765057448" lon="10.085185689960293"><ele>368.0</ele><time>2026-05-02T13:09:39Z</time></trkpt><trkpt lat="44.11287470428831" lon="10.085000329960303"><ele>368.0</ele><time>2026-05-02T13:09:40Z</time></trkpt><trkpt lat="44.11283685304047" lon="10.084811884856844"><ele>368.0</ele><time>2026-05-02T13:09:41Z</time></trkpt><trkpt lat="44.112793402159674" lon="10.084624408474307"><ele>368.0</ele><time>2026-05-02T13:09:42Z</time></trkpt><trkpt lat="44.1127624176902" lon="10.084445006754787"><ele>371.75</ele><time>2026-05-02T13:09:43Z</time></trkpt><trkpt lat="44.112743834407695" lon="10.084283233415855"><ele>375.5</ele><time>2026-05-02T13:09:44Z</time></trkpt><trkpt lat="44.11275164129507" lon="10.084143706405705"><ele>379.25</ele><time>2026-05-02T13:09:45Z</time></trkpt><trkpt lat="44.11278279699444" lon="10.083986881737617"><ele>383.0</ele><time>2026-05-02T13:09:46Z</time></trkpt><trkpt lat="44.11280625197583" lon="10.083829308703512"><ele>388.79999999999995</ele><time>2026-05-02T13:09:47Z</time></trkpt><trkpt lat="44.112807886497706" lon="10.083696343601545"><ele>394.6</ele><time>2026-05-02T13:09:48Z</time></trkpt><trkpt lat="44.11278028790928" lon="10.08358906558715"><ele>400.4</ele><time>2026-05-02T13:09:49Z</time></trkpt><trkpt lat="44.11271439890704" lon="10.083523519909665"><ele>406.20000000000005</ele><time>2026-05-02T13:09:50Z</time></trkpt><trkpt lat="44.11261691685955" lon="10.083496488472203"><ele>412.0</ele><time>2026-05-02T13:09:51Z</time></trkpt><trkpt lat="44.112508937513454" lon="10.083465841695991"><ele>412.0</ele><time>2026-05-02T13:09:52Z</time></trkpt><trkpt lat="44.11239754848202" lon="10.083428610345495"><ele>412.0</ele><time>2026-05-02T13:09:53Z</time></trkpt><trkpt lat="44.11227823828027" lon="10.083417014179002"><ele>412.0</ele><time>2026-05-02T13:09:54Z</time></trkpt><trkpt lat="44.112150358074864" lon="10.083435799415943"><ele>412.0</ele><time>2026-05-02T13:09:54.999Z</time></trkpt><trkpt lat="44.1120198974688" lon="10.083455833636307"><ele>412.0</ele><time>2026-05-02T13:09:55.999Z</time></trkpt><trkpt lat="44.11190173237816" lon="10.083471148987554"><ele>412.0</ele><time>2026-05-02T13:09:56.999Z</time></trkpt><trkpt lat="44.11178210786602" lon="10.083477582152742"><ele>412.0</ele><time>2026-05-02T13:09:57.999Z</time></trkpt><trkpt lat="44.11165849045686" lon="10.083455531893314"><ele>412.0</ele><time>2026-05-02T13:09:58.999Z</time></trkpt><trkpt lat="44.11153466424647" lon="10.083419669317395"><ele>414.25</ele><time>2026-05-02T13:09:59.999Z</time></trkpt><trkpt lat="44.111405841844096" lon="10.0833957025766"><ele>416.5</ele><time>2026-05-02T13:10:00.999Z</time></trkpt><trkpt lat="44.11126896740495" lon="10.083386099146585"><ele>418.75</ele><time>2026-05-02T13:10:01.999Z</time></trkpt><trkpt lat="44.1111286366562" lon="10.083380051512089"><ele>421.0</ele><time>2026-05-02T13:10:02.999Z</time></trkpt><trkpt lat="44.1109856888435" lon="10.08337685674203"><ele>421.0</ele><time>2026-05-02T13:10:03.999Z</time></trkpt><trkpt lat="44.11083976182333" lon="10.083371802722631"><ele>421.0</ele><time>2026-05-02T13:10:04.999Z</time></trkpt><trkpt lat="44.11069107939311" lon="10.08336617415387"><ele>421.0</ele><time>2026-05-02T13:10:05.999Z</time></trkpt><trkpt lat="44.11053950748882" lon="10.083366920844032"><ele>421.0</ele><time>2026-05-02T13:10:06.999Z</time></trkpt><trkpt lat="44.110390636680904" lon="10.083369213058564"><ele>420.75</ele><time>2026-05-02T13:10:07.999Z</time></trkpt><trkpt lat="44.11025165706747" lon="10.083359264194618"><ele>420.5</ele><time>2026-05-02T13:10:08.999Z</time></trkpt><trkpt lat="44.110132507528256" lon="10.08333948144918"><ele>420.25</ele><time>2026-05-02T13:10:09.999Z</time></trkpt><trkpt lat="44.11003282880552" lon="10.08330702729454"><ele>420.0</ele><time>2026-05-02T13:10:10.999Z</time></trkpt><trkpt lat="44.10995396865436" lon="10.083241366035491"><ele>412.5</ele><time>2026-05-02T13:10:11.999Z</time></trkpt><trkpt lat="44.10987826021221" lon="10.083136215208592"><ele>405.0</ele><time>2026-05-02T13:10:12.999Z</time></trkpt><trkpt lat="44.10979747991423" lon="10.083011742650172"><ele>397.5</ele><time>2026-05-02T13:10:13.999Z</time></trkpt><trkpt lat="44.10970627835524" lon="10.082895642607559"><ele>390.0</ele><time>2026-05-02T13:10:14.999Z</time></trkpt><trkpt lat="44.1096182673552" lon="10.082793334948876"><ele>390.0</ele><time>2026-05-02T13:10:15.999Z</time></trkpt><trkpt lat="44.10956008619916" lon="10.082695990490793"><ele>390.0</ele><time>2026-05-02T13:10:16.999Z</time></trkpt><trkpt lat="44.10955757605793" lon="10.082607222439664"><ele>390.0</ele><time>2026-05-02T13:10:17.999Z</time></trkpt><trkpt lat="44.10962023228116" lon="10.082543285580343"><ele>390.0</ele><time>2026-05-02T13:10:18.999Z</time></trkpt><trkpt lat="44.109704154465035" lon="10.082507399166307"><ele>390.0</ele><time>2026-05-02T13:10:19.999Z</time></trkpt><trkpt lat="44.109811289427576" lon="10.082464687910482"><ele>390.0</ele><time>2026-05-02T13:10:20.999Z</time></trkpt><trkpt lat="44.109927238401156" lon="10.082395297609123"><ele>391.5</ele><time>2026-05-02T13:10:21.999Z</time></trkpt><trkpt lat="44.110046405281174" lon="10.082292383504875"><ele>393.0</ele><time>2026-05-02T13:10:22.999Z</time></trkpt><trkpt lat="44.1101680592128" lon="10.082183708441777"><ele>394.5</ele><time>2026-05-02T13:10:23.999Z</time></trkpt><trkpt lat="44.110293583154714" lon="10.082061993297025"><ele>396.0</ele><time>2026-05-02T13:10:24.999Z</time></trkpt><trkpt lat="44.110415957276246" lon="10.081925657556182"><ele>396.0</ele><time>2026-05-02T13:10:25.999Z</time></trkpt><trkpt lat="44.11052635867879" lon="10.081773804387108"><ele>396.0</ele><time>2026-05-02T13:10:26.999Z</time></trkpt><trkpt lat="44.110636239462636" lon="10.081614212860913"><ele>396.0</ele><time>2026-05-02T13:10:27.999Z</time></trkpt><trkpt lat="44.11075842202945" lon="10.08147249956612"><ele>405.0</ele><time>2026-05-02T13:10:28.999Z</time></trkpt><trkpt lat="44.11087887003602" lon="10.081320912189595"><ele>414.0</ele><time>2026-05-02T13:10:29.999Z</time></trkpt><trkpt lat="44.11097906787091" lon="10.081143190090026"><ele>423.0</ele><time>2026-05-02T13:10:30.999Z</time></trkpt><trkpt lat="44.11106907800203" lon="10.08095798541105"><ele>423.0</ele><time>2026-05-02T13:10:31.999Z</time></trkpt><trkpt lat="44.11114745088825" lon="10.080801676284032"><ele>423.0</ele><time>2026-05-02T13:10:32.999Z</time></trkpt><trkpt lat="44.11121957601023" lon="10.08067906980602"><ele>423.0</ele><time>2026-05-02T13:10:33.999Z</time></trkpt><trkpt lat="44.11131601693591" lon="10.080594359413347"><ele>423.0</ele><time>2026-05-02T13:10:34.999Z</time></trkpt><trkpt lat="44.11142270447072" lon="10.080504421747834"><ele>424.25</ele><time>2026-05-02T13:10:35.999Z</time></trkpt><trkpt lat="44.11152364442615" lon="10.080376984477546"><ele>425.5</ele><time>2026-05-02T13:10:36.999Z</time></trkpt><trkpt lat="44.111595982865964" lon="10.080231388364021"><ele>426.75</ele><time>2026-05-02T13:10:37.999Z</time></trkpt><trkpt lat="44.11165576528359" lon="10.080081703787197"><ele>428.0</ele><time>2026-05-02T13:10:38.999Z</time></trkpt><trkpt lat="44.111737059126746" lon="10.079907922361187"><ele>428.0</ele><time>2026-05-02T13:10:39.999Z</time></trkpt><trkpt lat="44.111856441298016" lon="10.079797409556832"><ele>428.0</ele><time>2026-05-02T13:10:40.999Z</time></trkpt><trkpt lat="44.1119469892694" lon="10.079655176949995"><ele>428.0</ele><time>2026-05-02T13:10:41.999Z</time></trkpt><trkpt lat="44.11204672998371" lon="10.079547261480883"><ele>428.0</ele><time>2026-05-02T13:10:42.999Z</time></trkpt><trkpt lat="44.11213322015561" lon="10.07945069560266"><ele>428.0</ele><time>2026-05-02T13:10:43.999Z</time></trkpt><trkpt lat="44.11219490994403" lon="10.079330222362515"><ele>428.0</ele><time>2026-05-02T13:10:44.999Z</time></trkpt><trkpt lat="44.11225195816538" lon="10.079177645098506"><ele>428.0</ele><time>2026-05-02T13:10:45.999Z</time></trkpt><trkpt lat="44.11229945456921" lon="10.079012048290501"><ele>428.0</ele><time>2026-05-02T13:10:46.998Z</time></trkpt><trkpt lat="44.11236021498683" lon="10.078837443547716"><ele>436.0</ele><time>2026-05-02T13:10:47.998Z</time></trkpt><trkpt lat="44.112414132924684" lon="10.078656904432655"><ele>444.0</ele><time>2026-05-02T13:10:48.998Z</time></trkpt><trkpt lat="44.11246759072647" lon="10.078475496046728"><ele>452.0</ele><time>2026-05-02T13:10:50.001Z</time></trkpt><trkpt lat="44.1125194094982" lon="10.078299179310541"><ele>460.0</ele><time>2026-05-02T13:10:51.001Z</time></trkpt><trkpt lat="44.1125769356224" lon="10.078137521083763"><ele>460.0</ele><time>2026-05-02T13:10:52.001Z</time></trkpt><trkpt lat="44.11264924157941" lon="10.077996581958237"><ele>460.0</ele><time>2026-05-02T13:10:53.001Z</time></trkpt><trkpt lat="44.11273533245235" lon="10.077883334724893"><ele>460.0</ele><time>2026-05-02T13:10:54.001Z</time></trkpt><trkpt lat="44.11282784048512" lon="10.077793102788858"><ele>460.0</ele><time>2026-05-02T13:10:55.001Z</time></trkpt><trkpt lat="44.11289058443733" lon="10.077696184200192"><ele>460.0</ele><time>2026-05-02T13:10:56.001Z</time></trkpt><trkpt lat="44.112874298233585" lon="10.077523404405035"><ele>462.6</ele><time>2026-05-02T13:10:57.001Z</time></trkpt><trkpt lat="44.112858625445796" lon="10.077361102614818"><ele>465.2</ele><time>2026-05-02T13:10:58.001Z</time></trkpt><trkpt lat="44.112893727686746" lon="10.077215162636305"><ele>467.79999999999995</ele><time>2026-05-02T13:10:59.001Z</time></trkpt><trkpt lat="44.112928017832715" lon="10.077083515138611"><ele>470.4</ele><time>2026-05-02T13:11:00.001Z</time></trkpt><trkpt lat="44.11296473562786" lon="10.076979341430029"><ele>473.0</ele><time>2026-05-02T13:11:01.001Z</time></trkpt><trkpt lat="44.11299735514204" lon="10.076894533749726"><ele>473.0</ele><time>2026-05-02T13:11:02.001Z</time></trkpt><trkpt lat="44.11303524864047" lon="10.076804917678594"><ele>472.99999999999994</ele><time>2026-05-02T13:11:03.001Z</time></trkpt><trkpt lat="44.113058443876525" lon="10.076680882684753"><ele>472.99999999999994</ele><time>2026-05-02T13:11:04.001Z</time></trkpt><trkpt lat="44.1130456448498" lon="10.076521230551856"><ele>473.0</ele><time>2026-05-02T13:11:05.001Z</time></trkpt><trkpt lat="44.112985408394216" lon="10.076339248447391"><ele>473.0</ele><time>2026-05-02T13:11:06.001Z</time></trkpt><trkpt lat="44.11293623218237" lon="10.076176362407189"><ele>479.4</ele><time>2026-05-02T13:11:07.001Z</time></trkpt><trkpt lat="44.112900265808925" lon="10.076020357680656"><ele>485.79999999999995</ele><time>2026-05-02T13:11:08.001Z</time></trkpt><trkpt lat="44.112872833442324" lon="10.0758837688165"><ele>492.2</ele><time>2026-05-02T13:11:09.001Z</time></trkpt><trkpt lat="44.1128317558698" lon="10.075775130822715"><ele>498.6</ele><time>2026-05-02T13:11:10.001Z</time></trkpt><trkpt lat="44.11275179931773" lon="10.075743644697138"><ele>505.0</ele><time>2026-05-02T13:11:11.001Z</time></trkpt><trkpt lat="44.112672913774524" lon="10.075813403970162"><ele>505.0</ele><time>2026-05-02T13:11:12.001Z</time></trkpt><trkpt lat="44.11259708691661" lon="10.075909807432863"><ele>505.0</ele><time>2026-05-02T13:11:13Z</time></trkpt><trkpt lat="44.1125040990399" lon="10.076004214662635"><ele>505.0</ele><time>2026-05-02T13:11:14Z</time></trkpt><trkpt lat="44.11238310814622" lon="10.076078222340028"><ele>505.0</ele><time>2026-05-02T13:11:15Z</time></trkpt><trkpt lat="44.11225162015437" lon="10.076146193932914"><ele>509.75</ele><time>2026-05-02T13:11:16Z</time></trkpt><trkpt lat="44.112136844835675" lon="10.076261886850386"><ele>514.5</ele><time>2026-05-02T13:11:16.999Z</time></trkpt><trkpt lat="44.11204351876556" lon="10.076395688241792"><ele>519.25</ele><time>2026-05-02T13:11:17.999Z</time></trkpt><trkpt lat="44.111946710520066" lon="10.076480352802662"><ele>524.0</ele><time>2026-05-02T13:11:18.999Z</time></trkpt><trkpt lat="44.11184072958178" lon="10.076528945300414"><ele>524.0</ele><time>2026-05-02T13:11:19.999Z</time></trkpt><trkpt lat="44.11173168204883" lon="10.076577729333744"><ele>524.0</ele><time>2026-05-02T13:11:20.999Z</time></trkpt><trkpt lat="44.11161346482573" lon="10.076604685888395"><ele>524.0</ele><time>2026-05-02T13:11:21.999Z</time></trkpt><trkpt lat="44.111488726819395" lon="10.076605585231814"><ele>524.0</ele><time>2026-05-02T13:11:22.999Z</time></trkpt><trkpt lat="44.11135201150517" lon="10.07661766686695"><ele>521.25</ele><time>2026-05-02T13:11:23.999Z</time></trkpt><trkpt lat="44.111212711915634" lon="10.076653537074787"><ele>518.5</ele><time>2026-05-02T13:11:24.999Z</time></trkpt><trkpt lat="44.11106777716322" lon="10.076690123486852"><ele>515.75</ele><time>2026-05-02T13:11:25.999Z</time></trkpt><trkpt lat="44.11092038986638" lon="10.076727351561289"><ele>513.0</ele><time>2026-05-02T13:11:26.999Z</time></trkpt><trkpt lat="44.110772692947144" lon="10.076764784242163"><ele>507.25</ele><time>2026-05-02T13:11:27.999Z</time></trkpt><trkpt lat="44.11063833042565" lon="10.076798837393032"><ele>501.5</ele><time>2026-05-02T13:11:28.999Z</time></trkpt><trkpt lat="44.1105145962556" lon="10.076830196563176"><ele>495.75</ele><time>2026-05-02T13:11:29.999Z</time></trkpt><trkpt lat="44.11040573416404" lon="10.076855203403872"><ele>490.0</ele><time>2026-05-02T13:11:30.999Z</time></trkpt><trkpt lat="44.11030567669568" lon="10.076863161976897"><ele>490.0</ele><time>2026-05-02T13:11:31.999Z</time></trkpt><trkpt lat="44.11022587049362" lon="10.07683177860914"><ele>490.0</ele><time>2026-05-02T13:11:32.999Z</time></trkpt><trkpt lat="44.11015920786518" lon="10.076788998238984"><ele>490.0</ele><time>2026-05-02T13:11:33.999Z</time></trkpt><trkpt lat="44.11010330106899" lon="10.076717352015901"><ele>490.0</ele><time>2026-05-02T13:11:34.999Z</time></trkpt><trkpt lat="44.110077417602184" lon="10.076616713577996"><ele>490.0</ele><time>2026-05-02T13:11:35.999Z</time></trkpt><trkpt lat="44.11006692530993" lon="10.076525032610226"><ele>490.0</ele><time>2026-05-02T13:11:36.999Z</time></trkpt><trkpt lat="44.110127082977634" lon="10.076487015573845"><ele>490.0</ele><time>2026-05-02T13:11:38.999Z</time></trkpt><trkpt lat="44.110210700006434" lon="10.076625933007055"><ele>490.0</ele><time>2026-05-02T13:11:40.999Z</time></trkpt><trkpt lat="44.110275673076806" lon="10.076697037494899"><ele>490.0</ele><time>2026-05-02T13:11:41.999Z</time></trkpt><trkpt lat="44.110374937132505" lon="10.076709765681583"><ele>490.0</ele><time>2026-05-02T13:11:42.999Z</time></trkpt><trkpt lat="44.11048665833973" lon="10.076668342456099"><ele>490.0</ele><time>2026-05-02T13:11:43.999Z</time></trkpt><trkpt lat="44.110605251083875" lon="10.076601845199324"><ele>490.0</ele><time>2026-05-02T13:11:44.999Z</time></trkpt><trkpt lat="44.1107197814301" lon="10.076536202273296"><ele>501.0</ele><time>2026-05-02T13:11:45.999Z</time></trkpt><trkpt lat="44.110831442995114" lon="10.076478304731735"><ele>512.0</ele><time>2026-05-02T13:11:46.999Z</time></trkpt><trkpt lat="44.110943513908545" lon="10.076409366873007"><ele>523.0</ele><time>2026-05-02T13:11:47.999Z</time></trkpt><trkpt lat="44.11105692468974" lon="10.0763498873731"><ele>534.0</ele><time>2026-05-02T13:11:48.999Z</time></trkpt><trkpt lat="44.111171869027" lon="10.076281528423735"><ele>534.0</ele><time>2026-05-02T13:11:49.999Z</time></trkpt><trkpt lat="44.111282984952155" lon="10.076188606251927"><ele>534.0</ele><time>2026-05-02T13:11:50.999Z</time></trkpt><trkpt lat="44.11138254415398" lon="10.07607035444647"><ele>534.0</ele><time>2026-05-02T13:11:51.999Z</time></trkpt><trkpt lat="44.111475063594845" lon="10.075946850803453"><ele>534.0</ele><time>2026-05-02T13:11:52.999Z</time></trkpt><trkpt lat="44.111566392881194" lon="10.075824073673278"><ele>535.25</ele><time>2026-05-02T13:11:53.999Z</time></trkpt><trkpt lat="44.111654372502755" lon="10.075699966547822"><ele>536.5</ele><time>2026-05-02T13:11:54.999Z</time></trkpt><trkpt lat="44.11174308055066" lon="10.075578652524904"><ele>537.75</ele><time>2026-05-02T13:11:55.999Z</time></trkpt><trkpt lat="44.11183246031133" lon="10.075457187189459"><ele>539.0</ele><time>2026-05-02T13:11:56.999Z</time></trkpt><trkpt lat="44.111915478645344" lon="10.075336085850044"><ele>539.0</ele><time>2026-05-02T13:11:57.999Z</time></trkpt><trkpt lat="44.11199309372489" lon="10.075223255916356"><ele>539.0</ele><time>2026-05-02T13:11:58.999Z</time></trkpt><trkpt lat="44.1120733814277" lon="10.07512345036181"><ele>539.0</ele><time>2026-05-02T13:11:59.999Z</time></trkpt><trkpt lat="44.11215522406277" lon="10.075032751204287"><ele>539.0</ele><time>2026-05-02T13:12:00.998Z</time></trkpt><trkpt lat="44.11223028677677" lon="10.074926028240494"><ele>539.0</ele><time>2026-05-02T13:12:01.998Z</time></trkpt><trkpt lat="44.11229851392257" lon="10.074808541565721"><ele>539.4</ele><time>2026-05-02T13:12:02.998Z</time></trkpt><trkpt lat="44.112368251165044" lon="10.074688991227722"><ele>539.8</ele><time>2026-05-02T13:12:03.998Z</time></trkpt><trkpt lat="44.112439398921794" lon="10.074569982118545"><ele>540.2</ele><time>2026-05-02T13:12:04.998Z</time></trkpt><trkpt lat="44.112509730325854" lon="10.074451777952397"><ele>540.6</ele><time>2026-05-02T13:12:05.998Z</time></trkpt><trkpt lat="44.11257435812856" lon="10.074330864650184"><ele>541.0</ele><time>2026-05-02T13:12:06.998Z</time></trkpt><trkpt lat="44.11262843950678" lon="10.074223264029264"><ele>540.1666666666667</ele><time>2026-05-02T13:12:07.998Z</time></trkpt><trkpt lat="44.11268395472046" lon="10.074131822439785"><ele>539.3333333333334</ele><time>2026-05-02T13:12:08.998Z</time></trkpt><trkpt lat="44.1127592666322" lon="10.074077912504881"><ele>538.5</ele><time>2026-05-02T13:12:09.998Z</time></trkpt><trkpt lat="44.112831926704814" lon="10.074015793166431"><ele>537.6666666666666</ele><time>2026-05-02T13:12:10.998Z</time></trkpt><trkpt lat="44.11291979287428" lon="10.073954568890715"><ele>536.8333333333333</ele><time>2026-05-02T13:12:12.998Z</time></trkpt><trkpt lat="44.11299722917114" lon="10.073906906524996"><ele>536.0</ele><time>2026-05-02T13:12:15.998Z</time></trkpt><trkpt lat="44.113074181585766" lon="10.073851236572049"><ele>535.6666666666666</ele><time>2026-05-02T13:12:17.998Z</time></trkpt><trkpt lat="44.113151686129044" lon="10.073819947251616"><ele>535.3333333333333</ele><time>2026-05-02T13:12:19.998Z</time></trkpt><trkpt lat="44.113217088993984" lon="10.07377774600339"><ele>535.0</ele><time>2026-05-02T13:12:21.998Z</time></trkpt><trkpt lat="44.113286517074805" lon="10.073687980696205"><ele>534.6666666666666</ele><time>2026-05-02T13:12:23.998Z</time></trkpt><trkpt lat="44.11335303159838" lon="10.073599252844767"><ele>534.3333333333334</ele><time>2026-05-02T13:12:25.998Z</time></trkpt><trkpt lat="44.11340389447577" lon="10.0735205938493"><ele>534.0</ele><time>2026-05-02T13:12:35.998Z</time></trkpt><trkpt lat="44.11347805912761" lon="10.073439753797501"><ele>534.0</ele><time>2026-05-02T13:12:37.998Z</time></trkpt><trkpt lat="44.11356911903313" lon="10.073321079216528"><ele>534.0</ele><time>2026-05-02T13:12:39.998Z</time></trkpt><trkpt lat="44.113621616263885" lon="10.073255886086386"><ele>534.0</ele><time>2026-05-02T13:12:40.998Z</time></trkpt><trkpt lat="44.11367785260034" lon="10.073183517983352"><ele>534.0</ele><time>2026-05-02T13:12:41.998Z</time></trkpt><trkpt lat="44.113735141835264" lon="10.073109795099816"><ele>534.0</ele><time>2026-05-02T13:12:42.998Z</time></trkpt><trkpt lat="44.11378802153" lon="10.073027166916972"><ele>534.0</ele><time>2026-05-02T13:12:43.998Z</time></trkpt><trkpt lat="44.113838040725696" lon="10.07293460779795"><ele>534.5</ele><time>2026-05-02T13:12:44.998Z</time></trkpt><trkpt lat="44.113889347843994" lon="10.072840048310947"><ele>535.0</ele><time>2026-05-02T13:12:45.998Z</time></trkpt><trkpt lat="44.11394255739951" lon="10.072747541244402"><ele>535.5</ele><time>2026-05-02T13:12:46.998Z</time></trkpt><trkpt lat="44.11399548630569" lon="10.072664304220394"><ele>536.0</ele><time>2026-05-02T13:12:47.997Z</time></trkpt><trkpt lat="44.11406568239825" lon="10.072633502546587"><ele>536.5</ele><time>2026-05-02T13:12:48.997Z</time></trkpt><trkpt lat="44.11413990929163" lon="10.072641129506774"><ele>537.0</ele><time>2026-05-02T13:12:49.997Z</time></trkpt><trkpt lat="44.11420876604949" lon="10.072641940300914"><ele>539.5</ele><time>2026-05-02T13:12:50.997Z</time></trkpt><trkpt lat="44.114265446601294" lon="10.072596659785903"><ele>542.0</ele><time>2026-05-02T13:12:51.997Z</time></trkpt><trkpt lat="44.11431945392635" lon="10.07253175270487"><ele>544.5</ele><time>2026-05-02T13:12:52.997Z</time></trkpt><trkpt lat="44.11430622498137" lon="10.072405275283293"><ele>547.0</ele><time>2026-05-02T13:12:53.997Z</time></trkpt><trkpt lat="44.114234837985606" lon="10.072319648753671"><ele>549.5</ele><time>2026-05-02T13:12:54.997Z</time></trkpt><trkpt lat="44.11418006714453" lon="10.072231444374946"><ele>552.0</ele><time>2026-05-02T13:12:56Z</time></trkpt><trkpt lat="44.11409504563868" lon="10.072170235424437"><ele>549.8000000000001</ele><time>2026-05-02T13:12:57Z</time></trkpt><trkpt lat="44.11402982552626" lon="10.07207613591833"><ele>547.6</ele><time>2026-05-02T13:12:58Z</time></trkpt><trkpt lat="44.11398571316694" lon="10.071960511401251"><ele>545.4000000000001</ele><time>2026-05-02T13:12:59Z</time></trkpt><trkpt lat="44.11395436856286" lon="10.071831292486188"><ele>543.2</ele><time>2026-05-02T13:13:00Z</time></trkpt><trkpt lat="44.113945788256544" lon="10.071684996620952"><ele>541.0</ele><time>2026-05-02T13:13:01Z</time></trkpt><trkpt lat="44.11389882603658" lon="10.071542992394157"><ele>541.0</ele><time>2026-05-02T13:13:02Z</time></trkpt><trkpt lat="44.11383952470638" lon="10.071408329048504"><ele>541.0</ele><time>2026-05-02T13:13:03Z</time></trkpt><trkpt lat="44.11377399815997" lon="10.071288025648396"><ele>541.0</ele><time>2026-05-02T13:13:04Z</time></trkpt><trkpt lat="44.11374840933648" lon="10.071163961458785"><ele>541.0</ele><time>2026-05-02T13:13:05Z</time></trkpt><trkpt lat="44.11375161453624" lon="10.071044483964668"><ele>541.0</ele><time>2026-05-02T13:13:06Z</time></trkpt><trkpt lat="44.113790224174636" lon="10.070940521806323"><ele>541.0</ele><time>2026-05-02T13:13:07Z</time></trkpt><trkpt lat="44.11386300600191" lon="10.070860049225807"><ele>541.0</ele><time>2026-05-02T13:13:08Z</time></trkpt><trkpt lat="44.11395685082834" lon="10.070797040976874"><ele>541.0</ele><time>2026-05-02T13:13:09Z</time></trkpt><trkpt lat="44.11405461385751" lon="10.070730718427923"><ele>541.0</ele><time>2026-05-02T13:13:10Z</time></trkpt><trkpt lat="44.114166537516105" lon="10.070671656183352"><ele>541.0</ele><time>2026-05-02T13:13:11Z</time></trkpt><trkpt lat="44.114288513359575" lon="10.070615142540234"><ele>544.0</ele><time>2026-05-02T13:13:12Z</time></trkpt><trkpt lat="44.11441311961218" lon="10.070560302330701"><ele>547.0</ele><time>2026-05-02T13:13:13Z</time></trkpt><trkpt lat="44.11453410520329" lon="10.07048755167098"><ele>550.0</ele><time>2026-05-02T13:13:14Z</time></trkpt><trkpt lat="44.1146553968983" lon="10.070387710697482"><ele>553.0</ele><time>2026-05-02T13:13:15Z</time></trkpt><trkpt lat="44.11477319084162" lon="10.070271848609465"><ele>553.0</ele><time>2026-05-02T13:13:16Z</time></trkpt><trkpt lat="44.11489277095752" lon="10.07015460234023"><ele>553.0</ele><time>2026-05-02T13:13:17Z</time></trkpt><trkpt lat="44.11500829381871" lon="10.070055494052548"><ele>553.0</ele><time>2026-05-02T13:13:18Z</time></trkpt><trkpt lat="44.11511737879073" lon="10.069976018504601"><ele>553.0</ele><time>2026-05-02T13:13:19Z</time></trkpt><trkpt lat="44.11519518382177" lon="10.06987575559791"><ele>557.6</ele><time>2026-05-02T13:13:20Z</time></trkpt><trkpt lat="44.11523632811223" lon="10.069767003965872"><ele>562.1999999999999</ele><time>2026-05-02T13:13:21Z</time></trkpt><trkpt lat="44.115207920414335" lon="10.069646485983759"><ele>566.8</ele><time>2026-05-02T13:13:22Z</time></trkpt><trkpt lat="44.115129801724514" lon="10.069560932012008"><ele>571.4</ele><time>2026-05-02T13:13:23Z</time></trkpt><trkpt lat="44.11501146851334" lon="10.069582461069245"><ele>576.0</ele><time>2026-05-02T13:13:24Z</time></trkpt><trkpt lat="44.114904627002396" lon="10.069576693991047"><ele>571.8</ele><time>2026-05-02T13:13:25Z</time></trkpt><trkpt lat="44.11481199341412" lon="10.069504375969514"><ele>567.6</ele><time>2026-05-02T13:13:26Z</time></trkpt><trkpt lat="44.11474023238266" lon="10.069405326244677"><ele>563.4</ele><time>2026-05-02T13:13:27Z</time></trkpt><trkpt lat="44.114696462777964" lon="10.069270869216423"><ele>559.2</ele><time>2026-05-02T13:13:28Z</time></trkpt><trkpt lat="44.1146612858952" lon="10.069108251129869"><ele>555.0</ele><time>2026-05-02T13:13:29Z</time></trkpt><trkpt lat="44.114616042330546" lon="10.068923811740179"><ele>555.0</ele><time>2026-05-02T13:13:30Z</time></trkpt><trkpt lat="44.11456374349432" lon="10.068733782388868"><ele>555.0</ele><time>2026-05-02T13:13:31Z</time></trkpt><trkpt lat="44.11451976194179" lon="10.068561313130415"><ele>555.0</ele><time>2026-05-02T13:13:31.999Z</time></trkpt><trkpt lat="44.11449088318068" lon="10.06841099279721"><ele>555.0</ele><time>2026-05-02T13:13:32.999Z</time></trkpt><trkpt lat="44.11449389377852" lon="10.06826412399114"><ele>553.2</ele><time>2026-05-02T13:13:33.999Z</time></trkpt><trkpt lat="44.114529369447794" lon="10.068107483837013"><ele>551.4</ele><time>2026-05-02T13:13:34.999Z</time></trkpt><trkpt lat="44.114555088543376" lon="10.067952361800714"><ele>549.6</ele><time>2026-05-02T13:13:35.999Z</time></trkpt><trkpt lat="44.114609148427924" lon="10.067841568348385"><ele>547.8</ele><time>2026-05-02T13:13:36.999Z</time></trkpt><trkpt lat="44.11465160959141" lon="10.067744873617235"><ele>546.0</ele><time>2026-05-02T13:13:37.999Z</time></trkpt><trkpt lat="44.114731991071196" lon="10.06770108240746"><ele>546.0</ele><time>2026-05-02T13:13:38.999Z</time></trkpt><trkpt lat="44.114832745945165" lon="10.067679640172885"><ele>546.0</ele><time>2026-05-02T13:13:39.999Z</time></trkpt><trkpt lat="44.11494169880542" lon="10.06765115786899"><ele>546.0</ele><time>2026-05-02T13:13:40.999Z</time></trkpt><trkpt lat="44.1150599618724" lon="10.067604468111558"><ele>546.0</ele><time>2026-05-02T13:13:41.999Z</time></trkpt><trkpt lat="44.11519035193677" lon="10.067582342090141"><ele>551.5</ele><time>2026-05-02T13:13:42.999Z</time></trkpt><trkpt lat="44.11531991932608" lon="10.067516867608415"><ele>557.0</ele><time>2026-05-02T13:13:43.999Z</time></trkpt><trkpt lat="44.11546088408677" lon="10.067486543982517"><ele>562.5</ele><time>2026-05-02T13:13:44.999Z</time></trkpt><trkpt lat="44.115605593932045" lon="10.067452537024199"><ele>568.0</ele><time>2026-05-02T13:13:45.999Z</time></trkpt><trkpt lat="44.115747490257114" lon="10.067403427220254"><ele>573.0</ele><time>2026-05-02T13:13:46.999Z</time></trkpt><trkpt lat="44.11587747406854" lon="10.0673593053967"><ele>578.0</ele><time>2026-05-02T13:13:47.999Z</time></trkpt><trkpt lat="44.11600327084042" lon="10.067348727116338"><ele>583.0</ele><time>2026-05-02T13:13:48.999Z</time></trkpt><trkpt lat="44.11611975727148" lon="10.067388288335174"><ele>588.0</ele><time>2026-05-02T13:13:49.999Z</time></trkpt><trkpt lat="44.1162123425822" lon="10.067442991247484"><ele>588.0</ele><time>2026-05-02T13:13:50.999Z</time></trkpt><trkpt lat="44.116296152252964" lon="10.067475846567147"><ele>588.0</ele><time>2026-05-02T13:13:51.999Z</time></trkpt><trkpt lat="44.11638823949475" lon="10.067447755641378"><ele>588.0</ele><time>2026-05-02T13:13:52.999Z</time></trkpt><trkpt lat="44.116463926822135" lon="10.067348936505427"><ele>588.0</ele><time>2026-05-02T13:13:53.999Z</time></trkpt><trkpt lat="44.11647744795414" lon="10.067165973397612"><ele>588.0</ele><time>2026-05-02T13:13:54.999Z</time></trkpt><trkpt lat="44.11635865749368" lon="10.067023057418892"><ele>588.0</ele><time>2026-05-02T13:13:55.999Z</time></trkpt><trkpt lat="44.11629583775376" lon="10.066890509796721"><ele>588.0</ele><time>2026-05-02T13:13:56.999Z</time></trkpt><trkpt lat="44.116214682199974" lon="10.066752702085033"><ele>588.0</ele><time>2026-05-02T13:13:57.999Z</time></trkpt><trkpt lat="44.116134617112415" lon="10.066609665510889"><ele>588.0</ele><time>2026-05-02T13:13:58.999Z</time></trkpt><trkpt lat="44.11604831522954" lon="10.066446010108399"><ele>582.6666666666666</ele><time>2026-05-02T13:13:59.999Z</time></trkpt><trkpt lat="44.11593879333791" lon="10.066295545451881"><ele>577.3333333333333</ele><time>2026-05-02T13:14:00.999Z</time></trkpt><trkpt lat="44.11578355194104" lon="10.066222164392869"><ele>572.0</ele><time>2026-05-02T13:14:01.999Z</time></trkpt><trkpt lat="44.115632313618974" lon="10.066118199418451"><ele>572.0</ele><time>2026-05-02T13:14:02.999Z</time></trkpt><trkpt lat="44.11550873735278" lon="10.06596266465849"><ele>572.0</ele><time>2026-05-02T13:14:03.999Z</time></trkpt><trkpt lat="44.11539828190508" lon="10.065812781095126"><ele>572.0</ele><time>2026-05-02T13:14:04.999Z</time></trkpt><trkpt lat="44.11528604508597" lon="10.065708491699352"><ele>573.8000000000001</ele><time>2026-05-02T13:14:05.999Z</time></trkpt><trkpt lat="44.115196676767354" lon="10.065604130601077"><ele>575.6</ele><time>2026-05-02T13:14:06.999Z</time></trkpt><trkpt lat="44.11516182264358" lon="10.06545934470592"><ele>577.4000000000001</ele><time>2026-05-02T13:14:07.999Z</time></trkpt><trkpt lat="44.115165275170185" lon="10.065313796515422"><ele>579.2</ele><time>2026-05-02T13:14:08.999Z</time></trkpt><trkpt lat="44.115205629745205" lon="10.065169367813997"><ele>581.0</ele><time>2026-05-02T13:14:09.999Z</time></trkpt><trkpt lat="44.115270407745534" lon="10.065046295209438"><ele>581.0</ele><time>2026-05-02T13:14:10.999Z</time></trkpt><trkpt lat="44.11537725905738" lon="10.06497454498552"><ele>581.0</ele><time>2026-05-02T13:14:11.999Z</time></trkpt><trkpt lat="44.115482681690516" lon="10.064876875565067"><ele>581.0</ele><time>2026-05-02T13:14:12.999Z</time></trkpt><trkpt lat="44.11555789403528" lon="10.06473696150389"><ele>581.0</ele><time>2026-05-02T13:14:13.999Z</time></trkpt><trkpt lat="44.115620595554766" lon="10.06457265113094"><ele>580.0</ele><time>2026-05-02T13:14:14.999Z</time></trkpt><trkpt lat="44.115681987195295" lon="10.064405855123038"><ele>579.0</ele><time>2026-05-02T13:14:15.998Z</time></trkpt><trkpt lat="44.11577989775977" lon="10.064270140190688"><ele>578.0</ele><time>2026-05-02T13:14:16.998Z</time></trkpt><trkpt lat="44.1158810004467" lon="10.06413024888328"><ele>577.0</ele><time>2026-05-02T13:14:17.998Z</time></trkpt><trkpt lat="44.1159775950591" lon="10.064000248846792"><ele>577.0</ele><time>2026-05-02T13:14:18.998Z</time></trkpt><trkpt lat="44.11606745703666" lon="10.063892093634978"><ele>577.0</ele><time>2026-05-02T13:14:19.998Z</time></trkpt><trkpt lat="44.11616307058829" lon="10.063805621567505"><ele>577.0</ele><time>2026-05-02T13:14:20.998Z</time></trkpt><trkpt lat="44.11627998006891" lon="10.06377799849172"><ele>577.0</ele><time>2026-05-02T13:14:21.998Z</time></trkpt><trkpt lat="44.11639462900297" lon="10.063769012805475"><ele>577.0</ele><time>2026-05-02T13:14:22.998Z</time></trkpt><trkpt lat="44.11650966070703" lon="10.063785217673844"><ele>577.0</ele><time>2026-05-02T13:14:23.998Z</time></trkpt><trkpt lat="44.11662220733677" lon="10.063842741190703"><ele>577.0</ele><time>2026-05-02T13:14:24.998Z</time></trkpt><trkpt lat="44.11673078757335" lon="10.063934474750813"><ele>577.0</ele><time>2026-05-02T13:14:25.998Z</time></trkpt><trkpt lat="44.11682981310812" lon="10.064044695892893"><ele>585.5</ele><time>2026-05-02T13:14:26.998Z</time></trkpt><trkpt lat="44.1169222386094" lon="10.064172188670677"><ele>594.0</ele><time>2026-05-02T13:14:27.998Z</time></trkpt><trkpt lat="44.11701054307145" lon="10.064314856827938"><ele>602.5</ele><time>2026-05-02T13:14:28.998Z</time></trkpt><trkpt lat="44.11710093123242" lon="10.064459101857729"><ele>611.0</ele><time>2026-05-02T13:14:29.998Z</time></trkpt><trkpt lat="44.11719034587084" lon="10.064606432526976"><ele>611.0</ele><time>2026-05-02T13:14:30.998Z</time></trkpt><trkpt lat="44.11727920381598" lon="10.064749330647503"><ele>611.0</ele><time>2026-05-02T13:14:31.998Z</time></trkpt><trkpt lat="44.11737065537051" lon="10.064878059507683"><ele>611.0</ele><time>2026-05-02T13:14:32.998Z</time></trkpt><trkpt lat="44.11747619040063" lon="10.064980877989914"><ele>611.0</ele><time>2026-05-02T13:14:33.998Z</time></trkpt><trkpt lat="44.11759700639503" lon="10.065030650778246"><ele>614.5</ele><time>2026-05-02T13:14:34.998Z</time></trkpt><trkpt lat="44.11772804387834" lon="10.0650227141932"><ele>618.0</ele><time>2026-05-02T13:14:35.998Z</time></trkpt><trkpt lat="44.11786198132074" lon="10.064988883122544"><ele>621.5</ele><time>2026-05-02T13:14:36.998Z</time></trkpt><trkpt lat="44.11798941326413" lon="10.064958873596215"><ele>625.0</ele><time>2026-05-02T13:14:37.998Z</time></trkpt><trkpt lat="44.11810900742112" lon="10.06496466735644"><ele>625.0</ele><time>2026-05-02T13:14:38.998Z</time></trkpt><trkpt lat="44.11822415739095" lon="10.065004501779901"><ele>625.0</ele><time>2026-05-02T13:14:39.998Z</time></trkpt><trkpt lat="44.11833564876403" lon="10.06505709074243"><ele>625.0</ele><time>2026-05-02T13:14:40.998Z</time></trkpt><trkpt lat="44.11844971479034" lon="10.06507763571433"><ele>625.0</ele><time>2026-05-02T13:14:41.998Z</time></trkpt><trkpt lat="44.11856073051067" lon="10.064999740000381"><ele>611.5</ele><time>2026-05-02T13:14:42.998Z</time></trkpt><trkpt lat="44.118671496337285" lon="10.064924054907449"><ele>598.0</ele><time>2026-05-02T13:14:43.998Z</time></trkpt><trkpt lat="44.11877950887953" lon="10.064888850420973"><ele>584.5</ele><time>2026-05-02T13:14:44.998Z</time></trkpt><trkpt lat="44.118896133031306" lon="10.064885649800356"><ele>571.0</ele><time>2026-05-02T13:14:45.998Z</time></trkpt><trkpt lat="44.11901458556302" lon="10.064908990982724"><ele>581.75</ele><time>2026-05-02T13:14:46.998Z</time></trkpt><trkpt lat="44.11912752712189" lon="10.064989873763539"><ele>592.5</ele><time>2026-05-02T13:14:47.998Z</time></trkpt><trkpt lat="44.11923856783629" lon="10.065072138899254"><ele>603.25</ele><time>2026-05-02T13:14:48.998Z</time></trkpt><trkpt lat="44.11936178393514" lon="10.065127341389601"><ele>614.0</ele><time>2026-05-02T13:14:49.998Z</time></trkpt><trkpt lat="44.11949208003857" lon="10.065134842662642"><ele>614.0</ele><time>2026-05-02T13:14:50.998Z</time></trkpt><trkpt lat="44.119625507831515" lon="10.065161706374363"><ele>614.0</ele><time>2026-05-02T13:14:51.998Z</time></trkpt><trkpt lat="44.119769265443075" lon="10.065181780329919"><ele>614.0</ele><time>2026-05-02T13:14:52.998Z</time></trkpt><trkpt lat="44.119892634149714" lon="10.065252242131612"><ele>614.0</ele><time>2026-05-02T13:14:53.998Z</time></trkpt><trkpt lat="44.12000838556827" lon="10.065347881157805"><ele>613.25</ele><time>2026-05-02T13:14:54.998Z</time></trkpt><trkpt lat="44.120117887612615" lon="10.065448896317996"><ele>612.5</ele><time>2026-05-02T13:14:55.998Z</time></trkpt><trkpt lat="44.12022234544138" lon="10.065564107927386"><ele>611.75</ele><time>2026-05-02T13:14:56.998Z</time></trkpt><trkpt lat="44.12031771317701" lon="10.065679207626905"><ele>611.0</ele><time>2026-05-02T13:14:57.998Z</time></trkpt><trkpt lat="44.120403965864995" lon="10.065773580968205"><ele>611.6</ele><time>2026-05-02T13:14:58.998Z</time></trkpt><trkpt lat="44.12049891100178" lon="10.065822524552186"><ele>612.2</ele><time>2026-05-02T13:14:59.998Z</time></trkpt><trkpt lat="44.12058648479149" lon="10.065820487725393"><ele>612.8</ele><time>2026-05-02T13:15:00.997Z</time></trkpt><trkpt lat="44.120673232526066" lon="10.065782375408638"><ele>613.4</ele><time>2026-05-02T13:15:02Z</time></trkpt><trkpt lat="44.12074442441298" lon="10.065661655675077"><ele>614.0</ele><time>2026-05-02T13:15:03Z</time></trkpt><trkpt lat="44.120780071659226" lon="10.065502544671688"><ele>614.0</ele><time>2026-05-02T13:15:04Z</time></trkpt><trkpt lat="44.120784387035826" lon="10.065332500810563"><ele>614.0</ele><time>2026-05-02T13:15:05Z</time></trkpt><trkpt lat="44.12079024426639" lon="10.065169891924262"><ele>614.0</ele><time>2026-05-02T13:15:06Z</time></trkpt><trkpt lat="44.12080474729705" lon="10.065024890526441"><ele>614.0</ele><time>2026-05-02T13:15:07Z</time></trkpt><trkpt lat="44.12084815828379" lon="10.064907144831263"><ele>614.0</ele><time>2026-05-02T13:15:08Z</time></trkpt><trkpt lat="44.12092679868701" lon="10.064806385746438"><ele>608.75</ele><time>2026-05-02T13:15:09Z</time></trkpt><trkpt lat="44.12102086298856" lon="10.064697253518647"><ele>603.5</ele><time>2026-05-02T13:15:10Z</time></trkpt><trkpt lat="44.12111644770919" lon="10.064569713594802"><ele>598.25</ele><time>2026-05-02T13:15:11Z</time></trkpt><trkpt lat="44.12122353040202" lon="10.064453787537932"><ele>593.0</ele><time>2026-05-02T13:15:12Z</time></trkpt><trkpt lat="44.121321129742164" lon="10.064334845215589"><ele>593.0</ele><time>2026-05-02T13:15:13Z</time></trkpt><trkpt lat="44.121386027402785" lon="10.064188981139706"><ele>593.0</ele><time>2026-05-02T13:15:14Z</time></trkpt><trkpt lat="44.12140172897337" lon="10.064021307133986"><ele>593.0</ele><time>2026-05-02T13:15:15Z</time></trkpt><trkpt lat="44.12137218497107" lon="10.063859314085411"><ele>593.0</ele><time>2026-05-02T13:15:16Z</time></trkpt><trkpt lat="44.12132512636364" lon="10.06371014485939"><ele>601.25</ele><time>2026-05-02T13:15:17Z</time></trkpt><trkpt lat="44.12121010614815" lon="10.063635515109654"><ele>609.5</ele><time>2026-05-02T13:15:18Z</time></trkpt><trkpt lat="44.12109272863208" lon="10.063590750441728"><ele>617.75</ele><time>2026-05-02T13:15:19Z</time></trkpt><trkpt lat="44.1209727307417" lon="10.063577902183036"><ele>626.0</ele><time>2026-05-02T13:15:20Z</time></trkpt><trkpt lat="44.12085343232877" lon="10.063511454016824"><ele>626.0</ele><time>2026-05-02T13:15:21Z</time></trkpt><trkpt lat="44.120738447523046" lon="10.063432134272135"><ele>626.0</ele><time>2026-05-02T13:15:22Z</time></trkpt><trkpt lat="44.12063879289895" lon="10.063326805472311"><ele>626.0</ele><time>2026-05-02T13:15:23Z</time></trkpt><trkpt lat="44.120549845416456" lon="10.063204845425007"><ele>626.0</ele><time>2026-05-02T13:15:24Z</time></trkpt><trkpt lat="44.12049147148002" lon="10.06304690198549"><ele>619.75</ele><time>2026-05-02T13:15:25Z</time></trkpt><trkpt lat="44.12045060790508" lon="10.062868487813857"><ele>613.5</ele><time>2026-05-02T13:15:26Z</time></trkpt><trkpt lat="44.12041397916011" lon="10.062687727752191"><ele>607.25</ele><time>2026-05-02T13:15:27Z</time></trkpt><trkpt lat="44.12037369703721" lon="10.062513189066525"><ele>601.0</ele><time>2026-05-02T13:15:28Z</time></trkpt><trkpt lat="44.12035238443775" lon="10.062335551508259"><ele>601.0</ele><time>2026-05-02T13:15:29Z</time></trkpt><trkpt lat="44.120380519965636" lon="10.062159205670989"><ele>601.0</ele><time>2026-05-02T13:15:30Z</time></trkpt><trkpt lat="44.12038077587689" lon="10.061977133221777"><ele>601.0</ele><time>2026-05-02T13:15:31Z</time></trkpt><trkpt lat="44.12040326643474" lon="10.06180291690971"><ele>601.0</ele><time>2026-05-02T13:15:32Z</time></trkpt><trkpt lat="44.12043531028291" lon="10.061630573671243"><ele>596.25</ele><time>2026-05-02T13:15:33Z</time></trkpt><trkpt lat="44.120500349499586" lon="10.061486272557758"><ele>591.5</ele><time>2026-05-02T13:15:34Z</time></trkpt><trkpt lat="44.12057610561788" lon="10.061343356260597"><ele>586.75</ele><time>2026-05-02T13:15:35Z</time></trkpt><trkpt lat="44.120655783083635" lon="10.061198565067915"><ele>582.0</ele><time>2026-05-02T13:15:36Z</time></trkpt><trkpt lat="44.120725422239815" lon="10.061037977654305"><ele>592.0</ele><time>2026-05-02T13:15:37Z</time></trkpt><trkpt lat="44.12080323749683" lon="10.060882929910994"><ele>602.0</ele><time>2026-05-02T13:15:38Z</time></trkpt><trkpt lat="44.12088216991147" lon="10.060733414740271"><ele>612.0</ele><time>2026-05-02T13:15:39Z</time></trkpt><trkpt lat="44.12093876348222" lon="10.060569705211682"><ele>622.0</ele><time>2026-05-02T13:15:40Z</time></trkpt><trkpt lat="44.12099683870983" lon="10.060437197858278"><ele>622.0</ele><time>2026-05-02T13:15:41Z</time></trkpt><trkpt lat="44.121055322031516" lon="10.060336814685646"><ele>622.0</ele><time>2026-05-02T13:15:42Z</time></trkpt><trkpt lat="44.121122630970916" lon="10.060273408672966"><ele>622.0</ele><time>2026-05-02T13:15:42.999Z</time></trkpt><trkpt lat="44.12120493764846" lon="10.060226974680898"><ele>622.0</ele><time>2026-05-02T13:15:43.999Z</time></trkpt><trkpt lat="44.12127843305737" lon="10.060150827375308"><ele>622.0</ele><time>2026-05-02T13:15:44.999Z</time></trkpt><trkpt lat="44.12129954655883" lon="10.059987889257563"><ele>623.4</ele><time>2026-05-02T13:15:45.999Z</time></trkpt><trkpt lat="44.1213259582152" lon="10.059843503029434"><ele>624.8000000000001</ele><time>2026-05-02T13:15:46.999Z</time></trkpt><trkpt lat="44.121346521138065" lon="10.059688987809366"><ele>626.2</ele><time>2026-05-02T13:15:47.999Z</time></trkpt><trkpt lat="44.12135444780015" lon="10.059551285017108"><ele>627.6</ele><time>2026-05-02T13:15:48.999Z</time></trkpt><trkpt lat="44.12128652205916" lon="10.05942018944718"><ele>629.0</ele><time>2026-05-02T13:15:49.999Z</time></trkpt><trkpt lat="44.12118517391813" lon="10.059349666247448"><ele>629.0</ele><time>2026-05-02T13:15:50.999Z</time></trkpt><trkpt lat="44.12111386645363" lon="10.059235480807555"><ele>629.0</ele><time>2026-05-02T13:15:51.999Z</time></trkpt><trkpt lat="44.12105569404918" lon="10.059141439724497"><ele>629.0</ele><time>2026-05-02T13:15:52.999Z</time></trkpt><trkpt lat="44.12102592823714" lon="10.059055295628742"><ele>629.0</ele><time>2026-05-02T13:15:53.999Z</time></trkpt><trkpt lat="44.121019608190174" lon="10.058962840836424"><ele>629.0</ele><time>2026-05-02T13:15:54.999Z</time></trkpt><trkpt lat="44.121075719973476" lon="10.058859910709101"><ele>629.0</ele><time>2026-05-02T13:15:55.999Z</time></trkpt><trkpt lat="44.12115035215013" lon="10.058777234823733"><ele>625.5</ele><time>2026-05-02T13:15:56.999Z</time></trkpt><trkpt lat="44.12122990525074" lon="10.058692050465236"><ele>622.0</ele><time>2026-05-02T13:15:57.999Z</time></trkpt><trkpt lat="44.12132723399367" lon="10.058603459348223"><ele>618.5</ele><time>2026-05-02T13:15:58.999Z</time></trkpt><trkpt lat="44.1214127176326" lon="10.05848564454357"><ele>615.0</ele><time>2026-05-02T13:15:59.999Z</time></trkpt><trkpt lat="44.12148192923784" lon="10.058334816956503"><ele>609.0</ele><time>2026-05-02T13:16:00.999Z</time></trkpt><trkpt lat="44.12154938280184" lon="10.058174370351272"><ele>603.0</ele><time>2026-05-02T13:16:01.999Z</time></trkpt><trkpt lat="44.121619302141035" lon="10.058003419753216"><ele>597.0</ele><time>2026-05-02T13:16:02.999Z</time></trkpt><trkpt lat="44.121685252347" lon="10.057821256556617"><ele>591.0</ele><time>2026-05-02T13:16:03.999Z</time></trkpt><trkpt lat="44.12175300742328" lon="10.057633031656321"><ele>605.0</ele><time>2026-05-02T13:16:04.999Z</time></trkpt><trkpt lat="44.12182693140461" lon="10.057443339093705"><ele>619.0</ele><time>2026-05-02T13:16:05.999Z</time></trkpt><trkpt lat="44.121887708080585" lon="10.057242581550012"><ele>633.0</ele><time>2026-05-02T13:16:06.999Z</time></trkpt><trkpt lat="44.12193741117747" lon="10.057037445857995"><ele>633.0</ele><time>2026-05-02T13:16:07.999Z</time></trkpt><trkpt lat="44.12197844529691" lon="10.056831809344486"><ele>633.0</ele><time>2026-05-02T13:16:08.999Z</time></trkpt><trkpt lat="44.12202682918266" lon="10.056631498299845"><ele>633.0</ele><time>2026-05-02T13:16:09.999Z</time></trkpt><trkpt lat="44.1220313477475" lon="10.056422319953125"><ele>633.0</ele><time>2026-05-02T13:16:10.999Z</time></trkpt><trkpt lat="44.121977256763046" lon="10.05622434269166"><ele>633.0</ele><time>2026-05-02T13:16:11.999Z</time></trkpt><trkpt lat="44.1219380915533" lon="10.056051141583852"><ele>633.0</ele><time>2026-05-02T13:16:12.999Z</time></trkpt><trkpt lat="44.121878527492456" lon="10.055928813209231"><ele>633.0</ele><time>2026-05-02T13:16:13.999Z</time></trkpt><trkpt lat="44.121860163309535" lon="10.055812719643786"><ele>633.0</ele><time>2026-05-02T13:16:14.999Z</time></trkpt><trkpt lat="44.12187399446481" lon="10.055716989093513"><ele>633.0</ele><time>2026-05-02T13:16:15.999Z</time></trkpt><trkpt lat="44.12194888033539" lon="10.055681924815818"><ele>633.0</ele><time>2026-05-02T13:16:16.999Z</time></trkpt><trkpt lat="44.12205399872625" lon="10.05571123988536"><ele>633.0</ele><time>2026-05-02T13:16:18.999Z</time></trkpt><trkpt lat="44.1220830388258" lon="10.055809450343073"><ele>633.0</ele><time>2026-05-02T13:16:19.999Z</time></trkpt><trkpt lat="44.122086764827735" lon="10.05592805263613"><ele>633.0</ele><time>2026-05-02T13:16:20.999Z</time></trkpt><trkpt lat="44.12208819217279" lon="10.056051500233513"><ele>633.0</ele><time>2026-05-02T13:16:21.999Z</time></trkpt><trkpt lat="44.12210075259098" lon="10.056185568126608"><ele>633.0</ele><time>2026-05-02T13:16:22.999Z</time></trkpt><trkpt lat="44.12212596347458" lon="10.056324229652189"><ele>633.0</ele><time>2026-05-02T13:16:23.999Z</time></trkpt><trkpt lat="44.12215100040644" lon="10.056472566330516"><ele>633.0</ele><time>2026-05-02T13:16:24.998Z</time></trkpt><trkpt lat="44.12218053028054" lon="10.056627842306035"><ele>633.0</ele><time>2026-05-02T13:16:25.998Z</time></trkpt><trkpt lat="44.122206366062436" lon="10.056774950515486"><ele>633.0</ele><time>2026-05-02T13:16:26.998Z</time></trkpt><trkpt lat="44.12220924484599" lon="10.056932896171304"><ele>633.0</ele><time>2026-05-02T13:16:27.998Z</time></trkpt><trkpt lat="44.1221889014831" lon="10.057092239356948"><ele>633.0</ele><time>2026-05-02T13:16:28.998Z</time></trkpt><trkpt lat="44.122159792245625" lon="10.057257418139763"><ele>633.0</ele><time>2026-05-02T13:16:29.998Z</time></trkpt><trkpt lat="44.12213445680687" lon="10.057428009631652"><ele>635.0</ele><time>2026-05-02T13:16:30.998Z</time></trkpt><trkpt lat="44.12210964107533" lon="10.057609046221511"><ele>637.0</ele><time>2026-05-02T13:16:31.998Z</time></trkpt><trkpt lat="44.122082821146236" lon="10.057790921697746"><ele>639.0</ele><time>2026-05-02T13:16:32.998Z</time></trkpt><trkpt lat="44.122052699158324" lon="10.057975178417111"><ele>641.0</ele><time>2026-05-02T13:16:33.998Z</time></trkpt><trkpt lat="44.12201728107553" lon="10.058158546043266"><ele>646.25</ele><time>2026-05-02T13:16:34.998Z</time></trkpt><trkpt lat="44.12197298133841" lon="10.05834038704186"><ele>651.5</ele><time>2026-05-02T13:16:35.998Z</time></trkpt><trkpt lat="44.12191278378292" lon="10.058510148977101"><ele>656.75</ele><time>2026-05-02T13:16:36.998Z</time></trkpt><trkpt lat="44.12183822432056" lon="10.058660524374057"><ele>662.0</ele><time>2026-05-02T13:16:37.998Z</time></trkpt><trkpt lat="44.12176936774724" lon="10.058800995859952"><ele>662.0</ele><time>2026-05-02T13:16:38.998Z</time></trkpt><trkpt lat="44.12173472551127" lon="10.058946828345263"><ele>662.0</ele><time>2026-05-02T13:16:39.998Z</time></trkpt><trkpt lat="44.12173470552733" lon="10.059095553864775"><ele>662.0</ele><time>2026-05-02T13:16:40.998Z</time></trkpt><trkpt lat="44.12176960436498" lon="10.059244621151512"><ele>662.0</ele><time>2026-05-02T13:16:41.998Z</time></trkpt><trkpt lat="44.12181619123083" lon="10.059404560426785"><ele>665.25</ele><time>2026-05-02T13:16:42.998Z</time></trkpt><trkpt lat="44.12184460053668" lon="10.05957310365051"><ele>668.5</ele><time>2026-05-02T13:16:43.998Z</time></trkpt><trkpt lat="44.12186634198634" lon="10.059755241617696"><ele>671.75</ele><time>2026-05-02T13:16:44.998Z</time></trkpt><trkpt lat="44.121878460284634" lon="10.059951012508064"><ele>675.0</ele><time>2026-05-02T13:16:45.998Z</time></trkpt><trkpt lat="44.12187301777825" lon="10.060150502205174"><ele>678.0</ele><time>2026-05-02T13:16:46.998Z</time></trkpt><trkpt lat="44.121850150495895" lon="10.060353577231899"><ele>681.0</ele><time>2026-05-02T13:16:47.998Z</time></trkpt><trkpt lat="44.12180652683041" lon="10.060556389263173"><ele>684.0</ele><time>2026-05-02T13:16:48.998Z</time></trkpt><trkpt lat="44.121750577383665" lon="10.060755619408768"><ele>688.3333333333334</ele><time>2026-05-02T13:16:49.998Z</time></trkpt><trkpt lat="44.121696634219916" lon="10.060958990585183"><ele>692.6666666666667</ele><time>2026-05-02T13:16:50.998Z</time></trkpt><trkpt lat="44.12164879993483" lon="10.061167447329531"><ele>697.0</ele><time>2026-05-02T13:16:51.998Z</time></trkpt><trkpt lat="44.121601144160145" lon="10.061369106263594"><ele>697.75</ele><time>2026-05-02T13:16:52.998Z</time></trkpt><trkpt lat="44.12155938639939" lon="10.061559767732605"><ele>698.5</ele><time>2026-05-02T13:16:53.998Z</time></trkpt><trkpt lat="44.12153690993578" lon="10.061734192738356"><ele>699.25</ele><time>2026-05-02T13:16:54.998Z</time></trkpt><trkpt lat="44.12154595600456" lon="10.06188201897454"><ele>700.0</ele><time>2026-05-02T13:16:55.998Z</time></trkpt><trkpt lat="44.12159086375323" lon="10.062004886149376"><ele>700.0</ele><time>2026-05-02T13:16:56.998Z</time></trkpt><trkpt lat="44.121672144650624" lon="10.062094208427007"><ele>700.0</ele><time>2026-05-02T13:16:57.998Z</time></trkpt><trkpt lat="44.12177618200383" lon="10.062138441316803"><ele>700.0</ele><time>2026-05-02T13:16:58.998Z</time></trkpt><trkpt lat="44.12188127019112" lon="10.062199743421758"><ele>700.0</ele><time>2026-05-02T13:16:59.998Z</time></trkpt><trkpt lat="44.1220096192864" lon="10.062239809155455"><ele>700.0</ele><time>2026-05-02T13:17:00.998Z</time></trkpt><trkpt lat="44.12213426938473" lon="10.062281449872243"><ele>700.0</ele><time>2026-05-02T13:17:01.998Z</time></trkpt><trkpt lat="44.122267538225735" lon="10.062306983041273"><ele>700.0</ele><time>2026-05-02T13:17:02.998Z</time></trkpt><trkpt lat="44.1223903904744" lon="10.062356134139744"><ele>700.0</ele><time>2026-05-02T13:17:03.998Z</time></trkpt><trkpt lat="44.12248426911401" lon="10.062450900677117"><ele>704.5</ele><time>2026-05-02T13:17:04.998Z</time></trkpt><trkpt lat="44.122550322961835" lon="10.062585471740201"><ele>709.0</ele><time>2026-05-02T13:17:05.998Z</time></trkpt><trkpt lat="44.122585470807444" lon="10.062740594375034"><ele>713.5</ele><time>2026-05-02T13:17:06.998Z</time></trkpt><trkpt lat="44.12260894911956" lon="10.062914369097731"><ele>718.0</ele><time>2026-05-02T13:17:08.001Z</time></trkpt><trkpt lat="44.122641637644975" lon="10.063092083238868"><ele>718.0</ele><time>2026-05-02T13:17:09.001Z</time></trkpt><trkpt lat="44.12265696247164" lon="10.063272091519352"><ele>718.0</ele><time>2026-05-02T13:17:10.001Z</time></trkpt><trkpt lat="44.12267165469661" lon="10.06344466918911"><ele>718.0</ele><time>2026-05-02T13:17:11.001Z</time></trkpt><trkpt lat="44.12268089945187" lon="10.063609897302475"><ele>718.0</ele><time>2026-05-02T13:17:12.001Z</time></trkpt><trkpt lat="44.12273539004162" lon="10.063760073002978"><ele>713.75</ele><time>2026-05-02T13:17:13.001Z</time></trkpt><trkpt lat="44.12281648011977" lon="10.06389920923498"><ele>709.5</ele><time>2026-05-02T13:17:14.001Z</time></trkpt><trkpt lat="44.122894437632674" lon="10.064052202385845"><ele>705.25</ele><time>2026-05-02T13:17:15.001Z</time></trkpt><trkpt lat="44.12297110859864" lon="10.064215854697169"><ele>701.0</ele><time>2026-05-02T13:17:16.001Z</time></trkpt><trkpt lat="44.123037411272264" lon="10.06439283231657"><ele>700.0</ele><time>2026-05-02T13:17:17.001Z</time></trkpt><trkpt lat="44.123081880071716" lon="10.06457719079878"><ele>699.0</ele><time>2026-05-02T13:17:18.001Z</time></trkpt><trkpt lat="44.12312348364363" lon="10.064768340753945"><ele>698.0</ele><time>2026-05-02T13:17:19Z</time></trkpt><trkpt lat="44.123159292536336" lon="10.064952767786313"><ele>697.0</ele><time>2026-05-02T13:17:20Z</time></trkpt><trkpt lat="44.123186434835716" lon="10.065114202535664"><ele>697.0</ele><time>2026-05-02T13:17:21Z</time></trkpt><trkpt lat="44.12321002807953" lon="10.06526040870268"><ele>697.0</ele><time>2026-05-02T13:17:22Z</time></trkpt><trkpt lat="44.12322890113769" lon="10.065391331093943"><ele>697.0</ele><time>2026-05-02T13:17:23Z</time></trkpt><trkpt lat="44.12322266760466" lon="10.065509585033157"><ele>697.0</ele><time>2026-05-02T13:17:24Z</time></trkpt><trkpt lat="44.123185851072066" lon="10.065608318037434"><ele>697.0</ele><time>2026-05-02T13:17:25Z</time></trkpt><trkpt lat="44.12311946654978" lon="10.065656439241017"><ele>697.0</ele><time>2026-05-02T13:17:26Z</time></trkpt><trkpt lat="44.123026043662016" lon="10.06566251575281"><ele>697.0</ele><time>2026-05-02T13:17:27Z</time></trkpt><trkpt lat="44.122931432304654" lon="10.065676207144254"><ele>697.0</ele><time>2026-05-02T13:17:28Z</time></trkpt><trkpt lat="44.122839554172614" lon="10.065717273765912"><ele>697.0</ele><time>2026-05-02T13:17:29Z</time></trkpt><trkpt lat="44.12274358449858" lon="10.065794098413928"><ele>697.0</ele><time>2026-05-02T13:17:30Z</time></trkpt><trkpt lat="44.122646289747884" lon="10.065884538594426"><ele>697.0</ele><time>2026-05-02T13:17:31Z</time></trkpt><trkpt lat="44.122568938659356" lon="10.065971694581878"><ele>703.75</ele><time>2026-05-02T13:17:32Z</time></trkpt><trkpt lat="44.12250684600527" lon="10.06610480364225"><ele>710.5</ele><time>2026-05-02T13:17:33Z</time></trkpt><trkpt lat="44.12247700628174" lon="10.066279387704846"><ele>717.25</ele><time>2026-05-02T13:17:34Z</time></trkpt><trkpt lat="44.12244542351921" lon="10.066449820521406"><ele>724.0</ele><time>2026-05-02T13:17:35Z</time></trkpt><trkpt lat="44.12240435196378" lon="10.066635806208664"><ele>720.25</ele><time>2026-05-02T13:17:36Z</time></trkpt><trkpt lat="44.122336707407214" lon="10.066807964670382"><ele>716.5</ele><time>2026-05-02T13:17:37Z</time></trkpt><trkpt lat="44.12225314038506" lon="10.066972769433873"><ele>712.75</ele><time>2026-05-02T13:17:38Z</time></trkpt><trkpt lat="44.12216905758791" lon="10.067137757363232"><ele>709.0</ele><time>2026-05-02T13:17:39Z</time></trkpt><trkpt lat="44.12209352310766" lon="10.067309000659098"><ele>715.5</ele><time>2026-05-02T13:17:40Z</time></trkpt><trkpt lat="44.12200835827954" lon="10.067482786161184"><ele>722.0</ele><time>2026-05-02T13:17:41Z</time></trkpt><trkpt lat="44.12192177338513" lon="10.067652819196402"><ele>728.5</ele><time>2026-05-02T13:17:42Z</time></trkpt><trkpt lat="44.12184753843099" lon="10.067820509234505"><ele>735.0</ele><time>2026-05-02T13:17:43Z</time></trkpt><trkpt lat="44.121767896028985" lon="10.067976283038574"><ele>735.0</ele><time>2026-05-02T13:17:44Z</time></trkpt><trkpt lat="44.121673782648855" lon="10.068099287155672"><ele>735.0</ele><time>2026-05-02T13:17:45Z</time></trkpt><trkpt lat="44.1215606514708" lon="10.068190691463492"><ele>735.0</ele><time>2026-05-02T13:17:46Z</time></trkpt><trkpt lat="44.12145314781482" lon="10.068285191127142"><ele>735.0</ele><time>2026-05-02T13:17:47Z</time></trkpt><trkpt lat="44.12134985051659" lon="10.06839371205983"><ele>735.25</ele><time>2026-05-02T13:17:48Z</time></trkpt><trkpt lat="44.12124917674015" lon="10.068509815880724"><ele>735.5</ele><time>2026-05-02T13:17:49Z</time></trkpt><trkpt lat="44.121146811559875" lon="10.068613342648009"><ele>735.75</ele><time>2026-05-02T13:17:50Z</time></trkpt><trkpt lat="44.121040229247114" lon="10.068706616578872"><ele>736.0</ele><time>2026-05-02T13:17:51Z</time></trkpt><trkpt lat="44.12093613174489" lon="10.068796629001296"><ele>736.0</ele><time>2026-05-02T13:17:52Z</time></trkpt><trkpt lat="44.120849331327335" lon="10.068902193345144"><ele>736.0</ele><time>2026-05-02T13:17:52.999Z</time></trkpt><trkpt lat="44.120787061329025" lon="10.06902341314716"><ele>736.0</ele><time>2026-05-02T13:17:53.999Z</time></trkpt><trkpt lat="44.1207529884114" lon="10.069148660459378"><ele>736.0</ele><time>2026-05-02T13:17:54.999Z</time></trkpt><trkpt lat="44.120725790454735" lon="10.069274732853883"><ele>736.0</ele><time>2026-05-02T13:17:55.999Z</time></trkpt><trkpt lat="44.120681879970945" lon="10.069382393414434"><ele>738.8333333333334</ele><time>2026-05-02T13:17:56.999Z</time></trkpt><trkpt lat="44.12061558138322" lon="10.069466715468437"><ele>741.6666666666667</ele><time>2026-05-02T13:17:57.999Z</time></trkpt><trkpt lat="44.1205412684409" lon="10.069529045795788"><ele>744.5</ele><time>2026-05-02T13:17:58.999Z</time></trkpt><trkpt lat="44.12046381532923" lon="10.069571688246024"><ele>747.3333333333334</ele><time>2026-05-02T13:17:59.999Z</time></trkpt><trkpt lat="44.12039114532984" lon="10.069619528510085"><ele>750.1666666666666</ele><time>2026-05-02T13:18:00.999Z</time></trkpt><trkpt lat="44.12032083620419" lon="10.069668934612363"><ele>753.0</ele><time>2026-05-02T13:18:01.999Z</time></trkpt><trkpt lat="44.12025219668867" lon="10.069720587593197"><ele>753.0</ele><time>2026-05-02T13:18:02.999Z</time></trkpt><trkpt lat="44.120200012902295" lon="10.069785419632186"><ele>753.0</ele><time>2026-05-02T13:18:03.999Z</time></trkpt><trkpt lat="44.120171210441356" lon="10.069866803111577"><ele>753.0</ele><time>2026-05-02T13:18:04.999Z</time></trkpt><trkpt lat="44.1201714408245" lon="10.069967075060578"><ele>753.0</ele><time>2026-05-02T13:18:05.999Z</time></trkpt><trkpt lat="44.12018899967414" lon="10.07008301423311"><ele>753.0</ele><time>2026-05-02T13:18:06.999Z</time></trkpt><trkpt lat="44.12021029980095" lon="10.070212511718248"><ele>753.0</ele><time>2026-05-02T13:18:07.999Z</time></trkpt><trkpt lat="44.12022620652129" lon="10.070345815432324"><ele>751.4</ele><time>2026-05-02T13:18:08.999Z</time></trkpt><trkpt lat="44.12023493417025" lon="10.070478085851244"><ele>749.8</ele><time>2026-05-02T13:18:09.999Z</time></trkpt><trkpt lat="44.12024258528982" lon="10.070607531205686"><ele>748.2</ele><time>2026-05-02T13:18:10.999Z</time></trkpt><trkpt lat="44.120259206046384" lon="10.070744538249484"><ele>746.6</ele><time>2026-05-02T13:18:11.999Z</time></trkpt><trkpt lat="44.12029379911481" lon="10.070882499695646"><ele>745.0</ele><time>2026-05-02T13:18:12.999Z</time></trkpt><trkpt lat="44.12034772061255" lon="10.071011894573548"><ele>743.8</ele><time>2026-05-02T13:18:13.999Z</time></trkpt><trkpt lat="44.12040628993108" lon="10.071129246751617"><ele>742.6</ele><time>2026-05-02T13:18:14.999Z</time></trkpt><trkpt lat="44.120458703522104" lon="10.07124801493616"><ele>741.4000000000001</ele><time>2026-05-02T13:18:15.999Z</time></trkpt><trkpt lat="44.120498538188414" lon="10.071361486953391"><ele>740.2</ele><time>2026-05-02T13:18:16.999Z</time></trkpt><trkpt lat="44.12052271118506" lon="10.07147894117101"><ele>739.0</ele><time>2026-05-02T13:18:17.999Z</time></trkpt><trkpt lat="44.12053106659212" lon="10.071597503420639"><ele>737.2</ele><time>2026-05-02T13:18:18.999Z</time></trkpt><trkpt lat="44.120537130946985" lon="10.071721438871649"><ele>735.4000000000001</ele><time>2026-05-02T13:18:19.999Z</time></trkpt><trkpt lat="44.12055276114579" lon="10.07184611052779"><ele>733.6</ele><time>2026-05-02T13:18:20.999Z</time></trkpt><trkpt lat="44.12058557723698" lon="10.071969403359256"><ele>731.8</ele><time>2026-05-02T13:18:21.999Z</time></trkpt><trkpt lat="44.12063722350871" lon="10.072093022563054"><ele>730.0</ele><time>2026-05-02T13:18:22.999Z</time></trkpt><trkpt lat="44.12069183400519" lon="10.072207607334017"><ele>737.4</ele><time>2026-05-02T13:18:23.999Z</time></trkpt><trkpt lat="44.12074922660057" lon="10.072322588021356"><ele>744.8</ele><time>2026-05-02T13:18:24.999Z</time></trkpt><trkpt lat="44.12080075764861" lon="10.072430963668458"><ele>752.2</ele><time>2026-05-02T13:18:25.999Z</time></trkpt><trkpt lat="44.12084542245472" lon="10.07254328773743"><ele>759.6</ele><time>2026-05-02T13:18:26.999Z</time></trkpt><trkpt lat="44.12088555585656" lon="10.072669955675803"><ele>767.0</ele><time>2026-05-02T13:18:27.999Z</time></trkpt><trkpt lat="44.12091631777943" lon="10.072804907165764"><ele>767.0</ele><time>2026-05-02T13:18:28.999Z</time></trkpt><trkpt lat="44.12093966706955" lon="10.072940681653478"><ele>767.0</ele><time>2026-05-02T13:18:29.999Z</time></trkpt><trkpt lat="44.12096514334558" lon="10.07307775273493"><ele>767.0</ele><time>2026-05-02T13:18:30.999Z</time></trkpt><trkpt lat="44.120985015551284" lon="10.07321846825439"><ele>767.0</ele><time>2026-05-02T13:18:31.999Z</time></trkpt><trkpt lat="44.12101066768303" lon="10.073356809860178"><ele>767.0</ele><time>2026-05-02T13:18:32.998Z</time></trkpt><trkpt lat="44.12104167954964" lon="10.073478504514119"><ele>765.5</ele><time>2026-05-02T13:18:33.998Z</time></trkpt><trkpt lat="44.121063676444734" lon="10.073595422245553"><ele>764.0</ele><time>2026-05-02T13:18:34.998Z</time></trkpt><trkpt lat="44.12108727416801" lon="10.073708889581196"><ele>762.5</ele><time>2026-05-02T13:18:35.998Z</time></trkpt><trkpt lat="44.12111234071235" lon="10.073820532922422"><ele>761.0</ele><time>2026-05-02T13:18:36.998Z</time></trkpt><trkpt lat="44.12114005099412" lon="10.073934282178353"><ele>759.5</ele><time>2026-05-02T13:18:37.998Z</time></trkpt><trkpt lat="44.12115423070497" lon="10.07406100595153"><ele>758.0</ele><time>2026-05-02T13:18:38.998Z</time></trkpt><trkpt lat="44.121151266559025" lon="10.074179900052417"><ele>757.2857142857143</ele><time>2026-05-02T13:18:39.998Z</time></trkpt><trkpt lat="44.12112908970648" lon="10.074282507812846"><ele>756.5714285714286</ele><time>2026-05-02T13:18:40.998Z</time></trkpt><trkpt lat="44.12108945204121" lon="10.074360144980181"><ele>755.8571428571429</ele><time>2026-05-02T13:18:41.998Z</time></trkpt><trkpt lat="44.121047937646466" lon="10.074429377089036"><ele>755.1428571428571</ele><time>2026-05-02T13:18:42.998Z</time></trkpt><trkpt lat="44.121005090205166" lon="10.074505468248566"><ele>754.4285714285714</ele><time>2026-05-02T13:18:43.998Z</time></trkpt><trkpt lat="44.12095650165317" lon="10.074587247700762"><ele>753.7142857142858</ele><time>2026-05-02T13:18:44.998Z</time></trkpt><trkpt lat="44.120903617668496" lon="10.074673784967874"><ele>753.0</ele><time>2026-05-02T13:18:45.998Z</time></trkpt><trkpt lat="44.12085648554051" lon="10.074760806714322"><ele>753.0</ele><time>2026-05-02T13:18:46.998Z</time></trkpt><trkpt lat="44.12081550902499" lon="10.074837688317437"><ele>753.0</ele><time>2026-05-02T13:18:47.998Z</time></trkpt><trkpt lat="44.1207836292138" lon="10.074965364864873"><ele>753.0</ele><time>2026-05-02T13:18:49.998Z</time></trkpt><trkpt lat="44.12080572058045" lon="10.075098176494528"><ele>753.0</ele><time>2026-05-02T13:18:51.998Z</time></trkpt><trkpt lat="44.12086832467214" lon="10.075181826508372"><ele>753.0</ele><time>2026-05-02T13:18:52.998Z</time></trkpt><trkpt lat="44.12094637039748" lon="10.075273407622989"><ele>754.4</ele><time>2026-05-02T13:18:53.998Z</time></trkpt><trkpt lat="44.121033156671196" lon="10.075354975497243"><ele>755.8</ele><time>2026-05-02T13:18:54.998Z</time></trkpt><trkpt lat="44.12112697535603" lon="10.075443477283551"><ele>757.2</ele><time>2026-05-02T13:18:55.998Z</time></trkpt><trkpt lat="44.12121760092321" lon="10.075538471278248"><ele>758.6</ele><time>2026-05-02T13:18:56.998Z</time></trkpt><trkpt lat="44.12130391066422" lon="10.0756323053121"><ele>760.0</ele><time>2026-05-02T13:18:57.998Z</time></trkpt><trkpt lat="44.121369063007556" lon="10.075739384490175"><ele>758.6</ele><time>2026-05-02T13:18:58.998Z</time></trkpt><trkpt lat="44.12143047773662" lon="10.075839412611467"><ele>757.2</ele><time>2026-05-02T13:18:59.998Z</time></trkpt><trkpt lat="44.121483163856375" lon="10.075946416461592"><ele>755.8</ele><time>2026-05-02T13:19:00.998Z</time></trkpt><trkpt lat="44.12153325324025" lon="10.076079684667251"><ele>754.4</ele><time>2026-05-02T13:19:01.998Z</time></trkpt><trkpt lat="44.12157495503099" lon="10.076240928207069"><ele>753.0</ele><time>2026-05-02T13:19:02.998Z</time></trkpt><trkpt lat="44.121614474528386" lon="10.076424793792544"><ele>757.5999999999999</ele><time>2026-05-02T13:19:03.998Z</time></trkpt><trkpt lat="44.12164936462355" lon="10.076608408487965"><ele>762.1999999999999</ele><time>2026-05-02T13:19:04.998Z</time></trkpt><trkpt lat="44.12167372793286" lon="10.07676425170821"><ele>766.8</ele><time>2026-05-02T13:19:05.998Z</time></trkpt><trkpt lat="44.121695013384006" lon="10.076899098967305"><ele>771.4</ele><time>2026-05-02T13:19:06.998Z</time></trkpt><trkpt lat="44.121711722773505" lon="10.077013307463233"><ele>776.0</ele><time>2026-05-02T13:19:07.998Z</time></trkpt><trkpt lat="44.121723633271166" lon="10.077111009548348"><ele>776.0</ele><time>2026-05-02T13:19:08.998Z</time></trkpt><trkpt lat="44.121730809817144" lon="10.07721073506744"><ele>776.0</ele><time>2026-05-02T13:19:09.998Z</time></trkpt><trkpt lat="44.121742097988665" lon="10.077314701872925"><ele>776.0</ele><time>2026-05-02T13:19:10.998Z</time></trkpt><trkpt lat="44.12175126836342" lon="10.077425620131773"><ele>776.0</ele><time>2026-05-02T13:19:11.998Z</time></trkpt><trkpt lat="44.12176064555661" lon="10.077529816513028"><ele>776.0</ele><time>2026-05-02T13:19:13.001Z</time></trkpt><trkpt lat="44.121772711215456" lon="10.077623582828995"><ele>776.0</ele><time>2026-05-02T13:19:14.001Z</time></trkpt><trkpt lat="44.12179693525594" lon="10.077722739476004"><ele>776.0</ele><time>2026-05-02T13:19:15.001Z</time></trkpt><trkpt lat="44.12183352416499" lon="10.077820095815206"><ele>775.5000000000001</ele><time>2026-05-02T13:19:16.001Z</time></trkpt><trkpt lat="44.12188129530317" lon="10.077912251518429"><ele>775.0</ele><time>2026-05-02T13:19:17.001Z</time></trkpt><trkpt lat="44.1219353049879" lon="10.077998240231585"><ele>774.5</ele><time>2026-05-02T13:19:18.001Z</time></trkpt><trkpt lat="44.12199012081693" lon="10.078083276750629"><ele>774.0</ele><time>2026-05-02T13:19:19.001Z</time></trkpt><trkpt lat="44.122045561545775" lon="10.078170039126123"><ele>773.5000000000001</ele><time>2026-05-02T13:19:20.001Z</time></trkpt><trkpt lat="44.122094787852824" lon="10.078255525408688"><ele>773.0</ele><time>2026-05-02T13:19:21.001Z</time></trkpt><trkpt lat="44.122170574576906" lon="10.078384249715656"><ele>772.1666666666667</ele><time>2026-05-02T13:19:23.001Z</time></trkpt><trkpt lat="44.12220713703647" lon="10.078459672032785"><ele>771.3333333333334</ele><time>2026-05-02T13:19:24.001Z</time></trkpt><trkpt lat="44.122240925053895" lon="10.07854659328306"><ele>770.5</ele><time>2026-05-02T13:19:25.001Z</time></trkpt><trkpt lat="44.12226796620877" lon="10.078654471725185"><ele>769.6666666666667</ele><time>2026-05-02T13:19:26.001Z</time></trkpt><trkpt lat="44.12228207657416" lon="10.078751484023275"><ele>768.8333333333334</ele><time>2026-05-02T13:19:27.001Z</time></trkpt><trkpt lat="44.12228267711769" lon="10.07884962074562"><ele>768.0</ele><time>2026-05-02T13:19:28.001Z</time></trkpt><trkpt lat="44.12224670227335" lon="10.078987507892469"><ele>768.5999999999999</ele><time>2026-05-02T13:19:30Z</time></trkpt><trkpt lat="44.12224393428923" lon="10.079120467574706"><ele>769.1999999999999</ele><time>2026-05-02T13:19:32Z</time></trkpt><trkpt lat="44.12223391356294" lon="10.079218445769454"><ele>769.8</ele><time>2026-05-02T13:19:33Z</time></trkpt><trkpt lat="44.12221020497177" lon="10.079339050826205"><ele>770.4</ele><time>2026-05-02T13:19:34Z</time></trkpt><trkpt lat="44.122165079709106" lon="10.079475014966018"><ele>771.0</ele><time>2026-05-02T13:19:35Z</time></trkpt><trkpt lat="44.12211493416451" lon="10.079622387889092"><ele>771.0</ele><time>2026-05-02T13:19:36Z</time></trkpt><trkpt lat="44.122067315045236" lon="10.079776299291902"><ele>771.0</ele><time>2026-05-02T13:19:37Z</time></trkpt><trkpt lat="44.12201618568117" lon="10.079917793120163"><ele>771.0</ele><time>2026-05-02T13:19:38Z</time></trkpt><trkpt lat="44.121954631628014" lon="10.080044411330611"><ele>771.0</ele><time>2026-05-02T13:19:39Z</time></trkpt><trkpt lat="44.12187434699499" lon="10.080141978668985"><ele>768.75</ele><time>2026-05-02T13:19:40Z</time></trkpt><trkpt lat="44.12177966232143" lon="10.080222157141408"><ele>766.5</ele><time>2026-05-02T13:19:41Z</time></trkpt><trkpt lat="44.1216783560874" lon="10.080290846153053"><ele>764.25</ele><time>2026-05-02T13:19:42Z</time></trkpt><trkpt lat="44.12160171505345" lon="10.080413086800219"><ele>762.0</ele><time>2026-05-02T13:19:43Z</time></trkpt><trkpt lat="44.12151733010103" lon="10.080534171237371"><ele>762.0</ele><time>2026-05-02T13:19:44Z</time></trkpt><trkpt lat="44.12145626704644" lon="10.080689822888445"><ele>762.0</ele><time>2026-05-02T13:19:45Z</time></trkpt><trkpt lat="44.12135715416628" lon="10.080846591625134"><ele>762.0</ele><time>2026-05-02T13:19:46Z</time></trkpt><trkpt lat="44.12127996305025" lon="10.080965637714016"><ele>762.0</ele><time>2026-05-02T13:19:47Z</time></trkpt><trkpt lat="44.12120087605898" lon="10.081087216376256"><ele>768.5</ele><time>2026-05-02T13:19:48Z</time></trkpt><trkpt lat="44.12112410463745" lon="10.08122333333534"><ele>775.0</ele><time>2026-05-02T13:19:49Z</time></trkpt><trkpt lat="44.12103999011567" lon="10.081347162056971"><ele>781.5</ele><time>2026-05-02T13:19:50Z</time></trkpt><trkpt lat="44.12094629859252" lon="10.081448475681572"><ele>788.0</ele><time>2026-05-02T13:19:51Z</time></trkpt><trkpt lat="44.120866671373484" lon="10.081557088302358"><ele>793.75</ele><time>2026-05-02T13:19:52Z</time></trkpt><trkpt lat="44.12082327678061" lon="10.081709431074293"><ele>799.5</ele><time>2026-05-02T13:19:53Z</time></trkpt><trkpt lat="44.120785742005026" lon="10.08187387814926"><ele>805.25</ele><time>2026-05-02T13:19:54Z</time></trkpt><trkpt lat="44.120769779438454" lon="10.082051130888384"><ele>811.0</ele><time>2026-05-02T13:19:55Z</time></trkpt><trkpt lat="44.12075771494726" lon="10.082233917876257"><ele>811.0</ele><time>2026-05-02T13:19:56Z</time></trkpt><trkpt lat="44.12074089314839" lon="10.082419445468698"><ele>811.0</ele><time>2026-05-02T13:19:57Z</time></trkpt><trkpt lat="44.120716274764405" lon="10.08258316966619"><ele>811.0</ele><time>2026-05-02T13:19:58Z</time></trkpt><trkpt lat="44.120665699683684" lon="10.082738082685783"><ele>811.0</ele><time>2026-05-02T13:19:59Z</time></trkpt><trkpt lat="44.12058814176639" lon="10.082865336363739"><ele>811.0</ele><time>2026-05-02T13:20:00Z</time></trkpt><trkpt lat="44.1204918155897" lon="10.082973358538771"><ele>811.0</ele><time>2026-05-02T13:20:01Z</time></trkpt><trkpt lat="44.12039291176835" lon="10.083078521674638"><ele>811.0</ele><time>2026-05-02T13:20:02Z</time></trkpt><trkpt lat="44.120297064055585" lon="10.083188467467975"><ele>811.0</ele><time>2026-05-02T13:20:03Z</time></trkpt><trkpt lat="44.1202093854396" lon="10.083285431906054"><ele>810.9999999999999</ele><time>2026-05-02T13:20:04Z</time></trkpt><trkpt lat="44.120143130896814" lon="10.083367989403067"><ele>811.0</ele><time>2026-05-02T13:20:04.999Z</time></trkpt><trkpt lat="44.12011292430555" lon="10.083457912908504"><ele>811.0</ele><time>2026-05-02T13:20:05.999Z</time></trkpt><trkpt lat="44.120102829271154" lon="10.083551769534866"><ele>811.0</ele><time>2026-05-02T13:20:06.999Z</time></trkpt><trkpt lat="44.12017583071696" lon="10.083643747596938"><ele>810.9999999999999</ele><time>2026-05-02T13:20:07.999Z</time></trkpt><trkpt lat="44.12027114547087" lon="10.083681512210907"><ele>811.0</ele><time>2026-05-02T13:20:08.999Z</time></trkpt><trkpt lat="44.1203706278193" lon="10.083724182228524"><ele>811.0</ele><time>2026-05-02T13:20:09.999Z</time></trkpt><trkpt lat="44.12047890134159" lon="10.083780566342735"><ele>811.0</ele><time>2026-05-02T13:20:10.999Z</time></trkpt><trkpt lat="44.1205917992058" lon="10.083851266465814"><ele>811.0</ele><time>2026-05-02T13:20:11.999Z</time></trkpt><trkpt lat="44.12071583821342" lon="10.083933023335678"><ele>811.0</ele><time>2026-05-02T13:20:12.999Z</time></trkpt><trkpt lat="44.1208466628618" lon="10.084003067790157"><ele>812.75</ele><time>2026-05-02T13:20:13.999Z</time></trkpt><trkpt lat="44.12097888464077" lon="10.084065950714857"><ele>814.5</ele><time>2026-05-02T13:20:14.999Z</time></trkpt><trkpt lat="44.121112095836736" lon="10.084128658974286"><ele>816.25</ele><time>2026-05-02T13:20:15.999Z</time></trkpt><trkpt lat="44.12124680696864" lon="10.084201625703002"><ele>818.0</ele><time>2026-05-02T13:20:16.999Z</time></trkpt><trkpt lat="44.121387722376554" lon="10.084218179719468"><ele>818.0</ele><time>2026-05-02T13:20:17.999Z</time></trkpt><trkpt lat="44.12152729484712" lon="10.084268776568793"><ele>818.0</ele><time>2026-05-02T13:20:18.999Z</time></trkpt><trkpt lat="44.121662676514255" lon="10.084326292030715"><ele>818.0</ele><time>2026-05-02T13:20:19.999Z</time></trkpt><trkpt lat="44.121796759554826" lon="10.084397718874245"><ele>818.0</ele><time>2026-05-02T13:20:20.999Z</time></trkpt><trkpt lat="44.1219228093494" lon="10.08447654342365"><ele>823.25</ele><time>2026-05-02T13:20:21.999Z</time></trkpt><trkpt lat="44.122038689521304" lon="10.08455613922721"><ele>828.5</ele><time>2026-05-02T13:20:22.999Z</time></trkpt><trkpt lat="44.12215556301681" lon="10.084616076768672"><ele>833.75</ele><time>2026-05-02T13:20:23.999Z</time></trkpt><trkpt lat="44.12228045778725" lon="10.084637312229138"><ele>839.0</ele><time>2026-05-02T13:20:24.999Z</time></trkpt><trkpt lat="44.122407521766156" lon="10.084618911455719"><ele>844.75</ele><time>2026-05-02T13:20:25.999Z</time></trkpt><trkpt lat="44.122532517273186" lon="10.084594441342173"><ele>850.5</ele><time>2026-05-02T13:20:26.999Z</time></trkpt><trkpt lat="44.12265027591257" lon="10.084607208965245"><ele>856.25</ele><time>2026-05-02T13:20:27.999Z</time></trkpt><trkpt lat="44.122759456329376" lon="10.084608827967912"><ele>862.0</ele><time>2026-05-02T13:20:28.999Z</time></trkpt><trkpt lat="44.12284305301963" lon="10.084704290082087"><ele>862.0</ele><time>2026-05-02T13:20:29.999Z</time></trkpt><trkpt lat="44.12294011123022" lon="10.084807361985325"><ele>862.0</ele><time>2026-05-02T13:20:30.999Z</time></trkpt><trkpt lat="44.12301978984294" lon="10.084957020945374"><ele>862.0</ele><time>2026-05-02T13:20:31.999Z</time></trkpt><trkpt lat="44.12310364861445" lon="10.085116797735408"><ele>862.0</ele><time>2026-05-02T13:20:32.999Z</time></trkpt><trkpt lat="44.12320134961991" lon="10.085251020618747"><ele>857.5</ele><time>2026-05-02T13:20:33.999Z</time></trkpt><trkpt lat="44.123305504613775" lon="10.085350737410483"><ele>853.0</ele><time>2026-05-02T13:20:34.999Z</time></trkpt><trkpt lat="44.123406994192074" lon="10.08543024998849"><ele>848.5</ele><time>2026-05-02T13:20:35.999Z</time></trkpt><trkpt lat="44.12346627643849" lon="10.085567728978589"><ele>844.0</ele><time>2026-05-02T13:20:36.999Z</time></trkpt><trkpt lat="44.12352214501473" lon="10.085716648634342"><ele>837.5</ele><time>2026-05-02T13:20:37.999Z</time></trkpt><trkpt lat="44.123584626083236" lon="10.085875769543899"><ele>831.0</ele><time>2026-05-02T13:20:38.999Z</time></trkpt><trkpt lat="44.12362950094745" lon="10.086034696877931"><ele>824.5</ele><time>2026-05-02T13:20:39.999Z</time></trkpt><trkpt lat="44.12367212210811" lon="10.086216342439794"><ele>818.0</ele><time>2026-05-02T13:20:40.999Z</time></trkpt><trkpt lat="44.12369725875014" lon="10.086399904919633"><ele>818.0</ele><time>2026-05-02T13:20:41.999Z</time></trkpt><trkpt lat="44.123680036488096" lon="10.086566055737418"><ele>818.0</ele><time>2026-05-02T13:20:42.999Z</time></trkpt><trkpt lat="44.12367720938259" lon="10.086732936669685"><ele>818.0</ele><time>2026-05-02T13:20:43.998Z</time></trkpt><trkpt lat="44.12365654361482" lon="10.08689170375493"><ele>818.0</ele><time>2026-05-02T13:20:44.998Z</time></trkpt><trkpt lat="44.123670732208346" lon="10.087046913347782"><ele>813.75</ele><time>2026-05-02T13:20:45.998Z</time></trkpt><trkpt lat="44.12372645170067" lon="10.087209766171856"><ele>809.5</ele><time>2026-05-02T13:20:46.998Z</time></trkpt><trkpt lat="44.123776781656666" lon="10.087376653892074"><ele>805.25</ele><time>2026-05-02T13:20:47.998Z</time></trkpt><trkpt lat="44.123826107209815" lon="10.08754370047562"><ele>801.0</ele><time>2026-05-02T13:20:48.998Z</time></trkpt><trkpt lat="44.12386843277795" lon="10.087703415878021"><ele>797.0</ele><time>2026-05-02T13:20:49.998Z</time></trkpt><trkpt lat="44.12389343762782" lon="10.087850545742173"><ele>793.0</ele><time>2026-05-02T13:20:50.998Z</time></trkpt><trkpt lat="44.12389033347876" lon="10.087994503054851"><ele>789.0</ele><time>2026-05-02T13:20:51.998Z</time></trkpt><trkpt lat="44.12384273554308" lon="10.088127228501635"><ele>785.0</ele><time>2026-05-02T13:20:52.998Z</time></trkpt><trkpt lat="44.1238104626293" lon="10.088273037529653"><ele>781.0</ele><time>2026-05-02T13:20:53.998Z</time></trkpt><trkpt lat="44.123770933133954" lon="10.088420703110254"><ele>780.75</ele><time>2026-05-02T13:20:54.998Z</time></trkpt><trkpt lat="44.12373889813729" lon="10.088576050697903"><ele>780.5</ele><time>2026-05-02T13:20:55.998Z</time></trkpt><trkpt lat="44.12372319403964" lon="10.08874816254577"><ele>780.25</ele><time>2026-05-02T13:20:56.998Z</time></trkpt><trkpt lat="44.12372743792729" lon="10.088924410370822"><ele>780.0</ele><time>2026-05-02T13:20:57.998Z</time></trkpt><trkpt lat="44.12374970578115" lon="10.089101941614912"><ele>782.25</ele><time>2026-05-02T13:20:58.998Z</time></trkpt><trkpt lat="44.12377557200923" lon="10.089282932105275"><ele>784.5</ele><time>2026-05-02T13:20:59.998Z</time></trkpt><trkpt lat="44.123797011434235" lon="10.08947406975212"><ele>786.75</ele><time>2026-05-02T13:21:00.998Z</time></trkpt><trkpt lat="44.12381845714808" lon="10.089666054816858"><ele>789.0</ele><time>2026-05-02T13:21:01.998Z</time></trkpt><trkpt lat="44.12384683890849" lon="10.089852572713097"><ele>788.0</ele><time>2026-05-02T13:21:02.998Z</time></trkpt><trkpt lat="44.12388404319205" lon="10.090010795597623"><ele>787.0</ele><time>2026-05-02T13:21:03.998Z</time></trkpt><trkpt lat="44.12392864924319" lon="10.090170140498062"><ele>786.0</ele><time>2026-05-02T13:21:04.998Z</time></trkpt><trkpt lat="44.12399118747382" lon="10.090318615696567"><ele>785.0</ele><time>2026-05-02T13:21:05.998Z</time></trkpt><trkpt lat="44.124081993600555" lon="10.090449248113812"><ele>789.5</ele><time>2026-05-02T13:21:06.998Z</time></trkpt><trkpt lat="44.12418574805297" lon="10.090576495827188"><ele>794.0</ele><time>2026-05-02T13:21:07.998Z</time></trkpt><trkpt lat="44.12429912139292" lon="10.090695258013486"><ele>798.5</ele><time>2026-05-02T13:21:08.998Z</time></trkpt><trkpt lat="44.12441827835401" lon="10.090812747727378"><ele>803.0</ele><time>2026-05-02T13:21:09.998Z</time></trkpt><trkpt lat="44.124531413981614" lon="10.09093421475158"><ele>803.0</ele><time>2026-05-02T13:21:10.998Z</time></trkpt><trkpt lat="44.124638310103656" lon="10.09104948634357"><ele>803.0</ele><time>2026-05-02T13:21:11.998Z</time></trkpt><trkpt lat="44.1247380039044" lon="10.09115012065524"><ele>803.0</ele><time>2026-05-02T13:21:12.998Z</time></trkpt><trkpt lat="44.12483166583482" lon="10.091227875130377"><ele>803.0</ele><time>2026-05-02T13:21:13.998Z</time></trkpt><trkpt lat="44.12492072412627" lon="10.091264494980937"><ele>801.5999999999999</ele><time>2026-05-02T13:21:14.998Z</time></trkpt><trkpt lat="44.12500354931521" lon="10.091279907837956"><ele>800.1999999999999</ele><time>2026-05-02T13:21:15.998Z</time></trkpt><trkpt lat="44.12507441337278" lon="10.091381846099821"><ele>798.8</ele><time>2026-05-02T13:21:18.001Z</time></trkpt><trkpt lat="44.1250231255031" lon="10.09158398653891"><ele>797.4</ele><time>2026-05-02T13:21:20.001Z</time></trkpt><trkpt lat="44.12498138096919" lon="10.091693038261434"><ele>796.0</ele><time>2026-05-02T13:21:21.001Z</time></trkpt><trkpt lat="44.124933541085454" lon="10.09181516058646"><ele>795.8</ele><time>2026-05-02T13:21:22.001Z</time></trkpt><trkpt lat="44.12488204375805" lon="10.091943252064839"><ele>795.5999999999999</ele><time>2026-05-02T13:21:23.001Z</time></trkpt><trkpt lat="44.12483477001222" lon="10.09208598420054"><ele>795.4</ele><time>2026-05-02T13:21:24.001Z</time></trkpt><trkpt lat="44.12480543363768" lon="10.092226785522854"><ele>795.2</ele><time>2026-05-02T13:21:25.001Z</time></trkpt><trkpt lat="44.1248141310768" lon="10.092378219739743"><ele>795.0</ele><time>2026-05-02T13:21:26.001Z</time></trkpt><trkpt lat="44.12485289725726" lon="10.092524740347821"><ele>801.0</ele><time>2026-05-02T13:21:27.001Z</time></trkpt><trkpt lat="44.12490192462325" lon="10.092674381255831"><ele>807.0</ele><time>2026-05-02T13:21:28.001Z</time></trkpt><trkpt lat="44.12494302368682" lon="10.092829606047328"><ele>813.0</ele><time>2026-05-02T13:21:29.001Z</time></trkpt><trkpt lat="44.124982721737894" lon="10.09298852325877"><ele>819.0</ele><time>2026-05-02T13:21:30.001Z</time></trkpt><trkpt lat="44.1250365872303" lon="10.093144021587872"><ele>822.0</ele><time>2026-05-02T13:21:31.001Z</time></trkpt><trkpt lat="44.12510994275921" lon="10.093290674592616"><ele>825.0</ele><time>2026-05-02T13:21:32.001Z</time></trkpt><trkpt lat="44.125193613832664" lon="10.093429105627365"><ele>828.0</ele><time>2026-05-02T13:21:33.001Z</time></trkpt><trkpt lat="44.125278816504355" lon="10.093572028408971"><ele>831.0</ele><time>2026-05-02T13:21:34.001Z</time></trkpt><trkpt lat="44.12537425968117" lon="10.093705865334263"><ele>831.0</ele><time>2026-05-02T13:21:35.001Z</time></trkpt><trkpt lat="44.125480947130974" lon="10.0938239647036"><ele>831.0</ele><time>2026-05-02T13:21:36.001Z</time></trkpt><trkpt lat="44.12558405351107" lon="10.093926933474549"><ele>831.0</ele><time>2026-05-02T13:21:37.001Z</time></trkpt><trkpt lat="44.12566305157293" lon="10.094067555045903"><ele>831.0</ele><time>2026-05-02T13:21:38.001Z</time></trkpt><trkpt lat="44.125757206056406" lon="10.094187050878519"><ele>836.75</ele><time>2026-05-02T13:21:39Z</time></trkpt><trkpt lat="44.125820865841064" lon="10.094337904148869"><ele>842.5</ele><time>2026-05-02T13:21:40Z</time></trkpt><trkpt lat="44.12585879312982" lon="10.094528227376784"><ele>848.25</ele><time>2026-05-02T13:21:41Z</time></trkpt><trkpt lat="44.125915450731256" lon="10.094696051041346"><ele>854.0</ele><time>2026-05-02T13:21:42Z</time></trkpt><trkpt lat="44.12596189980255" lon="10.09487421463623"><ele>860.75</ele><time>2026-05-02T13:21:43Z</time></trkpt><trkpt lat="44.12601552783434" lon="10.095028553755723"><ele>867.5</ele><time>2026-05-02T13:21:44Z</time></trkpt><trkpt lat="44.12608893183572" lon="10.095146759715231"><ele>874.25</ele><time>2026-05-02T13:21:45Z</time></trkpt><trkpt lat="44.12619200687208" lon="10.095241434329719"><ele>881.0</ele><time>2026-05-02T13:21:46Z</time></trkpt><trkpt lat="44.126313479805816" lon="10.095323759435496"><ele>881.0</ele><time>2026-05-02T13:21:47Z</time></trkpt><trkpt lat="44.12642462281697" lon="10.095421104269928"><ele>881.0</ele><time>2026-05-02T13:21:48Z</time></trkpt><trkpt lat="44.12654064572869" lon="10.095530011940436"><ele>881.0</ele><time>2026-05-02T13:21:49Z</time></trkpt><trkpt lat="44.126645751886514" lon="10.09564569570434"><ele>881.0</ele><time>2026-05-02T13:21:50Z</time></trkpt><trkpt lat="44.126744563689314" lon="10.095743984641521"><ele>879.8</ele><time>2026-05-02T13:21:51Z</time></trkpt><trkpt lat="44.12683336358828" lon="10.095765202135587"><ele>878.5999999999999</ele><time>2026-05-02T13:21:52Z</time></trkpt><trkpt lat="44.126938011838334" lon="10.095746568629945"><ele>877.4</ele><time>2026-05-02T13:21:53Z</time></trkpt><trkpt lat="44.12704724067739" lon="10.095705427961533"><ele>876.2</ele><time>2026-05-02T13:21:54Z</time></trkpt><trkpt lat="44.12716264957677" lon="10.09565110536874"><ele>875.0</ele><time>2026-05-02T13:21:55Z</time></trkpt><trkpt lat="44.12727876920094" lon="10.095580175922203"><ele>867.5</ele><time>2026-05-02T13:21:56Z</time></trkpt><trkpt lat="44.12738361411516" lon="10.095480360966233"><ele>860.0</ele><time>2026-05-02T13:21:57Z</time></trkpt><trkpt lat="44.12748297210575" lon="10.095353035766548"><ele>852.5</ele><time>2026-05-02T13:21:58Z</time></trkpt><trkpt lat="44.12758958660528" lon="10.095249354110116"><ele>845.0</ele><time>2026-05-02T13:21:59Z</time></trkpt><trkpt lat="44.12766073105071" lon="10.095133397503105"><ele>845.0</ele><time>2026-05-02T13:22:00Z</time></trkpt><trkpt lat="44.12770773014424" lon="10.095027278897826"><ele>845.0</ele><time>2026-05-02T13:22:01Z</time></trkpt><trkpt lat="44.12779407556369" lon="10.094930412171879"><ele>845.0</ele><time>2026-05-02T13:22:03Z</time></trkpt><trkpt lat="44.12786770582693" lon="10.095076177217754"><ele>845.0</ele><time>2026-05-02T13:22:05Z</time></trkpt><trkpt lat="44.12785888248067" lon="10.095179144955443"><ele>845.0</ele><time>2026-05-02T13:22:06Z</time></trkpt><trkpt lat="44.1278139911327" lon="10.095281410196623"><ele>845.0</ele><time>2026-05-02T13:22:07Z</time></trkpt><trkpt lat="44.12773763645399" lon="10.095381140001546"><ele>845.0</ele><time>2026-05-02T13:22:08Z</time></trkpt><trkpt lat="44.12768473382193" lon="10.095489286920532"><ele>845.0</ele><time>2026-05-02T13:22:09Z</time></trkpt><trkpt lat="44.127669222837994" lon="10.095619870069736"><ele>845.0</ele><time>2026-05-02T13:22:10Z</time></trkpt><trkpt lat="44.12768196310278" lon="10.095769677181123"><ele>845.0</ele><time>2026-05-02T13:22:11Z</time></trkpt><trkpt lat="44.12774321782665" lon="10.095905242384639"><ele>851.25</ele><time>2026-05-02T13:22:11.999Z</time></trkpt><trkpt lat="44.127817708272964" lon="10.096046913980537"><ele>857.5</ele><time>2026-05-02T13:22:12.999Z</time></trkpt><trkpt lat="44.12789224785958" lon="10.096193529943445"><ele>863.75</ele><time>2026-05-02T13:22:13.999Z</time></trkpt><trkpt lat="44.12797009173247" lon="10.096346311942602"><ele>870.0</ele><time>2026-05-02T13:22:14.999Z</time></trkpt><trkpt lat="44.128041661402136" lon="10.096487679211673"><ele>871.0</ele><time>2026-05-02T13:22:15.999Z</time></trkpt><trkpt lat="44.12808540440421" lon="10.096590361125084"><ele>872.0</ele><time>2026-05-02T13:22:16.999Z</time></trkpt><trkpt lat="44.12803703188151" lon="10.096741465687114"><ele>873.0</ele><time>2026-05-02T13:22:18.999Z</time></trkpt><trkpt lat="44.127967379625915" lon="10.096781615613617"><ele>874.0</ele><time>2026-05-02T13:22:19.999Z</time></trkpt><trkpt lat="44.12787597947151" lon="10.096802816334588"><ele>875.0</ele><time>2026-05-02T13:22:20.999Z</time></trkpt><trkpt lat="44.127770360467245" lon="10.096825184861025"><ele>875.0</ele><time>2026-05-02T13:22:21.999Z</time></trkpt><trkpt lat="44.127655593493586" lon="10.096831808614903"><ele>875.0</ele><time>2026-05-02T13:22:22.999Z</time></trkpt><trkpt lat="44.12752851083669" lon="10.096822893819807"><ele>875.0</ele><time>2026-05-02T13:22:23.999Z</time></trkpt><trkpt lat="44.127392282952" lon="10.096811319865926"><ele>875.0</ele><time>2026-05-02T13:22:24.999Z</time></trkpt><trkpt lat="44.12724967112563" lon="10.096793735598999"><ele>877.5</ele><time>2026-05-02T13:22:25.999Z</time></trkpt><trkpt lat="44.12710412149377" lon="10.096778116978667"><ele>880.0</ele><time>2026-05-02T13:22:26.999Z</time></trkpt><trkpt lat="44.12696301535371" lon="10.096784338593565"><ele>882.5</ele><time>2026-05-02T13:22:27.999Z</time></trkpt><trkpt lat="44.12683499546084" lon="10.096844212905292"><ele>885.0</ele><time>2026-05-02T13:22:28.999Z</time></trkpt><trkpt lat="44.12672422168481" lon="10.09690146252892"><ele>885.0</ele><time>2026-05-02T13:22:29.999Z</time></trkpt><trkpt lat="44.12662427880613" lon="10.096938729322044"><ele>885.0</ele><time>2026-05-02T13:22:30.999Z</time></trkpt><trkpt lat="44.126521238585525" lon="10.09690361973551"><ele>885.0</ele><time>2026-05-02T13:22:31.999Z</time></trkpt><trkpt lat="44.126418152177" lon="10.096882139292076"><ele>885.0</ele><time>2026-05-02T13:22:32.999Z</time></trkpt><trkpt lat="44.12631247015699" lon="10.096865716116634"><ele>885.0</ele><time>2026-05-02T13:22:33.999Z</time></trkpt><trkpt lat="44.12622977080298" lon="10.09676824109918"><ele>885.25</ele><time>2026-05-02T13:22:34.999Z</time></trkpt><trkpt lat="44.12614411122833" lon="10.096665501959018"><ele>885.5</ele><time>2026-05-02T13:22:35.999Z</time></trkpt><trkpt lat="44.12604894180571" lon="10.096565626768172"><ele>885.75</ele><time>2026-05-02T13:22:36.999Z</time></trkpt><trkpt lat="44.125939474554635" lon="10.096492316377033"><ele>886.0</ele><time>2026-05-02T13:22:37.999Z</time></trkpt><trkpt lat="44.12581565741081" lon="10.096511540042435"><ele>893.0</ele><time>2026-05-02T13:22:38.999Z</time></trkpt><trkpt lat="44.125704083987856" lon="10.09653930946134"><ele>900.0</ele><time>2026-05-02T13:22:39.999Z</time></trkpt><trkpt lat="44.125583725792026" lon="10.096611872777128"><ele>907.0</ele><time>2026-05-02T13:22:40.999Z</time></trkpt><trkpt lat="44.12546133967503" lon="10.096662233293625"><ele>914.0</ele><time>2026-05-02T13:22:41.999Z</time></trkpt><trkpt lat="44.125354962995175" lon="10.09676281145819"><ele>914.0</ele><time>2026-05-02T13:22:42.999Z</time></trkpt><trkpt lat="44.12525800428871" lon="10.09688924320896"><ele>914.0</ele><time>2026-05-02T13:22:43.999Z</time></trkpt><trkpt lat="44.12514292018785" lon="10.097003902379107"><ele>914.0</ele><time>2026-05-02T13:22:44.999Z</time></trkpt><trkpt lat="44.12504378470378" lon="10.097130958667792"><ele>914.0</ele><time>2026-05-02T13:22:45.999Z</time></trkpt><trkpt lat="44.124954266914436" lon="10.097277720898372"><ele>908.0</ele><time>2026-05-02T13:22:46.999Z</time></trkpt><trkpt lat="44.124853618994855" lon="10.097408845804882"><ele>902.0</ele><time>2026-05-02T13:22:47.999Z</time></trkpt><trkpt lat="44.12475884037003" lon="10.097526845838168"><ele>896.0</ele><time>2026-05-02T13:22:48.998Z</time></trkpt><trkpt lat="44.12466887943118" lon="10.097621072870597"><ele>890.0</ele><time>2026-05-02T13:22:49.998Z</time></trkpt><trkpt lat="44.12456767904554" lon="10.097674666500623"><ele>890.0</ele><time>2026-05-02T13:22:50.998Z</time></trkpt><trkpt lat="44.124452592284385" lon="10.097706166673794"><ele>890.0</ele><time>2026-05-02T13:22:51.998Z</time></trkpt><trkpt lat="44.12433437028037" lon="10.097730063398908"><ele>890.0</ele><time>2026-05-02T13:22:52.998Z</time></trkpt><trkpt lat="44.124215517829676" lon="10.097762635331327"><ele>890.0</ele><time>2026-05-02T13:22:53.998Z</time></trkpt><trkpt lat="44.124105437108916" lon="10.09780851062917"><ele>890.4</ele><time>2026-05-02T13:22:54.998Z</time></trkpt><trkpt lat="44.12401294414277" lon="10.09787454060781"><ele>890.8</ele><time>2026-05-02T13:22:55.998Z</time></trkpt><trkpt lat="44.123941112779605" lon="10.09797708011107"><ele>891.2</ele><time>2026-05-02T13:22:56.998Z</time></trkpt><trkpt lat="44.12386851745003" lon="10.098080319124769"><ele>891.6</ele><time>2026-05-02T13:22:57.998Z</time></trkpt><trkpt lat="44.12380897048662" lon="10.098192850532364"><ele>892.0</ele><time>2026-05-02T13:22:58.998Z</time></trkpt><trkpt lat="44.12376696656685" lon="10.098305462105174"><ele>891.9999999999999</ele><time>2026-05-02T13:22:59.998Z</time></trkpt><trkpt lat="44.123711348779814" lon="10.098371828569636"><ele>892.0</ele><time>2026-05-02T13:23:00.998Z</time></trkpt><trkpt lat="44.12363943813535" lon="10.09841526071383"><ele>892.0</ele><time>2026-05-02T13:23:01.998Z</time></trkpt><trkpt lat="44.12355594100298" lon="10.098437817291657"><ele>892.0</ele><time>2026-05-02T13:23:02.998Z</time></trkpt><trkpt lat="44.12345778118305" lon="10.098421283132245"><ele>891.9999999999999</ele><time>2026-05-02T13:23:03.998Z</time></trkpt><trkpt lat="44.123350624153794" lon="10.098449916936016"><ele>892.0</ele><time>2026-05-02T13:23:04.998Z</time></trkpt><trkpt lat="44.12323883377791" lon="10.098451037585354"><ele>891.5</ele><time>2026-05-02T13:23:05.998Z</time></trkpt><trkpt lat="44.123125326369006" lon="10.098399774952563"><ele>891.0</ele><time>2026-05-02T13:23:06.998Z</time></trkpt><trkpt lat="44.12300968753482" lon="10.09834355805476"><ele>890.5</ele><time>2026-05-02T13:23:07.998Z</time></trkpt><trkpt lat="44.12289847457087" lon="10.098281182657319"><ele>890.0</ele><time>2026-05-02T13:23:08.998Z</time></trkpt><trkpt lat="44.122787871590134" lon="10.098255469558428"><ele>890.0</ele><time>2026-05-02T13:23:09.998Z</time></trkpt><trkpt lat="44.12269240266826" lon="10.09826959957597"><ele>890.0</ele><time>2026-05-02T13:23:10.998Z</time></trkpt><trkpt lat="44.12260034571165" lon="10.098329400773451"><ele>890.0</ele><time>2026-05-02T13:23:11.998Z</time></trkpt><trkpt lat="44.1224996404086" lon="10.098429066325847"><ele>890.0</ele><time>2026-05-02T13:23:12.998Z</time></trkpt><trkpt lat="44.12238995396871" lon="10.09850707543974"><ele>890.0</ele><time>2026-05-02T13:23:13.998Z</time></trkpt><trkpt lat="44.12228236250668" lon="10.098585825873293"><ele>892.25</ele><time>2026-05-02T13:23:14.998Z</time></trkpt><trkpt lat="44.122186150053786" lon="10.098713933968934"><ele>894.5</ele><time>2026-05-02T13:23:15.998Z</time></trkpt><trkpt lat="44.122077542177706" lon="10.098826536300486"><ele>896.75</ele><time>2026-05-02T13:23:16.998Z</time></trkpt><trkpt lat="44.12197681767383" lon="10.09895368207344"><ele>899.0</ele><time>2026-05-02T13:23:17.998Z</time></trkpt><trkpt lat="44.121892208876154" lon="10.099099219383097"><ele>899.0</ele><time>2026-05-02T13:23:18.998Z</time></trkpt><trkpt lat="44.121798589124" lon="10.09922719182434"><ele>899.0</ele><time>2026-05-02T13:23:19.998Z</time></trkpt><trkpt lat="44.1217282307948" lon="10.099380794072957"><ele>899.0</ele><time>2026-05-02T13:23:20.998Z</time></trkpt><trkpt lat="44.12165217037989" lon="10.099520057188878"><ele>899.0</ele><time>2026-05-02T13:23:21.998Z</time></trkpt><trkpt lat="44.121542168628125" lon="10.099610385061968"><ele>902.0</ele><time>2026-05-02T13:23:23.001Z</time></trkpt><trkpt lat="44.121430237249974" lon="10.099693184957"><ele>905.0</ele><time>2026-05-02T13:23:24.001Z</time></trkpt><trkpt lat="44.12131224106372" lon="10.099780172766508"><ele>908.0</ele><time>2026-05-02T13:23:25.001Z</time></trkpt><trkpt lat="44.12121610028836" lon="10.099899077330644"><ele>911.0</ele><time>2026-05-02T13:23:26.001Z</time></trkpt><trkpt lat="44.12111892114708" lon="10.100023166870624"><ele>911.0</ele><time>2026-05-02T13:23:27.001Z</time></trkpt><trkpt lat="44.12103133549832" lon="10.100144763069741"><ele>910.9999999999999</ele><time>2026-05-02T13:23:28.001Z</time></trkpt><trkpt lat="44.120953777873005" lon="10.100241296566228"><ele>910.9999999999999</ele><time>2026-05-02T13:23:29.001Z</time></trkpt><trkpt lat="44.120875566365534" lon="10.100303747821274"><ele>911.0</ele><time>2026-05-02T13:23:30.001Z</time></trkpt><trkpt lat="44.12078567214562" lon="10.100262851545144"><ele>911.0</ele><time>2026-05-02T13:23:31.001Z</time></trkpt><trkpt lat="44.12069283923354" lon="10.100302888116445"><ele>902.8</ele><time>2026-05-02T13:23:32.001Z</time></trkpt><trkpt lat="44.12060089014741" lon="10.100313197634629"><ele>894.5999999999999</ele><time>2026-05-02T13:23:33.001Z</time></trkpt><trkpt lat="44.120504654284105" lon="10.100390845779646"><ele>886.4</ele><time>2026-05-02T13:23:34.001Z</time></trkpt><trkpt lat="44.12042011038709" lon="10.100485618819377"><ele>878.2</ele><time>2026-05-02T13:23:35.001Z</time></trkpt><trkpt lat="44.12033794450356" lon="10.100593876779"><ele>870.0</ele><time>2026-05-02T13:23:36.001Z</time></trkpt><trkpt lat="44.12027647687393" lon="10.100718647784031"><ele>877.25</ele><time>2026-05-02T13:23:37.001Z</time></trkpt><trkpt lat="44.12023139349299" lon="10.100844993769618"><ele>884.5</ele><time>2026-05-02T13:23:38.001Z</time></trkpt><trkpt lat="44.12019936013339" lon="10.101004767971538"><ele>891.75</ele><time>2026-05-02T13:23:39.001Z</time></trkpt><trkpt lat="44.12018423848757" lon="10.101162222491995"><ele>899.0</ele><time>2026-05-02T13:23:40.001Z</time></trkpt><trkpt lat="44.120150006414455" lon="10.10132959894359"><ele>899.0</ele><time>2026-05-02T13:23:41.001Z</time></trkpt><trkpt lat="44.12009696573101" lon="10.101480819530227"><ele>899.0</ele><time>2026-05-02T13:23:42.001Z</time></trkpt><trkpt lat="44.120046382347475" lon="10.101643039335078"><ele>899.0</ele><time>2026-05-02T13:23:43.001Z</time></trkpt><trkpt lat="44.12000683712456" lon="10.101804280169675"><ele>899.0</ele><time>2026-05-02T13:23:44.001Z</time></trkpt><trkpt lat="44.11997348494405" lon="10.101973872808426"><ele>906.0</ele><time>2026-05-02T13:23:45Z</time></trkpt><trkpt lat="44.11993859002598" lon="10.102146238938728"><ele>913.0</ele><time>2026-05-02T13:23:46Z</time></trkpt><trkpt lat="44.11990354917577" lon="10.102319874418633"><ele>920.0</ele><time>2026-05-02T13:23:47Z</time></trkpt><trkpt lat="44.11986946614013" lon="10.102490591566946"><ele>927.0</ele><time>2026-05-02T13:23:48Z</time></trkpt><trkpt lat="44.119834108334814" lon="10.10264656137885"><ele>928.0</ele><time>2026-05-02T13:23:49Z</time></trkpt><trkpt lat="44.11979043784843" lon="10.102783809214165"><ele>929.0</ele><time>2026-05-02T13:23:50Z</time></trkpt><trkpt lat="44.11974466394139" lon="10.102884873686518"><ele>930.0</ele><time>2026-05-02T13:23:51Z</time></trkpt><trkpt lat="44.11968792080099" lon="10.102955306096728"><ele>931.0</ele><time>2026-05-02T13:23:52Z</time></trkpt><trkpt lat="44.11962259536023" lon="10.103004149592573"><ele>932.0</ele><time>2026-05-02T13:23:53Z</time></trkpt><trkpt lat="44.11954600949118" lon="10.103021393583365"><ele>933.0</ele><time>2026-05-02T13:23:54Z</time></trkpt><trkpt lat="44.11945375434777" lon="10.103009881334605"><ele>933.0</ele><time>2026-05-02T13:23:55Z</time></trkpt><trkpt lat="44.119348630546654" lon="10.10296623084948"><ele>933.0</ele><time>2026-05-02T13:23:56Z</time></trkpt><trkpt lat="44.11924238188593" lon="10.102931051398846"><ele>933.0</ele><time>2026-05-02T13:23:57Z</time></trkpt><trkpt lat="44.119127763562666" lon="10.102931869343283"><ele>933.0</ele><time>2026-05-02T13:23:58Z</time></trkpt><trkpt lat="44.119016665549516" lon="10.102972820853383"><ele>933.0</ele><time>2026-05-02T13:23:59Z</time></trkpt><trkpt lat="44.11891056737376" lon="10.103047469644924"><ele>933.0</ele><time>2026-05-02T13:24:00Z</time></trkpt><trkpt lat="44.118791115865626" lon="10.10309915435837"><ele>933.0</ele><time>2026-05-02T13:24:01Z</time></trkpt><trkpt lat="44.11866401722345" lon="10.103092752857153"><ele>933.0</ele><time>2026-05-02T13:24:02Z</time></trkpt><trkpt lat="44.11853585157247" lon="10.103067065160271"><ele>933.0</ele><time>2026-05-02T13:24:03Z</time></trkpt><trkpt lat="44.118404388409466" lon="10.103036473979348"><ele>933.0</ele><time>2026-05-02T13:24:04Z</time></trkpt><trkpt lat="44.1182701982786" lon="10.103008895362905"><ele>933.0</ele><time>2026-05-02T13:24:05Z</time></trkpt><trkpt lat="44.118136266984855" lon="10.10297803326866"><ele>933.0</ele><time>2026-05-02T13:24:06Z</time></trkpt><trkpt lat="44.11801056975347" lon="10.102939492673158"><ele>933.0</ele><time>2026-05-02T13:24:07Z</time></trkpt><trkpt lat="44.11789929057867" lon="10.102875744363455"><ele>935.5</ele><time>2026-05-02T13:24:08Z</time></trkpt><trkpt lat="44.11779897081787" lon="10.10276818061349"><ele>938.0</ele><time>2026-05-02T13:24:09Z</time></trkpt><trkpt lat="44.117696758477706" lon="10.102662407271547"><ele>940.5</ele><time>2026-05-02T13:24:10Z</time></trkpt><trkpt lat="44.117592615656086" lon="10.102590176454731"><ele>943.0</ele><time>2026-05-02T13:24:11Z</time></trkpt><trkpt lat="44.1174823796093" lon="10.102560170005486"><ele>940.75</ele><time>2026-05-02T13:24:12Z</time></trkpt><trkpt lat="44.11737034895236" lon="10.102574235766115"><ele>938.5</ele><time>2026-05-02T13:24:13Z</time></trkpt><trkpt lat="44.11724897714582" lon="10.102603028914853"><ele>936.25</ele><time>2026-05-02T13:24:14Z</time></trkpt><trkpt lat="44.1171271912457" lon="10.102638132897985"><ele>934.0</ele><time>2026-05-02T13:24:15Z</time></trkpt><trkpt lat="44.11701051534681" lon="10.102670401927645"><ele>934.0</ele><time>2026-05-02T13:24:16Z</time></trkpt><trkpt lat="44.11691109370708" lon="10.102739310006477"><ele>934.0</ele><time>2026-05-02T13:24:17Z</time></trkpt><trkpt lat="44.1168316805066" lon="10.102836877559469"><ele>934.0</ele><time>2026-05-02T13:24:18Z</time></trkpt><trkpt lat="44.1167644000662" lon="10.102976071283752"><ele>934.0</ele><time>2026-05-02T13:24:18.999Z</time></trkpt><trkpt lat="44.11670481278656" lon="10.10311169744818"><ele>934.0</ele><time>2026-05-02T13:24:19.999Z</time></trkpt><trkpt lat="44.116627938617505" lon="10.103228883826885"><ele>934.0000000000001</ele><time>2026-05-02T13:24:20.999Z</time></trkpt><trkpt lat="44.11652994213647" lon="10.103305458638701"><ele>934.0000000000001</ele><time>2026-05-02T13:24:21.999Z</time></trkpt><trkpt lat="44.11646659824083" lon="10.10339885096253"><ele>934.0</ele><time>2026-05-02T13:24:22.999Z</time></trkpt><trkpt lat="44.11642489585676" lon="10.10350742172259"><ele>934.0</ele><time>2026-05-02T13:24:23.999Z</time></trkpt><trkpt lat="44.116429551953495" lon="10.103619655427373"><ele>935.6</ele><time>2026-05-02T13:24:24.999Z</time></trkpt><trkpt lat="44.11646736207669" lon="10.103721619777021"><ele>937.2</ele><time>2026-05-02T13:24:25.999Z</time></trkpt><trkpt lat="44.11652270127864" lon="10.103813503098118"><ele>938.8000000000001</ele><time>2026-05-02T13:24:26.999Z</time></trkpt><trkpt lat="44.11660150569646" lon="10.103877427543862"><ele>940.4000000000001</ele><time>2026-05-02T13:24:27.999Z</time></trkpt><trkpt lat="44.11669316342608" lon="10.103907955252456"><ele>942.0</ele><time>2026-05-02T13:24:28.999Z</time></trkpt><trkpt lat="44.11679064489414" lon="10.103890206289018"><ele>946.25</ele><time>2026-05-02T13:24:29.999Z</time></trkpt><trkpt lat="44.11689453275157" lon="10.103839111986927"><ele>950.5</ele><time>2026-05-02T13:24:30.999Z</time></trkpt><trkpt lat="44.116993289929425" lon="10.103761205362241"><ele>954.75</ele><time>2026-05-02T13:24:31.999Z</time></trkpt><trkpt lat="44.11710445822044" lon="10.103681280973213"><ele>959.0</ele><time>2026-05-02T13:24:32.999Z</time></trkpt><trkpt lat="44.11721736677351" lon="10.103608739146111"><ele>959.0</ele><time>2026-05-02T13:24:33.999Z</time></trkpt><trkpt lat="44.11732047189058" lon="10.103538766449152"><ele>959.0000000000001</ele><time>2026-05-02T13:24:34.999Z</time></trkpt><trkpt lat="44.11739980780908" lon="10.1034773364629"><ele>959.0000000000001</ele><time>2026-05-02T13:24:35.999Z</time></trkpt><trkpt lat="44.11748540890824" lon="10.103449145579432"><ele>959.0</ele><time>2026-05-02T13:24:36.999Z</time></trkpt><trkpt lat="44.11756503203963" lon="10.103473889091457"><ele>959.0</ele><time>2026-05-02T13:24:37.999Z</time></trkpt><trkpt lat="44.1176503535549" lon="10.103529116367593"><ele>962.0</ele><time>2026-05-02T13:24:38.999Z</time></trkpt><trkpt lat="44.11773607223399" lon="10.103593297721169"><ele>965.0000000000001</ele><time>2026-05-02T13:24:39.999Z</time></trkpt><trkpt lat="44.11782276059534" lon="10.10368442306828"><ele>968.0000000000001</ele><time>2026-05-02T13:24:40.999Z</time></trkpt><trkpt lat="44.11793019727554" lon="10.10374963393294"><ele>971.0</ele><time>2026-05-02T13:24:41.999Z</time></trkpt><trkpt lat="44.118050371349156" lon="10.103753232155796"><ele>974.0</ele><time>2026-05-02T13:24:42.999Z</time></trkpt><trkpt lat="44.11815517377712" lon="10.103721059791484"><ele>974.0</ele><time>2026-05-02T13:24:43.999Z</time></trkpt><trkpt lat="44.11828776979058" lon="10.10372634900519"><ele>974.0</ele><time>2026-05-02T13:24:44.999Z</time></trkpt><trkpt lat="44.11839543001536" lon="10.103774344971722"><ele>974.0</ele><time>2026-05-02T13:24:45.999Z</time></trkpt><trkpt lat="44.11850634956702" lon="10.103839731106552"><ele>974.0</ele><time>2026-05-02T13:24:46.999Z</time></trkpt><trkpt lat="44.11862705064482" lon="10.103896556063345"><ele>974.0</ele><time>2026-05-02T13:24:47.999Z</time></trkpt><trkpt lat="44.11874889320539" lon="10.103941388807584"><ele>974.0000000000001</ele><time>2026-05-02T13:24:48.999Z</time></trkpt><trkpt lat="44.118865492131995" lon="10.103990873873114"><ele>974.0000000000001</ele><time>2026-05-02T13:24:49.999Z</time></trkpt><trkpt lat="44.11895942205558" lon="10.10404829661824"><ele>974.0</ele><time>2026-05-02T13:24:50.999Z</time></trkpt><trkpt lat="44.11900576925121" lon="10.10413231574913"><ele>974.0</ele><time>2026-05-02T13:24:51.999Z</time></trkpt><trkpt lat="44.119038865386656" lon="10.104239311242265"><ele>977.2</ele><time>2026-05-02T13:24:52.999Z</time></trkpt><trkpt lat="44.11906577263219" lon="10.104369345728758"><ele>980.4000000000001</ele><time>2026-05-02T13:24:53.999Z</time></trkpt><trkpt lat="44.119107515451084" lon="10.104491699592792"><ele>983.6</ele><time>2026-05-02T13:24:54.999Z</time></trkpt><trkpt lat="44.119173743776045" lon="10.104612585483771"><ele>986.8</ele><time>2026-05-02T13:24:55.998Z</time></trkpt><trkpt lat="44.119250337843624" lon="10.104735007661949"><ele>990.0</ele><time>2026-05-02T13:24:56.998Z</time></trkpt><trkpt lat="44.119329638017824" lon="10.104863349994924"><ele>989.5</ele><time>2026-05-02T13:24:57.998Z</time></trkpt><trkpt lat="44.1194068011744" lon="10.10499113678528"><ele>989.0</ele><time>2026-05-02T13:24:58.998Z</time></trkpt><trkpt lat="44.11948994331358" lon="10.105124641286395"><ele>988.5</ele><time>2026-05-02T13:24:59.998Z</time></trkpt><trkpt lat="44.1195713275603" lon="10.105258205400403"><ele>988.0</ele><time>2026-05-02T13:25:00.998Z</time></trkpt><trkpt lat="44.119656509731556" lon="10.105388257668835"><ele>988.0</ele><time>2026-05-02T13:25:01.998Z</time></trkpt><trkpt lat="44.119738448034255" lon="10.105513615923268"><ele>988.0</ele><time>2026-05-02T13:25:02.998Z</time></trkpt><trkpt lat="44.11980201177167" lon="10.105642404208314"><ele>988.0</ele><time>2026-05-02T13:25:03.998Z</time></trkpt><trkpt lat="44.11981510577545" lon="10.105803295082282"><ele>988.0</ele><time>2026-05-02T13:25:04.998Z</time></trkpt><trkpt lat="44.119838559156676" lon="10.105960973221887"><ele>982.5</ele><time>2026-05-02T13:25:05.998Z</time></trkpt><trkpt lat="44.11985270521292" lon="10.106127725455769"><ele>977.0</ele><time>2026-05-02T13:25:06.998Z</time></trkpt><trkpt lat="44.11989108824957" lon="10.106278920800856"><ele>971.5</ele><time>2026-05-02T13:25:07.998Z</time></trkpt><trkpt lat="44.11996146128166" lon="10.10640087745943"><ele>966.0</ele><time>2026-05-02T13:25:08.998Z</time></trkpt><trkpt lat="44.12005657165569" lon="10.106492186603361"><ele>974.25</ele><time>2026-05-02T13:25:09.998Z</time></trkpt><trkpt lat="44.120160779790304" lon="10.106577075569653"><ele>982.5</ele><time>2026-05-02T13:25:10.998Z</time></trkpt><trkpt lat="44.12024714544131" lon="10.106689573996961"><ele>990.75</ele><time>2026-05-02T13:25:11.998Z</time></trkpt><trkpt lat="44.12029931999507" lon="10.106839064211988"><ele>999.0</ele><time>2026-05-02T13:25:12.998Z</time></trkpt><trkpt lat="44.120338111619645" lon="10.106993186038501"><ele>999.0</ele><time>2026-05-02T13:25:13.998Z</time></trkpt><trkpt lat="44.12040510931335" lon="10.107116721305339"><ele>999.0000000000001</ele><time>2026-05-02T13:25:14.998Z</time></trkpt><trkpt lat="44.12050080521212" lon="10.107203970967936"><ele>999.0000000000001</ele><time>2026-05-02T13:25:15.998Z</time></trkpt><trkpt lat="44.120605119093895" lon="10.107271753529671"><ele>999.0</ele><time>2026-05-02T13:25:16.998Z</time></trkpt><trkpt lat="44.12068252108404" lon="10.107377174394152"><ele>999.0</ele><time>2026-05-02T13:25:17.998Z</time></trkpt><trkpt lat="44.12075270823617" lon="10.107470898547332"><ele>1007.25</ele><time>2026-05-02T13:25:18.998Z</time></trkpt><trkpt lat="44.120769258714894" lon="10.107607418040127"><ele>1015.5</ele><time>2026-05-02T13:25:19.998Z</time></trkpt><trkpt lat="44.12082934174939" lon="10.107694887985845"><ele>1023.75</ele><time>2026-05-02T13:25:20.998Z</time></trkpt><trkpt lat="44.12076861169164" lon="10.107900630468416"><ele>1032.0</ele><time>2026-05-02T13:25:21.998Z</time></trkpt><trkpt lat="44.120796813924024" lon="10.108040434821374"><ele>1032.0</ele><time>2026-05-02T13:25:22.998Z</time></trkpt><trkpt lat="44.12084949797689" lon="10.108169899293948"><ele>1032.0</ele><time>2026-05-02T13:25:23.998Z</time></trkpt><trkpt lat="44.12092834791524" lon="10.108284545228257"><ele>1032.0</ele><time>2026-05-02T13:25:24.998Z</time></trkpt><trkpt lat="44.121023154550635" lon="10.108390199816006"><ele>1032.0</ele><time>2026-05-02T13:25:25.998Z</time></trkpt><trkpt lat="44.121123135760854" lon="10.108478801713881"><ele>1027.75</ele><time>2026-05-02T13:25:26.998Z</time></trkpt><trkpt lat="44.12122247903373" lon="10.108596195366793"><ele>1023.5</ele><time>2026-05-02T13:25:27.998Z</time></trkpt><trkpt lat="44.121299941884025" lon="10.108757700550894"><ele>1019.25</ele><time>2026-05-02T13:25:29.001Z</time></trkpt><trkpt lat="44.12137517973055" lon="10.108908427909403"><ele>1015.0</ele><time>2026-05-02T13:25:30.001Z</time></trkpt><trkpt lat="44.12145080892724" lon="10.109060311476355"><ele>1021.75</ele><time>2026-05-02T13:25:31.001Z</time></trkpt><trkpt lat="44.121529260888714" lon="10.109216374934984"><ele>1028.5</ele><time>2026-05-02T13:25:32.001Z</time></trkpt><trkpt lat="44.12161047857776" lon="10.109356446969729"><ele>1035.25</ele><time>2026-05-02T13:25:33.001Z</time></trkpt><trkpt lat="44.121676906986636" lon="10.109467146821233"><ele>1042.0</ele><time>2026-05-02T13:25:34.001Z</time></trkpt><trkpt lat="44.121733463541815" lon="10.10955679610116"><ele>1042.0</ele><time>2026-05-02T13:25:35.001Z</time></trkpt><trkpt lat="44.121788159629155" lon="10.109624528070501"><ele>1042.0</ele><time>2026-05-02T13:25:36.001Z</time></trkpt><trkpt lat="44.12184664279214" lon="10.109687407895473"><ele>1042.0</ele><time>2026-05-02T13:25:37.001Z</time></trkpt><trkpt lat="44.12190750952061" lon="10.1097410251858"><ele>1042.0</ele><time>2026-05-02T13:25:38.001Z</time></trkpt><trkpt lat="44.12198060508882" lon="10.109769790516518"><ele>1042.0</ele><time>2026-05-02T13:25:39.001Z</time></trkpt><trkpt lat="44.12204486194011" lon="10.10980800222847"><ele>1042.0</ele><time>2026-05-02T13:25:40.001Z</time></trkpt><trkpt lat="44.12208989532315" lon="10.109883639329372"><ele>1042.0</ele><time>2026-05-02T13:25:41.001Z</time></trkpt><trkpt lat="44.12211541198038" lon="10.109982657158785"><ele>1038.1666666666665</ele><time>2026-05-02T13:25:42.001Z</time></trkpt><trkpt lat="44.122131671907326" lon="10.110071142270158"><ele>1034.3333333333333</ele><time>2026-05-02T13:25:43.001Z</time></trkpt><trkpt lat="44.12214454121749" lon="10.110166513435185"><ele>1030.5</ele><time>2026-05-02T13:25:44.001Z</time></trkpt><trkpt lat="44.122156175296645" lon="10.110280698124242"><ele>1026.6666666666667</ele><time>2026-05-02T13:25:45.001Z</time></trkpt><trkpt lat="44.122162548378746" lon="10.110391754883235"><ele>1022.8333333333334</ele><time>2026-05-02T13:25:46.001Z</time></trkpt><trkpt lat="44.12217075437226" lon="10.11049827937448"><ele>1019.0</ele><time>2026-05-02T13:25:47.001Z</time></trkpt><trkpt lat="44.12217645548125" lon="10.11061077437291"><ele>1019.0000000000001</ele><time>2026-05-02T13:25:48.001Z</time></trkpt><trkpt lat="44.122174366430585" lon="10.110740193513156"><ele>1019.0</ele><time>2026-05-02T13:25:49.001Z</time></trkpt><trkpt lat="44.12217794442734" lon="10.11086402331491"><ele>1019.0</ele><time>2026-05-02T13:25:50Z</time></trkpt><trkpt lat="44.12218416382137" lon="10.110983611247915"><ele>1019.0</ele><time>2026-05-02T13:25:50.999Z</time></trkpt><trkpt lat="44.12218955722902" lon="10.111100184306366"><ele>1019.0000000000001</ele><time>2026-05-02T13:25:51.999Z</time></trkpt><trkpt lat="44.1221887311638" lon="10.111218509706104"><ele>1019.0</ele><time>2026-05-02T13:25:52.999Z</time></trkpt><trkpt lat="44.12218618509181" lon="10.111328395318885"><ele>1018.6666666666667</ele><time>2026-05-02T13:25:53.999Z</time></trkpt><trkpt lat="44.122180859672234" lon="10.111441581876932"><ele>1018.3333333333334</ele><time>2026-05-02T13:25:54.999Z</time></trkpt><trkpt lat="44.122187136932226" lon="10.111557429637944"><ele>1018.0</ele><time>2026-05-02T13:25:55.999Z</time></trkpt><trkpt lat="44.1221990138042" lon="10.11166699641841"><ele>1017.6666666666667</ele><time>2026-05-02T13:25:56.999Z</time></trkpt><trkpt lat="44.122217710806716" lon="10.111765389016162"><ele>1017.3333333333334</ele><time>2026-05-02T13:25:57.999Z</time></trkpt><trkpt lat="44.12223506200374" lon="10.111861004881018"><ele>1017.0</ele><time>2026-05-02T13:25:58.999Z</time></trkpt><trkpt lat="44.12225812282416" lon="10.111951379493982"><ele>1017.0</ele><time>2026-05-02T13:25:59.999Z</time></trkpt><trkpt lat="44.122281433308025" lon="10.11203401517005"><ele>1017.0</ele><time>2026-05-02T13:26:00.999Z</time></trkpt><trkpt lat="44.122330835270944" lon="10.112199038689745"><ele>1017.0</ele><time>2026-05-02T13:26:02.999Z</time></trkpt><trkpt lat="44.12236170911445" lon="10.112282718735278"><ele>1017.0</ele><time>2026-05-02T13:26:03.999Z</time></trkpt><trkpt lat="44.12239292210119" lon="10.11237507393463"><ele>1017.0</ele><time>2026-05-02T13:26:04.999Z</time></trkpt><trkpt lat="44.122417441126224" lon="10.112469047675166"><ele>1017.0</ele><time>2026-05-02T13:26:05.999Z</time></trkpt><trkpt lat="44.12243711281785" lon="10.112576209734168"><ele>1026.5</ele><time>2026-05-02T13:26:06.999Z</time></trkpt><trkpt lat="44.12244853947743" lon="10.112684531721893"><ele>1036.0</ele><time>2026-05-02T13:26:07.999Z</time></trkpt><trkpt lat="44.12245385129098" lon="10.112798831284517"><ele>1045.5</ele><time>2026-05-02T13:26:08.999Z</time></trkpt><trkpt lat="44.12243986340139" lon="10.112926523267253"><ele>1055.0</ele><time>2026-05-02T13:26:09.999Z</time></trkpt><trkpt lat="44.122426141829976" lon="10.113054869669835"><ele>1064.5</ele><time>2026-05-02T13:26:10.999Z</time></trkpt><trkpt lat="44.122414262638536" lon="10.113177822285369"><ele>1074.0</ele><time>2026-05-02T13:26:11.999Z</time></trkpt><trkpt lat="44.122402109675946" lon="10.113298920595911"><ele>1066.0</ele><time>2026-05-02T13:26:12.999Z</time></trkpt><trkpt lat="44.122394534714076" lon="10.113420548441137"><ele>1058.0</ele><time>2026-05-02T13:26:13.999Z</time></trkpt><trkpt lat="44.122389854165405" lon="10.113537125707742"><ele>1050.0</ele><time>2026-05-02T13:26:14.999Z</time></trkpt><trkpt lat="44.1223856033226" lon="10.1136415191236"><ele>1042.0</ele><time>2026-05-02T13:26:15.999Z</time></trkpt><trkpt lat="44.12237316262255" lon="10.113738191235106"><ele>1034.0</ele><time>2026-05-02T13:26:16.999Z</time></trkpt><trkpt lat="44.12235349780146" lon="10.113832642016458"><ele>1026.0</ele><time>2026-05-02T13:26:17.999Z</time></trkpt><trkpt lat="44.12233638157973" lon="10.113935180635485"><ele>1026.0</ele><time>2026-05-02T13:26:18.999Z</time></trkpt><trkpt lat="44.122292833041655" lon="10.114030552690856"><ele>1026.0</ele><time>2026-05-02T13:26:19.999Z</time></trkpt><trkpt lat="44.12223832937407" lon="10.114119086169966"><ele>1026.0</ele><time>2026-05-02T13:26:20.999Z</time></trkpt><trkpt lat="44.122175272634145" lon="10.11422515717211"><ele>1026.0</ele><time>2026-05-02T13:26:21.998Z</time></trkpt><trkpt lat="44.12212419540451" lon="10.114338119500582"><ele>1026.0</ele><time>2026-05-02T13:26:22.998Z</time></trkpt><trkpt lat="44.12208504539194" lon="10.1144581414988"><ele>1029.8</ele><time>2026-05-02T13:26:23.998Z</time></trkpt><trkpt lat="44.122061093276514" lon="10.114579172851194"><ele>1033.6</ele><time>2026-05-02T13:26:24.998Z</time></trkpt><trkpt lat="44.122038929954456" lon="10.11470579055202"><ele>1037.4</ele><time>2026-05-02T13:26:25.998Z</time></trkpt><trkpt lat="44.122024468126675" lon="10.11483124132462"><ele>1041.2</ele><time>2026-05-02T13:26:26.998Z</time></trkpt><trkpt lat="44.122012390179655" lon="10.114951514967446"><ele>1045.0</ele><time>2026-05-02T13:26:27.998Z</time></trkpt><trkpt lat="44.12199729859209" lon="10.1150727677756"><ele>1048.8</ele><time>2026-05-02T13:26:28.998Z</time></trkpt><trkpt lat="44.12197661470166" lon="10.115197805216907"><ele>1052.6</ele><time>2026-05-02T13:26:29.998Z</time></trkpt><trkpt lat="44.1219526708781" lon="10.115332992777265"><ele>1056.4</ele><time>2026-05-02T13:26:30.998Z</time></trkpt><trkpt lat="44.121914136999074" lon="10.115475235171985"><ele>1060.2</ele><time>2026-05-02T13:26:31.998Z</time></trkpt><trkpt lat="44.12186229690484" lon="10.115621126971126"><ele>1064.0</ele><time>2026-05-02T13:26:32.998Z</time></trkpt><trkpt lat="44.121800442023456" lon="10.115764753749461"><ele>1067.2</ele><time>2026-05-02T13:26:33.998Z</time></trkpt><trkpt lat="44.12173263504192" lon="10.11590103138871"><ele>1070.4</ele><time>2026-05-02T13:26:34.998Z</time></trkpt><trkpt lat="44.121662194795455" lon="10.116035660798397"><ele>1073.6</ele><time>2026-05-02T13:26:35.998Z</time></trkpt><trkpt lat="44.121628305126286" lon="10.116171538949144"><ele>1076.8</ele><time>2026-05-02T13:26:36.998Z</time></trkpt><trkpt lat="44.12159481301997" lon="10.116291080711362"><ele>1080.0</ele><time>2026-05-02T13:26:37.998Z</time></trkpt><trkpt lat="44.121546871221014" lon="10.116369316860748"><ele>1080.0</ele><time>2026-05-02T13:26:38.998Z</time></trkpt><trkpt lat="44.12148171782285" lon="10.116402168131291"><ele>1080.0</ele><time>2026-05-02T13:26:39.998Z</time></trkpt><trkpt lat="44.12139549311157" lon="10.116407756099113"><ele>1080.0</ele><time>2026-05-02T13:26:40.998Z</time></trkpt><trkpt lat="44.12130460503664" lon="10.11639653528498"><ele>1080.0</ele><time>2026-05-02T13:26:41.998Z</time></trkpt><trkpt lat="44.12121203792466" lon="10.116387863312223"><ele>1080.0</ele><time>2026-05-02T13:26:42.998Z</time></trkpt><trkpt lat="44.12113198064048" lon="10.116418879425217"><ele>1080.0</ele><time>2026-05-02T13:26:43.998Z</time></trkpt><trkpt lat="44.121050790696586" lon="10.116478866144575"><ele>1084.0</ele><time>2026-05-02T13:26:44.998Z</time></trkpt><trkpt lat="44.12099209178059" lon="10.116584571735768"><ele>1088.0</ele><time>2026-05-02T13:26:45.998Z</time></trkpt><trkpt lat="44.12096023849807" lon="10.116692516743312"><ele>1092.0</ele><time>2026-05-02T13:26:46.998Z</time></trkpt><trkpt lat="44.12090914478219" lon="10.116745932054556"><ele>1096.0</ele><time>2026-05-02T13:26:47.998Z</time></trkpt><trkpt lat="44.12083125340863" lon="10.116762272121026"><ele>1100.0</ele><time>2026-05-02T13:26:48.998Z</time></trkpt><trkpt lat="44.12075726706404" lon="10.116724963588823"><ele>1104.0</ele><time>2026-05-02T13:26:49.998Z</time></trkpt><trkpt lat="44.120704679251" lon="10.116620222190496"><ele>1097.8</ele><time>2026-05-02T13:26:50.998Z</time></trkpt><trkpt lat="44.120664934855185" lon="10.116523721004038"><ele>1091.6000000000001</ele><time>2026-05-02T13:26:51.998Z</time></trkpt><trkpt lat="44.120624122771325" lon="10.116412438788673"><ele>1085.4</ele><time>2026-05-02T13:26:52.998Z</time></trkpt><trkpt lat="44.12058740804604" lon="10.116268254991645"><ele>1079.2</ele><time>2026-05-02T13:26:53.998Z</time></trkpt><trkpt lat="44.12055402950099" lon="10.116125321637016"><ele>1073.0</ele><time>2026-05-02T13:26:54.998Z</time></trkpt><trkpt lat="44.120501184128145" lon="10.11603406765162"><ele>1073.0</ele><time>2026-05-02T13:26:55.998Z</time></trkpt><trkpt lat="44.12043680226594" lon="10.115992074682818"><ele>1073.0</ele><time>2026-05-02T13:26:56.998Z</time></trkpt><trkpt lat="44.12036470273278" lon="10.115994326619576"><ele>1073.0</ele><time>2026-05-02T13:26:58.997Z</time></trkpt><trkpt lat="44.12030589825556" lon="10.116045023882984"><ele>1073.0</ele><time>2026-05-02T13:27:00.997Z</time></trkpt><trkpt lat="44.12020592790681" lon="10.116183544178675"><ele>1073.0</ele><time>2026-05-02T13:27:02.997Z</time></trkpt><trkpt lat="44.12013466730672" lon="10.116269856213085"><ele>1073.0</ele><time>2026-05-02T13:27:03.997Z</time></trkpt><trkpt lat="44.120060478783266" lon="10.116364134063437"><ele>1073.0</ele><time>2026-05-02T13:27:04.997Z</time></trkpt><trkpt lat="44.11997893383332" lon="10.11646915715553"><ele>1073.0</ele><time>2026-05-02T13:27:05.997Z</time></trkpt><trkpt lat="44.11989731009899" lon="10.116576146958492"><ele>1073.0</ele><time>2026-05-02T13:27:06.997Z</time></trkpt><trkpt lat="44.11980972740739" lon="10.116696543976024"><ele>1073.0</ele><time>2026-05-02T13:27:07.997Z</time></trkpt><trkpt lat="44.11971807055094" lon="10.11682919087459"><ele>1075.75</ele><time>2026-05-02T13:27:08.997Z</time></trkpt><trkpt lat="44.11962821313066" lon="10.116962239707913"><ele>1078.5</ele><time>2026-05-02T13:27:09.997Z</time></trkpt><trkpt lat="44.119534294382895" lon="10.11709457073619"><ele>1081.25</ele><time>2026-05-02T13:27:10.997Z</time></trkpt><trkpt lat="44.1194289485139" lon="10.117213280531718"><ele>1084.0</ele><time>2026-05-02T13:27:11.997Z</time></trkpt><trkpt lat="44.11931613127459" lon="10.11730058443676"><ele>1084.0</ele><time>2026-05-02T13:27:12.997Z</time></trkpt><trkpt lat="44.11918938414057" lon="10.117353218791353"><ele>1084.0</ele><time>2026-05-02T13:27:13.997Z</time></trkpt><trkpt lat="44.11905345790171" lon="10.117372510851851"><ele>1084.0</ele><time>2026-05-02T13:27:14.997Z</time></trkpt><trkpt lat="44.118929543019355" lon="10.1173749451127"><ele>1084.0</ele><time>2026-05-02T13:27:15.997Z</time></trkpt><trkpt lat="44.118804553678864" lon="10.11738808898802"><ele>1087.5</ele><time>2026-05-02T13:27:16.997Z</time></trkpt><trkpt lat="44.11868789073247" lon="10.117426245528037"><ele>1091.0</ele><time>2026-05-02T13:27:17.997Z</time></trkpt><trkpt lat="44.11858728687001" lon="10.117501129595656"><ele>1094.5</ele><time>2026-05-02T13:27:18.997Z</time></trkpt><trkpt lat="44.11850237239027" lon="10.1176095774908"><ele>1098.0</ele><time>2026-05-02T13:27:19.997Z</time></trkpt><trkpt lat="44.11842053172285" lon="10.117736749906582"><ele>1098.0</ele><time>2026-05-02T13:27:20.997Z</time></trkpt><trkpt lat="44.118340438975196" lon="10.117871783073124"><ele>1098.0</ele><time>2026-05-02T13:27:21.997Z</time></trkpt><trkpt lat="44.11825427900816" lon="10.118009096325668"><ele>1098.0</ele><time>2026-05-02T13:27:22.997Z</time></trkpt><trkpt lat="44.11816748364175" lon="10.118142448318089"><ele>1098.0</ele><time>2026-05-02T13:27:23.997Z</time></trkpt><trkpt lat="44.11807594538837" lon="10.118281095411794"><ele>1098.25</ele><time>2026-05-02T13:27:24.997Z</time></trkpt><trkpt lat="44.11798951227332" lon="10.118424380349479"><ele>1098.5</ele><time>2026-05-02T13:27:25.997Z</time></trkpt><trkpt lat="44.11790003744109" lon="10.118573348014465"><ele>1098.75</ele><time>2026-05-02T13:27:26.997Z</time></trkpt><trkpt lat="44.117811386728214" lon="10.11872711590168"><ele>1099.0</ele><time>2026-05-02T13:27:27.997Z</time></trkpt><trkpt lat="44.11772518218338" lon="10.118881490956065"><ele>1099.0</ele><time>2026-05-02T13:27:28.997Z</time></trkpt><trkpt lat="44.11764707129192" lon="10.119036348940508"><ele>1099.0</ele><time>2026-05-02T13:27:29.997Z</time></trkpt><trkpt lat="44.117570900883294" lon="10.11918902751827"><ele>1099.0</ele><time>2026-05-02T13:27:30.997Z</time></trkpt><trkpt lat="44.11750439187022" lon="10.119346384088576"><ele>1099.0</ele><time>2026-05-02T13:27:31.997Z</time></trkpt><trkpt lat="44.11745117346345" lon="10.119501665455502"><ele>1101.5</ele><time>2026-05-02T13:27:32.997Z</time></trkpt><trkpt lat="44.11741405992486" lon="10.119643631570726"><ele>1104.0</ele><time>2026-05-02T13:27:33.997Z</time></trkpt><trkpt lat="44.11737449858904" lon="10.119762215535394"><ele>1106.5</ele><time>2026-05-02T13:27:35Z</time></trkpt><trkpt lat="44.117319479553395" lon="10.119863314649097"><ele>1109.0</ele><time>2026-05-02T13:27:36Z</time></trkpt><trkpt lat="44.11724372724661" lon="10.119929412882769"><ele>1111.5</ele><time>2026-05-02T13:27:37Z</time></trkpt><trkpt lat="44.117179895202426" lon="10.119908560816013"><ele>1114.0</ele><time>2026-05-02T13:27:38Z</time></trkpt><trkpt lat="44.11710544920411" lon="10.119873223631272"><ele>1114.0</ele><time>2026-05-02T13:27:39Z</time></trkpt><trkpt lat="44.11702674828355" lon="10.119880466727347"><ele>1114.0</ele><time>2026-05-02T13:27:40Z</time></trkpt><trkpt lat="44.11695533183148" lon="10.119947302570445"><ele>1114.0</ele><time>2026-05-02T13:27:41Z</time></trkpt><trkpt lat="44.11687519879263" lon="10.120035089465196"><ele>1114.0</ele><time>2026-05-02T13:27:42Z</time></trkpt><trkpt lat="44.116806384929745" lon="10.120137594496455"><ele>1114.0</ele><time>2026-05-02T13:27:43Z</time></trkpt><trkpt lat="44.11671498300437" lon="10.120253127901972"><ele>1119.5</ele><time>2026-05-02T13:27:44Z</time></trkpt><trkpt lat="44.11662287934402" lon="10.120368174125119"><ele>1125.0</ele><time>2026-05-02T13:27:45Z</time></trkpt><trkpt lat="44.11654114024486" lon="10.120496016646003"><ele>1130.5</ele><time>2026-05-02T13:27:46Z</time></trkpt><trkpt lat="44.11646604514" lon="10.120632800227158"><ele>1136.0</ele><time>2026-05-02T13:27:47Z</time></trkpt><trkpt lat="44.11639663672078" lon="10.120763030388643"><ele>1140.8</ele><time>2026-05-02T13:27:48Z</time></trkpt><trkpt lat="44.116337882626034" lon="10.120876116387052"><ele>1145.6</ele><time>2026-05-02T13:27:49Z</time></trkpt><trkpt lat="44.11628631237462" lon="10.121003116089017"><ele>1150.4</ele><time>2026-05-02T13:27:50Z</time></trkpt><trkpt lat="44.11625490036233" lon="10.121146236823718"><ele>1155.2</ele><time>2026-05-02T13:27:51Z</time></trkpt><trkpt lat="44.11624088659449" lon="10.12129644830062"><ele>1160.0</ele><time>2026-05-02T13:27:52Z</time></trkpt><trkpt lat="44.116226816857626" lon="10.12144685751954"><ele>1162.3333333333335</ele><time>2026-05-02T13:27:53Z</time></trkpt><trkpt lat="44.116206509381435" lon="10.121583542415209"><ele>1164.6666666666667</ele><time>2026-05-02T13:27:54Z</time></trkpt><trkpt lat="44.1161855822258" lon="10.121696293609732"><ele>1167.0</ele><time>2026-05-02T13:27:55Z</time></trkpt><trkpt lat="44.11614584879496" lon="10.121775405126668"><ele>1169.3333333333333</ele><time>2026-05-02T13:27:56Z</time></trkpt><trkpt lat="44.11608737583933" lon="10.12182525637711"><ele>1171.6666666666665</ele><time>2026-05-02T13:27:57Z</time></trkpt><trkpt lat="44.11601925774677" lon="10.121830274033021"><ele>1174.0</ele><time>2026-05-02T13:27:58Z</time></trkpt><trkpt lat="44.115955160921104" lon="10.121790640331882"><ele>1174.0</ele><time>2026-05-02T13:27:59Z</time></trkpt><trkpt lat="44.115899560384364" lon="10.121696181262768"><ele>1174.0</ele><time>2026-05-02T13:28:00Z</time></trkpt><trkpt lat="44.11584872707374" lon="10.121579366247927"><ele>1174.0</ele><time>2026-05-02T13:28:00.999Z</time></trkpt><trkpt lat="44.1158031696761" lon="10.121467277153396"><ele>1174.0</ele><time>2026-05-02T13:28:01.999Z</time></trkpt><trkpt lat="44.115745472117375" lon="10.121336483629115"><ele>1174.0</ele><time>2026-05-02T13:28:02.999Z</time></trkpt><trkpt lat="44.11568395054216" lon="10.121200131495897"><ele>1180.5</ele><time>2026-05-02T13:28:03.999Z</time></trkpt><trkpt lat="44.11561622634374" lon="10.121042823648217"><ele>1187.0</ele><time>2026-05-02T13:28:04.999Z</time></trkpt><trkpt lat="44.11554900914562" lon="10.120855849665952"><ele>1193.5</ele><time>2026-05-02T13:28:05.999Z</time></trkpt><trkpt lat="44.115496888028616" lon="10.120675128668791"><ele>1200.0</ele><time>2026-05-02T13:28:06.999Z</time></trkpt><trkpt lat="44.115449219461084" lon="10.120483316858548"><ele>1200.0</ele><time>2026-05-02T13:28:07.999Z</time></trkpt><trkpt lat="44.11539410471034" lon="10.120280252691483"><ele>1200.0</ele><time>2026-05-02T13:28:08.999Z</time></trkpt><trkpt lat="44.11534612818249" lon="10.120074557505749"><ele>1200.0</ele><time>2026-05-02T13:28:09.999Z</time></trkpt><trkpt lat="44.115313145755366" lon="10.119860428027923"><ele>1201.0</ele><time>2026-05-02T13:28:10.999Z</time></trkpt><trkpt lat="44.11529556646673" lon="10.11964167124519"><ele>1202.0</ele><time>2026-05-02T13:28:11.999Z</time></trkpt><trkpt lat="44.11528252253516" lon="10.119424879078045"><ele>1203.0</ele><time>2026-05-02T13:28:12.999Z</time></trkpt><trkpt lat="44.115276045301066" lon="10.119212730844792"><ele>1200.6666666666667</ele><time>2026-05-02T13:28:13.999Z</time></trkpt><trkpt lat="44.1152808787207" lon="10.118990866816661"><ele>1198.3333333333335</ele><time>2026-05-02T13:28:14.999Z</time></trkpt><trkpt lat="44.11530211260341" lon="10.118777458752838"><ele>1196.0</ele><time>2026-05-02T13:28:15.999Z</time></trkpt><trkpt lat="44.11533665876816" lon="10.118560440579861"><ele>1196.0</ele><time>2026-05-02T13:28:16.999Z</time></trkpt><trkpt lat="44.115386547706656" lon="10.118351615244842"><ele>1196.0</ele><time>2026-05-02T13:28:17.999Z</time></trkpt><trkpt lat="44.11543040890442" lon="10.118127105017429"><ele>1196.0</ele><time>2026-05-02T13:28:18.999Z</time></trkpt><trkpt lat="44.11548834931535" lon="10.117906998946843"><ele>1189.0</ele><time>2026-05-02T13:28:19.999Z</time></trkpt><trkpt lat="44.115523904390045" lon="10.11767502735322"><ele>1182.0</ele><time>2026-05-02T13:28:20.999Z</time></trkpt><trkpt lat="44.11556003416366" lon="10.117440137758775"><ele>1175.0</ele><time>2026-05-02T13:28:21.999Z</time></trkpt><trkpt lat="44.1155872162981" lon="10.11725388940437"><ele>1169.2</ele><time>2026-05-02T13:28:22.999Z</time></trkpt><trkpt lat="44.115602842539644" lon="10.117084204199369"><ele>1163.4</ele><time>2026-05-02T13:28:23.999Z</time></trkpt><trkpt lat="44.115623346854" lon="10.116951006508819"><ele>1157.6</ele><time>2026-05-02T13:28:24.999Z</time></trkpt><trkpt lat="44.11561102630799" lon="10.116864144358317"><ele>1151.8</ele><time>2026-05-02T13:28:25.999Z</time></trkpt><trkpt lat="44.11553300104335" lon="10.116749980099993"><ele>1146.0</ele><time>2026-05-02T13:28:27.999Z</time></trkpt><trkpt lat="44.115417398021386" lon="10.116791432215612"><ele>1146.0</ele><time>2026-05-02T13:28:29.999Z</time></trkpt><trkpt lat="44.11538180992433" lon="10.11686645787136"><ele>1146.0</ele><time>2026-05-02T13:28:30.999Z</time></trkpt><trkpt lat="44.11537674922783" lon="10.11695794113101"><ele>1146.0</ele><time>2026-05-02T13:28:31.999Z</time></trkpt><trkpt lat="44.11539363273212" lon="10.117047448328305"><ele>1146.0</ele><time>2026-05-02T13:28:32.999Z</time></trkpt><trkpt lat="44.11539646372544" lon="10.117147728410105"><ele>1146.0</ele><time>2026-05-02T13:28:33.999Z</time></trkpt><trkpt lat="44.115366819040474" lon="10.117268111302668"><ele>1146.0</ele><time>2026-05-02T13:28:34.999Z</time></trkpt><trkpt lat="44.11531156372876" lon="10.11740240713049"><ele>1153.25</ele><time>2026-05-02T13:28:35.998Z</time></trkpt><trkpt lat="44.11524327511196" lon="10.117540573321357"><ele>1160.5</ele><time>2026-05-02T13:28:36.998Z</time></trkpt><trkpt lat="44.11516092748353" lon="10.11768415513826"><ele>1167.75</ele><time>2026-05-02T13:28:37.998Z</time></trkpt><trkpt lat="44.115059399598955" lon="10.1178234724916"><ele>1175.0</ele><time>2026-05-02T13:28:38.998Z</time></trkpt><trkpt lat="44.1149716052773" lon="10.117970766438942"><ele>1176.3333333333335</ele><time>2026-05-02T13:28:39.998Z</time></trkpt><trkpt lat="44.11489065423832" lon="10.118168365058462"><ele>1177.6666666666667</ele><time>2026-05-02T13:28:40.998Z</time></trkpt><trkpt lat="44.11479426413142" lon="10.118342277218602"><ele>1179.0</ele><time>2026-05-02T13:28:41.998Z</time></trkpt><trkpt lat="44.11467820766358" lon="10.118507463680299"><ele>1179.0</ele><time>2026-05-02T13:28:42.998Z</time></trkpt><trkpt lat="44.11452846033552" lon="10.118637303725572"><ele>1179.0</ele><time>2026-05-02T13:28:43.998Z</time></trkpt><trkpt lat="44.11437600810248" lon="10.118757513104438"><ele>1179.0</ele><time>2026-05-02T13:28:44.998Z</time></trkpt><trkpt lat="44.11423822255721" lon="10.118877893965683"><ele>1179.0</ele><time>2026-05-02T13:28:45.998Z</time></trkpt><trkpt lat="44.11412027752189" lon="10.11901114618192"><ele>1179.0</ele><time>2026-05-02T13:28:46.998Z</time></trkpt><trkpt lat="44.11402321396518" lon="10.119168010989661"><ele>1179.0</ele><time>2026-05-02T13:28:47.998Z</time></trkpt><trkpt lat="44.113922550897904" lon="10.119322773322471"><ele>1179.0</ele><time>2026-05-02T13:28:48.998Z</time></trkpt><trkpt lat="44.11379807590278" lon="10.119441254536435"><ele>1179.0</ele><time>2026-05-02T13:28:49.998Z</time></trkpt><trkpt lat="44.113679067859614" lon="10.119532347135795"><ele>1179.0</ele><time>2026-05-02T13:28:50.998Z</time></trkpt><trkpt lat="44.113581189813885" lon="10.119607444155795"><ele>1179.0</ele><time>2026-05-02T13:28:51.998Z</time></trkpt><trkpt lat="44.11351532489666" lon="10.11966562078852"><ele>1179.0</ele><time>2026-05-02T13:28:52.998Z</time></trkpt><trkpt lat="44.113486784641104" lon="10.119790430646624"><ele>1179.0</ele><time>2026-05-02T13:28:54.998Z</time></trkpt><trkpt lat="44.11353413551041" lon="10.119880724575347"><ele>1179.0</ele><time>2026-05-02T13:28:56.998Z</time></trkpt><trkpt lat="44.11359492934246" lon="10.119959251534022"><ele>1179.0</ele><time>2026-05-02T13:28:58.998Z</time></trkpt><trkpt lat="44.11368118380664" lon="10.120117890852883"><ele>1179.0</ele><time>2026-05-02T13:29:00.998Z</time></trkpt><trkpt lat="44.113752527747536" lon="10.120178128263895"><ele>1179.8</ele><time>2026-05-02T13:29:01.998Z</time></trkpt><trkpt lat="44.11383714878124" lon="10.120218401203685"><ele>1180.6000000000001</ele><time>2026-05-02T13:29:02.998Z</time></trkpt><trkpt lat="44.11393035172072" lon="10.120262562075931"><ele>1181.4</ele><time>2026-05-02T13:29:03.998Z</time></trkpt><trkpt lat="44.11402792270093" lon="10.120315502141194"><ele>1182.2</ele><time>2026-05-02T13:29:04.998Z</time></trkpt><trkpt lat="44.11411265923429" lon="10.120386035276372"><ele>1183.0</ele><time>2026-05-02T13:29:05.998Z</time></trkpt><trkpt lat="44.1141877979102" lon="10.120495044380565"><ele>1188.6</ele><time>2026-05-02T13:29:06.998Z</time></trkpt><trkpt lat="44.11424951566764" lon="10.120622233731757"><ele>1194.1999999999998</ele><time>2026-05-02T13:29:07.998Z</time></trkpt><trkpt lat="44.114315190122866" lon="10.12074975685082"><ele>1199.8</ele><time>2026-05-02T13:29:08.998Z</time></trkpt><trkpt lat="44.114375487148386" lon="10.120873999519803"><ele>1205.3999999999999</ele><time>2026-05-02T13:29:09.998Z</time></trkpt><trkpt lat="44.11442659404663" lon="10.121000733924202"><ele>1211.0</ele><time>2026-05-02T13:29:10.997Z</time></trkpt><trkpt lat="44.11447069329716" lon="10.121109106360777"><ele>1211.0</ele><time>2026-05-02T13:29:11.997Z</time></trkpt><trkpt lat="44.114513550440144" lon="10.121205218542274"><ele>1211.0</ele><time>2026-05-02T13:29:12.997Z</time></trkpt><trkpt lat="44.114564802665086" lon="10.121296810190517"><ele>1211.0</ele><time>2026-05-02T13:29:13.997Z</time></trkpt><trkpt lat="44.1146215041128" lon="10.12139937397885"><ele>1211.0</ele><time>2026-05-02T13:29:14.997Z</time></trkpt><trkpt lat="44.11467790114076" lon="10.121515197028952"><ele>1211.0</ele><time>2026-05-02T13:29:15.997Z</time></trkpt><trkpt lat="44.114724320614755" lon="10.121637674424546"><ele>1205.3999999999999</ele><time>2026-05-02T13:29:16.997Z</time></trkpt><trkpt lat="44.11475831132349" lon="10.121769116256413"><ele>1199.8</ele><time>2026-05-02T13:29:17.997Z</time></trkpt><trkpt lat="44.11478661427726" lon="10.1219041933404"><ele>1194.1999999999998</ele><time>2026-05-02T13:29:18.997Z</time></trkpt><trkpt lat="44.11481323240089" lon="10.122041295901024"><ele>1188.6</ele><time>2026-05-02T13:29:19.997Z</time></trkpt><trkpt lat="44.11483832852986" lon="10.122174123455588"><ele>1183.0</ele><time>2026-05-02T13:29:20.997Z</time></trkpt><trkpt lat="44.11486303857353" lon="10.12230499316447"><ele>1179.4</ele><time>2026-05-02T13:29:21.997Z</time></trkpt><trkpt lat="44.11488790813903" lon="10.122438676677827"><ele>1175.8</ele><time>2026-05-02T13:29:22.997Z</time></trkpt><trkpt lat="44.114905903866244" lon="10.12257385208024"><ele>1172.2</ele><time>2026-05-02T13:29:23.997Z</time></trkpt><trkpt lat="44.11491712467928" lon="10.122717706187654"><ele>1168.6</ele><time>2026-05-02T13:29:24.997Z</time></trkpt><trkpt lat="44.114923217004346" lon="10.122857160921031"><ele>1165.0</ele><time>2026-05-02T13:29:25.997Z</time></trkpt><trkpt lat="44.114926616718265" lon="10.12299216247489"><ele>1174.8</ele><time>2026-05-02T13:29:26.997Z</time></trkpt><trkpt lat="44.114933321783276" lon="10.123129950809963"><ele>1184.6</ele><time>2026-05-02T13:29:27.997Z</time></trkpt><trkpt lat="44.11494303344905" lon="10.123273004692173"><ele>1194.4</ele><time>2026-05-02T13:29:28.997Z</time></trkpt><trkpt lat="44.114951235588286" lon="10.123419125968587"><ele>1204.2</ele><time>2026-05-02T13:29:29.997Z</time></trkpt><trkpt lat="44.11495926660304" lon="10.123568966790582"><ele>1214.0</ele><time>2026-05-02T13:29:30.997Z</time></trkpt><trkpt lat="44.114963812748826" lon="10.123715512366825"><ele>1216.4</ele><time>2026-05-02T13:29:31.997Z</time></trkpt><trkpt lat="44.11496338610479" lon="10.123853334501142"><ele>1218.8000000000002</ele><time>2026-05-02T13:29:32.997Z</time></trkpt><trkpt lat="44.11496283388917" lon="10.123979466948374"><ele>1221.1999999999998</ele><time>2026-05-02T13:29:33.997Z</time></trkpt><trkpt lat="44.11495682098513" lon="10.124105528626266"><ele>1223.6</ele><time>2026-05-02T13:29:34.997Z</time></trkpt><trkpt lat="44.11495253062739" lon="10.12423364320128"><ele>1226.0</ele><time>2026-05-02T13:29:35.997Z</time></trkpt><trkpt lat="44.11495202996782" lon="10.12436893224604"><ele>1228.0</ele><time>2026-05-02T13:29:36.997Z</time></trkpt><trkpt lat="44.1149507700947" lon="10.124510523832067"><ele>1230.0</ele><time>2026-05-02T13:29:37.997Z</time></trkpt><trkpt lat="44.11494750477798" lon="10.124655769075863"><ele>1232.0</ele><time>2026-05-02T13:29:38.997Z</time></trkpt><trkpt lat="44.11495157349264" lon="10.124807892319986"><ele>1234.0</ele><time>2026-05-02T13:29:39.997Z</time></trkpt><trkpt lat="44.114970813931485" lon="10.12496254845658"><ele>1236.0</ele><time>2026-05-02T13:29:41Z</time></trkpt><trkpt lat="44.115013671526114" lon="10.125110010432515"><ele>1236.0</ele><time>2026-05-02T13:29:42Z</time></trkpt><trkpt lat="44.115075597273375" lon="10.125247558018037"><ele>1236.0</ele><time>2026-05-02T13:29:43Z</time></trkpt><trkpt lat="44.115150284770316" lon="10.125362480605316"><ele>1236.0</ele><time>2026-05-02T13:29:44Z</time></trkpt><trkpt lat="44.11520478229392" lon="10.12547518142707"><ele>1236.0</ele><time>2026-05-02T13:29:45Z</time></trkpt><trkpt lat="44.11524953309263" lon="10.12558459686766"><ele>1236.0</ele><time>2026-05-02T13:29:46Z</time></trkpt><trkpt lat="44.11529616840676" lon="10.12569373460344"><ele>1235.0</ele><time>2026-05-02T13:29:47Z</time></trkpt><trkpt lat="44.11532097837654" lon="10.12582427767019"><ele>1234.0</ele><time>2026-05-02T13:29:48Z</time></trkpt><trkpt lat="44.11532365715515" lon="10.125965175523968"><ele>1233.0</ele><time>2026-05-02T13:29:49Z</time></trkpt><trkpt lat="44.11529557083456" lon="10.126099713139832"><ele>1232.0</ele><time>2026-05-02T13:29:50Z</time></trkpt><trkpt lat="44.11525107936411" lon="10.126237746280552"><ele>1231.0</ele><time>2026-05-02T13:29:51Z</time></trkpt><trkpt lat="44.115192921898604" lon="10.126371255474297"><ele>1231.0</ele><time>2026-05-02T13:29:52Z</time></trkpt><trkpt lat="44.11513002567356" lon="10.126499796583877"><ele>1231.0</ele><time>2026-05-02T13:29:53Z</time></trkpt><trkpt lat="44.11506882847405" lon="10.126626018287803"><ele>1231.0</ele><time>2026-05-02T13:29:54Z</time></trkpt><trkpt lat="44.115006326975504" lon="10.126747435272096"><ele>1231.0</ele><time>2026-05-02T13:29:55Z</time></trkpt><trkpt lat="44.11494040767628" lon="10.126858416044"><ele>1231.0</ele><time>2026-05-02T13:29:56Z</time></trkpt><trkpt lat="44.11486886041575" lon="10.126961858652898"><ele>1224.0</ele><time>2026-05-02T13:29:57Z</time></trkpt><trkpt lat="44.11479624527002" lon="10.127068776029764"><ele>1217.0</ele><time>2026-05-02T13:29:58Z</time></trkpt><trkpt lat="44.1147217867487" lon="10.12717796819747"><ele>1210.0</ele><time>2026-05-02T13:29:59Z</time></trkpt><trkpt lat="44.11465666651526" lon="10.127294729470366"><ele>1203.0</ele><time>2026-05-02T13:30:00Z</time></trkpt><trkpt lat="44.1145988827443" lon="10.127419426611164"><ele>1196.0</ele><time>2026-05-02T13:30:01Z</time></trkpt><trkpt lat="44.11455514637969" lon="10.127550663174251"><ele>1196.0</ele><time>2026-05-02T13:30:02Z</time></trkpt><trkpt lat="44.11452424115791" lon="10.127686748634106"><ele>1196.0</ele><time>2026-05-02T13:30:03Z</time></trkpt><trkpt lat="44.11450980763191" lon="10.127815869141141"><ele>1196.0</ele><time>2026-05-02T13:30:04Z</time></trkpt><trkpt lat="44.114511308935846" lon="10.12794097746835"><ele>1196.0</ele><time>2026-05-02T13:30:05Z</time></trkpt><trkpt lat="44.11450999483492" lon="10.128054553127281"><ele>1196.0</ele><time>2026-05-02T13:30:06Z</time></trkpt><trkpt lat="44.114530062359236" lon="10.12815679150794"><ele>1196.0</ele><time>2026-05-02T13:30:07Z</time></trkpt><trkpt lat="44.1145605280458" lon="10.128247614477024"><ele>1195.3333333333335</ele><time>2026-05-02T13:30:08Z</time></trkpt><trkpt lat="44.114627061665765" lon="10.128325398281861"><ele>1194.6666666666667</ele><time>2026-05-02T13:30:08.999Z</time></trkpt><trkpt lat="44.11469442986314" lon="10.128381454412192"><ele>1194.0</ele><time>2026-05-02T13:30:09.999Z</time></trkpt><trkpt lat="44.11476380525772" lon="10.128442575119669"><ele>1193.3333333333333</ele><time>2026-05-02T13:30:10.999Z</time></trkpt><trkpt lat="44.114836083095064" lon="10.128502850692588"><ele>1192.6666666666665</ele><time>2026-05-02T13:30:11.999Z</time></trkpt><trkpt lat="44.11490618791613" lon="10.128566197821048"><ele>1192.0</ele><time>2026-05-02T13:30:12.999Z</time></trkpt><trkpt lat="44.11497335356147" lon="10.12864432506278"><ele>1197.6666666666665</ele><time>2026-05-02T13:30:13.999Z</time></trkpt><trkpt lat="44.11503522048795" lon="10.128734503126257"><ele>1203.3333333333333</ele><time>2026-05-02T13:30:14.999Z</time></trkpt><trkpt lat="44.115070772023884" lon="10.128850411661572"><ele>1209.0</ele><time>2026-05-02T13:30:15.999Z</time></trkpt><trkpt lat="44.11508000350479" lon="10.128977669174734"><ele>1214.6666666666667</ele><time>2026-05-02T13:30:16.999Z</time></trkpt><trkpt lat="44.115112972715444" lon="10.129074843061364"><ele>1220.3333333333335</ele><time>2026-05-02T13:30:17.999Z</time></trkpt><trkpt lat="44.11512747265947" lon="10.129170546048359"><ele>1226.0</ele><time>2026-05-02T13:30:18.999Z</time></trkpt><trkpt lat="44.115137317208585" lon="10.129261164949506"><ele>1226.0</ele><time>2026-05-02T13:30:19.999Z</time></trkpt><trkpt lat="44.1151495662578" lon="10.129353635222815"><ele>1226.0</ele><time>2026-05-02T13:30:20.999Z</time></trkpt><trkpt lat="44.115168721949445" lon="10.129449347664579"><ele>1226.0</ele><time>2026-05-02T13:30:21.999Z</time></trkpt><trkpt lat="44.11519747363589" lon="10.129535159416042"><ele>1226.0</ele><time>2026-05-02T13:30:22.999Z</time></trkpt><trkpt lat="44.11523572314443" lon="10.129619631083123"><ele>1226.0</ele><time>2026-05-02T13:30:23.999Z</time></trkpt><trkpt lat="44.115278753949006" lon="10.129705515141614"><ele>1226.0</ele><time>2026-05-02T13:30:24.999Z</time></trkpt><trkpt lat="44.11530548349449" lon="10.129819389961137"><ele>1226.0</ele><time>2026-05-02T13:30:25.999Z</time></trkpt><trkpt lat="44.11534611244911" lon="10.129918584829221"><ele>1221.0</ele><time>2026-05-02T13:30:26.999Z</time></trkpt><trkpt lat="44.11539151439295" lon="10.130024834946976"><ele>1216.0</ele><time>2026-05-02T13:30:27.999Z</time></trkpt><trkpt lat="44.11543945459924" lon="10.130128605028254"><ele>1211.0</ele><time>2026-05-02T13:30:28.999Z</time></trkpt><trkpt lat="44.115487863337684" lon="10.13023424286858"><ele>1206.0</ele><time>2026-05-02T13:30:29.999Z</time></trkpt><trkpt lat="44.11553033948113" lon="10.130342294837757"><ele>1201.0</ele><time>2026-05-02T13:30:30.999Z</time></trkpt><trkpt lat="44.11556195623579" lon="10.13045642281745"><ele>1196.0</ele><time>2026-05-02T13:30:31.999Z</time></trkpt><trkpt lat="44.115583175470775" lon="10.130578415780949"><ele>1196.0</ele><time>2026-05-02T13:30:32.999Z</time></trkpt><trkpt lat="44.115604975325205" lon="10.130697158976625"><ele>1196.0</ele><time>2026-05-02T13:30:33.999Z</time></trkpt><trkpt lat="44.11564422805478" lon="10.130806914060386"><ele>1196.0</ele><time>2026-05-02T13:30:34.999Z</time></trkpt><trkpt lat="44.1156597353923" lon="10.130931335577417"><ele>1196.0</ele><time>2026-05-02T13:30:35.999Z</time></trkpt><trkpt lat="44.11567508429952" lon="10.131058107886808"><ele>1196.0</ele><time>2026-05-02T13:30:36.999Z</time></trkpt><trkpt lat="44.11569633420967" lon="10.131175427800377"><ele>1196.0</ele><time>2026-05-02T13:30:37.999Z</time></trkpt><trkpt lat="44.115723995367986" lon="10.131303840329817"><ele>1202.6666666666667</ele><time>2026-05-02T13:30:38.999Z</time></trkpt><trkpt lat="44.11575076588428" lon="10.131421673412431"><ele>1209.3333333333335</ele><time>2026-05-02T13:30:39.999Z</time></trkpt><trkpt lat="44.11578646737092" lon="10.131542251899502"><ele>1216.0</ele><time>2026-05-02T13:30:40.999Z</time></trkpt><trkpt lat="44.115830825416744" lon="10.131653625989614"><ele>1222.6666666666667</ele><time>2026-05-02T13:30:41.998Z</time></trkpt><trkpt lat="44.11587790908999" lon="10.131748961426053"><ele>1229.3333333333333</ele><time>2026-05-02T13:30:42.998Z</time></trkpt><trkpt lat="44.1159275253556" lon="10.131849777927336"><ele>1236.0</ele><time>2026-05-02T13:30:43.998Z</time></trkpt><trkpt lat="44.11597351125856" lon="10.131944865491144"><ele>1236.0</ele><time>2026-05-02T13:30:44.998Z</time></trkpt><trkpt lat="44.11601920288898" lon="10.13204409172605"><ele>1236.0</ele><time>2026-05-02T13:30:45.998Z</time></trkpt><trkpt lat="44.116071165981964" lon="10.132136046574773"><ele>1236.0</ele><time>2026-05-02T13:30:46.998Z</time></trkpt><trkpt lat="44.11612840522916" lon="10.132215049142495"><ele>1236.0</ele><time>2026-05-02T13:30:47.998Z</time></trkpt><trkpt lat="44.11617804219892" lon="10.132306511043167"><ele>1236.0</ele><time>2026-05-02T13:30:48.998Z</time></trkpt><trkpt lat="44.11622154329546" lon="10.132405516865735"><ele>1236.0</ele><time>2026-05-02T13:30:49.998Z</time></trkpt><trkpt lat="44.116256185694674" lon="10.13251421837809"><ele>1233.1666666666667</ele><time>2026-05-02T13:30:50.998Z</time></trkpt><trkpt lat="44.116271143071614" lon="10.132632533603593"><ele>1230.3333333333333</ele><time>2026-05-02T13:30:51.998Z</time></trkpt><trkpt lat="44.116294750351656" lon="10.13274216538075"><ele>1227.5</ele><time>2026-05-02T13:30:52.998Z</time></trkpt><trkpt lat="44.11631503835697" lon="10.132852234766487"><ele>1224.6666666666665</ele><time>2026-05-02T13:30:53.998Z</time></trkpt><trkpt lat="44.11633424035942" lon="10.132965635339225"><ele>1221.8333333333333</ele><time>2026-05-02T13:30:54.998Z</time></trkpt><trkpt lat="44.11634848442874" lon="10.133062314866523"><ele>1219.0</ele><time>2026-05-02T13:30:55.998Z</time></trkpt><trkpt lat="44.11636210353821" lon="10.133185200276255"><ele>1219.0</ele><time>2026-05-02T13:30:57.998Z</time></trkpt><trkpt lat="44.11636705377321" lon="10.133300535809695"><ele>1219.0</ele><time>2026-05-02T13:31:00.998Z</time></trkpt><trkpt lat="44.11637503333031" lon="10.13343363562319"><ele>1219.0</ele><time>2026-05-02T13:31:03.998Z</time></trkpt><trkpt lat="44.11635565007972" lon="10.133531314778207"><ele>1219.0</ele><time>2026-05-02T13:31:05.998Z</time></trkpt><trkpt lat="44.11632370028449" lon="10.133643236816383"><ele>1219.0</ele><time>2026-05-02T13:31:07.998Z</time></trkpt><trkpt lat="44.116271076352234" lon="10.133761725525913"><ele>1219.0</ele><time>2026-05-02T13:31:09.998Z</time></trkpt><trkpt lat="44.11621217432223" lon="10.133909463413906"><ele>1219.0</ele><time>2026-05-02T13:31:11.998Z</time></trkpt><trkpt lat="44.11619013091683" lon="10.133992736270883"><ele>1219.0</ele><time>2026-05-02T13:31:12.998Z</time></trkpt><trkpt lat="44.11616217629487" lon="10.134148739996046"><ele>1219.0</ele><time>2026-05-02T13:31:14.998Z</time></trkpt><trkpt lat="44.11614844288702" lon="10.134297484938235"><ele>1219.0</ele><time>2026-05-02T13:31:16.997Z</time></trkpt><trkpt lat="44.116159239840854" lon="10.134462717363037"><ele>1219.0</ele><time>2026-05-02T13:31:18.997Z</time></trkpt><trkpt lat="44.11617483214377" lon="10.134554080373784"><ele>1220.6666666666665</ele><time>2026-05-02T13:31:19.997Z</time></trkpt><trkpt lat="44.11618720550737" lon="10.134656534963845"><ele>1222.3333333333333</ele><time>2026-05-02T13:31:20.997Z</time></trkpt><trkpt lat="44.11619989802293" lon="10.13476245964224"><ele>1224.0</ele><time>2026-05-02T13:31:21.997Z</time></trkpt><trkpt lat="44.11621238322815" lon="10.134869974189574"><ele>1225.6666666666667</ele><time>2026-05-02T13:31:22.997Z</time></trkpt><trkpt lat="44.11622479475991" lon="10.134981048240803"><ele>1227.3333333333335</ele><time>2026-05-02T13:31:23.997Z</time></trkpt><trkpt lat="44.1162383596326" lon="10.135091995656197"><ele>1229.0</ele><time>2026-05-02T13:31:24.997Z</time></trkpt><trkpt lat="44.11625601625044" lon="10.13520874159469"><ele>1229.3333333333335</ele><time>2026-05-02T13:31:25.997Z</time></trkpt><trkpt lat="44.11627314511974" lon="10.135319528495558"><ele>1229.6666666666667</ele><time>2026-05-02T13:31:26.997Z</time></trkpt><trkpt lat="44.11629464278719" lon="10.13542623675746"><ele>1230.0</ele><time>2026-05-02T13:31:27.997Z</time></trkpt><trkpt lat="44.11631921639588" lon="10.135528699731811"><ele>1230.3333333333333</ele><time>2026-05-02T13:31:28.997Z</time></trkpt><trkpt lat="44.1163417866475" lon="10.135636704797616"><ele>1230.6666666666665</ele><time>2026-05-02T13:31:29.997Z</time></trkpt><trkpt lat="44.116363657244754" lon="10.135743973218169"><ele>1231.0</ele><time>2026-05-02T13:31:30.997Z</time></trkpt><trkpt lat="44.116385688345666" lon="10.135856099210876"><ele>1232.1666666666665</ele><time>2026-05-02T13:31:31.997Z</time></trkpt><trkpt lat="44.11637385381893" lon="10.135964626729479"><ele>1233.3333333333333</ele><time>2026-05-02T13:31:32.997Z</time></trkpt><trkpt lat="44.116364716717655" lon="10.136073860113349"><ele>1234.5</ele><time>2026-05-02T13:31:33.997Z</time></trkpt><trkpt lat="44.11634835447617" lon="10.136187646912726"><ele>1235.6666666666667</ele><time>2026-05-02T13:31:34.997Z</time></trkpt><trkpt lat="44.116320660418054" lon="10.136284498587925"><ele>1236.8333333333335</ele><time>2026-05-02T13:31:35.997Z</time></trkpt><trkpt lat="44.11629055494194" lon="10.136390201455344"><ele>1238.0</ele><time>2026-05-02T13:31:36.997Z</time></trkpt><trkpt lat="44.1162600342431" lon="10.136498980309112"><ele>1240.3333333333335</ele><time>2026-05-02T13:31:37.997Z</time></trkpt><trkpt lat="44.11622454873161" lon="10.136607646971097"><ele>1242.6666666666667</ele><time>2026-05-02T13:31:38.997Z</time></trkpt><trkpt lat="44.11617851873959" lon="10.136705410742671"><ele>1245.0</ele><time>2026-05-02T13:31:39.997Z</time></trkpt><trkpt lat="44.11612246626481" lon="10.136806814409766"><ele>1247.3333333333333</ele><time>2026-05-02T13:31:40.997Z</time></trkpt><trkpt lat="44.11606436136167" lon="10.136906567742711"><ele>1249.6666666666665</ele><time>2026-05-02T13:31:41.997Z</time></trkpt><trkpt lat="44.116007072508445" lon="10.137010080420135"><ele>1252.0</ele><time>2026-05-02T13:31:42.997Z</time></trkpt><trkpt lat="44.115951306027064" lon="10.137121246829862"><ele>1252.0</ele><time>2026-05-02T13:31:43.997Z</time></trkpt><trkpt lat="44.115910083726284" lon="10.137242822043131"><ele>1252.0</ele><time>2026-05-02T13:31:44.997Z</time></trkpt><trkpt lat="44.11585107497658" lon="10.137351525546965"><ele>1252.0</ele><time>2026-05-02T13:31:46Z</time></trkpt><trkpt lat="44.11578857908321" lon="10.137455333663858"><ele>1252.0</ele><time>2026-05-02T13:31:47Z</time></trkpt><trkpt lat="44.11573460886494" lon="10.137563049788548"><ele>1252.0</ele><time>2026-05-02T13:31:48Z</time></trkpt><trkpt lat="44.11568135515626" lon="10.137666277657264"><ele>1251.1666666666665</ele><time>2026-05-02T13:31:49Z</time></trkpt><trkpt lat="44.11562631350444" lon="10.137769166716248"><ele>1250.3333333333333</ele><time>2026-05-02T13:31:50Z</time></trkpt><trkpt lat="44.11558086286231" lon="10.137874797992703"><ele>1249.5</ele><time>2026-05-02T13:31:51Z</time></trkpt><trkpt lat="44.11552588442206" lon="10.137975889391404"><ele>1248.6666666666667</ele><time>2026-05-02T13:31:52Z</time></trkpt><trkpt lat="44.11547302401186" lon="10.138063645336342"><ele>1247.8333333333335</ele><time>2026-05-02T13:31:53Z</time></trkpt><trkpt lat="44.115422927539974" lon="10.138148158219346"><ele>1247.0</ele><time>2026-05-02T13:31:54Z</time></trkpt><trkpt lat="44.11537499522857" lon="10.138229482937101"><ele>1251.0</ele><time>2026-05-02T13:31:55Z</time></trkpt><trkpt lat="44.1153218124885" lon="10.138309491232123"><ele>1255.0</ele><time>2026-05-02T13:31:56Z</time></trkpt><trkpt lat="44.11528125427081" lon="10.138378407953772"><ele>1259.0</ele><time>2026-05-02T13:31:57Z</time></trkpt><trkpt lat="44.11521887240842" lon="10.13851243511653"><ele>1263.0</ele><time>2026-05-02T13:31:59Z</time></trkpt><trkpt lat="44.115167203406884" lon="10.13864937285904"><ele>1267.0</ele><time>2026-05-02T13:32:01Z</time></trkpt><trkpt lat="44.115127815581786" lon="10.138805965062053"><ele>1267.0</ele><time>2026-05-02T13:32:03Z</time></trkpt><trkpt lat="44.11511900035225" lon="10.138969936403427"><ele>1267.0</ele><time>2026-05-02T13:32:05Z</time></trkpt><trkpt lat="44.115103667704396" lon="10.13911507861351"><ele>1267.0</ele><time>2026-05-02T13:32:07Z</time></trkpt><trkpt lat="44.11508620729653" lon="10.139229557794364"><ele>1267.0</ele><time>2026-05-02T13:32:09Z</time></trkpt><trkpt lat="44.11508927627845" lon="10.139364106766713"><ele>1267.0</ele><time>2026-05-02T13:32:11Z</time></trkpt><trkpt lat="44.1150771742742" lon="10.13951977124302"><ele>1266.8</ele><time>2026-05-02T13:32:13Z</time></trkpt><trkpt lat="44.115065298057864" lon="10.139663205294347"><ele>1266.6</ele><time>2026-05-02T13:32:15Z</time></trkpt><trkpt lat="44.11506699976394" lon="10.13980917838973"><ele>1266.3999999999999</ele><time>2026-05-02T13:32:16.999Z</time></trkpt><trkpt lat="44.11504984163675" lon="10.13994719070701"><ele>1266.2</ele><time>2026-05-02T13:32:18.999Z</time></trkpt><trkpt lat="44.11502924582174" lon="10.140080960096798"><ele>1266.0</ele><time>2026-05-02T13:32:20.999Z</time></trkpt><trkpt lat="44.115017534499415" lon="10.14020860759644"><ele>1266.4285714285713</ele><time>2026-05-02T13:32:22.999Z</time></trkpt><trkpt lat="44.1150085842326" lon="10.140320603030837"><ele>1266.857142857143</ele><time>2026-05-02T13:32:24.999Z</time></trkpt><trkpt lat="44.11501943616613" lon="10.140422100367045"><ele>1267.2857142857142</ele><time>2026-05-02T13:32:26.999Z</time></trkpt><trkpt lat="44.115017619934164" lon="10.140546870023316"><ele>1267.7142857142858</ele><time>2026-05-02T13:32:29.999Z</time></trkpt><trkpt lat="44.11500592969154" lon="10.140641068076961"><ele>1268.142857142857</ele><time>2026-05-02T13:32:32.999Z</time></trkpt><trkpt lat="44.11499411513882" lon="10.140742341658921"><ele>1268.5714285714287</ele><time>2026-05-02T13:33:02.998Z</time></trkpt><trkpt lat="44.11494843450178" lon="10.14080285599918"><ele>1269.0</ele><time>2026-05-02T13:33:06.998Z</time></trkpt><trkpt lat="44.11489984307481" lon="10.140886123174205"><ele>1265.4285714285716</ele><time>2026-05-02T13:33:09.998Z</time></trkpt><trkpt lat="44.11484427714263" lon="10.140975798172954"><ele>1261.8571428571427</ele><time>2026-05-02T13:33:12.998Z</time></trkpt><trkpt lat="44.11479550393028" lon="10.141064571884595"><ele>1258.2857142857142</ele><time>2026-05-02T13:33:14.998Z</time></trkpt><trkpt lat="44.11475177225054" lon="10.141139593830085"><ele>1254.7142857142858</ele><time>2026-05-02T13:33:16.998Z</time></trkpt><trkpt lat="44.11470677585529" lon="10.14121000084941"><ele>1251.1428571428573</ele><time>2026-05-02T13:33:18.998Z</time></trkpt><trkpt lat="44.11465530416705" lon="10.141280197207342"><ele>1247.5714285714284</ele><time>2026-05-02T13:33:20.998Z</time></trkpt><trkpt lat="44.11459382997721" lon="10.141320696054349"><ele>1244.0</ele><time>2026-05-02T13:33:22.998Z</time></trkpt><trkpt lat="44.11453563648208" lon="10.141393289664109"><ele>1244.0</ele><time>2026-05-02T13:33:25.997Z</time></trkpt><trkpt lat="44.11447437431419" lon="10.14146521274671"><ele>1244.0</ele><time>2026-05-02T13:36:19.999Z</time></trkpt><trkpt lat="44.11443432088494" lon="10.141548081283709"><ele>1244.0</ele><time>2026-05-02T13:36:21.999Z</time></trkpt><trkpt lat="44.11437244336874" lon="10.14162779909435"><ele>1244.0</ele><time>2026-05-02T13:36:23.999Z</time></trkpt><trkpt lat="44.114314174152234" lon="10.141701338542418"><ele>1244.0</ele><time>2026-05-02T13:36:25.999Z</time></trkpt><trkpt lat="44.11424565766537" lon="10.141773347910833"><ele>1244.0</ele><time>2026-05-02T13:36:27.999Z</time></trkpt><trkpt lat="44.114173239408444" lon="10.141851414589791"><ele>1241.0</ele><time>2026-05-02T13:36:29.999Z</time></trkpt><trkpt lat="44.11411410802202" lon="10.14194837794006"><ele>1238.0</ele><time>2026-05-02T13:36:31.999Z</time></trkpt><trkpt lat="44.11404032208079" lon="10.142037469773458"><ele>1235.0</ele><time>2026-05-02T13:36:33.999Z</time></trkpt><trkpt lat="44.11397228071795" lon="10.142132543733709"><ele>1232.0</ele><time>2026-05-02T13:36:35.999Z</time></trkpt><trkpt lat="44.11390980992669" lon="10.142233235408465"><ele>1229.0</ele><time>2026-05-02T13:36:37.999Z</time></trkpt><trkpt lat="44.11384345049294" lon="10.14233414139935"><ele>1234.8</ele><time>2026-05-02T13:36:39.999Z</time></trkpt><trkpt lat="44.11377451220363" lon="10.142426650300918"><ele>1240.6000000000001</ele><time>2026-05-02T13:36:41.999Z</time></trkpt><trkpt lat="44.11369968046468" lon="10.142515570839254"><ele>1246.4</ele><time>2026-05-02T13:36:43.999Z</time></trkpt><trkpt lat="44.11362548317817" lon="10.142595226131512"><ele>1252.2</ele><time>2026-05-02T13:36:45.999Z</time></trkpt><trkpt lat="44.1135577811843" lon="10.142669324146514"><ele>1258.0</ele><time>2026-05-02T13:36:47.999Z</time></trkpt><trkpt lat="44.11348711208743" lon="10.142752582833593"><ele>1258.0</ele><time>2026-05-02T13:36:49.999Z</time></trkpt><trkpt lat="44.113426100470136" lon="10.14284764215668"><ele>1258.0</ele><time>2026-05-02T13:36:51.999Z</time></trkpt><trkpt lat="44.11335313678377" lon="10.142940531179317"><ele>1258.0</ele><time>2026-05-02T13:36:53.999Z</time></trkpt><trkpt lat="44.11327959544684" lon="10.143037649954291"><ele>1258.0</ele><time>2026-05-02T13:36:55.999Z</time></trkpt><trkpt lat="44.11322606055472" lon="10.14314596381836"><ele>1258.0</ele><time>2026-05-02T13:36:57.999Z</time></trkpt><trkpt lat="44.113176747416205" lon="10.143262460850632"><ele>1257.8</ele><time>2026-05-02T13:36:59.998Z</time></trkpt><trkpt lat="44.113099510318314" lon="10.143362247523577"><ele>1257.6</ele><time>2026-05-02T13:37:01.998Z</time></trkpt><trkpt lat="44.11300922166139" lon="10.143450067346448"><ele>1257.4</ele><time>2026-05-02T13:37:03.998Z</time></trkpt><trkpt lat="44.11293181108485" lon="10.143547126748182"><ele>1257.2</ele><time>2026-05-02T13:37:05.998Z</time></trkpt><trkpt lat="44.11285675782467" lon="10.143665454796327"><ele>1257.0</ele><time>2026-05-02T13:37:07.998Z</time></trkpt><trkpt lat="44.11278165511443" lon="10.14377922695807"><ele>1257.0</ele><time>2026-05-02T13:37:09.998Z</time></trkpt><trkpt lat="44.1126992850129" lon="10.143870279260861"><ele>1257.0</ele><time>2026-05-02T13:37:11.998Z</time></trkpt><trkpt lat="44.1126081065632" lon="10.143955306899988"><ele>1257.0</ele><time>2026-05-02T13:37:13.998Z</time></trkpt><trkpt lat="44.11252938649354" lon="10.144070957009554"><ele>1257.0</ele><time>2026-05-02T13:37:15.998Z</time></trkpt><trkpt lat="44.112463895369515" lon="10.14418959430559"><ele>1257.0</ele><time>2026-05-02T13:37:17.998Z</time></trkpt><trkpt lat="44.11240424243599" lon="10.144274849394929"><ele>1251.0</ele><time>2026-05-02T13:37:19.998Z</time></trkpt><trkpt lat="44.11234018405329" lon="10.144409819635067"><ele>1245.0</ele><time>2026-05-02T13:37:21.998Z</time></trkpt><trkpt lat="44.11228292676724" lon="10.144543440760307"><ele>1239.0</ele><time>2026-05-02T13:37:23.998Z</time></trkpt><trkpt lat="44.11222033857398" lon="10.144682425237061"><ele>1233.0</ele><time>2026-05-02T13:37:25.998Z</time></trkpt><trkpt lat="44.11214804864604" lon="10.144795209930425"><ele>1239.4</ele><time>2026-05-02T13:37:27.998Z</time></trkpt><trkpt lat="44.11207879886529" lon="10.144917031425841"><ele>1245.8</ele><time>2026-05-02T13:37:29.998Z</time></trkpt><trkpt lat="44.11201552292251" lon="10.145052120954357"><ele>1252.2</ele><time>2026-05-02T13:37:31.998Z</time></trkpt><trkpt lat="44.111949633072506" lon="10.145139732513389"><ele>1258.6</ele><time>2026-05-02T13:37:33.998Z</time></trkpt><trkpt lat="44.1118851991957" lon="10.145225787957921"><ele>1265.0</ele><time>2026-05-02T13:37:42.997Z</time></trkpt><trkpt lat="44.11184450795266" lon="10.145355616834058"><ele>1265.0</ele><time>2026-05-02T13:37:44.997Z</time></trkpt><trkpt lat="44.1117775726791" lon="10.145496101636951"><ele>1265.0</ele><time>2026-05-02T13:37:46.997Z</time></trkpt><trkpt lat="44.11173424052489" lon="10.145562595103064"><ele>1265.0</ele><time>2026-05-02T13:37:47.997Z</time></trkpt><trkpt lat="44.11168962543513" lon="10.145638906756115"><ele>1265.0</ele><time>2026-05-02T13:37:48.997Z</time></trkpt><trkpt lat="44.11164219834403" lon="10.145707216314452"><ele>1265.0</ele><time>2026-05-02T13:37:49.997Z</time></trkpt><trkpt lat="44.11160110352758" lon="10.145781303179843"><ele>1265.0</ele><time>2026-05-02T13:37:50.997Z</time></trkpt><trkpt lat="44.11154740673373" lon="10.14593080851643"><ele>1269.2</ele><time>2026-05-02T13:37:52.997Z</time></trkpt><trkpt lat="44.11148226153715" lon="10.146071602297003"><ele>1273.4</ele><time>2026-05-02T13:37:54.997Z</time></trkpt><trkpt lat="44.111417898848565" lon="10.146192288576211"><ele>1277.6</ele><time>2026-05-02T13:37:56.997Z</time></trkpt><trkpt lat="44.11135672173094" lon="10.146262825678306"><ele>1281.8</ele><time>2026-05-02T13:37:58.997Z</time></trkpt><trkpt lat="44.1112918779592" lon="10.146299579999624"><ele>1286.0</ele><time>2026-05-02T13:38:00.997Z</time></trkpt><trkpt lat="44.11121595890789" lon="10.146271144790441"><ele>1286.0</ele><time>2026-05-02T13:38:03.999Z</time></trkpt><trkpt lat="44.11127495009755" lon="10.146312363759437"><ele>1286.0</ele><time>2026-05-02T13:52:46Z</time></trkpt><trkpt lat="44.1112101672569" lon="10.146282608131076"><ele>1286.0</ele><time>2026-05-02T13:53:00Z</time></trkpt><trkpt lat="44.11130122677414" lon="10.14626995093885"><ele>1286.0</ele><time>2026-05-02T13:57:13Z</time></trkpt><trkpt lat="44.11136841129448" lon="10.146227637976203"><ele>1286.0</ele><time>2026-05-02T13:57:16Z</time></trkpt><trkpt lat="44.111430799871755" lon="10.14615398465581"><ele>1286.0</ele><time>2026-05-02T13:57:19Z</time></trkpt><trkpt lat="44.11148917832091" lon="10.146065834469203"><ele>1286.0</ele><time>2026-05-02T13:57:22Z</time></trkpt><trkpt lat="44.1115218211635" lon="10.145984935078562"><ele>1286.0</ele><time>2026-05-02T13:57:24Z</time></trkpt><trkpt lat="44.111557330107004" lon="10.145909658039677"><ele>1286.0</ele><time>2026-05-02T13:57:26Z</time></trkpt><trkpt lat="44.11159379231156" lon="10.145827211325054"><ele>1286.0</ele><time>2026-05-02T13:57:28Z</time></trkpt><trkpt lat="44.11163806871025" lon="10.145727333050383"><ele>1286.0</ele><time>2026-05-02T13:57:29.999Z</time></trkpt><trkpt lat="44.11167354246974" lon="10.145629200784521"><ele>1286.0</ele><time>2026-05-02T13:57:31.999Z</time></trkpt><trkpt lat="44.11172178711716" lon="10.145541553440657"><ele>1286.0</ele><time>2026-05-02T13:57:33.999Z</time></trkpt><trkpt lat="44.11177932628623" lon="10.145460465455686"><ele>1282.5</ele><time>2026-05-02T13:57:35.999Z</time></trkpt><trkpt lat="44.11182722846598" lon="10.145387073465779"><ele>1279.0</ele><time>2026-05-02T13:57:37.999Z</time></trkpt><trkpt lat="44.11186278733566" lon="10.14531119984944"><ele>1275.5</ele><time>2026-05-02T13:57:39.999Z</time></trkpt><trkpt lat="44.11189034497565" lon="10.145201620594925"><ele>1272.0</ele><time>2026-05-02T13:57:42.999Z</time></trkpt><trkpt lat="44.11198032201103" lon="10.145200385107692"><ele>1268.5</ele><time>2026-05-02T13:58:50.998Z</time></trkpt><trkpt lat="44.11191811397877" lon="10.145176084039235"><ele>1265.0</ele><time>2026-05-02T13:59:12.999Z</time></trkpt><trkpt lat="44.11198535006397" lon="10.145080546835459"><ele>1265.0</ele><time>2026-05-02T14:00:49.998Z</time></trkpt><trkpt lat="44.11204114160031" lon="10.145005771747124"><ele>1265.0</ele><time>2026-05-02T14:00:51.998Z</time></trkpt><trkpt lat="44.1120776701884" lon="10.14492211693894"><ele>1265.0</ele><time>2026-05-02T14:00:53.998Z</time></trkpt><trkpt lat="44.112118647883094" lon="10.144830867223975"><ele>1265.0</ele><time>2026-05-02T14:00:55.998Z</time></trkpt><trkpt lat="44.1121647356655" lon="10.144730750673679"><ele>1265.0</ele><time>2026-05-02T14:00:57.998Z</time></trkpt><trkpt lat="44.11220989915358" lon="10.144635341654372"><ele>1265.0</ele><time>2026-05-02T14:00:59.998Z</time></trkpt><trkpt lat="44.11224894829367" lon="10.144549332323683"><ele>1263.6666666666667</ele><time>2026-05-02T14:01:01.998Z</time></trkpt><trkpt lat="44.112301106218226" lon="10.144478520285288"><ele>1262.3333333333335</ele><time>2026-05-02T14:01:03.998Z</time></trkpt><trkpt lat="44.11235485576407" lon="10.14439412030811"><ele>1261.0</ele><time>2026-05-02T14:01:05.998Z</time></trkpt><trkpt lat="44.11240999052307" lon="10.144291701444082"><ele>1259.6666666666667</ele><time>2026-05-02T14:01:07.998Z</time></trkpt><trkpt lat="44.11246609802529" lon="10.144183700527377"><ele>1258.3333333333333</ele><time>2026-05-02T14:01:09.998Z</time></trkpt><trkpt lat="44.11253580785927" lon="10.144082398005322"><ele>1257.0</ele><time>2026-05-02T14:01:11.998Z</time></trkpt><trkpt lat="44.11260603384644" lon="10.14398874237194"><ele>1257.0</ele><time>2026-05-02T14:01:13.998Z</time></trkpt><trkpt lat="44.11266791284383" lon="10.143880743318784"><ele>1257.0</ele><time>2026-05-02T14:01:15.998Z</time></trkpt><trkpt lat="44.11272232981315" lon="10.14383059940695"><ele>1257.0</ele><time>2026-05-02T14:01:17.998Z</time></trkpt><trkpt lat="44.11278775215103" lon="10.14378367856975"><ele>1257.0</ele><time>2026-05-02T14:01:19.998Z</time></trkpt><trkpt lat="44.11285016347828" lon="10.143678605294674"><ele>1257.0</ele><time>2026-05-02T14:01:21.998Z</time></trkpt><trkpt lat="44.11289608314937" lon="10.14357663785741"><ele>1257.0</ele><time>2026-05-02T14:01:23.998Z</time></trkpt><trkpt lat="44.112964938072885" lon="10.14349345380255"><ele>1257.0</ele><time>2026-05-02T14:01:25.998Z</time></trkpt><trkpt lat="44.113046559247366" lon="10.143413850632372"><ele>1257.0</ele><time>2026-05-02T14:01:27.998Z</time></trkpt><trkpt lat="44.11313270760115" lon="10.143326125463572"><ele>1257.0</ele><time>2026-05-02T14:01:29.998Z</time></trkpt><trkpt lat="44.11320881542585" lon="10.143217679096125"><ele>1257.0</ele><time>2026-05-02T14:01:31.998Z</time></trkpt><trkpt lat="44.113271564617186" lon="10.143098287783555"><ele>1257.0</ele><time>2026-05-02T14:01:33.998Z</time></trkpt><trkpt lat="44.11332332060849" lon="10.142991444190518"><ele>1257.1666666666667</ele><time>2026-05-02T14:01:35.998Z</time></trkpt><trkpt lat="44.11338798430968" lon="10.142897886200727"><ele>1257.3333333333333</ele><time>2026-05-02T14:01:37.998Z</time></trkpt><trkpt lat="44.113445973995745" lon="10.142823798605313"><ele>1257.5</ele><time>2026-05-02T14:01:39.998Z</time></trkpt><trkpt lat="44.113495074656285" lon="10.142755874034929"><ele>1257.6666666666665</ele><time>2026-05-02T14:01:41.998Z</time></trkpt><trkpt lat="44.113550644315666" lon="10.14268655693357"><ele>1257.8333333333333</ele><time>2026-05-02T14:01:43.998Z</time></trkpt><trkpt lat="44.113616932379784" lon="10.142609194117531"><ele>1258.0</ele><time>2026-05-02T14:01:46.998Z</time></trkpt><trkpt lat="44.113684894639945" lon="10.142528081986814"><ele>1258.0</ele><time>2026-05-02T14:01:49.998Z</time></trkpt><trkpt lat="44.11373828916131" lon="10.142442165876176"><ele>1258.0</ele><time>2026-05-02T14:01:52.998Z</time></trkpt><trkpt lat="44.113792581025876" lon="10.142390761327363"><ele>1258.0</ele><time>2026-05-02T14:01:54.998Z</time></trkpt><trkpt lat="44.11383352211271" lon="10.142322893043389"><ele>1258.0</ele><time>2026-05-02T14:01:56.998Z</time></trkpt><trkpt lat="44.1138893920271" lon="10.142239880192083"><ele>1258.0</ele><time>2026-05-02T14:01:58.998Z</time></trkpt><trkpt lat="44.11395447331623" lon="10.142156189319188"><ele>1258.0</ele><time>2026-05-02T14:02:01.998Z</time></trkpt><trkpt lat="44.11402729095084" lon="10.142082465250377"><ele>1258.5</ele><time>2026-05-02T14:02:04.998Z</time></trkpt><trkpt lat="44.11409365376935" lon="10.142000533601799"><ele>1259.0</ele><time>2026-05-02T14:02:07.998Z</time></trkpt><trkpt lat="44.11414872864363" lon="10.141919186467781"><ele>1259.5</ele><time>2026-05-02T14:02:10.998Z</time></trkpt><trkpt lat="44.11418664583017" lon="10.141842037558526"><ele>1260.0</ele><time>2026-05-02T14:02:12.998Z</time></trkpt><trkpt lat="44.1142354821962" lon="10.14176875467564"><ele>1260.5</ele><time>2026-05-02T14:02:14.998Z</time></trkpt><trkpt lat="44.114332792735226" lon="10.14166774362748"><ele>1261.0</ele><time>2026-05-02T14:02:16.998Z</time></trkpt><trkpt lat="44.114385999084234" lon="10.141614346493117"><ele>1261.0</ele><time>2026-05-02T14:02:17.998Z</time></trkpt><trkpt lat="44.114433783446486" lon="10.141556739779528"><ele>1261.0</ele><time>2026-05-02T14:02:18.998Z</time></trkpt><trkpt lat="44.114481332094186" lon="10.141497873857736"><ele>1261.0</ele><time>2026-05-02T14:02:19.998Z</time></trkpt><trkpt lat="44.11458255798225" lon="10.141426249112792"><ele>1261.0</ele><time>2026-05-02T14:02:21.998Z</time></trkpt><trkpt lat="44.11464268469923" lon="10.14134309916364"><ele>1261.0</ele><time>2026-05-02T14:02:23.998Z</time></trkpt><trkpt lat="44.1147061670424" lon="10.14125100347009"><ele>1261.0</ele><time>2026-05-02T14:02:25.998Z</time></trkpt><trkpt lat="44.11478735833575" lon="10.141166452004578"><ele>1261.0</ele><time>2026-05-02T14:02:27.998Z</time></trkpt><trkpt lat="44.11486704333072" lon="10.141081669288525"><ele>1261.0</ele><time>2026-05-02T14:02:29.998Z</time></trkpt><trkpt lat="44.11493706797699" lon="10.140976390406097"><ele>1261.0</ele><time>2026-05-02T14:02:31.998Z</time></trkpt><trkpt lat="44.11498227957129" lon="10.140867213011795"><ele>1261.0</ele><time>2026-05-02T14:02:33.998Z</time></trkpt><trkpt lat="44.115021507785755" lon="10.140744059200031"><ele>1261.0</ele><time>2026-05-02T14:02:35.998Z</time></trkpt><trkpt lat="44.11506271591803" lon="10.140632348835732"><ele>1261.0</ele><time>2026-05-02T14:02:37.998Z</time></trkpt><trkpt lat="44.11506350008874" lon="10.140542830222111"><ele>1261.0</ele><time>2026-05-02T14:02:39.998Z</time></trkpt><trkpt lat="44.11509261731952" lon="10.140450384183694"><ele>1261.0</ele><time>2026-05-02T14:02:43.998Z</time></trkpt><trkpt lat="44.11508269301471" lon="10.140351232416585"><ele>1261.0</ele><time>2026-05-02T14:02:47.998Z</time></trkpt><trkpt lat="44.115078451471135" lon="10.14047580791306"><ele>1261.0</ele><time>2026-05-02T14:03:13.999Z</time></trkpt><trkpt lat="44.115063025700294" lon="10.140380227942302"><ele>1261.0</ele><time>2026-05-02T14:03:18.999Z</time></trkpt><trkpt lat="44.11507684850445" lon="10.140221402555367"><ele>1261.0</ele><time>2026-05-02T14:03:20.999Z</time></trkpt><trkpt lat="44.115084686266925" lon="10.14013069656722"><ele>1261.0</ele><time>2026-05-02T14:03:21.999Z</time></trkpt><trkpt lat="44.115092674867476" lon="10.140035953700133"><ele>1261.0</ele><time>2026-05-02T14:03:22.999Z</time></trkpt><trkpt lat="44.11510059907036" lon="10.139941974603092"><ele>1261.0</ele><time>2026-05-02T14:03:23.999Z</time></trkpt><trkpt lat="44.115106640443685" lon="10.13983737077644"><ele>1261.0</ele><time>2026-05-02T14:03:24.999Z</time></trkpt><trkpt lat="44.115112951450115" lon="10.139733940370206"><ele>1261.0</ele><time>2026-05-02T14:03:25.999Z</time></trkpt><trkpt lat="44.11511931399078" lon="10.139624575176091"><ele>1261.0</ele><time>2026-05-02T14:03:26.999Z</time></trkpt><trkpt lat="44.115125969519134" lon="10.139509365666072"><ele>1261.8333333333333</ele><time>2026-05-02T14:03:27.999Z</time></trkpt><trkpt lat="44.11513251786549" lon="10.139396011516448"><ele>1262.6666666666665</ele><time>2026-05-02T14:03:28.999Z</time></trkpt><trkpt lat="44.11514047240564" lon="10.139278327073287"><ele>1263.5</ele><time>2026-05-02T14:03:29.999Z</time></trkpt><trkpt lat="44.115148903995234" lon="10.139169086889524"><ele>1264.3333333333333</ele><time>2026-05-02T14:03:30.999Z</time></trkpt><trkpt lat="44.11516066238895" lon="10.139050021950505"><ele>1265.1666666666667</ele><time>2026-05-02T14:03:31.999Z</time></trkpt><trkpt lat="44.11517428124305" lon="10.138929023837198"><ele>1266.0</ele><time>2026-05-02T14:03:32.999Z</time></trkpt><trkpt lat="44.11519060367878" lon="10.138811523783751"><ele>1266.142857142857</ele><time>2026-05-02T14:03:33.999Z</time></trkpt><trkpt lat="44.11520807071181" lon="10.138696716884189"><ele>1266.2857142857142</ele><time>2026-05-02T14:03:34.999Z</time></trkpt><trkpt lat="44.11523468200032" lon="10.138593831883659"><ele>1266.4285714285716</ele><time>2026-05-02T14:03:35.999Z</time></trkpt><trkpt lat="44.11526982472954" lon="10.138495114239399"><ele>1266.5714285714284</ele><time>2026-05-02T14:03:36.999Z</time></trkpt><trkpt lat="44.11529184552012" lon="10.138399935787977"><ele>1266.7142857142858</ele><time>2026-05-02T14:03:37.999Z</time></trkpt><trkpt lat="44.115334629933464" lon="10.138328703871164"><ele>1266.857142857143</ele><time>2026-05-02T14:03:38.999Z</time></trkpt><trkpt lat="44.1153800995207" lon="10.138261309443495"><ele>1267.0</ele><time>2026-05-02T14:03:39.999Z</time></trkpt><trkpt lat="44.11542391124112" lon="10.13819273653928"><ele>1268.5</ele><time>2026-05-02T14:03:40.999Z</time></trkpt><trkpt lat="44.1154677622414" lon="10.138120055730088"><ele>1270.0</ele><time>2026-05-02T14:03:41.999Z</time></trkpt><trkpt lat="44.11551200157067" lon="10.138042183552615"><ele>1271.5</ele><time>2026-05-02T14:03:42.999Z</time></trkpt><trkpt lat="44.11555363370405" lon="10.13797613381324"><ele>1273.0</ele><time>2026-05-02T14:03:43.999Z</time></trkpt><trkpt lat="44.11559404748575" lon="10.137902150957627"><ele>1274.5</ele><time>2026-05-02T14:03:44.999Z</time></trkpt><trkpt lat="44.1156701076847" lon="10.137767422804854"><ele>1276.0</ele><time>2026-05-02T14:03:46.999Z</time></trkpt><trkpt lat="44.11574957380165" lon="10.13763544135414"><ele>1276.0</ele><time>2026-05-02T14:03:48.999Z</time></trkpt><trkpt lat="44.11579109999011" lon="10.137565554275238"><ele>1276.0</ele><time>2026-05-02T14:03:49.999Z</time></trkpt><trkpt lat="44.1158586651693" lon="10.13743006331797"><ele>1276.0</ele><time>2026-05-02T14:03:51.999Z</time></trkpt><trkpt lat="44.115927127714386" lon="10.137284369545206"><ele>1276.0</ele><time>2026-05-02T14:03:53.999Z</time></trkpt><trkpt lat="44.11596658900191" lon="10.137202988584354"><ele>1276.0</ele><time>2026-05-02T14:03:54.999Z</time></trkpt><trkpt lat="44.11600810589832" lon="10.137122904949885"><ele>1272.0</ele><time>2026-05-02T14:03:55.999Z</time></trkpt><trkpt lat="44.11605602168153" lon="10.137039375865374"><ele>1268.0</ele><time>2026-05-02T14:03:56.999Z</time></trkpt><trkpt lat="44.116107193535214" lon="10.136956234330299"><ele>1264.0</ele><time>2026-05-02T14:03:57.999Z</time></trkpt><trkpt lat="44.11616007168659" lon="10.136870118745795"><ele>1260.0</ele><time>2026-05-02T14:03:58.999Z</time></trkpt><trkpt lat="44.11621003975091" lon="10.13678439247019"><ele>1256.0</ele><time>2026-05-02T14:03:59.999Z</time></trkpt><trkpt lat="44.116255421051505" lon="10.13669047913609"><ele>1252.0</ele><time>2026-05-02T14:04:00.999Z</time></trkpt><trkpt lat="44.11629429134008" lon="10.136591685796727"><ele>1249.6666666666665</ele><time>2026-05-02T14:04:01.999Z</time></trkpt><trkpt lat="44.116330451845755" lon="10.136483926245152"><ele>1247.3333333333333</ele><time>2026-05-02T14:04:02.999Z</time></trkpt><trkpt lat="44.11636179043026" lon="10.136370261998277"><ele>1245.0</ele><time>2026-05-02T14:04:03.999Z</time></trkpt><trkpt lat="44.116389707470006" lon="10.136258121347243"><ele>1242.6666666666667</ele><time>2026-05-02T14:04:04.999Z</time></trkpt><trkpt lat="44.11641575952365" lon="10.136139151274367"><ele>1240.3333333333335</ele><time>2026-05-02T14:04:05.999Z</time></trkpt><trkpt lat="44.11643063860576" lon="10.136029403180293"><ele>1238.0</ele><time>2026-05-02T14:04:06.999Z</time></trkpt><trkpt lat="44.11643070494841" lon="10.135909331043871"><ele>1238.0</ele><time>2026-05-02T14:04:07.999Z</time></trkpt><trkpt lat="44.11642148440775" lon="10.135791074693763"><ele>1238.0</ele><time>2026-05-02T14:04:08.999Z</time></trkpt><trkpt lat="44.11639884790019" lon="10.135681001156502"><ele>1238.0</ele><time>2026-05-02T14:04:09.999Z</time></trkpt><trkpt lat="44.11636961378666" lon="10.1355780884082"><ele>1238.0</ele><time>2026-05-02T14:04:10.999Z</time></trkpt><trkpt lat="44.11634410771454" lon="10.135479397832672"><ele>1238.0</ele><time>2026-05-02T14:04:11.999Z</time></trkpt><trkpt lat="44.11632065108047" lon="10.13538248464228"><ele>1238.0</ele><time>2026-05-02T14:04:12.999Z</time></trkpt><trkpt lat="44.116304056061445" lon="10.135292123905721"><ele>1236.8333333333335</ele><time>2026-05-02T14:04:13.999Z</time></trkpt><trkpt lat="44.11628192374063" lon="10.135194243885662"><ele>1235.6666666666667</ele><time>2026-05-02T14:04:14.999Z</time></trkpt><trkpt lat="44.11626334370711" lon="10.135097400117607"><ele>1234.5</ele><time>2026-05-02T14:04:15.999Z</time></trkpt><trkpt lat="44.11625042360277" lon="10.1349969807575"><ele>1233.3333333333333</ele><time>2026-05-02T14:04:16.999Z</time></trkpt><trkpt lat="44.11623869378091" lon="10.134891023756737"><ele>1232.1666666666665</ele><time>2026-05-02T14:04:17.999Z</time></trkpt><trkpt lat="44.11622557881232" lon="10.134781765099389"><ele>1231.0</ele><time>2026-05-02T14:04:18.999Z</time></trkpt><trkpt lat="44.116210185483425" lon="10.134669504734553"><ele>1230.6666666666665</ele><time>2026-05-02T14:04:19.999Z</time></trkpt><trkpt lat="44.1161990640536" lon="10.134558462592514"><ele>1230.3333333333333</ele><time>2026-05-02T14:04:20.999Z</time></trkpt><trkpt lat="44.116186507097595" lon="10.134442265449879"><ele>1230.0</ele><time>2026-05-02T14:04:21.999Z</time></trkpt><trkpt lat="44.11617727896212" lon="10.134326812297402"><ele>1229.6666666666667</ele><time>2026-05-02T14:04:22.999Z</time></trkpt><trkpt lat="44.1161837921656" lon="10.13421090387766"><ele>1229.3333333333335</ele><time>2026-05-02T14:04:23.999Z</time></trkpt><trkpt lat="44.116201124276536" lon="10.134088560721308"><ele>1229.0</ele><time>2026-05-02T14:04:24.999Z</time></trkpt><trkpt lat="44.11622894287805" lon="10.133976614633388"><ele>1227.3333333333335</ele><time>2026-05-02T14:04:25.999Z</time></trkpt><trkpt lat="44.11626245329019" lon="10.133860899954927"><ele>1225.6666666666667</ele><time>2026-05-02T14:04:26.999Z</time></trkpt><trkpt lat="44.11630555570423" lon="10.133755365493656"><ele>1224.0</ele><time>2026-05-02T14:04:27.999Z</time></trkpt><trkpt lat="44.11635085079194" lon="10.133649437445023"><ele>1222.3333333333333</ele><time>2026-05-02T14:04:28.999Z</time></trkpt><trkpt lat="44.11638936558042" lon="10.133551533650664"><ele>1220.6666666666665</ele><time>2026-05-02T14:04:29.999Z</time></trkpt><trkpt lat="44.11641605493548" lon="10.133439430789208"><ele>1219.0</ele><time>2026-05-02T14:04:30.999Z</time></trkpt><trkpt lat="44.116430425277265" lon="10.133340813926319"><ele>1219.0</ele><time>2026-05-02T14:04:31.999Z</time></trkpt><trkpt lat="44.11642842761219" lon="10.133234880914994"><ele>1219.0</ele><time>2026-05-02T14:04:32.999Z</time></trkpt><trkpt lat="44.11642220871666" lon="10.133121969414155"><ele>1219.0</ele><time>2026-05-02T14:04:33.999Z</time></trkpt><trkpt lat="44.11639153874244" lon="10.133008572353507"><ele>1219.0</ele><time>2026-05-02T14:04:34.999Z</time></trkpt><trkpt lat="44.11638684268378" lon="10.132880284925038"><ele>1219.0</ele><time>2026-05-02T14:04:35.999Z</time></trkpt><trkpt lat="44.116358064758586" lon="10.13275606370524"><ele>1219.0</ele><time>2026-05-02T14:04:36.999Z</time></trkpt><trkpt lat="44.11632930027871" lon="10.132628776084292"><ele>1219.0</ele><time>2026-05-02T14:04:37.999Z</time></trkpt><trkpt lat="44.116297400145136" lon="10.1324929549652"><ele>1219.0</ele><time>2026-05-02T14:04:38.999Z</time></trkpt><trkpt lat="44.11625520141087" lon="10.13236766531194"><ele>1219.0</ele><time>2026-05-02T14:04:39.999Z</time></trkpt><trkpt lat="44.116205403232236" lon="10.13225471203334"><ele>1219.0</ele><time>2026-05-02T14:04:40.999Z</time></trkpt><trkpt lat="44.11614930015866" lon="10.132158118690993"><ele>1219.0</ele><time>2026-05-02T14:04:41.999Z</time></trkpt><trkpt lat="44.116087105113166" lon="10.13206824722739"><ele>1221.8333333333333</ele><time>2026-05-02T14:04:42.999Z</time></trkpt><trkpt lat="44.11602742907947" lon="10.131983158260228"><ele>1224.6666666666665</ele><time>2026-05-02T14:04:43.999Z</time></trkpt><trkpt lat="44.1159884329625" lon="10.131870571226106"><ele>1227.5</ele><time>2026-05-02T14:04:44.999Z</time></trkpt><trkpt lat="44.115943359734885" lon="10.131769005615348"><ele>1230.3333333333333</ele><time>2026-05-02T14:04:45.999Z</time></trkpt><trkpt lat="44.1158936923725" lon="10.131657567368176"><ele>1233.1666666666667</ele><time>2026-05-02T14:04:46.999Z</time></trkpt><trkpt lat="44.11583935982375" lon="10.131555431821434"><ele>1236.0</ele><time>2026-05-02T14:04:47.999Z</time></trkpt><trkpt lat="44.115790867433866" lon="10.131449222806221"><ele>1238.3999999999999</ele><time>2026-05-02T14:04:48.999Z</time></trkpt><trkpt lat="44.11577161544557" lon="10.131327427387754"><ele>1240.8</ele><time>2026-05-02T14:04:49.999Z</time></trkpt><trkpt lat="44.115731358562215" lon="10.131209910834023"><ele>1243.1999999999998</ele><time>2026-05-02T14:04:50.999Z</time></trkpt><trkpt lat="44.11571414024509" lon="10.131077896347993"><ele>1245.6</ele><time>2026-05-02T14:04:51.999Z</time></trkpt><trkpt lat="44.11569480543964" lon="10.13094623684284"><ele>1248.0</ele><time>2026-05-02T14:04:52.999Z</time></trkpt><trkpt lat="44.11567852466938" lon="10.130812010667984"><ele>1237.6</ele><time>2026-05-02T14:04:53.999Z</time></trkpt><trkpt lat="44.115661105499754" lon="10.130667421915964"><ele>1227.1999999999998</ele><time>2026-05-02T14:04:54.999Z</time></trkpt><trkpt lat="44.11563786926445" lon="10.130522945901513"><ele>1216.8</ele><time>2026-05-02T14:04:55.999Z</time></trkpt><trkpt lat="44.11560505230438" lon="10.130397338744054"><ele>1206.3999999999999</ele><time>2026-05-02T14:04:56.999Z</time></trkpt><trkpt lat="44.115562015935296" lon="10.130271985889674"><ele>1196.0</ele><time>2026-05-02T14:04:57.999Z</time></trkpt><trkpt lat="44.115512779766696" lon="10.130158818981558"><ele>1196.0</ele><time>2026-05-02T14:04:58.999Z</time></trkpt><trkpt lat="44.11547068436247" lon="10.130067790520629"><ele>1196.0</ele><time>2026-05-02T14:04:59.999Z</time></trkpt><trkpt lat="44.115427210761005" lon="10.129975733214662"><ele>1196.0</ele><time>2026-05-02T14:05:00.999Z</time></trkpt><trkpt lat="44.11537963729371" lon="10.129838162823656"><ele>1196.0</ele><time>2026-05-02T14:05:01.999Z</time></trkpt><trkpt lat="44.11532524916911" lon="10.129716822050948"><ele>1196.0</ele><time>2026-05-02T14:05:02.999Z</time></trkpt><trkpt lat="44.11528969523132" lon="10.129583601381754"><ele>1202.0</ele><time>2026-05-02T14:05:03.999Z</time></trkpt><trkpt lat="44.11525880627407" lon="10.12946756129495"><ele>1208.0</ele><time>2026-05-02T14:05:04.999Z</time></trkpt><trkpt lat="44.115227170706774" lon="10.129360652037109"><ele>1214.0</ele><time>2026-05-02T14:05:05.999Z</time></trkpt><trkpt lat="44.11517662699493" lon="10.129220481881159"><ele>1220.0</ele><time>2026-05-02T14:05:07.999Z</time></trkpt><trkpt lat="44.11513602325744" lon="10.12906747061129"><ele>1226.0</ele><time>2026-05-02T14:05:09.999Z</time></trkpt><trkpt lat="44.115117325452374" lon="10.1289779112263"><ele>1229.2857142857142</ele><time>2026-05-02T14:05:10.999Z</time></trkpt><trkpt lat="44.11510314626622" lon="10.128885154562978"><ele>1232.5714285714284</ele><time>2026-05-02T14:05:11.999Z</time></trkpt><trkpt lat="44.11508625295134" lon="10.12879545925451"><ele>1235.8571428571427</ele><time>2026-05-02T14:05:12.999Z</time></trkpt><trkpt lat="44.115062624103516" lon="10.128711287747342"><ele>1239.142857142857</ele><time>2026-05-02T14:05:13.999Z</time></trkpt><trkpt lat="44.115031110517045" lon="10.128623015436006"><ele>1242.4285714285713</ele><time>2026-05-02T14:05:14.999Z</time></trkpt><trkpt lat="44.11498698397392" lon="10.128545955286077"><ele>1245.7142857142856</ele><time>2026-05-02T14:05:15.999Z</time></trkpt><trkpt lat="44.11492379038883" lon="10.128487218985395"><ele>1249.0</ele><time>2026-05-02T14:05:16.999Z</time></trkpt><trkpt lat="44.11485027588552" lon="10.128436037678606"><ele>1240.1666666666665</ele><time>2026-05-02T14:05:17.999Z</time></trkpt><trkpt lat="44.11477510961424" lon="10.12837959146235"><ele>1231.3333333333333</ele><time>2026-05-02T14:05:18.999Z</time></trkpt><trkpt lat="44.11470688160377" lon="10.128312981521345"><ele>1222.5</ele><time>2026-05-02T14:05:20Z</time></trkpt><trkpt lat="44.11465324571411" lon="10.128233826899857"><ele>1213.6666666666667</ele><time>2026-05-02T14:05:21Z</time></trkpt><trkpt lat="44.11459042936166" lon="10.128170980354135"><ele>1204.8333333333335</ele><time>2026-05-02T14:05:22Z</time></trkpt><trkpt lat="44.1145562256784" lon="10.128057573134317"><ele>1196.0</ele><time>2026-05-02T14:05:23Z</time></trkpt><trkpt lat="44.11457197634303" lon="10.127935701255563"><ele>1196.0</ele><time>2026-05-02T14:05:24Z</time></trkpt><trkpt lat="44.11457029888133" lon="10.127826125633009"><ele>1196.0</ele><time>2026-05-02T14:05:25Z</time></trkpt><trkpt lat="44.11458890934055" lon="10.12770708690576"><ele>1196.0</ele><time>2026-05-02T14:05:26Z</time></trkpt><trkpt lat="44.11461997064091" lon="10.127584998985025"><ele>1196.0</ele><time>2026-05-02T14:05:27Z</time></trkpt><trkpt lat="44.11465538505913" lon="10.127459984245284"><ele>1196.0</ele><time>2026-05-02T14:05:28Z</time></trkpt><trkpt lat="44.11469925392919" lon="10.127338187653915"><ele>1194.2</ele><time>2026-05-02T14:05:29Z</time></trkpt><trkpt lat="44.11475071166844" lon="10.127225311301133"><ele>1192.3999999999999</ele><time>2026-05-02T14:05:30Z</time></trkpt><trkpt lat="44.11480969966196" lon="10.127120714387607"><ele>1190.6</ele><time>2026-05-02T14:05:31Z</time></trkpt><trkpt lat="44.114877499978334" lon="10.127026331594564"><ele>1188.8</ele><time>2026-05-02T14:05:32Z</time></trkpt><trkpt lat="44.114947813141434" lon="10.126933842004478"><ele>1187.0</ele><time>2026-05-02T14:05:33Z</time></trkpt><trkpt lat="44.11501557951616" lon="10.126837501127076"><ele>1195.8</ele><time>2026-05-02T14:05:34Z</time></trkpt><trkpt lat="44.11507812521271" lon="10.126731789997866"><ele>1204.6</ele><time>2026-05-02T14:05:35Z</time></trkpt><trkpt lat="44.11513275037959" lon="10.126617520177133"><ele>1213.3999999999999</ele><time>2026-05-02T14:05:36Z</time></trkpt><trkpt lat="44.1151854882547" lon="10.12650265562418"><ele>1222.2</ele><time>2026-05-02T14:05:37Z</time></trkpt><trkpt lat="44.11524198845171" lon="10.126393279212481"><ele>1231.0</ele><time>2026-05-02T14:05:38Z</time></trkpt><trkpt lat="44.11529007686983" lon="10.126280409772836"><ele>1231.0</ele><time>2026-05-02T14:05:39Z</time></trkpt><trkpt lat="44.11533171448141" lon="10.126160170230905"><ele>1231.0</ele><time>2026-05-02T14:05:40Z</time></trkpt><trkpt lat="44.11535799781941" lon="10.126038197796584"><ele>1231.0</ele><time>2026-05-02T14:05:41Z</time></trkpt><trkpt lat="44.11536950032695" lon="10.125907364305707"><ele>1231.0</ele><time>2026-05-02T14:05:42Z</time></trkpt><trkpt lat="44.11536091616622" lon="10.125782092247603"><ele>1231.0</ele><time>2026-05-02T14:05:43Z</time></trkpt><trkpt lat="44.11533454574556" lon="10.125657562017528"><ele>1232.0</ele><time>2026-05-02T14:05:44Z</time></trkpt><trkpt lat="44.11529061649258" lon="10.125537807699335"><ele>1233.0</ele><time>2026-05-02T14:05:45Z</time></trkpt><trkpt lat="44.115242005687584" lon="10.125420961784839"><ele>1234.0</ele><time>2026-05-02T14:05:46Z</time></trkpt><trkpt lat="44.1151842694241" lon="10.125312770331721"><ele>1235.0</ele><time>2026-05-02T14:05:47Z</time></trkpt><trkpt lat="44.115124026231584" lon="10.125204531174948"><ele>1236.0</ele><time>2026-05-02T14:05:48Z</time></trkpt><trkpt lat="44.115070579387236" lon="10.125087196455604"><ele>1236.0</ele><time>2026-05-02T14:05:49Z</time></trkpt><trkpt lat="44.11502917686449" lon="10.124955749505554"><ele>1236.0</ele><time>2026-05-02T14:05:50Z</time></trkpt><trkpt lat="44.11500898060459" lon="10.124820937262125"><ele>1236.0</ele><time>2026-05-02T14:05:51Z</time></trkpt><trkpt lat="44.11500172028027" lon="10.124696050623731"><ele>1236.0</ele><time>2026-05-02T14:05:52Z</time></trkpt><trkpt lat="44.11500181477173" lon="10.1245835354707"><ele>1236.0</ele><time>2026-05-02T14:05:53Z</time></trkpt><trkpt lat="44.11500293735375" lon="10.124476117603754"><ele>1236.2857142857144</ele><time>2026-05-02T14:05:54Z</time></trkpt><trkpt lat="44.11500306850558" lon="10.124378973812055"><ele>1236.5714285714287</ele><time>2026-05-02T14:05:55Z</time></trkpt><trkpt lat="44.11500612326324" lon="10.124285264401724"><ele>1236.857142857143</ele><time>2026-05-02T14:05:56Z</time></trkpt><trkpt lat="44.11501292376487" lon="10.124187455787458"><ele>1237.1428571428573</ele><time>2026-05-02T14:05:57Z</time></trkpt><trkpt lat="44.115020039515215" lon="10.124087685365497"><ele>1237.4285714285716</ele><time>2026-05-02T14:05:58Z</time></trkpt><trkpt lat="44.11502138532764" lon="10.123984651281242"><ele>1237.7142857142858</ele><time>2026-05-02T14:05:59Z</time></trkpt><trkpt lat="44.11501657244528" lon="10.123883062164833"><ele>1238.0</ele><time>2026-05-02T14:06:00Z</time></trkpt><trkpt lat="44.115013050108324" lon="10.12378106833404"><ele>1236.0</ele><time>2026-05-02T14:06:01Z</time></trkpt><trkpt lat="44.11500720331146" lon="10.1236876450452"><ele>1234.0</ele><time>2026-05-02T14:06:02Z</time></trkpt><trkpt lat="44.11500233613229" lon="10.123590299846251"><ele>1232.0</ele><time>2026-05-02T14:06:03Z</time></trkpt><trkpt lat="44.11499934797757" lon="10.12349610748396"><ele>1230.0</ele><time>2026-05-02T14:06:04Z</time></trkpt><trkpt lat="44.11500369003894" lon="10.123332580581629"><ele>1228.0</ele><time>2026-05-02T14:06:06Z</time></trkpt><trkpt lat="44.115004024709066" lon="10.123173538262298"><ele>1226.0</ele><time>2026-05-02T14:06:08Z</time></trkpt><trkpt lat="44.114994227535504" lon="10.123006794653888"><ele>1224.0</ele><time>2026-05-02T14:06:10Z</time></trkpt><trkpt lat="44.11497303922349" lon="10.12286942581929"><ele>1222.0</ele><time>2026-05-02T14:06:12Z</time></trkpt><trkpt lat="44.11494015807222" lon="10.122769648827006"><ele>1220.0</ele><time>2026-05-02T14:06:14Z</time></trkpt><trkpt lat="44.11481001302017" lon="10.122772002686865"><ele>1218.0</ele><time>2026-05-02T14:06:19Z</time></trkpt><trkpt lat="44.11477279075705" lon="10.122847955086012"><ele>1216.0</ele><time>2026-05-02T14:06:21Z</time></trkpt><trkpt lat="44.11474293796958" lon="10.122928778712161"><ele>1214.0</ele><time>2026-05-02T14:06:23Z</time></trkpt><trkpt lat="44.11472933317869" lon="10.123025973611416"><ele>1214.0</ele><time>2026-05-02T14:06:24.999Z</time></trkpt><trkpt lat="44.11473603614759" lon="10.12315902097386"><ele>1214.0</ele><time>2026-05-02T14:06:27.999Z</time></trkpt><trkpt lat="44.11476814600067" lon="10.12324083594763"><ele>1214.0</ele><time>2026-05-02T14:06:30.999Z</time></trkpt><trkpt lat="44.11487023837099" lon="10.123254478095404"><ele>1214.0</ele><time>2026-05-02T14:09:09Z</time></trkpt><trkpt lat="44.1149274569926" lon="10.123313260672232"><ele>1214.0</ele><time>2026-05-02T14:09:11Z</time></trkpt><trkpt lat="44.11499659523233" lon="10.123197024388878"><ele>1214.0</ele><time>2026-05-02T14:09:13Z</time></trkpt><trkpt lat="44.11501770874032" lon="10.123096681440249"><ele>1214.0</ele><time>2026-05-02T14:09:15Z</time></trkpt><trkpt lat="44.11498639686519" lon="10.122984227171553"><ele>1214.0</ele><time>2026-05-02T14:09:18Z</time></trkpt><trkpt lat="44.11498197717868" lon="10.122888358895434"><ele>1214.0</ele><time>2026-05-02T14:09:20Z</time></trkpt><trkpt lat="44.11497355013853" lon="10.12277860767926"><ele>1214.0</ele><time>2026-05-02T14:09:22Z</time></trkpt><trkpt lat="44.11497185714627" lon="10.122624381519982"><ele>1214.0</ele><time>2026-05-02T14:09:23.999Z</time></trkpt><trkpt lat="44.114952548774085" lon="10.122524659928388"><ele>1214.0</ele><time>2026-05-02T14:09:24.999Z</time></trkpt><trkpt lat="44.114930885566174" lon="10.122416936095172"><ele>1214.0</ele><time>2026-05-02T14:09:25.999Z</time></trkpt><trkpt lat="44.11490935306312" lon="10.122302517305078"><ele>1214.0</ele><time>2026-05-02T14:09:26.999Z</time></trkpt><trkpt lat="44.11488679767487" lon="10.122182850051308"><ele>1214.0</ele><time>2026-05-02T14:09:27.999Z</time></trkpt><trkpt lat="44.11486284305271" lon="10.122059744140852"><ele>1214.0</ele><time>2026-05-02T14:09:28.999Z</time></trkpt><trkpt lat="44.11483561751129" lon="10.121932545380272"><ele>1214.0</ele><time>2026-05-02T14:09:29.999Z</time></trkpt><trkpt lat="44.11480068738004" lon="10.121798375731679"><ele>1213.4</ele><time>2026-05-02T14:09:30.999Z</time></trkpt><trkpt lat="44.11476058530339" lon="10.121665044243649"><ele>1212.8000000000002</ele><time>2026-05-02T14:09:32.001Z</time></trkpt><trkpt lat="44.11471225948644" lon="10.121533749110258"><ele>1212.1999999999998</ele><time>2026-05-02T14:09:33.001Z</time></trkpt><trkpt lat="44.114662726307614" lon="10.121393240146244"><ele>1211.6</ele><time>2026-05-02T14:09:34.001Z</time></trkpt><trkpt lat="44.1145992038553" lon="10.121262390782391"><ele>1211.0</ele><time>2026-05-02T14:09:35.001Z</time></trkpt><trkpt lat="44.11452907541099" lon="10.121142381687575"><ele>1211.0</ele><time>2026-05-02T14:09:36.001Z</time></trkpt><trkpt lat="44.114464902963945" lon="10.121022906091726"><ele>1211.0</ele><time>2026-05-02T14:09:37Z</time></trkpt><trkpt lat="44.114412330428436" lon="10.120898840194819"><ele>1211.0</ele><time>2026-05-02T14:09:38Z</time></trkpt><trkpt lat="44.11435875397166" lon="10.120775928498533"><ele>1211.0</ele><time>2026-05-02T14:09:39Z</time></trkpt><trkpt lat="44.11430481929913" lon="10.120657391519348"><ele>1211.0</ele><time>2026-05-02T14:09:40Z</time></trkpt><trkpt lat="44.11424620027075" lon="10.12054662740453"><ele>1213.3333333333335</ele><time>2026-05-02T14:09:41Z</time></trkpt><trkpt lat="44.114185563919506" lon="10.12044669164125"><ele>1215.6666666666667</ele><time>2026-05-02T14:09:42Z</time></trkpt><trkpt lat="44.11413050882054" lon="10.12035046563322"><ele>1218.0</ele><time>2026-05-02T14:09:43Z</time></trkpt><trkpt lat="44.114056837463046" lon="10.12029321038549"><ele>1220.3333333333333</ele><time>2026-05-02T14:09:44Z</time></trkpt><trkpt lat="44.11397631773644" lon="10.120236494803729"><ele>1222.6666666666665</ele><time>2026-05-02T14:09:45Z</time></trkpt><trkpt lat="44.113892323379076" lon="10.120199948435598"><ele>1225.0</ele><time>2026-05-02T14:09:46Z</time></trkpt><trkpt lat="44.11381390885258" lon="10.120167465411159"><ele>1218.0</ele><time>2026-05-02T14:09:47Z</time></trkpt><trkpt lat="44.113742574515825" lon="10.120129044241695"><ele>1211.0</ele><time>2026-05-02T14:09:48Z</time></trkpt><trkpt lat="44.113674812994475" lon="10.120075311935715"><ele>1204.0</ele><time>2026-05-02T14:09:49Z</time></trkpt><trkpt lat="44.11361809124706" lon="10.119995684160846"><ele>1197.0</ele><time>2026-05-02T14:09:50Z</time></trkpt><trkpt lat="44.11358449598398" lon="10.119887938795012"><ele>1190.0</ele><time>2026-05-02T14:09:51Z</time></trkpt><trkpt lat="44.113534485326255" lon="10.119808942447666"><ele>1183.0</ele><time>2026-05-02T14:09:52Z</time></trkpt><trkpt lat="44.11351706341266" lon="10.119657683856849"><ele>1182.2</ele><time>2026-05-02T14:09:54Z</time></trkpt><trkpt lat="44.11362923264069" lon="10.119605671748001"><ele>1181.4</ele><time>2026-05-02T14:09:55Z</time></trkpt><trkpt lat="44.113700800811216" lon="10.119518750591599"><ele>1180.6000000000001</ele><time>2026-05-02T14:09:56Z</time></trkpt><trkpt lat="44.11380820327599" lon="10.119459227341304"><ele>1179.8</ele><time>2026-05-02T14:09:57Z</time></trkpt><trkpt lat="44.113896578553856" lon="10.1193889352985"><ele>1179.0</ele><time>2026-05-02T14:09:58Z</time></trkpt><trkpt lat="44.11397890862698" lon="10.119307277138992"><ele>1179.0</ele><time>2026-05-02T14:09:59Z</time></trkpt><trkpt lat="44.114051543013225" lon="10.119211762915787"><ele>1179.0</ele><time>2026-05-02T14:10:00Z</time></trkpt><trkpt lat="44.114121795488984" lon="10.119110083262404"><ele>1179.0</ele><time>2026-05-02T14:10:01Z</time></trkpt><trkpt lat="44.114183964167374" lon="10.118998792066606"><ele>1179.0</ele><time>2026-05-02T14:10:02Z</time></trkpt><trkpt lat="44.11425432449439" lon="10.11889901876769"><ele>1179.0</ele><time>2026-05-02T14:10:03Z</time></trkpt><trkpt lat="44.11433060816956" lon="10.118820371460894"><ele>1179.0</ele><time>2026-05-02T14:10:04Z</time></trkpt><trkpt lat="44.11441352709173" lon="10.11875691762356"><ele>1179.0</ele><time>2026-05-02T14:10:05Z</time></trkpt><trkpt lat="44.1145015660887" lon="10.11869069142801"><ele>1179.0</ele><time>2026-05-02T14:10:06Z</time></trkpt><trkpt lat="44.11458870036937" lon="10.118619005579953"><ele>1179.0</ele><time>2026-05-02T14:10:07Z</time></trkpt><trkpt lat="44.114674814473084" lon="10.11853006753184"><ele>1179.0</ele><time>2026-05-02T14:10:08Z</time></trkpt><trkpt lat="44.11475253875918" lon="10.118437002118247"><ele>1179.0</ele><time>2026-05-02T14:10:09Z</time></trkpt><trkpt lat="44.11482550591765" lon="10.11833980415868"><ele>1179.0</ele><time>2026-05-02T14:10:10Z</time></trkpt><trkpt lat="44.11488259544395" lon="10.118227308347379"><ele>1179.0</ele><time>2026-05-02T14:10:11Z</time></trkpt><trkpt lat="44.11493624710601" lon="10.11810884315811"><ele>1179.0</ele><time>2026-05-02T14:10:12Z</time></trkpt><trkpt lat="44.11498839640615" lon="10.117993338311294"><ele>1179.0</ele><time>2026-05-02T14:10:13Z</time></trkpt><trkpt lat="44.11504695501118" lon="10.117878275929383"><ele>1178.2</ele><time>2026-05-02T14:10:14Z</time></trkpt><trkpt lat="44.11511106811348" lon="10.117773718640557"><ele>1177.4</ele><time>2026-05-02T14:10:15Z</time></trkpt><trkpt lat="44.115178054187034" lon="10.117680133671383"><ele>1176.6</ele><time>2026-05-02T14:10:16Z</time></trkpt><trkpt lat="44.11523229533587" lon="10.117582264125947"><ele>1175.8</ele><time>2026-05-02T14:10:17Z</time></trkpt><trkpt lat="44.11529162196804" lon="10.117484906330462"><ele>1175.0</ele><time>2026-05-02T14:10:18Z</time></trkpt><trkpt lat="44.11534706216788" lon="10.117376811097285"><ele>1169.2</ele><time>2026-05-02T14:10:19Z</time></trkpt><trkpt lat="44.11539722660767" lon="10.117285110428623"><ele>1163.4</ele><time>2026-05-02T14:10:20Z</time></trkpt><trkpt lat="44.11545760332184" lon="10.117058464085114"><ele>1157.6</ele><time>2026-05-02T14:10:22Z</time></trkpt><trkpt lat="44.11543669616623" lon="10.116939922706647"><ele>1151.8</ele><time>2026-05-02T14:10:23Z</time></trkpt><trkpt lat="44.11544875388936" lon="10.116842021802595"><ele>1146.0</ele><time>2026-05-02T14:10:24Z</time></trkpt><trkpt lat="44.1155560628515" lon="10.116802288927985"><ele>1146.0</ele><time>2026-05-02T14:10:26Z</time></trkpt><trkpt lat="44.11559825929646" lon="10.116958026799884"><ele>1146.0</ele><time>2026-05-02T14:10:28Z</time></trkpt><trkpt lat="44.11555826861511" lon="10.117071613192326"><ele>1146.0</ele><time>2026-05-02T14:10:29Z</time></trkpt><trkpt lat="44.11554798534901" lon="10.117195320237117"><ele>1146.0</ele><time>2026-05-02T14:10:30Z</time></trkpt><trkpt lat="44.11552487612178" lon="10.117309329333443"><ele>1146.0</ele><time>2026-05-02T14:10:31Z</time></trkpt><trkpt lat="44.11551423749309" lon="10.117427065709743"><ele>1151.8</ele><time>2026-05-02T14:10:32Z</time></trkpt><trkpt lat="44.115497704730934" lon="10.117515070299634"><ele>1157.6</ele><time>2026-05-02T14:10:33Z</time></trkpt><trkpt lat="44.115469001771885" lon="10.1176694678226"><ele>1163.4</ele><time>2026-05-02T14:10:35Z</time></trkpt><trkpt lat="44.11543562393763" lon="10.117831670902895"><ele>1169.2</ele><time>2026-05-02T14:10:37Z</time></trkpt><trkpt lat="44.11540949299635" lon="10.117915678925955"><ele>1175.0</ele><time>2026-05-02T14:10:38Z</time></trkpt><trkpt lat="44.11539278409127" lon="10.118072420842058"><ele>1175.0</ele><time>2026-05-02T14:10:40Z</time></trkpt><trkpt lat="44.11537722467751" lon="10.118159245496926"><ele>1175.0</ele><time>2026-05-02T14:10:41Z</time></trkpt><trkpt lat="44.115345136790985" lon="10.118234828255522"><ele>1175.0</ele><time>2026-05-02T14:10:42Z</time></trkpt><trkpt lat="44.115330394729625" lon="10.118328481727815"><ele>1175.0</ele><time>2026-05-02T14:10:43Z</time></trkpt><trkpt lat="44.115307945368656" lon="10.118432247067993"><ele>1175.0</ele><time>2026-05-02T14:10:44Z</time></trkpt><trkpt lat="44.11528242578127" lon="10.118551400921229"><ele>1175.0</ele><time>2026-05-02T14:10:45Z</time></trkpt><trkpt lat="44.11526424614739" lon="10.118704477010015"><ele>1180.25</ele><time>2026-05-02T14:10:46Z</time></trkpt><trkpt lat="44.115253272742464" lon="10.11885950663981"><ele>1185.5</ele><time>2026-05-02T14:10:47Z</time></trkpt><trkpt lat="44.11524383537464" lon="10.119021903562524"><ele>1190.75</ele><time>2026-05-02T14:10:48Z</time></trkpt><trkpt lat="44.1152266266517" lon="10.119186248673321"><ele>1196.0</ele><time>2026-05-02T14:10:49Z</time></trkpt><trkpt lat="44.11522186657855" lon="10.11934887108614"><ele>1197.0</ele><time>2026-05-02T14:10:50Z</time></trkpt><trkpt lat="44.115222459057875" lon="10.119514127515087"><ele>1198.0</ele><time>2026-05-02T14:10:51Z</time></trkpt><trkpt lat="44.11522841432075" lon="10.119679484900901"><ele>1199.0</ele><time>2026-05-02T14:10:52Z</time></trkpt><trkpt lat="44.11525363157312" lon="10.119840621190228"><ele>1200.0</ele><time>2026-05-02T14:10:53Z</time></trkpt><trkpt lat="44.11526469784896" lon="10.119996099030905"><ele>1200.0</ele><time>2026-05-02T14:10:54Z</time></trkpt><trkpt lat="44.11529802134457" lon="10.120146286601708"><ele>1200.0</ele><time>2026-05-02T14:10:55Z</time></trkpt><trkpt lat="44.11533914282272" lon="10.120315791321406"><ele>1200.0</ele><time>2026-05-02T14:10:56Z</time></trkpt><trkpt lat="44.115380407480615" lon="10.12047118875541"><ele>1200.0</ele><time>2026-05-02T14:10:57Z</time></trkpt><trkpt lat="44.11541165196904" lon="10.120626052435043"><ele>1201.0</ele><time>2026-05-02T14:10:58Z</time></trkpt><trkpt lat="44.11545215584998" lon="10.120777847475107"><ele>1202.0</ele><time>2026-05-02T14:10:59Z</time></trkpt><trkpt lat="44.11551746751809" lon="10.120941349824053"><ele>1203.0</ele><time>2026-05-02T14:11:00Z</time></trkpt><trkpt lat="44.11556656849827" lon="10.121092580239658"><ele>1204.0</ele><time>2026-05-02T14:11:01Z</time></trkpt><trkpt lat="44.115626761939566" lon="10.121226195323104"><ele>1204.0</ele><time>2026-05-02T14:11:02Z</time></trkpt><trkpt lat="44.115688457292926" lon="10.121369788704706"><ele>1204.0</ele><time>2026-05-02T14:11:03Z</time></trkpt><trkpt lat="44.11575352032027" lon="10.121500699826882"><ele>1204.0</ele><time>2026-05-02T14:11:04Z</time></trkpt><trkpt lat="44.11580964953993" lon="10.121612433857361"><ele>1204.0</ele><time>2026-05-02T14:11:05Z</time></trkpt><trkpt lat="44.11585117572884" lon="10.121717863258297"><ele>1204.0</ele><time>2026-05-02T14:11:06Z</time></trkpt><trkpt lat="44.11588829402419" lon="10.121808256893138"><ele>1199.0</ele><time>2026-05-02T14:11:07Z</time></trkpt><trkpt lat="44.115952291844586" lon="10.121869663324459"><ele>1194.0</ele><time>2026-05-02T14:11:07.999Z</time></trkpt><trkpt lat="44.116035990394096" lon="10.121881325344239"><ele>1189.0</ele><time>2026-05-02T14:11:08.999Z</time></trkpt><trkpt lat="44.116110953801204" lon="10.121838625417366"><ele>1184.0</ele><time>2026-05-02T14:11:09.999Z</time></trkpt><trkpt lat="44.11618920772891" lon="10.121779227454033"><ele>1179.0</ele><time>2026-05-02T14:11:10.999Z</time></trkpt><trkpt lat="44.11622440307113" lon="10.12164214306353"><ele>1174.0</ele><time>2026-05-02T14:11:11.999Z</time></trkpt><trkpt lat="44.116244609451336" lon="10.121509408294312"><ele>1171.2</ele><time>2026-05-02T14:11:12.999Z</time></trkpt><trkpt lat="44.11625971939381" lon="10.12136185045108"><ele>1168.4</ele><time>2026-05-02T14:11:13.999Z</time></trkpt><trkpt lat="44.11626874632189" lon="10.121228579039393"><ele>1165.6</ele><time>2026-05-02T14:11:14.999Z</time></trkpt><trkpt lat="44.116289123047025" lon="10.121099150551922"><ele>1162.8</ele><time>2026-05-02T14:11:15.999Z</time></trkpt><trkpt lat="44.11632820025638" lon="10.120979183832905"><ele>1160.0</ele><time>2026-05-02T14:11:16.999Z</time></trkpt><trkpt lat="44.11638718540946" lon="10.120854945899575"><ele>1158.6</ele><time>2026-05-02T14:11:17.999Z</time></trkpt><trkpt lat="44.116449203740736" lon="10.12072846626025"><ele>1157.2</ele><time>2026-05-02T14:11:18.999Z</time></trkpt><trkpt lat="44.11651249231896" lon="10.120602607618162"><ele>1155.8</ele><time>2026-05-02T14:11:19.999Z</time></trkpt><trkpt lat="44.116578266063314" lon="10.120477987279175"><ele>1154.4</ele><time>2026-05-02T14:11:20.999Z</time></trkpt><trkpt lat="44.116647546894534" lon="10.12035807593624"><ele>1153.0</ele><time>2026-05-02T14:11:21.999Z</time></trkpt><trkpt lat="44.11672330975475" lon="10.120233940907179"><ele>1149.6</ele><time>2026-05-02T14:11:22.999Z</time></trkpt><trkpt lat="44.11680205770882" lon="10.120115673985671"><ele>1146.1999999999998</ele><time>2026-05-02T14:11:23.999Z</time></trkpt><trkpt lat="44.1168702636999" lon="10.12000607288939"><ele>1142.8</ele><time>2026-05-02T14:11:24.999Z</time></trkpt><trkpt lat="44.11695558432102" lon="10.119933454465858"><ele>1139.3999999999999</ele><time>2026-05-02T14:11:25.999Z</time></trkpt><trkpt lat="44.11704465660695" lon="10.119869781540606"><ele>1136.0</ele><time>2026-05-02T14:11:26.999Z</time></trkpt><trkpt lat="44.117139570682156" lon="10.119896006160266"><ele>1136.0</ele><time>2026-05-02T14:11:27.999Z</time></trkpt><trkpt lat="44.11723575604147" lon="10.119906378406503"><ele>1136.0</ele><time>2026-05-02T14:11:28.999Z</time></trkpt><trkpt lat="44.11732289211547" lon="10.11989157812437"><ele>1136.0</ele><time>2026-05-02T14:11:29.999Z</time></trkpt><trkpt lat="44.117396668023915" lon="10.119850457866123"><ele>1136.0</ele><time>2026-05-02T14:11:30.999Z</time></trkpt><trkpt lat="44.117438820971266" lon="10.119700718303038"><ele>1136.0</ele><time>2026-05-02T14:11:31.999Z</time></trkpt><trkpt lat="44.117458370226444" lon="10.119576879782578"><ele>1133.0</ele><time>2026-05-02T14:11:32.999Z</time></trkpt><trkpt lat="44.117508794592226" lon="10.119437406464094"><ele>1130.0</ele><time>2026-05-02T14:11:33.999Z</time></trkpt><trkpt lat="44.11757104786894" lon="10.119290199606843"><ele>1127.0</ele><time>2026-05-02T14:11:34.999Z</time></trkpt><trkpt lat="44.117638139178915" lon="10.119154743243545"><ele>1124.0</ele><time>2026-05-02T14:11:35.999Z</time></trkpt><trkpt lat="44.11771353489805" lon="10.119012075362344"><ele>1117.75</ele><time>2026-05-02T14:11:36.999Z</time></trkpt><trkpt lat="44.11779232301192" lon="10.11886298821678"><ele>1111.5</ele><time>2026-05-02T14:11:38Z</time></trkpt><trkpt lat="44.11787701300195" lon="10.118704075126244"><ele>1105.25</ele><time>2026-05-02T14:11:39Z</time></trkpt><trkpt lat="44.117956976097936" lon="10.118561520183246"><ele>1099.0</ele><time>2026-05-02T14:11:40Z</time></trkpt><trkpt lat="44.118030662411336" lon="10.118404580315085"><ele>1099.0</ele><time>2026-05-02T14:11:41Z</time></trkpt><trkpt lat="44.11813081976717" lon="10.118276183034064"><ele>1099.0</ele><time>2026-05-02T14:11:42Z</time></trkpt><trkpt lat="44.11821638893805" lon="10.118140410884418"><ele>1099.0</ele><time>2026-05-02T14:11:43Z</time></trkpt><trkpt lat="44.11829450563826" lon="10.117987340162994"><ele>1099.0</ele><time>2026-05-02T14:11:44Z</time></trkpt><trkpt lat="44.118385130508415" lon="10.117855406740253"><ele>1098.8</ele><time>2026-05-02T14:11:45Z</time></trkpt><trkpt lat="44.118472361163064" lon="10.117730012111876"><ele>1098.6000000000001</ele><time>2026-05-02T14:11:46Z</time></trkpt><trkpt lat="44.11854549027426" lon="10.11761620523118"><ele>1098.4</ele><time>2026-05-02T14:11:47Z</time></trkpt><trkpt lat="44.118621309311095" lon="10.117521181776961"><ele>1098.2</ele><time>2026-05-02T14:11:48Z</time></trkpt><trkpt lat="44.118712408626315" lon="10.117451037024445"><ele>1098.0</ele><time>2026-05-02T14:11:49Z</time></trkpt><trkpt lat="44.11882436819163" lon="10.117440194210978"><ele>1098.0</ele><time>2026-05-02T14:11:50Z</time></trkpt><trkpt lat="44.118946042589776" lon="10.117406206509154"><ele>1098.0</ele><time>2026-05-02T14:11:51Z</time></trkpt><trkpt lat="44.119068867589135" lon="10.117411908864035"><ele>1098.0</ele><time>2026-05-02T14:11:52Z</time></trkpt><trkpt lat="44.11918882079461" lon="10.117398338282644"><ele>1098.0</ele><time>2026-05-02T14:11:53Z</time></trkpt><trkpt lat="44.11930557620435" lon="10.117359927644626"><ele>1094.5</ele><time>2026-05-02T14:11:54Z</time></trkpt><trkpt lat="44.119413296255416" lon="10.117292018490849"><ele>1091.0</ele><time>2026-05-02T14:11:55Z</time></trkpt><trkpt lat="44.11950956377532" lon="10.117182338308227"><ele>1087.5</ele><time>2026-05-02T14:11:56Z</time></trkpt><trkpt lat="44.119600410099025" lon="10.117051900174497"><ele>1084.0</ele><time>2026-05-02T14:11:57Z</time></trkpt><trkpt lat="44.119694867327844" lon="10.116904604889239"><ele>1084.0</ele><time>2026-05-02T14:11:58Z</time></trkpt><trkpt lat="44.11979114216518" lon="10.116768411983122"><ele>1084.0</ele><time>2026-05-02T14:11:59Z</time></trkpt><trkpt lat="44.11989056792848" lon="10.116635990897288"><ele>1084.0</ele><time>2026-05-02T14:12:00Z</time></trkpt><trkpt lat="44.11998786601823" lon="10.116507591238507"><ele>1084.0</ele><time>2026-05-02T14:12:01Z</time></trkpt><trkpt lat="44.120082724499156" lon="10.11638490858963"><ele>1081.8</ele><time>2026-05-02T14:12:02Z</time></trkpt><trkpt lat="44.12017480989242" lon="10.116269412882097"><ele>1079.6000000000001</ele><time>2026-05-02T14:12:03Z</time></trkpt><trkpt lat="44.12025631323835" lon="10.116156662597314"><ele>1077.4</ele><time>2026-05-02T14:12:04Z</time></trkpt><trkpt lat="44.120328353450624" lon="10.116076972706946"><ele>1075.2</ele><time>2026-05-02T14:12:05Z</time></trkpt><trkpt lat="44.120405970844466" lon="10.116029206411168"><ele>1073.0</ele><time>2026-05-02T14:12:06Z</time></trkpt><trkpt lat="44.12047852134481" lon="10.116045244535208"><ele>1073.0</ele><time>2026-05-02T14:12:07Z</time></trkpt><trkpt lat="44.12053000364374" lon="10.116110295326608"><ele>1073.0</ele><time>2026-05-02T14:12:08Z</time></trkpt><trkpt lat="44.120558842562986" lon="10.116222578561313"><ele>1073.0</ele><time>2026-05-02T14:12:09Z</time></trkpt><trkpt lat="44.120580096237504" lon="10.116356942459422"><ele>1073.0</ele><time>2026-05-02T14:12:10Z</time></trkpt><trkpt lat="44.120613027381154" lon="10.116489712622524"><ele>1073.0</ele><time>2026-05-02T14:12:11Z</time></trkpt><trkpt lat="44.12066428230844" lon="10.116610164085529"><ele>1078.1666666666667</ele><time>2026-05-02T14:12:12Z</time></trkpt><trkpt lat="44.120718579616465" lon="10.116705327600634"><ele>1083.3333333333335</ele><time>2026-05-02T14:12:13Z</time></trkpt><trkpt lat="44.120774675699" lon="10.116770435935468"><ele>1088.5</ele><time>2026-05-02T14:12:14Z</time></trkpt><trkpt lat="44.12084362620405" lon="10.11681555346064"><ele>1093.6666666666667</ele><time>2026-05-02T14:12:15Z</time></trkpt><trkpt lat="44.12092425318" lon="10.116778092741564"><ele>1098.8333333333333</ele><time>2026-05-02T14:12:16Z</time></trkpt><trkpt lat="44.12098302326893" lon="10.116709350916084"><ele>1104.0</ele><time>2026-05-02T14:12:17Z</time></trkpt><trkpt lat="44.12103275503392" lon="10.116608735799193"><ele>1100.0</ele><time>2026-05-02T14:12:18Z</time></trkpt><trkpt lat="44.12109717293723" lon="10.116528329194974"><ele>1096.0</ele><time>2026-05-02T14:12:19Z</time></trkpt><trkpt lat="44.121164511476934" lon="10.116475696779531"><ele>1092.0</ele><time>2026-05-02T14:12:20Z</time></trkpt><trkpt lat="44.12124632400103" lon="10.11645433667866"><ele>1088.0</ele><time>2026-05-02T14:12:21Z</time></trkpt><trkpt lat="44.121326366452564" lon="10.116459589843476"><ele>1084.0</ele><time>2026-05-02T14:12:22Z</time></trkpt><trkpt lat="44.12141529534442" lon="10.116463611755295"><ele>1080.0</ele><time>2026-05-02T14:12:23Z</time></trkpt><trkpt lat="44.12149774172063" lon="10.116459982369314"><ele>1080.6</ele><time>2026-05-02T14:12:24Z</time></trkpt><trkpt lat="44.12156928863024" lon="10.11644148697041"><ele>1081.2</ele><time>2026-05-02T14:12:25Z</time></trkpt><trkpt lat="44.121625815879355" lon="10.116346841256961"><ele>1081.8</ele><time>2026-05-02T14:12:26Z</time></trkpt><trkpt lat="44.12165875465146" lon="10.116236079530665"><ele>1082.4</ele><time>2026-05-02T14:12:27Z</time></trkpt><trkpt lat="44.12170593843265" lon="10.116107376210428"><ele>1083.0</ele><time>2026-05-02T14:12:28Z</time></trkpt><trkpt lat="44.121757504387844" lon="10.115969357731837"><ele>1083.0</ele><time>2026-05-02T14:12:29Z</time></trkpt><trkpt lat="44.12183193918717" lon="10.115826470486503"><ele>1083.0</ele><time>2026-05-02T14:12:30Z</time></trkpt><trkpt lat="44.12189419516745" lon="10.115668898745088"><ele>1083.0</ele><time>2026-05-02T14:12:31Z</time></trkpt><trkpt lat="44.12194460606565" lon="10.115504886158906"><ele>1083.0</ele><time>2026-05-02T14:12:32Z</time></trkpt><trkpt lat="44.12199292614554" lon="10.115335428349773"><ele>1078.25</ele><time>2026-05-02T14:12:33Z</time></trkpt><trkpt lat="44.12203399996498" lon="10.115152680603533"><ele>1073.5</ele><time>2026-05-02T14:12:34Z</time></trkpt><trkpt lat="44.122055025593156" lon="10.114970511238324"><ele>1068.75</ele><time>2026-05-02T14:12:35Z</time></trkpt><trkpt lat="44.12207669894659" lon="10.114793625870597"><ele>1064.0</ele><time>2026-05-02T14:12:36Z</time></trkpt><trkpt lat="44.1221056059674" lon="10.114626860269631"><ele>1059.25</ele><time>2026-05-02T14:12:37Z</time></trkpt><trkpt lat="44.12214047955767" lon="10.114470968893814"><ele>1054.5</ele><time>2026-05-02T14:12:38Z</time></trkpt><trkpt lat="44.12218504759444" lon="10.11433034984585"><ele>1049.75</ele><time>2026-05-02T14:12:39Z</time></trkpt><trkpt lat="44.12223765818148" lon="10.114186816855803"><ele>1045.0</ele><time>2026-05-02T14:12:40Z</time></trkpt><trkpt lat="44.122311027994854" lon="10.114068924324584"><ele>1041.2</ele><time>2026-05-02T14:12:41Z</time></trkpt><trkpt lat="44.122370308943346" lon="10.113950385064866"><ele>1037.4</ele><time>2026-05-02T14:12:42Z</time></trkpt><trkpt lat="44.12240211999308" lon="10.113807010577705"><ele>1033.6</ele><time>2026-05-02T14:12:43Z</time></trkpt><trkpt lat="44.12241186100606" lon="10.113662397573961"><ele>1029.8</ele><time>2026-05-02T14:12:44Z</time></trkpt><trkpt lat="44.12241312278348" lon="10.113524388510832"><ele>1026.0</ele><time>2026-05-02T14:12:45Z</time></trkpt><trkpt lat="44.122425652664525" lon="10.113363819935095"><ele>1038.0</ele><time>2026-05-02T14:12:46Z</time></trkpt><trkpt lat="44.12244654956395" lon="10.113203395791112"><ele>1050.0</ele><time>2026-05-02T14:12:47Z</time></trkpt><trkpt lat="44.12247024099416" lon="10.113042868657883"><ele>1062.0</ele><time>2026-05-02T14:12:48Z</time></trkpt><trkpt lat="44.12248289714098" lon="10.11288371178231"><ele>1074.0</ele><time>2026-05-02T14:12:49Z</time></trkpt><trkpt lat="44.122483352145395" lon="10.112726066845466"><ele>1074.0</ele><time>2026-05-02T14:12:50Z</time></trkpt><trkpt lat="44.122461138279775" lon="10.11255742171982"><ele>1074.0</ele><time>2026-05-02T14:12:51Z</time></trkpt><trkpt lat="44.12241787654041" lon="10.112404051254453"><ele>1074.0</ele><time>2026-05-02T14:12:52Z</time></trkpt><trkpt lat="44.12237491416992" lon="10.112236125383061"><ele>1074.0</ele><time>2026-05-02T14:12:53Z</time></trkpt><trkpt lat="44.12232326800848" lon="10.112072072354401"><ele>1059.75</ele><time>2026-05-02T14:12:54Z</time></trkpt><trkpt lat="44.122284087314426" lon="10.111916636179364"><ele>1045.5</ele><time>2026-05-02T14:12:55Z</time></trkpt><trkpt lat="44.12224436489899" lon="10.111767194922177"><ele>1031.25</ele><time>2026-05-02T14:12:56Z</time></trkpt><trkpt lat="44.12223452999987" lon="10.111607204121816"><ele>1017.0</ele><time>2026-05-02T14:12:57Z</time></trkpt><trkpt lat="44.12223255014999" lon="10.111442369918615"><ele>1016.5</ele><time>2026-05-02T14:12:58Z</time></trkpt><trkpt lat="44.12221609542176" lon="10.111267666522725"><ele>1016.0</ele><time>2026-05-02T14:12:59Z</time></trkpt><trkpt lat="44.12221251834958" lon="10.111081144119046"><ele>1015.5</ele><time>2026-05-02T14:13:00Z</time></trkpt><trkpt lat="44.12220814166949" lon="10.11089208671408"><ele>1015.0</ele><time>2026-05-02T14:13:01Z</time></trkpt><trkpt lat="44.12220594093213" lon="10.110704120629237"><ele>1016.0</ele><time>2026-05-02T14:13:02Z</time></trkpt><trkpt lat="44.12220179400707" lon="10.110520499091914"><ele>1017.0</ele><time>2026-05-02T14:13:03Z</time></trkpt><trkpt lat="44.1221927615577" lon="10.110347390946561"><ele>1018.0</ele><time>2026-05-02T14:13:04Z</time></trkpt><trkpt lat="44.12216933694619" lon="10.110178562696602"><ele>1019.0</ele><time>2026-05-02T14:13:05Z</time></trkpt><trkpt lat="44.12213374727589" lon="10.110026342204572"><ele>1023.6</ele><time>2026-05-02T14:13:06Z</time></trkpt><trkpt lat="44.12210554161723" lon="10.10988118265623"><ele>1028.2</ele><time>2026-05-02T14:13:07Z</time></trkpt><trkpt lat="44.122018469976524" lon="10.109767270126286"><ele>1032.8000000000002</ele><time>2026-05-02T14:13:08Z</time></trkpt><trkpt lat="44.1219163731099" lon="10.10970803976675"><ele>1037.4</ele><time>2026-05-02T14:13:09Z</time></trkpt><trkpt lat="44.12182020221368" lon="10.109634251432714"><ele>1042.0</ele><time>2026-05-02T14:13:10Z</time></trkpt><trkpt lat="44.12173389030981" lon="10.109511717090847"><ele>1042.0</ele><time>2026-05-02T14:13:11Z</time></trkpt><trkpt lat="44.1216530239508" lon="10.109384687401523"><ele>1042.0</ele><time>2026-05-02T14:13:12Z</time></trkpt><trkpt lat="44.121569521307094" lon="10.109248761642124"><ele>1042.0</ele><time>2026-05-02T14:13:13Z</time></trkpt><trkpt lat="44.12148550259748" lon="10.109098411066775"><ele>1042.0</ele><time>2026-05-02T14:13:13.999Z</time></trkpt><trkpt lat="44.12140282498922" lon="10.108934622734477"><ele>1035.25</ele><time>2026-05-02T14:13:14.999Z</time></trkpt><trkpt lat="44.121324920837125" lon="10.108768169989812"><ele>1028.5</ele><time>2026-05-02T14:13:15.999Z</time></trkpt><trkpt lat="44.12123392054986" lon="10.108619109454493"><ele>1021.75</ele><time>2026-05-02T14:13:16.999Z</time></trkpt><trkpt lat="44.121143362308636" lon="10.108492854171297"><ele>1015.0</ele><time>2026-05-02T14:13:17.999Z</time></trkpt><trkpt lat="44.121060522415895" lon="10.108387690102202"><ele>1015.0</ele><time>2026-05-02T14:13:18.999Z</time></trkpt><trkpt lat="44.12098438728462" lon="10.10829776568415"><ele>1015.0</ele><time>2026-05-02T14:13:19.999Z</time></trkpt><trkpt lat="44.12091447109385" lon="10.108210433428866"><ele>1015.0</ele><time>2026-05-02T14:13:20.999Z</time></trkpt><trkpt lat="44.12085723735003" lon="10.108110156232785"><ele>1015.0</ele><time>2026-05-02T14:13:21.999Z</time></trkpt><trkpt lat="44.120818228597194" lon="10.107992152200957"><ele>1015.0</ele><time>2026-05-02T14:13:22.999Z</time></trkpt><trkpt lat="44.12079789419685" lon="10.107847408350413"><ele>1011.0</ele><time>2026-05-02T14:13:23.999Z</time></trkpt><trkpt lat="44.12079540299246" lon="10.107689752990677"><ele>1007.0</ele><time>2026-05-02T14:13:24.999Z</time></trkpt><trkpt lat="44.12076759404004" lon="10.10753599800122"><ele>1003.0</ele><time>2026-05-02T14:13:25.999Z</time></trkpt><trkpt lat="44.12072016691649" lon="10.107396882236383"><ele>999.0</ele><time>2026-05-02T14:13:26.999Z</time></trkpt><trkpt lat="44.12063984622867" lon="10.107279913049538"><ele>999.0</ele><time>2026-05-02T14:13:27.999Z</time></trkpt><trkpt lat="44.12054102660471" lon="10.107196707701865"><ele>999.0000000000001</ele><time>2026-05-02T14:13:28.999Z</time></trkpt><trkpt lat="44.12045212166333" lon="10.107133680776984"><ele>999.0000000000001</ele><time>2026-05-02T14:13:29.999Z</time></trkpt><trkpt lat="44.1203857524476" lon="10.107035583337208"><ele>999.0</ele><time>2026-05-02T14:13:30.999Z</time></trkpt><trkpt lat="44.12032868804465" lon="10.106933205398832"><ele>999.0</ele><time>2026-05-02T14:13:31.999Z</time></trkpt><trkpt lat="44.120304743751554" lon="10.106789257065818"><ele>999.0</ele><time>2026-05-02T14:13:32.999Z</time></trkpt><trkpt lat="44.12024518045154" lon="10.1066483555665"><ele>999.0</ele><time>2026-05-02T14:13:33.999Z</time></trkpt><trkpt lat="44.12015633489033" lon="10.106523007263643"><ele>999.0</ele><time>2026-05-02T14:13:34.999Z</time></trkpt><trkpt lat="44.12005867450461" lon="10.106427823729675"><ele>999.0</ele><time>2026-05-02T14:13:35.999Z</time></trkpt><trkpt lat="44.11998097825066" lon="10.106337371201116"><ele>996.8000000000001</ele><time>2026-05-02T14:13:36.999Z</time></trkpt><trkpt lat="44.119918559436194" lon="10.106246926110618"><ele>994.6000000000001</ele><time>2026-05-02T14:13:37.999Z</time></trkpt><trkpt lat="44.11988698327026" lon="10.106121951938484"><ele>992.4</ele><time>2026-05-02T14:13:38.999Z</time></trkpt><trkpt lat="44.11987280968853" lon="10.105978924407236"><ele>990.2</ele><time>2026-05-02T14:13:39.999Z</time></trkpt><trkpt lat="44.11983703654789" lon="10.105825939878285"><ele>988.0</ele><time>2026-05-02T14:13:40.999Z</time></trkpt><trkpt lat="44.11982895733944" lon="10.10565334716857"><ele>988.0</ele><time>2026-05-02T14:13:41.999Z</time></trkpt><trkpt lat="44.11977912494431" lon="10.10548975243991"><ele>988.0</ele><time>2026-05-02T14:13:42.999Z</time></trkpt><trkpt lat="44.119684940582914" lon="10.105354105148635"><ele>988.0</ele><time>2026-05-02T14:13:44Z</time></trkpt><trkpt lat="44.11958997446876" lon="10.105210020302374"><ele>988.0</ele><time>2026-05-02T14:13:45Z</time></trkpt><trkpt lat="44.119495843090114" lon="10.10506604938112"><ele>988.0</ele><time>2026-05-02T14:13:46Z</time></trkpt><trkpt lat="44.11939939868432" lon="10.10493000495182"><ele>988.0</ele><time>2026-05-02T14:13:47Z</time></trkpt><trkpt lat="44.11931152937399" lon="10.104797503044585"><ele>988.0</ele><time>2026-05-02T14:13:48Z</time></trkpt><trkpt lat="44.11922989396554" lon="10.104660942862337"><ele>988.0</ele><time>2026-05-02T14:13:49Z</time></trkpt><trkpt lat="44.11916213228825" lon="10.104529087732677"><ele>988.4</ele><time>2026-05-02T14:13:50Z</time></trkpt><trkpt lat="44.11910754640087" lon="10.104399834659763"><ele>988.8</ele><time>2026-05-02T14:13:51Z</time></trkpt><trkpt lat="44.11906799390692" lon="10.10426227879473"><ele>989.2</ele><time>2026-05-02T14:13:52Z</time></trkpt><trkpt lat="44.11904192836036" lon="10.104132238503519"><ele>989.6</ele><time>2026-05-02T14:13:53Z</time></trkpt><trkpt lat="44.11899763879145" lon="10.104023891010725"><ele>990.0</ele><time>2026-05-02T14:13:54Z</time></trkpt><trkpt lat="44.11891719891852" lon="10.103945395073268"><ele>986.8</ele><time>2026-05-02T14:13:55Z</time></trkpt><trkpt lat="44.11881303717227" lon="10.10391304271847"><ele>983.6</ele><time>2026-05-02T14:13:56Z</time></trkpt><trkpt lat="44.11871639473488" lon="10.103911399824113"><ele>980.4000000000001</ele><time>2026-05-02T14:13:57Z</time></trkpt><trkpt lat="44.11860712879291" lon="10.103864698349186"><ele>977.2</ele><time>2026-05-02T14:13:58Z</time></trkpt><trkpt lat="44.11850737901773" lon="10.10380464888532"><ele>974.0</ele><time>2026-05-02T14:13:59Z</time></trkpt><trkpt lat="44.11840735193383" lon="10.103763685519882"><ele>974.0</ele><time>2026-05-02T14:14:00Z</time></trkpt><trkpt lat="44.11831549163506" lon="10.103709641738432"><ele>974.0000000000001</ele><time>2026-05-02T14:14:01Z</time></trkpt><trkpt lat="44.118218364707964" lon="10.103700427262707"><ele>974.0000000000001</ele><time>2026-05-02T14:14:02Z</time></trkpt><trkpt lat="44.118104781928686" lon="10.103720202636612"><ele>974.0</ele><time>2026-05-02T14:14:03Z</time></trkpt><trkpt lat="44.117990589341794" lon="10.103738118306984"><ele>974.0</ele><time>2026-05-02T14:14:04Z</time></trkpt><trkpt lat="44.11788328291431" lon="10.103698072709244"><ele>974.0</ele><time>2026-05-02T14:14:05Z</time></trkpt><trkpt lat="44.117791429839485" lon="10.103637518536551"><ele>974.0000000000001</ele><time>2026-05-02T14:14:06Z</time></trkpt><trkpt lat="44.117717625207376" lon="10.103530093845078"><ele>974.0000000000001</ele><time>2026-05-02T14:14:07Z</time></trkpt><trkpt lat="44.11763314764964" lon="10.103471319715704"><ele>974.0</ele><time>2026-05-02T14:14:08Z</time></trkpt><trkpt lat="44.11755192174898" lon="10.103410374705067"><ele>974.0</ele><time>2026-05-02T14:14:09Z</time></trkpt><trkpt lat="44.11746107344762" lon="10.103386702781899"><ele>970.25</ele><time>2026-05-02T14:14:10Z</time></trkpt><trkpt lat="44.117366306681575" lon="10.103445635950695"><ele>966.5</ele><time>2026-05-02T14:14:11Z</time></trkpt><trkpt lat="44.11725655925737" lon="10.103543754070545"><ele>962.75</ele><time>2026-05-02T14:14:12Z</time></trkpt><trkpt lat="44.11714350861848" lon="10.103634562050372"><ele>959.0</ele><time>2026-05-02T14:14:13Z</time></trkpt><trkpt lat="44.11703329230146" lon="10.103697310073606"><ele>959.0</ele><time>2026-05-02T14:14:14Z</time></trkpt><trkpt lat="44.11693695378532" lon="10.103794499112567"><ele>959.0000000000001</ele><time>2026-05-02T14:14:15Z</time></trkpt><trkpt lat="44.116841540878916" lon="10.10384645864466"><ele>959.0000000000001</ele><time>2026-05-02T14:14:16Z</time></trkpt><trkpt lat="44.11675767397895" lon="10.103878468557205"><ele>959.0</ele><time>2026-05-02T14:14:17Z</time></trkpt><trkpt lat="44.11667252502677" lon="10.103886094473486"><ele>959.0</ele><time>2026-05-02T14:14:18Z</time></trkpt><trkpt lat="44.11659166000388" lon="10.103859799474984"><ele>956.1666666666667</ele><time>2026-05-02T14:14:19Z</time></trkpt><trkpt lat="44.11652285637227" lon="10.103804327999084"><ele>953.3333333333334</ele><time>2026-05-02T14:14:20Z</time></trkpt><trkpt lat="44.116468846370466" lon="10.10372083439658"><ele>950.5</ele><time>2026-05-02T14:14:21Z</time></trkpt><trkpt lat="44.11645668496515" lon="10.103600310302241"><ele>947.6666666666667</ele><time>2026-05-02T14:14:22Z</time></trkpt><trkpt lat="44.1164431492755" lon="10.103508200587319"><ele>944.8333333333334</ele><time>2026-05-02T14:14:23Z</time></trkpt><trkpt lat="44.11649793704711" lon="10.10340298967229"><ele>942.0</ele><time>2026-05-02T14:14:24Z</time></trkpt><trkpt lat="44.11656103266135" lon="10.103302664794018"><ele>940.4000000000001</ele><time>2026-05-02T14:14:25Z</time></trkpt><trkpt lat="44.11664953343996" lon="10.103214603674404"><ele>938.8000000000001</ele><time>2026-05-02T14:14:26Z</time></trkpt><trkpt lat="44.116732912506265" lon="10.10312165930432"><ele>937.2</ele><time>2026-05-02T14:14:27Z</time></trkpt><trkpt lat="44.11679103453704" lon="10.102992118576783"><ele>935.6</ele><time>2026-05-02T14:14:28Z</time></trkpt><trkpt lat="44.11685183042879" lon="10.102871931438054"><ele>934.0</ele><time>2026-05-02T14:14:29Z</time></trkpt><trkpt lat="44.116926573713094" lon="10.102781651575302"><ele>934.0</ele><time>2026-05-02T14:14:30Z</time></trkpt><trkpt lat="44.117019928709425" lon="10.102720143948691"><ele>934.0000000000001</ele><time>2026-05-02T14:14:31Z</time></trkpt><trkpt lat="44.11712238385749" lon="10.102681326812618"><ele>934.0000000000001</ele><time>2026-05-02T14:14:32Z</time></trkpt><trkpt lat="44.11722888265833" lon="10.102661944902913"><ele>934.0</ele><time>2026-05-02T14:14:33Z</time></trkpt><trkpt lat="44.117340666745136" lon="10.102646048501787"><ele>934.0</ele><time>2026-05-02T14:14:34Z</time></trkpt><trkpt lat="44.117454606127886" lon="10.102628209695238"><ele>935.8000000000001</ele><time>2026-05-02T14:14:35Z</time></trkpt><trkpt lat="44.11756238073581" lon="10.102641815211133"><ele>937.6000000000001</ele><time>2026-05-02T14:14:35.999Z</time></trkpt><trkpt lat="44.11766281604892" lon="10.102690224389914"><ele>939.4</ele><time>2026-05-02T14:14:36.999Z</time></trkpt><trkpt lat="44.117751828145515" lon="10.10277110198609"><ele>941.2</ele><time>2026-05-02T14:14:37.999Z</time></trkpt><trkpt lat="44.117841755450556" lon="10.102862908623068"><ele>943.0</ele><time>2026-05-02T14:14:38.999Z</time></trkpt><trkpt lat="44.11794338983689" lon="10.102949075400845"><ele>943.0</ele><time>2026-05-02T14:14:39.999Z</time></trkpt><trkpt lat="44.11805588901319" lon="10.102990828771238"><ele>943.0</ele><time>2026-05-02T14:14:40.999Z</time></trkpt><trkpt lat="44.118183527639" lon="10.103019679211501"><ele>943.0</ele><time>2026-05-02T14:14:41.999Z</time></trkpt><trkpt lat="44.11830663526818" lon="10.103056322016595"><ele>943.0</ele><time>2026-05-02T14:14:42.999Z</time></trkpt><trkpt lat="44.118421085992814" lon="10.103082491217181"><ele>940.5</ele><time>2026-05-02T14:14:43.999Z</time></trkpt><trkpt lat="44.11853505864851" lon="10.103097899293267"><ele>938.0</ele><time>2026-05-02T14:14:44.999Z</time></trkpt><trkpt lat="44.11865148949741" lon="10.103122075291129"><ele>935.5</ele><time>2026-05-02T14:14:45.999Z</time></trkpt><trkpt lat="44.118762720292075" lon="10.10313789470969"><ele>933.0</ele><time>2026-05-02T14:14:46.999Z</time></trkpt><trkpt lat="44.118871369199816" lon="10.10311858937764"><ele>933.0</ele><time>2026-05-02T14:14:47.999Z</time></trkpt><trkpt lat="44.11897304513099" lon="10.103058970951203"><ele>933.0</ele><time>2026-05-02T14:14:48.999Z</time></trkpt><trkpt lat="44.1190726588635" lon="10.102998035780546"><ele>933.0</ele><time>2026-05-02T14:14:49.999Z</time></trkpt><trkpt lat="44.11916792123938" lon="10.102958688463504"><ele>933.0</ele><time>2026-05-02T14:14:50.999Z</time></trkpt><trkpt lat="44.11926919481383" lon="10.102992279897467"><ele>933.0</ele><time>2026-05-02T14:14:51.999Z</time></trkpt><trkpt lat="44.11937133981706" lon="10.103021756248085"><ele>933.0</ele><time>2026-05-02T14:14:52.999Z</time></trkpt><trkpt lat="44.11947605233601" lon="10.103027008970718"><ele>933.0</ele><time>2026-05-02T14:14:53.999Z</time></trkpt><trkpt lat="44.119568828774916" lon="10.103035068322434"><ele>933.0</ele><time>2026-05-02T14:14:54.999Z</time></trkpt><trkpt lat="44.11965324332036" lon="10.103009938115553"><ele>933.0</ele><time>2026-05-02T14:14:55.999Z</time></trkpt><trkpt lat="44.11973136925267" lon="10.102937464117069"><ele>933.0</ele><time>2026-05-02T14:14:56.999Z</time></trkpt><trkpt lat="44.11979869258365" lon="10.10283688077316"><ele>933.0</ele><time>2026-05-02T14:14:57.999Z</time></trkpt><trkpt lat="44.119844114581326" lon="10.102714279291348"><ele>933.0</ele><time>2026-05-02T14:14:58.999Z</time></trkpt><trkpt lat="44.119880880634256" lon="10.102564426126174"><ele>933.0</ele><time>2026-05-02T14:14:59.999Z</time></trkpt><trkpt lat="44.11990746500988" lon="10.102395691748443"><ele>933.0</ele><time>2026-05-02T14:15:00.999Z</time></trkpt><trkpt lat="44.119954341348105" lon="10.102240048888117"><ele>931.5</ele><time>2026-05-02T14:15:01.999Z</time></trkpt><trkpt lat="44.11999177565222" lon="10.102060348603912"><ele>930.0</ele><time>2026-05-02T14:15:02.999Z</time></trkpt><trkpt lat="44.12002888680625" lon="10.101883745317382"><ele>928.5</ele><time>2026-05-02T14:15:03.999Z</time></trkpt><trkpt lat="44.12006442430506" lon="10.101697724755475"><ele>927.0</ele><time>2026-05-02T14:15:04.999Z</time></trkpt><trkpt lat="44.12011314217314" lon="10.101517813163449"><ele>920.0</ele><time>2026-05-02T14:15:05.999Z</time></trkpt><trkpt lat="44.12016624234505" lon="10.10135154819877"><ele>913.0</ele><time>2026-05-02T14:15:06.999Z</time></trkpt><trkpt lat="44.1202246349392" lon="10.101175680823948"><ele>906.0</ele><time>2026-05-02T14:15:07.999Z</time></trkpt><trkpt lat="44.12025293938416" lon="10.101015381479352"><ele>899.0</ele><time>2026-05-02T14:15:08.999Z</time></trkpt><trkpt lat="44.12026995007733" lon="10.100856268699097"><ele>893.2</ele><time>2026-05-02T14:15:09.999Z</time></trkpt><trkpt lat="44.120309380758556" lon="10.100716518478947"><ele>887.4000000000001</ele><time>2026-05-02T14:15:10.999Z</time></trkpt><trkpt lat="44.12038221996184" lon="10.10060765923144"><ele>881.6</ele><time>2026-05-02T14:15:11.999Z</time></trkpt><trkpt lat="44.120462894098814" lon="10.100507559902685"><ele>875.8</ele><time>2026-05-02T14:15:12.999Z</time></trkpt><trkpt lat="44.12055553145034" lon="10.100422543303024"><ele>870.0</ele><time>2026-05-02T14:15:13.999Z</time></trkpt><trkpt lat="44.12064879974254" lon="10.100352743595558"><ele>878.2</ele><time>2026-05-02T14:15:14.999Z</time></trkpt><trkpt lat="44.12074009448908" lon="10.100296329072991"><ele>886.4</ele><time>2026-05-02T14:15:15.999Z</time></trkpt><trkpt lat="44.120845780975195" lon="10.100329594096095"><ele>894.5999999999999</ele><time>2026-05-02T14:15:16.999Z</time></trkpt><trkpt lat="44.12094263513247" lon="10.10030303625414"><ele>902.8</ele><time>2026-05-02T14:15:17.999Z</time></trkpt><trkpt lat="44.12102151781988" lon="10.10020847581615"><ele>911.0</ele><time>2026-05-02T14:15:18.999Z</time></trkpt><trkpt lat="44.12109443942452" lon="10.100080054481685"><ele>911.0</ele><time>2026-05-02T14:15:19.999Z</time></trkpt><trkpt lat="44.12119479849149" lon="10.099966065311227"><ele>911.0</ele><time>2026-05-02T14:15:20.999Z</time></trkpt><trkpt lat="44.12129758999009" lon="10.09984875048226"><ele>911.0</ele><time>2026-05-02T14:15:21.999Z</time></trkpt><trkpt lat="44.1214150498553" lon="10.099756096467718"><ele>911.0</ele><time>2026-05-02T14:15:22.999Z</time></trkpt><trkpt lat="44.12154285230578" lon="10.099662825287636"><ele>908.0</ele><time>2026-05-02T14:15:23.999Z</time></trkpt><trkpt lat="44.121655527463496" lon="10.099551303013511"><ele>905.0</ele><time>2026-05-02T14:15:24.999Z</time></trkpt><trkpt lat="44.12174357774949" lon="10.09938902096288"><ele>902.0</ele><time>2026-05-02T14:15:25.999Z</time></trkpt><trkpt lat="44.12182942796702" lon="10.099222788594911"><ele>899.0</ele><time>2026-05-02T14:15:26.999Z</time></trkpt><trkpt lat="44.12193372747847" lon="10.099079866606969"><ele>889.5</ele><time>2026-05-02T14:15:27.999Z</time></trkpt><trkpt lat="44.12203606559669" lon="10.098939566792124"><ele>880.0</ele><time>2026-05-02T14:15:28.999Z</time></trkpt><trkpt lat="44.12213989025414" lon="10.098809889959274"><ele>870.5</ele><time>2026-05-02T14:15:29.999Z</time></trkpt><trkpt lat="44.12223444606944" lon="10.098688257696576"><ele>861.0</ele><time>2026-05-02T14:15:30.999Z</time></trkpt><trkpt lat="44.12233379206554" lon="10.098580435388055"><ele>868.25</ele><time>2026-05-02T14:15:31.999Z</time></trkpt><trkpt lat="44.12243812550925" lon="10.098497636011713"><ele>875.5</ele><time>2026-05-02T14:15:32.999Z</time></trkpt><trkpt lat="44.12254720123512" lon="10.09842511173793"><ele>882.75</ele><time>2026-05-02T14:15:33.999Z</time></trkpt><trkpt lat="44.12264552929589" lon="10.098341990828363"><ele>890.0</ele><time>2026-05-02T14:15:34.999Z</time></trkpt><trkpt lat="44.122738807381936" lon="10.098289986607991"><ele>890.0</ele><time>2026-05-02T14:15:35.999Z</time></trkpt><trkpt lat="44.12283293269343" lon="10.098281393330117"><ele>890.0</ele><time>2026-05-02T14:15:36.999Z</time></trkpt><trkpt lat="44.122923456624946" lon="10.098323010823737"><ele>890.0</ele><time>2026-05-02T14:15:37.999Z</time></trkpt><trkpt lat="44.12301426137009" lon="10.098403777884748"><ele>890.0</ele><time>2026-05-02T14:15:38.999Z</time></trkpt><trkpt lat="44.123111399737866" lon="10.098444092956399"><ele>890.0</ele><time>2026-05-02T14:15:39.999Z</time></trkpt><trkpt lat="44.12322534298752" lon="10.098475665514876"><ele>890.5</ele><time>2026-05-02T14:15:40.999Z</time></trkpt><trkpt lat="44.12335112163475" lon="10.098489532837885"><ele>891.0</ele><time>2026-05-02T14:15:41.998Z</time></trkpt><trkpt lat="44.123468465153216" lon="10.09846863856197"><ele>891.5</ele><time>2026-05-02T14:15:42.998Z</time></trkpt><trkpt lat="44.12358685473195" lon="10.09844339872811"><ele>892.0</ele><time>2026-05-02T14:15:43.998Z</time></trkpt><trkpt lat="44.12368384042702" lon="10.098415942838175"><ele>892.0</ele><time>2026-05-02T14:15:44.998Z</time></trkpt><trkpt lat="44.12376742083879" lon="10.09835020490801"><ele>892.0</ele><time>2026-05-02T14:15:45.998Z</time></trkpt><trkpt lat="44.12383372794034" lon="10.09823465192652"><ele>892.0</ele><time>2026-05-02T14:15:46.998Z</time></trkpt><trkpt lat="44.12389352411898" lon="10.09810186612864"><ele>892.0</ele><time>2026-05-02T14:15:47.998Z</time></trkpt><trkpt lat="44.12396347166715" lon="10.097974248802341"><ele>892.0</ele><time>2026-05-02T14:15:48.998Z</time></trkpt><trkpt lat="44.12405147025895" lon="10.097855401457172"><ele>891.5</ele><time>2026-05-02T14:15:50Z</time></trkpt><trkpt lat="44.12416018169707" lon="10.09780081063339"><ele>891.0</ele><time>2026-05-02T14:15:51Z</time></trkpt><trkpt lat="44.124271521575814" lon="10.097754578301025"><ele>890.5</ele><time>2026-05-02T14:15:52Z</time></trkpt><trkpt lat="44.124391932897076" lon="10.097742022418911"><ele>890.0</ele><time>2026-05-02T14:15:53Z</time></trkpt><trkpt lat="44.12451075272575" lon="10.097724237513814"><ele>890.0</ele><time>2026-05-02T14:15:54Z</time></trkpt><trkpt lat="44.12461877942777" lon="10.09768946940852"><ele>890.0</ele><time>2026-05-02T14:15:55Z</time></trkpt><trkpt lat="44.12471866974857" lon="10.097619770110832"><ele>890.0</ele><time>2026-05-02T14:15:56Z</time></trkpt><trkpt lat="44.12480585967675" lon="10.097516697199316"><ele>890.0</ele><time>2026-05-02T14:15:57Z</time></trkpt><trkpt lat="44.12489121614185" lon="10.097387723680283"><ele>896.0</ele><time>2026-05-02T14:15:58Z</time></trkpt><trkpt lat="44.12498050056778" lon="10.097262050760083"><ele>902.0</ele><time>2026-05-02T14:15:59Z</time></trkpt><trkpt lat="44.12508017617436" lon="10.097138224592026"><ele>908.0</ele><time>2026-05-02T14:16:00Z</time></trkpt><trkpt lat="44.12517822445625" lon="10.097008424127958"><ele>914.0</ele><time>2026-05-02T14:16:01Z</time></trkpt><trkpt lat="44.125275660330324" lon="10.096882004148314"><ele>914.0</ele><time>2026-05-02T14:16:02Z</time></trkpt><trkpt lat="44.12537040057357" lon="10.09677745831915"><ele>914.0</ele><time>2026-05-02T14:16:03Z</time></trkpt><trkpt lat="44.12547731407037" lon="10.096687808553956"><ele>914.0</ele><time>2026-05-02T14:16:04Z</time></trkpt><trkpt lat="44.125594817072106" lon="10.096625411023595"><ele>914.0</ele><time>2026-05-02T14:16:05Z</time></trkpt><trkpt lat="44.12571047541671" lon="10.09657329973078"><ele>910.4000000000001</ele><time>2026-05-02T14:16:06Z</time></trkpt><trkpt lat="44.12583203604179" lon="10.096548977977944"><ele>906.8000000000001</ele><time>2026-05-02T14:16:07Z</time></trkpt><trkpt lat="44.125922667854844" lon="10.096520620028084"><ele>903.1999999999999</ele><time>2026-05-02T14:16:08Z</time></trkpt><trkpt lat="44.12602048675248" lon="10.09656894517805"><ele>899.5999999999999</ele><time>2026-05-02T14:16:09Z</time></trkpt><trkpt lat="44.12610298297234" lon="10.09667626873831"><ele>896.0</ele><time>2026-05-02T14:16:10Z</time></trkpt><trkpt lat="44.126187567875114" lon="10.09677928784149"><ele>893.5</ele><time>2026-05-02T14:16:11Z</time></trkpt><trkpt lat="44.12626908189511" lon="10.096899665630302"><ele>891.0</ele><time>2026-05-02T14:16:12Z</time></trkpt><trkpt lat="44.126383633764725" lon="10.096956050004684"><ele>888.5</ele><time>2026-05-02T14:16:12.999Z</time></trkpt><trkpt lat="44.12650410492727" lon="10.096976923429699"><ele>886.0</ele><time>2026-05-02T14:16:13.999Z</time></trkpt><trkpt lat="44.126623023703104" lon="10.096966419127506"><ele>885.75</ele><time>2026-05-02T14:16:14.999Z</time></trkpt><trkpt lat="44.12673534903822" lon="10.096938813805876"><ele>885.5</ele><time>2026-05-02T14:16:15.999Z</time></trkpt><trkpt lat="44.12684806032652" lon="10.09686361223679"><ele>885.25</ele><time>2026-05-02T14:16:16.999Z</time></trkpt><trkpt lat="44.12697489669174" lon="10.096803430215001"><ele>885.0</ele><time>2026-05-02T14:16:17.999Z</time></trkpt><trkpt lat="44.12709959556168" lon="10.096809746165551"><ele>885.0</ele><time>2026-05-02T14:16:18.999Z</time></trkpt><trkpt lat="44.12722516576651" lon="10.096802301254797"><ele>885.0</ele><time>2026-05-02T14:16:19.999Z</time></trkpt><trkpt lat="44.12736167982151" lon="10.096856752858349"><ele>885.0</ele><time>2026-05-02T14:16:20.999Z</time></trkpt><trkpt lat="44.12750787614975" lon="10.096880060326688"><ele>885.0</ele><time>2026-05-02T14:16:21.999Z</time></trkpt><trkpt lat="44.1276406060855" lon="10.096907533677685"><ele>883.0</ele><time>2026-05-02T14:16:22.999Z</time></trkpt><trkpt lat="44.12777128633326" lon="10.096904313047144"><ele>881.0</ele><time>2026-05-02T14:16:23.999Z</time></trkpt><trkpt lat="44.127890878722695" lon="10.096870523151596"><ele>879.0</ele><time>2026-05-02T14:16:24.999Z</time></trkpt><trkpt lat="44.12799290422892" lon="10.096836298021216"><ele>877.0</ele><time>2026-05-02T14:16:25.999Z</time></trkpt><trkpt lat="44.12806207428226" lon="10.096793045946722"><ele>875.0</ele><time>2026-05-02T14:16:26.999Z</time></trkpt><trkpt lat="44.12810402840594" lon="10.096715603922304"><ele>875.0</ele><time>2026-05-02T14:16:27.999Z</time></trkpt><trkpt lat="44.12812983535784" lon="10.096617210287372"><ele>875.0</ele><time>2026-05-02T14:16:28.999Z</time></trkpt><trkpt lat="44.12809225862777" lon="10.096495997501085"><ele>875.0</ele><time>2026-05-02T14:16:29.999Z</time></trkpt><trkpt lat="44.12802925754065" lon="10.096384075520742"><ele>875.0</ele><time>2026-05-02T14:16:30.999Z</time></trkpt><trkpt lat="44.12796285860875" lon="10.096259337803728"><ele>875.0</ele><time>2026-05-02T14:16:31.999Z</time></trkpt><trkpt lat="44.127896028335485" lon="10.096128992739605"><ele>874.0</ele><time>2026-05-02T14:16:32.999Z</time></trkpt><trkpt lat="44.12782485958013" lon="10.095984554690116"><ele>873.0</ele><time>2026-05-02T14:16:33.999Z</time></trkpt><trkpt lat="44.12776247083726" lon="10.095855056280532"><ele>872.0</ele><time>2026-05-02T14:16:34.999Z</time></trkpt><trkpt lat="44.127714166529586" lon="10.095734669871762"><ele>871.0</ele><time>2026-05-02T14:16:35.999Z</time></trkpt><trkpt lat="44.127691302147284" lon="10.095619561411056"><ele>870.0</ele><time>2026-05-02T14:16:36.999Z</time></trkpt><trkpt lat="44.12771218644867" lon="10.095493983785346"><ele>865.8333333333334</ele><time>2026-05-02T14:16:37.999Z</time></trkpt><trkpt lat="44.12776455567799" lon="10.095384586064757"><ele>861.6666666666667</ele><time>2026-05-02T14:16:38.999Z</time></trkpt><trkpt lat="44.12782813358339" lon="10.095283314651171"><ele>857.5</ele><time>2026-05-02T14:16:39.999Z</time></trkpt><trkpt lat="44.12787214985675" lon="10.095188871863893"><ele>853.3333333333334</ele><time>2026-05-02T14:16:40.999Z</time></trkpt><trkpt lat="44.12790806455056" lon="10.095106248655526"><ele>849.1666666666667</ele><time>2026-05-02T14:16:41.999Z</time></trkpt><trkpt lat="44.12789598394421" lon="10.095001291676517"><ele>845.0</ele><time>2026-05-02T14:16:42.999Z</time></trkpt><trkpt lat="44.12783526492344" lon="10.094918563927301"><ele>845.0</ele><time>2026-05-02T14:16:43.999Z</time></trkpt><trkpt lat="44.127734899846516" lon="10.09491828902911"><ele>845.0</ele><time>2026-05-02T14:16:44.999Z</time></trkpt><trkpt lat="44.127661390487525" lon="10.094987510629222"><ele>845.0</ele><time>2026-05-02T14:16:45.999Z</time></trkpt><trkpt lat="44.12763333515223" lon="10.095115818563556"><ele>845.0</ele><time>2026-05-02T14:16:46.999Z</time></trkpt><trkpt lat="44.12757505536931" lon="10.095227287512612"><ele>845.0</ele><time>2026-05-02T14:16:47.999Z</time></trkpt><trkpt lat="44.12747571391068" lon="10.095318097514603"><ele>842.25</ele><time>2026-05-02T14:16:48.999Z</time></trkpt><trkpt lat="44.12738398193135" lon="10.095444331051729"><ele>839.5</ele><time>2026-05-02T14:16:49.999Z</time></trkpt><trkpt lat="44.12727822004844" lon="10.095549937789917"><ele>836.75</ele><time>2026-05-02T14:16:50.999Z</time></trkpt><trkpt lat="44.127163657881425" lon="10.095626433567256"><ele>834.0</ele><time>2026-05-02T14:16:51.999Z</time></trkpt><trkpt lat="44.12704804703256" lon="10.095675249380108"><ele>834.0</ele><time>2026-05-02T14:16:52.999Z</time></trkpt><trkpt lat="44.12693592842948" lon="10.09571296259185"><ele>834.0</ele><time>2026-05-02T14:16:53.999Z</time></trkpt><trkpt lat="44.126828169182595" lon="10.095729029706026"><ele>834.0</ele><time>2026-05-02T14:16:54.999Z</time></trkpt><trkpt lat="44.12673636085432" lon="10.095712987477723"><ele>834.0</ele><time>2026-05-02T14:16:55.999Z</time></trkpt><trkpt lat="44.12666322574662" lon="10.095618860042947"><ele>834.0</ele><time>2026-05-02T14:16:56.999Z</time></trkpt><trkpt lat="44.126575927711684" lon="10.09552938910291"><ele>845.75</ele><time>2026-05-02T14:16:57.999Z</time></trkpt><trkpt lat="44.126469510861256" lon="10.095446062275192"><ele>857.5</ele><time>2026-05-02T14:16:58.999Z</time></trkpt><trkpt lat="44.12636820578867" lon="10.095342579299137"><ele>869.25</ele><time>2026-05-02T14:16:59.999Z</time></trkpt><trkpt lat="44.12625102411727" lon="10.095254528906704"><ele>881.0</ele><time>2026-05-02T14:17:00.999Z</time></trkpt><trkpt lat="44.126147852052384" lon="10.095167240547935"><ele>881.0</ele><time>2026-05-02T14:17:01.999Z</time></trkpt><trkpt lat="44.12607088071051" lon="10.095053435771723"><ele>881.0</ele><time>2026-05-02T14:17:02.999Z</time></trkpt><trkpt lat="44.126016632740566" lon="10.09493161989207"><ele>881.0</ele><time>2026-05-02T14:17:03.999Z</time></trkpt><trkpt lat="44.12596973287219" lon="10.094769546526098"><ele>881.0</ele><time>2026-05-02T14:17:04.999Z</time></trkpt><trkpt lat="44.12591630384207" lon="10.094591664038331"><ele>874.25</ele><time>2026-05-02T14:17:05.999Z</time></trkpt><trkpt lat="44.12586257687654" lon="10.09443646415269"><ele>867.5</ele><time>2026-05-02T14:17:06.999Z</time></trkpt><trkpt lat="44.12580529393384" lon="10.094255151307559"><ele>860.75</ele><time>2026-05-02T14:17:07.999Z</time></trkpt><trkpt lat="44.12573313349505" lon="10.09409855852448"><ele>854.0</ele><time>2026-05-02T14:17:08.999Z</time></trkpt><trkpt lat="44.1256346346254" lon="10.093955734460415"><ele>848.25</ele><time>2026-05-02T14:17:09.999Z</time></trkpt><trkpt lat="44.12552345328196" lon="10.093823687103434"><ele>842.5</ele><time>2026-05-02T14:17:10.999Z</time></trkpt><trkpt lat="44.12540127397207" lon="10.09370392471432"><ele>836.75</ele><time>2026-05-02T14:17:11.999Z</time></trkpt><trkpt lat="44.125297567378276" lon="10.093555773123258"><ele>831.0</ele><time>2026-05-02T14:17:12.999Z</time></trkpt><trkpt lat="44.12520640893043" lon="10.093384565255343"><ele>828.0</ele><time>2026-05-02T14:17:13.999Z</time></trkpt><trkpt lat="44.12510452198333" lon="10.093235604881674"><ele>825.0</ele><time>2026-05-02T14:17:14.999Z</time></trkpt><trkpt lat="44.12503093636495" lon="10.09306766587525"><ele>822.0</ele><time>2026-05-02T14:17:15.999Z</time></trkpt><trkpt lat="44.12496772957763" lon="10.09288904401382"><ele>819.0</ele><time>2026-05-02T14:17:16.999Z</time></trkpt><trkpt lat="44.1249200506842" lon="10.092699172607402"><ele>813.0</ele><time>2026-05-02T14:17:17.999Z</time></trkpt><trkpt lat="44.124880975414925" lon="10.092525277584093"><ele>807.0</ele><time>2026-05-02T14:17:18.999Z</time></trkpt><trkpt lat="44.1248471028059" lon="10.092373084751065"><ele>801.0</ele><time>2026-05-02T14:17:19.999Z</time></trkpt><trkpt lat="44.12483188239773" lon="10.092225314852772"><ele>795.0</ele><time>2026-05-02T14:17:20.999Z</time></trkpt><trkpt lat="44.12486399985127" lon="10.092074934563614"><ele>795.25</ele><time>2026-05-02T14:17:21.999Z</time></trkpt><trkpt lat="44.12492599816255" lon="10.09192053865778"><ele>795.5</ele><time>2026-05-02T14:17:22.999Z</time></trkpt><trkpt lat="44.12498515030766" lon="10.091758151437025"><ele>795.75</ele><time>2026-05-02T14:17:23.999Z</time></trkpt><trkpt lat="44.1250304390809" lon="10.091614210430228"><ele>796.0</ele><time>2026-05-02T14:17:24.999Z</time></trkpt><trkpt lat="44.12507506975097" lon="10.091506768873371"><ele>796.0</ele><time>2026-05-02T14:17:25.999Z</time></trkpt><trkpt lat="44.125094408775155" lon="10.091406503658778"><ele>796.0</ele><time>2026-05-02T14:17:26.999Z</time></trkpt><trkpt lat="44.12508268425308" lon="10.091308549177032"><ele>796.0</ele><time>2026-05-02T14:17:27.999Z</time></trkpt><trkpt lat="44.12505170464661" lon="10.0912247145792"><ele>796.0</ele><time>2026-05-02T14:17:28.999Z</time></trkpt><trkpt lat="44.12486108154256" lon="10.091208947960741"><ele>796.0</ele><time>2026-05-02T14:17:30.999Z</time></trkpt><trkpt lat="44.124768652951126" lon="10.09113347649084"><ele>797.75</ele><time>2026-05-02T14:17:31.999Z</time></trkpt><trkpt lat="44.12467134064508" lon="10.091027828805855"><ele>799.5</ele><time>2026-05-02T14:17:32.999Z</time></trkpt><trkpt lat="44.12454244361253" lon="10.090911398010295"><ele>801.25</ele><time>2026-05-02T14:17:33.999Z</time></trkpt><trkpt lat="44.12442386436741" lon="10.090788565618526"><ele>803.0</ele><time>2026-05-02T14:17:34.999Z</time></trkpt><trkpt lat="44.12429476888121" lon="10.090659766339824"><ele>804.0</ele><time>2026-05-02T14:17:35.999Z</time></trkpt><trkpt lat="44.12417107885811" lon="10.090528771275704"><ele>805.0</ele><time>2026-05-02T14:17:36.999Z</time></trkpt><trkpt lat="44.124074011174834" lon="10.090370320147336"><ele>806.0</ele><time>2026-05-02T14:17:37.999Z</time></trkpt><trkpt lat="44.123985393068885" lon="10.090220358460671"><ele>807.0</ele><time>2026-05-02T14:17:38.999Z</time></trkpt><trkpt lat="44.12392865664127" lon="10.090067973186862"><ele>802.5</ele><time>2026-05-02T14:17:39.999Z</time></trkpt><trkpt lat="44.12389128667049" lon="10.089910444195274"><ele>798.0</ele><time>2026-05-02T14:17:40.999Z</time></trkpt><trkpt lat="44.123864039389154" lon="10.089735039427872"><ele>793.5</ele><time>2026-05-02T14:17:41.999Z</time></trkpt><trkpt lat="44.12383882008678" lon="10.089536741484975"><ele>789.0</ele><time>2026-05-02T14:17:42.999Z</time></trkpt><trkpt lat="44.12381396861451" lon="10.089337945783031"><ele>789.0</ele><time>2026-05-02T14:17:43.999Z</time></trkpt><trkpt lat="44.12378966912192" lon="10.089142433884046"><ele>789.0</ele><time>2026-05-02T14:17:44.999Z</time></trkpt><trkpt lat="44.123758354814214" lon="10.08895060986591"><ele>789.0</ele><time>2026-05-02T14:17:45.999Z</time></trkpt><trkpt lat="44.12373992047673" lon="10.088773876100461"><ele>789.0</ele><time>2026-05-02T14:17:46.999Z</time></trkpt><trkpt lat="44.12376224844073" lon="10.088615563403652"><ele>787.0</ele><time>2026-05-02T14:17:47.999Z</time></trkpt><trkpt lat="44.1237941615286" lon="10.08845783831552"><ele>785.0</ele><time>2026-05-02T14:17:48.999Z</time></trkpt><trkpt lat="44.12382463735396" lon="10.088282146886659"><ele>783.0</ele><time>2026-05-02T14:17:49.999Z</time></trkpt><trkpt lat="44.12387259234837" lon="10.088110000059789"><ele>781.0</ele><time>2026-05-02T14:17:50.999Z</time></trkpt><trkpt lat="44.12390985821415" lon="10.087933002791791"><ele>781.0</ele><time>2026-05-02T14:17:51.999Z</time></trkpt><trkpt lat="44.12390701560878" lon="10.087757427630718"><ele>781.0</ele><time>2026-05-02T14:17:52.999Z</time></trkpt><trkpt lat="44.12386383914266" lon="10.087578160723934"><ele>781.0</ele><time>2026-05-02T14:17:53.999Z</time></trkpt><trkpt lat="44.12380437729199" lon="10.087402100088228"><ele>781.0</ele><time>2026-05-02T14:17:54.999Z</time></trkpt><trkpt lat="44.123765226289656" lon="10.087234177396757"><ele>785.0</ele><time>2026-05-02T14:17:56Z</time></trkpt><trkpt lat="44.12373094043103" lon="10.087106212753218"><ele>789.0</ele><time>2026-05-02T14:17:57Z</time></trkpt><trkpt lat="44.12370155919886" lon="10.086979386293143"><ele>793.0</ele><time>2026-05-02T14:17:58Z</time></trkpt><trkpt lat="44.12367982500997" lon="10.0868500547788"><ele>797.0</ele><time>2026-05-02T14:17:59Z</time></trkpt><trkpt lat="44.123696221731066" lon="10.086688156814"><ele>801.0</ele><time>2026-05-02T14:18:00Z</time></trkpt><trkpt lat="44.12370974809132" lon="10.086525891384419"><ele>805.25</ele><time>2026-05-02T14:18:01Z</time></trkpt><trkpt lat="44.12370339963505" lon="10.08633994309512"><ele>809.5</ele><time>2026-05-02T14:18:02Z</time></trkpt><trkpt lat="44.123668047546495" lon="10.086127647941966"><ele>813.75</ele><time>2026-05-02T14:18:03Z</time></trkpt><trkpt lat="44.12361962630425" lon="10.085928655420302"><ele>818.0</ele><time>2026-05-02T14:18:04Z</time></trkpt><trkpt lat="44.12356224059426" lon="10.08577378026235"><ele>822.3333333333334</ele><time>2026-05-02T14:18:05Z</time></trkpt><trkpt lat="44.12351675689838" lon="10.085642140857782"><ele>826.6666666666667</ele><time>2026-05-02T14:18:06Z</time></trkpt><trkpt lat="44.12347492550842" lon="10.085534095221526"><ele>831.0</ele><time>2026-05-02T14:18:07Z</time></trkpt><trkpt lat="44.123421986273" lon="10.085439884569816"><ele>835.3333333333333</ele><time>2026-05-02T14:18:08Z</time></trkpt><trkpt lat="44.12336284939889" lon="10.085357121088474"><ele>839.6666666666666</ele><time>2026-05-02T14:18:09Z</time></trkpt><trkpt lat="44.12329635241228" lon="10.085305736155656"><ele>844.0</ele><time>2026-05-02T14:18:10Z</time></trkpt><trkpt lat="44.1232311407474" lon="10.085249282065035"><ele>847.6</ele><time>2026-05-02T14:18:11Z</time></trkpt><trkpt lat="44.1231749301317" lon="10.085158940271121"><ele>851.2</ele><time>2026-05-02T14:18:12Z</time></trkpt><trkpt lat="44.123106437339295" lon="10.085065012512247"><ele>854.8000000000001</ele><time>2026-05-02T14:18:13Z</time></trkpt><trkpt lat="44.123033103835894" lon="10.084970979353857"><ele>858.4000000000001</ele><time>2026-05-02T14:18:14Z</time></trkpt><trkpt lat="44.12298541636301" lon="10.084847162278596"><ele>862.0</ele><time>2026-05-02T14:18:15Z</time></trkpt><trkpt lat="44.122924292269516" lon="10.084740855960794"><ele>861.9999999999999</ele><time>2026-05-02T14:18:16Z</time></trkpt><trkpt lat="44.12284840746902" lon="10.08465324696459"><ele>862.0</ele><time>2026-05-02T14:18:17Z</time></trkpt><trkpt lat="44.12276907774454" lon="10.08458606769533"><ele>862.0</ele><time>2026-05-02T14:18:18Z</time></trkpt><trkpt lat="44.122676621277456" lon="10.084558486440752"><ele>862.0</ele><time>2026-05-02T14:18:19Z</time></trkpt><trkpt lat="44.122591112733154" lon="10.084563463682272"><ele>861.9999999999999</ele><time>2026-05-02T14:18:20Z</time></trkpt><trkpt lat="44.12251893149748" lon="10.084568485648251"><ele>862.0</ele><time>2026-05-02T14:18:21Z</time></trkpt><trkpt lat="44.122442633155124" lon="10.08457379404248"><ele>857.4000000000001</ele><time>2026-05-02T14:18:22Z</time></trkpt><trkpt lat="44.12236097708217" lon="10.084582729470318"><ele>852.8000000000001</ele><time>2026-05-02T14:18:23Z</time></trkpt><trkpt lat="44.12227116281876" lon="10.084609693158502"><ele>848.2</ele><time>2026-05-02T14:18:24Z</time></trkpt><trkpt lat="44.122175753062" lon="10.084604997618747"><ele>843.6</ele><time>2026-05-02T14:18:25Z</time></trkpt><trkpt lat="44.122083249934846" lon="10.084541715896842"><ele>839.0</ele><time>2026-05-02T14:18:26Z</time></trkpt><trkpt lat="44.12198367689032" lon="10.084477984669686"><ele>839.0</ele><time>2026-05-02T14:18:27Z</time></trkpt><trkpt lat="44.12187965544938" lon="10.08441601306633"><ele>839.0</ele><time>2026-05-02T14:18:28Z</time></trkpt><trkpt lat="44.12176687542443" lon="10.084347302537298"><ele>839.0</ele><time>2026-05-02T14:18:29Z</time></trkpt><trkpt lat="44.12165142118259" lon="10.084286853847065"><ele>839.0</ele><time>2026-05-02T14:18:30Z</time></trkpt><trkpt lat="44.121526803659414" lon="10.084252564911928"><ele>838.5</ele><time>2026-05-02T14:18:31Z</time></trkpt><trkpt lat="44.121400249038075" lon="10.084209474482535"><ele>838.0</ele><time>2026-05-02T14:18:32Z</time></trkpt><trkpt lat="44.121268184679394" lon="10.084176213318242"><ele>837.5</ele><time>2026-05-02T14:18:33Z</time></trkpt><trkpt lat="44.12113564881454" lon="10.084133339363229"><ele>837.0</ele><time>2026-05-02T14:18:34Z</time></trkpt><trkpt lat="44.12101319717999" lon="10.084047261377954"><ele>837.0</ele><time>2026-05-02T14:18:35Z</time></trkpt><trkpt lat="44.12088427945343" lon="10.083976865127344"><ele>837.0</ele><time>2026-05-02T14:18:36Z</time></trkpt><trkpt lat="44.120755820432194" lon="10.083906073451146"><ele>837.0</ele><time>2026-05-02T14:18:37Z</time></trkpt><trkpt lat="44.12062509494982" lon="10.083843288479052"><ele>837.0</ele><time>2026-05-02T14:18:38Z</time></trkpt><trkpt lat="44.120498589461846" lon="10.083783232415675"><ele>831.8</ele><time>2026-05-02T14:18:39Z</time></trkpt><trkpt lat="44.12038553367159" lon="10.083718180046771"><ele>826.6</ele><time>2026-05-02T14:18:40Z</time></trkpt><trkpt lat="44.12029167817186" lon="10.083660869959045"><ele>821.4</ele><time>2026-05-02T14:18:41Z</time></trkpt><trkpt lat="44.12022195959367" lon="10.083600306802474"><ele>816.1999999999999</ele><time>2026-05-02T14:18:42Z</time></trkpt><trkpt lat="44.12017788029601" lon="10.083527377359804"><ele>811.0</ele><time>2026-05-02T14:18:43Z</time></trkpt><trkpt lat="44.120197108178246" lon="10.083372119199504"><ele>811.0</ele><time>2026-05-02T14:18:45Z</time></trkpt><trkpt lat="44.12025751652089" lon="10.083298945811977"><ele>811.0</ele><time>2026-05-02T14:18:46Z</time></trkpt><trkpt lat="44.12033604508466" lon="10.083216980971132"><ele>811.0</ele><time>2026-05-02T14:18:47Z</time></trkpt><trkpt lat="44.12042616532873" lon="10.083110036520702"><ele>811.0</ele><time>2026-05-02T14:18:48Z</time></trkpt><trkpt lat="44.12052693273386" lon="10.082987094300124"><ele>811.0</ele><time>2026-05-02T14:18:49Z</time></trkpt><trkpt lat="44.12062459240284" lon="10.08285986799231"><ele>811.0</ele><time>2026-05-02T14:18:50Z</time></trkpt><trkpt lat="44.120702766239" lon="10.082728058581573"><ele>811.0</ele><time>2026-05-02T14:18:51Z</time></trkpt><trkpt lat="44.1207550804439" lon="10.082581271903557"><ele>811.0</ele><time>2026-05-02T14:18:52Z</time></trkpt><trkpt lat="44.120776241365135" lon="10.082423398003595"><ele>811.0</ele><time>2026-05-02T14:18:52.999Z</time></trkpt><trkpt lat="44.12078724959009" lon="10.082256005902181"><ele>811.0</ele><time>2026-05-02T14:18:53.999Z</time></trkpt><trkpt lat="44.12080665440338" lon="10.082086589326531"><ele>811.0</ele><time>2026-05-02T14:18:54.999Z</time></trkpt><trkpt lat="44.120830447146176" lon="10.081917413161742"><ele>811.0</ele><time>2026-05-02T14:18:55.999Z</time></trkpt><trkpt lat="44.12086049379714" lon="10.081746973232772"><ele>811.0</ele><time>2026-05-02T14:18:56.999Z</time></trkpt><trkpt lat="44.1209099394697" lon="10.081586563652106"><ele>805.25</ele><time>2026-05-02T14:18:57.999Z</time></trkpt><trkpt lat="44.12098132516036" lon="10.081449789737233"><ele>799.5</ele><time>2026-05-02T14:18:58.999Z</time></trkpt><trkpt lat="44.12108622215979" lon="10.081359981041329"><ele>793.75</ele><time>2026-05-02T14:18:59.999Z</time></trkpt><trkpt lat="44.12117238868347" lon="10.08122852335721"><ele>788.0</ele><time>2026-05-02T14:19:00.999Z</time></trkpt><trkpt lat="44.121261286977784" lon="10.08109787650355"><ele>788.0</ele><time>2026-05-02T14:19:01.999Z</time></trkpt><trkpt lat="44.121343747612826" lon="10.080952138234816"><ele>788.0</ele><time>2026-05-02T14:19:02.999Z</time></trkpt><trkpt lat="44.12142414595317" lon="10.080806787865374"><ele>788.0</ele><time>2026-05-02T14:19:03.999Z</time></trkpt><trkpt lat="44.121510069409716" lon="10.080668149587146"><ele>788.0</ele><time>2026-05-02T14:19:04.999Z</time></trkpt><trkpt lat="44.12159603779869" lon="10.080537102309009"><ele>789.4</ele><time>2026-05-02T14:19:05.999Z</time></trkpt><trkpt lat="44.12166290797153" lon="10.080414436721323"><ele>790.8</ele><time>2026-05-02T14:19:06.999Z</time></trkpt><trkpt lat="44.12172076134768" lon="10.080312935054"><ele>792.2</ele><time>2026-05-02T14:19:07.999Z</time></trkpt><trkpt lat="44.12180578989074" lon="10.080248179730683"><ele>793.6</ele><time>2026-05-02T14:19:08.999Z</time></trkpt><trkpt lat="44.121885319082445" lon="10.08017021134392"><ele>795.0</ele><time>2026-05-02T14:19:09.999Z</time></trkpt><trkpt lat="44.12197278268216" lon="10.080101700569644"><ele>795.0</ele><time>2026-05-02T14:19:10.999Z</time></trkpt><trkpt lat="44.122044130514865" lon="10.080009602532792"><ele>795.0</ele><time>2026-05-02T14:19:11.999Z</time></trkpt><trkpt lat="44.12209646067302" lon="10.079872071333625"><ele>795.0</ele><time>2026-05-02T14:19:12.999Z</time></trkpt><trkpt lat="44.12213670158112" lon="10.079716135295255"><ele>795.0</ele><time>2026-05-02T14:19:13.999Z</time></trkpt><trkpt lat="44.12217312117708" lon="10.079549896012356"><ele>789.0</ele><time>2026-05-02T14:19:14.999Z</time></trkpt><trkpt lat="44.12222296007329" lon="10.079378270789535"><ele>783.0</ele><time>2026-05-02T14:19:15.999Z</time></trkpt><trkpt lat="44.122259631042596" lon="10.079181576188418"><ele>777.0</ele><time>2026-05-02T14:19:16.999Z</time></trkpt><trkpt lat="44.12228796272996" lon="10.079009168474862"><ele>771.0</ele><time>2026-05-02T14:19:17.999Z</time></trkpt><trkpt lat="44.122305047686375" lon="10.07884131760286"><ele>771.5</ele><time>2026-05-02T14:19:18.999Z</time></trkpt><trkpt lat="44.12230153094978" lon="10.078679719635167"><ele>772.0</ele><time>2026-05-02T14:19:19.999Z</time></trkpt><trkpt lat="44.12226445224322" lon="10.078530589483822"><ele>772.5</ele><time>2026-05-02T14:19:20.999Z</time></trkpt><trkpt lat="44.1222003451587" lon="10.078402162426974"><ele>773.0</ele><time>2026-05-02T14:19:21.999Z</time></trkpt><trkpt lat="44.12213131017201" lon="10.07825155747424"><ele>773.0</ele><time>2026-05-02T14:19:22.999Z</time></trkpt><trkpt lat="44.122046150022385" lon="10.078115597644889"><ele>773.0</ele><time>2026-05-02T14:19:23.999Z</time></trkpt><trkpt lat="44.12197134124927" lon="10.077996368259639"><ele>773.0</ele><time>2026-05-02T14:19:24.999Z</time></trkpt><trkpt lat="44.12190748490745" lon="10.077883726972287"><ele>773.0</ele><time>2026-05-02T14:19:25.999Z</time></trkpt><trkpt lat="44.121852964650145" lon="10.077771843877931"><ele>773.0</ele><time>2026-05-02T14:19:26.999Z</time></trkpt><trkpt lat="44.121815428708395" lon="10.07765429510903"><ele>773.0</ele><time>2026-05-02T14:19:27.999Z</time></trkpt><trkpt lat="44.12179779488234" lon="10.07750612164239"><ele>773.0</ele><time>2026-05-02T14:19:28.999Z</time></trkpt><trkpt lat="44.1217836401236" lon="10.077347890971543"><ele>773.0</ele><time>2026-05-02T14:19:29.999Z</time></trkpt><trkpt lat="44.12176415800597" lon="10.07717904568983"><ele>773.0</ele><time>2026-05-02T14:19:30.999Z</time></trkpt><trkpt lat="44.121744300466" lon="10.07699189918761"><ele>773.75</ele><time>2026-05-02T14:19:31.999Z</time></trkpt><trkpt lat="44.121707543270354" lon="10.076802224709995"><ele>774.5</ele><time>2026-05-02T14:19:32.999Z</time></trkpt><trkpt lat="44.12166608078762" lon="10.07660165499481"><ele>775.25</ele><time>2026-05-02T14:19:33.999Z</time></trkpt><trkpt lat="44.12163356220095" lon="10.07640588940929"><ele>776.0</ele><time>2026-05-02T14:19:34.999Z</time></trkpt><trkpt lat="44.1215935478961" lon="10.07621982792411"><ele>772.0</ele><time>2026-05-02T14:19:35.999Z</time></trkpt><trkpt lat="44.12154579715857" lon="10.076049023418083"><ele>768.0</ele><time>2026-05-02T14:19:36.999Z</time></trkpt><trkpt lat="44.12148800294077" lon="10.07588739849228"><ele>764.0</ele><time>2026-05-02T14:19:37.999Z</time></trkpt><trkpt lat="44.121406233638254" lon="10.075737047987447"><ele>760.0</ele><time>2026-05-02T14:19:38.999Z</time></trkpt><trkpt lat="44.12130490338229" lon="10.07559831311928"><ele>760.0</ele><time>2026-05-02T14:19:39.999Z</time></trkpt><trkpt lat="44.12121154923784" lon="10.075472710842435"><ele>760.0</ele><time>2026-05-02T14:19:40.999Z</time></trkpt><trkpt lat="44.12110473502044" lon="10.075366432557166"><ele>760.0</ele><time>2026-05-02T14:19:41.999Z</time></trkpt><trkpt lat="44.12100343536212" lon="10.075271223970063"><ele>760.0</ele><time>2026-05-02T14:19:42.999Z</time></trkpt><trkpt lat="44.1209201650958" lon="10.075188683417144"><ele>760.0</ele><time>2026-05-02T14:19:43.999Z</time></trkpt><trkpt lat="44.12085275005133" lon="10.075112734640399"><ele>760.0</ele><time>2026-05-02T14:19:44.999Z</time></trkpt><trkpt lat="44.120818921557" lon="10.07502216221699"><ele>760.0</ele><time>2026-05-02T14:19:45.999Z</time></trkpt><trkpt lat="44.12083016781542" lon="10.074921357732979"><ele>760.0</ele><time>2026-05-02T14:19:46.999Z</time></trkpt><trkpt lat="44.12087661439834" lon="10.074804319596655"><ele>760.0</ele><time>2026-05-02T14:19:47.999Z</time></trkpt><trkpt lat="44.120947251190046" lon="10.074679893188913"><ele>760.0</ele><time>2026-05-02T14:19:48.999Z</time></trkpt><trkpt lat="44.12101844646007" lon="10.074570519959375"><ele>759.6666666666667</ele><time>2026-05-02T14:19:49.999Z</time></trkpt><trkpt lat="44.12106676799206" lon="10.074484624786624"><ele>759.3333333333334</ele><time>2026-05-02T14:19:50.999Z</time></trkpt><trkpt lat="44.12111277770104" lon="10.074408276567505"><ele>759.0</ele><time>2026-05-02T14:19:52.999Z</time></trkpt><trkpt lat="44.1211457258012" lon="10.07431178860414"><ele>758.6666666666666</ele><time>2026-05-02T14:19:56.999Z</time></trkpt><trkpt lat="44.1211788559647" lon="10.074172039798755"><ele>758.3333333333333</ele><time>2026-05-02T14:19:58.999Z</time></trkpt><trkpt lat="44.12116693976842" lon="10.074064972468628"><ele>758.0</ele><time>2026-05-02T14:19:59.999Z</time></trkpt><trkpt lat="44.12114439755696" lon="10.073945528575974"><ele>758.0</ele><time>2026-05-02T14:20:00.999Z</time></trkpt><trkpt lat="44.12112071491235" lon="10.073818220321968"><ele>758.0</ele><time>2026-05-02T14:20:02.001Z</time></trkpt><trkpt lat="44.12109730232935" lon="10.07367910575258"><ele>758.0</ele><time>2026-05-02T14:20:03.001Z</time></trkpt><trkpt lat="44.121072194549036" lon="10.073528097926811"><ele>758.0</ele><time>2026-05-02T14:20:04.001Z</time></trkpt><trkpt lat="44.12104103030195" lon="10.073365469908719"><ele>758.0</ele><time>2026-05-02T14:20:05.001Z</time></trkpt><trkpt lat="44.121008764596546" lon="10.07320040091638"><ele>759.5</ele><time>2026-05-02T14:20:06.001Z</time></trkpt><trkpt lat="44.12097605025021" lon="10.07305437539266"><ele>761.0</ele><time>2026-05-02T14:20:07.001Z</time></trkpt><trkpt lat="44.12095329708577" lon="10.072919536393622"><ele>762.5</ele><time>2026-05-02T14:20:08.001Z</time></trkpt><trkpt lat="44.120934188859636" lon="10.07280398948312"><ele>764.0</ele><time>2026-05-02T14:20:09.001Z</time></trkpt><trkpt lat="44.12091958680371" lon="10.072702268529849"><ele>765.5</ele><time>2026-05-02T14:20:10Z</time></trkpt><trkpt lat="44.120896458595034" lon="10.072617533060969"><ele>767.0</ele><time>2026-05-02T14:20:11Z</time></trkpt><trkpt lat="44.12083811330238" lon="10.072465218681215"><ele>768.6</ele><time>2026-05-02T14:20:13Z</time></trkpt><trkpt lat="44.120763750765136" lon="10.072312939441868"><ele>770.2</ele><time>2026-05-02T14:20:15Z</time></trkpt><trkpt lat="44.12071747040521" lon="10.072224123184307"><ele>771.8</ele><time>2026-05-02T14:20:16Z</time></trkpt><trkpt lat="44.12066786671264" lon="10.07211677633685"><ele>773.4</ele><time>2026-05-02T14:20:17Z</time></trkpt><trkpt lat="44.1206228956161" lon="10.071992114312968"><ele>775.0</ele><time>2026-05-02T14:20:18Z</time></trkpt><trkpt lat="44.12058964025052" lon="10.071848666629295"><ele>766.0</ele><time>2026-05-02T14:20:19Z</time></trkpt><trkpt lat="44.1205713181884" lon="10.071695885875323"><ele>757.0</ele><time>2026-05-02T14:20:20Z</time></trkpt><trkpt lat="44.12055004337811" lon="10.071539499169676"><ele>748.0</ele><time>2026-05-02T14:20:21Z</time></trkpt><trkpt lat="44.12050940555108" lon="10.071374880713101"><ele>739.0</ele><time>2026-05-02T14:20:22Z</time></trkpt><trkpt lat="44.12046530715537" lon="10.071208953165833"><ele>739.0</ele><time>2026-05-02T14:20:23Z</time></trkpt><trkpt lat="44.12040776426962" lon="10.071080619646189"><ele>739.0</ele><time>2026-05-02T14:20:24Z</time></trkpt><trkpt lat="44.120355767661" lon="10.070958925492207"><ele>739.0</ele><time>2026-05-02T14:20:25Z</time></trkpt><trkpt lat="44.120308580544894" lon="10.07082450477164"><ele>739.0</ele><time>2026-05-02T14:20:26Z</time></trkpt><trkpt lat="44.12028602027908" lon="10.070708081332219"><ele>739.0</ele><time>2026-05-02T14:20:27Z</time></trkpt><trkpt lat="44.12026795890883" lon="10.070481529352755"><ele>740.2</ele><time>2026-05-02T14:20:28Z</time></trkpt><trkpt lat="44.120235701294355" lon="10.07031457432848"><ele>741.4000000000001</ele><time>2026-05-02T14:20:29Z</time></trkpt><trkpt lat="44.12022050801274" lon="10.070158150544497"><ele>742.6</ele><time>2026-05-02T14:20:30Z</time></trkpt><trkpt lat="44.1202070760058" lon="10.07003300019751"><ele>743.8</ele><time>2026-05-02T14:20:31Z</time></trkpt><trkpt lat="44.12020210602444" lon="10.069943402871548"><ele>745.0</ele><time>2026-05-02T14:20:32Z</time></trkpt><trkpt lat="44.12021993781603" lon="10.069858131198398"><ele>746.3333333333334</ele><time>2026-05-02T14:20:34Z</time></trkpt><trkpt lat="44.12026380838163" lon="10.06976672270886"><ele>747.6666666666667</ele><time>2026-05-02T14:20:37Z</time></trkpt><trkpt lat="44.120331180212425" lon="10.06971336225193"><ele>749.0</ele><time>2026-05-02T14:20:39Z</time></trkpt><trkpt lat="44.120425020595206" lon="10.069630397486643"><ele>750.3333333333334</ele><time>2026-05-02T14:20:41Z</time></trkpt><trkpt lat="44.120503677067326" lon="10.069596650579008"><ele>751.6666666666666</ele><time>2026-05-02T14:20:42Z</time></trkpt><trkpt lat="44.120578798996114" lon="10.069556606091107"><ele>753.0</ele><time>2026-05-02T14:20:43Z</time></trkpt><trkpt lat="44.120649984639456" lon="10.069491147287026"><ele>753.0</ele><time>2026-05-02T14:20:44Z</time></trkpt><trkpt lat="44.12071257537786" lon="10.069385278987516"><ele>753.0</ele><time>2026-05-02T14:20:45Z</time></trkpt><trkpt lat="44.12076464228557" lon="10.069264152046687"><ele>753.0</ele><time>2026-05-02T14:20:46Z</time></trkpt><trkpt lat="44.12079878789329" lon="10.069131943712039"><ele>753.0</ele><time>2026-05-02T14:20:47Z</time></trkpt><trkpt lat="44.12083253963533" lon="10.069005333900503"><ele>753.0</ele><time>2026-05-02T14:20:48Z</time></trkpt><trkpt lat="44.120898987073595" lon="10.068908400049807"><ele>749.5999999999999</ele><time>2026-05-02T14:20:49Z</time></trkpt><trkpt lat="44.12098513306685" lon="10.068823418847803"><ele>746.1999999999999</ele><time>2026-05-02T14:20:50Z</time></trkpt><trkpt lat="44.12107655187776" lon="10.068741889188795"><ele>742.8</ele><time>2026-05-02T14:20:51Z</time></trkpt><trkpt lat="44.121176594829215" lon="10.068663447562152"><ele>739.4</ele><time>2026-05-02T14:20:52Z</time></trkpt><trkpt lat="44.121275649415566" lon="10.068571473864731"><ele>736.0</ele><time>2026-05-02T14:20:53Z</time></trkpt><trkpt lat="44.1213706120009" lon="10.06846297979575"><ele>736.0</ele><time>2026-05-02T14:20:54Z</time></trkpt><trkpt lat="44.12145260483923" lon="10.068344729361609"><ele>736.0</ele><time>2026-05-02T14:20:55Z</time></trkpt><trkpt lat="44.12155351254189" lon="10.068259598549353"><ele>736.0</ele><time>2026-05-02T14:20:56Z</time></trkpt><trkpt lat="44.12165344664547" lon="10.068185248113705"><ele>736.0</ele><time>2026-05-02T14:20:57Z</time></trkpt><trkpt lat="44.12174439802321" lon="10.068088788671911"><ele>735.75</ele><time>2026-05-02T14:20:58Z</time></trkpt><trkpt lat="44.12182439894245" lon="10.067965112356966"><ele>735.5</ele><time>2026-05-02T14:20:59Z</time></trkpt><trkpt lat="44.121895224233526" lon="10.067817801126576"><ele>735.25</ele><time>2026-05-02T14:21:00Z</time></trkpt><trkpt lat="44.12197663855712" lon="10.067656498034076"><ele>735.0</ele><time>2026-05-02T14:21:01Z</time></trkpt><trkpt lat="44.12206344358013" lon="10.067489678342072"><ele>728.5</ele><time>2026-05-02T14:21:02Z</time></trkpt><trkpt lat="44.12214610332895" lon="10.067323021823107"><ele>722.0</ele><time>2026-05-02T14:21:03Z</time></trkpt><trkpt lat="44.12222361719702" lon="10.067160880118688"><ele>715.5</ele><time>2026-05-02T14:21:04Z</time></trkpt><trkpt lat="44.12229670153817" lon="10.067002859535979"><ele>709.0</ele><time>2026-05-02T14:21:05Z</time></trkpt><trkpt lat="44.12238229298344" lon="10.066860645803557"><ele>712.75</ele><time>2026-05-02T14:21:06Z</time></trkpt><trkpt lat="44.12244364740184" lon="10.066699914784593"><ele>716.5</ele><time>2026-05-02T14:21:07Z</time></trkpt><trkpt lat="44.12247977776328" lon="10.066537466976232"><ele>720.25</ele><time>2026-05-02T14:21:08Z</time></trkpt><trkpt lat="44.12250033990392" lon="10.06639648485315"><ele>724.0</ele><time>2026-05-02T14:21:09Z</time></trkpt><trkpt lat="44.122519838532824" lon="10.066267351847868"><ele>724.0</ele><time>2026-05-02T14:21:10Z</time></trkpt><trkpt lat="44.12252861607783" lon="10.06614878993549"><ele>724.0</ele><time>2026-05-02T14:21:11Z</time></trkpt><trkpt lat="44.12257711290904" lon="10.06604000145013"><ele>724.0</ele><time>2026-05-02T14:21:12Z</time></trkpt><trkpt lat="44.12264517443425" lon="10.065952262008855"><ele>724.0</ele><time>2026-05-02T14:21:13Z</time></trkpt><trkpt lat="44.12272419218851" lon="10.065890936964914"><ele>724.0</ele><time>2026-05-02T14:21:14Z</time></trkpt><trkpt lat="44.12279978760835" lon="10.065819366382895"><ele>726.8333333333334</ele><time>2026-05-02T14:21:15Z</time></trkpt><trkpt lat="44.12288460790722" lon="10.06576169201751"><ele>729.6666666666667</ele><time>2026-05-02T14:21:16Z</time></trkpt><trkpt lat="44.12297861912487" lon="10.065733187490116"><ele>732.5</ele><time>2026-05-02T14:21:17Z</time></trkpt><trkpt lat="44.123069109177145" lon="10.065721522161097"><ele>735.3333333333334</ele><time>2026-05-02T14:21:18Z</time></trkpt><trkpt lat="44.123150442478654" lon="10.065698096723903"><ele>738.1666666666666</ele><time>2026-05-02T14:21:19Z</time></trkpt><trkpt lat="44.12322367256755" lon="10.065658150466813"><ele>741.0</ele><time>2026-05-02T14:21:20Z</time></trkpt><trkpt lat="44.12327948498411" lon="10.06554396041532"><ele>741.0</ele><time>2026-05-02T14:21:21Z</time></trkpt><trkpt lat="44.123280558406314" lon="10.065396631042619"><ele>741.0</ele><time>2026-05-02T14:21:22Z</time></trkpt><trkpt lat="44.123263744617766" lon="10.065257056951454"><ele>741.0</ele><time>2026-05-02T14:21:23Z</time></trkpt><trkpt lat="44.123239787475775" lon="10.06511280951205"><ele>741.0</ele><time>2026-05-02T14:21:24Z</time></trkpt><trkpt lat="44.12321210322126" lon="10.064953121738029"><ele>741.0</ele><time>2026-05-02T14:21:24.999Z</time></trkpt><trkpt lat="44.123177792519904" lon="10.064787203127638"><ele>728.5</ele><time>2026-05-02T14:21:25.999Z</time></trkpt><trkpt lat="44.12313944885916" lon="10.06461539244177"><ele>716.0</ele><time>2026-05-02T14:21:26.999Z</time></trkpt><trkpt lat="44.12309790037077" lon="10.06444305241976"><ele>703.5</ele><time>2026-05-02T14:21:27.999Z</time></trkpt><trkpt lat="44.123047170492534" lon="10.064282624723626"><ele>691.0</ele><time>2026-05-02T14:21:28.999Z</time></trkpt><trkpt lat="44.12298238099353" lon="10.064136225180071"><ele>693.0</ele><time>2026-05-02T14:21:29.999Z</time></trkpt><trkpt lat="44.12291429204808" lon="10.064006577258663"><ele>695.0</ele><time>2026-05-02T14:21:30.999Z</time></trkpt><trkpt lat="44.12283539772938" lon="10.063899712808116"><ele>697.0</ele><time>2026-05-02T14:21:31.999Z</time></trkpt><trkpt lat="44.122778888111206" lon="10.063778536041601"><ele>699.0</ele><time>2026-05-02T14:21:32.999Z</time></trkpt><trkpt lat="44.12273573395094" lon="10.063650042841868"><ele>701.0</ele><time>2026-05-02T14:21:33.999Z</time></trkpt><trkpt lat="44.12271104076639" lon="10.063513013773878"><ele>701.0</ele><time>2026-05-02T14:21:34.999Z</time></trkpt><trkpt lat="44.122706205674525" lon="10.063367652065878"><ele>701.0</ele><time>2026-05-02T14:21:35.999Z</time></trkpt><trkpt lat="44.12270053374754" lon="10.06321302800079"><ele>701.0</ele><time>2026-05-02T14:21:36.999Z</time></trkpt><trkpt lat="44.12268437604703" lon="10.063050047282479"><ele>701.0</ele><time>2026-05-02T14:21:37.999Z</time></trkpt><trkpt lat="44.12266305548937" lon="10.062891041762237"><ele>700.8</ele><time>2026-05-02T14:21:38.999Z</time></trkpt><trkpt lat="44.1226332390824" lon="10.06273997688572"><ele>700.5999999999999</ele><time>2026-05-02T14:21:39.999Z</time></trkpt><trkpt lat="44.12259157212202" lon="10.062608966856535"><ele>700.4</ele><time>2026-05-02T14:21:40.999Z</time></trkpt><trkpt lat="44.1225521583296" lon="10.062486941852653"><ele>700.2</ele><time>2026-05-02T14:21:41.999Z</time></trkpt><trkpt lat="44.122485057654075" lon="10.062388937729352"><ele>700.0</ele><time>2026-05-02T14:21:42.999Z</time></trkpt><trkpt lat="44.12239513007444" lon="10.062329273171114"><ele>700.0</ele><time>2026-05-02T14:21:43.999Z</time></trkpt><trkpt lat="44.12230010483892" lon="10.062289356060866"><ele>700.0</ele><time>2026-05-02T14:21:44.999Z</time></trkpt><trkpt lat="44.12220851470876" lon="10.062258842052273"><ele>700.0</ele><time>2026-05-02T14:21:45.999Z</time></trkpt><trkpt lat="44.122115463093145" lon="10.06222716264307"><ele>700.0</ele><time>2026-05-02T14:21:46.999Z</time></trkpt><trkpt lat="44.122018694332226" lon="10.062195261912063"><ele>700.0</ele><time>2026-05-02T14:21:47.999Z</time></trkpt><trkpt lat="44.121923198373096" lon="10.062165725906928"><ele>700.0</ele><time>2026-05-02T14:21:48.999Z</time></trkpt><trkpt lat="44.121829420495416" lon="10.062132333387948"><ele>700.0</ele><time>2026-05-02T14:21:49.999Z</time></trkpt><trkpt lat="44.121748671212494" lon="10.06209905848156"><ele>700.0</ele><time>2026-05-02T14:21:50.999Z</time></trkpt><trkpt lat="44.121677327587506" lon="10.062062935995487"><ele>700.0</ele><time>2026-05-02T14:21:51.999Z</time></trkpt><trkpt lat="44.121621881913384" lon="10.061985604973847"><ele>700.0</ele><time>2026-05-02T14:21:52.999Z</time></trkpt><trkpt lat="44.12158879259863" lon="10.061884841046343"><ele>700.0</ele><time>2026-05-02T14:21:53.999Z</time></trkpt><trkpt lat="44.121580065422634" lon="10.061771523903031"><ele>700.0</ele><time>2026-05-02T14:21:54.999Z</time></trkpt><trkpt lat="44.12159162611417" lon="10.061661122409914"><ele>700.0</ele><time>2026-05-02T14:21:55.999Z</time></trkpt><trkpt lat="44.12161249913688" lon="10.061551048816185"><ele>700.0</ele><time>2026-05-02T14:21:56.999Z</time></trkpt><trkpt lat="44.121637062346956" lon="10.061430068697513"><ele>700.0</ele><time>2026-05-02T14:21:57.999Z</time></trkpt><trkpt lat="44.121661524032575" lon="10.061298674712035"><ele>700.0</ele><time>2026-05-02T14:21:58.999Z</time></trkpt><trkpt lat="44.12169220075565" lon="10.061157785385765"><ele>699.25</ele><time>2026-05-02T14:21:59.999Z</time></trkpt><trkpt lat="44.12172757063775" lon="10.061010774415466"><ele>698.5</ele><time>2026-05-02T14:22:00.999Z</time></trkpt><trkpt lat="44.1217695771686" lon="10.060856657301485"><ele>697.75</ele><time>2026-05-02T14:22:01.999Z</time></trkpt><trkpt lat="44.121815439926486" lon="10.060697423551572"><ele>697.0</ele><time>2026-05-02T14:22:02.999Z</time></trkpt><trkpt lat="44.12186383281195" lon="10.060546272323814"><ele>693.75</ele><time>2026-05-02T14:22:03.999Z</time></trkpt><trkpt lat="44.121900111036794" lon="10.060379188648689"><ele>690.5</ele><time>2026-05-02T14:22:04.999Z</time></trkpt><trkpt lat="44.121915362120006" lon="10.060208145903006"><ele>687.25</ele><time>2026-05-02T14:22:05.999Z</time></trkpt><trkpt lat="44.12191884846885" lon="10.060031921965239"><ele>684.0</ele><time>2026-05-02T14:22:07.001Z</time></trkpt><trkpt lat="44.12191222499113" lon="10.059863225999397"><ele>681.75</ele><time>2026-05-02T14:22:08.001Z</time></trkpt><trkpt lat="44.121893040487834" lon="10.0596946706788"><ele>679.5</ele><time>2026-05-02T14:22:09.001Z</time></trkpt><trkpt lat="44.12186325242838" lon="10.059530392608432"><ele>677.25</ele><time>2026-05-02T14:22:10.001Z</time></trkpt><trkpt lat="44.12182755079124" lon="10.059379370353335"><ele>675.0</ele><time>2026-05-02T14:22:11.001Z</time></trkpt><trkpt lat="44.12179370417468" lon="10.05924802010551"><ele>675.0</ele><time>2026-05-02T14:22:12.001Z</time></trkpt><trkpt lat="44.121770309723644" lon="10.059123070044414"><ele>675.0</ele><time>2026-05-02T14:22:13.001Z</time></trkpt><trkpt lat="44.121765436661" lon="10.058994953258543"><ele>675.0</ele><time>2026-05-02T14:22:14.001Z</time></trkpt><trkpt lat="44.12178924991676" lon="10.058866204142818"><ele>675.0</ele><time>2026-05-02T14:22:15.001Z</time></trkpt><trkpt lat="44.121841621330475" lon="10.058735603962075"><ele>675.0</ele><time>2026-05-02T14:22:16.001Z</time></trkpt><trkpt lat="44.12190437672447" lon="10.058608110242654"><ele>671.75</ele><time>2026-05-02T14:22:17.001Z</time></trkpt><trkpt lat="44.121970124897054" lon="10.058474821470986"><ele>668.5</ele><time>2026-05-02T14:22:18.001Z</time></trkpt><trkpt lat="44.12202034893696" lon="10.05832675794118"><ele>665.25</ele><time>2026-05-02T14:22:19.001Z</time></trkpt><trkpt lat="44.12206640978193" lon="10.058168673283424"><ele>662.0</ele><time>2026-05-02T14:22:20.001Z</time></trkpt><trkpt lat="44.12209627518462" lon="10.058003561461362"><ele>656.75</ele><time>2026-05-02T14:22:21.001Z</time></trkpt><trkpt lat="44.12211387393826" lon="10.057837676984503"><ele>651.5</ele><time>2026-05-02T14:22:22Z</time></trkpt><trkpt lat="44.122145328187756" lon="10.05767546324689"><ele>646.25</ele><time>2026-05-02T14:22:23Z</time></trkpt><trkpt lat="44.122173250112766" lon="10.057508312220323"><ele>641.0</ele><time>2026-05-02T14:22:24Z</time></trkpt><trkpt lat="44.12219709464926" lon="10.057350424128703"><ele>639.6666666666666</ele><time>2026-05-02T14:22:25Z</time></trkpt><trkpt lat="44.122222823837255" lon="10.057205396544965"><ele>638.3333333333333</ele><time>2026-05-02T14:22:26Z</time></trkpt><trkpt lat="44.12224602205418" lon="10.057089390542167"><ele>637.0</ele><time>2026-05-02T14:22:27Z</time></trkpt><trkpt lat="44.12225871061894" lon="10.056996706134816"><ele>635.6666666666666</ele><time>2026-05-02T14:22:28Z</time></trkpt><trkpt lat="44.12226503774755" lon="10.056881083567923"><ele>634.3333333333334</ele><time>2026-05-02T14:22:30Z</time></trkpt><trkpt lat="44.122260228224846" lon="10.056792956862255"><ele>633.0</ele><time>2026-05-02T14:26:11.999Z</time></trkpt><trkpt lat="44.122244666673296" lon="10.056679000465097"><ele>633.0</ele><time>2026-05-02T14:26:14.999Z</time></trkpt><trkpt lat="44.12221167969126" lon="10.056505876186167"><ele>633.0</ele><time>2026-05-02T14:26:16.999Z</time></trkpt><trkpt lat="44.12219145051816" lon="10.056404106441782"><ele>633.0</ele><time>2026-05-02T14:26:18Z</time></trkpt><trkpt lat="44.12217045132157" lon="10.056298185878221"><ele>633.0</ele><time>2026-05-02T14:26:19Z</time></trkpt><trkpt lat="44.1221510001995" lon="10.05619391743791"><ele>633.0</ele><time>2026-05-02T14:26:20Z</time></trkpt><trkpt lat="44.122136235293574" lon="10.056085991947233"><ele>633.0</ele><time>2026-05-02T14:26:21Z</time></trkpt><trkpt lat="44.12212724398711" lon="10.055975718152315"><ele>633.0</ele><time>2026-05-02T14:26:22Z</time></trkpt><trkpt lat="44.12212519611932" lon="10.055871247016706"><ele>633.0</ele><time>2026-05-02T14:26:23Z</time></trkpt><trkpt lat="44.122122235647566" lon="10.055769823163843"><ele>633.0</ele><time>2026-05-02T14:26:24Z</time></trkpt><trkpt lat="44.122102945041654" lon="10.055670798349967"><ele>633.0</ele><time>2026-05-02T14:26:25Z</time></trkpt><trkpt lat="44.12204832088938" lon="10.05560184528219"><ele>633.0</ele><time>2026-05-02T14:26:26Z</time></trkpt><trkpt lat="44.12197597816635" lon="10.055608270661285"><ele>633.0</ele><time>2026-05-02T14:26:27Z</time></trkpt><trkpt lat="44.12191980517018" lon="10.05565332957794"><ele>633.0</ele><time>2026-05-02T14:26:28Z</time></trkpt><trkpt lat="44.121888767193504" lon="10.055742791269699"><ele>633.0</ele><time>2026-05-02T14:26:29Z</time></trkpt><trkpt lat="44.121889667125686" lon="10.05584382162892"><ele>633.0</ele><time>2026-05-02T14:26:30Z</time></trkpt><trkpt lat="44.12191898064617" lon="10.055948719753523"><ele>633.0</ele><time>2026-05-02T14:26:31Z</time></trkpt><trkpt lat="44.12194683397373" lon="10.056053535927713"><ele>633.0</ele><time>2026-05-02T14:26:32Z</time></trkpt><trkpt lat="44.12196531891197" lon="10.056165748400623"><ele>633.0</ele><time>2026-05-02T14:26:33Z</time></trkpt><trkpt lat="44.12197920254751" lon="10.056291909424344"><ele>633.0</ele><time>2026-05-02T14:26:34Z</time></trkpt><trkpt lat="44.12198541644801" lon="10.056426380811722"><ele>633.0</ele><time>2026-05-02T14:26:35Z</time></trkpt><trkpt lat="44.121983711527825" lon="10.056565115738351"><ele>633.0</ele><time>2026-05-02T14:26:36Z</time></trkpt><trkpt lat="44.121981563078556" lon="10.05670967140808"><ele>633.0</ele><time>2026-05-02T14:26:37Z</time></trkpt><trkpt lat="44.12196108788056" lon="10.056859078755926"><ele>633.0</ele><time>2026-05-02T14:26:38Z</time></trkpt><trkpt lat="44.121935477801365" lon="10.057011222415799"><ele>633.0</ele><time>2026-05-02T14:26:39Z</time></trkpt><trkpt lat="44.12189911181075" lon="10.057158386450935"><ele>633.0</ele><time>2026-05-02T14:26:40Z</time></trkpt><trkpt lat="44.1218587143802" lon="10.057298735587265"><ele>633.0</ele><time>2026-05-02T14:26:41Z</time></trkpt><trkpt lat="44.12182469476106" lon="10.057433827514954"><ele>633.0</ele><time>2026-05-02T14:26:42Z</time></trkpt><trkpt lat="44.1217796245275" lon="10.057557935388985"><ele>633.0</ele><time>2026-05-02T14:26:43Z</time></trkpt><trkpt lat="44.12173448647966" lon="10.057678076095081"><ele>633.0</ele><time>2026-05-02T14:26:44Z</time></trkpt><trkpt lat="44.121682906691824" lon="10.057800875351871"><ele>634.5999999999999</ele><time>2026-05-02T14:26:45Z</time></trkpt><trkpt lat="44.12163550109755" lon="10.057920532245163"><ele>636.1999999999999</ele><time>2026-05-02T14:26:46Z</time></trkpt><trkpt lat="44.1215918646044" lon="10.058044000893753"><ele>637.8</ele><time>2026-05-02T14:26:47Z</time></trkpt><trkpt lat="44.12154413848325" lon="10.058156060600364"><ele>639.4</ele><time>2026-05-02T14:26:48Z</time></trkpt><trkpt lat="44.121499547187646" lon="10.05826101048188"><ele>641.0</ele><time>2026-05-02T14:26:49Z</time></trkpt><trkpt lat="44.12146284248635" lon="10.058353832707326"><ele>635.8</ele><time>2026-05-02T14:26:50Z</time></trkpt><trkpt lat="44.1214159979025" lon="10.058476056051182"><ele>630.5999999999999</ele><time>2026-05-02T14:26:52Z</time></trkpt><trkpt lat="44.12141480716508" lon="10.0583284256485"><ele>625.4</ele><time>2026-05-02T14:26:56Z</time></trkpt><trkpt lat="44.12145940971319" lon="10.05819904525553"><ele>620.2</ele><time>2026-05-02T14:26:57Z</time></trkpt><trkpt lat="44.121507557404165" lon="10.058063192157947"><ele>615.0</ele><time>2026-05-02T14:26:58Z</time></trkpt><trkpt lat="44.121561544025305" lon="10.057906477679166"><ele>619.5</ele><time>2026-05-02T14:26:59Z</time></trkpt><trkpt lat="44.12161974426804" lon="10.057732215630036"><ele>624.0</ele><time>2026-05-02T14:27:00Z</time></trkpt><trkpt lat="44.121683733187226" lon="10.057540390064917"><ele>628.5</ele><time>2026-05-02T14:27:01Z</time></trkpt><trkpt lat="44.121744322684435" lon="10.057335617707853"><ele>633.0</ele><time>2026-05-02T14:27:02Z</time></trkpt><trkpt lat="44.12179825023319" lon="10.057113679333474"><ele>633.0</ele><time>2026-05-02T14:27:03Z</time></trkpt><trkpt lat="44.121828282586456" lon="10.056887962549837"><ele>633.0</ele><time>2026-05-02T14:27:04Z</time></trkpt><trkpt lat="44.12184504033362" lon="10.056651140572137"><ele>633.0</ele><time>2026-05-02T14:27:05Z</time></trkpt><trkpt lat="44.12182447429456" lon="10.056413446403655"><ele>633.0</ele><time>2026-05-02T14:27:06Z</time></trkpt><trkpt lat="44.121803483446676" lon="10.056183497804586"><ele>633.0</ele><time>2026-05-02T14:27:07Z</time></trkpt><trkpt lat="44.12178634027024" lon="10.055955629711473"><ele>633.0</ele><time>2026-05-02T14:27:08Z</time></trkpt><trkpt lat="44.12176876740561" lon="10.055736121364424"><ele>632.5</ele><time>2026-05-02T14:27:09Z</time></trkpt><trkpt lat="44.121719106852865" lon="10.05553178358612"><ele>632.0</ele><time>2026-05-02T14:27:10Z</time></trkpt><trkpt lat="44.1216800476077" lon="10.055345299928016"><ele>631.5</ele><time>2026-05-02T14:27:11Z</time></trkpt><trkpt lat="44.1216451718571" lon="10.0551811388884"><ele>631.0</ele><time>2026-05-02T14:27:12Z</time></trkpt><trkpt lat="44.121629193320835" lon="10.055022559591045"><ele>630.8333333333334</ele><time>2026-05-02T14:27:13Z</time></trkpt><trkpt lat="44.12162767446169" lon="10.054867313896992"><ele>630.6666666666667</ele><time>2026-05-02T14:27:14Z</time></trkpt><trkpt lat="44.12163225111021" lon="10.05473218878778"><ele>630.5</ele><time>2026-05-02T14:27:15Z</time></trkpt><trkpt lat="44.12164019336026" lon="10.054631051542506"><ele>630.3333333333334</ele><time>2026-05-02T14:27:16Z</time></trkpt><trkpt lat="44.121686100129715" lon="10.054549797013994"><ele>630.1666666666666</ele><time>2026-05-02T14:27:18Z</time></trkpt><trkpt lat="44.12173438606991" lon="10.054645998977925"><ele>630.0</ele><time>2026-05-02T14:27:20Z</time></trkpt><trkpt lat="44.121781799268504" lon="10.054752716965437"><ele>630.0</ele><time>2026-05-02T14:27:21Z</time></trkpt><trkpt lat="44.12183603450593" lon="10.054873980032003"><ele>630.0</ele><time>2026-05-02T14:27:22Z</time></trkpt><trkpt lat="44.12191285784253" lon="10.0550037196658"><ele>630.0</ele><time>2026-05-02T14:27:23Z</time></trkpt><trkpt lat="44.12197697492104" lon="10.055173238477455"><ele>630.0</ele><time>2026-05-02T14:27:24Z</time></trkpt><trkpt lat="44.12204941446654" lon="10.0553443956203"><ele>630.25</ele><time>2026-05-02T14:27:25Z</time></trkpt><trkpt lat="44.1221243018036" lon="10.05551731371536"><ele>630.5</ele><time>2026-05-02T14:27:26Z</time></trkpt><trkpt lat="44.12214209650371" lon="10.055726945698565"><ele>630.75</ele><time>2026-05-02T14:27:27Z</time></trkpt><trkpt lat="44.12218606836787" lon="10.055923069072154"><ele>631.0</ele><time>2026-05-02T14:27:28Z</time></trkpt><trkpt lat="44.122238644736086" lon="10.056136823993297"><ele>631.6666666666667</ele><time>2026-05-02T14:27:29Z</time></trkpt><trkpt lat="44.12230488956952" lon="10.056347395650555"><ele>632.3333333333334</ele><time>2026-05-02T14:27:30Z</time></trkpt><trkpt lat="44.12237191116264" lon="10.05655361753614"><ele>633.0</ele><time>2026-05-02T14:27:31Z</time></trkpt><trkpt lat="44.122451845775366" lon="10.056720483348117"><ele>640.0</ele><time>2026-05-02T14:27:32Z</time></trkpt><trkpt lat="44.12254709802426" lon="10.056837842379402"><ele>647.0</ele><time>2026-05-02T14:27:32.999Z</time></trkpt><trkpt lat="44.12265879281571" lon="10.05693034714748"><ele>654.0</ele><time>2026-05-02T14:27:33.999Z</time></trkpt><trkpt lat="44.12277851090497" lon="10.056998669328634"><ele>661.0</ele><time>2026-05-02T14:27:34.999Z</time></trkpt><trkpt lat="44.12290002779195" lon="10.057057428802658"><ele>661.0</ele><time>2026-05-02T14:27:35.999Z</time></trkpt><trkpt lat="44.12298185411243" lon="10.057150431720515"><ele>661.0</ele><time>2026-05-02T14:27:36.999Z</time></trkpt><trkpt lat="44.12304153320044" lon="10.057234095882503"><ele>661.0</ele><time>2026-05-02T14:27:37.999Z</time></trkpt><trkpt lat="44.123087201749755" lon="10.057322354606725"><ele>661.0</ele><time>2026-05-02T14:27:38.999Z</time></trkpt><trkpt lat="44.123104806777725" lon="10.057424961534455"><ele>661.0</ele><time>2026-05-02T14:27:39.999Z</time></trkpt><trkpt lat="44.12313774587046" lon="10.057569349438342"><ele>659.0</ele><time>2026-05-02T14:27:40.999Z</time></trkpt><trkpt lat="44.123192983128135" lon="10.057749957391893"><ele>657.0</ele><time>2026-05-02T14:27:41.999Z</time></trkpt><trkpt lat="44.12325660453409" lon="10.057934353671492"><ele>655.0</ele><time>2026-05-02T14:27:42.999Z</time></trkpt><trkpt lat="44.12334355808538" lon="10.058112998713408"><ele>653.0</ele><time>2026-05-02T14:27:43.999Z</time></trkpt><trkpt lat="44.123438649201226" lon="10.058271997231246"><ele>657.75</ele><time>2026-05-02T14:27:44.999Z</time></trkpt><trkpt lat="44.12353928437143" lon="10.058403411584276"><ele>662.5</ele><time>2026-05-02T14:27:45.999Z</time></trkpt><trkpt lat="44.12365324568038" lon="10.058497896485967"><ele>667.25</ele><time>2026-05-02T14:27:46.999Z</time></trkpt><trkpt lat="44.12377805695299" lon="10.058553409298232"><ele>672.0</ele><time>2026-05-02T14:27:47.999Z</time></trkpt><trkpt lat="44.12390010814907" lon="10.058605954133213"><ele>672.0</ele><time>2026-05-02T14:27:48.999Z</time></trkpt><trkpt lat="44.124003467911564" lon="10.058641805118004"><ele>672.0</ele><time>2026-05-02T14:27:49.999Z</time></trkpt><trkpt lat="44.12407952324814" lon="10.058708618263301"><ele>672.0</ele><time>2026-05-02T14:27:50.999Z</time></trkpt><trkpt lat="44.12414099504418" lon="10.058812747817917"><ele>672.0</ele><time>2026-05-02T14:27:51.999Z</time></trkpt><trkpt lat="44.12422120122393" lon="10.058929766292778"><ele>672.0</ele><time>2026-05-02T14:27:52.999Z</time></trkpt><trkpt lat="44.12428194165179" lon="10.059078391057435"><ele>670.2</ele><time>2026-05-02T14:27:53.999Z</time></trkpt><trkpt lat="44.124326910431535" lon="10.059244293729844"><ele>668.4000000000001</ele><time>2026-05-02T14:27:54.999Z</time></trkpt><trkpt lat="44.1243819101106" lon="10.05938495627659"><ele>666.5999999999999</ele><time>2026-05-02T14:27:55.999Z</time></trkpt><trkpt lat="44.12445265982734" lon="10.059480631035516"><ele>664.8</ele><time>2026-05-02T14:27:56.999Z</time></trkpt><trkpt lat="44.12450243174109" lon="10.059578662869857"><ele>663.0</ele><time>2026-05-02T14:27:57.999Z</time></trkpt><trkpt lat="44.12458839316324" lon="10.059633128364002"><ele>663.0</ele><time>2026-05-02T14:27:58.999Z</time></trkpt><trkpt lat="44.1246998299926" lon="10.059653457844991"><ele>663.0</ele><time>2026-05-02T14:27:59.999Z</time></trkpt><trkpt lat="44.12482584498866" lon="10.059652459337576"><ele>663.0</ele><time>2026-05-02T14:28:00.999Z</time></trkpt><trkpt lat="44.12495600130501" lon="10.0596140865751"><ele>663.0</ele><time>2026-05-02T14:28:01.999Z</time></trkpt><trkpt lat="44.12507572412811" lon="10.059515421944369"><ele>656.75</ele><time>2026-05-02T14:28:02.999Z</time></trkpt><trkpt lat="44.12520734021369" lon="10.059419570294184"><ele>650.5</ele><time>2026-05-02T14:28:03.999Z</time></trkpt><trkpt lat="44.12533286103096" lon="10.05930150414382"><ele>644.25</ele><time>2026-05-02T14:28:04.999Z</time></trkpt><trkpt lat="44.12545119907834" lon="10.05919170747335"><ele>638.0</ele><time>2026-05-02T14:28:05.999Z</time></trkpt><trkpt lat="44.12555025379506" lon="10.059066099994803"><ele>635.8</ele><time>2026-05-02T14:28:06.999Z</time></trkpt><trkpt lat="44.12562380351944" lon="10.058928886586054"><ele>633.5999999999999</ele><time>2026-05-02T14:28:07.999Z</time></trkpt><trkpt lat="44.12569286527572" lon="10.058819389543956"><ele>631.4000000000001</ele><time>2026-05-02T14:28:08.999Z</time></trkpt><trkpt lat="44.12579392500995" lon="10.0587825927556"><ele>629.2</ele><time>2026-05-02T14:28:09.999Z</time></trkpt><trkpt lat="44.12589378460495" lon="10.058763401395458"><ele>627.0</ele><time>2026-05-02T14:28:10.999Z</time></trkpt><trkpt lat="44.12600792135213" lon="10.058738557587231"><ele>627.0</ele><time>2026-05-02T14:28:11.999Z</time></trkpt><trkpt lat="44.12612907185244" lon="10.058705911252428"><ele>627.0</ele><time>2026-05-02T14:28:12.999Z</time></trkpt><trkpt lat="44.12625364094388" lon="10.058620444718652"><ele>627.0</ele><time>2026-05-02T14:28:13.999Z</time></trkpt><trkpt lat="44.12636779440198" lon="10.058500254020245"><ele>627.0</ele><time>2026-05-02T14:28:14.999Z</time></trkpt><trkpt lat="44.12647269993091" lon="10.058371747533444"><ele>629.0</ele><time>2026-05-02T14:28:15.999Z</time></trkpt><trkpt lat="44.12657047888635" lon="10.058228199286635"><ele>631.0</ele><time>2026-05-02T14:28:16.999Z</time></trkpt><trkpt lat="44.1266472738681" lon="10.05808633556253"><ele>633.0</ele><time>2026-05-02T14:28:17.999Z</time></trkpt><trkpt lat="44.1266935654284" lon="10.057930390183419"><ele>635.0</ele><time>2026-05-02T14:28:18.999Z</time></trkpt><trkpt lat="44.12674713841202" lon="10.057790596298513"><ele>635.0</ele><time>2026-05-02T14:28:19.999Z</time></trkpt><trkpt lat="44.12679049136796" lon="10.057651172906487"><ele>635.0</ele><time>2026-05-02T14:28:20.999Z</time></trkpt><trkpt lat="44.12684162886969" lon="10.057541998520778"><ele>635.0</ele><time>2026-05-02T14:28:21.999Z</time></trkpt><trkpt lat="44.126894858707466" lon="10.057436347815374"><ele>635.0</ele><time>2026-05-02T14:28:22.999Z</time></trkpt><trkpt lat="44.12696675972905" lon="10.05735394974912"><ele>635.0</ele><time>2026-05-02T14:28:24.001Z</time></trkpt><trkpt lat="44.127036044213064" lon="10.057363205447379"><ele>635.0</ele><time>2026-05-02T14:28:25.001Z</time></trkpt><trkpt lat="44.127125047554024" lon="10.057458672389316"><ele>635.0</ele><time>2026-05-02T14:28:27.001Z</time></trkpt><trkpt lat="44.12717037595253" lon="10.057566875934905"><ele>635.0</ele><time>2026-05-02T14:28:28.001Z</time></trkpt><trkpt lat="44.12721808233724" lon="10.057715826234876"><ele>635.0</ele><time>2026-05-02T14:28:29.001Z</time></trkpt><trkpt lat="44.12726923251332" lon="10.057889386958628"><ele>635.0</ele><time>2026-05-02T14:28:30.001Z</time></trkpt><trkpt lat="44.127336858893734" lon="10.058040921731438"><ele>635.0</ele><time>2026-05-02T14:28:31.001Z</time></trkpt><trkpt lat="44.12737779073004" lon="10.058204758658418"><ele>635.0</ele><time>2026-05-02T14:28:32.001Z</time></trkpt><trkpt lat="44.12742230822452" lon="10.05834470902461"><ele>635.0</ele><time>2026-05-02T14:28:33.001Z</time></trkpt><trkpt lat="44.1274707523512" lon="10.058470199023786"><ele>635.0</ele><time>2026-05-02T14:28:34.001Z</time></trkpt><trkpt lat="44.12755121789607" lon="10.058576489426981"><ele>635.0</ele><time>2026-05-02T14:28:35.001Z</time></trkpt><trkpt lat="44.12764417128682" lon="10.058698181600736"><ele>635.0</ele><time>2026-05-02T14:28:36.001Z</time></trkpt><trkpt lat="44.12776656581618" lon="10.058802761503769"><ele>635.0</ele><time>2026-05-02T14:28:37.001Z</time></trkpt><trkpt lat="44.12789565987117" lon="10.058868760215356"><ele>635.0</ele><time>2026-05-02T14:28:38.001Z</time></trkpt><trkpt lat="44.1280156127933" lon="10.058927484569553"><ele>635.0</ele><time>2026-05-02T14:28:39.001Z</time></trkpt><trkpt lat="44.128149151456945" lon="10.05898025634405"><ele>635.0</ele><time>2026-05-02T14:28:40.001Z</time></trkpt><trkpt lat="44.12829076203823" lon="10.059016138930676"><ele>635.0</ele><time>2026-05-02T14:28:41.001Z</time></trkpt><trkpt lat="44.12842897096977" lon="10.05903297043191"><ele>625.75</ele><time>2026-05-02T14:28:42.001Z</time></trkpt><trkpt lat="44.12856186028002" lon="10.059029847552358"><ele>616.5</ele><time>2026-05-02T14:28:43.001Z</time></trkpt><trkpt lat="44.128691816913744" lon="10.059047739790781"><ele>607.25</ele><time>2026-05-02T14:28:44.001Z</time></trkpt><trkpt lat="44.12881553217428" lon="10.059034037958995"><ele>598.0</ele><time>2026-05-02T14:28:45.001Z</time></trkpt><trkpt lat="44.12893634758807" lon="10.059041965092037"><ele>598.0</ele><time>2026-05-02T14:28:46.001Z</time></trkpt><trkpt lat="44.12904756807247" lon="10.059095968348801"><ele>598.0</ele><time>2026-05-02T14:28:47.001Z</time></trkpt><trkpt lat="44.12913096836489" lon="10.059146145999485"><ele>598.0</ele><time>2026-05-02T14:28:48.001Z</time></trkpt><trkpt lat="44.12919718702995" lon="10.05913970096152"><ele>598.0</ele><time>2026-05-02T14:28:49.001Z</time></trkpt><trkpt lat="44.12924977047542" lon="10.059008422397762"><ele>598.0</ele><time>2026-05-02T14:28:51.001Z</time></trkpt><trkpt lat="44.129215445998184" lon="10.058927246993823"><ele>598.0</ele><time>2026-05-02T14:28:52.001Z</time></trkpt><trkpt lat="44.129147166176345" lon="10.058860001546508"><ele>598.0</ele><time>2026-05-02T14:28:53.001Z</time></trkpt><trkpt lat="44.12904673512852" lon="10.058813255356858"><ele>598.0</ele><time>2026-05-02T14:28:54.001Z</time></trkpt><trkpt lat="44.128947383362444" lon="10.058784774066956"><ele>598.0</ele><time>2026-05-02T14:28:55.001Z</time></trkpt><trkpt lat="44.1288619802846" lon="10.058762594993699"><ele>598.0</ele><time>2026-05-02T14:28:56.001Z</time></trkpt><trkpt lat="44.128765171093534" lon="10.058721483959395"><ele>598.0</ele><time>2026-05-02T14:28:58Z</time></trkpt><trkpt lat="44.128806469327145" lon="10.058599876610069"><ele>598.0</ele><time>2026-05-02T14:29:00Z</time></trkpt><trkpt lat="44.12888601615272" lon="10.058609337433536"><ele>598.0</ele><time>2026-05-02T14:29:01Z</time></trkpt><trkpt lat="44.128976516344956" lon="10.058606507950438"><ele>598.0</ele><time>2026-05-02T14:29:02Z</time></trkpt><trkpt lat="44.129079203438984" lon="10.058630083231753"><ele>598.0</ele><time>2026-05-02T14:29:03Z</time></trkpt><trkpt lat="44.129189734479866" lon="10.058621521803579"><ele>598.4</ele><time>2026-05-02T14:29:04Z</time></trkpt><trkpt lat="44.12929503373982" lon="10.05862483449143"><ele>598.8</ele><time>2026-05-02T14:29:05Z</time></trkpt><trkpt lat="44.12939302347012" lon="10.058645101939975"><ele>599.2</ele><time>2026-05-02T14:29:06Z</time></trkpt><trkpt lat="44.12949368424151" lon="10.058668981790193"><ele>599.6</ele><time>2026-05-02T14:29:07Z</time></trkpt><trkpt lat="44.129602500035865" lon="10.058698014890656"><ele>600.0</ele><time>2026-05-02T14:29:08Z</time></trkpt><trkpt lat="44.12970858989017" lon="10.058746454842401"><ele>600.0</ele><time>2026-05-02T14:29:09Z</time></trkpt><trkpt lat="44.12981532268169" lon="10.058784661522557"><ele>600.0</ele><time>2026-05-02T14:29:10Z</time></trkpt><trkpt lat="44.129929573439185" lon="10.058789411058157"><ele>600.0</ele><time>2026-05-02T14:29:11Z</time></trkpt><trkpt lat="44.13003657830205" lon="10.058765276504076"><ele>600.0</ele><time>2026-05-02T14:29:12Z</time></trkpt><trkpt lat="44.1301274850744" lon="10.05876821064675"><ele>600.0</ele><time>2026-05-02T14:29:13Z</time></trkpt><trkpt lat="44.130200563242866" lon="10.058801917088948"><ele>599.8</ele><time>2026-05-02T14:29:14Z</time></trkpt><trkpt lat="44.13022510156256" lon="10.058932409106623"><ele>599.6</ele><time>2026-05-02T14:29:15Z</time></trkpt><trkpt lat="44.130202809481595" lon="10.059064340618118"><ele>599.4</ele><time>2026-05-02T14:29:16Z</time></trkpt><trkpt lat="44.13021761967059" lon="10.059217644260343"><ele>599.2</ele><time>2026-05-02T14:29:17Z</time></trkpt><trkpt lat="44.13020678349294" lon="10.059389658984923"><ele>599.0</ele><time>2026-05-02T14:29:18Z</time></trkpt><trkpt lat="44.13019180877955" lon="10.059574182549037"><ele>599.0</ele><time>2026-05-02T14:29:19Z</time></trkpt><trkpt lat="44.13017228076274" lon="10.059766261964448"><ele>599.0</ele><time>2026-05-02T14:29:20Z</time></trkpt><trkpt lat="44.13014594107114" lon="10.05995093018294"><ele>599.0</ele><time>2026-05-02T14:29:21Z</time></trkpt><trkpt lat="44.13011297105851" lon="10.060134303247855"><ele>599.0</ele><time>2026-05-02T14:29:22Z</time></trkpt><trkpt lat="44.13007459771489" lon="10.060315629357726"><ele>598.75</ele><time>2026-05-02T14:29:23Z</time></trkpt><trkpt lat="44.1300501455319" lon="10.060487665218465"><ele>598.5</ele><time>2026-05-02T14:29:24Z</time></trkpt><trkpt lat="44.130019073931926" lon="10.06065703075766"><ele>598.25</ele><time>2026-05-02T14:29:25Z</time></trkpt><trkpt lat="44.13001639499243" lon="10.060828559645406"><ele>598.0</ele><time>2026-05-02T14:29:26Z</time></trkpt><trkpt lat="44.130002200253024" lon="10.060984560429565"><ele>595.0</ele><time>2026-05-02T14:29:27Z</time></trkpt><trkpt lat="44.12998402473898" lon="10.0611339557389"><ele>592.0</ele><time>2026-05-02T14:29:28Z</time></trkpt><trkpt lat="44.129941656596806" lon="10.061275167936786"><ele>589.0</ele><time>2026-05-02T14:29:29Z</time></trkpt><trkpt lat="44.12986210642575" lon="10.061392416705587"><ele>586.0</ele><time>2026-05-02T14:29:30Z</time></trkpt><trkpt lat="44.12978175351651" lon="10.061516980684424"><ele>591.0</ele><time>2026-05-02T14:29:31Z</time></trkpt><trkpt lat="44.129701480341865" lon="10.061653742827886"><ele>596.0</ele><time>2026-05-02T14:29:32Z</time></trkpt><trkpt lat="44.12964430868628" lon="10.06180422055492"><ele>601.0</ele><time>2026-05-02T14:29:33Z</time></trkpt><trkpt lat="44.129602893997465" lon="10.06196395897588"><ele>606.0</ele><time>2026-05-02T14:29:34Z</time></trkpt><trkpt lat="44.12957170874518" lon="10.062127262646845"><ele>606.0</ele><time>2026-05-02T14:29:35Z</time></trkpt><trkpt lat="44.12954607419867" lon="10.062284504805527"><ele>606.0</ele><time>2026-05-02T14:29:36Z</time></trkpt><trkpt lat="44.129522996858576" lon="10.062441977357594"><ele>606.0</ele><time>2026-05-02T14:29:37Z</time></trkpt><trkpt lat="44.12950265209075" lon="10.062603378251413"><ele>606.0</ele><time>2026-05-02T14:29:38Z</time></trkpt><trkpt lat="44.12950034736658" lon="10.06276725887803"><ele>603.0</ele><time>2026-05-02T14:29:39Z</time></trkpt><trkpt lat="44.12949054830713" lon="10.062920504828053"><ele>600.0</ele><time>2026-05-02T14:29:40Z</time></trkpt><trkpt lat="44.12948372601618" lon="10.063073895000743"><ele>597.0</ele><time>2026-05-02T14:29:41Z</time></trkpt><trkpt lat="44.12948627046412" lon="10.063231013026385"><ele>594.0</ele><time>2026-05-02T14:29:42Z</time></trkpt><trkpt lat="44.12949280915493" lon="10.063385012347073"><ele>591.0</ele><time>2026-05-02T14:29:43Z</time></trkpt><trkpt lat="44.129502737694516" lon="10.063535015022575"><ele>589.6</ele><time>2026-05-02T14:29:44Z</time></trkpt><trkpt lat="44.12951714827251" lon="10.063684236753023"><ele>588.2</ele><time>2026-05-02T14:29:45Z</time></trkpt><trkpt lat="44.12954549549473" lon="10.063827547680162"><ele>586.8</ele><time>2026-05-02T14:29:46Z</time></trkpt><trkpt lat="44.12958304577286" lon="10.063949994091924"><ele>585.4</ele><time>2026-05-02T14:29:47Z</time></trkpt><trkpt lat="44.12961808888012" lon="10.064064237157215"><ele>584.0</ele><time>2026-05-02T14:29:48Z</time></trkpt><trkpt lat="44.12965081418012" lon="10.064172936054153"><ele>582.0</ele><time>2026-05-02T14:29:49Z</time></trkpt><trkpt lat="44.129649294054246" lon="10.064310086581141"><ele>580.0</ele><time>2026-05-02T14:29:50Z</time></trkpt><trkpt lat="44.12957833949616" lon="10.0644410554256"><ele>578.0</ele><time>2026-05-02T14:29:51Z</time></trkpt><trkpt lat="44.12951341485022" lon="10.064556888853025"><ele>576.0</ele><time>2026-05-02T14:29:52Z</time></trkpt><trkpt lat="44.12947328996943" lon="10.064673126226332"><ele>574.0</ele><time>2026-05-02T14:29:53Z</time></trkpt><trkpt lat="44.12947200232988" lon="10.064802490273605"><ele>574.0</ele><time>2026-05-02T14:29:54Z</time></trkpt><trkpt lat="44.129507155483694" lon="10.064928386649031"><ele>574.0</ele><time>2026-05-02T14:29:55Z</time></trkpt><trkpt lat="44.129569474922185" lon="10.065038288717927"><ele>574.0</ele><time>2026-05-02T14:29:56Z</time></trkpt><trkpt lat="44.12964849999813" lon="10.065132962532445"><ele>574.0</ele><time>2026-05-02T14:29:57Z</time></trkpt><trkpt lat="44.12974316303829" lon="10.065218426374674"><ele>574.0</ele><time>2026-05-02T14:29:58Z</time></trkpt><trkpt lat="44.12983991664491" lon="10.065295904491325"><ele>567.0</ele><time>2026-05-02T14:29:59Z</time></trkpt><trkpt lat="44.129932851726544" lon="10.065360812251862"><ele>560.0</ele><time>2026-05-02T14:30:00Z</time></trkpt><trkpt lat="44.13001778683884" lon="10.065419916491818"><ele>553.0</ele><time>2026-05-02T14:30:01Z</time></trkpt><trkpt lat="44.13009497441161" lon="10.065476669003594"><ele>546.0</ele><time>2026-05-02T14:30:02Z</time></trkpt><trkpt lat="44.13015507260205" lon="10.065531802641773"><ele>539.0</ele><time>2026-05-02T14:30:03Z</time></trkpt><trkpt lat="44.130233242091045" lon="10.06565169069126"><ele>537.8</ele><time>2026-05-02T14:30:05Z</time></trkpt><trkpt lat="44.13019171728885" lon="10.065825207236745"><ele>536.5999999999999</ele><time>2026-05-02T14:30:07Z</time></trkpt><trkpt lat="44.13012062190624" lon="10.065864936599503"><ele>535.4</ele><time>2026-05-02T14:30:07.999Z</time></trkpt><trkpt lat="44.13004752159046" lon="10.06589918024478"><ele>534.1999999999999</ele><time>2026-05-02T14:30:08.999Z</time></trkpt><trkpt lat="44.12996546512168" lon="10.065918464840099"><ele>533.0</ele><time>2026-05-02T14:30:09.999Z</time></trkpt><trkpt lat="44.12987401122502" lon="10.065941683462487"><ele>537.1999999999999</ele><time>2026-05-02T14:30:10.999Z</time></trkpt><trkpt lat="44.12978399712853" lon="10.06596624264267"><ele>541.4</ele><time>2026-05-02T14:30:11.999Z</time></trkpt><trkpt lat="44.12969425474444" lon="10.06601146145548"><ele>545.5999999999999</ele><time>2026-05-02T14:30:12.999Z</time></trkpt><trkpt lat="44.129620956786574" lon="10.066104028481117"><ele>549.8</ele><time>2026-05-02T14:30:13.999Z</time></trkpt><trkpt lat="44.1295588589496" lon="10.066196971887173"><ele>554.0</ele><time>2026-05-02T14:30:14.999Z</time></trkpt><trkpt lat="44.12952981974193" lon="10.066312038457546"><ele>554.0</ele><time>2026-05-02T14:30:15.999Z</time></trkpt><trkpt lat="44.129490418446586" lon="10.066418204459334"><ele>554.0</ele><time>2026-05-02T14:30:16.999Z</time></trkpt><trkpt lat="44.12944664499345" lon="10.066506283123642"><ele>554.0</ele><time>2026-05-02T14:30:17.999Z</time></trkpt><trkpt lat="44.129380870727" lon="10.066557453337017"><ele>554.0</ele><time>2026-05-02T14:30:18.999Z</time></trkpt><trkpt lat="44.12930318080317" lon="10.066607440115943"><ele>554.0</ele><time>2026-05-02T14:30:19.999Z</time></trkpt><trkpt lat="44.12921696219929" lon="10.066644802351533"><ele>554.0</ele><time>2026-05-02T14:30:20.999Z</time></trkpt><trkpt lat="44.129129584314775" lon="10.066667831078336"><ele>554.0</ele><time>2026-05-02T14:30:21.999Z</time></trkpt><trkpt lat="44.12904377051228" lon="10.066681924030213"><ele>554.0</ele><time>2026-05-02T14:30:22.999Z</time></trkpt><trkpt lat="44.1289567428831" lon="10.066692155989115"><ele>554.0</ele><time>2026-05-02T14:30:23.999Z</time></trkpt><trkpt lat="44.12887399225527" lon="10.066696922076975"><ele>554.0</ele><time>2026-05-02T14:30:24.999Z</time></trkpt><trkpt lat="44.12880181365198" lon="10.066711060562403"><ele>554.0</ele><time>2026-05-02T14:30:25.999Z</time></trkpt><trkpt lat="44.12873825041792" lon="10.066759495517541"><ele>554.0</ele><time>2026-05-02T14:30:26.999Z</time></trkpt><trkpt lat="44.12871340342936" lon="10.066845159889102"><ele>554.0</ele><time>2026-05-02T14:30:27.999Z</time></trkpt><trkpt lat="44.128707780224666" lon="10.066933112467817"><ele>554.0</ele><time>2026-05-02T14:30:28.999Z</time></trkpt><trkpt lat="44.12873616602057" lon="10.067024853747695"><ele>554.0</ele><time>2026-05-02T14:30:30.002Z</time></trkpt><trkpt lat="44.12879006366063" lon="10.067117830182182"><ele>554.0</ele><time>2026-05-02T14:30:31.002Z</time></trkpt><trkpt lat="44.12884987515293" lon="10.067213290709383"><ele>554.0</ele><time>2026-05-02T14:30:32.002Z</time></trkpt><trkpt lat="44.128909894252985" lon="10.06731313646767"><ele>554.0</ele><time>2026-05-02T14:30:33.002Z</time></trkpt><trkpt lat="44.1289686166842" lon="10.067406331810906"><ele>554.0</ele><time>2026-05-02T14:30:34.002Z</time></trkpt><trkpt lat="44.12901540274132" lon="10.067497208186976"><ele>554.0</ele><time>2026-05-02T14:30:35.002Z</time></trkpt><trkpt lat="44.12904182527083" lon="10.06760087337062"><ele>554.0</ele><time>2026-05-02T14:30:36.002Z</time></trkpt><trkpt lat="44.1290332928615" lon="10.067713134088773"><ele>554.0</ele><time>2026-05-02T14:30:37.002Z</time></trkpt><trkpt lat="44.128980251675095" lon="10.067795370393698"><ele>554.0</ele><time>2026-05-02T14:30:38.002Z</time></trkpt><trkpt lat="44.12893389445105" lon="10.06788563882077"><ele>554.0</ele><time>2026-05-02T14:30:39.002Z</time></trkpt><trkpt lat="44.1288725431388" lon="10.06795078180663"><ele>554.0</ele><time>2026-05-02T14:30:40.002Z</time></trkpt><trkpt lat="44.12881330197569" lon="10.06801890964932"><ele>554.0</ele><time>2026-05-02T14:30:41.002Z</time></trkpt><trkpt lat="44.128744907366595" lon="10.068073298610386"><ele>554.0</ele><time>2026-05-02T14:30:42.002Z</time></trkpt><trkpt lat="44.12871318173462" lon="10.068180934783326"><ele>554.0</ele><time>2026-05-02T14:30:43.002Z</time></trkpt><trkpt lat="44.12871040058058" lon="10.068287334656441"><ele>554.0</ele><time>2026-05-02T14:30:44.002Z</time></trkpt><trkpt lat="44.128753324150594" lon="10.068392147932371"><ele>554.0</ele><time>2026-05-02T14:30:45.001Z</time></trkpt><trkpt lat="44.12884503567465" lon="10.068430218831569"><ele>552.8</ele><time>2026-05-02T14:30:46.001Z</time></trkpt><trkpt lat="44.12892812357336" lon="10.06845177222086"><ele>551.5999999999999</ele><time>2026-05-02T14:30:47.001Z</time></trkpt><trkpt lat="44.12902102735271" lon="10.068488691244974"><ele>550.4</ele><time>2026-05-02T14:30:48.001Z</time></trkpt><trkpt lat="44.129119089570096" lon="10.068502806298296"><ele>549.1999999999999</ele><time>2026-05-02T14:30:49.001Z</time></trkpt><trkpt lat="44.12921948105825" lon="10.068520847530177"><ele>548.0</ele><time>2026-05-02T14:30:50.001Z</time></trkpt><trkpt lat="44.12931377489534" lon="10.068545538893185"><ele>540.8</ele><time>2026-05-02T14:30:51.001Z</time></trkpt><trkpt lat="44.1294081668671" lon="10.068592969873947"><ele>533.5999999999999</ele><time>2026-05-02T14:30:52.001Z</time></trkpt><trkpt lat="44.12950797472457" lon="10.068644287591432"><ele>526.4000000000001</ele><time>2026-05-02T14:30:53.001Z</time></trkpt><trkpt lat="44.12960494620471" lon="10.068686060278766"><ele>519.2</ele><time>2026-05-02T14:30:54.001Z</time></trkpt><trkpt lat="44.1297130560441" lon="10.068663431731109"><ele>512.0</ele><time>2026-05-02T14:30:55.001Z</time></trkpt><trkpt lat="44.129810463871706" lon="10.06862271099538"><ele>511.40000000000003</ele><time>2026-05-02T14:30:56.001Z</time></trkpt><trkpt lat="44.12990122852494" lon="10.06855104462522"><ele>510.80000000000007</ele><time>2026-05-02T14:30:57.001Z</time></trkpt><trkpt lat="44.12999508111304" lon="10.068477368778357"><ele>510.2</ele><time>2026-05-02T14:30:58.001Z</time></trkpt><trkpt lat="44.13009528545556" lon="10.06841549038803"><ele>509.6</ele><time>2026-05-02T14:30:59Z</time></trkpt><trkpt lat="44.13019878287671" lon="10.068360050322932"><ele>509.0</ele><time>2026-05-02T14:31:00Z</time></trkpt><trkpt lat="44.13030414812314" lon="10.068307225242705"><ele>504.5</ele><time>2026-05-02T14:31:01Z</time></trkpt><trkpt lat="44.13041005833478" lon="10.06824401992667"><ele>500.0</ele><time>2026-05-02T14:31:02Z</time></trkpt><trkpt lat="44.13051526283648" lon="10.068174624494635"><ele>495.5</ele><time>2026-05-02T14:31:03Z</time></trkpt><trkpt lat="44.130615621199965" lon="10.06810459475081"><ele>491.0</ele><time>2026-05-02T14:31:04Z</time></trkpt><trkpt lat="44.13071551682082" lon="10.068034565186185"><ele>488.4</ele><time>2026-05-02T14:31:05Z</time></trkpt><trkpt lat="44.13081651927382" lon="10.067990881512394"><ele>485.8</ele><time>2026-05-02T14:31:06Z</time></trkpt><trkpt lat="44.13092418044623" lon="10.06798003141839"><ele>483.19999999999993</ele><time>2026-05-02T14:31:07Z</time></trkpt><trkpt lat="44.13103529123482" lon="10.068002697935066"><ele>480.59999999999997</ele><time>2026-05-02T14:31:08Z</time></trkpt><trkpt lat="44.13114629485733" lon="10.068037991185898"><ele>478.0</ele><time>2026-05-02T14:31:09Z</time></trkpt><trkpt lat="44.13126515794032" lon="10.068055795992207"><ele>478.0</ele><time>2026-05-02T14:31:10Z</time></trkpt><trkpt lat="44.13138334827003" lon="10.06805132990541"><ele>477.99999999999994</ele><time>2026-05-02T14:31:11Z</time></trkpt><trkpt lat="44.131489546813405" lon="10.068029542811733"><ele>477.99999999999994</ele><time>2026-05-02T14:31:12Z</time></trkpt><trkpt lat="44.13158817091955" lon="10.06801736381286"><ele>478.0</ele><time>2026-05-02T14:31:13Z</time></trkpt><trkpt lat="44.131676266817074" lon="10.068048269880123"><ele>478.0</ele><time>2026-05-02T14:31:14Z</time></trkpt><trkpt lat="44.131742394819405" lon="10.06812263304557"><ele>479.79999999999995</ele><time>2026-05-02T14:31:15Z</time></trkpt><trkpt lat="44.1317997596083" lon="10.068224598812185"><ele>481.59999999999997</ele><time>2026-05-02T14:31:16Z</time></trkpt><trkpt lat="44.13185508871061" lon="10.068340593844614"><ele>483.40000000000003</ele><time>2026-05-02T14:31:17Z</time></trkpt><trkpt lat="44.13191291833673" lon="10.06845651515192"><ele>485.20000000000005</ele><time>2026-05-02T14:31:18Z</time></trkpt><trkpt lat="44.1319724332342" lon="10.068569356471485"><ele>487.0</ele><time>2026-05-02T14:31:19Z</time></trkpt><trkpt lat="44.132041218150846" lon="10.068671683314747"><ele>493.6</ele><time>2026-05-02T14:31:20Z</time></trkpt><trkpt lat="44.132123270602435" lon="10.068757202425052"><ele>500.20000000000005</ele><time>2026-05-02T14:31:21Z</time></trkpt><trkpt lat="44.13220949521095" lon="10.068827546963545"><ele>506.8</ele><time>2026-05-02T14:31:22Z</time></trkpt><trkpt lat="44.13227347763746" lon="10.068930247224989"><ele>513.4</ele><time>2026-05-02T14:31:23Z</time></trkpt><trkpt lat="44.13234981933115" lon="10.069017783156726"><ele>520.0</ele><time>2026-05-02T14:31:24Z</time></trkpt><trkpt lat="44.13241537125577" lon="10.069122590485923"><ele>520.0</ele><time>2026-05-02T14:31:25Z</time></trkpt><trkpt lat="44.13248784780073" lon="10.069213956767152"><ele>520.0</ele><time>2026-05-02T14:31:26Z</time></trkpt><trkpt lat="44.13254281302218" lon="10.069320130715207"><ele>520.0</ele><time>2026-05-02T14:31:27Z</time></trkpt><trkpt lat="44.132609220260456" lon="10.069420085899864"><ele>520.0</ele><time>2026-05-02T14:31:28Z</time></trkpt><trkpt lat="44.132641612440416" lon="10.069557857382687"><ele>520.0</ele><time>2026-05-02T14:31:28.999Z</time></trkpt><trkpt lat="44.13268237607387" lon="10.06968670844844"><ele>520.0</ele><time>2026-05-02T14:31:29.999Z</time></trkpt><trkpt lat="44.13275116092436" lon="10.069785487498482"><ele>520.0</ele><time>2026-05-02T14:31:30.999Z</time></trkpt><trkpt lat="44.13281301406944" lon="10.06988545834165"><ele>520.0</ele><time>2026-05-02T14:31:31.999Z</time></trkpt><trkpt lat="44.13284537435296" lon="10.070010474218458"><ele>520.0</ele><time>2026-05-02T14:31:32.999Z</time></trkpt><trkpt lat="44.13280294410734" lon="10.070129157141304"><ele>520.0</ele><time>2026-05-02T14:31:33.999Z</time></trkpt><trkpt lat="44.132795313152066" lon="10.070258055387788"><ele>523.4</ele><time>2026-05-02T14:31:34.999Z</time></trkpt><trkpt lat="44.13277299659703" lon="10.070379355091701"><ele>526.8</ele><time>2026-05-02T14:31:35.999Z</time></trkpt><trkpt lat="44.132803680319626" lon="10.07051436797745"><ele>530.2</ele><time>2026-05-02T14:31:36.999Z</time></trkpt><trkpt lat="44.13287228415098" lon="10.070634744223945"><ele>533.6</ele><time>2026-05-02T14:31:37.999Z</time></trkpt><trkpt lat="44.132958153737164" lon="10.070732971687242"><ele>537.0</ele><time>2026-05-02T14:31:38.999Z</time></trkpt><trkpt lat="44.13303526642784" lon="10.070827818169958"><ele>538.0</ele><time>2026-05-02T14:31:39.999Z</time></trkpt><trkpt lat="44.13309786530582" lon="10.07092808873198"><ele>539.0</ele><time>2026-05-02T14:31:40.999Z</time></trkpt><trkpt lat="44.13313618224812" lon="10.071040185613521"><ele>540.0</ele><time>2026-05-02T14:31:41.999Z</time></trkpt><trkpt lat="44.13313741751213" lon="10.071161652066642"><ele>541.0</ele><time>2026-05-02T14:31:42.999Z</time></trkpt><trkpt lat="44.13310263663515" lon="10.071271004405782"><ele>542.0</ele><time>2026-05-02T14:31:43.999Z</time></trkpt><trkpt lat="44.133041979534255" lon="10.07135908342404"><ele>543.0</ele><time>2026-05-02T14:31:44.999Z</time></trkpt><trkpt lat="44.13297131863906" lon="10.071429232781794"><ele>543.0</ele><time>2026-05-02T14:31:45.999Z</time></trkpt><trkpt lat="44.13289604750285" lon="10.071487505851286"><ele>543.0</ele><time>2026-05-02T14:31:46.999Z</time></trkpt><trkpt lat="44.13282085152441" lon="10.071549533108184"><ele>543.0</ele><time>2026-05-02T14:31:47.999Z</time></trkpt><trkpt lat="44.13276305681782" lon="10.071637643202527"><ele>543.0</ele><time>2026-05-02T14:31:48.999Z</time></trkpt><trkpt lat="44.13273333634895" lon="10.07175318961587"><ele>543.0</ele><time>2026-05-02T14:31:49.999Z</time></trkpt><trkpt lat="44.13273499402289" lon="10.07187746646743"><ele>543.0</ele><time>2026-05-02T14:31:50.999Z</time></trkpt><trkpt lat="44.13277307912047" lon="10.071986261708252"><ele>542.0</ele><time>2026-05-02T14:31:51.999Z</time></trkpt><trkpt lat="44.13283785850404" lon="10.072065524910565"><ele>541.0</ele><time>2026-05-02T14:31:52.999Z</time></trkpt><trkpt lat="44.13290700905232" lon="10.072130770561419"><ele>540.0</ele><time>2026-05-02T14:31:53.999Z</time></trkpt><trkpt lat="44.132985526122816" lon="10.072188066711218"><ele>539.0</ele><time>2026-05-02T14:31:54.999Z</time></trkpt><trkpt lat="44.13307666700499" lon="10.072230701458981"><ele>538.0</ele><time>2026-05-02T14:31:55.999Z</time></trkpt><trkpt lat="44.133174317054305" lon="10.072265018452336"><ele>534.6</ele><time>2026-05-02T14:31:56.999Z</time></trkpt><trkpt lat="44.133269306040454" lon="10.07233219031662"><ele>531.1999999999999</ele><time>2026-05-02T14:31:57.999Z</time></trkpt><trkpt lat="44.13336882335469" lon="10.072382176414791"><ele>527.8</ele><time>2026-05-02T14:31:58.999Z</time></trkpt><trkpt lat="44.133467226871346" lon="10.072428183272532"><ele>524.4</ele><time>2026-05-02T14:31:59.999Z</time></trkpt><trkpt lat="44.13357149524306" lon="10.072460959843667"><ele>521.0</ele><time>2026-05-02T14:32:00.999Z</time></trkpt><trkpt lat="44.13366834954343" lon="10.072516503623472"><ele>521.0</ele><time>2026-05-02T14:32:01.999Z</time></trkpt><trkpt lat="44.133767687190215" lon="10.072567003443963"><ele>521.0</ele><time>2026-05-02T14:32:02.999Z</time></trkpt><trkpt lat="44.13386795357903" lon="10.072608544322014"><ele>521.0</ele><time>2026-05-02T14:32:03.999Z</time></trkpt><trkpt lat="44.13397041923247" lon="10.072644284795635"><ele>521.0</ele><time>2026-05-02T14:32:04.999Z</time></trkpt><trkpt lat="44.134066830253595" lon="10.072700089700497"><ele>521.0</ele><time>2026-05-02T14:32:05.999Z</time></trkpt><trkpt lat="44.134150335054755" lon="10.072788267702673"><ele>520.0</ele><time>2026-05-02T14:32:06.999Z</time></trkpt><trkpt lat="44.134220791338684" lon="10.07289799732207"><ele>519.0</ele><time>2026-05-02T14:32:07.999Z</time></trkpt><trkpt lat="44.134286471059546" lon="10.073011860167194"><ele>518.0</ele><time>2026-05-02T14:32:08.999Z</time></trkpt><trkpt lat="44.13434991061675" lon="10.073123079244276"><ele>517.0</ele><time>2026-05-02T14:32:09.999Z</time></trkpt><trkpt lat="44.134402564135144" lon="10.073246574247797"><ele>516.0</ele><time>2026-05-02T14:32:10.999Z</time></trkpt><trkpt lat="44.13446242530764" lon="10.073351316371731"><ele>516.0</ele><time>2026-05-02T14:32:11.999Z</time></trkpt><trkpt lat="44.13452837976229" lon="10.073447156570436"><ele>516.0</ele><time>2026-05-02T14:32:12.999Z</time></trkpt><trkpt lat="44.13455768568715" lon="10.073579486241956"><ele>516.0</ele><time>2026-05-02T14:32:13.999Z</time></trkpt><trkpt lat="44.13453129800317" lon="10.073727400692384"><ele>516.0</ele><time>2026-05-02T14:32:14.999Z</time></trkpt><trkpt lat="44.134548477141394" lon="10.073868724836528"><ele>516.0</ele><time>2026-05-02T14:32:15.999Z</time></trkpt><trkpt lat="44.134584091395055" lon="10.074013689036377"><ele>520.5</ele><time>2026-05-02T14:32:16.999Z</time></trkpt><trkpt lat="44.13465034117501" lon="10.074148634808662"><ele>525.0</ele><time>2026-05-02T14:32:17.999Z</time></trkpt><trkpt lat="44.134715282923665" lon="10.074283497486535"><ele>529.5</ele><time>2026-05-02T14:32:18.999Z</time></trkpt><trkpt lat="44.134767952910885" lon="10.074429373929265"><ele>534.0</ele><time>2026-05-02T14:32:19.999Z</time></trkpt><trkpt lat="44.134835945013386" lon="10.07456971585483"><ele>524.5</ele><time>2026-05-02T14:32:20.999Z</time></trkpt><trkpt lat="44.13492815870895" lon="10.074683048816354"><ele>515.0</ele><time>2026-05-02T14:32:21.999Z</time></trkpt><trkpt lat="44.13499581039181" lon="10.074818640706068"><ele>505.5</ele><time>2026-05-02T14:32:22.999Z</time></trkpt><trkpt lat="44.135062202332165" lon="10.074955143579137"><ele>496.0</ele><time>2026-05-02T14:32:23.999Z</time></trkpt><trkpt lat="44.13513715658333" lon="10.0750777704491"><ele>496.0</ele><time>2026-05-02T14:32:24.999Z</time></trkpt><trkpt lat="44.13523156828856" lon="10.07516771509786"><ele>496.0</ele><time>2026-05-02T14:32:25.999Z</time></trkpt><trkpt lat="44.135330001389754" lon="10.075241324100354"><ele>496.0</ele><time>2026-05-02T14:32:26.999Z</time></trkpt><trkpt lat="44.13544430610609" lon="10.075241114959669"><ele>496.0</ele><time>2026-05-02T14:32:27.999Z</time></trkpt><trkpt lat="44.13554889569351" lon="10.07515857428081"><ele>496.0</ele><time>2026-05-02T14:32:28.999Z</time></trkpt><trkpt lat="44.13565083787535" lon="10.07509154463101"><ele>496.0</ele><time>2026-05-02T14:32:29.999Z</time></trkpt><trkpt lat="44.13576448068094" lon="10.07505678369269"><ele>496.0</ele><time>2026-05-02T14:32:30.999Z</time></trkpt><trkpt lat="44.13587088244436" lon="10.074992900553848"><ele>496.0</ele><time>2026-05-02T14:32:31.999Z</time></trkpt><trkpt lat="44.13598238293416" lon="10.074960069461977"><ele>490.20000000000005</ele><time>2026-05-02T14:32:32.998Z</time></trkpt><trkpt lat="44.136081939677204" lon="10.074884971574694"><ele>484.40000000000003</ele><time>2026-05-02T14:32:33.998Z</time></trkpt><trkpt lat="44.13615608845457" lon="10.074771223173636"><ele>478.6</ele><time>2026-05-02T14:32:35.001Z</time></trkpt><trkpt lat="44.136216438906295" lon="10.074648937716209"><ele>472.8</ele><time>2026-05-02T14:32:36.001Z</time></trkpt><trkpt lat="44.13626601292993" lon="10.074526710038674"><ele>467.0</ele><time>2026-05-02T14:32:37.001Z</time></trkpt><trkpt lat="44.13629673584203" lon="10.074394217505088"><ele>467.0</ele><time>2026-05-02T14:32:38.001Z</time></trkpt><trkpt lat="44.13631416431667" lon="10.074256161209723"><ele>467.00000000000006</ele><time>2026-05-02T14:32:39.001Z</time></trkpt><trkpt lat="44.13631673310824" lon="10.07411950555486"><ele>467.00000000000006</ele><time>2026-05-02T14:32:40.001Z</time></trkpt><trkpt lat="44.13631604877055" lon="10.07399067011174"><ele>467.0</ele><time>2026-05-02T14:32:41.001Z</time></trkpt><trkpt lat="44.13632605033213" lon="10.073869229369675"><ele>467.0</ele><time>2026-05-02T14:32:42.001Z</time></trkpt><trkpt lat="44.13635245959952" lon="10.073755639016493"><ele>468.66666666666663</ele><time>2026-05-02T14:32:43.001Z</time></trkpt><trkpt lat="44.136404375928585" lon="10.073663973762411"><ele>470.3333333333333</ele><time>2026-05-02T14:32:44.001Z</time></trkpt><trkpt lat="44.13648545460322" lon="10.073660459376388"><ele>472.0</ele><time>2026-05-02T14:32:45.001Z</time></trkpt><trkpt lat="44.13658239403219" lon="10.07374789993248"><ele>473.66666666666663</ele><time>2026-05-02T14:32:47.001Z</time></trkpt><trkpt lat="44.1366280914631" lon="10.07382437285177"><ele>475.3333333333333</ele><time>2026-05-02T14:32:48.001Z</time></trkpt><trkpt lat="44.13668587515614" lon="10.073895817034352"><ele>477.0</ele><time>2026-05-02T14:32:49.001Z</time></trkpt><trkpt lat="44.13675979261129" lon="10.073926090632947"><ele>477.0</ele><time>2026-05-02T14:32:50.001Z</time></trkpt><trkpt lat="44.13683552442991" lon="10.073962260187859"><ele>477.00000000000006</ele><time>2026-05-02T14:32:51.001Z</time></trkpt><trkpt lat="44.13693493090772" lon="10.073950958371134"><ele>477.00000000000006</ele><time>2026-05-02T14:32:52.001Z</time></trkpt><trkpt lat="44.13702374495639" lon="10.073861888786714"><ele>477.0</ele><time>2026-05-02T14:32:53.001Z</time></trkpt><trkpt lat="44.137079450170575" lon="10.073732295036766"><ele>477.0</ele><time>2026-05-02T14:32:54.001Z</time></trkpt><trkpt lat="44.137098926465534" lon="10.07359178904078"><ele>477.0</ele><time>2026-05-02T14:32:55Z</time></trkpt><trkpt lat="44.13713794028083" lon="10.073460569223961"><ele>477.00000000000006</ele><time>2026-05-02T14:32:56Z</time></trkpt><trkpt lat="44.13717099230565" lon="10.073319438586354"><ele>477.00000000000006</ele><time>2026-05-02T14:32:57Z</time></trkpt><trkpt lat="44.13718928599421" lon="10.07316960051474"><ele>477.0</ele><time>2026-05-02T14:32:58Z</time></trkpt><trkpt lat="44.13718603657313" lon="10.073027608144326"><ele>477.0</ele><time>2026-05-02T14:32:59Z</time></trkpt><trkpt lat="44.137181881936336" lon="10.07289478841646"><ele>474.8333333333333</ele><time>2026-05-02T14:33:00Z</time></trkpt><trkpt lat="44.13717982404808" lon="10.072767222757458"><ele>472.66666666666663</ele><time>2026-05-02T14:33:01Z</time></trkpt><trkpt lat="44.1371809749634" lon="10.072650630854637"><ele>470.5</ele><time>2026-05-02T14:33:02Z</time></trkpt><trkpt lat="44.13719141336304" lon="10.072541573827076"><ele>468.3333333333333</ele><time>2026-05-02T14:33:03Z</time></trkpt><trkpt lat="44.13723009417311" lon="10.072445497239077"><ele>466.16666666666663</ele><time>2026-05-02T14:33:04Z</time></trkpt><trkpt lat="44.13730276812104" lon="10.072379265089223"><ele>464.0</ele><time>2026-05-02T14:33:05Z</time></trkpt><trkpt lat="44.13738774842364" lon="10.07234293150009"><ele>464.0</ele><time>2026-05-02T14:33:06Z</time></trkpt><trkpt lat="44.13747655124865" lon="10.072365967736907"><ele>464.0</ele><time>2026-05-02T14:33:07Z</time></trkpt><trkpt lat="44.13756686115944" lon="10.072382125122422"><ele>464.0</ele><time>2026-05-02T14:33:08Z</time></trkpt><trkpt lat="44.13762544902334" lon="10.0724931025629"><ele>464.0</ele><time>2026-05-02T14:33:09Z</time></trkpt><trkpt lat="44.13770044641191" lon="10.072579118904747"><ele>464.0</ele><time>2026-05-02T14:33:10Z</time></trkpt><trkpt lat="44.13779038549282" lon="10.072657715929818"><ele>469.0</ele><time>2026-05-02T14:33:11Z</time></trkpt><trkpt lat="44.13789882928029" lon="10.072707113834067"><ele>474.0</ele><time>2026-05-02T14:33:12Z</time></trkpt><trkpt lat="44.13800374054248" lon="10.072716348710411"><ele>479.0</ele><time>2026-05-02T14:33:13Z</time></trkpt><trkpt lat="44.13810181867823" lon="10.072690658167584"><ele>484.0</ele><time>2026-05-02T14:33:14Z</time></trkpt><trkpt lat="44.13817232423427" lon="10.07258471592787"><ele>489.0</ele><time>2026-05-02T14:33:15Z</time></trkpt><trkpt lat="44.13817730647478" lon="10.072444806604114"><ele>485.3333333333333</ele><time>2026-05-02T14:33:16Z</time></trkpt><trkpt lat="44.138178882569406" lon="10.07233118066916"><ele>481.66666666666663</ele><time>2026-05-02T14:33:17Z</time></trkpt><trkpt lat="44.13819840254753" lon="10.072226078959087"><ele>478.0</ele><time>2026-05-02T14:33:18Z</time></trkpt><trkpt lat="44.138258636403386" lon="10.072160365992456"><ele>474.3333333333333</ele><time>2026-05-02T14:33:19Z</time></trkpt><trkpt lat="44.13834600332768" lon="10.072140213093503"><ele>470.66666666666663</ele><time>2026-05-02T14:33:20Z</time></trkpt><trkpt lat="44.138434379370736" lon="10.07219815736506"><ele>467.0</ele><time>2026-05-02T14:33:21Z</time></trkpt><trkpt lat="44.13853710577672" lon="10.072229137208982"><ele>467.0</ele><time>2026-05-02T14:33:22Z</time></trkpt><trkpt lat="44.13864088766786" lon="10.07229923343381"><ele>467.00000000000006</ele><time>2026-05-02T14:33:23Z</time></trkpt><trkpt lat="44.138739265750694" lon="10.07237751713556"><ele>467.00000000000006</ele><time>2026-05-02T14:33:24Z</time></trkpt><trkpt lat="44.1388243039998" lon="10.072452919781558"><ele>467.0</ele><time>2026-05-02T14:33:25Z</time></trkpt><trkpt lat="44.13888283678409" lon="10.072548400790176"><ele>467.0</ele><time>2026-05-02T14:33:26Z</time></trkpt><trkpt lat="44.13894866975218" lon="10.072598259136228"><ele>470.66666666666663</ele><time>2026-05-02T14:33:27Z</time></trkpt><trkpt lat="44.13903098255639" lon="10.07256787572473"><ele>474.3333333333333</ele><time>2026-05-02T14:33:28Z</time></trkpt><trkpt lat="44.13910452299167" lon="10.07251389332996"><ele>478.0</ele><time>2026-05-02T14:33:29Z</time></trkpt><trkpt lat="44.13918146282092" lon="10.072482882569536"><ele>481.66666666666663</ele><time>2026-05-02T14:33:30Z</time></trkpt><trkpt lat="44.13924924376944" lon="10.072472139876774"><ele>485.3333333333333</ele><time>2026-05-02T14:33:31Z</time></trkpt><trkpt lat="44.139320395467685" lon="10.07248798906709"><ele>489.0</ele><time>2026-05-02T14:33:32Z</time></trkpt><trkpt lat="44.13939759612943" lon="10.072539456583451"><ele>489.0</ele><time>2026-05-02T14:33:33Z</time></trkpt><trkpt lat="44.13947782695362" lon="10.072572105144296"><ele>489.0</ele><time>2026-05-02T14:33:33.999Z</time></trkpt><trkpt lat="44.139562068482164" lon="10.072565316953128"><ele>489.0</ele><time>2026-05-02T14:33:34.999Z</time></trkpt><trkpt lat="44.13962408319745" lon="10.072425634775382"><ele>489.0</ele><time>2026-05-02T14:33:35.999Z</time></trkpt><trkpt lat="44.13969525285917" lon="10.072357929270856"><ele>489.0</ele><time>2026-05-02T14:33:36.999Z</time></trkpt><trkpt lat="44.13977285934266" lon="10.072306194100626"><ele>488.4</ele><time>2026-05-02T14:33:37.999Z</time></trkpt><trkpt lat="44.13985479563802" lon="10.072253689649598"><ele>487.79999999999995</ele><time>2026-05-02T14:33:38.999Z</time></trkpt><trkpt lat="44.13995619128879" lon="10.072273666795313"><ele>487.20000000000005</ele><time>2026-05-02T14:33:39.999Z</time></trkpt><trkpt lat="44.14003905192016" lon="10.072309294298078"><ele>486.6</ele><time>2026-05-02T14:33:40.999Z</time></trkpt><trkpt lat="44.14007549478419" lon="10.07242843551161"><ele>486.0</ele><time>2026-05-02T14:33:41.999Z</time></trkpt><trkpt lat="44.1401205473087" lon="10.072527693303734"><ele>486.0</ele><time>2026-05-02T14:33:42.999Z</time></trkpt><trkpt lat="44.14017249406502" lon="10.072610170975643"><ele>486.0</ele><time>2026-05-02T14:33:43.999Z</time></trkpt><trkpt lat="44.14025738242493" lon="10.072610731083797"><ele>486.0</ele><time>2026-05-02T14:33:44.999Z</time></trkpt><trkpt lat="44.140329666952844" lon="10.072556608019948"><ele>486.0</ele><time>2026-05-02T14:33:45.999Z</time></trkpt><trkpt lat="44.14038657504073" lon="10.072473735875779"><ele>486.0</ele><time>2026-05-02T14:33:46.999Z</time></trkpt><trkpt lat="44.1404525156381" lon="10.072429769227329"><ele>486.0</ele><time>2026-05-02T14:33:47.999Z</time></trkpt><trkpt lat="44.1405224138487" lon="10.072370897997027"><ele>485.20000000000005</ele><time>2026-05-02T14:33:48.999Z</time></trkpt><trkpt lat="44.140627302820235" lon="10.072376043838187"><ele>484.40000000000003</ele><time>2026-05-02T14:33:49.999Z</time></trkpt><trkpt lat="44.140725283909845" lon="10.07244436504375"><ele>483.6</ele><time>2026-05-02T14:33:50.999Z</time></trkpt><trkpt lat="44.14083047609997" lon="10.07249321113709"><ele>482.8</ele><time>2026-05-02T14:33:51.999Z</time></trkpt><trkpt lat="44.14094804294225" lon="10.072454946328037"><ele>482.0</ele><time>2026-05-02T14:33:52.999Z</time></trkpt><trkpt lat="44.141067060029336" lon="10.072437385108907"><ele>482.0</ele><time>2026-05-02T14:33:53.999Z</time></trkpt><trkpt lat="44.1411726402992" lon="10.072377680871346"><ele>482.00000000000006</ele><time>2026-05-02T14:33:54.999Z</time></trkpt><trkpt lat="44.141261977152" lon="10.072438654015235"><ele>482.00000000000006</ele><time>2026-05-02T14:33:55.999Z</time></trkpt><trkpt lat="44.141369122709825" lon="10.072463202061916"><ele>482.0</ele><time>2026-05-02T14:33:56.999Z</time></trkpt><trkpt lat="44.1414691986527" lon="10.072509396134603"><ele>482.0</ele><time>2026-05-02T14:33:57.999Z</time></trkpt><trkpt lat="44.141569024550925" lon="10.072533352146925"><ele>481.8</ele><time>2026-05-02T14:33:58.999Z</time></trkpt><trkpt lat="44.14166296903009" lon="10.072542909333139"><ele>481.6</ele><time>2026-05-02T14:33:59.999Z</time></trkpt><trkpt lat="44.141752697238786" lon="10.07256039286198"><ele>481.40000000000003</ele><time>2026-05-02T14:34:00.999Z</time></trkpt><trkpt lat="44.141843158327625" lon="10.072580932117466"><ele>481.20000000000005</ele><time>2026-05-02T14:34:01.999Z</time></trkpt><trkpt lat="44.14193601997484" lon="10.072630504182664"><ele>481.0</ele><time>2026-05-02T14:34:02.999Z</time></trkpt><trkpt lat="44.14202884003826" lon="10.072632346540503"><ele>481.00000000000006</ele><time>2026-05-02T14:34:03.999Z</time></trkpt><trkpt lat="44.142120487974914" lon="10.072612889649632"><ele>481.0</ele><time>2026-05-02T14:34:04.999Z</time></trkpt><trkpt lat="44.142209895072774" lon="10.07261406582862"><ele>481.0</ele><time>2026-05-02T14:34:05.999Z</time></trkpt><trkpt lat="44.14229268423645" lon="10.072655791678033"><ele>481.0</ele><time>2026-05-02T14:34:06.999Z</time></trkpt><trkpt lat="44.14234308519829" lon="10.072760952761822"><ele>481.00000000000006</ele><time>2026-05-02T14:34:07.999Z</time></trkpt><trkpt lat="44.14237452166757" lon="10.072875041758238"><ele>481.0</ele><time>2026-05-02T14:34:08.999Z</time></trkpt><trkpt lat="44.142409779200676" lon="10.072985782687883"><ele>481.1428571428571</ele><time>2026-05-02T14:34:09.999Z</time></trkpt><trkpt lat="44.14243933077303" lon="10.07309298780941"><ele>481.2857142857143</ele><time>2026-05-02T14:34:10.999Z</time></trkpt><trkpt lat="44.1424781306189" lon="10.073188204841712"><ele>481.42857142857144</ele><time>2026-05-02T14:34:11.999Z</time></trkpt><trkpt lat="44.14249908287344" lon="10.073288001898579"><ele>481.57142857142856</ele><time>2026-05-02T14:34:12.999Z</time></trkpt><trkpt lat="44.14251969000411" lon="10.073381834691997"><ele>481.7142857142858</ele><time>2026-05-02T14:34:13.999Z</time></trkpt><trkpt lat="44.14255277563321" lon="10.073461690825287"><ele>481.8571428571429</ele><time>2026-05-02T14:34:14.999Z</time></trkpt><trkpt lat="44.142592636637055" lon="10.07353754924673"><ele>482.0</ele><time>2026-05-02T14:34:15.999Z</time></trkpt><trkpt lat="44.14268781079599" lon="10.073556518905107"><ele>482.0</ele><time>2026-05-02T14:34:16.999Z</time></trkpt><trkpt lat="44.142798399497934" lon="10.07352864036835"><ele>482.0</ele><time>2026-05-02T14:34:17.999Z</time></trkpt><trkpt lat="44.14291574408359" lon="10.07348978224213"><ele>482.0</ele><time>2026-05-02T14:34:18.999Z</time></trkpt><trkpt lat="44.1430300317021" lon="10.073469790304946"><ele>482.0</ele><time>2026-05-02T14:34:19.999Z</time></trkpt><trkpt lat="44.14314338041098" lon="10.073479896658323"><ele>476.0</ele><time>2026-05-02T14:34:20.999Z</time></trkpt><trkpt lat="44.143255667498416" lon="10.0734828991877"><ele>470.0</ele><time>2026-05-02T14:34:21.999Z</time></trkpt><trkpt lat="44.14336475380201" lon="10.073420784274836"><ele>464.0</ele><time>2026-05-02T14:34:22.999Z</time></trkpt><trkpt lat="44.14346740573039" lon="10.073364899461298"><ele>458.0</ele><time>2026-05-02T14:34:23.999Z</time></trkpt><trkpt lat="44.14356973331119" lon="10.073300081916312"><ele>455.49999999999994</ele><time>2026-05-02T14:34:24.999Z</time></trkpt><trkpt lat="44.1436670124716" lon="10.07323834052797"><ele>453.0</ele><time>2026-05-02T14:34:25.999Z</time></trkpt><trkpt lat="44.14375881173909" lon="10.073190284707707"><ele>450.5</ele><time>2026-05-02T14:34:26.999Z</time></trkpt><trkpt lat="44.143831509916595" lon="10.07314086373118"><ele>448.0</ele><time>2026-05-02T14:34:27.999Z</time></trkpt><trkpt lat="44.14389065118704" lon="10.073094267657414"><ele>445.49999999999994</ele><time>2026-05-02T14:34:28.999Z</time></trkpt><trkpt lat="44.14397460273346" lon="10.073119335775234"><ele>443.0</ele><time>2026-05-02T14:34:30.998Z</time></trkpt><trkpt lat="44.14393064119854" lon="10.07325082232148"><ele>445.49999999999994</ele><time>2026-05-02T14:34:32.998Z</time></trkpt><trkpt lat="44.143889265617105" lon="10.07333308083422"><ele>448.0</ele><time>2026-05-02T14:34:33.998Z</time></trkpt><trkpt lat="44.143851608488006" lon="10.0734397914065"><ele>450.5</ele><time>2026-05-02T14:34:34.998Z</time></trkpt><trkpt lat="44.143801674349376" lon="10.07354298973451"><ele>453.0</ele><time>2026-05-02T14:34:35.998Z</time></trkpt><trkpt lat="44.143754354438684" lon="10.073640163295064"><ele>455.49999999999994</ele><time>2026-05-02T14:34:36.998Z</time></trkpt><trkpt lat="44.14370592678598" lon="10.073733802021458"><ele>458.0</ele><time>2026-05-02T14:34:37.998Z</time></trkpt><trkpt lat="44.14367528137576" lon="10.073820696999215"><ele>457.99999999999994</ele><time>2026-05-02T14:34:38.998Z</time></trkpt><trkpt lat="44.143686415542824" lon="10.073914060235602"><ele>458.0</ele><time>2026-05-02T14:34:39.998Z</time></trkpt><trkpt lat="44.14373981778085" lon="10.073981194577442"><ele>458.0</ele><time>2026-05-02T14:34:41.001Z</time></trkpt><trkpt lat="44.14381785702194" lon="10.073993357916939"><ele>458.0</ele><time>2026-05-02T14:34:42.001Z</time></trkpt><trkpt lat="44.14390053607046" lon="10.073940603906832"><ele>457.99999999999994</ele><time>2026-05-02T14:34:43.001Z</time></trkpt><trkpt lat="44.14398999321699" lon="10.073864817816602"><ele>458.0</ele><time>2026-05-02T14:34:44.001Z</time></trkpt><trkpt lat="44.14409603046869" lon="10.073793456184807"><ele>455.25</ele><time>2026-05-02T14:34:45.001Z</time></trkpt><trkpt lat="44.14421221978521" lon="10.073737564408944"><ele>452.5</ele><time>2026-05-02T14:34:46.001Z</time></trkpt><trkpt lat="44.14433436579258" lon="10.073703517805475"><ele>449.75</ele><time>2026-05-02T14:34:47.001Z</time></trkpt><trkpt lat="44.144461751239724" lon="10.073691472580036"><ele>447.0</ele><time>2026-05-02T14:34:48.001Z</time></trkpt><trkpt lat="44.14458677854054" lon="10.073692585593644"><ele>447.0</ele><time>2026-05-02T14:34:49.001Z</time></trkpt><trkpt lat="44.14470789709609" lon="10.073699960960209"><ele>447.0</ele><time>2026-05-02T14:34:50.001Z</time></trkpt><trkpt lat="44.14482597452156" lon="10.073706601447178"><ele>447.0</ele><time>2026-05-02T14:34:51.001Z</time></trkpt><trkpt lat="44.14494530299965" lon="10.073711617125998"><ele>447.0</ele><time>2026-05-02T14:34:52.001Z</time></trkpt><trkpt lat="44.14506950855478" lon="10.073721846532193"><ele>446.5</ele><time>2026-05-02T14:34:53.001Z</time></trkpt><trkpt lat="44.14518913913727" lon="10.073753480583001"><ele>446.0</ele><time>2026-05-02T14:34:54.001Z</time></trkpt><trkpt lat="44.14530226145981" lon="10.07380310030968"><ele>445.5</ele><time>2026-05-02T14:34:55.001Z</time></trkpt><trkpt lat="44.14540633817181" lon="10.073861257960015"><ele>445.0</ele><time>2026-05-02T14:34:56.001Z</time></trkpt><trkpt lat="44.14550620820627" lon="10.073934833349215"><ele>445.0</ele><time>2026-05-02T14:34:57.001Z</time></trkpt><trkpt lat="44.145601873403706" lon="10.074017203269856"><ele>445.0</ele><time>2026-05-02T14:34:58.001Z</time></trkpt><trkpt lat="44.14569271966012" lon="10.074099496022706"><ele>445.0</ele><time>2026-05-02T14:34:59Z</time></trkpt><trkpt lat="44.14578011173624" lon="10.074180971642706"><ele>445.0</ele><time>2026-05-02T14:35:00Z</time></trkpt><trkpt lat="44.145868178265076" lon="10.074265633557797"><ele>445.0</ele><time>2026-05-02T14:35:01Z</time></trkpt><trkpt lat="44.145927429483024" lon="10.074389074689785"><ele>441.0</ele><time>2026-05-02T14:35:02Z</time></trkpt><trkpt lat="44.1459981278859" lon="10.074503591392107"><ele>437.0</ele><time>2026-05-02T14:35:03Z</time></trkpt><trkpt lat="44.14606510433974" lon="10.074612225912427"><ele>433.0</ele><time>2026-05-02T14:35:04Z</time></trkpt><trkpt lat="44.146128180116996" lon="10.07470912342901"><ele>429.0</ele><time>2026-05-02T14:35:05Z</time></trkpt><trkpt lat="44.146201961982264" lon="10.074789937270738"><ele>425.0</ele><time>2026-05-02T14:35:06Z</time></trkpt><trkpt lat="44.14625717086255" lon="10.074876388074854"><ele>423.1428571428571</ele><time>2026-05-02T14:35:07Z</time></trkpt><trkpt lat="44.14630498530008" lon="10.074960276178764"><ele>421.2857142857143</ele><time>2026-05-02T14:35:08Z</time></trkpt><trkpt lat="44.14634967926434" lon="10.075039043048465"><ele>419.42857142857144</ele><time>2026-05-02T14:35:09Z</time></trkpt><trkpt lat="44.14639179212636" lon="10.075118825398453"><ele>417.57142857142856</ele><time>2026-05-02T14:35:10Z</time></trkpt><trkpt lat="44.146422373517254" lon="10.075207250604675"><ele>415.7142857142857</ele><time>2026-05-02T14:35:11Z</time></trkpt><trkpt lat="44.146427780889475" lon="10.075299052234536"><ele>413.85714285714283</ele><time>2026-05-02T14:35:12Z</time></trkpt><trkpt lat="44.1463968301716" lon="10.075385381521443"><ele>412.0</ele><time>2026-05-02T14:35:13Z</time></trkpt><trkpt lat="44.146339048909915" lon="10.075445369002088"><ele>412.00000000000006</ele><time>2026-05-02T14:35:14Z</time></trkpt><trkpt lat="44.1462645179561" lon="10.075471826285666"><ele>412.0</ele><time>2026-05-02T14:35:15Z</time></trkpt><trkpt lat="44.146183141888265" lon="10.075458938757317"><ele>412.0</ele><time>2026-05-02T14:35:16Z</time></trkpt><trkpt lat="44.146117246884906" lon="10.075374652523434"><ele>412.0</ele><time>2026-05-02T14:35:17Z</time></trkpt><trkpt lat="44.146042543641364" lon="10.075315476033406"><ele>412.00000000000006</ele><time>2026-05-02T14:35:18Z</time></trkpt><trkpt lat="44.145956914902946" lon="10.075261093021147"><ele>412.0</ele><time>2026-05-02T14:35:19Z</time></trkpt><trkpt lat="44.14587257617315" lon="10.075183655040982"><ele>412.0</ele><time>2026-05-02T14:35:20Z</time></trkpt><trkpt lat="44.14578236701256" lon="10.075105143728175"><ele>412.0</ele><time>2026-05-02T14:35:21Z</time></trkpt><trkpt lat="44.14568579510664" lon="10.075022962130157"><ele>412.0</ele><time>2026-05-02T14:35:22Z</time></trkpt><trkpt lat="44.14558943593708" lon="10.074934943851948"><ele>412.0</ele><time>2026-05-02T14:35:23Z</time></trkpt><trkpt lat="44.14548930571794" lon="10.07484893044084"><ele>414.5</ele><time>2026-05-02T14:35:24Z</time></trkpt><trkpt lat="44.14537916376489" lon="10.07479222568057"><ele>417.0</ele><time>2026-05-02T14:35:25Z</time></trkpt><trkpt lat="44.145260811589715" lon="10.07477275046784"><ele>419.5</ele><time>2026-05-02T14:35:26Z</time></trkpt><trkpt lat="44.145140610776195" lon="10.074761564792931"><ele>422.0</ele><time>2026-05-02T14:35:27Z</time></trkpt><trkpt lat="44.14502650458651" lon="10.074744383281017"><ele>421.99999999999994</ele><time>2026-05-02T14:35:28Z</time></trkpt><trkpt lat="44.144925803838625" lon="10.074741593496073"><ele>422.0</ele><time>2026-05-02T14:35:29Z</time></trkpt><trkpt lat="44.144836866533616" lon="10.074751295085527"><ele>422.0</ele><time>2026-05-02T14:35:30Z</time></trkpt><trkpt lat="44.14475888650686" lon="10.074798546197144"><ele>422.0</ele><time>2026-05-02T14:35:31Z</time></trkpt><trkpt lat="44.14470533264042" lon="10.074888438448601"><ele>421.99999999999994</ele><time>2026-05-02T14:35:32Z</time></trkpt><trkpt lat="44.14467908841735" lon="10.075003449505513"><ele>422.0</ele><time>2026-05-02T14:35:33Z</time></trkpt><trkpt lat="44.14469170749012" lon="10.07512863203983"><ele>420.6</ele><time>2026-05-02T14:35:34Z</time></trkpt><trkpt lat="44.14473505926413" lon="10.075252782595774"><ele>419.20000000000005</ele><time>2026-05-02T14:35:35Z</time></trkpt><trkpt lat="44.144805465890336" lon="10.075375312793993"><ele>417.8</ele><time>2026-05-02T14:35:36Z</time></trkpt><trkpt lat="44.14490103507299" lon="10.075474784275233"><ele>416.4</ele><time>2026-05-02T14:35:37Z</time></trkpt><trkpt lat="44.14500628688773" lon="10.075541534166348"><ele>415.0</ele><time>2026-05-02T14:35:37.999Z</time></trkpt><trkpt lat="44.14510873197252" lon="10.075610173922486"><ele>412.5</ele><time>2026-05-02T14:35:38.999Z</time></trkpt><trkpt lat="44.14519375097291" lon="10.07571587702947"><ele>410.0</ele><time>2026-05-02T14:35:39.999Z</time></trkpt><trkpt lat="44.145236634753935" lon="10.075867576186313"><ele>407.5</ele><time>2026-05-02T14:35:40.999Z</time></trkpt><trkpt lat="44.14530886095718" lon="10.075996452067823"><ele>405.0</ele><time>2026-05-02T14:35:41.999Z</time></trkpt><trkpt lat="44.14537736511916" lon="10.076104645926941"><ele>403.6</ele><time>2026-05-02T14:35:42.999Z</time></trkpt><trkpt lat="44.14548711845119" lon="10.076146571360493"><ele>402.2</ele><time>2026-05-02T14:35:43.999Z</time></trkpt><trkpt lat="44.14560049944764" lon="10.076157987638508"><ele>400.79999999999995</ele><time>2026-05-02T14:35:44.999Z</time></trkpt><trkpt lat="44.14571013772558" lon="10.076169686278972"><ele>399.4</ele><time>2026-05-02T14:35:45.999Z</time></trkpt><trkpt lat="44.145810199701266" lon="10.076203000611033"><ele>398.0</ele><time>2026-05-02T14:35:46.999Z</time></trkpt><trkpt lat="44.14589345352738" lon="10.076283853749857"><ele>398.0</ele><time>2026-05-02T14:35:47.999Z</time></trkpt><trkpt lat="44.14594699649413" lon="10.076419582224439"><ele>398.0</ele><time>2026-05-02T14:35:48.999Z</time></trkpt><trkpt lat="44.14597128660242" lon="10.076564584568736"><ele>398.0</ele><time>2026-05-02T14:35:49.999Z</time></trkpt><trkpt lat="44.14597030129306" lon="10.07671624353678"><ele>398.0</ele><time>2026-05-02T14:35:50.999Z</time></trkpt><trkpt lat="44.145969375594795" lon="10.076877811741118"><ele>398.0</ele><time>2026-05-02T14:35:51.999Z</time></trkpt><trkpt lat="44.1459923690306" lon="10.077046558558283"><ele>393.0</ele><time>2026-05-02T14:35:52.999Z</time></trkpt><trkpt lat="44.14603174837343" lon="10.07720876590185"><ele>388.0</ele><time>2026-05-02T14:35:53.999Z</time></trkpt><trkpt lat="44.14607072484152" lon="10.077363966655367"><ele>383.0</ele><time>2026-05-02T14:35:54.999Z</time></trkpt><trkpt lat="44.14608919278817" lon="10.077522158385202"><ele>378.0</ele><time>2026-05-02T14:35:55.999Z</time></trkpt><trkpt lat="44.146053345388765" lon="10.077681796424866"><ele>374.59999999999997</ele><time>2026-05-02T14:35:56.999Z</time></trkpt><trkpt lat="44.1460562591934" lon="10.077840178020718"><ele>371.2</ele><time>2026-05-02T14:35:57.999Z</time></trkpt><trkpt lat="44.14605534435389" lon="10.077987071944719"><ele>367.8</ele><time>2026-05-02T14:35:58.999Z</time></trkpt><trkpt lat="44.146096326648056" lon="10.078135575440552"><ele>364.4</ele><time>2026-05-02T14:35:59.999Z</time></trkpt><trkpt lat="44.14613590633031" lon="10.078276861207103"><ele>361.0</ele><time>2026-05-02T14:36:00.999Z</time></trkpt><trkpt lat="44.146185473584914" lon="10.078416335355106"><ele>358.4</ele><time>2026-05-02T14:36:01.999Z</time></trkpt><trkpt lat="44.14623775351455" lon="10.078552286145245"><ele>355.8</ele><time>2026-05-02T14:36:02.999Z</time></trkpt><trkpt lat="44.14629316277367" lon="10.078689473597578"><ele>353.2</ele><time>2026-05-02T14:36:03.999Z</time></trkpt><trkpt lat="44.14635626737576" lon="10.078814030761949"><ele>350.59999999999997</ele><time>2026-05-02T14:36:04.999Z</time></trkpt><trkpt lat="44.14642902167333" lon="10.07893420588033"><ele>348.0</ele><time>2026-05-02T14:36:05.999Z</time></trkpt><trkpt lat="44.14650712706299" lon="10.079039607985703"><ele>351.5</ele><time>2026-05-02T14:36:06.999Z</time></trkpt><trkpt lat="44.146595197194316" lon="10.079147416348102"><ele>355.0</ele><time>2026-05-02T14:36:07.999Z</time></trkpt><trkpt lat="44.14669194258976" lon="10.079247939566024"><ele>358.5</ele><time>2026-05-02T14:36:08.999Z</time></trkpt><trkpt lat="44.14678585352308" lon="10.079339921714563"><ele>362.0</ele><time>2026-05-02T14:36:09.999Z</time></trkpt><trkpt lat="44.14687690886491" lon="10.079425356602515"><ele>362.0</ele><time>2026-05-02T14:36:10.999Z</time></trkpt><trkpt lat="44.14697125414693" lon="10.079505193923195"><ele>362.0</ele><time>2026-05-02T14:36:11.999Z</time></trkpt><trkpt lat="44.14707521560487" lon="10.079567725902022"><ele>362.0</ele><time>2026-05-02T14:36:12.999Z</time></trkpt><trkpt lat="44.14718697858494" lon="10.079597673766735"><ele>362.0</ele><time>2026-05-02T14:36:13.999Z</time></trkpt><trkpt lat="44.14730524540268" lon="10.07959059462605"><ele>364.0</ele><time>2026-05-02T14:36:14.999Z</time></trkpt><trkpt lat="44.1474214121607" lon="10.079548590670095"><ele>366.0</ele><time>2026-05-02T14:36:15.999Z</time></trkpt><trkpt lat="44.1475376175455" lon="10.079502308237581"><ele>368.0</ele><time>2026-05-02T14:36:16.999Z</time></trkpt><trkpt lat="44.14765199965827" lon="10.079465147159276"><ele>370.0</ele><time>2026-05-02T14:36:17.999Z</time></trkpt><trkpt lat="44.147764902533254" lon="10.079436995956373"><ele>370.0</ele><time>2026-05-02T14:36:18.999Z</time></trkpt><trkpt lat="44.1478781924629" lon="10.079435056220785"><ele>370.0</ele><time>2026-05-02T14:36:19.999Z</time></trkpt><trkpt lat="44.14798516066129" lon="10.079491891013053"><ele>370.0</ele><time>2026-05-02T14:36:20.999Z</time></trkpt><trkpt lat="44.14807519591459" lon="10.07959888310984"><ele>370.0</ele><time>2026-05-02T14:36:21.999Z</time></trkpt><trkpt lat="44.14813000447973" lon="10.079760347588923"><ele>364.0</ele><time>2026-05-02T14:36:22.999Z</time></trkpt><trkpt lat="44.1482115292853" lon="10.07990639272967"><ele>358.0</ele><time>2026-05-02T14:36:23.999Z</time></trkpt><trkpt lat="44.14828640257327" lon="10.080071767994866"><ele>352.0</ele><time>2026-05-02T14:36:24.999Z</time></trkpt><trkpt lat="44.148347306382654" lon="10.080251932488093"><ele>346.0</ele><time>2026-05-02T14:36:25.999Z</time></trkpt><trkpt lat="44.14841835158984" lon="10.080416049440887"><ele>346.0</ele><time>2026-05-02T14:36:26.999Z</time></trkpt><trkpt lat="44.14849884614159" lon="10.08056398128571"><ele>346.0</ele><time>2026-05-02T14:36:27.998Z</time></trkpt><trkpt lat="44.14856242585452" lon="10.08072357931116"><ele>346.0</ele><time>2026-05-02T14:36:28.998Z</time></trkpt><trkpt lat="44.14861810347353" lon="10.08087467905517"><ele>346.0</ele><time>2026-05-02T14:36:29.998Z</time></trkpt><trkpt lat="44.148660668026345" lon="10.081018135767895"><ele>345.4</ele><time>2026-05-02T14:36:30.998Z</time></trkpt><trkpt lat="44.14870248511348" lon="10.081141832199947"><ele>344.8</ele><time>2026-05-02T14:36:31.998Z</time></trkpt><trkpt lat="44.148751186742366" lon="10.08124348891487"><ele>344.2</ele><time>2026-05-02T14:36:32.998Z</time></trkpt><trkpt lat="44.14881903871335" lon="10.08130484705004"><ele>343.59999999999997</ele><time>2026-05-02T14:36:33.998Z</time></trkpt><trkpt lat="44.148902418499794" lon="10.08132601770838"><ele>343.0</ele><time>2026-05-02T14:36:34.998Z</time></trkpt><trkpt lat="44.14898016535656" lon="10.081227760753187"><ele>343.0</ele><time>2026-05-02T14:36:35.998Z</time></trkpt><trkpt lat="44.148995491403966" lon="10.081078536469883"><ele>343.0</ele><time>2026-05-02T14:36:36.998Z</time></trkpt><trkpt lat="44.14897625384641" lon="10.080931530881276"><ele>343.0</ele><time>2026-05-02T14:36:37.998Z</time></trkpt><trkpt lat="44.14891049691225" lon="10.080794107164197"><ele>343.0</ele><time>2026-05-02T14:36:38.998Z</time></trkpt><trkpt lat="44.14882996913659" lon="10.080665349568823"><ele>343.75</ele><time>2026-05-02T14:36:39.998Z</time></trkpt><trkpt lat="44.14875932485937" lon="10.080529501936184"><ele>344.5</ele><time>2026-05-02T14:36:40.998Z</time></trkpt><trkpt lat="44.14870740742318" lon="10.080363951608698"><ele>345.25</ele><time>2026-05-02T14:36:41.998Z</time></trkpt><trkpt lat="44.14866938906587" lon="10.080200751122353"><ele>346.0</ele><time>2026-05-02T14:36:42.998Z</time></trkpt><trkpt lat="44.14863889624146" lon="10.080026882133355"><ele>344.25</ele><time>2026-05-02T14:36:43.998Z</time></trkpt><trkpt lat="44.14861225642623" lon="10.07988223780233"><ele>342.5</ele><time>2026-05-02T14:36:44.998Z</time></trkpt><trkpt lat="44.14858863594697" lon="10.079712898065901"><ele>340.75</ele><time>2026-05-02T14:36:45.998Z</time></trkpt><trkpt lat="44.14856774180914" lon="10.079542340176712"><ele>339.0</ele><time>2026-05-02T14:36:47.001Z</time></trkpt><trkpt lat="44.14855243572628" lon="10.079370603166204"><ele>339.0</ele><time>2026-05-02T14:36:48.001Z</time></trkpt><trkpt lat="44.14855444402252" lon="10.079201265812278"><ele>339.0</ele><time>2026-05-02T14:36:49.001Z</time></trkpt><trkpt lat="44.14858079688366" lon="10.07904636832606"><ele>339.0</ele><time>2026-05-02T14:36:50.001Z</time></trkpt><trkpt lat="44.14862407565381" lon="10.078911368918924"><ele>339.0</ele><time>2026-05-02T14:36:51.001Z</time></trkpt><trkpt lat="44.14869131116237" lon="10.078812303286453"><ele>339.0</ele><time>2026-05-02T14:36:52Z</time></trkpt><trkpt lat="44.14876748590782" lon="10.078767529803677"><ele>339.0</ele><time>2026-05-02T14:36:53Z</time></trkpt><trkpt lat="44.14884290904284" lon="10.078764326940876"><ele>339.0</ele><time>2026-05-02T14:36:54Z</time></trkpt><trkpt lat="44.148907650768635" lon="10.078821025800263"><ele>339.0</ele><time>2026-05-02T14:36:55Z</time></trkpt><trkpt lat="44.148947233080605" lon="10.078928275302843"><ele>339.0</ele><time>2026-05-02T14:36:56Z</time></trkpt><trkpt lat="44.14892388337964" lon="10.079075058658482"><ele>339.0</ele><time>2026-05-02T14:36:57Z</time></trkpt><trkpt lat="44.148915667346984" lon="10.079238485619367"><ele>339.0</ele><time>2026-05-02T14:36:58Z</time></trkpt><trkpt lat="44.14891016562721" lon="10.079406765064197"><ele>339.0</ele><time>2026-05-02T14:36:59Z</time></trkpt><trkpt lat="44.14892945369771" lon="10.079577000796318"><ele>339.0</ele><time>2026-05-02T14:37:00Z</time></trkpt><trkpt lat="44.148935277755655" lon="10.079752516329785"><ele>339.0</ele><time>2026-05-02T14:37:01Z</time></trkpt><trkpt lat="44.14898190615337" lon="10.079911796931338"><ele>330.25</ele><time>2026-05-02T14:37:02Z</time></trkpt><trkpt lat="44.1490599718049" lon="10.080052369326063"><ele>321.5</ele><time>2026-05-02T14:37:03Z</time></trkpt><trkpt lat="44.14913503943033" lon="10.080181930193469"><ele>312.75</ele><time>2026-05-02T14:37:04Z</time></trkpt><trkpt lat="44.14920147529645" lon="10.080319918017485"><ele>304.0</ele><time>2026-05-02T14:37:05Z</time></trkpt><trkpt lat="44.149290488486336" lon="10.08043526260407"><ele>304.0</ele><time>2026-05-02T14:37:06Z</time></trkpt><trkpt lat="44.149334721953664" lon="10.080577669942828"><ele>304.0</ele><time>2026-05-02T14:37:07Z</time></trkpt><trkpt lat="44.14938737324781" lon="10.08070852688511"><ele>304.0</ele><time>2026-05-02T14:37:08Z</time></trkpt><trkpt lat="44.1494068892846" lon="10.080863098320958"><ele>304.0</ele><time>2026-05-02T14:37:09Z</time></trkpt><trkpt lat="44.14939463720067" lon="10.081019103121921"><ele>304.0</ele><time>2026-05-02T14:37:10Z</time></trkpt><trkpt lat="44.149407072470225" lon="10.081176358471135"><ele>305.8</ele><time>2026-05-02T14:37:11Z</time></trkpt><trkpt lat="44.149399692780534" lon="10.081329963527208"><ele>307.59999999999997</ele><time>2026-05-02T14:37:12Z</time></trkpt><trkpt lat="44.149371484135564" lon="10.081477269460146"><ele>309.4</ele><time>2026-05-02T14:37:13Z</time></trkpt><trkpt lat="44.149351518479" lon="10.081620718877769"><ele>311.2</ele><time>2026-05-02T14:37:14Z</time></trkpt><trkpt lat="44.149287141997085" lon="10.08174325052978"><ele>313.0</ele><time>2026-05-02T14:37:15Z</time></trkpt><trkpt lat="44.14919829627766" lon="10.081842052675821"><ele>311.25</ele><time>2026-05-02T14:37:16Z</time></trkpt><trkpt lat="44.149095099947615" lon="10.08191528669897"><ele>309.5</ele><time>2026-05-02T14:37:17Z</time></trkpt><trkpt lat="44.14898445731808" lon="10.08198040689001"><ele>307.75</ele><time>2026-05-02T14:37:18Z</time></trkpt><trkpt lat="44.1488712891208" lon="10.08202884763214"><ele>306.0</ele><time>2026-05-02T14:37:19Z</time></trkpt><trkpt lat="44.148753583114065" lon="10.08205979915902"><ele>306.0</ele><time>2026-05-02T14:37:20Z</time></trkpt><trkpt lat="44.14863457870985" lon="10.082067719937061"><ele>306.0</ele><time>2026-05-02T14:37:21Z</time></trkpt><trkpt lat="44.14851753878459" lon="10.082070497524622"><ele>306.0</ele><time>2026-05-02T14:37:22Z</time></trkpt><trkpt lat="44.14840714447981" lon="10.08207525122125"><ele>306.0</ele><time>2026-05-02T14:37:23Z</time></trkpt><trkpt lat="44.148299070377895" lon="10.08207579098189"><ele>302.2</ele><time>2026-05-02T14:37:24Z</time></trkpt><trkpt lat="44.14818916546834" lon="10.082073440896163"><ele>298.40000000000003</ele><time>2026-05-02T14:37:25Z</time></trkpt><trkpt lat="44.1480790792989" lon="10.082060826368274"><ele>294.6</ele><time>2026-05-02T14:37:26Z</time></trkpt><trkpt lat="44.14797293691497" lon="10.08202751441232"><ele>290.8</ele><time>2026-05-02T14:37:27Z</time></trkpt><trkpt lat="44.14786770954262" lon="10.082005394197083"><ele>287.0</ele><time>2026-05-02T14:37:28Z</time></trkpt><trkpt lat="44.14776230185414" lon="10.08201482283618"><ele>287.0</ele><time>2026-05-02T14:37:29Z</time></trkpt><trkpt lat="44.14766290814693" lon="10.082074118269627"><ele>287.0</ele><time>2026-05-02T14:37:30Z</time></trkpt><trkpt lat="44.147580527450565" lon="10.082185362960802"><ele>287.0</ele><time>2026-05-02T14:37:31Z</time></trkpt><trkpt lat="44.14751439057179" lon="10.082322422532284"><ele>287.0</ele><time>2026-05-02T14:37:32Z</time></trkpt><trkpt lat="44.147482440928854" lon="10.082493105897978"><ele>282.5</ele><time>2026-05-02T14:37:33Z</time></trkpt><trkpt lat="44.1474703508859" lon="10.082670722907626"><ele>278.0</ele><time>2026-05-02T14:37:34Z</time></trkpt><trkpt lat="44.14747453525777" lon="10.082846418230597"><ele>273.5</ele><time>2026-05-02T14:37:35Z</time></trkpt><trkpt lat="44.14748718624726" lon="10.083016784886398"><ele>269.0</ele><time>2026-05-02T14:37:36Z</time></trkpt><trkpt lat="44.147516079719814" lon="10.083176400216832"><ele>268.0</ele><time>2026-05-02T14:37:36.999Z</time></trkpt><trkpt lat="44.14752689113168" lon="10.083337799694416"><ele>267.0</ele><time>2026-05-02T14:37:37.999Z</time></trkpt><trkpt lat="44.147523435818734" lon="10.083498006636372"><ele>266.0</ele><time>2026-05-02T14:37:38.999Z</time></trkpt><trkpt lat="44.14749491244188" lon="10.083643322608802"><ele>265.0</ele><time>2026-05-02T14:37:39.999Z</time></trkpt><trkpt lat="44.14741856213616" lon="10.083765787330606"><ele>266.25</ele><time>2026-05-02T14:37:40.999Z</time></trkpt><trkpt lat="44.147339097426105" lon="10.083882644100687"><ele>267.5</ele><time>2026-05-02T14:37:41.999Z</time></trkpt><trkpt lat="44.14721812556252" lon="10.083947585644948"><ele>268.75</ele><time>2026-05-02T14:37:42.999Z</time></trkpt><trkpt lat="44.14708237498163" lon="10.08399914409772"><ele>270.0</ele><time>2026-05-02T14:37:43.999Z</time></trkpt><trkpt lat="44.14693810546103" lon="10.084058140849207"><ele>272.6666666666667</ele><time>2026-05-02T14:37:44.999Z</time></trkpt><trkpt lat="44.1467809949638" lon="10.084128858092422"><ele>275.33333333333337</ele><time>2026-05-02T14:37:45.999Z</time></trkpt><trkpt lat="44.14661094785855" lon="10.084201863370874"><ele>278.0</ele><time>2026-05-02T14:37:46.999Z</time></trkpt><trkpt lat="44.1464286353406" lon="10.084271430040314"><ele>278.0</ele><time>2026-05-02T14:37:47.999Z</time></trkpt><trkpt lat="44.14623626968348" lon="10.084332469962478"><ele>278.0</ele><time>2026-05-02T14:37:48.999Z</time></trkpt><trkpt lat="44.14603788586893" lon="10.084375578844012"><ele>278.0</ele><time>2026-05-02T14:37:49.999Z</time></trkpt><trkpt lat="44.14583274128785" lon="10.084409578672693"><ele>276.6666666666667</ele><time>2026-05-02T14:37:50.999Z</time></trkpt><trkpt lat="44.14562463610158" lon="10.084428805740698"><ele>275.3333333333333</ele><time>2026-05-02T14:37:51.999Z</time></trkpt><trkpt lat="44.14542342297243" lon="10.084510194517705"><ele>274.0</ele><time>2026-05-02T14:37:52.999Z</time></trkpt><trkpt lat="44.145216502561055" lon="10.084595737534942"><ele>274.0</ele><time>2026-05-02T14:37:53.999Z</time></trkpt><trkpt lat="44.14500637141909" lon="10.084667456100165"><ele>274.0</ele><time>2026-05-02T14:37:54.999Z</time></trkpt><trkpt lat="44.14482146064993" lon="10.084743087407363"><ele>274.0</ele><time>2026-05-02T14:37:55.999Z</time></trkpt><trkpt lat="44.14466143022152" lon="10.084807808592464"><ele>274.5</ele><time>2026-05-02T14:37:56.999Z</time></trkpt><trkpt lat="44.14450063188217" lon="10.084873663613172"><ele>275.0</ele><time>2026-05-02T14:37:57.999Z</time></trkpt><trkpt lat="44.14436014444907" lon="10.084932323234378"><ele>275.5</ele><time>2026-05-02T14:37:58.999Z</time></trkpt><trkpt lat="44.14425063830331" lon="10.08503522386839"><ele>276.0</ele><time>2026-05-02T14:37:59.999Z</time></trkpt><trkpt lat="44.144167903897845" lon="10.08520104453783"><ele>276.3333333333333</ele><time>2026-05-02T14:38:00.999Z</time></trkpt><trkpt lat="44.14410198833447" lon="10.085410410182732"><ele>276.66666666666663</ele><time>2026-05-02T14:38:01.999Z</time></trkpt><trkpt lat="44.14404037191322" lon="10.085629047086925"><ele>277.0</ele><time>2026-05-02T14:38:02.999Z</time></trkpt><trkpt lat="44.1439636485387" lon="10.085840236450911"><ele>278.3333333333333</ele><time>2026-05-02T14:38:03.999Z</time></trkpt><trkpt lat="44.143907686573236" lon="10.086052670920143"><ele>279.6666666666667</ele><time>2026-05-02T14:38:04.999Z</time></trkpt><trkpt lat="44.1438708954407" lon="10.086268781534853"><ele>281.0</ele><time>2026-05-02T14:38:05.999Z</time></trkpt><trkpt lat="44.143841873083396" lon="10.086481848211271"><ele>283.0</ele><time>2026-05-02T14:38:06.999Z</time></trkpt><trkpt lat="44.14381167806463" lon="10.086695105596439"><ele>285.0</ele><time>2026-05-02T14:38:07.999Z</time></trkpt><trkpt lat="44.14373697836" lon="10.086882660189026"><ele>287.0</ele><time>2026-05-02T14:38:08.999Z</time></trkpt><trkpt lat="44.14364944546579" lon="10.087060504489875"><ele>287.0</ele><time>2026-05-02T14:38:09.999Z</time></trkpt><trkpt lat="44.14357096274242" lon="10.087250392552159"><ele>287.0</ele><time>2026-05-02T14:38:10.999Z</time></trkpt><trkpt lat="44.1435226053247" lon="10.08746500646785"><ele>287.0</ele><time>2026-05-02T14:38:11.999Z</time></trkpt><trkpt lat="44.14348978414189" lon="10.087690853558774"><ele>292.33333333333337</ele><time>2026-05-02T14:38:12.999Z</time></trkpt><trkpt lat="44.14349147957754" lon="10.087919968237422"><ele>297.6666666666667</ele><time>2026-05-02T14:38:13.999Z</time></trkpt><trkpt lat="44.14347733429852" lon="10.088148950599628"><ele>303.0</ele><time>2026-05-02T14:38:14.999Z</time></trkpt><trkpt lat="44.1434309240897" lon="10.088377402887096"><ele>308.0</ele><time>2026-05-02T14:38:15.999Z</time></trkpt><trkpt lat="44.143366062268086" lon="10.088593235547632"><ele>313.0</ele><time>2026-05-02T14:38:16.999Z</time></trkpt><trkpt lat="44.14332501125255" lon="10.088805604721662"><ele>318.0</ele><time>2026-05-02T14:38:17.999Z</time></trkpt><trkpt lat="44.143312646989315" lon="10.088998361924817"><ele>319.6</ele><time>2026-05-02T14:38:18.999Z</time></trkpt><trkpt lat="44.14332595930784" lon="10.089171207479758"><ele>321.20000000000005</ele><time>2026-05-02T14:38:19.999Z</time></trkpt><trkpt lat="44.143373011738596" lon="10.089309186479104"><ele>322.8</ele><time>2026-05-02T14:38:20.999Z</time></trkpt><trkpt lat="44.14341670418091" lon="10.089421501525367"><ele>324.40000000000003</ele><time>2026-05-02T14:38:21.999Z</time></trkpt><trkpt lat="44.14341907129516" lon="10.08953435515374"><ele>326.0</ele><time>2026-05-02T14:38:22.999Z</time></trkpt><trkpt lat="44.14336838321499" lon="10.089631202362435"><ele>326.0</ele><time>2026-05-02T14:38:23.999Z</time></trkpt><trkpt lat="44.14329647076368" lon="10.089711786671849"><ele>326.0</ele><time>2026-05-02T14:38:24.998Z</time></trkpt><trkpt lat="44.14322451142584" lon="10.089801945001948"><ele>326.0</ele><time>2026-05-02T14:38:25.998Z</time></trkpt><trkpt lat="44.14315908675241" lon="10.08991772520948"><ele>326.0</ele><time>2026-05-02T14:38:26.998Z</time></trkpt><trkpt lat="44.14311693057398" lon="10.09006364736373"><ele>326.0</ele><time>2026-05-02T14:38:27.998Z</time></trkpt><trkpt lat="44.14312165032104" lon="10.090224272792568"><ele>326.75</ele><time>2026-05-02T14:38:28.998Z</time></trkpt><trkpt lat="44.14317865465231" lon="10.09037585535354"><ele>327.5</ele><time>2026-05-02T14:38:29.998Z</time></trkpt><trkpt lat="44.14326276992601" lon="10.090531281355528"><ele>328.25</ele><time>2026-05-02T14:38:30.998Z</time></trkpt><trkpt lat="44.14335508180871" lon="10.090678028658784"><ele>329.0</ele><time>2026-05-02T14:38:31.998Z</time></trkpt><trkpt lat="44.14344979967528" lon="10.090823411358617"><ele>327.5</ele><time>2026-05-02T14:38:32.998Z</time></trkpt><trkpt lat="44.14354117204104" lon="10.090970814772508"><ele>326.0</ele><time>2026-05-02T14:38:33.998Z</time></trkpt><trkpt lat="44.143613388341414" lon="10.09113015134857"><ele>324.5</ele><time>2026-05-02T14:38:34.998Z</time></trkpt><trkpt lat="44.14367628889664" lon="10.091300531176621"><ele>323.0</ele><time>2026-05-02T14:38:35.998Z</time></trkpt><trkpt lat="44.143711893930956" lon="10.091476565127655"><ele>322.5</ele><time>2026-05-02T14:38:36.998Z</time></trkpt><trkpt lat="44.14374827811031" lon="10.091652211635004"><ele>322.0</ele><time>2026-05-02T14:38:37.998Z</time></trkpt><trkpt lat="44.14382913315378" lon="10.091805641150646"><ele>321.5</ele><time>2026-05-02T14:38:38.998Z</time></trkpt><trkpt lat="44.14393807668799" lon="10.091921497743206"><ele>321.0</ele><time>2026-05-02T14:38:39.998Z</time></trkpt><trkpt lat="44.14402755378434" lon="10.092025534670588"><ele>327.8</ele><time>2026-05-02T14:38:40.998Z</time></trkpt><trkpt lat="44.14408842765491" lon="10.092147205808722"><ele>334.6</ele><time>2026-05-02T14:38:41.998Z</time></trkpt><trkpt lat="44.14410813333782" lon="10.092294054316737"><ele>341.4</ele><time>2026-05-02T14:38:42.998Z</time></trkpt><trkpt lat="44.14414417858137" lon="10.092447607434298"><ele>348.2</ele><time>2026-05-02T14:38:43.998Z</time></trkpt><trkpt lat="44.144180578093334" lon="10.092600848683752"><ele>355.0</ele><time>2026-05-02T14:38:44.998Z</time></trkpt><trkpt lat="44.144216233913944" lon="10.092754097326255"><ele>355.0</ele><time>2026-05-02T14:38:45.998Z</time></trkpt><trkpt lat="44.144241597618155" lon="10.09291522510123"><ele>355.0</ele><time>2026-05-02T14:38:46.998Z</time></trkpt><trkpt lat="44.144252869893286" lon="10.093082612534475"><ele>355.0</ele><time>2026-05-02T14:38:47.998Z</time></trkpt><trkpt lat="44.144222190571725" lon="10.09323905293536"><ele>355.0</ele><time>2026-05-02T14:38:48.998Z</time></trkpt><trkpt lat="44.14419568179548" lon="10.093374647086112"><ele>354.8</ele><time>2026-05-02T14:38:49.998Z</time></trkpt><trkpt lat="44.14418060188121" lon="10.093499486320809"><ele>354.6</ele><time>2026-05-02T14:38:50.998Z</time></trkpt><trkpt lat="44.14422770950468" lon="10.09361048948924"><ele>354.4</ele><time>2026-05-02T14:38:51.998Z</time></trkpt><trkpt lat="44.144316231886286" lon="10.093667755721693"><ele>354.2</ele><time>2026-05-02T14:38:53Z</time></trkpt><trkpt lat="44.14441731836015" lon="10.093622885110412"><ele>354.0</ele><time>2026-05-02T14:38:54Z</time></trkpt><trkpt lat="44.14448147075299" lon="10.093539419015304"><ele>354.0</ele><time>2026-05-02T14:38:55Z</time></trkpt><trkpt lat="44.144497034168886" lon="10.093417247137593"><ele>354.0</ele><time>2026-05-02T14:38:56Z</time></trkpt><trkpt lat="44.14446786566392" lon="10.093303312503934"><ele>354.0</ele><time>2026-05-02T14:38:57Z</time></trkpt><trkpt lat="44.1444576622263" lon="10.093153930135257"><ele>354.0</ele><time>2026-05-02T14:38:58Z</time></trkpt><trkpt lat="44.14443172311204" lon="10.09295913276737"><ele>354.0</ele><time>2026-05-02T14:38:59Z</time></trkpt><trkpt lat="44.14442456553999" lon="10.09277239427107"><ele>354.25</ele><time>2026-05-02T14:39:00Z</time></trkpt><trkpt lat="44.144452083756036" lon="10.092577453161594"><ele>354.5</ele><time>2026-05-02T14:39:01Z</time></trkpt><trkpt lat="44.14447970131643" lon="10.092387401446315"><ele>354.75</ele><time>2026-05-02T14:39:02Z</time></trkpt><trkpt lat="44.14450757581179" lon="10.092219948972849"><ele>355.0</ele><time>2026-05-02T14:39:03Z</time></trkpt><trkpt lat="44.14450143011438" lon="10.09205117574106"><ele>355.75</ele><time>2026-05-02T14:39:04Z</time></trkpt><trkpt lat="44.1444324067606" lon="10.091891937661902"><ele>356.5</ele><time>2026-05-02T14:39:05Z</time></trkpt><trkpt lat="44.14435230649237" lon="10.091756532776786"><ele>357.25</ele><time>2026-05-02T14:39:06Z</time></trkpt><trkpt lat="44.14428066181882" lon="10.091627813936292"><ele>358.0</ele><time>2026-05-02T14:39:07Z</time></trkpt><trkpt lat="44.1442402861656" lon="10.091486615459873"><ele>359.59999999999997</ele><time>2026-05-02T14:39:08Z</time></trkpt><trkpt lat="44.144221399710794" lon="10.091329495041201"><ele>361.2</ele><time>2026-05-02T14:39:09Z</time></trkpt><trkpt lat="44.144215201464014" lon="10.091169105482576"><ele>362.8</ele><time>2026-05-02T14:39:10Z</time></trkpt><trkpt lat="44.14421591917546" lon="10.091022532158124"><ele>364.4</ele><time>2026-05-02T14:39:11Z</time></trkpt><trkpt lat="44.14422124771287" lon="10.090871767703293"><ele>366.0</ele><time>2026-05-02T14:39:12Z</time></trkpt><trkpt lat="44.14428708549831" lon="10.09073339737348"><ele>366.0</ele><time>2026-05-02T14:39:13Z</time></trkpt><trkpt lat="44.144349831383245" lon="10.090579352632234"><ele>366.0</ele><time>2026-05-02T14:39:14Z</time></trkpt><trkpt lat="44.14438976757874" lon="10.0904044254286"><ele>366.0</ele><time>2026-05-02T14:39:15Z</time></trkpt><trkpt lat="44.14441504304698" lon="10.090228538374662"><ele>366.0</ele><time>2026-05-02T14:39:16Z</time></trkpt><trkpt lat="44.14441558525832" lon="10.09003645004719"><ele>367.5</ele><time>2026-05-02T14:39:17Z</time></trkpt><trkpt lat="44.144409847634556" lon="10.089846806989646"><ele>369.0</ele><time>2026-05-02T14:39:18Z</time></trkpt><trkpt lat="44.144367390508414" lon="10.089697659553845"><ele>370.5</ele><time>2026-05-02T14:39:19Z</time></trkpt><trkpt lat="44.14431913195509" lon="10.089563039164725"><ele>372.0</ele><time>2026-05-02T14:39:20Z</time></trkpt><trkpt lat="44.14428186839102" lon="10.08944766745088"><ele>372.0</ele><time>2026-05-02T14:39:21Z</time></trkpt><trkpt lat="44.14426565118875" lon="10.089354741767172"><ele>372.0</ele><time>2026-05-02T14:39:22Z</time></trkpt><trkpt lat="44.14431214892448" lon="10.08928431315659"><ele>372.0</ele><time>2026-05-02T14:39:23Z</time></trkpt><trkpt lat="44.1443772604673" lon="10.089279171719735"><ele>372.0</ele><time>2026-05-02T14:39:24Z</time></trkpt><trkpt lat="44.14444295584943" lon="10.089332074673848"><ele>372.0</ele><time>2026-05-02T14:39:25Z</time></trkpt><trkpt lat="44.14446103038768" lon="10.089457752643863"><ele>372.0</ele><time>2026-05-02T14:39:26Z</time></trkpt><trkpt lat="44.14449498757158" lon="10.089567397834433"><ele>372.0</ele><time>2026-05-02T14:39:27Z</time></trkpt><trkpt lat="44.144532300912786" lon="10.089689923975852"><ele>372.0</ele><time>2026-05-02T14:39:28Z</time></trkpt><trkpt lat="44.144565432233236" lon="10.089820981307154"><ele>372.0</ele><time>2026-05-02T14:39:29Z</time></trkpt><trkpt lat="44.14458857627374" lon="10.089963755299218"><ele>372.0</ele><time>2026-05-02T14:39:30Z</time></trkpt><trkpt lat="44.14459875417614" lon="10.090121198060585"><ele>372.0</ele><time>2026-05-02T14:39:31Z</time></trkpt><trkpt lat="44.14462356563237" lon="10.090284581888286"><ele>371.25</ele><time>2026-05-02T14:39:32Z</time></trkpt><trkpt lat="44.14462584121477" lon="10.090451924086263"><ele>370.5</ele><time>2026-05-02T14:39:33Z</time></trkpt><trkpt lat="44.14462949548886" lon="10.090620519288327"><ele>369.75</ele><time>2026-05-02T14:39:34Z</time></trkpt><trkpt lat="44.144635412336086" lon="10.090793239854875"><ele>369.0</ele><time>2026-05-02T14:39:35Z</time></trkpt><trkpt lat="44.14464713413193" lon="10.090966400224167"><ele>369.0</ele><time>2026-05-02T14:39:36Z</time></trkpt><trkpt lat="44.14467640584849" lon="10.091141595944688"><ele>369.0</ele><time>2026-05-02T14:39:37Z</time></trkpt><trkpt lat="44.14472727411038" lon="10.091312191481522"><ele>369.0</ele><time>2026-05-02T14:39:38Z</time></trkpt><trkpt lat="44.14480160140935" lon="10.091483719348028"><ele>369.0</ele><time>2026-05-02T14:39:39Z</time></trkpt><trkpt lat="44.144882262702076" lon="10.091648768520963"><ele>378.75</ele><time>2026-05-02T14:39:40Z</time></trkpt><trkpt lat="44.14496822520295" lon="10.091817523719165"><ele>388.5</ele><time>2026-05-02T14:39:41Z</time></trkpt><trkpt lat="44.14504921375169" lon="10.091984637310878"><ele>398.25</ele><time>2026-05-02T14:39:41.999Z</time></trkpt><trkpt lat="44.145116984451306" lon="10.092141528203573"><ele>408.0</ele><time>2026-05-02T14:39:42.999Z</time></trkpt><trkpt lat="44.145155316844324" lon="10.092290070160306"><ele>406.59999999999997</ele><time>2026-05-02T14:39:43.999Z</time></trkpt><trkpt lat="44.145154422618596" lon="10.092431517439735"><ele>405.2</ele><time>2026-05-02T14:39:44.999Z</time></trkpt><trkpt lat="44.145114142588646" lon="10.092563830521852"><ele>403.8</ele><time>2026-05-02T14:39:45.999Z</time></trkpt><trkpt lat="44.145059350267964" lon="10.092699564242984"><ele>402.4</ele><time>2026-05-02T14:39:46.999Z</time></trkpt><trkpt lat="44.14505994159563" lon="10.092839556855248"><ele>401.0</ele><time>2026-05-02T14:39:47.999Z</time></trkpt><trkpt lat="44.145110683522134" lon="10.092979938342715"><ele>401.0</ele><time>2026-05-02T14:39:48.999Z</time></trkpt><trkpt lat="44.14519090933901" lon="10.09311020300046"><ele>401.0</ele><time>2026-05-02T14:39:49.999Z</time></trkpt><trkpt lat="44.14525754242306" lon="10.093251762821085"><ele>401.0</ele><time>2026-05-02T14:39:50.999Z</time></trkpt><trkpt lat="44.14532153512344" lon="10.093396240383418"><ele>401.0</ele><time>2026-05-02T14:39:51.999Z</time></trkpt><trkpt lat="44.14538510093048" lon="10.093539885845793"><ele>399.0</ele><time>2026-05-02T14:39:52.999Z</time></trkpt><trkpt lat="44.14544654359687" lon="10.093691880245755"><ele>397.0</ele><time>2026-05-02T14:39:53.999Z</time></trkpt><trkpt lat="44.14549551510959" lon="10.093851269448088"><ele>395.0</ele><time>2026-05-02T14:39:54.999Z</time></trkpt><trkpt lat="44.14552764053775" lon="10.094012900575057"><ele>393.0</ele><time>2026-05-02T14:39:55.999Z</time></trkpt><trkpt lat="44.14554629680484" lon="10.09417785751691"><ele>391.59999999999997</ele><time>2026-05-02T14:39:56.999Z</time></trkpt><trkpt lat="44.14557295053808" lon="10.094337378391444"><ele>390.2</ele><time>2026-05-02T14:39:57.999Z</time></trkpt><trkpt lat="44.145616449634396" lon="10.094479334804893"><ele>388.8</ele><time>2026-05-02T14:39:58.999Z</time></trkpt><trkpt lat="44.145683528894494" lon="10.09459175392782"><ele>387.4</ele><time>2026-05-02T14:39:59.999Z</time></trkpt><trkpt lat="44.14577075172625" lon="10.094661556782977"><ele>386.0</ele><time>2026-05-02T14:40:00.999Z</time></trkpt><trkpt lat="44.14586731675534" lon="10.094712104679502"><ele>394.20000000000005</ele><time>2026-05-02T14:40:01.999Z</time></trkpt><trkpt lat="44.1459432785992" lon="10.094803168693247"><ele>402.40000000000003</ele><time>2026-05-02T14:40:02.999Z</time></trkpt><trkpt lat="44.14597248573108" lon="10.094924370895624"><ele>410.6</ele><time>2026-05-02T14:40:03.999Z</time></trkpt><trkpt lat="44.145972235991565" lon="10.095061491002934"><ele>418.8</ele><time>2026-05-02T14:40:04.999Z</time></trkpt><trkpt lat="44.145955856284495" lon="10.095211680452971"><ele>427.0</ele><time>2026-05-02T14:40:05.999Z</time></trkpt><trkpt lat="44.14594198960226" lon="10.095372012058055"><ele>427.0</ele><time>2026-05-02T14:40:06.999Z</time></trkpt><trkpt lat="44.14593387159441" lon="10.09553536060645"><ele>427.0</ele><time>2026-05-02T14:40:07.999Z</time></trkpt><trkpt lat="44.14592358869443" lon="10.095696156013672"><ele>427.0</ele><time>2026-05-02T14:40:08.999Z</time></trkpt><trkpt lat="44.14591664667766" lon="10.095850366317558"><ele>427.0</ele><time>2026-05-02T14:40:09.999Z</time></trkpt><trkpt lat="44.14591127599863" lon="10.096000297872544"><ele>427.20000000000005</ele><time>2026-05-02T14:40:10.999Z</time></trkpt><trkpt lat="44.14590633232393" lon="10.09615081482608"><ele>427.40000000000003</ele><time>2026-05-02T14:40:11.999Z</time></trkpt><trkpt lat="44.14590059690585" lon="10.096302684656514"><ele>427.59999999999997</ele><time>2026-05-02T14:40:12.999Z</time></trkpt><trkpt lat="44.14588936594923" lon="10.096460432957548"><ele>427.79999999999995</ele><time>2026-05-02T14:40:13.999Z</time></trkpt><trkpt lat="44.14586861325918" lon="10.09662125992668"><ele>428.0</ele><time>2026-05-02T14:40:14.999Z</time></trkpt><trkpt lat="44.14581800911494" lon="10.096773726657922"><ele>429.75</ele><time>2026-05-02T14:40:15.999Z</time></trkpt><trkpt lat="44.145755280890015" lon="10.096909389554776"><ele>431.5</ele><time>2026-05-02T14:40:16.999Z</time></trkpt><trkpt lat="44.14569360036668" lon="10.097039339812651"><ele>433.25</ele><time>2026-05-02T14:40:17.999Z</time></trkpt><trkpt lat="44.145628468551735" lon="10.097170512355083"><ele>435.0</ele><time>2026-05-02T14:40:18.999Z</time></trkpt><trkpt lat="44.14556696047674" lon="10.097295812920251"><ele>428.0</ele><time>2026-05-02T14:40:19.999Z</time></trkpt><trkpt lat="44.14551969600829" lon="10.097411502786368"><ele>421.0</ele><time>2026-05-02T14:40:20.999Z</time></trkpt><trkpt lat="44.14549784537298" lon="10.097538062656506"><ele>414.0</ele><time>2026-05-02T14:40:21.999Z</time></trkpt><trkpt lat="44.14551905975147" lon="10.097673467455063"><ele>407.0</ele><time>2026-05-02T14:40:22.999Z</time></trkpt><trkpt lat="44.14557391243809" lon="10.097798953541085"><ele>400.0</ele><time>2026-05-02T14:40:23.999Z</time></trkpt><trkpt lat="44.1456514331661" lon="10.097935106434711"><ele>408.4</ele><time>2026-05-02T14:40:24.999Z</time></trkpt><trkpt lat="44.14571491826031" lon="10.09807174018018"><ele>416.8</ele><time>2026-05-02T14:40:25.999Z</time></trkpt><trkpt lat="44.14577553864878" lon="10.09819884696543"><ele>425.20000000000005</ele><time>2026-05-02T14:40:26.999Z</time></trkpt><trkpt lat="44.14584943269052" lon="10.0983148816647"><ele>433.6</ele><time>2026-05-02T14:40:27.999Z</time></trkpt><trkpt lat="44.145921931147335" lon="10.098427287721183"><ele>442.0</ele><time>2026-05-02T14:40:28.999Z</time></trkpt><trkpt lat="44.14599343431772" lon="10.098536439171292"><ele>442.0</ele><time>2026-05-02T14:40:29.998Z</time></trkpt><trkpt lat="44.14605044093697" lon="10.098656071780809"><ele>442.00000000000006</ele><time>2026-05-02T14:40:30.998Z</time></trkpt><trkpt lat="44.14613010748754" lon="10.098750893836044"><ele>442.00000000000006</ele><time>2026-05-02T14:40:31.998Z</time></trkpt><trkpt lat="44.146198707828184" lon="10.098858179198288"><ele>442.0</ele><time>2026-05-02T14:40:32.998Z</time></trkpt><trkpt lat="44.14625521731311" lon="10.098979972217949"><ele>442.0</ele><time>2026-05-02T14:40:33.998Z</time></trkpt><trkpt lat="44.14632760335623" lon="10.099076581817611"><ele>443.0</ele><time>2026-05-02T14:40:34.998Z</time></trkpt><trkpt lat="44.14638423039326" lon="10.099189606043192"><ele>444.00000000000006</ele><time>2026-05-02T14:40:35.998Z</time></trkpt><trkpt lat="44.14646144993124" lon="10.099282570316557"><ele>445.00000000000006</ele><time>2026-05-02T14:40:36.998Z</time></trkpt><trkpt lat="44.14655263193721" lon="10.099364226883841"><ele>446.0</ele><time>2026-05-02T14:40:37.998Z</time></trkpt><trkpt lat="44.14665328988119" lon="10.099434469287456"><ele>447.0</ele><time>2026-05-02T14:40:38.998Z</time></trkpt><trkpt lat="44.146761734326155" lon="10.09949834941764"><ele>447.0</ele><time>2026-05-02T14:40:39.998Z</time></trkpt><trkpt lat="44.14687703409076" lon="10.099558228638081"><ele>447.0</ele><time>2026-05-02T14:40:40.998Z</time></trkpt><trkpt lat="44.14698879540861" lon="10.099615465007505"><ele>447.0</ele><time>2026-05-02T14:40:41.998Z</time></trkpt><trkpt lat="44.147095369243" lon="10.09967425958727"><ele>447.0</ele><time>2026-05-02T14:40:42.998Z</time></trkpt><trkpt lat="44.147195698926424" lon="10.099728432353462"><ele>447.0</ele><time>2026-05-02T14:40:43.998Z</time></trkpt><trkpt lat="44.147295007975536" lon="10.09977946620283"><ele>447.00000000000006</ele><time>2026-05-02T14:40:44.998Z</time></trkpt><trkpt lat="44.147390452159605" lon="10.099827908325135"><ele>447.00000000000006</ele><time>2026-05-02T14:40:45.998Z</time></trkpt><trkpt lat="44.14749085828369" lon="10.099880365054707"><ele>447.0</ele><time>2026-05-02T14:40:46.998Z</time></trkpt><trkpt lat="44.14759319566183" lon="10.099931936406968"><ele>447.0</ele><time>2026-05-02T14:40:47.998Z</time></trkpt><trkpt lat="44.1476965798089" lon="10.099985803668993"><ele>447.0</ele><time>2026-05-02T14:40:48.998Z</time></trkpt><trkpt lat="44.147791256720076" lon="10.100058007779097"><ele>447.00000000000006</ele><time>2026-05-02T14:40:49.998Z</time></trkpt><trkpt lat="44.14786586632239" lon="10.100154551660447"><ele>447.00000000000006</ele><time>2026-05-02T14:40:50.998Z</time></trkpt><trkpt lat="44.14792150297682" lon="10.100269751758102"><ele>447.0</ele><time>2026-05-02T14:40:51.998Z</time></trkpt><trkpt lat="44.147953401512964" lon="10.100413471974173"><ele>447.0</ele><time>2026-05-02T14:40:52.998Z</time></trkpt><trkpt lat="44.14799801081457" lon="10.100557101561984"><ele>447.0</ele><time>2026-05-02T14:40:53.998Z</time></trkpt><trkpt lat="44.148059533763025" lon="10.100701357634062"><ele>447.00000000000006</ele><time>2026-05-02T14:40:54.998Z</time></trkpt><trkpt lat="44.1481036604858" lon="10.10084757622038"><ele>447.00000000000006</ele><time>2026-05-02T14:40:55.998Z</time></trkpt><trkpt lat="44.14814772675407" lon="10.100984955968979"><ele>447.0</ele><time>2026-05-02T14:40:56.998Z</time></trkpt><trkpt lat="44.14819219195106" lon="10.101112273509658"><ele>447.0</ele><time>2026-05-02T14:40:57.998Z</time></trkpt><trkpt lat="44.14822518931272" lon="10.101246595543774"><ele>448.40000000000003</ele><time>2026-05-02T14:40:59Z</time></trkpt><trkpt lat="44.14828792861977" lon="10.101362500067912"><ele>449.80000000000007</ele><time>2026-05-02T14:41:00Z</time></trkpt><trkpt lat="44.148367941600554" lon="10.101460462150177"><ele>451.2</ele><time>2026-05-02T14:41:01Z</time></trkpt><trkpt lat="44.148466359907154" lon="10.101531789446636"><ele>452.6</ele><time>2026-05-02T14:41:02Z</time></trkpt><trkpt lat="44.14858320768939" lon="10.10155707172934"><ele>454.0</ele><time>2026-05-02T14:41:03Z</time></trkpt><trkpt lat="44.148700088546235" lon="10.101596138288576"><ele>454.0</ele><time>2026-05-02T14:41:04Z</time></trkpt><trkpt lat="44.1488211466412" lon="10.101636038667424"><ele>454.0</ele><time>2026-05-02T14:41:05Z</time></trkpt><trkpt lat="44.148946892447896" lon="10.101681770077322"><ele>454.0</ele><time>2026-05-02T14:41:06Z</time></trkpt><trkpt lat="44.14907770109928" lon="10.101724024910304"><ele>454.0</ele><time>2026-05-02T14:41:07Z</time></trkpt><trkpt lat="44.14921095560482" lon="10.101758372111242"><ele>451.0</ele><time>2026-05-02T14:41:08Z</time></trkpt><trkpt lat="44.14934218801092" lon="10.101808565672691"><ele>448.0</ele><time>2026-05-02T14:41:09Z</time></trkpt><trkpt lat="44.14948085197917" lon="10.101805711141893"><ele>445.0</ele><time>2026-05-02T14:41:10Z</time></trkpt><trkpt lat="44.14961212730018" lon="10.10178155600253"><ele>442.0</ele><time>2026-05-02T14:41:11Z</time></trkpt><trkpt lat="44.14972847923798" lon="10.101736925483772"><ele>442.0</ele><time>2026-05-02T14:41:12Z</time></trkpt><trkpt lat="44.149847204992895" lon="10.101717140484833"><ele>442.0</ele><time>2026-05-02T14:41:13Z</time></trkpt><trkpt lat="44.14996400201805" lon="10.101693774110155"><ele>442.0</ele><time>2026-05-02T14:41:14Z</time></trkpt><trkpt lat="44.150077712615385" lon="10.10166526266677"><ele>442.0</ele><time>2026-05-02T14:41:15Z</time></trkpt><trkpt lat="44.1501868470852" lon="10.101630189617246"><ele>441.0</ele><time>2026-05-02T14:41:16Z</time></trkpt><trkpt lat="44.15029274737958" lon="10.101595989365123"><ele>440.00000000000006</ele><time>2026-05-02T14:41:17Z</time></trkpt><trkpt lat="44.15039506891072" lon="10.101564666190313"><ele>439.00000000000006</ele><time>2026-05-02T14:41:18Z</time></trkpt><trkpt lat="44.15049379189531" lon="10.101537968231584"><ele>438.0</ele><time>2026-05-02T14:41:19Z</time></trkpt><trkpt lat="44.150588073935246" lon="10.101503777729544"><ele>437.0</ele><time>2026-05-02T14:41:20Z</time></trkpt><trkpt lat="44.15068283783535" lon="10.101482380364216"><ele>435.8</ele><time>2026-05-02T14:41:21Z</time></trkpt><trkpt lat="44.150770454743885" lon="10.101505676087335"><ele>434.6</ele><time>2026-05-02T14:41:22Z</time></trkpt><trkpt lat="44.1508511073167" lon="10.101571326021672"><ele>433.40000000000003</ele><time>2026-05-02T14:41:23Z</time></trkpt><trkpt lat="44.15093230971845" lon="10.101647852693747"><ele>432.20000000000005</ele><time>2026-05-02T14:41:24Z</time></trkpt><trkpt lat="44.15100517491935" lon="10.101758615045588"><ele>431.0</ele><time>2026-05-02T14:41:25Z</time></trkpt><trkpt lat="44.15109237537318" lon="10.101849858973194"><ele>434.5</ele><time>2026-05-02T14:41:26Z</time></trkpt><trkpt lat="44.15118910074473" lon="10.101928317188055"><ele>438.0</ele><time>2026-05-02T14:41:27Z</time></trkpt><trkpt lat="44.15128290298363" lon="10.102025618053403"><ele>441.5</ele><time>2026-05-02T14:41:28Z</time></trkpt><trkpt lat="44.15137761218606" lon="10.10211650104796"><ele>445.0</ele><time>2026-05-02T14:41:29Z</time></trkpt><trkpt lat="44.151471021397" lon="10.102199943722317"><ele>445.4</ele><time>2026-05-02T14:41:30Z</time></trkpt><trkpt lat="44.15155739116018" lon="10.10228480636119"><ele>445.8</ele><time>2026-05-02T14:41:31Z</time></trkpt><trkpt lat="44.15164467461533" lon="10.10235971283129"><ele>446.20000000000005</ele><time>2026-05-02T14:41:32Z</time></trkpt><trkpt lat="44.15174131540141" lon="10.102427180064533"><ele>446.6</ele><time>2026-05-02T14:41:33Z</time></trkpt><trkpt lat="44.151841432126815" lon="10.102511167436917"><ele>447.0</ele><time>2026-05-02T14:41:34Z</time></trkpt><trkpt lat="44.15195851117395" lon="10.102556239303171"><ele>447.0</ele><time>2026-05-02T14:41:35Z</time></trkpt><trkpt lat="44.15207370332534" lon="10.102593433560527"><ele>447.0</ele><time>2026-05-02T14:41:36Z</time></trkpt><trkpt lat="44.15218917915756" lon="10.102607437784663"><ele>447.0</ele><time>2026-05-02T14:41:37Z</time></trkpt><trkpt lat="44.152300031056505" lon="10.102646711761489"><ele>447.0</ele><time>2026-05-02T14:41:38Z</time></trkpt><trkpt lat="44.1524055102381" lon="10.10267995568474"><ele>445.20000000000005</ele><time>2026-05-02T14:41:39Z</time></trkpt><trkpt lat="44.15250363992206" lon="10.102732255637276"><ele>443.40000000000003</ele><time>2026-05-02T14:41:40Z</time></trkpt><trkpt lat="44.15261266744078" lon="10.102719005338328"><ele>441.59999999999997</ele><time>2026-05-02T14:41:41Z</time></trkpt><trkpt lat="44.15272211161878" lon="10.102736761031283"><ele>439.79999999999995</ele><time>2026-05-02T14:41:42Z</time></trkpt><trkpt lat="44.15283685456224" lon="10.10274605607954"><ele>438.0</ele><time>2026-05-02T14:41:43Z</time></trkpt><trkpt lat="44.152952986747735" lon="10.10276192553186"><ele>438.0</ele><time>2026-05-02T14:41:44Z</time></trkpt><trkpt lat="44.15305099452706" lon="10.102772990671555"><ele>438.0</ele><time>2026-05-02T14:41:45Z</time></trkpt><trkpt lat="44.15312977363645" lon="10.102779024052932"><ele>438.0</ele><time>2026-05-02T14:41:46Z</time></trkpt><trkpt lat="44.153206287590145" lon="10.10278556866577"><ele>438.0</ele><time>2026-05-02T14:41:47Z</time></trkpt><trkpt lat="44.15329848949443" lon="10.10279457444583"><ele>438.0</ele><time>2026-05-02T14:41:48.999Z</time></trkpt><trkpt lat="44.153393846156206" lon="10.102810321999486"><ele>438.0</ele><time>2026-05-02T14:41:51.999Z</time></trkpt><trkpt lat="44.15348425632002" lon="10.102818791242028"><ele>437.79999999999995</ele><time>2026-05-02T14:41:53.999Z</time></trkpt><trkpt lat="44.153584374163025" lon="10.102839149012429"><ele>437.59999999999997</ele><time>2026-05-02T14:41:55.999Z</time></trkpt><trkpt lat="44.15365838829989" lon="10.102870744305148"><ele>437.40000000000003</ele><time>2026-05-02T14:41:57.999Z</time></trkpt><trkpt lat="44.15372891252418" lon="10.1029204389991"><ele>437.20000000000005</ele><time>2026-05-02T14:41:59.999Z</time></trkpt><trkpt lat="44.153789672404244" lon="10.10306596272656"><ele>437.0</ele><time>2026-05-02T14:42:01.999Z</time></trkpt><trkpt lat="44.15377305354355" lon="10.103170509214877"><ele>440.40000000000003</ele><time>2026-05-02T14:42:02.999Z</time></trkpt><trkpt lat="44.153755747436946" lon="10.103287874251114"><ele>443.80000000000007</ele><time>2026-05-02T14:42:03.999Z</time></trkpt><trkpt lat="44.153752612775904" lon="10.103411007312664"><ele>447.2</ele><time>2026-05-02T14:42:04.999Z</time></trkpt><trkpt lat="44.15377437657702" lon="10.103545047000043"><ele>450.6</ele><time>2026-05-02T14:42:05.999Z</time></trkpt><trkpt lat="44.15387405220008" lon="10.1036343888949"><ele>454.0</ele><time>2026-05-02T14:42:06.999Z</time></trkpt><trkpt lat="44.15396250225843" lon="10.10369769027395"><ele>452.4</ele><time>2026-05-02T14:42:07.999Z</time></trkpt><trkpt lat="44.15406051562831" lon="10.103738015184303"><ele>450.79999999999995</ele><time>2026-05-02T14:42:08.999Z</time></trkpt><trkpt lat="44.15414412545794" lon="10.103812892009778"><ele>449.20000000000005</ele><time>2026-05-02T14:42:09.999Z</time></trkpt><trkpt lat="44.154202966515875" lon="10.103942076133931"><ele>447.6</ele><time>2026-05-02T14:42:10.999Z</time></trkpt><trkpt lat="44.15426530699767" lon="10.104068681604499"><ele>446.0</ele><time>2026-05-02T14:42:11.999Z</time></trkpt><trkpt lat="44.15434157453038" lon="10.104194081362506"><ele>446.0</ele><time>2026-05-02T14:42:12.999Z</time></trkpt><trkpt lat="44.1544380964683" lon="10.10430643113336"><ele>446.0</ele><time>2026-05-02T14:42:13.999Z</time></trkpt><trkpt lat="44.154550070525524" lon="10.104383739525169"><ele>446.0</ele><time>2026-05-02T14:42:14.999Z</time></trkpt><trkpt lat="44.15465542362362" lon="10.10444482633537"><ele>446.0</ele><time>2026-05-02T14:42:15.999Z</time></trkpt><trkpt lat="44.15476238329874" lon="10.104497603118482"><ele>438.75</ele><time>2026-05-02T14:42:16.999Z</time></trkpt><trkpt lat="44.154875485004304" lon="10.104531803063256"><ele>431.5</ele><time>2026-05-02T14:42:17.999Z</time></trkpt><trkpt lat="44.154981884573644" lon="10.104590112733867"><ele>424.25</ele><time>2026-05-02T14:42:18.999Z</time></trkpt><trkpt lat="44.15508706244835" lon="10.104646628393185"><ele>417.0</ele><time>2026-05-02T14:42:19.999Z</time></trkpt><trkpt lat="44.15518846330249" lon="10.104702013992492"><ele>417.0</ele><time>2026-05-02T14:42:20.999Z</time></trkpt><trkpt lat="44.15528778164016" lon="10.104751327936178"><ele>417.0</ele><time>2026-05-02T14:42:21.999Z</time></trkpt><trkpt lat="44.15538551447848" lon="10.10480712062297"><ele>417.0</ele><time>2026-05-02T14:42:22.999Z</time></trkpt><trkpt lat="44.15548855569732" lon="10.104874900127117"><ele>417.0</ele><time>2026-05-02T14:42:23.999Z</time></trkpt><trkpt lat="44.155576310336606" lon="10.105001407268752"><ele>418.0</ele><time>2026-05-02T14:42:24.999Z</time></trkpt><trkpt lat="44.155681785145646" lon="10.105080868900616"><ele>419.0</ele><time>2026-05-02T14:42:25.999Z</time></trkpt><trkpt lat="44.155780081998145" lon="10.105160228641695"><ele>420.0</ele><time>2026-05-02T14:42:26.999Z</time></trkpt><trkpt lat="44.155879233631666" lon="10.105218989245026"><ele>421.0</ele><time>2026-05-02T14:42:27.999Z</time></trkpt><trkpt lat="44.15597654407368" lon="10.105276514011871"><ele>422.0</ele><time>2026-05-02T14:42:28.999Z</time></trkpt><trkpt lat="44.15606927322875" lon="10.10535580026976"><ele>422.0</ele><time>2026-05-02T14:42:29.999Z</time></trkpt><trkpt lat="44.15617244458746" lon="10.10540098935529"><ele>422.0</ele><time>2026-05-02T14:42:30.999Z</time></trkpt><trkpt lat="44.156263149805376" lon="10.105485022177746"><ele>422.0</ele><time>2026-05-02T14:42:31.999Z</time></trkpt><trkpt lat="44.15636554431893" lon="10.105528544907017"><ele>422.0</ele><time>2026-05-02T14:42:32.999Z</time></trkpt><trkpt lat="44.15646431811101" lon="10.105587585577755"><ele>422.0</ele><time>2026-05-02T14:42:33.999Z</time></trkpt><trkpt lat="44.156568231773" lon="10.105624802679568"><ele>422.0</ele><time>2026-05-02T14:42:34.999Z</time></trkpt><trkpt lat="44.15667251254198" lon="10.105660838392076"><ele>422.0</ele><time>2026-05-02T14:42:35.998Z</time></trkpt><trkpt lat="44.15676632178109" lon="10.105724774783162"><ele>422.0</ele><time>2026-05-02T14:42:36.998Z</time></trkpt><trkpt lat="44.15683804747418" lon="10.105839761428488"><ele>422.0</ele><time>2026-05-02T14:42:37.998Z</time></trkpt><trkpt lat="44.15691281293584" lon="10.105952732094359"><ele>422.0</ele><time>2026-05-02T14:42:38.998Z</time></trkpt><trkpt lat="44.15699762039382" lon="10.106065242428544"><ele>422.0</ele><time>2026-05-02T14:42:39.998Z</time></trkpt><trkpt lat="44.15709762997173" lon="10.106151311477772"><ele>422.0</ele><time>2026-05-02T14:42:40.998Z</time></trkpt><trkpt lat="44.15720571978196" lon="10.106212367576335"><ele>422.0</ele><time>2026-05-02T14:42:41.998Z</time></trkpt><trkpt lat="44.15732036272389" lon="10.106267370097223"><ele>422.0</ele><time>2026-05-02T14:42:42.998Z</time></trkpt><trkpt lat="44.15741758923998" lon="10.106323423722271"><ele>421.20000000000005</ele><time>2026-05-02T14:42:43.998Z</time></trkpt><trkpt lat="44.157500091630254" lon="10.10640030402997"><ele>420.4</ele><time>2026-05-02T14:42:44.998Z</time></trkpt><trkpt lat="44.15755693900547" lon="10.106500834637739"><ele>419.6</ele><time>2026-05-02T14:42:45.998Z</time></trkpt><trkpt lat="44.15759904341631" lon="10.106616512394105"><ele>418.79999999999995</ele><time>2026-05-02T14:42:46.998Z</time></trkpt><trkpt lat="44.15763611292677" lon="10.106739319756027"><ele>418.0</ele><time>2026-05-02T14:42:47.998Z</time></trkpt><trkpt lat="44.15767772352754" lon="10.106859010743626"><ele>418.0</ele><time>2026-05-02T14:42:48.998Z</time></trkpt><trkpt lat="44.15773379491393" lon="10.106973589270416"><ele>418.0</ele><time>2026-05-02T14:42:49.998Z</time></trkpt><trkpt lat="44.157826709872" lon="10.107064884122638"><ele>418.0</ele><time>2026-05-02T14:42:50.998Z</time></trkpt><trkpt lat="44.15794334272644" lon="10.107100441618488"><ele>418.0</ele><time>2026-05-02T14:42:51.998Z</time></trkpt><trkpt lat="44.15805294672803" lon="10.107101633385675"><ele>418.0</ele><time>2026-05-02T14:42:52.998Z</time></trkpt><trkpt lat="44.15813770928315" lon="10.107180587873739"><ele>416.0</ele><time>2026-05-02T14:42:53.998Z</time></trkpt><trkpt lat="44.158216941557896" lon="10.107267361074861"><ele>414.0</ele><time>2026-05-02T14:42:54.998Z</time></trkpt><trkpt lat="44.15829613382823" lon="10.107368184457123"><ele>412.0</ele><time>2026-05-02T14:42:55.998Z</time></trkpt><trkpt lat="44.15837864856063" lon="10.10748022902224"><ele>410.0</ele><time>2026-05-02T14:42:56.998Z</time></trkpt><trkpt lat="44.15846021061408" lon="10.107593302100154"><ele>408.0</ele><time>2026-05-02T14:42:57.998Z</time></trkpt><trkpt lat="44.15853991400301" lon="10.10770926432507"><ele>408.0</ele><time>2026-05-02T14:42:58.998Z</time></trkpt><trkpt lat="44.158618000108206" lon="10.10783720696684"><ele>408.0</ele><time>2026-05-02T14:42:59.998Z</time></trkpt><trkpt lat="44.15869876684637" lon="10.107962484096909"><ele>408.0</ele><time>2026-05-02T14:43:00.998Z</time></trkpt><trkpt lat="44.158785037889196" lon="10.108069303434428"><ele>408.0</ele><time>2026-05-02T14:43:01.998Z</time></trkpt><trkpt lat="44.158879062614034" lon="10.108163220667567"><ele>405.4</ele><time>2026-05-02T14:43:02.998Z</time></trkpt><trkpt lat="44.15894626969995" lon="10.108253865953587"><ele>402.79999999999995</ele><time>2026-05-02T14:43:03.998Z</time></trkpt><trkpt lat="44.15902487873289" lon="10.10836263017812"><ele>400.2</ele><time>2026-05-02T14:43:05Z</time></trkpt><trkpt lat="44.15912704299703" lon="10.108438309580162"><ele>397.6</ele><time>2026-05-02T14:43:06Z</time></trkpt><trkpt lat="44.159211248556325" lon="10.108522094180305"><ele>395.0</ele><time>2026-05-02T14:43:07Z</time></trkpt><trkpt lat="44.15929009657059" lon="10.108606333033899"><ele>395.0</ele><time>2026-05-02T14:43:08Z</time></trkpt><trkpt lat="44.15936668432173" lon="10.108695420199245"><ele>395.0</ele><time>2026-05-02T14:43:09Z</time></trkpt><trkpt lat="44.1594398659095" lon="10.108781235250675"><ele>395.0</ele><time>2026-05-02T14:43:10Z</time></trkpt><trkpt lat="44.159513302385314" lon="10.108870706930219"><ele>395.0</ele><time>2026-05-02T14:43:11Z</time></trkpt><trkpt lat="44.15959195219395" lon="10.108957825302122"><ele>395.0</ele><time>2026-05-02T14:43:12Z</time></trkpt><trkpt lat="44.15967850503632" lon="10.109034983445216"><ele>393.2</ele><time>2026-05-02T14:43:13Z</time></trkpt><trkpt lat="44.15976560806824" lon="10.109096258469108"><ele>391.4</ele><time>2026-05-02T14:43:14Z</time></trkpt><trkpt lat="44.15985583241615" lon="10.109146513470828"><ele>389.6</ele><time>2026-05-02T14:43:15Z</time></trkpt><trkpt lat="44.15993056402832" lon="10.109225305933135"><ele>387.8</ele><time>2026-05-02T14:43:16Z</time></trkpt><trkpt lat="44.16000286710769" lon="10.109312916571778"><ele>386.0</ele><time>2026-05-02T14:43:17Z</time></trkpt><trkpt lat="44.16007199569237" lon="10.109414081281999"><ele>386.0</ele><time>2026-05-02T14:43:18Z</time></trkpt><trkpt lat="44.160154352166266" lon="10.109503014625906"><ele>386.0</ele><time>2026-05-02T14:43:19Z</time></trkpt><trkpt lat="44.16022394778297" lon="10.109610275328732"><ele>386.0</ele><time>2026-05-02T14:43:20Z</time></trkpt><trkpt lat="44.16030253629367" lon="10.109708329202455"><ele>386.0</ele><time>2026-05-02T14:43:21Z</time></trkpt><trkpt lat="44.16038531185489" lon="10.10979674559527"><ele>386.0</ele><time>2026-05-02T14:43:22Z</time></trkpt><trkpt lat="44.16043901182867" lon="10.109914227556196"><ele>382.0</ele><time>2026-05-02T14:43:23Z</time></trkpt><trkpt lat="44.16049516800848" lon="10.110034385341134"><ele>378.0</ele><time>2026-05-02T14:43:24Z</time></trkpt><trkpt lat="44.16054999828261" lon="10.110155877665967"><ele>374.0</ele><time>2026-05-02T14:43:25Z</time></trkpt><trkpt lat="44.160634565108595" lon="10.110252214543616"><ele>370.0</ele><time>2026-05-02T14:43:26Z</time></trkpt><trkpt lat="44.16068483414339" lon="10.11038230630689"><ele>366.0</ele><time>2026-05-02T14:43:27Z</time></trkpt><trkpt lat="44.160746179839805" lon="10.110503708583428"><ele>366.0</ele><time>2026-05-02T14:43:28Z</time></trkpt><trkpt lat="44.16081004638984" lon="10.110607800911707"><ele>366.0</ele><time>2026-05-02T14:43:29Z</time></trkpt><trkpt lat="44.16085709815404" lon="10.110711868968128"><ele>366.0</ele><time>2026-05-02T14:43:30Z</time></trkpt><trkpt lat="44.160915308936474" lon="10.110809660460149"><ele>366.0</ele><time>2026-05-02T14:43:31Z</time></trkpt><trkpt lat="44.16096866469852" lon="10.110917640838455"><ele>366.0</ele><time>2026-05-02T14:43:32Z</time></trkpt><trkpt lat="44.16106059103098" lon="10.110967417101193"><ele>371.4</ele><time>2026-05-02T14:43:33Z</time></trkpt><trkpt lat="44.16114305369008" lon="10.111041130107617"><ele>376.8</ele><time>2026-05-02T14:43:34Z</time></trkpt><trkpt lat="44.16123394484342" lon="10.111077029001663"><ele>382.2</ele><time>2026-05-02T14:43:35Z</time></trkpt><trkpt lat="44.161326332413296" lon="10.111093087080695"><ele>387.59999999999997</ele><time>2026-05-02T14:43:36Z</time></trkpt><trkpt lat="44.16141461738787" lon="10.111058472196968"><ele>393.0</ele><time>2026-05-02T14:43:37Z</time></trkpt><trkpt lat="44.16149733636377" lon="10.111066127623518"><ele>383.79999999999995</ele><time>2026-05-02T14:43:38Z</time></trkpt><trkpt lat="44.1615830406199" lon="10.1111055527933"><ele>374.6</ele><time>2026-05-02T14:43:39Z</time></trkpt><trkpt lat="44.16165132511268" lon="10.111215034962276"><ele>365.4</ele><time>2026-05-02T14:43:40Z</time></trkpt><trkpt lat="44.16170044965628" lon="10.111325432056761"><ele>356.20000000000005</ele><time>2026-05-02T14:43:41Z</time></trkpt><trkpt lat="44.161736158396685" lon="10.111439595883256"><ele>347.0</ele><time>2026-05-02T14:43:42Z</time></trkpt><trkpt lat="44.16174416864965" lon="10.111549014094173"><ele>347.0</ele><time>2026-05-02T14:43:43Z</time></trkpt><trkpt lat="44.16176757293748" lon="10.11163673833589"><ele>347.0</ele><time>2026-05-02T14:43:44Z</time></trkpt><trkpt lat="44.16177725128481" lon="10.11176496991236"><ele>347.0</ele><time>2026-05-02T14:43:46Z</time></trkpt><trkpt lat="44.16183105788567" lon="10.111818243725443"><ele>347.0</ele><time>2026-05-02T14:43:48Z</time></trkpt><trkpt lat="44.16189973765759" lon="10.111719986886861"><ele>347.0</ele><time>2026-05-02T14:43:49Z</time></trkpt><trkpt lat="44.16188134922337" lon="10.111511656004422"><ele>347.0</ele><time>2026-05-02T14:43:51Z</time></trkpt><trkpt lat="44.16186030153261" lon="10.111379266727733"><ele>347.0</ele><time>2026-05-02T14:43:51.999Z</time></trkpt><trkpt lat="44.1618350827358" lon="10.11125136838708"><ele>347.0</ele><time>2026-05-02T14:43:52.999Z</time></trkpt><trkpt lat="44.16180587687148" lon="10.111153093913718"><ele>347.0</ele><time>2026-05-02T14:43:53.999Z</time></trkpt><trkpt lat="44.16176999540339" lon="10.111080843082224"><ele>347.0</ele><time>2026-05-02T14:43:54.999Z</time></trkpt><trkpt lat="44.16169642311949" lon="10.110979530571433"><ele>347.0</ele><time>2026-05-02T14:43:56.999Z</time></trkpt><trkpt lat="44.161706973821154" lon="10.110872430487149"><ele>347.0</ele><time>2026-05-02T14:43:58.999Z</time></trkpt><trkpt lat="44.16180865448061" lon="10.110864281575404"><ele>347.0</ele><time>2026-05-02T14:44:00.999Z</time></trkpt><trkpt lat="44.161815575139606" lon="10.110955316248356"><ele>347.0</ele><time>2026-05-02T14:44:01.999Z</time></trkpt><trkpt lat="44.161847429753735" lon="10.111031815333488"><ele>347.0</ele><time>2026-05-02T14:44:02.999Z</time></trkpt><trkpt lat="44.161900783620176" lon="10.111115624367674"><ele>347.0</ele><time>2026-05-02T14:44:03.999Z</time></trkpt><trkpt lat="44.161935211674916" lon="10.111218776326679"><ele>347.0</ele><time>2026-05-02T14:44:04.999Z</time></trkpt><trkpt lat="44.1619826683659" lon="10.111324416441926"><ele>347.0</ele><time>2026-05-02T14:44:05.999Z</time></trkpt><trkpt lat="44.16201904135725" lon="10.111439887488274"><ele>347.0</ele><time>2026-05-02T14:44:06.999Z</time></trkpt><trkpt lat="44.162049030028044" lon="10.11155670705266"><ele>347.0</ele><time>2026-05-02T14:44:07.999Z</time></trkpt><trkpt lat="44.16205434213988" lon="10.11167339995148"><ele>347.0</ele><time>2026-05-02T14:44:08.999Z</time></trkpt><trkpt lat="44.16207643185275" lon="10.11178523945397"><ele>347.0</ele><time>2026-05-02T14:44:09.999Z</time></trkpt><trkpt lat="44.162047351537915" lon="10.111901556878559"><ele>347.0</ele><time>2026-05-02T14:44:10.999Z</time></trkpt><trkpt lat="44.16206937004966" lon="10.112023376824798"><ele>351.5</ele><time>2026-05-02T14:44:11.999Z</time></trkpt><trkpt lat="44.162145940206834" lon="10.112102118453333"><ele>356.0</ele><time>2026-05-02T14:44:12.999Z</time></trkpt><trkpt lat="44.16221252743842" lon="10.11216908648529"><ele>360.5</ele><time>2026-05-02T14:44:13.999Z</time></trkpt><trkpt lat="44.16227864711886" lon="10.1122252256051"><ele>365.0</ele><time>2026-05-02T14:44:14.999Z</time></trkpt><trkpt lat="44.162308772462126" lon="10.112304013262447"><ele>369.5</ele><time>2026-05-02T14:44:15.999Z</time></trkpt><trkpt lat="44.162347082940855" lon="10.112436505598962"><ele>374.0</ele><time>2026-05-02T14:44:17.999Z</time></trkpt><trkpt lat="44.16232558980286" lon="10.112526342047525"><ele>374.6666666666667</ele><time>2026-05-02T14:44:18.999Z</time></trkpt><trkpt lat="44.16226969131998" lon="10.11261007666412"><ele>375.33333333333337</ele><time>2026-05-02T14:44:19.999Z</time></trkpt><trkpt lat="44.16222094515774" lon="10.11269219939113"><ele>376.0</ele><time>2026-05-02T14:44:20.999Z</time></trkpt><trkpt lat="44.16215668274349" lon="10.112778908645026"><ele>376.6666666666667</ele><time>2026-05-02T14:44:21.999Z</time></trkpt><trkpt lat="44.16210859105775" lon="10.112890726921716"><ele>377.3333333333333</ele><time>2026-05-02T14:44:22.999Z</time></trkpt><trkpt lat="44.162064989865385" lon="10.113024655844988"><ele>378.0</ele><time>2026-05-02T14:44:23.999Z</time></trkpt><trkpt lat="44.16202912666958" lon="10.113168084528962"><ele>373.75</ele><time>2026-05-02T14:44:24.999Z</time></trkpt><trkpt lat="44.161972354287116" lon="10.113301889742946"><ele>369.5</ele><time>2026-05-02T14:44:25.999Z</time></trkpt><trkpt lat="44.16192291361227" lon="10.113449477619795"><ele>365.25</ele><time>2026-05-02T14:44:26.999Z</time></trkpt><trkpt lat="44.16189851211288" lon="10.113596440314593"><ele>361.0</ele><time>2026-05-02T14:44:27.999Z</time></trkpt><trkpt lat="44.1618429093563" lon="10.113733691212131"><ele>361.0</ele><time>2026-05-02T14:44:28.999Z</time></trkpt><trkpt lat="44.16180458842006" lon="10.113876301007538"><ele>361.0</ele><time>2026-05-02T14:44:29.999Z</time></trkpt><trkpt lat="44.16176776087723" lon="10.114013353364978"><ele>361.0</ele><time>2026-05-02T14:44:30.999Z</time></trkpt><trkpt lat="44.161733074048534" lon="10.114146103874258"><ele>361.0</ele><time>2026-05-02T14:44:31.999Z</time></trkpt><trkpt lat="44.16169957447647" lon="10.114275743369598"><ele>361.0</ele><time>2026-05-02T14:44:32.999Z</time></trkpt><trkpt lat="44.16167377643609" lon="10.114398510035315"><ele>363.3333333333333</ele><time>2026-05-02T14:44:33.999Z</time></trkpt><trkpt lat="44.16163135945821" lon="10.114515900253698"><ele>365.66666666666663</ele><time>2026-05-02T14:44:34.999Z</time></trkpt><trkpt lat="44.16160786931522" lon="10.114625839297695"><ele>368.0</ele><time>2026-05-02T14:44:35.999Z</time></trkpt><trkpt lat="44.161568284559635" lon="10.114725291206671"><ele>370.3333333333333</ele><time>2026-05-02T14:44:36.999Z</time></trkpt><trkpt lat="44.16152140743" lon="10.114810590464696"><ele>372.6666666666667</ele><time>2026-05-02T14:44:37.999Z</time></trkpt><trkpt lat="44.1614819311988" lon="10.114904532461589"><ele>375.0</ele><time>2026-05-02T14:44:38.999Z</time></trkpt><trkpt lat="44.161443589784355" lon="10.115003088463103"><ele>375.0</ele><time>2026-05-02T14:44:39.999Z</time></trkpt><trkpt lat="44.16146882091938" lon="10.115118260579402"><ele>375.0</ele><time>2026-05-02T14:44:40.998Z</time></trkpt><trkpt lat="44.16149910495644" lon="10.115226114908719"><ele>375.0</ele><time>2026-05-02T14:44:41.998Z</time></trkpt><trkpt lat="44.16154421598262" lon="10.115307001487379"><ele>375.0</ele><time>2026-05-02T14:44:42.998Z</time></trkpt><trkpt lat="44.16160885893115" lon="10.115350761995039"><ele>375.0</ele><time>2026-05-02T14:44:43.998Z</time></trkpt><trkpt lat="44.16169046859591" lon="10.115358806764009"><ele>375.0</ele><time>2026-05-02T14:44:44.998Z</time></trkpt><trkpt lat="44.161775386935886" lon="10.115347015152611"><ele>366.6666666666667</ele><time>2026-05-02T14:44:45.998Z</time></trkpt><trkpt lat="44.161867120571195" lon="10.115364415595383"><ele>358.3333333333333</ele><time>2026-05-02T14:44:46.998Z</time></trkpt><trkpt lat="44.16195566572772" lon="10.115359515884595"><ele>350.0</ele><time>2026-05-02T14:44:47.998Z</time></trkpt><trkpt lat="44.16203286630561" lon="10.115313656337124"><ele>341.66666666666663</ele><time>2026-05-02T14:44:48.998Z</time></trkpt><trkpt lat="44.16211043359615" lon="10.115259328627438"><ele>333.3333333333333</ele><time>2026-05-02T14:44:49.998Z</time></trkpt><trkpt lat="44.16218495326529" lon="10.115193633824228"><ele>325.0</ele><time>2026-05-02T14:44:50.998Z</time></trkpt><trkpt lat="44.16225795791871" lon="10.115144008139985"><ele>325.0</ele><time>2026-05-02T14:44:51.998Z</time></trkpt><trkpt lat="44.16232187253123" lon="10.11509037354566"><ele>325.0</ele><time>2026-05-02T14:44:52.998Z</time></trkpt><trkpt lat="44.1623855575906" lon="10.115040732474018"><ele>325.0</ele><time>2026-05-02T14:44:53.998Z</time></trkpt><trkpt lat="44.16245561803978" lon="10.115067482311394"><ele>325.0</ele><time>2026-05-02T14:44:54.998Z</time></trkpt><trkpt lat="44.16250432718775" lon="10.1152659428348"><ele>325.0</ele><time>2026-05-02T14:44:56.998Z</time></trkpt><trkpt lat="44.162562506289625" lon="10.115336022529702"><ele>325.0</ele><time>2026-05-02T14:44:57.998Z</time></trkpt><trkpt lat="44.16262887251959" lon="10.115378356141273"><ele>322.8333333333333</ele><time>2026-05-02T14:44:58.998Z</time></trkpt><trkpt lat="44.16270549154588" lon="10.115387795853765"><ele>320.66666666666663</ele><time>2026-05-02T14:44:59.998Z</time></trkpt><trkpt lat="44.162771264082835" lon="10.115337223438384"><ele>318.5</ele><time>2026-05-02T14:45:00.998Z</time></trkpt><trkpt lat="44.162826647990705" lon="10.115242216111833"><ele>316.3333333333333</ele><time>2026-05-02T14:45:01.998Z</time></trkpt><trkpt lat="44.16286597320812" lon="10.115131881775628"><ele>314.1666666666667</ele><time>2026-05-02T14:45:02.998Z</time></trkpt><trkpt lat="44.162913633735826" lon="10.115047099219415"><ele>312.0</ele><time>2026-05-02T14:45:03.998Z</time></trkpt><trkpt lat="44.162988673127906" lon="10.114997251246962"><ele>312.0</ele><time>2026-05-02T14:45:04.998Z</time></trkpt><trkpt lat="44.16308455429356" lon="10.114970960108083"><ele>312.0</ele><time>2026-05-02T14:45:05.998Z</time></trkpt><trkpt lat="44.16318819048839" lon="10.114952662526617"><ele>312.0</ele><time>2026-05-02T14:45:06.998Z</time></trkpt><trkpt lat="44.16330194568289" lon="10.114928384919686"><ele>312.0</ele><time>2026-05-02T14:45:07.998Z</time></trkpt><trkpt lat="44.16341492626329" lon="10.114891218842"><ele>312.0</ele><time>2026-05-02T14:45:08.998Z</time></trkpt><trkpt lat="44.16351781396883" lon="10.11483587030293"><ele>307.4</ele><time>2026-05-02T14:45:10Z</time></trkpt><trkpt lat="44.16360460185947" lon="10.114755545190667"><ele>302.79999999999995</ele><time>2026-05-02T14:45:11Z</time></trkpt><trkpt lat="44.163679812851676" lon="10.114671368519998"><ele>298.2</ele><time>2026-05-02T14:45:12Z</time></trkpt><trkpt lat="44.163771574207416" lon="10.114637615425455"><ele>293.59999999999997</ele><time>2026-05-02T14:45:13Z</time></trkpt><trkpt lat="44.163861137310526" lon="10.114649963407503"><ele>289.0</ele><time>2026-05-02T14:45:14Z</time></trkpt><trkpt lat="44.163929507695826" lon="10.114703778425842"><ele>289.0</ele><time>2026-05-02T14:45:15Z</time></trkpt><trkpt lat="44.163987131776906" lon="10.114801593035862"><ele>289.0</ele><time>2026-05-02T14:45:16Z</time></trkpt><trkpt lat="44.16399565405681" lon="10.114924571680696"><ele>289.0</ele><time>2026-05-02T14:45:17Z</time></trkpt><trkpt lat="44.16400858462078" lon="10.115040679140423"><ele>289.0</ele><time>2026-05-02T14:45:18Z</time></trkpt><trkpt lat="44.164007189617884" lon="10.115148259777845"><ele>289.0</ele><time>2026-05-02T14:45:19Z</time></trkpt><trkpt lat="44.16400273360222" lon="10.115255389571777"><ele>289.0</ele><time>2026-05-02T14:45:20Z</time></trkpt><trkpt lat="44.16400621763901" lon="10.115381500340934"><ele>289.3333333333333</ele><time>2026-05-02T14:45:21Z</time></trkpt><trkpt lat="44.16405822510509" lon="10.115486655421131"><ele>289.66666666666663</ele><time>2026-05-02T14:45:22Z</time></trkpt><trkpt lat="44.16412575035514" lon="10.115542857030869"><ele>290.0</ele><time>2026-05-02T14:45:23Z</time></trkpt><trkpt lat="44.1641495140101" lon="10.115638166023668"><ele>290.3333333333333</ele><time>2026-05-02T14:45:24Z</time></trkpt><trkpt lat="44.16414212164176" lon="10.115743958022204"><ele>290.6666666666667</ele><time>2026-05-02T14:45:25Z</time></trkpt><trkpt lat="44.16412465140123" lon="10.115836155226503"><ele>291.0</ele><time>2026-05-02T14:45:26Z</time></trkpt><trkpt lat="44.16414303577645" lon="10.115927135865942"><ele>293.3333333333333</ele><time>2026-05-02T14:45:27Z</time></trkpt><trkpt lat="44.164193801644196" lon="10.115997008588428"><ele>295.6666666666667</ele><time>2026-05-02T14:45:28Z</time></trkpt><trkpt lat="44.164269173379154" lon="10.116037687624154"><ele>298.0</ele><time>2026-05-02T14:45:29Z</time></trkpt><trkpt lat="44.164347702807646" lon="10.116012708130587"><ele>300.33333333333337</ele><time>2026-05-02T14:45:30Z</time></trkpt><trkpt lat="44.16442063098235" lon="10.116001128994526"><ele>302.6666666666667</ele><time>2026-05-02T14:45:31Z</time></trkpt><trkpt lat="44.164496894156535" lon="10.116000754954001"><ele>305.0</ele><time>2026-05-02T14:45:32Z</time></trkpt><trkpt lat="44.164569036682714" lon="10.11599390690002"><ele>305.0</ele><time>2026-05-02T14:45:33Z</time></trkpt><trkpt lat="44.16465427053833" lon="10.115992591208691"><ele>305.0</ele><time>2026-05-02T14:45:34Z</time></trkpt><trkpt lat="44.164727654855405" lon="10.116024053083404"><ele>305.0</ele><time>2026-05-02T14:45:35Z</time></trkpt><trkpt lat="44.16479080920874" lon="10.116104042438163"><ele>305.0</ele><time>2026-05-02T14:45:36Z</time></trkpt><trkpt lat="44.16480399846127" lon="10.116235264080595"><ele>305.0</ele><time>2026-05-02T14:45:37Z</time></trkpt><trkpt lat="44.16484143665492" lon="10.11635367830386"><ele>305.0</ele><time>2026-05-02T14:45:38Z</time></trkpt><trkpt lat="44.16491541140457" lon="10.116430829501999"><ele>302.33333333333337</ele><time>2026-05-02T14:45:39Z</time></trkpt><trkpt lat="44.16498328948244" lon="10.116509848188398"><ele>299.6666666666667</ele><time>2026-05-02T14:45:40Z</time></trkpt><trkpt lat="44.16506371283379" lon="10.116575348175168"><ele>297.0</ele><time>2026-05-02T14:45:41Z</time></trkpt><trkpt lat="44.165134806139775" lon="10.11665198522877"><ele>294.3333333333333</ele><time>2026-05-02T14:45:42Z</time></trkpt><trkpt lat="44.16519410487648" lon="10.116746133035077"><ele>291.66666666666663</ele><time>2026-05-02T14:45:43Z</time></trkpt><trkpt lat="44.16521493722677" lon="10.116855958237066"><ele>289.0</ele><time>2026-05-02T14:45:44Z</time></trkpt><trkpt lat="44.16523582737627" lon="10.116946489824409"><ele>289.0</ele><time>2026-05-02T14:45:45Z</time></trkpt><trkpt lat="44.16529714943604" lon="10.117090888369477"><ele>289.0</ele><time>2026-05-02T14:45:47Z</time></trkpt><trkpt lat="44.16533560819873" lon="10.117244194696728"><ele>289.0</ele><time>2026-05-02T14:45:49Z</time></trkpt><trkpt lat="44.16533668619489" lon="10.117411645020642"><ele>289.0</ele><time>2026-05-02T14:45:51Z</time></trkpt><trkpt lat="44.16530160829693" lon="10.117501768642626"><ele>289.0</ele><time>2026-05-02T14:45:52Z</time></trkpt><trkpt lat="44.165253303510774" lon="10.117588833307071"><ele>289.16666666666663</ele><time>2026-05-02T14:45:52.999Z</time></trkpt><trkpt lat="44.16520171577769" lon="10.117684709364017"><ele>289.3333333333333</ele><time>2026-05-02T14:45:53.999Z</time></trkpt><trkpt lat="44.16515530095268" lon="10.117793844065414"><ele>289.5</ele><time>2026-05-02T14:45:54.999Z</time></trkpt><trkpt lat="44.16510941165931" lon="10.117909738025702"><ele>289.6666666666667</ele><time>2026-05-02T14:45:55.999Z</time></trkpt><trkpt lat="44.16506265212436" lon="10.11801687421047"><ele>289.83333333333337</ele><time>2026-05-02T14:45:56.999Z</time></trkpt><trkpt lat="44.16502071560413" lon="10.118115131064592"><ele>290.0</ele><time>2026-05-02T14:45:57.999Z</time></trkpt><trkpt lat="44.16498582281729" lon="10.118218788834806"><ele>288.33333333333337</ele><time>2026-05-02T14:45:58.999Z</time></trkpt><trkpt lat="44.165017774788986" lon="10.11833156797839"><ele>286.6666666666667</ele><time>2026-05-02T14:45:59.999Z</time></trkpt><trkpt lat="44.16505539222475" lon="10.118435049670818"><ele>285.0</ele><time>2026-05-02T14:46:00.999Z</time></trkpt><trkpt lat="44.16510252488853" lon="10.118525116134906"><ele>283.3333333333333</ele><time>2026-05-02T14:46:01.999Z</time></trkpt><trkpt lat="44.16513780546613" lon="10.118626386731773"><ele>281.66666666666663</ele><time>2026-05-02T14:46:02.999Z</time></trkpt><trkpt lat="44.165171880158766" lon="10.118731119362987"><ele>280.0</ele><time>2026-05-02T14:46:03.999Z</time></trkpt><trkpt lat="44.16518943037574" lon="10.118851587309242"><ele>280.0</ele><time>2026-05-02T14:46:04.999Z</time></trkpt><trkpt lat="44.16519467920478" lon="10.118986262910894"><ele>280.0</ele><time>2026-05-02T14:46:05.999Z</time></trkpt><trkpt lat="44.165185068467345" lon="10.119105663044024"><ele>280.0</ele><time>2026-05-02T14:46:06.999Z</time></trkpt><trkpt lat="44.165145400969934" lon="10.119201418643414"><ele>280.0</ele><time>2026-05-02T14:46:07.999Z</time></trkpt><trkpt lat="44.165106517926134" lon="10.119296980088956"><ele>280.0</ele><time>2026-05-02T14:46:08.999Z</time></trkpt><trkpt lat="44.16502517217741" lon="10.119341031086002"><ele>280.0</ele><time>2026-05-02T14:46:09.999Z</time></trkpt><trkpt lat="44.16493348585486" lon="10.119305170988559"><ele>282.3333333333333</ele><time>2026-05-02T14:46:10.999Z</time></trkpt><trkpt lat="44.164847394195284" lon="10.119269987160967"><ele>284.66666666666663</ele><time>2026-05-02T14:46:11.999Z</time></trkpt><trkpt lat="44.164765298905806" lon="10.119285285105235"><ele>287.0</ele><time>2026-05-02T14:46:12.999Z</time></trkpt><trkpt lat="44.164693522217824" lon="10.119320063755186"><ele>289.3333333333333</ele><time>2026-05-02T14:46:13.999Z</time></trkpt><trkpt lat="44.16464481823461" lon="10.119390416458327"><ele>291.6666666666667</ele><time>2026-05-02T14:46:14.999Z</time></trkpt><trkpt lat="44.16465197511307" lon="10.11956639680832"><ele>294.0</ele><time>2026-05-02T14:46:16.999Z</time></trkpt><trkpt lat="44.164696229990746" lon="10.11965643578217"><ele>294.0</ele><time>2026-05-02T14:46:17.999Z</time></trkpt><trkpt lat="44.164752218525464" lon="10.119706147224605"><ele>294.0</ele><time>2026-05-02T14:46:18.999Z</time></trkpt><trkpt lat="44.16481252703761" lon="10.119735482914152"><ele>294.0</ele><time>2026-05-02T14:46:19.999Z</time></trkpt><trkpt lat="44.16488406416771" lon="10.119764395806918"><ele>294.0</ele><time>2026-05-02T14:46:20.999Z</time></trkpt><trkpt lat="44.164937677443106" lon="10.119834223541107"><ele>294.0</ele><time>2026-05-02T14:46:21.999Z</time></trkpt><trkpt lat="44.16494720014868" lon="10.119949481659392"><ele>294.0</ele><time>2026-05-02T14:46:22.999Z</time></trkpt><trkpt lat="44.16494126760309" lon="10.120063695354032"><ele>294.0</ele><time>2026-05-02T14:46:23.999Z</time></trkpt><trkpt lat="44.164959378434915" lon="10.120191194592469"><ele>287.4</ele><time>2026-05-02T14:46:24.999Z</time></trkpt><trkpt lat="44.16496465456161" lon="10.12032164684181"><ele>280.79999999999995</ele><time>2026-05-02T14:46:25.999Z</time></trkpt><trkpt lat="44.165006400518564" lon="10.12045757278053"><ele>274.20000000000005</ele><time>2026-05-02T14:46:26.999Z</time></trkpt><trkpt lat="44.16506602259958" lon="10.120586510374997"><ele>267.6</ele><time>2026-05-02T14:46:27.999Z</time></trkpt><trkpt lat="44.16512327191267" lon="10.120709078941243"><ele>261.0</ele><time>2026-05-02T14:46:28.999Z</time></trkpt><trkpt lat="44.16515521703394" lon="10.120834103357566"><ele>260.5</ele><time>2026-05-02T14:46:29.999Z</time></trkpt><trkpt lat="44.16518789015128" lon="10.120937744853606"><ele>260.0</ele><time>2026-05-02T14:46:30.999Z</time></trkpt><trkpt lat="44.16521175804311" lon="10.121042364546822"><ele>259.5</ele><time>2026-05-02T14:46:31.999Z</time></trkpt><trkpt lat="44.16519733223029" lon="10.121151477188917"><ele>259.0</ele><time>2026-05-02T14:46:32.999Z</time></trkpt><trkpt lat="44.165145801063126" lon="10.121253398360679"><ele>258.5</ele><time>2026-05-02T14:46:33.999Z</time></trkpt><trkpt lat="44.16505403788527" lon="10.121306107160814"><ele>258.0</ele><time>2026-05-02T14:46:34.999Z</time></trkpt><trkpt lat="44.164970987445756" lon="10.121381988475296"><ele>258.0</ele><time>2026-05-02T14:46:35.998Z</time></trkpt><trkpt lat="44.164873102799376" lon="10.12141645818065"><ele>258.0</ele><time>2026-05-02T14:46:36.998Z</time></trkpt><trkpt lat="44.16476180188179" lon="10.121422170785692"><ele>258.0</ele><time>2026-05-02T14:46:37.998Z</time></trkpt><trkpt lat="44.164658462030374" lon="10.121429967954695"><ele>258.0</ele><time>2026-05-02T14:46:38.998Z</time></trkpt><trkpt lat="44.16456052770586" lon="10.121417811723742"><ele>258.0</ele><time>2026-05-02T14:46:39.997Z</time></trkpt><trkpt lat="44.1644703193665" lon="10.121412558004295"><ele>259.6666666666667</ele><time>2026-05-02T14:46:40.997Z</time></trkpt><trkpt lat="44.16438593836934" lon="10.121420318474339"><ele>261.3333333333333</ele><time>2026-05-02T14:46:41.997Z</time></trkpt><trkpt lat="44.164316992053905" lon="10.121450951926631"><ele>263.0</ele><time>2026-05-02T14:46:42.997Z</time></trkpt><trkpt lat="44.164266886063935" lon="10.121510958407974"><ele>264.66666666666663</ele><time>2026-05-02T14:46:43.997Z</time></trkpt><trkpt lat="44.16424407639263" lon="10.121603507385919"><ele>266.3333333333333</ele><time>2026-05-02T14:46:44.997Z</time></trkpt><trkpt lat="44.16424841979461" lon="10.121703011315619"><ele>268.0</ele><time>2026-05-02T14:46:45.997Z</time></trkpt><trkpt lat="44.16427003482656" lon="10.121822782661924"><ele>268.0</ele><time>2026-05-02T14:46:46.997Z</time></trkpt><trkpt lat="44.16426933458652" lon="10.12195783155134"><ele>268.0</ele><time>2026-05-02T14:46:47.997Z</time></trkpt><trkpt lat="44.164281209047395" lon="10.12207895961751"><ele>268.0</ele><time>2026-05-02T14:46:48.997Z</time></trkpt><trkpt lat="44.16427914367366" lon="10.12220463397256"><ele>268.0</ele><time>2026-05-02T14:46:49.997Z</time></trkpt><trkpt lat="44.16425738127726" lon="10.122328634702868"><ele>268.0</ele><time>2026-05-02T14:46:50.997Z</time></trkpt><trkpt lat="44.16420525067427" lon="10.122458256305737"><ele>268.8333333333333</ele><time>2026-05-02T14:46:51.997Z</time></trkpt><trkpt lat="44.16416962687582" lon="10.122580437384126"><ele>269.66666666666663</ele><time>2026-05-02T14:46:52.997Z</time></trkpt><trkpt lat="44.16413167772348" lon="10.122685415183362"><ele>270.5</ele><time>2026-05-02T14:46:53.997Z</time></trkpt><trkpt lat="44.16409507213916" lon="10.122777267754852"><ele>271.3333333333333</ele><time>2026-05-02T14:46:54.997Z</time></trkpt><trkpt lat="44.164023668569484" lon="10.122814728039762"><ele>272.1666666666667</ele><time>2026-05-02T14:46:55.997Z</time></trkpt><trkpt lat="44.163939009876245" lon="10.122818469252142"><ele>273.0</ele><time>2026-05-02T14:46:56.997Z</time></trkpt><trkpt lat="44.16385838662875" lon="10.12279613638044"><ele>273.0</ele><time>2026-05-02T14:46:57.997Z</time></trkpt><trkpt lat="44.16377322819364" lon="10.122755151474115"><ele>273.0</ele><time>2026-05-02T14:46:58.997Z</time></trkpt><trkpt lat="44.163691700160676" lon="10.122744479440186"><ele>273.0</ele><time>2026-05-02T14:46:59.997Z</time></trkpt><trkpt lat="44.16361931943819" lon="10.122734356856348"><ele>273.0</ele><time>2026-05-02T14:47:00.997Z</time></trkpt><trkpt lat="44.16355525372803" lon="10.122762459587385"><ele>273.0</ele><time>2026-05-02T14:47:01.997Z</time></trkpt><trkpt lat="44.163505794562674" lon="10.122826990797696"><ele>273.0</ele><time>2026-05-02T14:47:02.997Z</time></trkpt><trkpt lat="44.1635157373953" lon="10.123000851495517"><ele>273.0</ele><time>2026-05-02T14:47:04.997Z</time></trkpt><trkpt lat="44.16356215782857" lon="10.123095430053299"><ele>273.0</ele><time>2026-05-02T14:47:05.997Z</time></trkpt><trkpt lat="44.16362697764108" lon="10.123174771555977"><ele>273.0</ele><time>2026-05-02T14:47:06.997Z</time></trkpt><trkpt lat="44.163701055125905" lon="10.123251323739785"><ele>273.0</ele><time>2026-05-02T14:47:07.997Z</time></trkpt><trkpt lat="44.16378212989261" lon="10.123341007078755"><ele>273.0</ele><time>2026-05-02T14:47:08.997Z</time></trkpt><trkpt lat="44.163855504207355" lon="10.123449048238209"><ele>273.6666666666667</ele><time>2026-05-02T14:47:09.997Z</time></trkpt><trkpt lat="44.16390643251322" lon="10.123572386277234"><ele>274.3333333333333</ele><time>2026-05-02T14:47:10.997Z</time></trkpt><trkpt lat="44.16396629219776" lon="10.123680031769242"><ele>275.0</ele><time>2026-05-02T14:47:11.997Z</time></trkpt><trkpt lat="44.164013219349506" lon="10.123768841268665"><ele>275.66666666666663</ele><time>2026-05-02T14:47:12.997Z</time></trkpt><trkpt lat="44.16404982926322" lon="10.123856769470867"><ele>276.3333333333333</ele><time>2026-05-02T14:47:13.997Z</time></trkpt><trkpt lat="44.16404743473687" lon="10.123956309113046"><ele>277.0</ele><time>2026-05-02T14:47:14.997Z</time></trkpt><trkpt lat="44.16400121211675" lon="10.12405485626659"><ele>278.0</ele><time>2026-05-02T14:47:15.999Z</time></trkpt><trkpt lat="44.16395350255992" lon="10.124181882982649"><ele>279.0</ele><time>2026-05-02T14:47:16.999Z</time></trkpt><trkpt lat="44.163914185749405" lon="10.124330439567773"><ele>280.0</ele><time>2026-05-02T14:47:17.999Z</time></trkpt><trkpt lat="44.163877442852566" lon="10.124493698181029"><ele>281.0</ele><time>2026-05-02T14:47:18.999Z</time></trkpt><trkpt lat="44.163853998162935" lon="10.124665010450434"><ele>281.0</ele><time>2026-05-02T14:47:19.999Z</time></trkpt><trkpt lat="44.16382646734179" lon="10.124817079429324"><ele>281.0</ele><time>2026-05-02T14:47:20.999Z</time></trkpt><trkpt lat="44.163831444421795" lon="10.124967606860947"><ele>281.0</ele><time>2026-05-02T14:47:21.999Z</time></trkpt><trkpt lat="44.163851584507746" lon="10.12510931341938"><ele>281.0</ele><time>2026-05-02T14:47:22.999Z</time></trkpt><trkpt lat="44.163875632743164" lon="10.125250755641773"><ele>281.0</ele><time>2026-05-02T14:47:23.999Z</time></trkpt><trkpt lat="44.16390768867897" lon="10.125403507060875"><ele>278.8</ele><time>2026-05-02T14:47:24.999Z</time></trkpt><trkpt lat="44.16395872296312" lon="10.125549889000986"><ele>276.6</ele><time>2026-05-02T14:47:25.999Z</time></trkpt><trkpt lat="44.16402037890869" lon="10.12567252504081"><ele>274.4</ele><time>2026-05-02T14:47:26.999Z</time></trkpt><trkpt lat="44.16408501551124" lon="10.125783182521184"><ele>272.2</ele><time>2026-05-02T14:47:27.999Z</time></trkpt><trkpt lat="44.16414736690798" lon="10.125884253146959"><ele>270.0</ele><time>2026-05-02T14:47:28.999Z</time></trkpt><trkpt lat="44.16420134615489" lon="10.125989534309936"><ele>263.0</ele><time>2026-05-02T14:47:29.999Z</time></trkpt><trkpt lat="44.16423662767209" lon="10.126099733093227"><ele>256.0</ele><time>2026-05-02T14:47:30.999Z</time></trkpt><trkpt lat="44.16425000576663" lon="10.126216948140772"><ele>249.0</ele><time>2026-05-02T14:47:31.999Z</time></trkpt><trkpt lat="44.16423553309611" lon="10.126334289813826"><ele>242.0</ele><time>2026-05-02T14:47:32.999Z</time></trkpt><trkpt lat="44.164198533849955" lon="10.12644441141362"><ele>235.0</ele><time>2026-05-02T14:47:33.999Z</time></trkpt><trkpt lat="44.1641548019196" lon="10.126541927285652"><ele>228.0</ele><time>2026-05-02T14:47:34.999Z</time></trkpt><trkpt lat="44.16410912752574" lon="10.126643821002064"><ele>227.57142857142856</ele><time>2026-05-02T14:47:35.999Z</time></trkpt><trkpt lat="44.16407874025554" lon="10.126746005961985"><ele>227.1428571428571</ele><time>2026-05-02T14:47:36.999Z</time></trkpt><trkpt lat="44.16405669803126" lon="10.126833480684184"><ele>226.71428571428572</ele><time>2026-05-02T14:47:37.999Z</time></trkpt><trkpt lat="44.16404891207227" lon="10.126934895916925"><ele>226.28571428571428</ele><time>2026-05-02T14:47:39.999Z</time></trkpt><trkpt lat="44.164048801323815" lon="10.127030485824193"><ele>225.85714285714286</ele><time>2026-05-02T14:47:42.999Z</time></trkpt><trkpt lat="44.16408599216949" lon="10.12713491314778"><ele>225.42857142857144</ele><time>2026-05-02T14:47:44.999Z</time></trkpt><trkpt lat="44.16403479822799" lon="10.127208938786826"><ele>225.00000000000003</ele><time>2026-05-02T14:47:45.999Z</time></trkpt><trkpt lat="44.1639904941267" lon="10.127307524527092"><ele>231.33333333333334</ele><time>2026-05-02T14:47:46.999Z</time></trkpt><trkpt lat="44.16394775002894" lon="10.127416860246901"><ele>237.66666666666669</ele><time>2026-05-02T14:47:47.999Z</time></trkpt><trkpt lat="44.16390657223643" lon="10.127537585929712"><ele>244.0</ele><time>2026-05-02T14:47:48.999Z</time></trkpt><trkpt lat="44.163877617808424" lon="10.127639574710551"><ele>250.33333333333334</ele><time>2026-05-02T14:47:49.999Z</time></trkpt><trkpt lat="44.163857894172246" lon="10.127732953711993"><ele>256.6666666666667</ele><time>2026-05-02T14:47:50.999Z</time></trkpt><trkpt lat="44.1638412068673" lon="10.127883004909572"><ele>263.0</ele><time>2026-05-02T14:47:52.999Z</time></trkpt><trkpt lat="44.16382499162119" lon="10.128012330404955"><ele>263.0</ele><time>2026-05-02T14:47:54.999Z</time></trkpt><trkpt lat="44.163785615210394" lon="10.128141490577072"><ele>263.0</ele><time>2026-05-02T14:47:56.999Z</time></trkpt><trkpt lat="44.16373332827132" lon="10.128272372990612"><ele>263.0</ele><time>2026-05-02T14:47:58.999Z</time></trkpt><trkpt lat="44.16367466052963" lon="10.12840896156406"><ele>263.0</ele><time>2026-05-02T14:48:00.999Z</time></trkpt><trkpt lat="44.16363308972727" lon="10.12851967097403"><ele>263.0</ele><time>2026-05-02T14:48:02.999Z</time></trkpt><trkpt lat="44.163605608626966" lon="10.128607469946173"><ele>258.83333333333337</ele><time>2026-05-02T14:48:04.999Z</time></trkpt><trkpt lat="44.16355082365826" lon="10.128748297463792"><ele>254.66666666666669</ele><time>2026-05-02T14:48:06.999Z</time></trkpt><trkpt lat="44.16351026759309" lon="10.128827750932903"><ele>250.5</ele><time>2026-05-02T14:48:07.999Z</time></trkpt><trkpt lat="44.163474505228514" lon="10.128907252223607"><ele>246.33333333333331</ele><time>2026-05-02T14:48:08.999Z</time></trkpt><trkpt lat="44.16341139121497" lon="10.129028896859335"><ele>242.16666666666666</ele><time>2026-05-02T14:48:10.999Z</time></trkpt><trkpt lat="44.16336192693435" lon="10.12911470338947"><ele>238.0</ele><time>2026-05-02T14:48:12.999Z</time></trkpt><trkpt lat="44.163405735864714" lon="10.129034401822702"><ele>238.0</ele><time>2026-05-02T14:48:37.998Z</time></trkpt><trkpt lat="44.16344568604918" lon="10.128946799822439"><ele>238.0</ele><time>2026-05-02T14:48:39.998Z</time></trkpt><trkpt lat="44.163501400899776" lon="10.12882130958688"><ele>238.0</ele><time>2026-05-02T14:48:41.998Z</time></trkpt><trkpt lat="44.163559652001204" lon="10.12870706392161"><ele>238.0</ele><time>2026-05-02T14:48:43.998Z</time></trkpt><trkpt lat="44.16360716396193" lon="10.128603730700055"><ele>238.0</ele><time>2026-05-02T14:48:45.998Z</time></trkpt><trkpt lat="44.16364032592571" lon="10.128495038273922"><ele>238.0</ele><time>2026-05-02T14:48:49.998Z</time></trkpt><trkpt lat="44.16369055657055" lon="10.128374014853614"><ele>238.0</ele><time>2026-05-02T14:48:52.998Z</time></trkpt><trkpt lat="44.16374027725446" lon="10.128255255305728"><ele>238.0</ele><time>2026-05-02T14:48:54.998Z</time></trkpt><trkpt lat="44.163789722744205" lon="10.128130022255814"><ele>238.0</ele><time>2026-05-02T14:48:56.998Z</time></trkpt><trkpt lat="44.16382330516144" lon="10.128015596008746"><ele>238.0</ele><time>2026-05-02T14:48:58.998Z</time></trkpt><trkpt lat="44.163839059052975" lon="10.127904672000918"><ele>235.83333333333331</ele><time>2026-05-02T14:49:00.998Z</time></trkpt><trkpt lat="44.16386560741668" lon="10.127796650914258"><ele>233.66666666666666</ele><time>2026-05-02T14:49:02.998Z</time></trkpt><trkpt lat="44.16386935970138" lon="10.127668327496327"><ele>231.5</ele><time>2026-05-02T14:49:04.998Z</time></trkpt><trkpt lat="44.16391480859658" lon="10.127512235850201"><ele>229.33333333333331</ele><time>2026-05-02T14:49:06.997Z</time></trkpt><trkpt lat="44.16394174527656" lon="10.127429327191255"><ele>227.16666666666666</ele><time>2026-05-02T14:49:07.997Z</time></trkpt><trkpt lat="44.163975630392194" lon="10.127337741552221"><ele>225.0</ele><time>2026-05-02T14:49:08.997Z</time></trkpt><trkpt lat="44.16403844979154" lon="10.127180102131756"><ele>225.0</ele><time>2026-05-02T14:49:09.997Z</time></trkpt><trkpt lat="44.164090011028875" lon="10.12706812415384"><ele>225.0</ele><time>2026-05-02T14:49:10.997Z</time></trkpt><trkpt lat="44.164145825804006" lon="10.126968168970455"><ele>225.0</ele><time>2026-05-02T14:49:11.997Z</time></trkpt><trkpt lat="44.164208707008456" lon="10.126871603369455"><ele>225.0</ele><time>2026-05-02T14:49:12.997Z</time></trkpt><trkpt lat="44.16426404542104" lon="10.1267650367252"><ele>225.0</ele><time>2026-05-02T14:49:13.997Z</time></trkpt><trkpt lat="44.16432052179288" lon="10.126656279266719"><ele>225.0</ele><time>2026-05-02T14:49:14.997Z</time></trkpt><trkpt lat="44.16446513603469" lon="10.126644628494596"><ele>225.0</ele><time>2026-05-02T14:49:15.997Z</time></trkpt><trkpt lat="44.16453869691679" lon="10.126544200777687"><ele>225.0</ele><time>2026-05-02T14:49:16.997Z</time></trkpt><trkpt lat="44.1646090364587" lon="10.126441656512243"><ele>225.0</ele><time>2026-05-02T14:49:17.997Z</time></trkpt><trkpt lat="44.164664417499424" lon="10.126317278765185"><ele>225.6</ele><time>2026-05-02T14:49:18.997Z</time></trkpt><trkpt lat="44.164725125330406" lon="10.126208440203772"><ele>226.2</ele><time>2026-05-02T14:49:19.997Z</time></trkpt><trkpt lat="44.16479584232197" lon="10.12611799325153"><ele>226.8</ele><time>2026-05-02T14:49:20.997Z</time></trkpt><trkpt lat="44.164851626564094" lon="10.126020066568199"><ele>227.4</ele><time>2026-05-02T14:49:22Z</time></trkpt><trkpt lat="44.16490893691335" lon="10.125923991432304"><ele>228.0</ele><time>2026-05-02T14:49:23Z</time></trkpt><trkpt lat="44.16494853884938" lon="10.125817205391083"><ele>225.8</ele><time>2026-05-02T14:49:24Z</time></trkpt><trkpt lat="44.16500872270712" lon="10.125735785567503"><ele>223.60000000000002</ele><time>2026-05-02T14:49:25Z</time></trkpt><trkpt lat="44.16504089279237" lon="10.125637323891702"><ele>221.39999999999998</ele><time>2026-05-02T14:49:26Z</time></trkpt><trkpt lat="44.16507825510651" lon="10.125501165593844"><ele>219.2</ele><time>2026-05-02T14:49:28Z</time></trkpt><trkpt lat="44.165172117656944" lon="10.12547479470381"><ele>217.0</ele><time>2026-05-02T14:49:31Z</time></trkpt><trkpt lat="44.1651466155877" lon="10.125598937246986"><ele>217.0</ele><time>2026-05-02T14:49:34Z</time></trkpt><trkpt lat="44.165108261634025" lon="10.125716026765845"><ele>217.0</ele><time>2026-05-02T14:49:35Z</time></trkpt><trkpt lat="44.16508642814708" lon="10.125837779602477"><ele>217.0</ele><time>2026-05-02T14:49:36Z</time></trkpt><trkpt lat="44.16503418928403" lon="10.1259453548004"><ele>217.0</ele><time>2026-05-02T14:49:37Z</time></trkpt><trkpt lat="44.16499824775368" lon="10.1260793588028"><ele>217.0</ele><time>2026-05-02T14:49:38Z</time></trkpt><trkpt lat="44.16497904090007" lon="10.126233465333295"><ele>217.0</ele><time>2026-05-02T14:49:39Z</time></trkpt><trkpt lat="44.16499563930183" lon="10.126392061656194"><ele>217.0</ele><time>2026-05-02T14:49:40Z</time></trkpt><trkpt lat="44.165003482477516" lon="10.126551924300582"><ele>217.0</ele><time>2026-05-02T14:49:41Z</time></trkpt><trkpt lat="44.165013369141505" lon="10.126709325244864"><ele>217.0</ele><time>2026-05-02T14:49:42Z</time></trkpt><trkpt lat="44.16502723845388" lon="10.126880769950198"><ele>216.0</ele><time>2026-05-02T14:49:43Z</time></trkpt><trkpt lat="44.165036070717605" lon="10.127053747797506"><ele>215.0</ele><time>2026-05-02T14:49:43.999Z</time></trkpt><trkpt lat="44.16505480886247" lon="10.127228431722086"><ele>214.0</ele><time>2026-05-02T14:49:44.999Z</time></trkpt><trkpt lat="44.16506725642469" lon="10.127405909626425"><ele>213.0</ele><time>2026-05-02T14:49:45.999Z</time></trkpt><trkpt lat="44.16508120224067" lon="10.127582268914745"><ele>212.8</ele><time>2026-05-02T14:49:46.999Z</time></trkpt><trkpt lat="44.1650971808966" lon="10.127751679108135"><ele>212.60000000000002</ele><time>2026-05-02T14:49:47.999Z</time></trkpt><trkpt lat="44.16511612853512" lon="10.127905307631197"><ele>212.39999999999998</ele><time>2026-05-02T14:49:48.999Z</time></trkpt><trkpt lat="44.16511048305606" lon="10.128044485008813"><ele>212.2</ele><time>2026-05-02T14:49:49.999Z</time></trkpt><trkpt lat="44.16506560713715" lon="10.128157521450627"><ele>212.0</ele><time>2026-05-02T14:49:50.999Z</time></trkpt><trkpt lat="44.165039167894264" lon="10.128266294446217"><ele>212.57142857142858</ele><time>2026-05-02T14:49:51.999Z</time></trkpt><trkpt lat="44.1650279108635" lon="10.128374304246638"><ele>213.14285714285714</ele><time>2026-05-02T14:49:52.999Z</time></trkpt><trkpt lat="44.16500172968161" lon="10.12847070816324"><ele>213.71428571428572</ele><time>2026-05-02T14:49:53.999Z</time></trkpt><trkpt lat="44.16498543038717" lon="10.128562962084494"><ele>214.28571428571428</ele><time>2026-05-02T14:49:54.999Z</time></trkpt><trkpt lat="44.164980416331666" lon="10.128653083036784"><ele>214.85714285714283</ele><time>2026-05-02T14:49:55.999Z</time></trkpt><trkpt lat="44.16497738199488" lon="10.128746813705574"><ele>215.42857142857142</ele><time>2026-05-02T14:49:56.999Z</time></trkpt><trkpt lat="44.16495478681985" lon="10.12885726712906"><ele>216.0</ele><time>2026-05-02T14:49:57.999Z</time></trkpt><trkpt lat="44.16494954107177" lon="10.128982905716853"><ele>215.83333333333334</ele><time>2026-05-02T14:49:58.999Z</time></trkpt><trkpt lat="44.1649439017078" lon="10.129117971512212"><ele>215.66666666666669</ele><time>2026-05-02T14:49:59.999Z</time></trkpt><trkpt lat="44.16493841429351" lon="10.12924939814844"><ele>215.5</ele><time>2026-05-02T14:50:00.999Z</time></trkpt><trkpt lat="44.16494166402813" lon="10.129369884758002"><ele>215.33333333333334</ele><time>2026-05-02T14:50:01.999Z</time></trkpt><trkpt lat="44.16489195447202" lon="10.12945845783809"><ele>215.16666666666669</ele><time>2026-05-02T14:50:02.999Z</time></trkpt><trkpt lat="44.16483229850506" lon="10.129541719286966"><ele>215.0</ele><time>2026-05-02T14:50:03.999Z</time></trkpt><trkpt lat="44.16477676949361" lon="10.12964037337114"><ele>215.2</ele><time>2026-05-02T14:50:04.999Z</time></trkpt><trkpt lat="44.16471378313668" lon="10.129779988218075"><ele>215.4</ele><time>2026-05-02T14:50:05.999Z</time></trkpt><trkpt lat="44.164635066119516" lon="10.12985985949882"><ele>215.60000000000002</ele><time>2026-05-02T14:50:06.999Z</time></trkpt><trkpt lat="44.16454048440513" lon="10.129914191865021"><ele>215.8</ele><time>2026-05-02T14:50:07.999Z</time></trkpt><trkpt lat="44.16444342784756" lon="10.129959214710917"><ele>216.0</ele><time>2026-05-02T14:50:08.999Z</time></trkpt><trkpt lat="44.16435475945551" lon="10.129981138194486"><ele>216.0</ele><time>2026-05-02T14:50:09.999Z</time></trkpt><trkpt lat="44.16427013960246" lon="10.130020751530772"><ele>216.0</ele><time>2026-05-02T14:50:11.999Z</time></trkpt><trkpt lat="44.164334576729956" lon="10.130315283089159"><ele>216.0</ele><time>2026-05-02T14:50:13.999Z</time></trkpt><trkpt lat="44.164383221822675" lon="10.130439788247996"><ele>216.0</ele><time>2026-05-02T14:50:14.999Z</time></trkpt><trkpt lat="44.16443277963296" lon="10.130587283843642"><ele>215.5</ele><time>2026-05-02T14:50:15.999Z</time></trkpt><trkpt lat="44.164477177136206" lon="10.130748204557243"><ele>215.0</ele><time>2026-05-02T14:50:16.999Z</time></trkpt><trkpt lat="44.16451695661227" lon="10.130922904223091"><ele>214.5</ele><time>2026-05-02T14:50:17.999Z</time></trkpt><trkpt lat="44.16454621759775" lon="10.131112585807918"><ele>214.0</ele><time>2026-05-02T14:50:18.999Z</time></trkpt><trkpt lat="44.16455395044713" lon="10.131328034724081"><ele>214.0</ele><time>2026-05-02T14:50:19.999Z</time></trkpt><trkpt lat="44.1645216313693" lon="10.131542362014303"><ele>214.0</ele><time>2026-05-02T14:50:20.999Z</time></trkpt><trkpt lat="44.16452485445439" lon="10.131746759291548"><ele>214.0</ele><time>2026-05-02T14:50:21.999Z</time></trkpt><trkpt lat="44.1645177919325" lon="10.131922663510176"><ele>214.0</ele><time>2026-05-02T14:50:22.999Z</time></trkpt><trkpt lat="44.16454307710651" lon="10.13208831071739"><ele>215.0</ele><time>2026-05-02T14:50:23.999Z</time></trkpt><trkpt lat="44.16461429750285" lon="10.132263245312945"><ele>216.0</ele><time>2026-05-02T14:50:24.999Z</time></trkpt><trkpt lat="44.1647195216268" lon="10.132395404991334"><ele>217.0</ele><time>2026-05-02T14:50:25.999Z</time></trkpt><trkpt lat="44.16482649202796" lon="10.13248339859399"><ele>218.0</ele><time>2026-05-02T14:50:26.999Z</time></trkpt><trkpt lat="44.16490997841179" lon="10.132545303327317"><ele>219.60000000000002</ele><time>2026-05-02T14:50:27.999Z</time></trkpt><trkpt lat="44.16497483117593" lon="10.132600009402873"><ele>221.20000000000002</ele><time>2026-05-02T14:50:28.999Z</time></trkpt><trkpt lat="44.16502298074941" lon="10.132668498386817"><ele>222.8</ele><time>2026-05-02T14:50:29.999Z</time></trkpt><trkpt lat="44.16500866624805" lon="10.13279929079283"><ele>224.4</ele><time>2026-05-02T14:50:30.999Z</time></trkpt><trkpt lat="44.16502925655193" lon="10.132951465893088"><ele>226.0</ele><time>2026-05-02T14:50:31.999Z</time></trkpt><trkpt lat="44.16507285116795" lon="10.13311998135857"><ele>225.66666666666666</ele><time>2026-05-02T14:50:32.999Z</time></trkpt><trkpt lat="44.16510466693266" lon="10.133314596228795"><ele>225.33333333333331</ele><time>2026-05-02T14:50:33.999Z</time></trkpt><trkpt lat="44.16512172685251" lon="10.13353475295189"><ele>225.0</ele><time>2026-05-02T14:50:34.999Z</time></trkpt><trkpt lat="44.16515711760577" lon="10.133758887664525"><ele>225.0</ele><time>2026-05-02T14:50:35.998Z</time></trkpt><trkpt lat="44.16521259071246" lon="10.134005559456487"><ele>225.0</ele><time>2026-05-02T14:50:36.998Z</time></trkpt><trkpt lat="44.16525177121501" lon="10.134271705901236"><ele>225.0</ele><time>2026-05-02T14:50:37.998Z</time></trkpt><trkpt lat="44.165292391613235" lon="10.13453475532956"><ele>225.33333333333331</ele><time>2026-05-02T14:50:38.998Z</time></trkpt><trkpt lat="44.16531583709311" lon="10.134802246775736"><ele>225.66666666666666</ele><time>2026-05-02T14:50:39.998Z</time></trkpt><trkpt lat="44.16535252551957" lon="10.135069787860022"><ele>226.0</ele><time>2026-05-02T14:50:40.998Z</time></trkpt><trkpt lat="44.16539460830268" lon="10.135299223529167"><ele>226.0</ele><time>2026-05-02T14:50:41.998Z</time></trkpt><trkpt lat="44.16545915932315" lon="10.135496930367125"><ele>226.0</ele><time>2026-05-02T14:50:42.998Z</time></trkpt><trkpt lat="44.16552978905331" lon="10.135688902253284"><ele>226.0</ele><time>2026-05-02T14:50:43.998Z</time></trkpt><trkpt lat="44.16563676512813" lon="10.135882254265782"><ele>229.0</ele><time>2026-05-02T14:50:44.998Z</time></trkpt><trkpt lat="44.16576529818644" lon="10.136078091125276"><ele>232.0</ele><time>2026-05-02T14:50:45.998Z</time></trkpt><trkpt lat="44.16586091701923" lon="10.136258895041166"><ele>235.0</ele><time>2026-05-02T14:50:46.998Z</time></trkpt><trkpt lat="44.165980382013444" lon="10.13643063588162"><ele>233.25</ele><time>2026-05-02T14:50:47.998Z</time></trkpt><trkpt lat="44.16607658637697" lon="10.136588807303204"><ele>231.5</ele><time>2026-05-02T14:50:48.998Z</time></trkpt><trkpt lat="44.166159506168064" lon="10.136713986218835"><ele>229.75</ele><time>2026-05-02T14:50:49.998Z</time></trkpt><trkpt lat="44.1662455284753" lon="10.136815756060411"><ele>228.0</ele><time>2026-05-02T14:50:50.998Z</time></trkpt><trkpt lat="44.16634954142289" lon="10.136879868845657"><ele>228.0</ele><time>2026-05-02T14:50:51.998Z</time></trkpt><trkpt lat="44.16647742209423" lon="10.136914616639864"><ele>228.0</ele><time>2026-05-02T14:50:52.998Z</time></trkpt><trkpt lat="44.166646517228614" lon="10.136890089128446"><ele>228.0</ele><time>2026-05-02T14:50:53.998Z</time></trkpt><trkpt lat="44.1668135758052" lon="10.13686843053561"><ele>232.0</ele><time>2026-05-02T14:50:54.998Z</time></trkpt><trkpt lat="44.166970974445306" lon="10.136854388856422"><ele>236.0</ele><time>2026-05-02T14:50:55.998Z</time></trkpt><trkpt lat="44.16711226974039" lon="10.136876979922736"><ele>240.0</ele><time>2026-05-02T14:50:56.998Z</time></trkpt><trkpt lat="44.167230913357585" lon="10.136933354389452"><ele>244.0</ele><time>2026-05-02T14:50:57.998Z</time></trkpt><trkpt lat="44.167332395036716" lon="10.137024802648284"><ele>242.75</ele><time>2026-05-02T14:50:58.998Z</time></trkpt><trkpt lat="44.167424895917016" lon="10.137165540662444"><ele>241.5</ele><time>2026-05-02T14:50:59.998Z</time></trkpt><trkpt lat="44.16750441570283" lon="10.137331785741177"><ele>240.25</ele><time>2026-05-02T14:51:00.998Z</time></trkpt><trkpt lat="44.16757286114044" lon="10.137509154355497"><ele>239.0</ele><time>2026-05-02T14:51:01.998Z</time></trkpt><trkpt lat="44.16763970309614" lon="10.137673723377254"><ele>239.0</ele><time>2026-05-02T14:51:02.998Z</time></trkpt><trkpt lat="44.16769792205295" lon="10.137828859307511"><ele>239.0</ele><time>2026-05-02T14:51:03.998Z</time></trkpt><trkpt lat="44.16774248121827" lon="10.137991132171916"><ele>239.0</ele><time>2026-05-02T14:51:04.998Z</time></trkpt><trkpt lat="44.16777099457071" lon="10.138159774868347"><ele>239.0</ele><time>2026-05-02T14:51:05.998Z</time></trkpt><trkpt lat="44.167783667464136" lon="10.138320127767994"><ele>239.0</ele><time>2026-05-02T14:51:06.998Z</time></trkpt><trkpt lat="44.1677765574901" lon="10.138480160206067"><ele>238.99999999999997</ele><time>2026-05-02T14:51:07.998Z</time></trkpt><trkpt lat="44.1677591546906" lon="10.13863476352657"><ele>238.99999999999997</ele><time>2026-05-02T14:51:08.998Z</time></trkpt><trkpt lat="44.16772927045944" lon="10.138782870890363"><ele>239.0</ele><time>2026-05-02T14:51:09.998Z</time></trkpt><trkpt lat="44.16769641939178" lon="10.138922789417375"><ele>239.0</ele><time>2026-05-02T14:51:10.998Z</time></trkpt><trkpt lat="44.16766540470548" lon="10.13905562167399"><ele>239.0</ele><time>2026-05-02T14:51:11.998Z</time></trkpt><trkpt lat="44.167659137437205" lon="10.139183326127942"><ele>238.99999999999997</ele><time>2026-05-02T14:51:12.998Z</time></trkpt><trkpt lat="44.16768597374887" lon="10.139303892974558"><ele>238.99999999999997</ele><time>2026-05-02T14:51:13.998Z</time></trkpt><trkpt lat="44.16773709003154" lon="10.139427503590975"><ele>239.0</ele><time>2026-05-02T14:51:14.998Z</time></trkpt><trkpt lat="44.16778687702765" lon="10.139562064844482"><ele>239.0</ele><time>2026-05-02T14:51:15.998Z</time></trkpt><trkpt lat="44.16783818447574" lon="10.13969721784501"><ele>239.0</ele><time>2026-05-02T14:51:16.998Z</time></trkpt><trkpt lat="44.167862772088434" lon="10.13985130873798"><ele>238.99999999999997</ele><time>2026-05-02T14:51:17.998Z</time></trkpt><trkpt lat="44.16788497546849" lon="10.140006022296298"><ele>238.99999999999997</ele><time>2026-05-02T14:51:18.998Z</time></trkpt><trkpt lat="44.16790022926951" lon="10.140144423620484"><ele>239.0</ele><time>2026-05-02T14:51:19.998Z</time></trkpt><trkpt lat="44.16791698730086" lon="10.140279494616697"><ele>239.0</ele><time>2026-05-02T14:51:20.998Z</time></trkpt><trkpt lat="44.16794121771936" lon="10.140404984139845"><ele>239.0</ele><time>2026-05-02T14:51:21.998Z</time></trkpt><trkpt lat="44.16798322039517" lon="10.14052197285384"><ele>238.99999999999997</ele><time>2026-05-02T14:51:22.998Z</time></trkpt><trkpt lat="44.168034157259086" lon="10.140647601402852"><ele>238.99999999999997</ele><time>2026-05-02T14:51:23.998Z</time></trkpt><trkpt lat="44.16808374410227" lon="10.140777832691752"><ele>239.0</ele><time>2026-05-02T14:51:24.998Z</time></trkpt><trkpt lat="44.16813247322721" lon="10.140914233237481"><ele>239.0</ele><time>2026-05-02T14:51:25.997Z</time></trkpt><trkpt lat="44.16818262602762" lon="10.141054462735998"><ele>240.0</ele><time>2026-05-02T14:51:26.997Z</time></trkpt><trkpt lat="44.16822477397525" lon="10.141202810261822"><ele>241.0</ele><time>2026-05-02T14:51:28Z</time></trkpt><trkpt lat="44.16825840811437" lon="10.14135951436903"><ele>242.0</ele><time>2026-05-02T14:51:29Z</time></trkpt><trkpt lat="44.16828318144359" lon="10.141525532870594"><ele>243.0</ele><time>2026-05-02T14:51:30Z</time></trkpt><trkpt lat="44.168306891103036" lon="10.141697026585074"><ele>243.0</ele><time>2026-05-02T14:51:31Z</time></trkpt><trkpt lat="44.16833082514349" lon="10.141868431409241"><ele>243.0</ele><time>2026-05-02T14:51:32Z</time></trkpt><trkpt lat="44.16833840869069" lon="10.1420444276512"><ele>243.0</ele><time>2026-05-02T14:51:33Z</time></trkpt><trkpt lat="44.16836052359098" lon="10.142214468728103"><ele>243.0</ele><time>2026-05-02T14:51:34Z</time></trkpt><trkpt lat="44.16839570019066" lon="10.142382808187563"><ele>242.25</ele><time>2026-05-02T14:51:35Z</time></trkpt><trkpt lat="44.16844586137689" lon="10.142544571598263"><ele>241.5</ele><time>2026-05-02T14:51:36Z</time></trkpt><trkpt lat="44.168464513106656" lon="10.142720931601206"><ele>240.75</ele><time>2026-05-02T14:51:37Z</time></trkpt><trkpt lat="44.1684988686648" lon="10.142890238882165"><ele>240.0</ele><time>2026-05-02T14:51:38Z</time></trkpt><trkpt lat="44.16853358248134" lon="10.143064549129374"><ele>239.75</ele><time>2026-05-02T14:51:39Z</time></trkpt><trkpt lat="44.16856853882216" lon="10.143240077231312"><ele>239.5</ele><time>2026-05-02T14:51:40Z</time></trkpt><trkpt lat="44.168603684463285" lon="10.143416555876689"><ele>239.25</ele><time>2026-05-02T14:51:41Z</time></trkpt><trkpt lat="44.16863889453949" lon="10.143592758054666"><ele>239.0</ele><time>2026-05-02T14:51:42Z</time></trkpt><trkpt lat="44.16867349328143" lon="10.143761455977383"><ele>239.0</ele><time>2026-05-02T14:51:43Z</time></trkpt><trkpt lat="44.1687085016943" lon="10.143932151326785"><ele>239.0</ele><time>2026-05-02T14:51:44Z</time></trkpt><trkpt lat="44.16874293127347" lon="10.144097893858364"><ele>239.0</ele><time>2026-05-02T14:51:45Z</time></trkpt><trkpt lat="44.16879184369565" lon="10.144260007102693"><ele>239.0</ele><time>2026-05-02T14:51:46Z</time></trkpt><trkpt lat="44.16882469141678" lon="10.144429085752797"><ele>239.25</ele><time>2026-05-02T14:51:47Z</time></trkpt><trkpt lat="44.16886053052424" lon="10.144598150263398"><ele>239.5</ele><time>2026-05-02T14:51:48Z</time></trkpt><trkpt lat="44.168895375330386" lon="10.14476269614087"><ele>239.75</ele><time>2026-05-02T14:51:49Z</time></trkpt><trkpt lat="44.16892931166574" lon="10.144924619095821"><ele>240.0</ele><time>2026-05-02T14:51:50Z</time></trkpt><trkpt lat="44.168963050958084" lon="10.14508513468037"><ele>240.75</ele><time>2026-05-02T14:51:51Z</time></trkpt><trkpt lat="44.16899947001723" lon="10.145249671455801"><ele>241.5</ele><time>2026-05-02T14:51:52Z</time></trkpt><trkpt lat="44.16903515019622" lon="10.145411421880079"><ele>242.25</ele><time>2026-05-02T14:51:53Z</time></trkpt><trkpt lat="44.169070773287665" lon="10.145566070910387"><ele>243.0</ele><time>2026-05-02T14:51:54Z</time></trkpt><trkpt lat="44.169106330171886" lon="10.14571357051785"><ele>244.0</ele><time>2026-05-02T14:51:55Z</time></trkpt><trkpt lat="44.16914475799163" lon="10.145862730830281"><ele>245.0</ele><time>2026-05-02T14:51:56Z</time></trkpt><trkpt lat="44.16918240109498" lon="10.146007161001108"><ele>246.0</ele><time>2026-05-02T14:51:57Z</time></trkpt><trkpt lat="44.16921749422464" lon="10.146144292259232"><ele>247.0</ele><time>2026-05-02T14:51:57.999Z</time></trkpt><trkpt lat="44.169246222841394" lon="10.146281036778479"><ele>248.0</ele><time>2026-05-02T14:51:58.999Z</time></trkpt><trkpt lat="44.169280486410806" lon="10.146411957079946"><ele>246.8</ele><time>2026-05-02T14:51:59.999Z</time></trkpt><trkpt lat="44.16931595400172" lon="10.146545199094847"><ele>245.60000000000002</ele><time>2026-05-02T14:52:00.999Z</time></trkpt><trkpt lat="44.16935298454909" lon="10.146686469041898"><ele>244.39999999999998</ele><time>2026-05-02T14:52:01.999Z</time></trkpt><trkpt lat="44.16939202669896" lon="10.146832804313812"><ele>243.2</ele><time>2026-05-02T14:52:02.999Z</time></trkpt><trkpt lat="44.169428580573665" lon="10.146983322757935"><ele>242.0</ele><time>2026-05-02T14:52:03.999Z</time></trkpt><trkpt lat="44.169458542934635" lon="10.147139127919118"><ele>242.0</ele><time>2026-05-02T14:52:04.999Z</time></trkpt><trkpt lat="44.16948246388437" lon="10.147291983016828"><ele>242.0</ele><time>2026-05-02T14:52:05.999Z</time></trkpt><trkpt lat="44.1695031072654" lon="10.147446875311987"><ele>242.0</ele><time>2026-05-02T14:52:06.999Z</time></trkpt><trkpt lat="44.16952675713333" lon="10.147600209510886"><ele>242.0</ele><time>2026-05-02T14:52:07.999Z</time></trkpt><trkpt lat="44.169555433991235" lon="10.147748133789927"><ele>242.0</ele><time>2026-05-02T14:52:08.999Z</time></trkpt><trkpt lat="44.16957872379499" lon="10.147897974428165"><ele>241.75</ele><time>2026-05-02T14:52:09.999Z</time></trkpt><trkpt lat="44.169645678392854" lon="10.14802459365535"><ele>241.5</ele><time>2026-05-02T14:52:10.999Z</time></trkpt><trkpt lat="44.16970714827325" lon="10.148154705034427"><ele>241.25</ele><time>2026-05-02T14:52:11.999Z</time></trkpt><trkpt lat="44.169772789072226" lon="10.148284063046521"><ele>241.0</ele><time>2026-05-02T14:52:12.999Z</time></trkpt><trkpt lat="44.16983893424787" lon="10.148417621026125"><ele>246.25</ele><time>2026-05-02T14:52:13.999Z</time></trkpt><trkpt lat="44.16989883299364" lon="10.148553611481843"><ele>251.5</ele><time>2026-05-02T14:52:14.999Z</time></trkpt><trkpt lat="44.169951994313934" lon="10.148697612624403"><ele>256.75</ele><time>2026-05-02T14:52:15.999Z</time></trkpt><trkpt lat="44.16999620816123" lon="10.148848624165835"><ele>262.0</ele><time>2026-05-02T14:52:16.999Z</time></trkpt><trkpt lat="44.17003563427663" lon="10.149004310880608"><ele>263.0</ele><time>2026-05-02T14:52:17.999Z</time></trkpt><trkpt lat="44.17006968302218" lon="10.149159554687971"><ele>264.0</ele><time>2026-05-02T14:52:18.999Z</time></trkpt><trkpt lat="44.17009787851537" lon="10.149313656816345"><ele>265.0</ele><time>2026-05-02T14:52:19.999Z</time></trkpt><trkpt lat="44.17011876772918" lon="10.149469822227486"><ele>266.0</ele><time>2026-05-02T14:52:20.999Z</time></trkpt><trkpt lat="44.17013025324206" lon="10.149626138426587"><ele>266.0</ele><time>2026-05-02T14:52:21.999Z</time></trkpt><trkpt lat="44.17013444846656" lon="10.149784321681786"><ele>266.0</ele><time>2026-05-02T14:52:22.999Z</time></trkpt><trkpt lat="44.1701318219838" lon="10.149945050124147"><ele>266.0</ele><time>2026-05-02T14:52:23.999Z</time></trkpt><trkpt lat="44.1701265237822" lon="10.150104124796503"><ele>266.0</ele><time>2026-05-02T14:52:24.999Z</time></trkpt><trkpt lat="44.170115199721515" lon="10.150262069487765"><ele>265.40000000000003</ele><time>2026-05-02T14:52:25.999Z</time></trkpt><trkpt lat="44.170096878204404" lon="10.150415719428919"><ele>264.8</ele><time>2026-05-02T14:52:26.999Z</time></trkpt><trkpt lat="44.17006364929138" lon="10.150566509614071"><ele>264.20000000000005</ele><time>2026-05-02T14:52:27.999Z</time></trkpt><trkpt lat="44.17001876773971" lon="10.15070728492559"><ele>263.6</ele><time>2026-05-02T14:52:28.999Z</time></trkpt><trkpt lat="44.16995691732048" lon="10.15082745593046"><ele>263.0</ele><time>2026-05-02T14:52:29.999Z</time></trkpt><trkpt lat="44.16987008919107" lon="10.150909383044487"><ele>261.0</ele><time>2026-05-02T14:52:30.999Z</time></trkpt><trkpt lat="44.169795275487886" lon="10.151003216552505"><ele>259.0</ele><time>2026-05-02T14:52:31.999Z</time></trkpt><trkpt lat="44.1697299130628" lon="10.15111138264682"><ele>257.0</ele><time>2026-05-02T14:52:32.999Z</time></trkpt><trkpt lat="44.169650112134676" lon="10.151195268851897"><ele>255.0</ele><time>2026-05-02T14:52:33.999Z</time></trkpt><trkpt lat="44.169578458142546" lon="10.15128632530942"><ele>253.0</ele><time>2026-05-02T14:52:34.999Z</time></trkpt><trkpt lat="44.16950203037284" lon="10.151357846014033"><ele>252.99999999999997</ele><time>2026-05-02T14:52:35.999Z</time></trkpt><trkpt lat="44.169436636690875" lon="10.15145750806924"><ele>253.0</ele><time>2026-05-02T14:52:36.999Z</time></trkpt><trkpt lat="44.169377673425124" lon="10.1515549412861"><ele>253.0</ele><time>2026-05-02T14:52:37.999Z</time></trkpt><trkpt lat="44.16932061903004" lon="10.151659667151925"><ele>253.0</ele><time>2026-05-02T14:52:38.999Z</time></trkpt><trkpt lat="44.16927287542036" lon="10.151757256947503"><ele>252.99999999999997</ele><time>2026-05-02T14:52:39.999Z</time></trkpt><trkpt lat="44.1692349831968" lon="10.15184050043496"><ele>253.0</ele><time>2026-05-02T14:52:40.999Z</time></trkpt><trkpt lat="44.16917628222591" lon="10.151972279301402"><ele>253.0</ele><time>2026-05-02T14:52:42.999Z</time></trkpt><trkpt lat="44.16911969180986" lon="10.152108204789108"><ele>253.0</ele><time>2026-05-02T14:52:44.999Z</time></trkpt><trkpt lat="44.16907537621085" lon="10.152227700292544"><ele>253.0</ele><time>2026-05-02T14:52:46.999Z</time></trkpt><trkpt lat="44.16902439076257" lon="10.152315014854299"><ele>253.0</ele><time>2026-05-02T14:52:48.999Z</time></trkpt><trkpt lat="44.16892297049097" lon="10.152361932199552"><ele>253.0</ele><time>2026-05-02T14:52:50.998Z</time></trkpt><trkpt lat="44.16885477070683" lon="10.152400278478487"><ele>254.60000000000002</ele><time>2026-05-02T14:52:51.998Z</time></trkpt><trkpt lat="44.16878414424823" lon="10.152417172501972"><ele>256.20000000000005</ele><time>2026-05-02T14:52:52.998Z</time></trkpt><trkpt lat="44.168721006816334" lon="10.152436074244038"><ele>257.8</ele><time>2026-05-02T14:52:53.998Z</time></trkpt><trkpt lat="44.16861159487434" lon="10.152450375095484"><ele>259.40000000000003</ele><time>2026-05-02T14:52:55.998Z</time></trkpt><trkpt lat="44.168522092582386" lon="10.152519755276197"><ele>261.0</ele><time>2026-05-02T14:52:57.998Z</time></trkpt><trkpt lat="44.168450781621715" lon="10.15266751551211"><ele>261.0</ele><time>2026-05-02T14:52:59.998Z</time></trkpt><trkpt lat="44.16840934054922" lon="10.15274026598497"><ele>261.0</ele><time>2026-05-02T14:53:00.998Z</time></trkpt><trkpt lat="44.168359516978505" lon="10.152797317730323"><ele>261.0</ele><time>2026-05-02T14:53:01.998Z</time></trkpt><trkpt lat="44.16834245049252" lon="10.15292588784799"><ele>261.0</ele><time>2026-05-02T14:53:03.998Z</time></trkpt><trkpt lat="44.168349050390475" lon="10.15306022606988"><ele>261.0</ele><time>2026-05-02T14:53:05.998Z</time></trkpt><trkpt lat="44.16837405355454" lon="10.153230517856535"><ele>261.0</ele><time>2026-05-02T14:53:07.998Z</time></trkpt><trkpt lat="44.16842080837682" lon="10.15337556510999"><ele>263.0</ele><time>2026-05-02T14:53:09.998Z</time></trkpt><trkpt lat="44.168425164244034" lon="10.153473714324237"><ele>265.0</ele><time>2026-05-02T14:53:10.998Z</time></trkpt><trkpt lat="44.16844830353451" lon="10.153574380351577"><ele>267.0</ele><time>2026-05-02T14:53:11.998Z</time></trkpt><trkpt lat="44.168473582674906" lon="10.15367731409196"><ele>269.0</ele><time>2026-05-02T14:53:12.998Z</time></trkpt><trkpt lat="44.168499905672284" lon="10.153780255395104"><ele>271.0</ele><time>2026-05-02T14:53:13.998Z</time></trkpt><trkpt lat="44.16852713987214" lon="10.153886125979668"><ele>273.0</ele><time>2026-05-02T14:53:14.998Z</time></trkpt><trkpt lat="44.168557584016476" lon="10.15399919952863"><ele>275.1666666666667</ele><time>2026-05-02T14:53:15.998Z</time></trkpt><trkpt lat="44.168588279511425" lon="10.154109274542908"><ele>277.3333333333333</ele><time>2026-05-02T14:53:16.998Z</time></trkpt><trkpt lat="44.168619225737814" lon="10.154217348702398"><ele>279.5</ele><time>2026-05-02T14:53:17.998Z</time></trkpt><trkpt lat="44.168650111843" lon="10.154323739951773"><ele>281.66666666666663</ele><time>2026-05-02T14:53:18.998Z</time></trkpt><trkpt lat="44.168683862533165" lon="10.15443143531696"><ele>283.8333333333333</ele><time>2026-05-02T14:53:19.998Z</time></trkpt><trkpt lat="44.16871839310262" lon="10.154538732963792"><ele>286.0</ele><time>2026-05-02T14:53:20.998Z</time></trkpt><trkpt lat="44.16876919683391" lon="10.154640017881308"><ele>286.0</ele><time>2026-05-02T14:53:21.998Z</time></trkpt><trkpt lat="44.16880445112662" lon="10.154756327548425"><ele>286.0</ele><time>2026-05-02T14:53:22.998Z</time></trkpt><trkpt lat="44.16884609147704" lon="10.15486570527519"><ele>286.0</ele><time>2026-05-02T14:53:23.998Z</time></trkpt><trkpt lat="44.16888555156946" lon="10.15497935612299"><ele>286.0</ele><time>2026-05-02T14:53:24.998Z</time></trkpt><trkpt lat="44.16893196022369" lon="10.155089627631149"><ele>286.0</ele><time>2026-05-02T14:53:25.998Z</time></trkpt><trkpt lat="44.16897395040206" lon="10.155196537504159"><ele>286.0</ele><time>2026-05-02T14:53:26.998Z</time></trkpt><trkpt lat="44.16901658069231" lon="10.155305274575031"><ele>284.0</ele><time>2026-05-02T14:53:27.998Z</time></trkpt><trkpt lat="44.16905355118447" lon="10.155419426489662"><ele>282.0</ele><time>2026-05-02T14:53:28.998Z</time></trkpt><trkpt lat="44.16906958959258" lon="10.155541029332463"><ele>280.0</ele><time>2026-05-02T14:53:29.998Z</time></trkpt><trkpt lat="44.16910771886169" lon="10.155652678400594"><ele>278.0</ele><time>2026-05-02T14:53:30.998Z</time></trkpt><trkpt lat="44.169130259635295" lon="10.155769336859604"><ele>276.0</ele><time>2026-05-02T14:53:31.998Z</time></trkpt><trkpt lat="44.16914293278961" lon="10.155907952683657"><ele>276.0</ele><time>2026-05-02T14:53:32.998Z</time></trkpt><trkpt lat="44.1691664991459" lon="10.15603380525073"><ele>276.0</ele><time>2026-05-02T14:53:34Z</time></trkpt><trkpt lat="44.169186241640396" lon="10.156142311597593"><ele>276.0</ele><time>2026-05-02T14:53:35Z</time></trkpt><trkpt lat="44.169203862377636" lon="10.156239156530695"><ele>276.0</ele><time>2026-05-02T14:53:36Z</time></trkpt><trkpt lat="44.16922004413751" lon="10.156400128026737"><ele>276.0</ele><time>2026-05-02T14:53:38Z</time></trkpt><trkpt lat="44.16921722304182" lon="10.156579774079137"><ele>276.5</ele><time>2026-05-02T14:53:40Z</time></trkpt><trkpt lat="44.16920644208687" lon="10.156681033871214"><ele>277.0</ele><time>2026-05-02T14:53:41Z</time></trkpt><trkpt lat="44.169176370088934" lon="10.15678561205842"><ele>277.5</ele><time>2026-05-02T14:53:42Z</time></trkpt><trkpt lat="44.16916002164905" lon="10.156898030504875"><ele>278.0</ele><time>2026-05-02T14:53:43Z</time></trkpt><trkpt lat="44.16914363144774" lon="10.157010736409095"><ele>278.5</ele><time>2026-05-02T14:53:44Z</time></trkpt><trkpt lat="44.16912697135331" lon="10.157125297866676"><ele>279.0</ele><time>2026-05-02T14:53:45Z</time></trkpt><trkpt lat="44.16911156678041" lon="10.157243502728972"><ele>280.0</ele><time>2026-05-02T14:53:46Z</time></trkpt><trkpt lat="44.16910152966726" lon="10.157369845252854"><ele>281.0</ele><time>2026-05-02T14:53:47Z</time></trkpt><trkpt lat="44.1691017369361" lon="10.157504080231696"><ele>282.0</ele><time>2026-05-02T14:53:48Z</time></trkpt><trkpt lat="44.16911501017638" lon="10.157638635033752"><ele>283.0</ele><time>2026-05-02T14:53:49Z</time></trkpt><trkpt lat="44.169150619891035" lon="10.157772499531994"><ele>284.0</ele><time>2026-05-02T14:53:50Z</time></trkpt><trkpt lat="44.16919937211208" lon="10.157901016927593"><ele>284.0</ele><time>2026-05-02T14:53:51Z</time></trkpt><trkpt lat="44.16925262180513" lon="10.158020503988721"><ele>284.0</ele><time>2026-05-02T14:53:52Z</time></trkpt><trkpt lat="44.16930504548151" lon="10.158138973473775"><ele>284.0</ele><time>2026-05-02T14:53:53Z</time></trkpt><trkpt lat="44.169358218546556" lon="10.158259136428285"><ele>284.0</ele><time>2026-05-02T14:53:54Z</time></trkpt><trkpt lat="44.16941173784109" lon="10.158380081755228"><ele>284.0</ele><time>2026-05-02T14:53:55Z</time></trkpt><trkpt lat="44.16945476218373" lon="10.158500490779845"><ele>287.0</ele><time>2026-05-02T14:53:56Z</time></trkpt><trkpt lat="44.16949129897172" lon="10.15863347421736"><ele>290.0</ele><time>2026-05-02T14:53:57Z</time></trkpt><trkpt lat="44.16952323053378" lon="10.158773476867633"><ele>293.0</ele><time>2026-05-02T14:53:58Z</time></trkpt><trkpt lat="44.16954896373629" lon="10.158916336719727"><ele>296.0</ele><time>2026-05-02T14:53:59Z</time></trkpt><trkpt lat="44.16958669105228" lon="10.159062299233018"><ele>299.0</ele><time>2026-05-02T14:54:00Z</time></trkpt><trkpt lat="44.169592615582154" lon="10.159215485252522"><ele>300.1666666666667</ele><time>2026-05-02T14:54:01Z</time></trkpt><trkpt lat="44.16960769651463" lon="10.15934742955356"><ele>301.33333333333337</ele><time>2026-05-02T14:54:02Z</time></trkpt><trkpt lat="44.16963180296908" lon="10.159450725995452"><ele>302.5</ele><time>2026-05-02T14:54:03Z</time></trkpt><trkpt lat="44.169646249966256" lon="10.159562441588669"><ele>303.6666666666667</ele><time>2026-05-02T14:54:05Z</time></trkpt><trkpt lat="44.16961919726261" lon="10.159469065350933"><ele>304.8333333333333</ele><time>2026-05-02T14:54:17.999Z</time></trkpt><trkpt lat="44.1696098770769" lon="10.159371521350057"><ele>306.0</ele><time>2026-05-02T14:54:18.999Z</time></trkpt><trkpt lat="44.169595910103794" lon="10.159239522079178"><ele>306.0</ele><time>2026-05-02T14:54:20.999Z</time></trkpt><trkpt lat="44.16958189649112" lon="10.159137278999815"><ele>306.0</ele><time>2026-05-02T14:54:22.999Z</time></trkpt><trkpt lat="44.16959834756302" lon="10.159259376001888"><ele>306.0</ele><time>2026-05-02T14:55:20.998Z</time></trkpt><trkpt lat="44.16960867981536" lon="10.15935829300662"><ele>306.0</ele><time>2026-05-02T14:55:21.998Z</time></trkpt><trkpt lat="44.169618501006774" lon="10.15946679716361"><ele>306.0</ele><time>2026-05-02T14:55:22.998Z</time></trkpt><trkpt lat="44.16963777201398" lon="10.15957399514753"><ele>306.0</ele><time>2026-05-02T14:55:23.998Z</time></trkpt><trkpt lat="44.1696808161287" lon="10.159676802838998"><ele>306.0</ele><time>2026-05-02T14:55:24.998Z</time></trkpt><trkpt lat="44.169712850722604" lon="10.159764545787082"><ele>306.0</ele><time>2026-05-02T14:55:25.998Z</time></trkpt><trkpt lat="44.16974459498874" lon="10.159847639480503"><ele>306.0</ele><time>2026-05-02T14:55:26.998Z</time></trkpt><trkpt lat="44.16979142453217" lon="10.159998807310128"><ele>306.0</ele><time>2026-05-02T14:55:28.998Z</time></trkpt><trkpt lat="44.16980731447928" lon="10.160158582355319"><ele>306.0</ele><time>2026-05-02T14:55:30.998Z</time></trkpt><trkpt lat="44.169811473533755" lon="10.160248407111236"><ele>306.0</ele><time>2026-05-02T14:55:31.998Z</time></trkpt><trkpt lat="44.16981439535214" lon="10.160340105619756"><ele>307.1428571428571</ele><time>2026-05-02T14:55:32.998Z</time></trkpt><trkpt lat="44.1698159762788" lon="10.160436030169143"><ele>308.2857142857143</ele><time>2026-05-02T14:55:33.998Z</time></trkpt><trkpt lat="44.16981758289568" lon="10.16053351355652"><ele>309.42857142857144</ele><time>2026-05-02T14:55:34.998Z</time></trkpt><trkpt lat="44.16981917884251" lon="10.16063034944201"><ele>310.57142857142856</ele><time>2026-05-02T14:55:35.998Z</time></trkpt><trkpt lat="44.16982076499194" lon="10.160726590980515"><ele>311.7142857142857</ele><time>2026-05-02T14:55:36.998Z</time></trkpt><trkpt lat="44.16983792188098" lon="10.160821880585456"><ele>312.85714285714283</ele><time>2026-05-02T14:55:37.998Z</time></trkpt><trkpt lat="44.1698369271166" lon="10.160925051043693"><ele>314.0</ele><time>2026-05-02T14:55:38.998Z</time></trkpt><trkpt lat="44.16983782207177" lon="10.161032435886861"><ele>316.1666666666667</ele><time>2026-05-02T14:55:40Z</time></trkpt><trkpt lat="44.169831807461456" lon="10.161139024293476"><ele>318.33333333333337</ele><time>2026-05-02T14:55:41Z</time></trkpt><trkpt lat="44.169827458199705" lon="10.161250029522753"><ele>320.5</ele><time>2026-05-02T14:55:42Z</time></trkpt><trkpt lat="44.169823292547434" lon="10.161364605889977"><ele>322.6666666666667</ele><time>2026-05-02T14:55:43Z</time></trkpt><trkpt lat="44.169825301923694" lon="10.161480390501985"><ele>324.8333333333333</ele><time>2026-05-02T14:55:44Z</time></trkpt><trkpt lat="44.169831643444965" lon="10.161600319275387"><ele>327.0</ele><time>2026-05-02T14:55:45Z</time></trkpt><trkpt lat="44.16984165226364" lon="10.16170648572853"><ele>327.3333333333333</ele><time>2026-05-02T14:55:46Z</time></trkpt><trkpt lat="44.16985229535111" lon="10.16181928472836"><ele>327.6666666666667</ele><time>2026-05-02T14:55:47Z</time></trkpt><trkpt lat="44.16985657875378" lon="10.161922963653524"><ele>328.0</ele><time>2026-05-02T14:55:48Z</time></trkpt><trkpt lat="44.16985843471438" lon="10.162036262775695"><ele>328.33333333333337</ele><time>2026-05-02T14:55:49Z</time></trkpt><trkpt lat="44.16986278678983" lon="10.16213905002503"><ele>328.6666666666667</ele><time>2026-05-02T14:55:50Z</time></trkpt><trkpt lat="44.16985604548685" lon="10.162237782679373"><ele>329.0</ele><time>2026-05-02T14:55:51Z</time></trkpt><trkpt lat="44.16980309627743" lon="10.162408040330993"><ele>326.59999999999997</ele><time>2026-05-02T14:55:53Z</time></trkpt><trkpt lat="44.16977208306862" lon="10.162492678566883"><ele>324.2</ele><time>2026-05-02T14:55:54Z</time></trkpt><trkpt lat="44.16971897752368" lon="10.162551117276157"><ele>321.79999999999995</ele><time>2026-05-02T14:55:55Z</time></trkpt><trkpt lat="44.16962873456441" lon="10.162645393513143"><ele>319.4</ele><time>2026-05-02T14:55:57Z</time></trkpt><trkpt lat="44.16951820916428" lon="10.16269316373063"><ele>317.0</ele><time>2026-05-02T14:55:59Z</time></trkpt><trkpt lat="44.16939605305515" lon="10.162692677892915"><ele>317.0</ele><time>2026-05-02T14:56:01Z</time></trkpt><trkpt lat="44.1693128569394" lon="10.162795114674058"><ele>317.0</ele><time>2026-05-02T14:56:03Z</time></trkpt><trkpt lat="44.16924766727452" lon="10.162908879479293"><ele>317.0</ele><time>2026-05-02T14:56:05Z</time></trkpt><trkpt lat="44.16920798907682" lon="10.162994087318475"><ele>317.0</ele><time>2026-05-02T14:56:06Z</time></trkpt><trkpt lat="44.16916724663186" lon="10.16308620471845"><ele>317.0</ele><time>2026-05-02T14:56:07Z</time></trkpt><trkpt lat="44.169131955735914" lon="10.163163790400974"><ele>317.0</ele><time>2026-05-02T14:56:08Z</time></trkpt><trkpt lat="44.16905244215755" lon="10.163287698357191"><ele>323.0</ele><time>2026-05-02T14:56:10Z</time></trkpt><trkpt lat="44.16896516805421" lon="10.163364745218159"><ele>329.0</ele><time>2026-05-02T14:56:11.999Z</time></trkpt><trkpt lat="44.16886818873923" lon="10.163396327473846"><ele>335.0</ele><time>2026-05-02T14:56:13.999Z</time></trkpt><trkpt lat="44.168761913489774" lon="10.163379972110214"><ele>341.0</ele><time>2026-05-02T14:56:15.999Z</time></trkpt><trkpt lat="44.168641695593465" lon="10.163328754373293"><ele>347.0</ele><time>2026-05-02T14:56:17.999Z</time></trkpt><trkpt lat="44.16857871398618" lon="10.163327639441084"><ele>347.0</ele><time>2026-05-02T14:56:18.999Z</time></trkpt><trkpt lat="44.168456186352536" lon="10.16327801124097"><ele>347.0</ele><time>2026-05-02T14:56:20.999Z</time></trkpt><trkpt lat="44.168388928066136" lon="10.163280140745828"><ele>347.0</ele><time>2026-05-02T14:56:21.999Z</time></trkpt><trkpt lat="44.16832439931074" lon="10.163288590725756"><ele>347.0</ele><time>2026-05-02T14:56:22.999Z</time></trkpt><trkpt lat="44.16820489627894" lon="10.163324280231015"><ele>347.0</ele><time>2026-05-02T14:56:24.999Z</time></trkpt><trkpt lat="44.16808300314458" lon="10.163357002672935"><ele>347.8</ele><time>2026-05-02T14:56:26.999Z</time></trkpt><trkpt lat="44.16797320711804" lon="10.163384214720876"><ele>348.6</ele><time>2026-05-02T14:56:28.999Z</time></trkpt><trkpt lat="44.1678843553091" lon="10.163475486065934"><ele>349.40000000000003</ele><time>2026-05-02T14:56:30.999Z</time></trkpt><trkpt lat="44.16781912006932" lon="10.163622499602173"><ele>350.20000000000005</ele><time>2026-05-02T14:56:32.999Z</time></trkpt><trkpt lat="44.16776392308294" lon="10.16366832665332"><ele>351.0</ele><time>2026-05-02T14:56:33.999Z</time></trkpt><trkpt lat="44.16765984415495" lon="10.16374670320071"><ele>351.0</ele><time>2026-05-02T14:56:35.999Z</time></trkpt><trkpt lat="44.16750927131507" lon="10.16375862712363"><ele>351.0</ele><time>2026-05-02T14:56:37.999Z</time></trkpt><trkpt lat="44.16738856304029" lon="10.163872213607128"><ele>351.0</ele><time>2026-05-02T14:56:39.999Z</time></trkpt><trkpt lat="44.16731027803103" lon="10.163957052911694"><ele>351.0</ele><time>2026-05-02T14:56:41.999Z</time></trkpt><trkpt lat="44.167213838635355" lon="10.164066047331712"><ele>351.0</ele><time>2026-05-02T14:56:43.999Z</time></trkpt><trkpt lat="44.167134846695724" lon="10.164191533845775"><ele>351.0</ele><time>2026-05-02T14:56:45.999Z</time></trkpt><trkpt lat="44.16705371094431" lon="10.16425990406534"><ele>351.0</ele><time>2026-05-02T14:56:47.999Z</time></trkpt><trkpt lat="44.1669563203183" lon="10.164310728674655"><ele>351.0</ele><time>2026-05-02T14:56:49.999Z</time></trkpt><trkpt lat="44.166851138526226" lon="10.164340363872975"><ele>351.0</ele><time>2026-05-02T14:56:51.999Z</time></trkpt><trkpt lat="44.16673297237018" lon="10.164383562187163"><ele>351.0</ele><time>2026-05-02T14:56:53.999Z</time></trkpt><trkpt lat="44.166668379701235" lon="10.164375478127885"><ele>351.0</ele><time>2026-05-02T14:56:54.999Z</time></trkpt><trkpt lat="44.16656457156237" lon="10.164369514213359"><ele>351.0</ele><time>2026-05-02T14:56:56.999Z</time></trkpt><trkpt lat="44.166459457736856" lon="10.16434059186939"><ele>351.0</ele><time>2026-05-02T14:56:58.999Z</time></trkpt><trkpt lat="44.1663530287848" lon="10.164343026391204"><ele>351.0</ele><time>2026-05-02T14:57:00.999Z</time></trkpt><trkpt lat="44.166241646680206" lon="10.164341881381572"><ele>351.0</ele><time>2026-05-02T14:57:02.999Z</time></trkpt><trkpt lat="44.166127241449374" lon="10.164299371180817"><ele>351.0</ele><time>2026-05-02T14:57:04.999Z</time></trkpt><trkpt lat="44.16600469128579" lon="10.164340635683464"><ele>351.0</ele><time>2026-05-02T14:57:06.999Z</time></trkpt><trkpt lat="44.16589545872995" lon="10.164404068445457"><ele>351.0</ele><time>2026-05-02T14:57:08.998Z</time></trkpt><trkpt lat="44.16578713037198" lon="10.164440249106676"><ele>349.4</ele><time>2026-05-02T14:57:10.998Z</time></trkpt><trkpt lat="44.165689892676596" lon="10.164410859713142"><ele>347.8</ele><time>2026-05-02T14:57:12.998Z</time></trkpt><trkpt lat="44.16560702014243" lon="10.164383795758399"><ele>346.2</ele><time>2026-05-02T14:57:14.998Z</time></trkpt><trkpt lat="44.16550661769799" lon="10.164354323998671"><ele>344.59999999999997</ele><time>2026-05-02T14:57:17.998Z</time></trkpt><trkpt lat="44.1654195292734" lon="10.1643057541155"><ele>343.0</ele><time>2026-05-02T14:57:19.998Z</time></trkpt><trkpt lat="44.16532043207634" lon="10.16427529712273"><ele>343.0</ele><time>2026-05-02T14:57:21.998Z</time></trkpt><trkpt lat="44.16521976006042" lon="10.164241929534844"><ele>343.0</ele><time>2026-05-02T14:57:23.998Z</time></trkpt><trkpt lat="44.16512937641485" lon="10.164197717590941"><ele>343.0</ele><time>2026-05-02T14:57:25.998Z</time></trkpt><trkpt lat="44.1650405549637" lon="10.164114077502633"><ele>343.0</ele><time>2026-05-02T14:57:27.998Z</time></trkpt><trkpt lat="44.164955226875115" lon="10.164006717399921"><ele>343.0</ele><time>2026-05-02T14:57:29.998Z</time></trkpt><trkpt lat="44.164849231234996" lon="10.163927850011078"><ele>343.0</ele><time>2026-05-02T14:57:31.998Z</time></trkpt><trkpt lat="44.164734960855725" lon="10.163958852951449"><ele>343.0</ele><time>2026-05-02T14:57:33.998Z</time></trkpt><trkpt lat="44.164619091027205" lon="10.163972039229723"><ele>343.0</ele><time>2026-05-02T14:57:35.998Z</time></trkpt><trkpt lat="44.164507081944045" lon="10.163989571242624"><ele>343.0</ele><time>2026-05-02T14:57:37.998Z</time></trkpt><trkpt lat="44.164403075302644" lon="10.163992844272927"><ele>343.0</ele><time>2026-05-02T14:57:39.998Z</time></trkpt><trkpt lat="44.16432461318507" lon="10.1640106153143"><ele>344.25</ele><time>2026-05-02T14:57:41.998Z</time></trkpt><trkpt lat="44.16421787607259" lon="10.164073277963015"><ele>345.5</ele><time>2026-05-02T14:57:43.998Z</time></trkpt><trkpt lat="44.164106598647685" lon="10.164105564196415"><ele>346.75</ele><time>2026-05-02T14:57:46Z</time></trkpt><trkpt lat="44.164002407965725" lon="10.164131468841482"><ele>348.0</ele><time>2026-05-02T14:57:48Z</time></trkpt><trkpt lat="44.16387163116349" lon="10.164161839637268"><ele>353.0</ele><time>2026-05-02T14:57:50Z</time></trkpt><trkpt lat="44.16380791873267" lon="10.16418533406751"><ele>358.0</ele><time>2026-05-02T14:57:51Z</time></trkpt><trkpt lat="44.16374213294382" lon="10.164219992352542"><ele>363.0</ele><time>2026-05-02T14:57:52Z</time></trkpt><trkpt lat="44.16368076711591" lon="10.164282169254662"><ele>368.0</ele><time>2026-05-02T14:57:53Z</time></trkpt><trkpt lat="44.16362054644291" lon="10.164349378171615"><ele>373.0</ele><time>2026-05-02T14:57:54Z</time></trkpt><trkpt lat="44.163567781484026" lon="10.164430485414233"><ele>378.0</ele><time>2026-05-02T14:57:55Z</time></trkpt><trkpt lat="44.16350966037165" lon="10.164495254756432"><ele>383.0</ele><time>2026-05-02T14:57:56Z</time></trkpt><trkpt lat="44.16345105185857" lon="10.164556465780565"><ele>383.0</ele><time>2026-05-02T14:57:57Z</time></trkpt><trkpt lat="44.163395136734934" lon="10.164621772303018"><ele>383.0</ele><time>2026-05-02T14:57:58Z</time></trkpt><trkpt lat="44.163340571895446" lon="10.164683431309294"><ele>383.0</ele><time>2026-05-02T14:57:59Z</time></trkpt><trkpt lat="44.163280674706584" lon="10.164743042337873"><ele>383.0</ele><time>2026-05-02T14:58:00Z</time></trkpt><trkpt lat="44.163239642059786" lon="10.164818746649827"><ele>383.0</ele><time>2026-05-02T14:58:01Z</time></trkpt><trkpt lat="44.163207992249106" lon="10.164899187940724"><ele>383.0</ele><time>2026-05-02T14:58:02Z</time></trkpt><trkpt lat="44.16311809257273" lon="10.164986653293294"><ele>386.0</ele><time>2026-05-02T14:58:04Z</time></trkpt><trkpt lat="44.16306482794328" lon="10.165040503096236"><ele>389.0</ele><time>2026-05-02T14:58:05Z</time></trkpt><trkpt lat="44.1630146539681" lon="10.16511009179933"><ele>392.0</ele><time>2026-05-02T14:58:06Z</time></trkpt><trkpt lat="44.16296166808799" lon="10.165157755220953"><ele>395.0</ele><time>2026-05-02T14:58:07Z</time></trkpt><trkpt lat="44.16290166854371" lon="10.165212479472954"><ele>398.0</ele><time>2026-05-02T14:58:08Z</time></trkpt><trkpt lat="44.16284432216815" lon="10.165266157959906"><ele>401.0</ele><time>2026-05-02T14:58:09Z</time></trkpt><trkpt lat="44.16278906039683" lon="10.165311449993936"><ele>404.0</ele><time>2026-05-02T14:58:10Z</time></trkpt><trkpt lat="44.162688880016056" lon="10.165381185457099"><ele>404.0</ele><time>2026-05-02T14:58:12Z</time></trkpt><trkpt lat="44.162612386654054" lon="10.165444881088412"><ele>404.0</ele><time>2026-05-02T14:58:14Z</time></trkpt><trkpt lat="44.162537687615604" lon="10.165507021557744"><ele>404.0</ele><time>2026-05-02T14:58:16Z</time></trkpt><trkpt lat="44.16246294433121" lon="10.165569198832076"><ele>404.0</ele><time>2026-05-02T14:58:18Z</time></trkpt><trkpt lat="44.162392300474664" lon="10.165626434407503"><ele>404.0</ele><time>2026-05-02T14:58:21.04Z</time></trkpt><trkpt lat="44.16071800082603" lon="10.167126110119675"><ele>404.3333333333333</ele><time>2026-05-02T14:58:48.999Z</time></trkpt><trkpt lat="44.16060842165965" lon="10.167152654701399"><ele>404.66666666666663</ele><time>2026-05-02T14:58:49.999Z</time></trkpt><trkpt lat="44.160527696740736" lon="10.167171010682212"><ele>405.0</ele><time>2026-05-02T14:58:50.999Z</time></trkpt><trkpt lat="44.16046536649817" lon="10.167226424140665"><ele>405.33333333333337</ele><time>2026-05-02T14:58:51.999Z</time></trkpt><trkpt lat="44.16040173512202" lon="10.16728080634046"><ele>405.6666666666667</ele><time>2026-05-02T14:58:52.999Z</time></trkpt><trkpt lat="44.16034714012304" lon="10.167325835069846"><ele>406.0</ele><time>2026-05-02T14:58:53.999Z</time></trkpt><trkpt lat="44.16027925853162" lon="10.167379332225613"><ele>406.00000000000006</ele><time>2026-05-02T14:58:54.999Z</time></trkpt><trkpt lat="44.16020360702514" lon="10.167440140474326"><ele>406.0</ele><time>2026-05-02T14:58:55.999Z</time></trkpt><trkpt lat="44.16015095980765" lon="10.167501924072901"><ele>406.0</ele><time>2026-05-02T14:58:56.999Z</time></trkpt><trkpt lat="44.16004050143804" lon="10.167542750350147"><ele>406.0</ele><time>2026-05-02T14:58:58.999Z</time></trkpt><trkpt lat="44.15993485262525" lon="10.167538244587618"><ele>406.00000000000006</ele><time>2026-05-02T14:59:00.999Z</time></trkpt><trkpt lat="44.15987199274589" lon="10.167523999688482"><ele>406.0</ele><time>2026-05-02T14:59:01.999Z</time></trkpt><trkpt lat="44.15980449571948" lon="10.167523774094558"><ele>411.14285714285717</ele><time>2026-05-02T14:59:02.999Z</time></trkpt><trkpt lat="44.15973934035215" lon="10.167545017639547"><ele>416.2857142857143</ele><time>2026-05-02T14:59:03.999Z</time></trkpt><trkpt lat="44.159679136997205" lon="10.167592929051644"><ele>421.42857142857144</ele><time>2026-05-02T14:59:04.999Z</time></trkpt><trkpt lat="44.159612177058" lon="10.167616777828867"><ele>426.57142857142856</ele><time>2026-05-02T14:59:05.999Z</time></trkpt><trkpt lat="44.159546740356326" lon="10.167659661968166"><ele>431.7142857142857</ele><time>2026-05-02T14:59:06.999Z</time></trkpt><trkpt lat="44.15948514241479" lon="10.167720209480027"><ele>436.8571428571429</ele><time>2026-05-02T14:59:07.999Z</time></trkpt><trkpt lat="44.15941691588456" lon="10.16775320536701"><ele>442.0</ele><time>2026-05-02T14:59:08.999Z</time></trkpt><trkpt lat="44.15936340252828" lon="10.167811941464038"><ele>442.00000000000006</ele><time>2026-05-02T14:59:09.999Z</time></trkpt><trkpt lat="44.15929972705214" lon="10.167871719444504"><ele>442.0</ele><time>2026-05-02T14:59:10.999Z</time></trkpt><trkpt lat="44.15923027934976" lon="10.16790117290755"><ele>442.0</ele><time>2026-05-02T14:59:11.999Z</time></trkpt><trkpt lat="44.159163905135664" lon="10.16794829262439"><ele>442.0</ele><time>2026-05-02T14:59:12.999Z</time></trkpt><trkpt lat="44.15910242356278" lon="10.168005189958771"><ele>442.0</ele><time>2026-05-02T14:59:13.999Z</time></trkpt><trkpt lat="44.15903291787099" lon="10.168041639713296"><ele>442.00000000000006</ele><time>2026-05-02T14:59:14.999Z</time></trkpt><trkpt lat="44.15896140444247" lon="10.16807192654424"><ele>442.0</ele><time>2026-05-02T14:59:15.999Z</time></trkpt><trkpt lat="44.15889154723691" lon="10.168096966421453"><ele>443.42857142857144</ele><time>2026-05-02T14:59:16.999Z</time></trkpt><trkpt lat="44.158823859276374" lon="10.168117734603658"><ele>444.8571428571429</ele><time>2026-05-02T14:59:17.999Z</time></trkpt><trkpt lat="44.1587514633798" lon="10.168145455715978"><ele>446.28571428571433</ele><time>2026-05-02T14:59:18.999Z</time></trkpt><trkpt lat="44.15867378451834" lon="10.1681509232772"><ele>447.7142857142857</ele><time>2026-05-02T14:59:19.999Z</time></trkpt><trkpt lat="44.1585996747351" lon="10.168154109122263"><ele>449.1428571428571</ele><time>2026-05-02T14:59:20.999Z</time></trkpt><trkpt lat="44.15852910113637" lon="10.168155666969664"><ele>450.5714285714286</ele><time>2026-05-02T14:59:21.999Z</time></trkpt><trkpt lat="44.15845148827793" lon="10.168156875266371"><ele>452.0</ele><time>2026-05-02T14:59:22.999Z</time></trkpt><trkpt lat="44.15837775817258" lon="10.168142884348057"><ele>452.0</ele><time>2026-05-02T14:59:23.999Z</time></trkpt><trkpt lat="44.15830461976029" lon="10.168146360965267"><ele>452.0</ele><time>2026-05-02T14:59:24.999Z</time></trkpt><trkpt lat="44.15823782189241" lon="10.168185330941204"><ele>452.0</ele><time>2026-05-02T14:59:25.998Z</time></trkpt><trkpt lat="44.158175762372075" lon="10.168226294278545"><ele>452.0</ele><time>2026-05-02T14:59:26.998Z</time></trkpt><trkpt lat="44.15810869055795" lon="10.168268763845088"><ele>452.0</ele><time>2026-05-02T14:59:27.998Z</time></trkpt><trkpt lat="44.158043086283165" lon="10.168300939273392"><ele>452.0</ele><time>2026-05-02T14:59:28.998Z</time></trkpt><trkpt lat="44.157979685334645" lon="10.168338362482707"><ele>452.0</ele><time>2026-05-02T14:59:29.998Z</time></trkpt><trkpt lat="44.157910142096604" lon="10.168378538814833"><ele>447.66666666666663</ele><time>2026-05-02T14:59:30.998Z</time></trkpt><trkpt lat="44.15784491657523" lon="10.168421814292614"><ele>443.3333333333333</ele><time>2026-05-02T14:59:31.998Z</time></trkpt><trkpt lat="44.1577759551738" lon="10.168459588197635"><ele>439.0</ele><time>2026-05-02T14:59:32.998Z</time></trkpt><trkpt lat="44.15770959911098" lon="10.168496082606698"><ele>434.66666666666663</ele><time>2026-05-02T14:59:33.998Z</time></trkpt><trkpt lat="44.15759667309171" lon="10.168549309784023"><ele>430.3333333333333</ele><time>2026-05-02T14:59:35.998Z</time></trkpt><trkpt lat="44.15749463800371" lon="10.168584320239708"><ele>426.0</ele><time>2026-05-02T14:59:37.998Z</time></trkpt><trkpt lat="44.15739452145127" lon="10.168612624270775"><ele>428.8333333333333</ele><time>2026-05-02T14:59:39.998Z</time></trkpt><trkpt lat="44.1572903770418" lon="10.168646196950966"><ele>431.66666666666663</ele><time>2026-05-02T14:59:41.998Z</time></trkpt><trkpt lat="44.15716404864145" lon="10.16865783412382"><ele>434.5</ele><time>2026-05-02T14:59:43.998Z</time></trkpt><trkpt lat="44.15709952979069" lon="10.168660922071592"><ele>437.3333333333333</ele><time>2026-05-02T14:59:44.998Z</time></trkpt><trkpt lat="44.15702729435325" lon="10.168665411224412"><ele>440.16666666666663</ele><time>2026-05-02T14:59:45.998Z</time></trkpt><trkpt lat="44.15696266460739" lon="10.168677706997514"><ele>443.0</ele><time>2026-05-02T14:59:46.998Z</time></trkpt><trkpt lat="44.15689333393411" lon="10.168693921811435"><ele>442.99999999999994</ele><time>2026-05-02T14:59:47.998Z</time></trkpt><trkpt lat="44.156828326008686" lon="10.168703588493251"><ele>443.0</ele><time>2026-05-02T14:59:48.998Z</time></trkpt><trkpt lat="44.15676589459969" lon="10.168715448421224"><ele>443.0</ele><time>2026-05-02T14:59:49.998Z</time></trkpt><trkpt lat="44.15665034792562" lon="10.168746853241096"><ele>443.0</ele><time>2026-05-02T14:59:52.001Z</time></trkpt><trkpt lat="44.15654625051793" lon="10.168748192302544"><ele>442.99999999999994</ele><time>2026-05-02T14:59:54Z</time></trkpt><trkpt lat="44.15647575147356" lon="10.1687796327156"><ele>443.0</ele><time>2026-05-02T14:59:57.001Z</time></trkpt><trkpt lat="44.1564788178159" lon="10.16887650331578"><ele>442.99999999999994</ele><time>2026-05-02T15:00:19Z</time></trkpt><trkpt lat="44.156505018567444" lon="10.168787074859498"><ele>443.0</ele><time>2026-05-02T15:01:19.999Z</time></trkpt><trkpt lat="44.15659256144716" lon="10.168769364926879"><ele>443.0</ele><time>2026-05-02T15:01:22.999Z</time></trkpt><trkpt lat="44.15669910449406" lon="10.168746253020913"><ele>443.0</ele><time>2026-05-02T15:01:24.999Z</time></trkpt><trkpt lat="44.1567809062839" lon="10.168733084753049"><ele>442.99999999999994</ele><time>2026-05-02T15:01:26.999Z</time></trkpt><trkpt lat="44.15686449091323" lon="10.16872993571939"><ele>443.0</ele><time>2026-05-02T15:01:28.999Z</time></trkpt><trkpt lat="44.156965376748694" lon="10.168711614862266"><ele>443.0</ele><time>2026-05-02T15:01:30.999Z</time></trkpt><trkpt lat="44.15706944271925" lon="10.168698806979805"><ele>442.99999999999994</ele><time>2026-05-02T15:01:32.999Z</time></trkpt><trkpt lat="44.15716770913949" lon="10.168681383751272"><ele>442.99999999999994</ele><time>2026-05-02T15:01:34.999Z</time></trkpt><trkpt lat="44.15726671888004" lon="10.168668235693184"><ele>443.0</ele><time>2026-05-02T15:01:36.999Z</time></trkpt><trkpt lat="44.15736022193876" lon="10.168651597327774"><ele>443.0</ele><time>2026-05-02T15:01:38.999Z</time></trkpt><trkpt lat="44.157443073756816" lon="10.16862952414097"><ele>440.16666666666663</ele><time>2026-05-02T15:01:40.999Z</time></trkpt><trkpt lat="44.15752224414048" lon="10.168611574788548"><ele>437.3333333333333</ele><time>2026-05-02T15:01:42.999Z</time></trkpt><trkpt lat="44.15763309719334" lon="10.168566184670302"><ele>434.5</ele><time>2026-05-02T15:01:44.999Z</time></trkpt><trkpt lat="44.157693159326705" lon="10.168534240848473"><ele>431.66666666666663</ele><time>2026-05-02T15:01:45.999Z</time></trkpt><trkpt lat="44.157752038170386" lon="10.168495553097207"><ele>428.8333333333333</ele><time>2026-05-02T15:01:46.999Z</time></trkpt><trkpt lat="44.157814611669664" lon="10.168457406173657"><ele>426.0</ele><time>2026-05-02T15:01:47.999Z</time></trkpt><trkpt lat="44.157878921363654" lon="10.168420214920662"><ele>426.0</ele><time>2026-05-02T15:01:48.999Z</time></trkpt><trkpt lat="44.15794438739659" lon="10.168383506812317"><ele>426.0</ele><time>2026-05-02T15:01:49.999Z</time></trkpt><trkpt lat="44.15801173105708" lon="10.168343701222097"><ele>426.0</ele><time>2026-05-02T15:01:50.999Z</time></trkpt><trkpt lat="44.15807530600333" lon="10.168307876088377"><ele>426.0</ele><time>2026-05-02T15:01:51.999Z</time></trkpt><trkpt lat="44.1581361628623" lon="10.168276591049642"><ele>426.0</ele><time>2026-05-02T15:01:52.999Z</time></trkpt><trkpt lat="44.15825124465968" lon="10.168229390968763"><ele>426.0</ele><time>2026-05-02T15:01:54.998Z</time></trkpt><trkpt lat="44.15836895146615" lon="10.168188206153635"><ele>431.20000000000005</ele><time>2026-05-02T15:01:56.998Z</time></trkpt><trkpt lat="44.15843043711206" lon="10.168156564072737"><ele>436.40000000000003</ele><time>2026-05-02T15:01:58.001Z</time></trkpt><trkpt lat="44.158551730161435" lon="10.168180894829879"><ele>441.6</ele><time>2026-05-02T15:02:00.001Z</time></trkpt><trkpt lat="44.15867205366296" lon="10.16817517523432"><ele>446.8</ele><time>2026-05-02T15:02:02.001Z</time></trkpt><trkpt lat="44.15879417322839" lon="10.168160824220754"><ele>452.0</ele><time>2026-05-02T15:02:04.001Z</time></trkpt><trkpt lat="44.15891742505619" lon="10.168131803468608"><ele>452.0</ele><time>2026-05-02T15:02:06.001Z</time></trkpt><trkpt lat="44.15898111075589" lon="10.168109165766916"><ele>452.0</ele><time>2026-05-02T15:02:07.001Z</time></trkpt><trkpt lat="44.15904807120064" lon="10.168076993529848"><ele>452.0</ele><time>2026-05-02T15:02:08.001Z</time></trkpt><trkpt lat="44.15910614567953" lon="10.168039733364072"><ele>452.0</ele><time>2026-05-02T15:02:09.001Z</time></trkpt><trkpt lat="44.1591675498574" lon="10.16799763434122"><ele>452.0</ele><time>2026-05-02T15:02:10.001Z</time></trkpt><trkpt lat="44.15922297484643" lon="10.167938131994871"><ele>452.0</ele><time>2026-05-02T15:02:11.001Z</time></trkpt><trkpt lat="44.15928070784214" lon="10.167895143842198"><ele>452.0</ele><time>2026-05-02T15:02:12.001Z</time></trkpt><trkpt lat="44.159394887581165" lon="10.167824341625572"><ele>450.0</ele><time>2026-05-02T15:02:14.001Z</time></trkpt><trkpt lat="44.15947886993403" lon="10.167742208632339"><ele>448.00000000000006</ele><time>2026-05-02T15:02:16.001Z</time></trkpt><trkpt lat="44.15957415350202" lon="10.167702514556202"><ele>446.00000000000006</ele><time>2026-05-02T15:02:18.001Z</time></trkpt><trkpt lat="44.15965977697131" lon="10.16763320623146"><ele>444.0</ele><time>2026-05-02T15:02:20.001Z</time></trkpt><trkpt lat="44.15974364702133" lon="10.167575477240767"><ele>442.0</ele><time>2026-05-02T15:02:22.001Z</time></trkpt><trkpt lat="44.159815334134706" lon="10.167568021433304"><ele>436.00000000000006</ele><time>2026-05-02T15:02:24.001Z</time></trkpt><trkpt lat="44.159883755004074" lon="10.16756387178023"><ele>430.0</ele><time>2026-05-02T15:02:26Z</time></trkpt><trkpt lat="44.159956915460214" lon="10.167560625538504"><ele>424.0</ele><time>2026-05-02T15:02:28Z</time></trkpt><trkpt lat="44.160054480027625" lon="10.167575350908717"><ele>418.0</ele><time>2026-05-02T15:02:29.999Z</time></trkpt><trkpt lat="44.16014547032307" lon="10.16753572990768"><ele>412.00000000000006</ele><time>2026-05-02T15:02:31.999Z</time></trkpt><trkpt lat="44.160221863500546" lon="10.167463671774383"><ele>406.0</ele><time>2026-05-02T15:02:33.999Z</time></trkpt><trkpt lat="44.16031926581438" lon="10.167400981183809"><ele>411.25</ele><time>2026-05-02T15:02:35.999Z</time></trkpt><trkpt lat="44.16041087073104" lon="10.16730981517223"><ele>416.5</ele><time>2026-05-02T15:02:37.999Z</time></trkpt><trkpt lat="44.160515800804795" lon="10.167222853921126"><ele>421.75</ele><time>2026-05-02T15:02:39.999Z</time></trkpt><trkpt lat="44.16060643397859" lon="10.167127802818836"><ele>427.0</ele><time>2026-05-02T15:02:41.999Z</time></trkpt><trkpt lat="44.16069786320642" lon="10.167014350691735"><ele>420.8</ele><time>2026-05-02T15:02:43.999Z</time></trkpt><trkpt lat="44.160784914172446" lon="10.16690937388754"><ele>414.6</ele><time>2026-05-02T15:02:45.999Z</time></trkpt><trkpt lat="44.1608667450675" lon="10.16680428008121"><ele>408.40000000000003</ele><time>2026-05-02T15:02:47.999Z</time></trkpt><trkpt lat="44.16097673751365" lon="10.166744531407268"><ele>402.20000000000005</ele><time>2026-05-02T15:02:49.999Z</time></trkpt><trkpt lat="44.16102918335399" lon="10.166683855192812"><ele>396.0</ele><time>2026-05-02T15:02:50.999Z</time></trkpt><trkpt lat="44.16110081661954" lon="10.166662951007789"><ele>396.0</ele><time>2026-05-02T15:02:51.999Z</time></trkpt><trkpt lat="44.16117057029032" lon="10.166621536552015"><ele>396.0</ele><time>2026-05-02T15:02:52.999Z</time></trkpt><trkpt lat="44.16122570735086" lon="10.166567348637654"><ele>396.0</ele><time>2026-05-02T15:02:53.999Z</time></trkpt><trkpt lat="44.16130531533887" lon="10.166511187274452"><ele>396.0</ele><time>2026-05-02T15:02:54.999Z</time></trkpt><trkpt lat="44.161363995718595" lon="10.166467125357421"><ele>396.0</ele><time>2026-05-02T15:02:55.999Z</time></trkpt><trkpt lat="44.16142069537167" lon="10.166422769206228"><ele>396.0</ele><time>2026-05-02T15:02:56.999Z</time></trkpt><trkpt lat="44.16148605488255" lon="10.166373970150545"><ele>396.0</ele><time>2026-05-02T15:02:57.999Z</time></trkpt><trkpt lat="44.161552506589615" lon="10.166316805577896"><ele>397.8</ele><time>2026-05-02T15:02:58.999Z</time></trkpt><trkpt lat="44.16162664350057" lon="10.166268430818228"><ele>399.6</ele><time>2026-05-02T15:02:59.999Z</time></trkpt><trkpt lat="44.16170233036042" lon="10.166213822511851"><ele>401.4</ele><time>2026-05-02T15:03:00.999Z</time></trkpt><trkpt lat="44.161777628192084" lon="10.166150816724755"><ele>403.2</ele><time>2026-05-02T15:03:01.999Z</time></trkpt><trkpt lat="44.16185966899188" lon="10.166105411221476"><ele>405.0</ele><time>2026-05-02T15:03:02.999Z</time></trkpt><trkpt lat="44.16194490537492" lon="10.166016099893346"><ele>405.0</ele><time>2026-05-02T15:03:03.999Z</time></trkpt><trkpt lat="44.162033958326646" lon="10.165968854562697"><ele>405.0</ele><time>2026-05-02T15:03:04.999Z</time></trkpt><trkpt lat="44.16210505850713" lon="10.165885638499304"><ele>405.0</ele><time>2026-05-02T15:03:05.999Z</time></trkpt><trkpt lat="44.162191432641926" lon="10.16582894011899"><ele>405.0</ele><time>2026-05-02T15:03:06.999Z</time></trkpt><trkpt lat="44.16227177172328" lon="10.165760526092098"><ele>405.0</ele><time>2026-05-02T15:03:07.999Z</time></trkpt><trkpt lat="44.162350563980084" lon="10.165696902436196"><ele>405.0</ele><time>2026-05-02T15:03:08.999Z</time></trkpt><trkpt lat="44.162271279778246" lon="10.165787994452986"><ele>405.0</ele><time>2026-05-02T15:03:09.999Z</time></trkpt><trkpt lat="44.1623290743078" lon="10.165738969421142"><ele>405.0</ele><time>2026-05-02T15:03:10.999Z</time></trkpt><trkpt lat="44.162385898062695" lon="10.165694397220122"><ele>405.0</ele><time>2026-05-02T15:03:11.999Z</time></trkpt><trkpt lat="44.16243901643637" lon="10.16564580373586"><ele>405.0</ele><time>2026-05-02T15:03:12.999Z</time></trkpt><trkpt lat="44.16249752228309" lon="10.165576830115613"><ele>405.0</ele><time>2026-05-02T15:03:14.999Z</time></trkpt><trkpt lat="44.16269113729023" lon="10.165433858403972"><ele>404.8333333333333</ele><time>2026-05-02T15:03:16.999Z</time></trkpt><trkpt lat="44.16274807419523" lon="10.165384104918562"><ele>404.66666666666663</ele><time>2026-05-02T15:03:17.998Z</time></trkpt><trkpt lat="44.16282107654911" lon="10.165320312842109"><ele>404.5</ele><time>2026-05-02T15:03:19.998Z</time></trkpt><trkpt lat="44.162907397029244" lon="10.165244431026585"><ele>404.3333333333333</ele><time>2026-05-02T15:03:22.998Z</time></trkpt><trkpt lat="44.1629680045625" lon="10.165188375662401"><ele>404.16666666666663</ele><time>2026-05-02T15:03:24.998Z</time></trkpt><trkpt lat="44.16305755974648" lon="10.165103813778561"><ele>404.0</ele><time>2026-05-02T15:03:26.998Z</time></trkpt><trkpt lat="44.163140429326106" lon="10.165021099827277"><ele>399.79999999999995</ele><time>2026-05-02T15:03:28.998Z</time></trkpt><trkpt lat="44.16321675351825" lon="10.16493408517868"><ele>395.59999999999997</ele><time>2026-05-02T15:03:30.998Z</time></trkpt><trkpt lat="44.16328279352342" lon="10.16481279542438"><ele>391.4</ele><time>2026-05-02T15:03:32.998Z</time></trkpt><trkpt lat="44.163350538831715" lon="10.164708574704838"><ele>387.2</ele><time>2026-05-02T15:03:34.998Z</time></trkpt><trkpt lat="44.163439424669704" lon="10.16460997266532"><ele>383.0</ele><time>2026-05-02T15:03:36.998Z</time></trkpt><trkpt lat="44.16353308357246" lon="10.164500050310524"><ele>383.0</ele><time>2026-05-02T15:03:38.998Z</time></trkpt><trkpt lat="44.163629228371484" lon="10.164385790595206"><ele>383.0</ele><time>2026-05-02T15:03:40.998Z</time></trkpt><trkpt lat="44.16368536439573" lon="10.164331813873494"><ele>383.0</ele><time>2026-05-02T15:03:41.998Z</time></trkpt><trkpt lat="44.163790230414286" lon="10.164234303153961"><ele>383.0</ele><time>2026-05-02T15:03:43.998Z</time></trkpt><trkpt lat="44.16389943783209" lon="10.164201758627986"><ele>383.0</ele><time>2026-05-02T15:03:45.998Z</time></trkpt><trkpt lat="44.16400716572971" lon="10.164188855980125"><ele>376.0</ele><time>2026-05-02T15:03:47.998Z</time></trkpt><trkpt lat="44.16408848661781" lon="10.164172800271057"><ele>369.0</ele><time>2026-05-02T15:03:49.998Z</time></trkpt><trkpt lat="44.164186295845866" lon="10.164122375403965"><ele>362.0</ele><time>2026-05-02T15:03:51.998Z</time></trkpt><trkpt lat="44.16429015153053" lon="10.16406691036234"><ele>355.0</ele><time>2026-05-02T15:03:53.998Z</time></trkpt><trkpt lat="44.164388348915125" lon="10.164020241413759"><ele>348.0</ele><time>2026-05-02T15:03:55.998Z</time></trkpt><trkpt lat="44.16445386585059" lon="10.164033374115759"><ele>347.0</ele><time>2026-05-02T15:03:57.998Z</time></trkpt><trkpt lat="44.164533204427705" lon="10.164018304452815"><ele>346.0</ele><time>2026-05-02T15:03:59.998Z</time></trkpt><trkpt lat="44.16464302535578" lon="10.163996653015687"><ele>345.0</ele><time>2026-05-02T15:04:01.998Z</time></trkpt><trkpt lat="44.16476139655886" lon="10.163960260630994"><ele>344.0</ele><time>2026-05-02T15:04:04Z</time></trkpt><trkpt lat="44.16486767376007" lon="10.163966447100808"><ele>343.0</ele><time>2026-05-02T15:04:06Z</time></trkpt><trkpt lat="44.16494938309735" lon="10.164040397914142"><ele>343.0</ele><time>2026-05-02T15:04:08Z</time></trkpt><trkpt lat="44.16502593701477" lon="10.1641470441071"><ele>343.0</ele><time>2026-05-02T15:04:10Z</time></trkpt><trkpt lat="44.16512251499542" lon="10.164234569631898"><ele>343.0</ele><time>2026-05-02T15:04:12Z</time></trkpt><trkpt lat="44.16522664684555" lon="10.164279947530272"><ele>343.0</ele><time>2026-05-02T15:04:14Z</time></trkpt><trkpt lat="44.16531112279804" lon="10.164305321146045"><ele>343.0</ele><time>2026-05-02T15:04:16Z</time></trkpt><trkpt lat="44.16541830360637" lon="10.16435266713921"><ele>343.0</ele><time>2026-05-02T15:04:18Z</time></trkpt><trkpt lat="44.165535613068734" lon="10.164388418851026"><ele>343.0</ele><time>2026-05-02T15:04:20Z</time></trkpt><trkpt lat="44.165620497679434" lon="10.164402676233216"><ele>343.0</ele><time>2026-05-02T15:04:22Z</time></trkpt><trkpt lat="44.16571813063968" lon="10.164431246728512"><ele>343.0</ele><time>2026-05-02T15:04:24Z</time></trkpt><trkpt lat="44.16583345666417" lon="10.16447946816472"><ele>343.0</ele><time>2026-05-02T15:04:26Z</time></trkpt><trkpt lat="44.16589320517993" lon="10.164449673685176"><ele>343.0</ele><time>2026-05-02T15:04:27Z</time></trkpt><trkpt lat="44.16600839719861" lon="10.164384756854957"><ele>343.0</ele><time>2026-05-02T15:04:29Z</time></trkpt><trkpt lat="44.16611192821096" lon="10.164338282330077"><ele>343.0</ele><time>2026-05-02T15:04:31Z</time></trkpt><trkpt lat="44.166230232520384" lon="10.164365516482494"><ele>343.0</ele><time>2026-05-02T15:04:33Z</time></trkpt><trkpt lat="44.166293591952225" lon="10.16437047566589"><ele>343.0</ele><time>2026-05-02T15:04:34Z</time></trkpt><trkpt lat="44.16636341274154" lon="10.164357410959228"><ele>343.0</ele><time>2026-05-02T15:04:35Z</time></trkpt><trkpt lat="44.166474769412126" lon="10.164361677373304"><ele>343.0</ele><time>2026-05-02T15:04:37Z</time></trkpt><trkpt lat="44.1665380565647" lon="10.164374470033508"><ele>343.0</ele><time>2026-05-02T15:04:38Z</time></trkpt><trkpt lat="44.16666343845443" lon="10.164389652146014"><ele>343.0</ele><time>2026-05-02T15:04:40Z</time></trkpt><trkpt lat="44.166788520346465" lon="10.164387195142107"><ele>343.0</ele><time>2026-05-02T15:04:42Z</time></trkpt><trkpt lat="44.166896963350204" lon="10.164353404184194"><ele>343.0</ele><time>2026-05-02T15:04:44Z</time></trkpt><trkpt lat="44.16698887376048" lon="10.164315426846933"><ele>343.0</ele><time>2026-05-02T15:04:46.999Z</time></trkpt><trkpt lat="44.16709824503635" lon="10.164238206390818"><ele>343.0</ele><time>2026-05-02T15:04:48.999Z</time></trkpt><trkpt lat="44.16714915410191" lon="10.164185074671513"><ele>343.0</ele><time>2026-05-02T15:04:49.999Z</time></trkpt><trkpt lat="44.167202299757975" lon="10.164126064601373"><ele>343.0</ele><time>2026-05-02T15:04:50.999Z</time></trkpt><trkpt lat="44.16725697692167" lon="10.164061114739564"><ele>343.0</ele><time>2026-05-02T15:04:51.999Z</time></trkpt><trkpt lat="44.16731287292334" lon="10.164003030495554"><ele>344.59999999999997</ele><time>2026-05-02T15:04:52.999Z</time></trkpt><trkpt lat="44.167367788643745" lon="10.16394842837644"><ele>346.2</ele><time>2026-05-02T15:04:53.999Z</time></trkpt><trkpt lat="44.167448475329934" lon="10.163867330703669"><ele>347.8</ele><time>2026-05-02T15:04:55.999Z</time></trkpt><trkpt lat="44.16754849007748" lon="10.163801274616121"><ele>349.4</ele><time>2026-05-02T15:04:57.999Z</time></trkpt><trkpt lat="44.16765254007392" lon="10.163783034443039"><ele>351.0</ele><time>2026-05-02T15:04:59.999Z</time></trkpt><trkpt lat="44.16775322726768" lon="10.16372744080865"><ele>351.0</ele><time>2026-05-02T15:05:01.999Z</time></trkpt><trkpt lat="44.16784481867168" lon="10.163619387455304"><ele>351.0</ele><time>2026-05-02T15:05:03.999Z</time></trkpt><trkpt lat="44.16791460287601" lon="10.163493439992482"><ele>351.0</ele><time>2026-05-02T15:05:05.999Z</time></trkpt><trkpt lat="44.167985709017074" lon="10.16341117966662"><ele>351.0</ele><time>2026-05-02T15:05:07.999Z</time></trkpt><trkpt lat="44.1680677174326" lon="10.1633701099053"><ele>351.0</ele><time>2026-05-02T15:05:09.999Z</time></trkpt><trkpt lat="44.168166727846206" lon="10.163357265246903"><ele>350.42857142857144</ele><time>2026-05-02T15:05:11.999Z</time></trkpt><trkpt lat="44.168282175895094" lon="10.163333411128416"><ele>349.8571428571429</ele><time>2026-05-02T15:05:13.999Z</time></trkpt><trkpt lat="44.1683456732685" lon="10.163321105781048"><ele>349.28571428571433</ele><time>2026-05-02T15:05:14.999Z</time></trkpt><trkpt lat="44.16841322734254" lon="10.163320453187486"><ele>348.7142857142857</ele><time>2026-05-02T15:05:15.999Z</time></trkpt><trkpt lat="44.168480415377736" lon="10.163327963649039"><ele>348.1428571428571</ele><time>2026-05-02T15:05:16.999Z</time></trkpt><trkpt lat="44.168546163351714" lon="10.163342409408203"><ele>347.5714285714286</ele><time>2026-05-02T15:05:17.999Z</time></trkpt><trkpt lat="44.16860999218141" lon="10.163362163353522"><ele>347.0</ele><time>2026-05-02T15:05:18.999Z</time></trkpt><trkpt lat="44.16867401458824" lon="10.163387833562707"><ele>347.0</ele><time>2026-05-02T15:05:19.999Z</time></trkpt><trkpt lat="44.16879166400494" lon="10.163428343678156"><ele>347.0</ele><time>2026-05-02T15:05:21.999Z</time></trkpt><trkpt lat="44.1689083581631" lon="10.163440624214672"><ele>347.0</ele><time>2026-05-02T15:05:23.999Z</time></trkpt><trkpt lat="44.169008713500425" lon="10.163378226042758"><ele>347.0</ele><time>2026-05-02T15:05:25.999Z</time></trkpt><trkpt lat="44.16910234045655" lon="10.163273985753525"><ele>341.0</ele><time>2026-05-02T15:05:27.999Z</time></trkpt><trkpt lat="44.169181905838485" lon="10.163141420387445"><ele>335.0</ele><time>2026-05-02T15:05:29.999Z</time></trkpt><trkpt lat="44.16924481555317" lon="10.162999183468067"><ele>329.0</ele><time>2026-05-02T15:05:31.998Z</time></trkpt><trkpt lat="44.169301680825306" lon="10.162880730752413"><ele>323.0</ele><time>2026-05-02T15:05:33.998Z</time></trkpt><trkpt lat="44.16933994862579" lon="10.16280806639209"><ele>317.0</ele><time>2026-05-02T15:05:34.998Z</time></trkpt><trkpt lat="44.16941332248223" lon="10.162719076182285"><ele>317.0</ele><time>2026-05-02T15:05:36.998Z</time></trkpt><trkpt lat="44.16951885529327" lon="10.16272408544321"><ele>317.0</ele><time>2026-05-02T15:05:38.998Z</time></trkpt><trkpt lat="44.169587504917246" lon="10.16271916390558"><ele>317.0</ele><time>2026-05-02T15:05:39.998Z</time></trkpt><trkpt lat="44.169656719109895" lon="10.162677717127709"><ele>317.0</ele><time>2026-05-02T15:05:40.998Z</time></trkpt><trkpt lat="44.16971467719333" lon="10.162616997908206"><ele>317.0</ele><time>2026-05-02T15:05:41.998Z</time></trkpt><trkpt lat="44.16976750479434" lon="10.162534408680918"><ele>317.0</ele><time>2026-05-02T15:05:42.998Z</time></trkpt><trkpt lat="44.169809352933974" lon="10.162450338370206"><ele>318.7142857142857</ele><time>2026-05-02T15:05:43.998Z</time></trkpt><trkpt lat="44.16983900042287" lon="10.16236296475577"><ele>320.42857142857144</ele><time>2026-05-02T15:05:44.998Z</time></trkpt><trkpt lat="44.1698610631091" lon="10.162272223654194"><ele>322.1428571428571</ele><time>2026-05-02T15:05:45.998Z</time></trkpt><trkpt lat="44.16987499264723" lon="10.162170553668362"><ele>323.8571428571429</ele><time>2026-05-02T15:05:46.998Z</time></trkpt><trkpt lat="44.16988067090678" lon="10.162069508332644"><ele>325.57142857142856</ele><time>2026-05-02T15:05:47.998Z</time></trkpt><trkpt lat="44.169877669528745" lon="10.161969671298804"><ele>327.2857142857143</ele><time>2026-05-02T15:05:48.998Z</time></trkpt><trkpt lat="44.1698653055601" lon="10.161869040964085"><ele>329.0</ele><time>2026-05-02T15:05:49.998Z</time></trkpt><trkpt lat="44.16985221066468" lon="10.161766952865584"><ele>329.0</ele><time>2026-05-02T15:05:50.998Z</time></trkpt><trkpt lat="44.16986399971708" lon="10.161661319072667"><ele>329.0</ele><time>2026-05-02T15:05:51.998Z</time></trkpt><trkpt lat="44.169844070257085" lon="10.16155572542629"><ele>329.0</ele><time>2026-05-02T15:05:52.998Z</time></trkpt><trkpt lat="44.16984231550222" lon="10.161444256486549"><ele>329.0</ele><time>2026-05-02T15:05:53.998Z</time></trkpt><trkpt lat="44.16983968840381" lon="10.161331981729568"><ele>329.0</ele><time>2026-05-02T15:05:54.998Z</time></trkpt><trkpt lat="44.16984392533603" lon="10.161216526680375"><ele>329.0</ele><time>2026-05-02T15:05:55.998Z</time></trkpt><trkpt lat="44.169851212836335" lon="10.161102246277451"><ele>328.6666666666667</ele><time>2026-05-02T15:05:56.998Z</time></trkpt><trkpt lat="44.16985523745015" lon="10.160980321436726"><ele>328.33333333333337</ele><time>2026-05-02T15:05:57.998Z</time></trkpt><trkpt lat="44.169853212175916" lon="10.160858973340956"><ele>328.0</ele><time>2026-05-02T15:05:58.998Z</time></trkpt><trkpt lat="44.1698517433103" lon="10.160738553483032"><ele>327.6666666666667</ele><time>2026-05-02T15:05:59.998Z</time></trkpt><trkpt lat="44.16985144572264" lon="10.160617585240812"><ele>327.3333333333333</ele><time>2026-05-02T15:06:00.998Z</time></trkpt><trkpt lat="44.16985106328516" lon="10.160505625862353"><ele>327.0</ele><time>2026-05-02T15:06:01.998Z</time></trkpt><trkpt lat="44.16984990275233" lon="10.160387471974365"><ele>324.8333333333333</ele><time>2026-05-02T15:06:02.998Z</time></trkpt><trkpt lat="44.16984127835998" lon="10.160277317859382"><ele>322.6666666666667</ele><time>2026-05-02T15:06:03.998Z</time></trkpt><trkpt lat="44.169834878112496" lon="10.160174918199209"><ele>320.5</ele><time>2026-05-02T15:06:04.998Z</time></trkpt><trkpt lat="44.16983498508131" lon="10.16007923022549"><ele>318.33333333333337</ele><time>2026-05-02T15:06:05.998Z</time></trkpt><trkpt lat="44.16982434044831" lon="10.159991405960385"><ele>316.1666666666667</ele><time>2026-05-02T15:06:06.998Z</time></trkpt><trkpt lat="44.16978443764812" lon="10.159830555333192"><ele>314.0</ele><time>2026-05-02T15:06:09Z</time></trkpt><trkpt lat="44.169725875261015" lon="10.15969329695202"><ele>312.6666666666667</ele><time>2026-05-02T15:06:11Z</time></trkpt><trkpt lat="44.169686670435645" lon="10.159586840216486"><ele>311.33333333333337</ele><time>2026-05-02T15:06:13Z</time></trkpt><trkpt lat="44.16966957158762" lon="10.159479058691158"><ele>310.0</ele><time>2026-05-02T15:06:58.999Z</time></trkpt><trkpt lat="44.16966056389312" lon="10.159375360960222"><ele>308.6666666666667</ele><time>2026-05-02T15:07:00.999Z</time></trkpt><trkpt lat="44.169651424440566" lon="10.159274388592046"><ele>307.3333333333333</ele><time>2026-05-02T15:07:02.999Z</time></trkpt><trkpt lat="44.16970297349024" lon="10.159174913374411"><ele>306.0</ele><time>2026-05-02T15:07:04.999Z</time></trkpt><trkpt lat="44.16972339152788" lon="10.15905689816444"><ele>304.8333333333333</ele><time>2026-05-02T15:07:07.999Z</time></trkpt><trkpt lat="44.169743933286384" lon="10.158947660446229"><ele>303.6666666666667</ele><time>2026-05-02T15:07:10.999Z</time></trkpt><trkpt lat="44.16974394864222" lon="10.158839119077689"><ele>302.5</ele><time>2026-05-02T15:07:14.999Z</time></trkpt><trkpt lat="44.16972765139252" lon="10.158746720494467"><ele>301.33333333333337</ele><time>2026-05-02T15:07:19.999Z</time></trkpt><trkpt lat="44.16972522097091" lon="10.158614534521108"><ele>300.1666666666667</ele><time>2026-05-02T15:07:23.999Z</time></trkpt><trkpt lat="44.16968438900552" lon="10.15851461473645"><ele>299.0</ele><time>2026-05-02T15:07:25.999Z</time></trkpt><trkpt lat="44.17003595387073" lon="10.158315199385683"><ele>293.6666666666667</ele><time>2026-05-02T15:07:28.999Z</time></trkpt><trkpt lat="44.17006456480683" lon="10.158150094245407"><ele>288.33333333333337</ele><time>2026-05-02T15:07:46.998Z</time></trkpt><trkpt lat="44.17005897389539" lon="10.158055629181073"><ele>283.0</ele><time>2026-05-02T15:07:47.998Z</time></trkpt><trkpt lat="44.170053565042004" lon="10.157958034318995"><ele>277.6666666666667</ele><time>2026-05-02T15:07:48.998Z</time></trkpt><trkpt lat="44.170042330189766" lon="10.15786654434938"><ele>272.3333333333333</ele><time>2026-05-02T15:07:49.998Z</time></trkpt><trkpt lat="44.17003010486016" lon="10.157775389588215"><ele>267.0</ele><time>2026-05-02T15:07:50.998Z</time></trkpt><trkpt lat="44.170028067266436" lon="10.157604837522108"><ele>267.0</ele><time>2026-05-02T15:07:52.998Z</time></trkpt><trkpt lat="44.17000995313423" lon="10.15745581957373"><ele>267.0</ele><time>2026-05-02T15:07:54.998Z</time></trkpt><trkpt lat="44.16999616543017" lon="10.157327014821913"><ele>267.0</ele><time>2026-05-02T15:07:56.998Z</time></trkpt><trkpt lat="44.169990724349574" lon="10.157220138955603"><ele>267.0</ele><time>2026-05-02T15:07:59.998Z</time></trkpt><trkpt lat="44.17000364244472" lon="10.157359938812922"><ele>267.0</ele><time>2026-05-02T15:08:09.998Z</time></trkpt><trkpt lat="44.170021491521766" lon="10.15753497743577"><ele>267.0</ele><time>2026-05-02T15:08:11.998Z</time></trkpt><trkpt lat="44.170031231059575" lon="10.157638451868905"><ele>267.0</ele><time>2026-05-02T15:08:12.998Z</time></trkpt><trkpt lat="44.17004178344015" lon="10.157750561360025"><ele>267.0</ele><time>2026-05-02T15:08:14Z</time></trkpt><trkpt lat="44.17004891629818" lon="10.157871488991217"><ele>267.0</ele><time>2026-05-02T15:08:15Z</time></trkpt><trkpt lat="44.17005804353919" lon="10.157996922138135"><ele>267.0</ele><time>2026-05-02T15:08:16Z</time></trkpt><trkpt lat="44.17003990144869" lon="10.158215153029698"><ele>267.6</ele><time>2026-05-02T15:08:17Z</time></trkpt><trkpt lat="44.170040343255046" lon="10.158344883865576"><ele>268.2</ele><time>2026-05-02T15:08:18Z</time></trkpt><trkpt lat="44.17003515505851" lon="10.158475275525616"><ele>268.8</ele><time>2026-05-02T15:08:19Z</time></trkpt><trkpt lat="44.17003013838881" lon="10.15860406084923"><ele>269.4</ele><time>2026-05-02T15:08:20Z</time></trkpt><trkpt lat="44.17002558105046" lon="10.158728520953392"><ele>270.0</ele><time>2026-05-02T15:08:21Z</time></trkpt><trkpt lat="44.1700238555749" lon="10.158849406527006"><ele>270.0</ele><time>2026-05-02T15:08:22Z</time></trkpt><trkpt lat="44.17003175817098" lon="10.158966088710049"><ele>270.0</ele><time>2026-05-02T15:08:23Z</time></trkpt><trkpt lat="44.1700588324166" lon="10.159077656052757"><ele>270.0</ele><time>2026-05-02T15:08:24Z</time></trkpt><trkpt lat="44.17010392727488" lon="10.159175424038386"><ele>270.0</ele><time>2026-05-02T15:08:25Z</time></trkpt><trkpt lat="44.17016042439452" lon="10.159259776307588"><ele>270.0</ele><time>2026-05-02T15:08:26Z</time></trkpt><trkpt lat="44.17022463751711" lon="10.15933558614511"><ele>270.0</ele><time>2026-05-02T15:08:27Z</time></trkpt><trkpt lat="44.17029842724206" lon="10.159395722110299"><ele>270.6666666666667</ele><time>2026-05-02T15:08:28Z</time></trkpt><trkpt lat="44.17038010715943" lon="10.159430194051108"><ele>271.3333333333333</ele><time>2026-05-02T15:08:29Z</time></trkpt><trkpt lat="44.17046436608986" lon="10.15943117466853"><ele>272.0</ele><time>2026-05-02T15:08:30Z</time></trkpt><trkpt lat="44.170535332408406" lon="10.159411761722835"><ele>272.66666666666663</ele><time>2026-05-02T15:08:31Z</time></trkpt><trkpt lat="44.170606836979374" lon="10.159402030596306"><ele>273.3333333333333</ele><time>2026-05-02T15:08:32Z</time></trkpt><trkpt lat="44.17067076976285" lon="10.159398473794024"><ele>274.0</ele><time>2026-05-02T15:08:33Z</time></trkpt><trkpt lat="44.170751005757275" lon="10.15937517232531"><ele>275.59999999999997</ele><time>2026-05-02T15:08:35Z</time></trkpt><trkpt lat="44.17082562409711" lon="10.1593264787132"><ele>277.2</ele><time>2026-05-02T15:10:00.998Z</time></trkpt><trkpt lat="44.17090066994887" lon="10.159214613973864"><ele>278.79999999999995</ele><time>2026-05-02T15:10:02.998Z</time></trkpt><trkpt lat="44.170950677204395" lon="10.159151579722552"><ele>280.4</ele><time>2026-05-02T15:10:03.998Z</time></trkpt><trkpt lat="44.17098654770685" lon="10.15901251594784"><ele>282.0</ele><time>2026-05-02T15:10:05.998Z</time></trkpt><trkpt lat="44.17114620485135" lon="10.159100998756088"><ele>282.0</ele><time>2026-05-02T15:10:06.998Z</time></trkpt><trkpt lat="44.17123146461455" lon="10.15906098905942"><ele>282.0</ele><time>2026-05-02T15:10:08.998Z</time></trkpt><trkpt lat="44.17133781028203" lon="10.15901268168884"><ele>282.0</ele><time>2026-05-02T15:10:10.998Z</time></trkpt><trkpt lat="44.171457564181885" lon="10.158977768575474"><ele>282.0</ele><time>2026-05-02T15:10:12.998Z</time></trkpt><trkpt lat="44.17155506629993" lon="10.158934054234098"><ele>282.0</ele><time>2026-05-02T15:10:14.998Z</time></trkpt><trkpt lat="44.17164082442969" lon="10.158910397832065"><ele>286.1666666666667</ele><time>2026-05-02T15:10:16.998Z</time></trkpt><trkpt lat="44.171724724332606" lon="10.158941073785568"><ele>290.3333333333333</ele><time>2026-05-02T15:10:18.998Z</time></trkpt><trkpt lat="44.171821504053334" lon="10.159007269645238"><ele>294.5</ele><time>2026-05-02T15:10:20.999Z</time></trkpt><trkpt lat="44.171906413975954" lon="10.159094272205952"><ele>298.66666666666663</ele><time>2026-05-02T15:10:22.999Z</time></trkpt><trkpt lat="44.17190007722258" lon="10.159187388380829"><ele>302.8333333333333</ele><time>2026-05-02T15:10:25.999Z</time></trkpt><trkpt lat="44.171867772044465" lon="10.159103741720076"><ele>307.0</ele><time>2026-05-02T15:10:47.999Z</time></trkpt><trkpt lat="44.171831776684954" lon="10.159028476199364"><ele>308.66666666666663</ele><time>2026-05-02T15:10:50.999Z</time></trkpt><trkpt lat="44.1717545254513" lon="10.15897185440925"><ele>310.3333333333333</ele><time>2026-05-02T15:10:53.999Z</time></trkpt><trkpt lat="44.171686540366544" lon="10.158937169062789"><ele>312.0</ele><time>2026-05-02T15:10:57.999Z</time></trkpt><trkpt lat="44.171623587529126" lon="10.158909006925727"><ele>313.6666666666667</ele><time>2026-05-02T15:10:59.999Z</time></trkpt><trkpt lat="44.171552305665784" lon="10.15892576110395"><ele>315.33333333333337</ele><time>2026-05-02T15:11:01.999Z</time></trkpt><trkpt lat="44.17146992387916" lon="10.1589623150228"><ele>317.0</ele><time>2026-05-02T15:11:03.999Z</time></trkpt><trkpt lat="44.1713885617144" lon="10.158997194377575"><ele>312.0</ele><time>2026-05-02T15:11:05.999Z</time></trkpt><trkpt lat="44.17130279983529" lon="10.159021576266156"><ele>307.0</ele><time>2026-05-02T15:11:07.999Z</time></trkpt><trkpt lat="44.17122543732845" lon="10.159055277765985"><ele>302.0</ele><time>2026-05-02T15:11:09.999Z</time></trkpt><trkpt lat="44.17114299133554" lon="10.159107339981407"><ele>297.0</ele><time>2026-05-02T15:11:12.999Z</time></trkpt><trkpt lat="44.17107575066582" lon="10.159145109086348"><ele>292.0</ele><time>2026-05-02T15:11:14.999Z</time></trkpt><trkpt lat="44.17098470279128" lon="10.159188106950035"><ele>287.0</ele><time>2026-05-02T15:11:16.999Z</time></trkpt><trkpt lat="44.17090113970081" lon="10.159252681429713"><ele>287.0</ele><time>2026-05-02T15:11:18.999Z</time></trkpt><trkpt lat="44.17083423491508" lon="10.159277990843218"><ele>287.0</ele><time>2026-05-02T15:11:20.999Z</time></trkpt><trkpt lat="44.170749855968154" lon="10.159336688399891"><ele>287.0</ele><time>2026-05-02T15:11:47.998Z</time></trkpt><trkpt lat="44.17066479548052" lon="10.159386375652074"><ele>287.0</ele><time>2026-05-02T15:11:49.998Z</time></trkpt><trkpt lat="44.17054683907907" lon="10.159396257540067"><ele>287.0</ele><time>2026-05-02T15:11:51.998Z</time></trkpt><trkpt lat="44.17041610408238" lon="10.159409344064377"><ele>284.83333333333337</ele><time>2026-05-02T15:11:53.998Z</time></trkpt><trkpt lat="44.17035214431764" lon="10.159403821863338"><ele>282.6666666666667</ele><time>2026-05-02T15:11:54.998Z</time></trkpt><trkpt lat="44.17024107110006" lon="10.1593408289572"><ele>280.5</ele><time>2026-05-02T15:11:56.998Z</time></trkpt><trkpt lat="44.17014582439007" lon="10.159227331955547"><ele>278.3333333333333</ele><time>2026-05-02T15:11:58.998Z</time></trkpt><trkpt lat="44.17010525192012" lon="10.159159435365188"><ele>276.16666666666663</ele><time>2026-05-02T15:11:59.998Z</time></trkpt><trkpt lat="44.17007220408057" lon="10.159083594615181"><ele>274.0</ele><time>2026-05-02T15:12:00.998Z</time></trkpt><trkpt lat="44.170042024846175" lon="10.158907038835224"><ele>273.2</ele><time>2026-05-02T15:12:02.998Z</time></trkpt><trkpt lat="44.170043618075724" lon="10.158722662526491"><ele>272.4</ele><time>2026-05-02T15:12:04.998Z</time></trkpt><trkpt lat="44.170048987629954" lon="10.158617256830874"><ele>271.6</ele><time>2026-05-02T15:12:05.998Z</time></trkpt><trkpt lat="44.17004349545699" lon="10.158505817484368"><ele>270.8</ele><time>2026-05-02T15:12:06.998Z</time></trkpt><trkpt lat="44.170045658655866" lon="10.158389939922186"><ele>270.0</ele><time>2026-05-02T15:12:07.998Z</time></trkpt><trkpt lat="44.17006351752966" lon="10.158272365960142"><ele>269.4</ele><time>2026-05-02T15:12:08.998Z</time></trkpt><trkpt lat="44.17004966841252" lon="10.158147799246104"><ele>268.8</ele><time>2026-05-02T15:12:09.998Z</time></trkpt><trkpt lat="44.17004584567906" lon="10.158022999617879"><ele>268.2</ele><time>2026-05-02T15:12:10.998Z</time></trkpt><trkpt lat="44.17004166882957" lon="10.157899981554236"><ele>267.6</ele><time>2026-05-02T15:12:11.997Z</time></trkpt><trkpt lat="44.17003318197746" lon="10.15777266484247"><ele>267.0</ele><time>2026-05-02T15:12:12.997Z</time></trkpt><trkpt lat="44.17002127648321" lon="10.157644415554811"><ele>267.0</ele><time>2026-05-02T15:12:13.997Z</time></trkpt><trkpt lat="44.170007152172644" lon="10.1575186750882"><ele>267.0</ele><time>2026-05-02T15:12:14.997Z</time></trkpt><trkpt lat="44.16999781957784" lon="10.157392794490855"><ele>267.0</ele><time>2026-05-02T15:12:15.997Z</time></trkpt><trkpt lat="44.16998380456798" lon="10.157269852530453"><ele>267.0</ele><time>2026-05-02T15:12:16.997Z</time></trkpt><trkpt lat="44.16996861762944" lon="10.157142759523085"><ele>267.0</ele><time>2026-05-02T15:12:17.997Z</time></trkpt><trkpt lat="44.16994837484758" lon="10.15701663658746"><ele>267.0</ele><time>2026-05-02T15:12:18.997Z</time></trkpt><trkpt lat="44.16993698813029" lon="10.156881062590765"><ele>267.0</ele><time>2026-05-02T15:12:19.997Z</time></trkpt><trkpt lat="44.1699060703101" lon="10.156734641283041"><ele>267.0</ele><time>2026-05-02T15:12:20.997Z</time></trkpt><trkpt lat="44.169869459913805" lon="10.156574237323087"><ele>267.0</ele><time>2026-05-02T15:12:21.997Z</time></trkpt><trkpt lat="44.169814620190685" lon="10.156413625920505"><ele>269.25</ele><time>2026-05-02T15:12:22.997Z</time></trkpt><trkpt lat="44.16978023215242" lon="10.156243210606881"><ele>271.5</ele><time>2026-05-02T15:12:23.997Z</time></trkpt><trkpt lat="44.169743454803026" lon="10.156082146302275"><ele>273.75</ele><time>2026-05-02T15:12:24.997Z</time></trkpt><trkpt lat="44.1697029756919" lon="10.15593005746401"><ele>276.0</ele><time>2026-05-02T15:12:25.999Z</time></trkpt><trkpt lat="44.169661615721346" lon="10.155783899039934"><ele>274.2</ele><time>2026-05-02T15:12:26.999Z</time></trkpt><trkpt lat="44.169642944385686" lon="10.15562963954396"><ele>272.40000000000003</ele><time>2026-05-02T15:12:27.999Z</time></trkpt><trkpt lat="44.16963389345488" lon="10.155478632092352"><ele>270.6</ele><time>2026-05-02T15:12:28.999Z</time></trkpt><trkpt lat="44.169606010320805" lon="10.15534159370137"><ele>268.8</ele><time>2026-05-02T15:12:29.999Z</time></trkpt><trkpt lat="44.169594636624964" lon="10.155200333004238"><ele>267.0</ele><time>2026-05-02T15:12:30.999Z</time></trkpt><trkpt lat="44.16957345953061" lon="10.155060978532246"><ele>267.0</ele><time>2026-05-02T15:12:31.999Z</time></trkpt><trkpt lat="44.1695496075699" lon="10.154927777319658"><ele>267.0</ele><time>2026-05-02T15:12:32.999Z</time></trkpt><trkpt lat="44.169521828029644" lon="10.154796221455637"><ele>267.0</ele><time>2026-05-02T15:12:33.999Z</time></trkpt><trkpt lat="44.16948803871295" lon="10.154661504868105"><ele>267.0</ele><time>2026-05-02T15:12:34.999Z</time></trkpt><trkpt lat="44.169457491147064" lon="10.15453056523159"><ele>267.0</ele><time>2026-05-02T15:12:35.999Z</time></trkpt><trkpt lat="44.16943282504728" lon="10.154387079610796"><ele>265.8</ele><time>2026-05-02T15:12:36.999Z</time></trkpt><trkpt lat="44.16941003988041" lon="10.154237071811433"><ele>264.6</ele><time>2026-05-02T15:12:37.999Z</time></trkpt><trkpt lat="44.169383680738314" lon="10.154092538094204"><ele>263.40000000000003</ele><time>2026-05-02T15:12:38.999Z</time></trkpt><trkpt lat="44.16935566501582" lon="10.15395177879165"><ele>262.2</ele><time>2026-05-02T15:12:39.999Z</time></trkpt><trkpt lat="44.16932422939418" lon="10.153827785360196"><ele>261.0</ele><time>2026-05-02T15:12:40.999Z</time></trkpt><trkpt lat="44.1692936672001" lon="10.153721284050844"><ele>260.1666666666667</ele><time>2026-05-02T15:12:41.999Z</time></trkpt><trkpt lat="44.16926916226936" lon="10.153636139385812"><ele>259.3333333333333</ele><time>2026-05-02T15:12:42.999Z</time></trkpt><trkpt lat="44.16926599157453" lon="10.153511523195577"><ele>258.5</ele><time>2026-05-02T15:12:44.999Z</time></trkpt><trkpt lat="44.16928862252408" lon="10.153411409643727"><ele>257.66666666666663</ele><time>2026-05-02T15:12:46.999Z</time></trkpt><trkpt lat="44.169272478106244" lon="10.15324502905526"><ele>256.8333333333333</ele><time>2026-05-02T15:12:48.999Z</time></trkpt><trkpt lat="44.169244174044636" lon="10.153151072191493"><ele>256.0</ele><time>2026-05-02T15:12:49.999Z</time></trkpt><trkpt lat="44.169206754532034" lon="10.153041670352563"><ele>255.99999999999997</ele><time>2026-05-02T15:12:50.999Z</time></trkpt><trkpt lat="44.169162396047284" lon="10.152929144403302"><ele>256.0</ele><time>2026-05-02T15:12:51.999Z</time></trkpt><trkpt lat="44.16913513513692" lon="10.152814020357111"><ele>256.0</ele><time>2026-05-02T15:12:52.999Z</time></trkpt><trkpt lat="44.169082300383" lon="10.152715679184045"><ele>256.0</ele><time>2026-05-02T15:12:53.999Z</time></trkpt><trkpt lat="44.169048130852644" lon="10.152611087308687"><ele>255.99999999999997</ele><time>2026-05-02T15:12:54.999Z</time></trkpt><trkpt lat="44.16902276135035" lon="10.152525603342497"><ele>256.0</ele><time>2026-05-02T15:12:55.999Z</time></trkpt><trkpt lat="44.1690328430977" lon="10.152366991970622"><ele>255.83333333333331</ele><time>2026-05-02T15:12:57.999Z</time></trkpt><trkpt lat="44.16910965757132" lon="10.152220675948625"><ele>255.66666666666666</ele><time>2026-05-02T15:12:59.999Z</time></trkpt><trkpt lat="44.16914038045064" lon="10.152127578295255"><ele>255.5</ele><time>2026-05-02T15:13:00.999Z</time></trkpt><trkpt lat="44.1691744700534" lon="10.152037482055803"><ele>255.33333333333331</ele><time>2026-05-02T15:13:01.999Z</time></trkpt><trkpt lat="44.1692211823097" lon="10.151943671496054"><ele>255.16666666666666</ele><time>2026-05-02T15:13:02.999Z</time></trkpt><trkpt lat="44.16927071059692" lon="10.151839985082969"><ele>255.0</ele><time>2026-05-02T15:13:03.999Z</time></trkpt><trkpt lat="44.16932132310963" lon="10.151730367406241"><ele>255.0</ele><time>2026-05-02T15:13:04.999Z</time></trkpt><trkpt lat="44.16937335059255" lon="10.151614450405356"><ele>255.0</ele><time>2026-05-02T15:13:05.999Z</time></trkpt><trkpt lat="44.16943052462219" lon="10.151504282413224"><ele>255.0</ele><time>2026-05-02T15:13:06.999Z</time></trkpt><trkpt lat="44.1694996901029" lon="10.151395962850843"><ele>255.0</ele><time>2026-05-02T15:13:07.999Z</time></trkpt><trkpt lat="44.16959059752879" lon="10.151313204777471"><ele>255.0</ele><time>2026-05-02T15:13:08.999Z</time></trkpt><trkpt lat="44.169674757135525" lon="10.15121424475215"><ele>254.6</ele><time>2026-05-02T15:13:09.999Z</time></trkpt><trkpt lat="44.169752142049475" lon="10.151106758304012"><ele>254.2</ele><time>2026-05-02T15:13:10.999Z</time></trkpt><trkpt lat="44.16983524582239" lon="10.151004975112722"><ele>253.8</ele><time>2026-05-02T15:13:11.999Z</time></trkpt><trkpt lat="44.16991907585844" lon="10.150902733723767"><ele>253.4</ele><time>2026-05-02T15:13:12.999Z</time></trkpt><trkpt lat="44.16999655297472" lon="10.150792763032825"><ele>253.0</ele><time>2026-05-02T15:13:13.999Z</time></trkpt><trkpt lat="44.17006216111414" lon="10.150669284887085"><ele>254.0</ele><time>2026-05-02T15:13:14.999Z</time></trkpt><trkpt lat="44.17010792425064" lon="10.15053199511753"><ele>255.0</ele><time>2026-05-02T15:13:15.999Z</time></trkpt><trkpt lat="44.17012968471242" lon="10.150401509572287"><ele>256.0</ele><time>2026-05-02T15:13:16.999Z</time></trkpt><trkpt lat="44.17013853324362" lon="10.150260504537094"><ele>257.0</ele><time>2026-05-02T15:13:17.999Z</time></trkpt><trkpt lat="44.170144405061556" lon="10.15009734514887"><ele>258.0</ele><time>2026-05-02T15:13:18.999Z</time></trkpt><trkpt lat="44.170143510154645" lon="10.149938853944331"><ele>259.6</ele><time>2026-05-02T15:13:19.999Z</time></trkpt><trkpt lat="44.170143999785886" lon="10.149786767328319"><ele>261.20000000000005</ele><time>2026-05-02T15:13:20.999Z</time></trkpt><trkpt lat="44.170143496150665" lon="10.149636433618932"><ele>262.8</ele><time>2026-05-02T15:13:21.999Z</time></trkpt><trkpt lat="44.17013543276936" lon="10.14948961681346"><ele>264.40000000000003</ele><time>2026-05-02T15:13:22.999Z</time></trkpt><trkpt lat="44.17012245233258" lon="10.14934301738318"><ele>266.0</ele><time>2026-05-02T15:13:23.999Z</time></trkpt><trkpt lat="44.170101616848115" lon="10.149198245474674"><ele>266.0</ele><time>2026-05-02T15:13:24.999Z</time></trkpt><trkpt lat="44.170071273926" lon="10.149056274657136"><ele>266.0</ele><time>2026-05-02T15:13:25.999Z</time></trkpt><trkpt lat="44.17003582451775" lon="10.148917056112618"><ele>266.0</ele><time>2026-05-02T15:13:26.999Z</time></trkpt><trkpt lat="44.16999351098673" lon="10.14877625956672"><ele>266.0</ele><time>2026-05-02T15:13:27.999Z</time></trkpt><trkpt lat="44.16996464884742" lon="10.14862928532083"><ele>266.0</ele><time>2026-05-02T15:13:28.999Z</time></trkpt><trkpt lat="44.16991492967785" lon="10.148494534450844"><ele>261.25</ele><time>2026-05-02T15:13:29.999Z</time></trkpt><trkpt lat="44.169839603287514" lon="10.148375310340702"><ele>256.5</ele><time>2026-05-02T15:13:30.999Z</time></trkpt><trkpt lat="44.1697760483987" lon="10.148246077787874"><ele>251.75</ele><time>2026-05-02T15:13:31.999Z</time></trkpt><trkpt lat="44.169714279654364" lon="10.148112210356043"><ele>247.0</ele><time>2026-05-02T15:13:32.999Z</time></trkpt><trkpt lat="44.169653711074915" lon="10.147975003781536"><ele>245.5</ele><time>2026-05-02T15:13:33.999Z</time></trkpt><trkpt lat="44.16960491747795" lon="10.147831402520266"><ele>244.0</ele><time>2026-05-02T15:13:34.999Z</time></trkpt><trkpt lat="44.16956902062085" lon="10.147684489560238"><ele>242.5</ele><time>2026-05-02T15:13:35.999Z</time></trkpt><trkpt lat="44.16953905525015" lon="10.147531867509041"><ele>241.0</ele><time>2026-05-02T15:13:36.998Z</time></trkpt><trkpt lat="44.16951330693509" lon="10.147378260730969"><ele>241.20000000000002</ele><time>2026-05-02T15:13:37.998Z</time></trkpt><trkpt lat="44.16948646911541" lon="10.147226600641686"><ele>241.40000000000003</ele><time>2026-05-02T15:13:38.998Z</time></trkpt><trkpt lat="44.16945764118098" lon="10.14707451648395"><ele>241.6</ele><time>2026-05-02T15:13:39.998Z</time></trkpt><trkpt lat="44.169427630066174" lon="10.146930175237308"><ele>241.8</ele><time>2026-05-02T15:13:40.998Z</time></trkpt><trkpt lat="44.16939876814055" lon="10.146794557193203"><ele>242.0</ele><time>2026-05-02T15:13:41.998Z</time></trkpt><trkpt lat="44.16936660738106" lon="10.146670111192456"><ele>242.00000000000003</ele><time>2026-05-02T15:13:42.998Z</time></trkpt><trkpt lat="44.169334956017046" lon="10.146553087535347"><ele>242.0</ele><time>2026-05-02T15:13:43.998Z</time></trkpt><trkpt lat="44.16930684921067" lon="10.146436065291928"><ele>242.0</ele><time>2026-05-02T15:13:44.998Z</time></trkpt><trkpt lat="44.169276730274305" lon="10.146327508424516"><ele>242.0</ele><time>2026-05-02T15:13:45.998Z</time></trkpt><trkpt lat="44.16924405062346" lon="10.146216201317426"><ele>242.00000000000003</ele><time>2026-05-02T15:13:46.998Z</time></trkpt><trkpt lat="44.16922366231563" lon="10.146081921273387"><ele>242.0</ele><time>2026-05-02T15:13:47.998Z</time></trkpt><trkpt lat="44.16919046567942" lon="10.14594568925156"><ele>243.25</ele><time>2026-05-02T15:13:48.998Z</time></trkpt><trkpt lat="44.169154821929425" lon="10.14579599684863"><ele>244.5</ele><time>2026-05-02T15:13:49.998Z</time></trkpt><trkpt lat="44.169117130246384" lon="10.145636480381063"><ele>245.75</ele><time>2026-05-02T15:13:50.998Z</time></trkpt><trkpt lat="44.16906378796136" lon="10.14547428879604"><ele>247.0</ele><time>2026-05-02T15:13:51.998Z</time></trkpt><trkpt lat="44.16903082342295" lon="10.145294628941622"><ele>246.0</ele><time>2026-05-02T15:13:52.998Z</time></trkpt><trkpt lat="44.168993072829764" lon="10.145113147011227"><ele>245.0</ele><time>2026-05-02T15:13:53.998Z</time></trkpt><trkpt lat="44.168952115042394" lon="10.144926999861497"><ele>244.0</ele><time>2026-05-02T15:13:54.998Z</time></trkpt><trkpt lat="44.168911685876715" lon="10.144739152628446"><ele>243.0</ele><time>2026-05-02T15:13:55.998Z</time></trkpt><trkpt lat="44.16887002739673" lon="10.144550940551042"><ele>242.25</ele><time>2026-05-02T15:13:56.998Z</time></trkpt><trkpt lat="44.168828209825975" lon="10.14436149302899"><ele>241.5</ele><time>2026-05-02T15:13:57.998Z</time></trkpt><trkpt lat="44.16878950399089" lon="10.14417229222289"><ele>240.75</ele><time>2026-05-02T15:13:58.998Z</time></trkpt><trkpt lat="44.168751613131334" lon="10.143981161535804"><ele>240.0</ele><time>2026-05-02T15:13:59.998Z</time></trkpt><trkpt lat="44.1687126944537" lon="10.143790571588713"><ele>240.0</ele><time>2026-05-02T15:14:00.998Z</time></trkpt><trkpt lat="44.168673978619246" lon="10.143600873681432"><ele>240.0</ele><time>2026-05-02T15:14:01.998Z</time></trkpt><trkpt lat="44.16863431468754" lon="10.143413080352738"><ele>240.0</ele><time>2026-05-02T15:14:02.998Z</time></trkpt><trkpt lat="44.168592905075776" lon="10.143224116702163"><ele>240.0</ele><time>2026-05-02T15:14:03.998Z</time></trkpt><trkpt lat="44.16855365252578" lon="10.143035808725728"><ele>240.0</ele><time>2026-05-02T15:14:04.998Z</time></trkpt><trkpt lat="44.168515668291114" lon="10.142847608580384"><ele>240.0</ele><time>2026-05-02T15:14:05.998Z</time></trkpt><trkpt lat="44.168479759675485" lon="10.142660554905156"><ele>240.0</ele><time>2026-05-02T15:14:06.998Z</time></trkpt><trkpt lat="44.16844516573228" lon="10.142472958942951"><ele>240.0</ele><time>2026-05-02T15:14:07.998Z</time></trkpt><trkpt lat="44.16841184395387" lon="10.142287342810095"><ele>240.75</ele><time>2026-05-02T15:14:08.998Z</time></trkpt><trkpt lat="44.16837986168052" lon="10.142099687090468"><ele>241.5</ele><time>2026-05-02T15:14:09.998Z</time></trkpt><trkpt lat="44.168353587039526" lon="10.141916884998249"><ele>242.25</ele><time>2026-05-02T15:14:10.998Z</time></trkpt><trkpt lat="44.16833014203636" lon="10.14174095590569"><ele>243.0</ele><time>2026-05-02T15:14:11.998Z</time></trkpt><trkpt lat="44.16830379666828" lon="10.141577748893505"><ele>243.25</ele><time>2026-05-02T15:14:12.998Z</time></trkpt><trkpt lat="44.168280507535194" lon="10.14142237222074"><ele>243.5</ele><time>2026-05-02T15:14:13.998Z</time></trkpt><trkpt lat="44.168251495933234" lon="10.141276241874772"><ele>243.75</ele><time>2026-05-02T15:14:14.998Z</time></trkpt><trkpt lat="44.1682294128637" lon="10.14111927746962"><ele>244.0</ele><time>2026-05-02T15:14:15.998Z</time></trkpt><trkpt lat="44.16817647931477" lon="10.140951081896315"><ele>243.0</ele><time>2026-05-02T15:14:16.998Z</time></trkpt><trkpt lat="44.168113165465215" lon="10.14078458252167"><ele>242.0</ele><time>2026-05-02T15:14:17.998Z</time></trkpt><trkpt lat="44.16805193547423" lon="10.14062920555426"><ele>241.0</ele><time>2026-05-02T15:14:18.998Z</time></trkpt><trkpt lat="44.167983233553855" lon="10.14049253613874"><ele>240.0</ele><time>2026-05-02T15:14:19.998Z</time></trkpt><trkpt lat="44.16794155800034" lon="10.140345948507765"><ele>240.0</ele><time>2026-05-02T15:14:20.998Z</time></trkpt><trkpt lat="44.16791127331931" lon="10.14019144633254"><ele>240.0</ele><time>2026-05-02T15:14:21.998Z</time></trkpt><trkpt lat="44.16789529747294" lon="10.140023721172295"><ele>240.0</ele><time>2026-05-02T15:14:22.998Z</time></trkpt><trkpt lat="44.16787354093938" lon="10.139848394827116"><ele>240.0</ele><time>2026-05-02T15:14:23.998Z</time></trkpt><trkpt lat="44.167855838288425" lon="10.139672101678459"><ele>239.75</ele><time>2026-05-02T15:14:24.998Z</time></trkpt><trkpt lat="44.1677943039203" lon="10.139522991157722"><ele>239.5</ele><time>2026-05-02T15:14:25.998Z</time></trkpt><trkpt lat="44.16774498759401" lon="10.139383065321924"><ele>239.25</ele><time>2026-05-02T15:14:26.998Z</time></trkpt><trkpt lat="44.167704733159596" lon="10.139244503799627"><ele>239.0</ele><time>2026-05-02T15:14:27.998Z</time></trkpt><trkpt lat="44.16768553103089" lon="10.139090228039402"><ele>238.75</ele><time>2026-05-02T15:14:28.997Z</time></trkpt><trkpt lat="44.16770227454709" lon="10.138936583840735"><ele>238.5</ele><time>2026-05-02T15:14:29.997Z</time></trkpt><trkpt lat="44.167750836566995" lon="10.138782471425488"><ele>238.25</ele><time>2026-05-02T15:14:30.997Z</time></trkpt><trkpt lat="44.167793189931885" lon="10.13860655069712"><ele>238.0</ele><time>2026-05-02T15:14:31.999Z</time></trkpt><trkpt lat="44.16780341983918" lon="10.138416769161758"><ele>238.0</ele><time>2026-05-02T15:14:32.999Z</time></trkpt><trkpt lat="44.16779357902601" lon="10.138223030004568"><ele>238.0</ele><time>2026-05-02T15:14:33.999Z</time></trkpt><trkpt lat="44.1677644131029" lon="10.138036614003196"><ele>238.0</ele><time>2026-05-02T15:14:34.999Z</time></trkpt><trkpt lat="44.16772038892212" lon="10.137850628271263"><ele>238.0</ele><time>2026-05-02T15:14:35.999Z</time></trkpt><trkpt lat="44.167661147500695" lon="10.13767057657019"><ele>238.25</ele><time>2026-05-02T15:14:36.999Z</time></trkpt><trkpt lat="44.16758925709477" lon="10.137497970633486"><ele>238.5</ele><time>2026-05-02T15:14:37.999Z</time></trkpt><trkpt lat="44.167512784089475" lon="10.137327953391885"><ele>238.75</ele><time>2026-05-02T15:14:38.999Z</time></trkpt><trkpt lat="44.16743479001527" lon="10.137170766872812"><ele>239.0</ele><time>2026-05-02T15:14:39.999Z</time></trkpt><trkpt lat="44.16736205480175" lon="10.137019200786849"><ele>240.25</ele><time>2026-05-02T15:14:40.999Z</time></trkpt><trkpt lat="44.16724783244757" lon="10.136930881911763"><ele>241.5</ele><time>2026-05-02T15:14:41.999Z</time></trkpt><trkpt lat="44.16713228389461" lon="10.13686370254632"><ele>242.75</ele><time>2026-05-02T15:14:42.999Z</time></trkpt><trkpt lat="44.1670098758576" lon="10.136830559745341"><ele>244.0</ele><time>2026-05-02T15:14:44Z</time></trkpt><trkpt lat="44.166886489502076" lon="10.136831873320752"><ele>244.0</ele><time>2026-05-02T15:14:45Z</time></trkpt><trkpt lat="44.1667635711371" lon="10.136847885795756"><ele>244.0</ele><time>2026-05-02T15:14:46Z</time></trkpt><trkpt lat="44.1666436651132" lon="10.136859950935971"><ele>244.0</ele><time>2026-05-02T15:14:47Z</time></trkpt><trkpt lat="44.1665312716857" lon="10.136860840789934"><ele>244.0</ele><time>2026-05-02T15:14:48Z</time></trkpt><trkpt lat="44.16641998491572" lon="10.136846649850717"><ele>242.2</ele><time>2026-05-02T15:14:49Z</time></trkpt><trkpt lat="44.166314275453864" lon="10.136803483614617"><ele>240.39999999999998</ele><time>2026-05-02T15:14:50Z</time></trkpt><trkpt lat="44.166216121913834" lon="10.136739076420636"><ele>238.6</ele><time>2026-05-02T15:14:51Z</time></trkpt><trkpt lat="44.16613545852898" lon="10.136629152227888"><ele>236.8</ele><time>2026-05-02T15:14:52Z</time></trkpt><trkpt lat="44.16605937105495" lon="10.136504876192884"><ele>235.0</ele><time>2026-05-02T15:14:53Z</time></trkpt><trkpt lat="44.16597436481186" lon="10.136374730389793"><ele>235.0</ele><time>2026-05-02T15:14:54Z</time></trkpt><trkpt lat="44.1658916697978" lon="10.13623988641108"><ele>235.0</ele><time>2026-05-02T15:14:55Z</time></trkpt><trkpt lat="44.16580489748616" lon="10.13610829936324"><ele>235.0</ele><time>2026-05-02T15:14:56Z</time></trkpt><trkpt lat="44.165709285053794" lon="10.13597961917562"><ele>235.0</ele><time>2026-05-02T15:14:57Z</time></trkpt><trkpt lat="44.16562745380463" lon="10.13582852573173"><ele>232.75</ele><time>2026-05-02T15:14:58Z</time></trkpt><trkpt lat="44.165553089582666" lon="10.135687202900035"><ele>230.5</ele><time>2026-05-02T15:14:59Z</time></trkpt><trkpt lat="44.16548730196698" lon="10.135545401787608"><ele>228.25</ele><time>2026-05-02T15:14:59.999Z</time></trkpt><trkpt lat="44.16544060654571" lon="10.135386055032434"><ele>226.0</ele><time>2026-05-02T15:15:00.999Z</time></trkpt><trkpt lat="44.16540262694051" lon="10.135215559236135"><ele>226.0</ele><time>2026-05-02T15:15:01.999Z</time></trkpt><trkpt lat="44.165376137378104" lon="10.13503910756272"><ele>226.0</ele><time>2026-05-02T15:15:02.999Z</time></trkpt><trkpt lat="44.16535218692782" lon="10.134860835384542"><ele>226.0</ele><time>2026-05-02T15:15:03.999Z</time></trkpt><trkpt lat="44.165325366451356" lon="10.134681777041237"><ele>226.0</ele><time>2026-05-02T15:15:04.999Z</time></trkpt><trkpt lat="44.16529680429442" lon="10.134507673871012"><ele>225.75</ele><time>2026-05-02T15:15:05.999Z</time></trkpt><trkpt lat="44.16526564028406" lon="10.13433418624684"><ele>225.5</ele><time>2026-05-02T15:15:06.999Z</time></trkpt><trkpt lat="44.165238644444294" lon="10.134159355035697"><ele>225.25</ele><time>2026-05-02T15:15:07.999Z</time></trkpt><trkpt lat="44.16522658234" lon="10.133984064821886"><ele>225.0</ele><time>2026-05-02T15:15:08.999Z</time></trkpt><trkpt lat="44.1652014186058" lon="10.133813148855934"><ele>225.0</ele><time>2026-05-02T15:15:09.999Z</time></trkpt><trkpt lat="44.16515788508341" lon="10.133646505054495"><ele>225.0</ele><time>2026-05-02T15:15:10.999Z</time></trkpt><trkpt lat="44.16513230940978" lon="10.133474665459511"><ele>225.0</ele><time>2026-05-02T15:15:11.999Z</time></trkpt><trkpt lat="44.16510767843083" lon="10.133305827615"><ele>225.0</ele><time>2026-05-02T15:15:12.999Z</time></trkpt><trkpt lat="44.16508660649105" lon="10.133144322299733"><ele>225.2</ele><time>2026-05-02T15:15:13.999Z</time></trkpt><trkpt lat="44.16506636395264" lon="10.132998142799112"><ele>225.4</ele><time>2026-05-02T15:15:14.999Z</time></trkpt><trkpt lat="44.16504770471894" lon="10.1328573861718"><ele>225.60000000000002</ele><time>2026-05-02T15:15:15.999Z</time></trkpt><trkpt lat="44.16503929540962" lon="10.132723449736364"><ele>225.8</ele><time>2026-05-02T15:15:16.999Z</time></trkpt><trkpt lat="44.16503397953241" lon="10.132592550526788"><ele>226.0</ele><time>2026-05-02T15:15:17.999Z</time></trkpt><trkpt lat="44.16503721451302" lon="10.132452268767523"><ele>225.75</ele><time>2026-05-02T15:15:18.999Z</time></trkpt><trkpt lat="44.16504674201928" lon="10.132299596432857"><ele>225.5</ele><time>2026-05-02T15:15:19.999Z</time></trkpt><trkpt lat="44.16506591328071" lon="10.132132953185868"><ele>225.25</ele><time>2026-05-02T15:15:20.999Z</time></trkpt><trkpt lat="44.16507987751573" lon="10.131964435839118"><ele>225.0</ele><time>2026-05-02T15:15:21.999Z</time></trkpt><trkpt lat="44.165089196532975" lon="10.131806686342859"><ele>225.0</ele><time>2026-05-02T15:15:22.999Z</time></trkpt><trkpt lat="44.16510089480343" lon="10.131652569095488"><ele>225.0</ele><time>2026-05-02T15:15:23.999Z</time></trkpt><trkpt lat="44.16511221121388" lon="10.131492580296563"><ele>225.0</ele><time>2026-05-02T15:15:24.999Z</time></trkpt><trkpt lat="44.16512480170073" lon="10.131336591775906"><ele>225.0</ele><time>2026-05-02T15:15:25.999Z</time></trkpt><trkpt lat="44.16513423784322" lon="10.131184069095431"><ele>225.0</ele><time>2026-05-02T15:15:26.999Z</time></trkpt><trkpt lat="44.165143028419706" lon="10.131043333668558"><ele>224.4</ele><time>2026-05-02T15:15:27.999Z</time></trkpt><trkpt lat="44.16515620261502" lon="10.13090757793191"><ele>223.8</ele><time>2026-05-02T15:15:28.999Z</time></trkpt><trkpt lat="44.16519221210672" lon="10.130772291707453"><ele>223.2</ele><time>2026-05-02T15:15:29.999Z</time></trkpt><trkpt lat="44.16524088034848" lon="10.13062476749327"><ele>222.6</ele><time>2026-05-02T15:15:30.999Z</time></trkpt><trkpt lat="44.165272831206906" lon="10.13048141198074"><ele>222.0</ele><time>2026-05-02T15:15:31.999Z</time></trkpt><trkpt lat="44.165273830120384" lon="10.130325655505317"><ele>221.0</ele><time>2026-05-02T15:15:32.999Z</time></trkpt><trkpt lat="44.165304964975526" lon="10.130170416865043"><ele>220.0</ele><time>2026-05-02T15:15:33.999Z</time></trkpt><trkpt lat="44.165343812227945" lon="10.130025421633356"><ele>219.0</ele><time>2026-05-02T15:15:34.999Z</time></trkpt><trkpt lat="44.16540262276767" lon="10.129876712291118"><ele>218.0</ele><time>2026-05-02T15:15:35.999Z</time></trkpt><trkpt lat="44.16547370574699" lon="10.129739035014097"><ele>217.25</ele><time>2026-05-02T15:15:36.999Z</time></trkpt><trkpt lat="44.16554541930534" lon="10.129597294532903"><ele>216.5</ele><time>2026-05-02T15:15:37.999Z</time></trkpt><trkpt lat="44.16562007714393" lon="10.129450585901324"><ele>215.75</ele><time>2026-05-02T15:15:38.999Z</time></trkpt><trkpt lat="44.16569478914312" lon="10.129291931593436"><ele>215.0</ele><time>2026-05-02T15:15:39.999Z</time></trkpt><trkpt lat="44.165782602628276" lon="10.12914103390265"><ele>216.5</ele><time>2026-05-02T15:15:40.999Z</time></trkpt><trkpt lat="44.165865768636415" lon="10.1289957293693"><ele>218.0</ele><time>2026-05-02T15:15:41.999Z</time></trkpt><trkpt lat="44.16593358467882" lon="10.12884042212544"><ele>219.5</ele><time>2026-05-02T15:15:42.999Z</time></trkpt><trkpt lat="44.165995603970494" lon="10.128684256796902"><ele>221.0</ele><time>2026-05-02T15:15:43.999Z</time></trkpt><trkpt lat="44.16604124366507" lon="10.12851654214222"><ele>221.0</ele><time>2026-05-02T15:15:44.999Z</time></trkpt><trkpt lat="44.16607359392866" lon="10.128339142442146"><ele>221.0</ele><time>2026-05-02T15:15:45.999Z</time></trkpt><trkpt lat="44.16609501402517" lon="10.12815509137948"><ele>221.0</ele><time>2026-05-02T15:15:46.999Z</time></trkpt><trkpt lat="44.16611183065191" lon="10.127972688997925"><ele>221.0</ele><time>2026-05-02T15:15:47.999Z</time></trkpt><trkpt lat="44.16609202717756" lon="10.127785713952441"><ele>222.25</ele><time>2026-05-02T15:15:48.999Z</time></trkpt><trkpt lat="44.16605461029923" lon="10.127614894829616"><ele>223.5</ele><time>2026-05-02T15:15:49.999Z</time></trkpt><trkpt lat="44.166009732334906" lon="10.12745128630002"><ele>224.75</ele><time>2026-05-02T15:15:50.999Z</time></trkpt><trkpt lat="44.16595955587589" lon="10.127306609443728"><ele>226.0</ele><time>2026-05-02T15:15:51.999Z</time></trkpt><trkpt lat="44.16590264364611" lon="10.127181292501007"><ele>228.0</ele><time>2026-05-02T15:15:52.999Z</time></trkpt><trkpt lat="44.16586350340082" lon="10.127050418074836"><ele>230.00000000000003</ele><time>2026-05-02T15:15:53.999Z</time></trkpt><trkpt lat="44.1658453411172" lon="10.126900405563486"><ele>232.00000000000003</ele><time>2026-05-02T15:15:54.999Z</time></trkpt><trkpt lat="44.1658374511143" lon="10.126741855822958"><ele>234.0</ele><time>2026-05-02T15:15:55.999Z</time></trkpt><trkpt lat="44.16582990106757" lon="10.126589036352913"><ele>236.0</ele><time>2026-05-02T15:15:56.999Z</time></trkpt><trkpt lat="44.165809227632046" lon="10.126438028156004"><ele>236.0</ele><time>2026-05-02T15:15:57.999Z</time></trkpt><trkpt lat="44.165778121288696" lon="10.126291648854382"><ele>236.00000000000003</ele><time>2026-05-02T15:15:58.999Z</time></trkpt><trkpt lat="44.16574201922284" lon="10.126158472738672"><ele>236.00000000000003</ele><time>2026-05-02T15:15:59.999Z</time></trkpt><trkpt lat="44.16571275958514" lon="10.126035421836715"><ele>236.0</ele><time>2026-05-02T15:16:00.999Z</time></trkpt><trkpt lat="44.16569933897781" lon="10.125908995010445"><ele>236.0</ele><time>2026-05-02T15:16:01.999Z</time></trkpt><trkpt lat="44.165694463654084" lon="10.12578229379371"><ele>233.00000000000003</ele><time>2026-05-02T15:16:02.999Z</time></trkpt><trkpt lat="44.16569330002808" lon="10.125654900983617"><ele>230.0</ele><time>2026-05-02T15:16:03.998Z</time></trkpt><trkpt lat="44.16569008476766" lon="10.125525180254598"><ele>227.0</ele><time>2026-05-02T15:16:04.998Z</time></trkpt><trkpt lat="44.16568960440645" lon="10.125402545847475"><ele>224.0</ele><time>2026-05-02T15:16:05.998Z</time></trkpt><trkpt lat="44.16569360019639" lon="10.125305569941396"><ele>221.00000000000003</ele><time>2026-05-02T15:16:06.998Z</time></trkpt><trkpt lat="44.165702281254134" lon="10.125181217722059"><ele>218.0</ele><time>2026-05-02T15:16:08.998Z</time></trkpt><trkpt lat="44.16572938616112" lon="10.125010408230875"><ele>216.8</ele><time>2026-05-02T15:16:10.998Z</time></trkpt><trkpt lat="44.16574385571155" lon="10.124892165742752"><ele>215.60000000000002</ele><time>2026-05-02T15:16:11.998Z</time></trkpt><trkpt lat="44.165743280331455" lon="10.124768114084288"><ele>214.39999999999998</ele><time>2026-05-02T15:16:12.998Z</time></trkpt><trkpt lat="44.16577175115932" lon="10.124644946308452"><ele>213.2</ele><time>2026-05-02T15:16:13.998Z</time></trkpt><trkpt lat="44.16581754331351" lon="10.124528423872155"><ele>212.0</ele><time>2026-05-02T15:16:14.998Z</time></trkpt><trkpt lat="44.16585703536698" lon="10.12440420373156"><ele>212.0</ele><time>2026-05-02T15:16:15.998Z</time></trkpt><trkpt lat="44.16589838978728" lon="10.124276410487775"><ele>212.0</ele><time>2026-05-02T15:16:16.998Z</time></trkpt><trkpt lat="44.16594041862114" lon="10.124147439951829"><ele>212.0</ele><time>2026-05-02T15:16:17.998Z</time></trkpt><trkpt lat="44.16596896831057" lon="10.124007671208224"><ele>212.0</ele><time>2026-05-02T15:16:18.998Z</time></trkpt><trkpt lat="44.16601808770767" lon="10.12388096206938"><ele>212.0</ele><time>2026-05-02T15:16:19.998Z</time></trkpt><trkpt lat="44.166082234313684" lon="10.123774522066002"><ele>211.39999999999998</ele><time>2026-05-02T15:16:20.998Z</time></trkpt><trkpt lat="44.16613510441527" lon="10.123657832323444"><ele>210.79999999999998</ele><time>2026-05-02T15:16:21.998Z</time></trkpt><trkpt lat="44.16619132174378" lon="10.123550228715317"><ele>210.2</ele><time>2026-05-02T15:16:22.998Z</time></trkpt><trkpt lat="44.16624772041942" lon="10.123441057559495"><ele>209.6</ele><time>2026-05-02T15:16:23.998Z</time></trkpt><trkpt lat="44.16630247762932" lon="10.123334403875653"><ele>209.0</ele><time>2026-05-02T15:16:24.998Z</time></trkpt><trkpt lat="44.166353759321055" lon="10.123233842114495"><ele>208.83333333333334</ele><time>2026-05-02T15:16:25.998Z</time></trkpt><trkpt lat="44.166403474052004" lon="10.123136353142565"><ele>208.66666666666669</ele><time>2026-05-02T15:16:26.998Z</time></trkpt><trkpt lat="44.166451047945976" lon="10.123043062284593"><ele>208.5</ele><time>2026-05-02T15:16:27.998Z</time></trkpt><trkpt lat="44.16650062940736" lon="10.122949461039099"><ele>208.33333333333331</ele><time>2026-05-02T15:16:28.998Z</time></trkpt><trkpt lat="44.16655360513594" lon="10.122850103256468"><ele>208.16666666666666</ele><time>2026-05-02T15:16:29.998Z</time></trkpt><trkpt lat="44.16660808648755" lon="10.122745588610979"><ele>208.0</ele><time>2026-05-02T15:16:30.998Z</time></trkpt><trkpt lat="44.16666115480972" lon="10.122639716774245"><ele>207.49999999999997</ele><time>2026-05-02T15:16:31.998Z</time></trkpt><trkpt lat="44.16669725721699" lon="10.122526701373284"><ele>207.0</ele><time>2026-05-02T15:16:32.998Z</time></trkpt><trkpt lat="44.16675235394113" lon="10.122428984673055"><ele>206.5</ele><time>2026-05-02T15:16:33.998Z</time></trkpt><trkpt lat="44.1668010982769" lon="10.122331590562496"><ele>206.0</ele><time>2026-05-02T15:16:34.998Z</time></trkpt><trkpt lat="44.16685395933693" lon="10.122247843295355"><ele>205.49999999999997</ele><time>2026-05-02T15:16:35.998Z</time></trkpt><trkpt lat="44.16691250219002" lon="10.122185016613534"><ele>205.0</ele><time>2026-05-02T15:16:36.998Z</time></trkpt><trkpt lat="44.16697530790183" lon="10.122145196744276"><ele>204.99999999999997</ele><time>2026-05-02T15:16:38Z</time></trkpt><trkpt lat="44.16704819656611" lon="10.12214516488837"><ele>205.0</ele><time>2026-05-02T15:16:39Z</time></trkpt><trkpt lat="44.167121617430205" lon="10.122164258821009"><ele>205.0</ele><time>2026-05-02T15:16:40Z</time></trkpt><trkpt lat="44.16720187500931" lon="10.122192311063914"><ele>205.0</ele><time>2026-05-02T15:16:41Z</time></trkpt><trkpt lat="44.16729411733637" lon="10.122205076445491"><ele>204.99999999999997</ele><time>2026-05-02T15:16:42Z</time></trkpt><trkpt lat="44.16739024693759" lon="10.122179526123862"><ele>205.0</ele><time>2026-05-02T15:16:43Z</time></trkpt><trkpt lat="44.16748444593957" lon="10.122120696641222"><ele>205.25</ele><time>2026-05-02T15:16:44Z</time></trkpt><trkpt lat="44.16758490977808" lon="10.122071683891642"><ele>205.5</ele><time>2026-05-02T15:16:45Z</time></trkpt><trkpt lat="44.16769161425277" lon="10.122021760146584"><ele>205.75</ele><time>2026-05-02T15:16:46Z</time></trkpt><trkpt lat="44.16780061312615" lon="10.12196236199563"><ele>206.0</ele><time>2026-05-02T15:16:47Z</time></trkpt><trkpt lat="44.16791273443867" lon="10.12190099272654"><ele>206.0</ele><time>2026-05-02T15:16:48Z</time></trkpt><trkpt lat="44.16802510947519" lon="10.12184410216155"><ele>206.0</ele><time>2026-05-02T15:16:49Z</time></trkpt><trkpt lat="44.16813501216211" lon="10.121788520800779"><ele>206.0</ele><time>2026-05-02T15:16:50Z</time></trkpt><trkpt lat="44.16824314850814" lon="10.121733026205762"><ele>206.0</ele><time>2026-05-02T15:16:51Z</time></trkpt><trkpt lat="44.16835516680359" lon="10.121676676099726"><ele>205.0</ele><time>2026-05-02T15:16:52Z</time></trkpt><trkpt lat="44.168471978942385" lon="10.121619839208787"><ele>204.0</ele><time>2026-05-02T15:16:53Z</time></trkpt><trkpt lat="44.16859451844332" lon="10.121565659231997"><ele>203.0</ele><time>2026-05-02T15:16:54Z</time></trkpt><trkpt lat="44.16871982977611" lon="10.121524670161484"><ele>202.0</ele><time>2026-05-02T15:16:55Z</time></trkpt><trkpt lat="44.16884504650187" lon="10.12149514189673"><ele>202.0</ele><time>2026-05-02T15:16:56Z</time></trkpt><trkpt lat="44.16897087212577" lon="10.121475297934639"><ele>202.0</ele><time>2026-05-02T15:16:57Z</time></trkpt><trkpt lat="44.16909554300915" lon="10.121458733254391"><ele>202.0</ele><time>2026-05-02T15:16:58Z</time></trkpt><trkpt lat="44.1692184744954" lon="10.121443366884137"><ele>202.0</ele><time>2026-05-02T15:16:59Z</time></trkpt><trkpt lat="44.16931289496896" lon="10.121439255818487"><ele>202.2</ele><time>2026-05-02T15:17:00Z</time></trkpt><trkpt lat="44.169401639131245" lon="10.12143195925113"><ele>202.39999999999998</ele><time>2026-05-02T15:17:01Z</time></trkpt><trkpt lat="44.169491180333274" lon="10.121404851495083"><ele>202.60000000000002</ele><time>2026-05-02T15:17:02Z</time></trkpt><trkpt lat="44.16957007682838" lon="10.121330347504637"><ele>202.8</ele><time>2026-05-02T15:17:03Z</time></trkpt><trkpt lat="44.16961807885998" lon="10.12121744296925"><ele>203.0</ele><time>2026-05-02T15:17:04Z</time></trkpt><trkpt lat="44.16965811009425" lon="10.12108242928377"><ele>203.0</ele><time>2026-05-02T15:17:05Z</time></trkpt><trkpt lat="44.169701920508835" lon="10.120939196717801"><ele>203.0</ele><time>2026-05-02T15:17:06Z</time></trkpt><trkpt lat="44.169744212559046" lon="10.120785368523183"><ele>203.0</ele><time>2026-05-02T15:17:07Z</time></trkpt><trkpt lat="44.16977513293427" lon="10.120624991761806"><ele>203.0</ele><time>2026-05-02T15:17:08Z</time></trkpt><trkpt lat="44.16976401329239" lon="10.120453318773388"><ele>203.60000000000002</ele><time>2026-05-02T15:17:09Z</time></trkpt><trkpt lat="44.16974759331767" lon="10.120296966677694"><ele>204.20000000000002</ele><time>2026-05-02T15:17:10Z</time></trkpt><trkpt lat="44.16973148091953" lon="10.12014807649995"><ele>204.8</ele><time>2026-05-02T15:17:11Z</time></trkpt><trkpt lat="44.16971850384758" lon="10.119999746515719"><ele>205.4</ele><time>2026-05-02T15:17:12Z</time></trkpt><trkpt lat="44.169729114757544" lon="10.119849370595217"><ele>206.0</ele><time>2026-05-02T15:17:13Z</time></trkpt><trkpt lat="44.16976291378796" lon="10.119708995435857"><ele>205.25</ele><time>2026-05-02T15:17:14Z</time></trkpt><trkpt lat="44.169816612771875" lon="10.119575927895957"><ele>204.5</ele><time>2026-05-02T15:17:15Z</time></trkpt><trkpt lat="44.16987624805684" lon="10.119443093161207"><ele>203.75</ele><time>2026-05-02T15:17:16Z</time></trkpt><trkpt lat="44.16993421827419" lon="10.119303529133793"><ele>203.0</ele><time>2026-05-02T15:17:17Z</time></trkpt><trkpt lat="44.16999906688544" lon="10.119157189473258"><ele>202.75</ele><time>2026-05-02T15:17:18Z</time></trkpt><trkpt lat="44.17005973521573" lon="10.119011237712444"><ele>202.5</ele><time>2026-05-02T15:17:19Z</time></trkpt><trkpt lat="44.1701271991445" lon="10.118872691948724"><ele>202.25</ele><time>2026-05-02T15:17:20Z</time></trkpt><trkpt lat="44.170198012902034" lon="10.11873957230809"><ele>202.0</ele><time>2026-05-02T15:17:21Z</time></trkpt><trkpt lat="44.17027606483934" lon="10.118601263138379"><ele>202.0</ele><time>2026-05-02T15:17:22Z</time></trkpt><trkpt lat="44.17035705580056" lon="10.118457837872734"><ele>202.0</ele><time>2026-05-02T15:17:23Z</time></trkpt><trkpt lat="44.170436351298726" lon="10.118314201129213"><ele>202.0</ele><time>2026-05-02T15:17:24Z</time></trkpt><trkpt lat="44.17051679525167" lon="10.118164156764422"><ele>202.0</ele><time>2026-05-02T15:17:25Z</time></trkpt><trkpt lat="44.170590929933724" lon="10.117998724915202"><ele>202.75</ele><time>2026-05-02T15:17:26Z</time></trkpt><trkpt lat="44.17065225334518" lon="10.117822472599446"><ele>203.5</ele><time>2026-05-02T15:17:27Z</time></trkpt><trkpt lat="44.17070567039381" lon="10.117633978780875"><ele>204.25</ele><time>2026-05-02T15:17:28Z</time></trkpt><trkpt lat="44.170742911755546" lon="10.11743366260046"><ele>205.0</ele><time>2026-05-02T15:17:29Z</time></trkpt><trkpt lat="44.17077631151909" lon="10.11722950253749"><ele>205.25</ele><time>2026-05-02T15:17:30Z</time></trkpt><trkpt lat="44.170802753570854" lon="10.117034273962654"><ele>205.5</ele><time>2026-05-02T15:17:31Z</time></trkpt><trkpt lat="44.17082108389286" lon="10.116861992801235"><ele>205.75</ele><time>2026-05-02T15:17:32Z</time></trkpt><trkpt lat="44.17084384174279" lon="10.116683356904437"><ele>206.0</ele><time>2026-05-02T15:17:33Z</time></trkpt><trkpt lat="44.17085854456196" lon="10.116503135955103"><ele>204.75</ele><time>2026-05-02T15:17:34Z</time></trkpt><trkpt lat="44.17087046474681" lon="10.116326069844"><ele>203.5</ele><time>2026-05-02T15:17:35Z</time></trkpt><trkpt lat="44.17088350737178" lon="10.116147916077342"><ele>202.25</ele><time>2026-05-02T15:17:36Z</time></trkpt><trkpt lat="44.17090094097598" lon="10.115967017774722"><ele>201.0</ele><time>2026-05-02T15:17:37Z</time></trkpt><trkpt lat="44.170933748476536" lon="10.115789765128428"><ele>200.75</ele><time>2026-05-02T15:17:38Z</time></trkpt><trkpt lat="44.170991039984884" lon="10.11562763495945"><ele>200.5</ele><time>2026-05-02T15:17:39Z</time></trkpt><trkpt lat="44.1710721594023" lon="10.115485416686447"><ele>200.25</ele><time>2026-05-02T15:17:40Z</time></trkpt><trkpt lat="44.17117358032243" lon="10.115366438775325"><ele>200.0</ele><time>2026-05-02T15:17:41Z</time></trkpt><trkpt lat="44.171279316088224" lon="10.115276642281538"><ele>200.0</ele><time>2026-05-02T15:17:41.999Z</time></trkpt><trkpt lat="44.17139040926005" lon="10.11520752202112"><ele>200.0</ele><time>2026-05-02T15:17:42.999Z</time></trkpt><trkpt lat="44.1715083268527" lon="10.115169589836235"><ele>200.0</ele><time>2026-05-02T15:17:43.999Z</time></trkpt><trkpt lat="44.171632472682454" lon="10.115157404988011"><ele>200.0</ele><time>2026-05-02T15:17:44.999Z</time></trkpt><trkpt lat="44.17175964787591" lon="10.11516037649491"><ele>199.25</ele><time>2026-05-02T15:17:45.999Z</time></trkpt><trkpt lat="44.17188772811972" lon="10.115163807510656"><ele>198.5</ele><time>2026-05-02T15:17:46.999Z</time></trkpt><trkpt lat="44.17201854152" lon="10.1151749244851"><ele>197.75</ele><time>2026-05-02T15:17:47.999Z</time></trkpt><trkpt lat="44.17214993649996" lon="10.115204993274249"><ele>197.0</ele><time>2026-05-02T15:17:48.999Z</time></trkpt><trkpt lat="44.1722773354222" lon="10.115258174239127"><ele>196.75</ele><time>2026-05-02T15:17:49.999Z</time></trkpt><trkpt lat="44.17240082886527" lon="10.115328294847776"><ele>196.5</ele><time>2026-05-02T15:17:50.999Z</time></trkpt><trkpt lat="44.17252206008721" lon="10.115403728856275"><ele>196.25</ele><time>2026-05-02T15:17:51.999Z</time></trkpt><trkpt lat="44.17264289530242" lon="10.115465595329013"><ele>196.0</ele><time>2026-05-02T15:17:52.999Z</time></trkpt><trkpt lat="44.17276757937104" lon="10.115523874367597"><ele>196.0</ele><time>2026-05-02T15:17:53.999Z</time></trkpt><trkpt lat="44.17287950018227" lon="10.115501939846405"><ele>196.0</ele><time>2026-05-02T15:17:54.999Z</time></trkpt><trkpt lat="44.172980628512185" lon="10.115502513945847"><ele>196.0</ele><time>2026-05-02T15:17:55.999Z</time></trkpt><trkpt lat="44.17307958731917" lon="10.115514834499479"><ele>196.0</ele><time>2026-05-02T15:17:56.999Z</time></trkpt><trkpt lat="44.173175807892804" lon="10.115547350379419"><ele>196.0</ele><time>2026-05-02T15:17:57.999Z</time></trkpt><trkpt lat="44.17327832865673" lon="10.11560471065053"><ele>197.25</ele><time>2026-05-02T15:17:58.999Z</time></trkpt><trkpt lat="44.17338531907836" lon="10.115669934760144"><ele>198.5</ele><time>2026-05-02T15:17:59.999Z</time></trkpt><trkpt lat="44.17350284736611" lon="10.115720170029272"><ele>199.75</ele><time>2026-05-02T15:18:00.999Z</time></trkpt><trkpt lat="44.17363338835941" lon="10.115744777128311"><ele>201.0</ele><time>2026-05-02T15:18:01.999Z</time></trkpt><trkpt lat="44.17377050721777" lon="10.115740376312509"><ele>200.5</ele><time>2026-05-02T15:18:02.999Z</time></trkpt><trkpt lat="44.17391256237619" lon="10.115736773979908"><ele>200.0</ele><time>2026-05-02T15:18:03.999Z</time></trkpt><trkpt lat="44.174050574671796" lon="10.115775110656598"><ele>199.5</ele><time>2026-05-02T15:18:04.999Z</time></trkpt><trkpt lat="44.174182774543084" lon="10.115815649459082"><ele>199.0</ele><time>2026-05-02T15:18:05.999Z</time></trkpt><trkpt lat="44.174316974934236" lon="10.11581853703143"><ele>199.0</ele><time>2026-05-02T15:18:06.999Z</time></trkpt><trkpt lat="44.17444280775666" lon="10.115797412368655"><ele>199.0</ele><time>2026-05-02T15:18:07.999Z</time></trkpt><trkpt lat="44.17456220527324" lon="10.115737722276725"><ele>199.0</ele><time>2026-05-02T15:18:08.999Z</time></trkpt><trkpt lat="44.17467252248764" lon="10.115655147687812"><ele>199.0</ele><time>2026-05-02T15:18:09.999Z</time></trkpt><trkpt lat="44.17476814041672" lon="10.115565337396886"><ele>196.6</ele><time>2026-05-02T15:18:10.999Z</time></trkpt><trkpt lat="44.174854541320336" lon="10.115486260233164"><ele>194.2</ele><time>2026-05-02T15:18:11.999Z</time></trkpt><trkpt lat="44.1749552934856" lon="10.11545055746676"><ele>191.79999999999998</ele><time>2026-05-02T15:18:12.998Z</time></trkpt><trkpt lat="44.1750645799239" lon="10.115435228011114"><ele>189.39999999999998</ele><time>2026-05-02T15:18:13.998Z</time></trkpt><trkpt lat="44.175167599216536" lon="10.115430981303987"><ele>187.0</ele><time>2026-05-02T15:18:14.998Z</time></trkpt><trkpt lat="44.175273770768385" lon="10.115398428503125"><ele>187.0</ele><time>2026-05-02T15:18:15.998Z</time></trkpt><trkpt lat="44.17537505784875" lon="10.11531929455031"><ele>187.0</ele><time>2026-05-02T15:18:16.998Z</time></trkpt><trkpt lat="44.17548535191092" lon="10.115248710381668"><ele>187.0</ele><time>2026-05-02T15:18:17.998Z</time></trkpt><trkpt lat="44.175583673977485" lon="10.115132513951991"><ele>187.0</ele><time>2026-05-02T15:18:18.998Z</time></trkpt><trkpt lat="44.175690249612146" lon="10.115028956988883"><ele>186.25</ele><time>2026-05-02T15:18:19.998Z</time></trkpt><trkpt lat="44.175799138723356" lon="10.114921335666343"><ele>185.5</ele><time>2026-05-02T15:18:20.998Z</time></trkpt><trkpt lat="44.175878227093676" lon="10.114771774304687"><ele>184.75</ele><time>2026-05-02T15:18:21.998Z</time></trkpt><trkpt lat="44.17597447168287" lon="10.114643963809797"><ele>184.0</ele><time>2026-05-02T15:18:22.998Z</time></trkpt><trkpt lat="44.17608077997642" lon="10.114536947784517"><ele>184.0</ele><time>2026-05-02T15:18:23.998Z</time></trkpt><trkpt lat="44.17619887977406" lon="10.114447534821888"><ele>184.0</ele><time>2026-05-02T15:18:24.998Z</time></trkpt><trkpt lat="44.176322060097085" lon="10.11437824208645"><ele>184.0</ele><time>2026-05-02T15:18:25.998Z</time></trkpt><trkpt lat="44.1764488465967" lon="10.11431755680954"><ele>184.0</ele><time>2026-05-02T15:18:26.998Z</time></trkpt><trkpt lat="44.17657617536123" lon="10.114259607902234"><ele>185.0</ele><time>2026-05-02T15:18:27.998Z</time></trkpt><trkpt lat="44.176706653532456" lon="10.114206915623992"><ele>186.0</ele><time>2026-05-02T15:18:28.998Z</time></trkpt><trkpt lat="44.17684137596213" lon="10.114168178377517"><ele>187.0</ele><time>2026-05-02T15:18:29.998Z</time></trkpt><trkpt lat="44.176980078436216" lon="10.11415128219302"><ele>188.0</ele><time>2026-05-02T15:18:30.998Z</time></trkpt><trkpt lat="44.177120621747335" lon="10.11416053002598"><ele>188.0</ele><time>2026-05-02T15:18:31.998Z</time></trkpt><trkpt lat="44.17724953470262" lon="10.11422006018323"><ele>188.0</ele><time>2026-05-02T15:18:32.998Z</time></trkpt><trkpt lat="44.177379807998186" lon="10.114280077673598"><ele>188.0</ele><time>2026-05-02T15:18:33.998Z</time></trkpt><trkpt lat="44.177509318752485" lon="10.114346219845782"><ele>188.0</ele><time>2026-05-02T15:18:34.998Z</time></trkpt><trkpt lat="44.17761588546024" lon="10.114472386138813"><ele>187.5</ele><time>2026-05-02T15:18:35.998Z</time></trkpt><trkpt lat="44.17772844295671" lon="10.114601173923957"><ele>187.0</ele><time>2026-05-02T15:18:36.998Z</time></trkpt><trkpt lat="44.17785294526572" lon="10.114713763091238"><ele>186.5</ele><time>2026-05-02T15:18:37.998Z</time></trkpt><trkpt lat="44.177962433614645" lon="10.114845593989056"><ele>186.0</ele><time>2026-05-02T15:18:38.998Z</time></trkpt><trkpt lat="44.17807563714886" lon="10.11496655728"><ele>185.25</ele><time>2026-05-02T15:18:39.997Z</time></trkpt><trkpt lat="44.17819509646262" lon="10.115071616062103"><ele>184.5</ele><time>2026-05-02T15:18:40.997Z</time></trkpt><trkpt lat="44.17832259182259" lon="10.115164883208728"><ele>183.75</ele><time>2026-05-02T15:18:41.997Z</time></trkpt><trkpt lat="44.17845747714926" lon="10.115227414660582"><ele>183.0</ele><time>2026-05-02T15:18:42.997Z</time></trkpt><trkpt lat="44.178598609728034" lon="10.115242031936532"><ele>183.0</ele><time>2026-05-02T15:18:44Z</time></trkpt><trkpt lat="44.178735804967275" lon="10.115225070514724"><ele>183.0</ele><time>2026-05-02T15:18:45Z</time></trkpt><trkpt lat="44.17886651447077" lon="10.115189059185376"><ele>183.0</ele><time>2026-05-02T15:18:46Z</time></trkpt><trkpt lat="44.17899547461565" lon="10.115156203110274"><ele>183.0</ele><time>2026-05-02T15:18:47Z</time></trkpt><trkpt lat="44.17911710508613" lon="10.115122335359315"><ele>182.60000000000002</ele><time>2026-05-02T15:18:48Z</time></trkpt><trkpt lat="44.17922891105549" lon="10.11508079668547"><ele>182.20000000000002</ele><time>2026-05-02T15:18:49Z</time></trkpt><trkpt lat="44.17932893271959" lon="10.115029554855473"><ele>181.8</ele><time>2026-05-02T15:18:50Z</time></trkpt><trkpt lat="44.1794187060438" lon="10.114946223230348"><ele>181.4</ele><time>2026-05-02T15:18:51Z</time></trkpt><trkpt lat="44.179492807057414" lon="10.114833376615481"><ele>181.0</ele><time>2026-05-02T15:18:52Z</time></trkpt><trkpt lat="44.17956437212695" lon="10.11469564468043"><ele>180.0</ele><time>2026-05-02T15:18:53Z</time></trkpt><trkpt lat="44.17961952712882" lon="10.114538341005161"><ele>179.0</ele><time>2026-05-02T15:18:54Z</time></trkpt><trkpt lat="44.17967474245017" lon="10.114370624102177"><ele>178.0</ele><time>2026-05-02T15:18:55Z</time></trkpt><trkpt lat="44.17973189602871" lon="10.114197468929461"><ele>177.0</ele><time>2026-05-02T15:18:56Z</time></trkpt><trkpt lat="44.17978364941885" lon="10.114006141352657"><ele>177.0</ele><time>2026-05-02T15:18:57Z</time></trkpt><trkpt lat="44.17983924847491" lon="10.113809275788784"><ele>177.0</ele><time>2026-05-02T15:18:58Z</time></trkpt><trkpt lat="44.17989495470427" lon="10.11362121082179"><ele>177.0</ele><time>2026-05-02T15:18:59Z</time></trkpt><trkpt lat="44.17994938664301" lon="10.113451386762586"><ele>177.0</ele><time>2026-05-02T15:19:00Z</time></trkpt><trkpt lat="44.179994756968206" lon="10.113287528135649"><ele>176.8</ele><time>2026-05-02T15:19:01Z</time></trkpt><trkpt lat="44.18004179304458" lon="10.113140572124808"><ele>176.6</ele><time>2026-05-02T15:19:02Z</time></trkpt><trkpt lat="44.180084953916506" lon="10.11300552975926"><ele>176.4</ele><time>2026-05-02T15:19:03Z</time></trkpt><trkpt lat="44.180133080285565" lon="10.112887624193808"><ele>176.20000000000002</ele><time>2026-05-02T15:19:04Z</time></trkpt><trkpt lat="44.18019494282295" lon="10.112796392429805"><ele>176.0</ele><time>2026-05-02T15:19:05Z</time></trkpt><trkpt lat="44.18028373633261" lon="10.112745234634094"><ele>176.0</ele><time>2026-05-02T15:19:06Z</time></trkpt><trkpt lat="44.18037826896747" lon="10.112710962884835"><ele>176.0</ele><time>2026-05-02T15:19:07Z</time></trkpt><trkpt lat="44.18047759352206" lon="10.112710819387624"><ele>176.0</ele><time>2026-05-02T15:19:08Z</time></trkpt><trkpt lat="44.18058419700833" lon="10.112725016292838"><ele>176.0</ele><time>2026-05-02T15:19:09Z</time></trkpt><trkpt lat="44.180690222019265" lon="10.112753335613828"><ele>176.0</ele><time>2026-05-02T15:19:10Z</time></trkpt><trkpt lat="44.180801206923526" lon="10.11279127925774"><ele>175.0</ele><time>2026-05-02T15:19:11Z</time></trkpt><trkpt lat="44.18091837526948" lon="10.112844204674438"><ele>174.0</ele><time>2026-05-02T15:19:12Z</time></trkpt><trkpt lat="44.18103555098422" lon="10.112916490555103"><ele>173.0</ele><time>2026-05-02T15:19:13Z</time></trkpt><trkpt lat="44.18114306203563" lon="10.1130331517244"><ele>172.0</ele><time>2026-05-02T15:19:13.999Z</time></trkpt><trkpt lat="44.181270642809146" lon="10.113125251496298"><ele>172.0</ele><time>2026-05-02T15:19:14.999Z</time></trkpt><trkpt lat="44.181394358632026" lon="10.113241628150474"><ele>172.0</ele><time>2026-05-02T15:19:15.999Z</time></trkpt><trkpt lat="44.1815139556251" lon="10.113380114232758"><ele>172.0</ele><time>2026-05-02T15:19:16.999Z</time></trkpt><trkpt lat="44.18163481520875" lon="10.113489212703403"><ele>172.0</ele><time>2026-05-02T15:19:17.999Z</time></trkpt><trkpt lat="44.18175831475045" lon="10.113571524322923"><ele>172.0</ele><time>2026-05-02T15:19:18.999Z</time></trkpt><trkpt lat="44.181870484299196" lon="10.113663190006251"><ele>172.0</ele><time>2026-05-02T15:19:19.999Z</time></trkpt><trkpt lat="44.181990905921175" lon="10.11374085141105"><ele>172.0</ele><time>2026-05-02T15:19:20.999Z</time></trkpt><trkpt lat="44.1821192300416" lon="10.113800122276368"><ele>172.0</ele><time>2026-05-02T15:19:21.999Z</time></trkpt><trkpt lat="44.18224742351388" lon="10.11386072896895"><ele>172.75</ele><time>2026-05-02T15:19:22.999Z</time></trkpt><trkpt lat="44.182377063863136" lon="10.113893708150226"><ele>173.5</ele><time>2026-05-02T15:19:23.999Z</time></trkpt><trkpt lat="44.1825092897785" lon="10.11389636109515"><ele>174.25</ele><time>2026-05-02T15:19:24.999Z</time></trkpt><trkpt lat="44.182637713150896" lon="10.113920286521877"><ele>175.0</ele><time>2026-05-02T15:19:25.999Z</time></trkpt><trkpt lat="44.18276384015084" lon="10.113964570725257"><ele>175.0</ele><time>2026-05-02T15:19:26.999Z</time></trkpt><trkpt lat="44.18288551702879" lon="10.113965521082106"><ele>175.0</ele><time>2026-05-02T15:19:27.999Z</time></trkpt><trkpt lat="44.18300689855547" lon="10.113990006658634"><ele>175.0</ele><time>2026-05-02T15:19:28.999Z</time></trkpt><trkpt lat="44.18313624718105" lon="10.113976279898583"><ele>175.0</ele><time>2026-05-02T15:19:29.999Z</time></trkpt><trkpt lat="44.18327101312846" lon="10.113951524169066"><ele>174.25</ele><time>2026-05-02T15:19:30.999Z</time></trkpt><trkpt lat="44.18340812185889" lon="10.113914032130076"><ele>173.5</ele><time>2026-05-02T15:19:31.999Z</time></trkpt><trkpt lat="44.18355101686284" lon="10.113879282101125"><ele>172.75</ele><time>2026-05-02T15:19:32.999Z</time></trkpt><trkpt lat="44.183699888026005" lon="10.113842943228459"><ele>172.0</ele><time>2026-05-02T15:19:33.999Z</time></trkpt><trkpt lat="44.183847131024315" lon="10.113807842948484"><ele>172.0</ele><time>2026-05-02T15:19:34.999Z</time></trkpt><trkpt lat="44.1839822819357" lon="10.113771286493407"><ele>172.0</ele><time>2026-05-02T15:19:35.999Z</time></trkpt><trkpt lat="44.1841058963179" lon="10.113719164604877"><ele>172.0</ele><time>2026-05-02T15:19:36.999Z</time></trkpt><trkpt lat="44.18421446038108" lon="10.113639435361078"><ele>172.0</ele><time>2026-05-02T15:19:37.999Z</time></trkpt><trkpt lat="44.184313252791824" lon="10.11354057798081"><ele>171.5</ele><time>2026-05-02T15:19:38.999Z</time></trkpt><trkpt lat="44.184397293938865" lon="10.113408936413768"><ele>171.0</ele><time>2026-05-02T15:19:39.999Z</time></trkpt><trkpt lat="44.184469848835725" lon="10.113265242198969"><ele>170.5</ele><time>2026-05-02T15:19:40.999Z</time></trkpt><trkpt lat="44.184543415901544" lon="10.113114487901662"><ele>170.0</ele><time>2026-05-02T15:19:41.999Z</time></trkpt><trkpt lat="44.18462506265944" lon="10.112968911586252"><ele>170.0</ele><time>2026-05-02T15:19:42.999Z</time></trkpt><trkpt lat="44.184708331787334" lon="10.11282943074771"><ele>170.0</ele><time>2026-05-02T15:19:43.999Z</time></trkpt><trkpt lat="44.18479021211401" lon="10.112682539942632"><ele>170.0</ele><time>2026-05-02T15:19:44.999Z</time></trkpt><trkpt lat="44.18487191888361" lon="10.112539758130186"><ele>170.0</ele><time>2026-05-02T15:19:45.999Z</time></trkpt><trkpt lat="44.18495325630534" lon="10.112395727381518"><ele>170.75</ele><time>2026-05-02T15:19:46.999Z</time></trkpt><trkpt lat="44.185031963023704" lon="10.112253517889524"><ele>171.5</ele><time>2026-05-02T15:19:47.999Z</time></trkpt><trkpt lat="44.18510721438437" lon="10.1121258536888"><ele>172.25</ele><time>2026-05-02T15:19:48.999Z</time></trkpt><trkpt lat="44.185183244456674" lon="10.112016606226467"><ele>173.0</ele><time>2026-05-02T15:19:49.999Z</time></trkpt><trkpt lat="44.18526457965105" lon="10.111927837457452"><ele>173.0</ele><time>2026-05-02T15:19:50.999Z</time></trkpt><trkpt lat="44.185354918790495" lon="10.111857481970368"><ele>173.0</ele><time>2026-05-02T15:19:51.999Z</time></trkpt><trkpt lat="44.18545355664304" lon="10.111804479869827"><ele>173.0</ele><time>2026-05-02T15:19:52.999Z</time></trkpt><trkpt lat="44.185560505227954" lon="10.111765605274549"><ele>173.0</ele><time>2026-05-02T15:19:53.999Z</time></trkpt><trkpt lat="44.18567132392591" lon="10.111725534806247"><ele>173.0</ele><time>2026-05-02T15:19:54.999Z</time></trkpt><trkpt lat="44.185781118093594" lon="10.111665438103882"><ele>172.5</ele><time>2026-05-02T15:19:55.999Z</time></trkpt><trkpt lat="44.1858881741408" lon="10.111588061910265"><ele>172.0</ele><time>2026-05-02T15:19:56.999Z</time></trkpt><trkpt lat="44.18598794292169" lon="10.111488200804335"><ele>171.5</ele><time>2026-05-02T15:19:57.999Z</time></trkpt><trkpt lat="44.186084566048606" lon="10.111369452072498"><ele>171.0</ele><time>2026-05-02T15:19:58.999Z</time></trkpt><trkpt lat="44.18618211772202" lon="10.111249429934697"><ele>171.0</ele><time>2026-05-02T15:19:59.999Z</time></trkpt><trkpt lat="44.186283387527" lon="10.111128275383878"><ele>171.0</ele><time>2026-05-02T15:20:00.999Z</time></trkpt><trkpt lat="44.1863869642619" lon="10.111009805474643"><ele>171.0</ele><time>2026-05-02T15:20:01.999Z</time></trkpt><trkpt lat="44.18648984948244" lon="10.110884035422725"><ele>171.0</ele><time>2026-05-02T15:20:02.999Z</time></trkpt><trkpt lat="44.18659125975611" lon="10.11075764558649"><ele>170.75</ele><time>2026-05-02T15:20:03.999Z</time></trkpt><trkpt lat="44.186699109704776" lon="10.110639525826185"><ele>170.5</ele><time>2026-05-02T15:20:04.999Z</time></trkpt><trkpt lat="44.18681189205352" lon="10.110525679940485"><ele>170.25</ele><time>2026-05-02T15:20:05.999Z</time></trkpt><trkpt lat="44.18692911967533" lon="10.11041830512205"><ele>170.0</ele><time>2026-05-02T15:20:06.998Z</time></trkpt><trkpt lat="44.187049746100655" lon="10.110326405481363"><ele>170.0</ele><time>2026-05-02T15:20:07.998Z</time></trkpt><trkpt lat="44.187167897721146" lon="10.110244058464753"><ele>170.0</ele><time>2026-05-02T15:20:08.998Z</time></trkpt><trkpt lat="44.187284635671574" lon="10.110163349582582"><ele>170.0</ele><time>2026-05-02T15:20:09.998Z</time></trkpt><trkpt lat="44.1873964331955" lon="10.110081549187806"><ele>170.0</ele><time>2026-05-02T15:20:10.998Z</time></trkpt><trkpt lat="44.18749785585495" lon="10.109991214930616"><ele>169.6</ele><time>2026-05-02T15:20:11.998Z</time></trkpt><trkpt lat="44.18758292829553" lon="10.10987700756664"><ele>169.2</ele><time>2026-05-02T15:20:12.998Z</time></trkpt><trkpt lat="44.18765099525881" lon="10.109748586481658"><ele>168.8</ele><time>2026-05-02T15:20:13.998Z</time></trkpt><trkpt lat="44.187706598147564" lon="10.10961514526923"><ele>168.4</ele><time>2026-05-02T15:20:14.998Z</time></trkpt><trkpt lat="44.18775988801892" lon="10.10948779945983"><ele>168.0</ele><time>2026-05-02T15:20:15.998Z</time></trkpt><trkpt lat="44.187820967143736" lon="10.109362292288646"><ele>168.0</ele><time>2026-05-02T15:20:16.998Z</time></trkpt><trkpt lat="44.187889266916294" lon="10.109236594929873"><ele>168.0</ele><time>2026-05-02T15:20:17.998Z</time></trkpt><trkpt lat="44.187972813926635" lon="10.109129067874525"><ele>168.0</ele><time>2026-05-02T15:20:18.998Z</time></trkpt><trkpt lat="44.188067676683495" lon="10.109041996440018"><ele>168.0</ele><time>2026-05-02T15:20:19.998Z</time></trkpt><trkpt lat="44.188177016425726" lon="10.109011302954743"><ele>167.4</ele><time>2026-05-02T15:20:20.998Z</time></trkpt><trkpt lat="44.18828507804847" lon="10.108992550543856"><ele>166.8</ele><time>2026-05-02T15:20:21.998Z</time></trkpt><trkpt lat="44.188395991154415" lon="10.10896313719618"><ele>166.2</ele><time>2026-05-02T15:20:22.998Z</time></trkpt><trkpt lat="44.18850795972455" lon="10.108960303367654"><ele>165.6</ele><time>2026-05-02T15:20:23.998Z</time></trkpt><trkpt lat="44.1886201842561" lon="10.10895328674978"><ele>165.0</ele><time>2026-05-02T15:20:24.998Z</time></trkpt><trkpt lat="44.18873236164749" lon="10.108940894817833"><ele>165.0</ele><time>2026-05-02T15:20:25.998Z</time></trkpt><trkpt lat="44.18884448661752" lon="10.108928324559969"><ele>165.0</ele><time>2026-05-02T15:20:26.998Z</time></trkpt><trkpt lat="44.188959564800186" lon="10.108919910984776"><ele>165.0</ele><time>2026-05-02T15:20:27.998Z</time></trkpt><trkpt lat="44.18907385904947" lon="10.108918000366534"><ele>165.0</ele><time>2026-05-02T15:20:28.998Z</time></trkpt><trkpt lat="44.189190550954024" lon="10.108910449305574"><ele>165.25</ele><time>2026-05-02T15:20:29.998Z</time></trkpt><trkpt lat="44.189307560788706" lon="10.108898041449505"><ele>165.5</ele><time>2026-05-02T15:20:30.998Z</time></trkpt><trkpt lat="44.18942610162141" lon="10.108887663788668"><ele>165.75</ele><time>2026-05-02T15:20:31.998Z</time></trkpt><trkpt lat="44.18954667051218" lon="10.108880016253812"><ele>166.0</ele><time>2026-05-02T15:20:32.998Z</time></trkpt><trkpt lat="44.18966911457657" lon="10.108873208250744"><ele>166.0</ele><time>2026-05-02T15:20:33.998Z</time></trkpt><trkpt lat="44.18978634678527" lon="10.108859509363544"><ele>166.0</ele><time>2026-05-02T15:20:34.998Z</time></trkpt><trkpt lat="44.18992032476449" lon="10.108842611341448"><ele>166.0</ele><time>2026-05-02T15:20:35.998Z</time></trkpt><trkpt lat="44.19005004513362" lon="10.108827776896483"><ele>166.0</ele><time>2026-05-02T15:20:36.998Z</time></trkpt><trkpt lat="44.190173972316295" lon="10.108815674137706"><ele>165.8</ele><time>2026-05-02T15:20:37.998Z</time></trkpt><trkpt lat="44.190295876054265" lon="10.108796775439073"><ele>165.60000000000002</ele><time>2026-05-02T15:20:38.998Z</time></trkpt><trkpt lat="44.19041163920993" lon="10.10877686225107"><ele>165.4</ele><time>2026-05-02T15:20:39.998Z</time></trkpt><trkpt lat="44.19051411781378" lon="10.108757057307153"><ele>165.2</ele><time>2026-05-02T15:20:40.998Z</time></trkpt><trkpt lat="44.190616398813965" lon="10.108737758786944"><ele>165.0</ele><time>2026-05-02T15:20:41.998Z</time></trkpt><trkpt lat="44.19071289543894" lon="10.108723267266639"><ele>164.83333333333334</ele><time>2026-05-02T15:20:42.998Z</time></trkpt><trkpt lat="44.19080256633689" lon="10.10870479774668"><ele>164.66666666666666</ele><time>2026-05-02T15:20:43.998Z</time></trkpt><trkpt lat="44.19088625400715" lon="10.108693371672695"><ele>164.5</ele><time>2026-05-02T15:20:44.998Z</time></trkpt><trkpt lat="44.19095190169815" lon="10.108685345482353"><ele>164.33333333333331</ele><time>2026-05-02T15:20:45.998Z</time></trkpt><trkpt lat="44.19106098964641" lon="10.108665894881776"><ele>164.16666666666666</ele><time>2026-05-02T15:20:47.998Z</time></trkpt><trkpt lat="44.19115000178437" lon="10.108643076473095"><ele>164.0</ele><time>2026-05-02T15:20:50Z</time></trkpt><trkpt lat="44.191256295949145" lon="10.108613095678951"><ele>163.99999999999997</ele><time>2026-05-02T15:20:52Z</time></trkpt><trkpt lat="44.19132078032232" lon="10.108597148409924"><ele>164.0</ele><time>2026-05-02T15:20:53Z</time></trkpt><trkpt lat="44.19138863653599" lon="10.108585064352601"><ele>164.0</ele><time>2026-05-02T15:20:54Z</time></trkpt><trkpt lat="44.191459275756344" lon="10.108575376769535"><ele>164.0</ele><time>2026-05-02T15:20:55Z</time></trkpt><trkpt lat="44.19153264608489" lon="10.108560398267956"><ele>164.0</ele><time>2026-05-02T15:20:56Z</time></trkpt><trkpt lat="44.19161095604837" lon="10.10855173704193"><ele>163.99999999999997</ele><time>2026-05-02T15:20:57Z</time></trkpt><trkpt lat="44.191697011991835" lon="10.108535962404543"><ele>164.0</ele><time>2026-05-02T15:20:58Z</time></trkpt><trkpt lat="44.19178857469712" lon="10.108515805950024"><ele>164.16666666666666</ele><time>2026-05-02T15:20:59Z</time></trkpt><trkpt lat="44.191872399505364" lon="10.10849691765717"><ele>164.33333333333331</ele><time>2026-05-02T15:21:00Z</time></trkpt><trkpt lat="44.191948021266946" lon="10.108476563969276"><ele>164.5</ele><time>2026-05-02T15:21:01Z</time></trkpt><trkpt lat="44.19202766209531" lon="10.10845081178525"><ele>164.66666666666666</ele><time>2026-05-02T15:21:02Z</time></trkpt><trkpt lat="44.19210460865768" lon="10.108421647863235"><ele>164.83333333333334</ele><time>2026-05-02T15:21:03Z</time></trkpt><trkpt lat="44.1921784960422" lon="10.108400914618946"><ele>165.0</ele><time>2026-05-02T15:21:04Z</time></trkpt><trkpt lat="44.19225680225772" lon="10.108376758230373"><ele>165.0</ele><time>2026-05-02T15:21:05Z</time></trkpt><trkpt lat="44.19233567231168" lon="10.10835752659585"><ele>165.0</ele><time>2026-05-02T15:21:06Z</time></trkpt><trkpt lat="44.192413971123166" lon="10.108336232674077"><ele>165.0</ele><time>2026-05-02T15:21:07Z</time></trkpt><trkpt lat="44.19249641927068" lon="10.108329115196993"><ele>165.0</ele><time>2026-05-02T15:21:08Z</time></trkpt><trkpt lat="44.192579831311384" lon="10.108341259511295"><ele>165.0</ele><time>2026-05-02T15:21:09Z</time></trkpt><trkpt lat="44.19266612433227" lon="10.108370115057605"><ele>165.0</ele><time>2026-05-02T15:21:10Z</time></trkpt><trkpt lat="44.192748879854875" lon="10.108414304425587"><ele>164.6</ele><time>2026-05-02T15:21:11Z</time></trkpt><trkpt lat="44.192828012168135" lon="10.108467810063821"><ele>164.2</ele><time>2026-05-02T15:21:12Z</time></trkpt><trkpt lat="44.19290587521642" lon="10.108532768233616"><ele>163.8</ele><time>2026-05-02T15:21:13Z</time></trkpt><trkpt lat="44.19298620309858" lon="10.108606557307125"><ele>163.4</ele><time>2026-05-02T15:21:14Z</time></trkpt><trkpt lat="44.193070679429724" lon="10.108681502658948"><ele>163.0</ele><time>2026-05-02T15:21:15Z</time></trkpt><trkpt lat="44.19315549272452" lon="10.108757094418632"><ele>163.0</ele><time>2026-05-02T15:21:16Z</time></trkpt><trkpt lat="44.193240831326044" lon="10.108837474180222"><ele>163.0</ele><time>2026-05-02T15:21:17Z</time></trkpt><trkpt lat="44.193329305828485" lon="10.108916216574116"><ele>163.0</ele><time>2026-05-02T15:21:18Z</time></trkpt><trkpt lat="44.19342103304724" lon="10.1089988840091"><ele>163.0</ele><time>2026-05-02T15:21:19Z</time></trkpt><trkpt lat="44.19351433158535" lon="10.10907986864774"><ele>163.0</ele><time>2026-05-02T15:21:20Z</time></trkpt><trkpt lat="44.19360787547231" lon="10.109163845407698"><ele>163.0</ele><time>2026-05-02T15:21:21Z</time></trkpt><trkpt lat="44.19369932413859" lon="10.109247290557285"><ele>163.0</ele><time>2026-05-02T15:21:22Z</time></trkpt><trkpt lat="44.193784996256106" lon="10.109325157778436"><ele>163.0</ele><time>2026-05-02T15:21:23Z</time></trkpt><trkpt lat="44.19386236638398" lon="10.10939507009747"><ele>163.0</ele><time>2026-05-02T15:21:24Z</time></trkpt><trkpt lat="44.193936583695354" lon="10.109458889107236"><ele>163.0</ele><time>2026-05-02T15:21:25Z</time></trkpt><trkpt lat="44.194003581264866" lon="10.109542928557337"><ele>162.60000000000002</ele><time>2026-05-02T15:21:26Z</time></trkpt><trkpt lat="44.19409331897382" lon="10.10959711051022"><ele>162.20000000000002</ele><time>2026-05-02T15:21:27Z</time></trkpt><trkpt lat="44.194170880797" lon="10.109672808867922"><ele>161.8</ele><time>2026-05-02T15:21:27.999Z</time></trkpt><trkpt lat="44.19425248141595" lon="10.109735735896997"><ele>161.4</ele><time>2026-05-02T15:21:28.999Z</time></trkpt><trkpt lat="44.19433678340278" lon="10.109789211271968"><ele>161.0</ele><time>2026-05-02T15:21:29.999Z</time></trkpt><trkpt lat="44.194413620999974" lon="10.109830004008767"><ele>161.0</ele><time>2026-05-02T15:21:30.999Z</time></trkpt><trkpt lat="44.19448559978177" lon="10.109865263355523"><ele>161.0</ele><time>2026-05-02T15:21:31.999Z</time></trkpt><trkpt lat="44.19454949560859" lon="10.109891375183999"><ele>161.0</ele><time>2026-05-02T15:21:32.999Z</time></trkpt><trkpt lat="44.194612664410435" lon="10.10991738027714"><ele>161.0</ele><time>2026-05-02T15:21:33.999Z</time></trkpt><trkpt lat="44.194674566081474" lon="10.109942331810629"><ele>161.0</ele><time>2026-05-02T15:21:34.999Z</time></trkpt><trkpt lat="44.19478060666065" lon="10.110001333932933"><ele>161.0</ele><time>2026-05-02T15:21:36.999Z</time></trkpt><trkpt lat="44.194856597176205" lon="10.110038907459758"><ele>161.66666666666666</ele><time>2026-05-02T15:21:38.999Z</time></trkpt><trkpt lat="44.1949363664763" lon="10.110076602109995"><ele>162.33333333333331</ele><time>2026-05-02T15:21:41.999Z</time></trkpt><trkpt lat="44.195000022926465" lon="10.110103245093997"><ele>163.0</ele><time>2026-05-02T15:21:44.999Z</time></trkpt><trkpt lat="44.1950619403367" lon="10.11016462858118"><ele>163.66666666666666</ele><time>2026-05-02T15:21:48.999Z</time></trkpt><trkpt lat="44.1950318447303" lon="10.110261456866015"><ele>164.33333333333334</ele><time>2026-05-02T15:21:50.999Z</time></trkpt><trkpt lat="44.19506841662021" lon="10.110119595771712"><ele>165.0</ele><time>2026-05-02T15:26:40.998Z</time></trkpt><trkpt lat="44.19514205171545" lon="10.109983325035879"><ele>165.25</ele><time>2026-05-02T15:26:41.998Z</time></trkpt><trkpt lat="44.19519372168831" lon="10.109806264740921"><ele>165.5</ele><time>2026-05-02T15:26:42.998Z</time></trkpt><trkpt lat="44.195229021347416" lon="10.109649049045723"><ele>165.75</ele><time>2026-05-02T15:26:43.998Z</time></trkpt><trkpt lat="44.19526522206243" lon="10.109488358679027"><ele>166.0</ele><time>2026-05-02T15:26:44.998Z</time></trkpt><trkpt lat="44.1953043361945" lon="10.109329874432515"><ele>166.0</ele><time>2026-05-02T15:26:45.998Z</time></trkpt><trkpt lat="44.195359035618004" lon="10.109178111171053"><ele>166.0</ele><time>2026-05-02T15:26:46.998Z</time></trkpt><trkpt lat="44.195427200435645" lon="10.109035243295104"><ele>166.0</ele><time>2026-05-02T15:26:47.998Z</time></trkpt><trkpt lat="44.19550103912808" lon="10.108892240789046"><ele>166.0</ele><time>2026-05-02T15:26:48.998Z</time></trkpt><trkpt lat="44.195579578783004" lon="10.10875040879265"><ele>167.5</ele><time>2026-05-02T15:26:49.998Z</time></trkpt><trkpt lat="44.19566115321708" lon="10.108608899807741"><ele>169.0</ele><time>2026-05-02T15:26:50.998Z</time></trkpt><trkpt lat="44.195748328925546" lon="10.108467516781625"><ele>170.5</ele><time>2026-05-02T15:26:51.998Z</time></trkpt><trkpt lat="44.19583295616236" lon="10.10832269597589"><ele>172.0</ele><time>2026-05-02T15:26:52.998Z</time></trkpt><trkpt lat="44.19591354418975" lon="10.108177510017248"><ele>169.0</ele><time>2026-05-02T15:26:53.998Z</time></trkpt><trkpt lat="44.19599181282922" lon="10.108036023021613"><ele>166.0</ele><time>2026-05-02T15:26:54.998Z</time></trkpt><trkpt lat="44.19606865905643" lon="10.107896403921998"><ele>163.0</ele><time>2026-05-02T15:26:55.998Z</time></trkpt><trkpt lat="44.19614633006419" lon="10.107758308213269"><ele>160.0</ele><time>2026-05-02T15:26:56.998Z</time></trkpt><trkpt lat="44.19622243705065" lon="10.10762919812446"><ele>160.0</ele><time>2026-05-02T15:26:57.998Z</time></trkpt><trkpt lat="44.19630641936412" lon="10.107513307093907"><ele>160.0</ele><time>2026-05-02T15:26:58.998Z</time></trkpt><trkpt lat="44.19639353729589" lon="10.107408580141215"><ele>160.0</ele><time>2026-05-02T15:26:59.998Z</time></trkpt><trkpt lat="44.19648926045581" lon="10.107319980237667"><ele>160.0</ele><time>2026-05-02T15:27:00.998Z</time></trkpt><trkpt lat="44.19659346552289" lon="10.107244816277836"><ele>159.75</ele><time>2026-05-02T15:27:01.998Z</time></trkpt><trkpt lat="44.19670116098362" lon="10.107172305235062"><ele>159.5</ele><time>2026-05-02T15:27:02.998Z</time></trkpt><trkpt lat="44.19680933637139" lon="10.107090833269396"><ele>159.25</ele><time>2026-05-02T15:27:03.998Z</time></trkpt><trkpt lat="44.196911815213824" lon="10.10699319478654"><ele>159.0</ele><time>2026-05-02T15:27:05Z</time></trkpt><trkpt lat="44.197004971422174" lon="10.106882179727313"><ele>159.0</ele><time>2026-05-02T15:27:06Z</time></trkpt><trkpt lat="44.19709789749241" lon="10.106772823882501"><ele>159.0</ele><time>2026-05-02T15:27:07Z</time></trkpt><trkpt lat="44.19719941507732" lon="10.106674748122472"><ele>159.0</ele><time>2026-05-02T15:27:08Z</time></trkpt><trkpt lat="44.197314689071156" lon="10.106599568092928"><ele>159.0</ele><time>2026-05-02T15:27:09Z</time></trkpt><trkpt lat="44.197435324624095" lon="10.106539606060819"><ele>158.0</ele><time>2026-05-02T15:27:10Z</time></trkpt><trkpt lat="44.197556858643196" lon="10.106477726069661"><ele>157.0</ele><time>2026-05-02T15:27:11Z</time></trkpt><trkpt lat="44.19768048085766" lon="10.106413694429541"><ele>156.0</ele><time>2026-05-02T15:27:12Z</time></trkpt><trkpt lat="44.197803111165626" lon="10.106345683369616"><ele>155.0</ele><time>2026-05-02T15:27:13Z</time></trkpt><trkpt lat="44.19793017192725" lon="10.106277097760044"><ele>155.0</ele><time>2026-05-02T15:27:14Z</time></trkpt><trkpt lat="44.198059694144696" lon="10.106209996501624"><ele>155.0</ele><time>2026-05-02T15:27:15Z</time></trkpt><trkpt lat="44.19819283775016" lon="10.10614288132282"><ele>155.0</ele><time>2026-05-02T15:27:16Z</time></trkpt><trkpt lat="44.19832604251405" lon="10.106069689806052"><ele>155.0</ele><time>2026-05-02T15:27:17Z</time></trkpt><trkpt lat="44.19845735930345" lon="10.105986272842442"><ele>156.0</ele><time>2026-05-02T15:27:18Z</time></trkpt><trkpt lat="44.1985909077057" lon="10.1058971817369"><ele>157.0</ele><time>2026-05-02T15:27:19Z</time></trkpt><trkpt lat="44.198722572467126" lon="10.105800691031302"><ele>158.0</ele><time>2026-05-02T15:27:20Z</time></trkpt><trkpt lat="44.19884857671112" lon="10.105689997264042"><ele>159.0</ele><time>2026-05-02T15:27:21Z</time></trkpt><trkpt lat="44.19897076468234" lon="10.105564768595825"><ele>156.66666666666666</ele><time>2026-05-02T15:27:22Z</time></trkpt><trkpt lat="44.199092271432896" lon="10.105431563923979"><ele>154.33333333333331</ele><time>2026-05-02T15:27:23Z</time></trkpt><trkpt lat="44.19921040046152" lon="10.10528897217741"><ele>152.0</ele><time>2026-05-02T15:27:24Z</time></trkpt><trkpt lat="44.19932253621324" lon="10.105133706522405"><ele>152.0</ele><time>2026-05-02T15:27:25Z</time></trkpt><trkpt lat="44.19942991857348" lon="10.104966130823557"><ele>152.0</ele><time>2026-05-02T15:27:26Z</time></trkpt><trkpt lat="44.19953693894223" lon="10.104794427226773"><ele>152.0</ele><time>2026-05-02T15:27:27Z</time></trkpt><trkpt lat="44.199645505574765" lon="10.104614374254819"><ele>151.0</ele><time>2026-05-02T15:27:28Z</time></trkpt><trkpt lat="44.19975331294433" lon="10.104429747968732"><ele>150.0</ele><time>2026-05-02T15:27:29Z</time></trkpt><trkpt lat="44.19986585426249" lon="10.104243048360827"><ele>149.0</ele><time>2026-05-02T15:27:30Z</time></trkpt><trkpt lat="44.19998329465991" lon="10.104052346882325"><ele>148.0</ele><time>2026-05-02T15:27:31Z</time></trkpt><trkpt lat="44.200103511204325" lon="10.103860435215704"><ele>147.0</ele><time>2026-05-02T15:27:32Z</time></trkpt><trkpt lat="44.200221736504155" lon="10.103663716805746"><ele>146.0</ele><time>2026-05-02T15:27:33Z</time></trkpt><trkpt lat="44.200342229216275" lon="10.103464170183873"><ele>146.0</ele><time>2026-05-02T15:27:34Z</time></trkpt><trkpt lat="44.20046137835831" lon="10.103263419337848"><ele>146.0</ele><time>2026-05-02T15:27:34.999Z</time></trkpt><trkpt lat="44.200577501648326" lon="10.103061203737283"><ele>146.0</ele><time>2026-05-02T15:27:35.999Z</time></trkpt><trkpt lat="44.20069412806317" lon="10.102853292560324"><ele>149.0</ele><time>2026-05-02T15:27:36.999Z</time></trkpt><trkpt lat="44.200807176721526" lon="10.102639759831202"><ele>152.0</ele><time>2026-05-02T15:27:37.999Z</time></trkpt><trkpt lat="44.20091391720295" lon="10.102424124648739"><ele>155.0</ele><time>2026-05-02T15:27:38.999Z</time></trkpt><trkpt lat="44.201019934573075" lon="10.10220205193694"><ele>161.66666666666666</ele><time>2026-05-02T15:27:39.999Z</time></trkpt><trkpt lat="44.201123312607805" lon="10.101975659873125"><ele>168.33333333333334</ele><time>2026-05-02T15:27:40.999Z</time></trkpt><trkpt lat="44.20122151258372" lon="10.101743704070712"><ele>175.0</ele><time>2026-05-02T15:27:41.999Z</time></trkpt><trkpt lat="44.20131685117295" lon="10.101505024239863"><ele>177.33333333333334</ele><time>2026-05-02T15:27:42.999Z</time></trkpt><trkpt lat="44.201413204127945" lon="10.101263521663233"><ele>179.66666666666666</ele><time>2026-05-02T15:27:43.999Z</time></trkpt><trkpt lat="44.20151151705069" lon="10.101022718934654"><ele>182.0</ele><time>2026-05-02T15:27:44.999Z</time></trkpt><trkpt lat="44.20160812188263" lon="10.10078599307916"><ele>178.33333333333331</ele><time>2026-05-02T15:27:45.999Z</time></trkpt><trkpt lat="44.20170233562403" lon="10.100528680102135"><ele>174.66666666666666</ele><time>2026-05-02T15:27:46.999Z</time></trkpt><trkpt lat="44.2018009003103" lon="10.100259265262437"><ele>171.0</ele><time>2026-05-02T15:27:48.049Z</time></trkpt><trkpt lat="44.20189722871583" lon="10.09999623425226"><ele>166.5</ele><time>2026-05-02T15:27:49.052Z</time></trkpt><trkpt lat="44.20199341228809" lon="10.099738594548962"><ele>162.0</ele><time>2026-05-02T15:27:50.049Z</time></trkpt><trkpt lat="44.202126409253815" lon="10.099373698473254"><ele>162.0</ele><time>2026-05-02T15:27:51.999Z</time></trkpt><trkpt lat="44.20221449359553" lon="10.099166302730007"><ele>162.0</ele><time>2026-05-02T15:27:52.999Z</time></trkpt><trkpt lat="44.20228966649145" lon="10.098960531772335"><ele>162.0</ele><time>2026-05-02T15:27:53.999Z</time></trkpt><trkpt lat="44.20237061094172" lon="10.09875834259827"><ele>155.0</ele><time>2026-05-02T15:27:54.999Z</time></trkpt><trkpt lat="44.20245937653219" lon="10.098560328762822"><ele>148.0</ele><time>2026-05-02T15:27:55.999Z</time></trkpt><trkpt lat="44.202535443610614" lon="10.098350765955548"><ele>141.0</ele><time>2026-05-02T15:27:56.999Z</time></trkpt><trkpt lat="44.20261261515518" lon="10.098140875808157"><ele>140.66666666666666</ele><time>2026-05-02T15:27:57.999Z</time></trkpt><trkpt lat="44.20268954870621" lon="10.09792670082447"><ele>140.33333333333331</ele><time>2026-05-02T15:27:58.999Z</time></trkpt><trkpt lat="44.20276654403788" lon="10.097709048241596"><ele>140.0</ele><time>2026-05-02T15:27:59.999Z</time></trkpt><trkpt lat="44.20284003932279" lon="10.097488974427185"><ele>140.33333333333331</ele><time>2026-05-02T15:28:00.999Z</time></trkpt><trkpt lat="44.20290440798171" lon="10.09726850790354"><ele>140.66666666666666</ele><time>2026-05-02T15:28:01.999Z</time></trkpt><trkpt lat="44.202961318768075" lon="10.09704066735347"><ele>141.0</ele><time>2026-05-02T15:28:02.999Z</time></trkpt><trkpt lat="44.203009791577344" lon="10.096808122989627"><ele>141.33333333333334</ele><time>2026-05-02T15:28:03.999Z</time></trkpt><trkpt lat="44.20305155004394" lon="10.09657437037006"><ele>141.66666666666669</ele><time>2026-05-02T15:28:04.999Z</time></trkpt><trkpt lat="44.20308699406208" lon="10.096335658305907"><ele>142.0</ele><time>2026-05-02T15:28:05.999Z</time></trkpt><trkpt lat="44.20311345447458" lon="10.096094377564501"><ele>142.0</ele><time>2026-05-02T15:28:06.999Z</time></trkpt><trkpt lat="44.20313063285023" lon="10.095851607030882"><ele>142.0</ele><time>2026-05-02T15:28:07.999Z</time></trkpt><trkpt lat="44.20314020967902" lon="10.095611839761135"><ele>142.0</ele><time>2026-05-02T15:28:08.999Z</time></trkpt><trkpt lat="44.20314001707807" lon="10.095365521902107"><ele>142.33333333333334</ele><time>2026-05-02T15:28:09.999Z</time></trkpt><trkpt lat="44.203131507544995" lon="10.09511560897704"><ele>142.66666666666666</ele><time>2026-05-02T15:28:10.999Z</time></trkpt><trkpt lat="44.20311305459634" lon="10.094866958441225"><ele>143.0</ele><time>2026-05-02T15:28:11.999Z</time></trkpt><trkpt lat="44.203085029361034" lon="10.094621031598106"><ele>143.0</ele><time>2026-05-02T15:28:12.999Z</time></trkpt><trkpt lat="44.20304841032843" lon="10.094374200008113"><ele>143.0</ele><time>2026-05-02T15:28:13.999Z</time></trkpt><trkpt lat="44.20300474129204" lon="10.094128179394112"><ele>143.0</ele><time>2026-05-02T15:28:14.999Z</time></trkpt><trkpt lat="44.20295599889351" lon="10.09387761126239"><ele>142.66666666666666</ele><time>2026-05-02T15:28:15.999Z</time></trkpt><trkpt lat="44.202902637508416" lon="10.093626102621728"><ele>142.33333333333334</ele><time>2026-05-02T15:28:16.999Z</time></trkpt><trkpt lat="44.20284882300506" lon="10.093371715280243"><ele>142.0</ele><time>2026-05-02T15:28:17.999Z</time></trkpt><trkpt lat="44.20279631467127" lon="10.093118124415268"><ele>142.0</ele><time>2026-05-02T15:28:18.999Z</time></trkpt><trkpt lat="44.202743484077644" lon="10.092864866110428"><ele>142.0</ele><time>2026-05-02T15:28:19.999Z</time></trkpt><trkpt lat="44.20269100543745" lon="10.09260834286002"><ele>142.0</ele><time>2026-05-02T15:28:20.999Z</time></trkpt><trkpt lat="44.20263720470057" lon="10.09234764732389"><ele>142.33333333333334</ele><time>2026-05-02T15:28:21.999Z</time></trkpt><trkpt lat="44.20258328047531" lon="10.092092508501"><ele>142.66666666666666</ele><time>2026-05-02T15:28:22.999Z</time></trkpt><trkpt lat="44.202530527490026" lon="10.091839362419753"><ele>143.0</ele><time>2026-05-02T15:28:23.999Z</time></trkpt><trkpt lat="44.20247726709591" lon="10.091584869940164"><ele>143.0</ele><time>2026-05-02T15:28:24.999Z</time></trkpt><trkpt lat="44.2024242943173" lon="10.091328186482068"><ele>143.0</ele><time>2026-05-02T15:28:25.999Z</time></trkpt><trkpt lat="44.20237140901588" lon="10.09107348988393"><ele>143.0</ele><time>2026-05-02T15:28:26.999Z</time></trkpt><trkpt lat="44.202318382695275" lon="10.090818959663654"><ele>141.33333333333331</ele><time>2026-05-02T15:28:27.999Z</time></trkpt><trkpt lat="44.20226447047874" lon="10.090560062791816"><ele>139.66666666666666</ele><time>2026-05-02T15:28:28.999Z</time></trkpt><trkpt lat="44.20220930052684" lon="10.09030550901047"><ele>138.0</ele><time>2026-05-02T15:28:29.999Z</time></trkpt><trkpt lat="44.20215489013403" lon="10.090042930611684"><ele>138.0</ele><time>2026-05-02T15:28:30.998Z</time></trkpt><trkpt lat="44.20210171557405" lon="10.089782095899498"><ele>138.0</ele><time>2026-05-02T15:28:31.998Z</time></trkpt><trkpt lat="44.202049212908" lon="10.089521987415617"><ele>138.0</ele><time>2026-05-02T15:28:32.998Z</time></trkpt><trkpt lat="44.20199904960089" lon="10.08926775285598"><ele>136.66666666666666</ele><time>2026-05-02T15:28:33.998Z</time></trkpt><trkpt lat="44.20195123385936" lon="10.089011967569494"><ele>135.33333333333331</ele><time>2026-05-02T15:28:34.998Z</time></trkpt><trkpt lat="44.20190759702434" lon="10.088762794211139"><ele>134.0</ele><time>2026-05-02T15:28:35.998Z</time></trkpt><trkpt lat="44.20186730436465" lon="10.088514307165644"><ele>134.0</ele><time>2026-05-02T15:28:36.998Z</time></trkpt><trkpt lat="44.20183053800589" lon="10.088270231396123"><ele>134.0</ele><time>2026-05-02T15:28:37.998Z</time></trkpt><trkpt lat="44.20179146297904" lon="10.088044938756042"><ele>134.0</ele><time>2026-05-02T15:28:38.998Z</time></trkpt><trkpt lat="44.20174745285958" lon="10.08784019244221"><ele>133.75</ele><time>2026-05-02T15:28:39.998Z</time></trkpt><trkpt lat="44.20169039270005" lon="10.087658590361796"><ele>133.5</ele><time>2026-05-02T15:28:40.998Z</time></trkpt><trkpt lat="44.201619739010056" lon="10.08749183539043"><ele>133.25</ele><time>2026-05-02T15:28:41.998Z</time></trkpt><trkpt lat="44.20152289044988" lon="10.087365740290881"><ele>133.0</ele><time>2026-05-02T15:28:42.998Z</time></trkpt><trkpt lat="44.20140171115722" lon="10.087295752836221"><ele>131.75</ele><time>2026-05-02T15:28:43.998Z</time></trkpt><trkpt lat="44.20127726140173" lon="10.087265855024345"><ele>130.5</ele><time>2026-05-02T15:28:44.998Z</time></trkpt><trkpt lat="44.20115001089676" lon="10.087291329633818"><ele>129.25</ele><time>2026-05-02T15:28:45.998Z</time></trkpt><trkpt lat="44.201032896109105" lon="10.087361928192422"><ele>128.0</ele><time>2026-05-02T15:28:46.998Z</time></trkpt><trkpt lat="44.200939448229505" lon="10.08748646296342"><ele>128.0</ele><time>2026-05-02T15:28:47.998Z</time></trkpt><trkpt lat="44.20087506770233" lon="10.087637715833278"><ele>128.0</ele><time>2026-05-02T15:28:48.998Z</time></trkpt><trkpt lat="44.20084718710139" lon="10.087809132840366"><ele>128.0</ele><time>2026-05-02T15:28:49.998Z</time></trkpt><trkpt lat="44.200859746181" lon="10.08798751485946"><ele>128.0</ele><time>2026-05-02T15:28:50.998Z</time></trkpt><trkpt lat="44.20090045694025" lon="10.088158454063256"><ele>128.25</ele><time>2026-05-02T15:28:51.998Z</time></trkpt><trkpt lat="44.200973464768865" lon="10.088305254047386"><ele>128.5</ele><time>2026-05-02T15:28:52.998Z</time></trkpt><trkpt lat="44.20107743665135" lon="10.08841073475345"><ele>128.75</ele><time>2026-05-02T15:28:53.998Z</time></trkpt><trkpt lat="44.20120574356287" lon="10.088462917602792"><ele>129.0</ele><time>2026-05-02T15:28:54.998Z</time></trkpt><trkpt lat="44.201339234850934" lon="10.08847783091018"><ele>129.0</ele><time>2026-05-02T15:28:55.998Z</time></trkpt><trkpt lat="44.20147928719738" lon="10.088466160027595"><ele>129.0</ele><time>2026-05-02T15:28:56.998Z</time></trkpt><trkpt lat="44.20162179271785" lon="10.088459265725303"><ele>129.0</ele><time>2026-05-02T15:28:57.998Z</time></trkpt><trkpt lat="44.201765613612906" lon="10.08845314175009"><ele>129.0</ele><time>2026-05-02T15:28:58.998Z</time></trkpt><trkpt lat="44.201907012894615" lon="10.088445965559758"><ele>130.0</ele><time>2026-05-02T15:28:59.998Z</time></trkpt><trkpt lat="44.202043717931666" lon="10.088444974594271"><ele>131.0</ele><time>2026-05-02T15:29:00.998Z</time></trkpt><trkpt lat="44.20216996291119" lon="10.088432209753321"><ele>132.0</ele><time>2026-05-02T15:29:01.998Z</time></trkpt><trkpt lat="44.202266475290806" lon="10.088410017052551"><ele>133.0</ele><time>2026-05-02T15:29:02.998Z</time></trkpt><trkpt lat="44.202343734021" lon="10.088420728698567"><ele>134.0</ele><time>2026-05-02T15:29:03.998Z</time></trkpt><trkpt lat="44.20239854747417" lon="10.088240047553233"><ele>136.25</ele><time>2026-05-02T15:29:04.998Z</time></trkpt><trkpt lat="44.20243623010447" lon="10.088083002520781"><ele>138.5</ele><time>2026-05-02T15:29:05.998Z</time></trkpt><trkpt lat="44.202466536039516" lon="10.08790972297157"><ele>140.75</ele><time>2026-05-02T15:29:06.998Z</time></trkpt><trkpt lat="44.20250409119814" lon="10.087723696393397"><ele>143.0</ele><time>2026-05-02T15:29:07.998Z</time></trkpt><trkpt lat="44.20253836043625" lon="10.087526045454425"><ele>144.33333333333331</ele><time>2026-05-02T15:29:08.998Z</time></trkpt><trkpt lat="44.202560441943305" lon="10.087313382145636"><ele>145.66666666666666</ele><time>2026-05-02T15:29:09.998Z</time></trkpt><trkpt lat="44.20256669273297" lon="10.087089428173567"><ele>147.0</ele><time>2026-05-02T15:29:11Z</time></trkpt><trkpt lat="44.20255612586414" lon="10.08686098919489"><ele>147.0</ele><time>2026-05-02T15:29:12Z</time></trkpt><trkpt lat="44.20254043048716" lon="10.086636576857485"><ele>147.0</ele><time>2026-05-02T15:29:13Z</time></trkpt><trkpt lat="44.202528975722345" lon="10.086416950045889"><ele>147.0</ele><time>2026-05-02T15:29:14Z</time></trkpt><trkpt lat="44.202523514956845" lon="10.086204623599134"><ele>145.33333333333334</ele><time>2026-05-02T15:29:15Z</time></trkpt><trkpt lat="44.20252549030829" lon="10.08599138634626"><ele>143.66666666666669</ele><time>2026-05-02T15:29:16Z</time></trkpt><trkpt lat="44.20253665656557" lon="10.085778580769729"><ele>142.0</ele><time>2026-05-02T15:29:17Z</time></trkpt><trkpt lat="44.20256882124427" lon="10.085575862219653"><ele>140.66666666666669</ele><time>2026-05-02T15:29:18Z</time></trkpt><trkpt lat="44.20262949205532" lon="10.085383432887541"><ele>139.33333333333334</ele><time>2026-05-02T15:29:19Z</time></trkpt><trkpt lat="44.20268964077965" lon="10.085188989176157"><ele>138.0</ele><time>2026-05-02T15:29:20Z</time></trkpt><trkpt lat="44.202730361179476" lon="10.084975850120024"><ele>138.66666666666666</ele><time>2026-05-02T15:29:21Z</time></trkpt><trkpt lat="44.20275608699342" lon="10.084756290540009"><ele>139.33333333333331</ele><time>2026-05-02T15:29:22Z</time></trkpt><trkpt lat="44.202760227707145" lon="10.084530715658913"><ele>140.0</ele><time>2026-05-02T15:29:23Z</time></trkpt><trkpt lat="44.20274763430274" lon="10.084299639263262"><ele>142.0</ele><time>2026-05-02T15:29:24Z</time></trkpt><trkpt lat="44.20272194678392" lon="10.084069923769729"><ele>144.0</ele><time>2026-05-02T15:29:25Z</time></trkpt><trkpt lat="44.20268138383551" lon="10.083843741441422"><ele>146.0</ele><time>2026-05-02T15:29:26Z</time></trkpt><trkpt lat="44.20264930551425" lon="10.083622387601721"><ele>146.0</ele><time>2026-05-02T15:29:27Z</time></trkpt><trkpt lat="44.202631053556296" lon="10.083423355327312"><ele>146.0</ele><time>2026-05-02T15:29:28Z</time></trkpt><trkpt lat="44.20264144282654" lon="10.083242328970005"><ele>146.0</ele><time>2026-05-02T15:29:29Z</time></trkpt><trkpt lat="44.202699210757565" lon="10.08307552905969"><ele>146.0</ele><time>2026-05-02T15:29:30Z</time></trkpt><trkpt lat="44.20279507859376" lon="10.082940779455432"><ele>146.75</ele><time>2026-05-02T15:29:31Z</time></trkpt><trkpt lat="44.202901872454554" lon="10.08280845767965"><ele>147.5</ele><time>2026-05-02T15:29:32Z</time></trkpt><trkpt lat="44.20301865690136" lon="10.082704748637788"><ele>148.25</ele><time>2026-05-02T15:29:33Z</time></trkpt><trkpt lat="44.20314418378295" lon="10.082629233808275"><ele>149.0</ele><time>2026-05-02T15:29:34Z</time></trkpt><trkpt lat="44.20327468012673" lon="10.082613144020442"><ele>152.25</ele><time>2026-05-02T15:29:35Z</time></trkpt><trkpt lat="44.20340158006405" lon="10.082660246281156"><ele>155.5</ele><time>2026-05-02T15:29:36Z</time></trkpt><trkpt lat="44.20352639472381" lon="10.082731098507054"><ele>158.75</ele><time>2026-05-02T15:29:37Z</time></trkpt><trkpt lat="44.20365477727945" lon="10.082806017760731"><ele>162.0</ele><time>2026-05-02T15:29:38Z</time></trkpt><trkpt lat="44.20379124074011" lon="10.082876360220927"><ele>162.0</ele><time>2026-05-02T15:29:39Z</time></trkpt><trkpt lat="44.2039319395498" lon="10.082945581727152"><ele>162.0</ele><time>2026-05-02T15:29:40Z</time></trkpt><trkpt lat="44.2040726461543" lon="10.08301678544231"><ele>162.0</ele><time>2026-05-02T15:29:41Z</time></trkpt><trkpt lat="44.20421028964305" lon="10.083105243173415"><ele>165.0</ele><time>2026-05-02T15:29:41.999Z</time></trkpt><trkpt lat="44.204337846047366" lon="10.083226126664696"><ele>168.0</ele><time>2026-05-02T15:29:42.999Z</time></trkpt><trkpt lat="44.20445931789881" lon="10.083355015872387"><ele>171.0</ele><time>2026-05-02T15:29:43.999Z</time></trkpt><trkpt lat="44.20458945670299" lon="10.083463437280807"><ele>171.0</ele><time>2026-05-02T15:29:44.999Z</time></trkpt><trkpt lat="44.204736993880054" lon="10.083528088618301"><ele>171.0</ele><time>2026-05-02T15:29:45.999Z</time></trkpt><trkpt lat="44.20489424088347" lon="10.08356030015446"><ele>171.0</ele><time>2026-05-02T15:29:46.999Z</time></trkpt><trkpt lat="44.20505653360659" lon="10.083575915005522"><ele>171.66666666666666</ele><time>2026-05-02T15:29:47.999Z</time></trkpt><trkpt lat="44.20522309466475" lon="10.083594904485329"><ele>172.33333333333331</ele><time>2026-05-02T15:29:48.999Z</time></trkpt><trkpt lat="44.205392243602574" lon="10.083619609443629"><ele>173.0</ele><time>2026-05-02T15:29:49.999Z</time></trkpt><trkpt lat="44.205564227788884" lon="10.083655776239064"><ele>174.66666666666666</ele><time>2026-05-02T15:29:50.999Z</time></trkpt><trkpt lat="44.20573327297768" lon="10.083712113307515"><ele>176.33333333333334</ele><time>2026-05-02T15:29:51.999Z</time></trkpt><trkpt lat="44.20589748032452" lon="10.083792753984202"><ele>178.0</ele><time>2026-05-02T15:29:52.999Z</time></trkpt><trkpt lat="44.20605896814034" lon="10.083877986606376"><ele>178.0</ele><time>2026-05-02T15:29:53.999Z</time></trkpt><trkpt lat="44.206213747557754" lon="10.083957324287747"><ele>178.0</ele><time>2026-05-02T15:29:54.999Z</time></trkpt><trkpt lat="44.20636176301167" lon="10.084015103481443"><ele>178.0</ele><time>2026-05-02T15:29:55.999Z</time></trkpt><trkpt lat="44.20650688998096" lon="10.084036301387053"><ele>177.25</ele><time>2026-05-02T15:29:56.999Z</time></trkpt><trkpt lat="44.20664531329316" lon="10.084004924211719"><ele>176.5</ele><time>2026-05-02T15:29:57.999Z</time></trkpt><trkpt lat="44.20675664152669" lon="10.083925578349465"><ele>175.75</ele><time>2026-05-02T15:29:58.999Z</time></trkpt><trkpt lat="44.20683485932681" lon="10.08380858407022"><ele>175.0</ele><time>2026-05-02T15:29:59.999Z</time></trkpt><trkpt lat="44.20687174956303" lon="10.083661176039387"><ele>175.0</ele><time>2026-05-02T15:30:00.999Z</time></trkpt><trkpt lat="44.206859310457936" lon="10.083497817778348"><ele>175.0</ele><time>2026-05-02T15:30:01.999Z</time></trkpt><trkpt lat="44.206795970523075" lon="10.083343579741282"><ele>175.0</ele><time>2026-05-02T15:30:02.999Z</time></trkpt><trkpt lat="44.20670147634517" lon="10.083206767609546"><ele>175.0</ele><time>2026-05-02T15:30:03.999Z</time></trkpt><trkpt lat="44.206580270466986" lon="10.083064298878057"><ele>173.66666666666669</ele><time>2026-05-02T15:30:04.999Z</time></trkpt><trkpt lat="44.20645011419068" lon="10.082908325639067"><ele>172.33333333333334</ele><time>2026-05-02T15:30:05.999Z</time></trkpt><trkpt lat="44.206318248078745" lon="10.082737997078889"><ele>171.0</ele><time>2026-05-02T15:30:06.999Z</time></trkpt><trkpt lat="44.20617911635151" lon="10.082559686482414"><ele>165.0</ele><time>2026-05-02T15:30:07.999Z</time></trkpt><trkpt lat="44.20604516666895" lon="10.082391010091172"><ele>159.0</ele><time>2026-05-02T15:30:08.999Z</time></trkpt><trkpt lat="44.2059129914643" lon="10.082227157037472"><ele>153.0</ele><time>2026-05-02T15:30:09.999Z</time></trkpt><trkpt lat="44.20578722562" lon="10.082067742898825"><ele>153.0</ele><time>2026-05-02T15:30:10.999Z</time></trkpt><trkpt lat="44.20567305609373" lon="10.081913571948203"><ele>153.0</ele><time>2026-05-02T15:30:11.999Z</time></trkpt><trkpt lat="44.20558047533924" lon="10.081764608257004"><ele>153.0</ele><time>2026-05-02T15:30:12.999Z</time></trkpt><trkpt lat="44.20550683815169" lon="10.08160871384073"><ele>153.0</ele><time>2026-05-02T15:30:13.999Z</time></trkpt><trkpt lat="44.20546431139353" lon="10.081447989633329"><ele>152.0</ele><time>2026-05-02T15:30:14.999Z</time></trkpt><trkpt lat="44.20546317123785" lon="10.081283858745163"><ele>151.0</ele><time>2026-05-02T15:30:15.999Z</time></trkpt><trkpt lat="44.20548458208813" lon="10.08114758750323"><ele>150.0</ele><time>2026-05-02T15:30:16.999Z</time></trkpt><trkpt lat="44.2055345098515" lon="10.081056490305224"><ele>149.0</ele><time>2026-05-02T15:30:17.999Z</time></trkpt><trkpt lat="44.205601136260604" lon="10.080999631545987"><ele>148.0</ele><time>2026-05-02T15:30:18.999Z</time></trkpt><trkpt lat="44.205664099897085" lon="10.080955489834171"><ele>147.0</ele><time>2026-05-02T15:30:19.999Z</time></trkpt><trkpt lat="44.20572972289295" lon="10.080836416179292"><ele>147.25</ele><time>2026-05-02T15:30:21.999Z</time></trkpt><trkpt lat="44.20574688849448" lon="10.080613518276806"><ele>147.5</ele><time>2026-05-02T15:30:23.999Z</time></trkpt><trkpt lat="44.20573106256138" lon="10.080459128962461"><ele>147.75</ele><time>2026-05-02T15:30:24.999Z</time></trkpt><trkpt lat="44.205719459315134" lon="10.08028484009288"><ele>148.0</ele><time>2026-05-02T15:30:25.999Z</time></trkpt><trkpt lat="44.20572696814024" lon="10.080088262217508"><ele>148.66666666666669</ele><time>2026-05-02T15:30:26.999Z</time></trkpt><trkpt lat="44.2057461171828" lon="10.079874322771214"><ele>149.33333333333334</ele><time>2026-05-02T15:30:27.999Z</time></trkpt><trkpt lat="44.20577314182554" lon="10.079649620132153"><ele>150.0</ele><time>2026-05-02T15:30:28.999Z</time></trkpt><trkpt lat="44.20580674024348" lon="10.079416343317343"><ele>150.0</ele><time>2026-05-02T15:30:29.999Z</time></trkpt><trkpt lat="44.20583821980957" lon="10.079168847504489"><ele>150.0</ele><time>2026-05-02T15:30:30.999Z</time></trkpt><trkpt lat="44.20586623604577" lon="10.078921454753852"><ele>150.0</ele><time>2026-05-02T15:30:31.999Z</time></trkpt><trkpt lat="44.205894709488256" lon="10.078674872489028"><ele>150.66666666666666</ele><time>2026-05-02T15:30:32.999Z</time></trkpt><trkpt lat="44.20592405767989" lon="10.07843459727689"><ele>151.33333333333331</ele><time>2026-05-02T15:30:33.999Z</time></trkpt><trkpt lat="44.20594635503252" lon="10.078210525761405"><ele>152.0</ele><time>2026-05-02T15:30:34.999Z</time></trkpt><trkpt lat="44.20594518827996" lon="10.077988744155308"><ele>149.66666666666666</ele><time>2026-05-02T15:30:35.999Z</time></trkpt><trkpt lat="44.20590405560382" lon="10.077771968167232"><ele>147.33333333333334</ele><time>2026-05-02T15:30:36.999Z</time></trkpt><trkpt lat="44.205826747976246" lon="10.07755480750282"><ele>145.0</ele><time>2026-05-02T15:30:37.999Z</time></trkpt><trkpt lat="44.205740379843235" lon="10.07733997905771"><ele>155.0</ele><time>2026-05-02T15:30:38.999Z</time></trkpt><trkpt lat="44.205657722264185" lon="10.077121338030066"><ele>165.0</ele><time>2026-05-02T15:30:39.999Z</time></trkpt><trkpt lat="44.205596234201224" lon="10.076889996394994"><ele>175.0</ele><time>2026-05-02T15:30:40.999Z</time></trkpt><trkpt lat="44.20556359844758" lon="10.076646743577681"><ele>175.33333333333334</ele><time>2026-05-02T15:30:41.999Z</time></trkpt><trkpt lat="44.20554860977103" lon="10.07641012692456"><ele>175.66666666666666</ele><time>2026-05-02T15:30:42.998Z</time></trkpt><trkpt lat="44.20554007372946" lon="10.076174735407013"><ele>176.0</ele><time>2026-05-02T15:30:43.998Z</time></trkpt><trkpt lat="44.205529925477826" lon="10.075939711578359"><ele>174.33333333333331</ele><time>2026-05-02T15:30:44.998Z</time></trkpt><trkpt lat="44.20551742486211" lon="10.07570592790172"><ele>172.66666666666666</ele><time>2026-05-02T15:30:45.998Z</time></trkpt><trkpt lat="44.20550615783314" lon="10.075474552043906"><ele>171.0</ele><time>2026-05-02T15:30:46.998Z</time></trkpt><trkpt lat="44.20549019104709" lon="10.075250732125237"><ele>171.0</ele><time>2026-05-02T15:30:47.998Z</time></trkpt><trkpt lat="44.2054643471453" lon="10.075034363286937"><ele>171.0</ele><time>2026-05-02T15:30:48.998Z</time></trkpt><trkpt lat="44.20541934322653" lon="10.074826266539725"><ele>171.0</ele><time>2026-05-02T15:30:49.998Z</time></trkpt><trkpt lat="44.20535875515691" lon="10.074620886331374"><ele>166.0</ele><time>2026-05-02T15:30:50.998Z</time></trkpt><trkpt lat="44.20530111373877" lon="10.074414016278407"><ele>161.0</ele><time>2026-05-02T15:30:51.998Z</time></trkpt><trkpt lat="44.20524109066619" lon="10.074205922519715"><ele>156.0</ele><time>2026-05-02T15:30:52.998Z</time></trkpt><trkpt lat="44.20517911872657" lon="10.073998936100068"><ele>151.0</ele><time>2026-05-02T15:30:53.998Z</time></trkpt><trkpt lat="44.205123289712496" lon="10.073793990470698"><ele>146.0</ele><time>2026-05-02T15:30:54.998Z</time></trkpt><trkpt lat="44.20506692593274" lon="10.073590563804203"><ele>141.0</ele><time>2026-05-02T15:30:55.998Z</time></trkpt><trkpt lat="44.20500933156487" lon="10.073396096185048"><ele>139.0</ele><time>2026-05-02T15:30:56.998Z</time></trkpt><trkpt lat="44.20495356341194" lon="10.073213282772128"><ele>137.0</ele><time>2026-05-02T15:30:57.998Z</time></trkpt><trkpt lat="44.20489972375864" lon="10.073035067146284"><ele>135.0</ele><time>2026-05-02T15:30:58.998Z</time></trkpt><trkpt lat="44.204850797729826" lon="10.072856621649434"><ele>133.0</ele><time>2026-05-02T15:30:59.998Z</time></trkpt><trkpt lat="44.20480242987791" lon="10.072678823124871"><ele>133.75</ele><time>2026-05-02T15:31:00.998Z</time></trkpt><trkpt lat="44.20474861879258" lon="10.072517419637975"><ele>134.5</ele><time>2026-05-02T15:31:01.998Z</time></trkpt><trkpt lat="44.204683935252596" lon="10.072373409361605"><ele>135.25</ele><time>2026-05-02T15:31:02.998Z</time></trkpt><trkpt lat="44.20460627150524" lon="10.072246445738386"><ele>136.0</ele><time>2026-05-02T15:31:03.998Z</time></trkpt><trkpt lat="44.2045289237911" lon="10.072132831573967"><ele>136.0</ele><time>2026-05-02T15:31:04.998Z</time></trkpt><trkpt lat="44.204453329868365" lon="10.072017196856306"><ele>136.0</ele><time>2026-05-02T15:31:05.998Z</time></trkpt><trkpt lat="44.20438200749074" lon="10.071900071843297"><ele>136.0</ele><time>2026-05-02T15:31:06.998Z</time></trkpt><trkpt lat="44.20431060718854" lon="10.071786483847548"><ele>136.0</ele><time>2026-05-02T15:31:07.998Z</time></trkpt><trkpt lat="44.20423643848125" lon="10.071675952288814"><ele>136.0</ele><time>2026-05-02T15:31:08.998Z</time></trkpt><trkpt lat="44.20416356344073" lon="10.071566414578761"><ele>137.4</ele><time>2026-05-02T15:31:09.998Z</time></trkpt><trkpt lat="44.20409061243256" lon="10.071456936039903"><ele>138.8</ele><time>2026-05-02T15:31:10.998Z</time></trkpt><trkpt lat="44.20401906584849" lon="10.07134731785263"><ele>140.20000000000002</ele><time>2026-05-02T15:31:11.998Z</time></trkpt><trkpt lat="44.20394910647472" lon="10.071235498650775"><ele>141.6</ele><time>2026-05-02T15:31:12.998Z</time></trkpt><trkpt lat="44.20387902606848" lon="10.071123562223407"><ele>143.0</ele><time>2026-05-02T15:31:13.998Z</time></trkpt><trkpt lat="44.20380835364955" lon="10.07101221444554"><ele>143.0</ele><time>2026-05-02T15:31:14.998Z</time></trkpt><trkpt lat="44.203736824786496" lon="10.070901400972662"><ele>143.0</ele><time>2026-05-02T15:31:15.998Z</time></trkpt><trkpt lat="44.203664721191636" lon="10.070790944163706"><ele>143.0</ele><time>2026-05-02T15:31:17Z</time></trkpt><trkpt lat="44.20359344831186" lon="10.070681257705898"><ele>143.0</ele><time>2026-05-02T15:31:18Z</time></trkpt><trkpt lat="44.20352505506979" lon="10.070572835727074"><ele>143.0</ele><time>2026-05-02T15:31:19Z</time></trkpt><trkpt lat="44.20346086361107" lon="10.070468819155623"><ele>140.66666666666666</ele><time>2026-05-02T15:31:20Z</time></trkpt><trkpt lat="44.20339677076947" lon="10.07037099459804"><ele>138.33333333333331</ele><time>2026-05-02T15:31:21Z</time></trkpt><trkpt lat="44.20333458369921" lon="10.07027737595973"><ele>136.0</ele><time>2026-05-02T15:31:22Z</time></trkpt><trkpt lat="44.203278220638865" lon="10.070176505966794"><ele>133.66666666666666</ele><time>2026-05-02T15:31:23Z</time></trkpt><trkpt lat="44.20323416271762" lon="10.07007161813915"><ele>131.33333333333334</ele><time>2026-05-02T15:31:24Z</time></trkpt><trkpt lat="44.20321226460758" lon="10.069959482481844"><ele>129.0</ele><time>2026-05-02T15:31:25Z</time></trkpt><trkpt lat="44.203210696073945" lon="10.069843620958636"><ele>127.4</ele><time>2026-05-02T15:31:26Z</time></trkpt><trkpt lat="44.20323241113921" lon="10.069729090410931"><ele>125.80000000000001</ele><time>2026-05-02T15:31:27Z</time></trkpt><trkpt lat="44.20327662055266" lon="10.069614998506998"><ele>124.19999999999999</ele><time>2026-05-02T15:31:28Z</time></trkpt><trkpt lat="44.20333609031936" lon="10.069512503101612"><ele>122.6</ele><time>2026-05-02T15:31:29Z</time></trkpt><trkpt lat="44.20339579987718" lon="10.069405793243446"><ele>121.0</ele><time>2026-05-02T15:31:30Z</time></trkpt><trkpt lat="44.203451289601766" lon="10.069291768927881"><ele>121.0</ele><time>2026-05-02T15:31:31Z</time></trkpt><trkpt lat="44.20350590571607" lon="10.06917147296965"><ele>121.0</ele><time>2026-05-02T15:31:32Z</time></trkpt><trkpt lat="44.203562819509465" lon="10.069051463704877"><ele>121.0</ele><time>2026-05-02T15:31:33Z</time></trkpt><trkpt lat="44.20362232585099" lon="10.068929847202375"><ele>121.0</ele><time>2026-05-02T15:31:34Z</time></trkpt><trkpt lat="44.20368387938657" lon="10.068809226573919"><ele>121.0</ele><time>2026-05-02T15:31:35Z</time></trkpt><trkpt lat="44.2037466447145" lon="10.068688549888304"><ele>121.4</ele><time>2026-05-02T15:31:36Z</time></trkpt><trkpt lat="44.20380696229805" lon="10.06857004257307"><ele>121.8</ele><time>2026-05-02T15:31:37Z</time></trkpt><trkpt lat="44.203863353718226" lon="10.068451757473468"><ele>122.20000000000002</ele><time>2026-05-02T15:31:38Z</time></trkpt><trkpt lat="44.20391949404292" lon="10.068327950354728"><ele>122.60000000000001</ele><time>2026-05-02T15:31:39Z</time></trkpt><trkpt lat="44.20397415088493" lon="10.068202626839653"><ele>123.0</ele><time>2026-05-02T15:31:40Z</time></trkpt><trkpt lat="44.204025750597104" lon="10.068073712574735"><ele>123.2</ele><time>2026-05-02T15:31:41Z</time></trkpt><trkpt lat="44.204068749423826" lon="10.067936034726577"><ele>123.4</ele><time>2026-05-02T15:31:42Z</time></trkpt><trkpt lat="44.20412397070179" lon="10.06779905828645"><ele>123.60000000000001</ele><time>2026-05-02T15:31:43Z</time></trkpt><trkpt lat="44.20416353567169" lon="10.0676535623688"><ele>123.80000000000001</ele><time>2026-05-02T15:31:44Z</time></trkpt><trkpt lat="44.20420340403785" lon="10.067506176612438"><ele>124.0</ele><time>2026-05-02T15:31:45Z</time></trkpt><trkpt lat="44.20424375179451" lon="10.067357018712084"><ele>124.0</ele><time>2026-05-02T15:31:46Z</time></trkpt><trkpt lat="44.20428426630437" lon="10.067207244339631"><ele>124.0</ele><time>2026-05-02T15:31:47Z</time></trkpt><trkpt lat="44.20432539103802" lon="10.067055214043128"><ele>124.0</ele><time>2026-05-02T15:31:48Z</time></trkpt><trkpt lat="44.204366645325884" lon="10.066901790436726"><ele>124.0</ele><time>2026-05-02T15:31:49Z</time></trkpt><trkpt lat="44.20440790728872" lon="10.066748009875512"><ele>122.75</ele><time>2026-05-02T15:31:50Z</time></trkpt><trkpt lat="44.204449056965345" lon="10.066594647817984"><ele>121.5</ele><time>2026-05-02T15:31:51Z</time></trkpt><trkpt lat="44.20448652017391" lon="10.066438613978006"><ele>120.25</ele><time>2026-05-02T15:31:52Z</time></trkpt><trkpt lat="44.204534520927815" lon="10.066284669577158"><ele>119.0</ele><time>2026-05-02T15:31:53Z</time></trkpt><trkpt lat="44.204579324724435" lon="10.066123262510681"><ele>119.0</ele><time>2026-05-02T15:31:54Z</time></trkpt><trkpt lat="44.20462015521822" lon="10.065962360245095"><ele>119.0</ele><time>2026-05-02T15:31:55Z</time></trkpt><trkpt lat="44.20464637594185" lon="10.065793497306938"><ele>119.0</ele><time>2026-05-02T15:31:56Z</time></trkpt><trkpt lat="44.204647980639294" lon="10.065618630322726"><ele>119.0</ele><time>2026-05-02T15:31:57Z</time></trkpt><trkpt lat="44.20463481253219" lon="10.065444319267359"><ele>120.0</ele><time>2026-05-02T15:31:58Z</time></trkpt><trkpt lat="44.20461212948614" lon="10.065274769465312"><ele>121.0</ele><time>2026-05-02T15:31:59Z</time></trkpt><trkpt lat="44.204569786290556" lon="10.065113912148144"><ele>122.0</ele><time>2026-05-02T15:32:00Z</time></trkpt><trkpt lat="44.20449551716913" lon="10.064978314629975"><ele>123.0</ele><time>2026-05-02T15:32:01Z</time></trkpt><trkpt lat="44.204404704446524" lon="10.064859209479811"><ele>126.75</ele><time>2026-05-02T15:32:01.999Z</time></trkpt><trkpt lat="44.204313798723724" lon="10.064739236170446"><ele>130.5</ele><time>2026-05-02T15:32:02.999Z</time></trkpt><trkpt lat="44.204229559507105" lon="10.064620424581747"><ele>134.25</ele><time>2026-05-02T15:32:03.999Z</time></trkpt><trkpt lat="44.204146712960295" lon="10.064502523177556"><ele>138.0</ele><time>2026-05-02T15:32:04.999Z</time></trkpt><trkpt lat="44.204068551680926" lon="10.064384074930652"><ele>134.8</ele><time>2026-05-02T15:32:05.999Z</time></trkpt><trkpt lat="44.20399140725518" lon="10.064270170970671"><ele>131.60000000000002</ele><time>2026-05-02T15:32:06.999Z</time></trkpt><trkpt lat="44.2039175716437" lon="10.064155505144214"><ele>128.39999999999998</ele><time>2026-05-02T15:32:07.999Z</time></trkpt><trkpt lat="44.20384657822406" lon="10.064037067613059"><ele>125.19999999999999</ele><time>2026-05-02T15:32:08.999Z</time></trkpt><trkpt lat="44.20377630477481" lon="10.06391292478144"><ele>122.0</ele><time>2026-05-02T15:32:09.999Z</time></trkpt><trkpt lat="44.20370565550033" lon="10.06378128721902"><ele>122.0</ele><time>2026-05-02T15:32:10.999Z</time></trkpt><trkpt lat="44.203636255952404" lon="10.063646336207551"><ele>121.99999999999999</ele><time>2026-05-02T15:32:11.999Z</time></trkpt><trkpt lat="44.203567772841325" lon="10.063510077800705"><ele>121.99999999999999</ele><time>2026-05-02T15:32:12.999Z</time></trkpt><trkpt lat="44.20350376831467" lon="10.063385853035609"><ele>122.0</ele><time>2026-05-02T15:32:13.999Z</time></trkpt><trkpt lat="44.20344220422968" lon="10.063276378449396"><ele>122.0</ele><time>2026-05-02T15:32:14.999Z</time></trkpt><trkpt lat="44.20338907191287" lon="10.063168402537963"><ele>124.0</ele><time>2026-05-02T15:32:15.999Z</time></trkpt><trkpt lat="44.20335201555135" lon="10.063054764959924"><ele>125.99999999999999</ele><time>2026-05-02T15:32:16.999Z</time></trkpt><trkpt lat="44.20331923108409" lon="10.062938519247108"><ele>127.99999999999999</ele><time>2026-05-02T15:32:17.999Z</time></trkpt><trkpt lat="44.203282858551376" lon="10.062820707904166"><ele>130.0</ele><time>2026-05-02T15:32:18.999Z</time></trkpt><trkpt lat="44.20324544707922" lon="10.062703198707526"><ele>132.0</ele><time>2026-05-02T15:32:19.999Z</time></trkpt><trkpt lat="44.203207431978626" lon="10.062587178093208"><ele>132.0</ele><time>2026-05-02T15:32:20.999Z</time></trkpt><trkpt lat="44.20316998626481" lon="10.062472661909"><ele>132.0</ele><time>2026-05-02T15:32:21.999Z</time></trkpt><trkpt lat="44.20313327521596" lon="10.062367347648243"><ele>132.0</ele><time>2026-05-02T15:32:22.999Z</time></trkpt><trkpt lat="44.203099020213315" lon="10.062275546428342"><ele>132.0</ele><time>2026-05-02T15:32:23.999Z</time></trkpt><trkpt lat="44.203067155480646" lon="10.062194162957216"><ele>132.0</ele><time>2026-05-02T15:32:24.999Z</time></trkpt><trkpt lat="44.20303144119268" lon="10.062098188865127"><ele>132.0</ele><time>2026-05-02T15:32:26.999Z</time></trkpt><trkpt lat="44.20299625459111" lon="10.062011044876234"><ele>131.0</ele><time>2026-05-02T15:32:28.999Z</time></trkpt><trkpt lat="44.20296364521096" lon="10.061910175738623"><ele>130.0</ele><time>2026-05-02T15:32:30.999Z</time></trkpt><trkpt lat="44.20291159005097" lon="10.061768682218323"><ele>129.0</ele><time>2026-05-02T15:32:32.999Z</time></trkpt><trkpt lat="44.202880283762724" lon="10.06167948493512"><ele>128.0</ele><time>2026-05-02T15:32:33.999Z</time></trkpt><trkpt lat="44.20285052347199" lon="10.061579997931915"><ele>127.0</ele><time>2026-05-02T15:32:34.999Z</time></trkpt><trkpt lat="44.202816551185" lon="10.061483693131148"><ele>126.0</ele><time>2026-05-02T15:32:35.999Z</time></trkpt><trkpt lat="44.202779878321294" lon="10.061380925571584"><ele>126.0</ele><time>2026-05-02T15:32:36.999Z</time></trkpt><trkpt lat="44.202742171858915" lon="10.061273644426455"><ele>126.0</ele><time>2026-05-02T15:32:37.999Z</time></trkpt><trkpt lat="44.20270415080266" lon="10.061158169476917"><ele>126.0</ele><time>2026-05-02T15:32:38.999Z</time></trkpt><trkpt lat="44.202664086125445" lon="10.061039354433964"><ele>126.0</ele><time>2026-05-02T15:32:39.999Z</time></trkpt><trkpt lat="44.20262072981064" lon="10.060920346772546"><ele>126.0</ele><time>2026-05-02T15:32:40.999Z</time></trkpt><trkpt lat="44.20257576514606" lon="10.060800577651825"><ele>124.4</ele><time>2026-05-02T15:32:41.999Z</time></trkpt><trkpt lat="44.20252880946579" lon="10.060680508421747"><ele>122.8</ele><time>2026-05-02T15:32:42.999Z</time></trkpt><trkpt lat="44.20248098606692" lon="10.06056477351932"><ele>121.20000000000002</ele><time>2026-05-02T15:32:43.999Z</time></trkpt><trkpt lat="44.20242849763883" lon="10.06044700970549"><ele>119.60000000000001</ele><time>2026-05-02T15:32:44.999Z</time></trkpt><trkpt lat="44.202372690440114" lon="10.060323085818228"><ele>118.0</ele><time>2026-05-02T15:32:45.999Z</time></trkpt><trkpt lat="44.202314069936335" lon="10.060192371691228"><ele>118.0</ele><time>2026-05-02T15:32:46.999Z</time></trkpt><trkpt lat="44.20225169627576" lon="10.060060307218766"><ele>118.0</ele><time>2026-05-02T15:32:47.999Z</time></trkpt><trkpt lat="44.20218903907484" lon="10.059926397981023"><ele>118.0</ele><time>2026-05-02T15:32:48.999Z</time></trkpt><trkpt lat="44.202123764671825" lon="10.059790362665492"><ele>118.0</ele><time>2026-05-02T15:32:49.999Z</time></trkpt><trkpt lat="44.202054535961864" lon="10.059654084977648"><ele>121.0</ele><time>2026-05-02T15:32:50.999Z</time></trkpt><trkpt lat="44.2019830818676" lon="10.059521910384898"><ele>124.0</ele><time>2026-05-02T15:32:51.999Z</time></trkpt><trkpt lat="44.20190478149108" lon="10.059395263780184"><ele>127.0</ele><time>2026-05-02T15:32:52.999Z</time></trkpt><trkpt lat="44.20182007907551" lon="10.059272895001119"><ele>130.0</ele><time>2026-05-02T15:32:53.999Z</time></trkpt><trkpt lat="44.20173083866576" lon="10.059154032152136"><ele>127.25</ele><time>2026-05-02T15:32:54.999Z</time></trkpt><trkpt lat="44.20163861447475" lon="10.059039458426223"><ele>124.5</ele><time>2026-05-02T15:32:55.999Z</time></trkpt><trkpt lat="44.20154508971076" lon="10.058925364583551"><ele>121.75</ele><time>2026-05-02T15:32:56.999Z</time></trkpt><trkpt lat="44.20145066065189" lon="10.058814817452376"><ele>119.0</ele><time>2026-05-02T15:32:57.999Z</time></trkpt><trkpt lat="44.20135575918654" lon="10.05870639246579"><ele>119.0</ele><time>2026-05-02T15:32:58.999Z</time></trkpt><trkpt lat="44.20126473911594" lon="10.058592694568569"><ele>119.0</ele><time>2026-05-02T15:32:59.999Z</time></trkpt><trkpt lat="44.20118252491144" lon="10.058467795014616"><ele>119.0</ele><time>2026-05-02T15:33:00.999Z</time></trkpt><trkpt lat="44.20111247314203" lon="10.058332086018423"><ele>119.0</ele><time>2026-05-02T15:33:01.999Z</time></trkpt><trkpt lat="44.20105426572562" lon="10.058187953116034"><ele>120.2</ele><time>2026-05-02T15:33:02.999Z</time></trkpt><trkpt lat="44.20100592997397" lon="10.058035544136274"><ele>121.4</ele><time>2026-05-02T15:33:03.998Z</time></trkpt><trkpt lat="44.20096639589599" lon="10.057889301559968"><ele>122.6</ele><time>2026-05-02T15:33:04.998Z</time></trkpt><trkpt lat="44.20093151072053" lon="10.057758371043485"><ele>123.8</ele><time>2026-05-02T15:33:05.998Z</time></trkpt><trkpt lat="44.20089812000205" lon="10.05763917239254"><ele>125.0</ele><time>2026-05-02T15:33:06.998Z</time></trkpt><trkpt lat="44.20086758828032" lon="10.057526053219958"><ele>126.16666666666666</ele><time>2026-05-02T15:33:07.998Z</time></trkpt><trkpt lat="44.20083866339585" lon="10.05741891912874"><ele>127.33333333333333</ele><time>2026-05-02T15:33:08.998Z</time></trkpt><trkpt lat="44.20080898507945" lon="10.057310586959204"><ele>128.5</ele><time>2026-05-02T15:33:09.998Z</time></trkpt><trkpt lat="44.200778815395395" lon="10.05719933793277"><ele>129.66666666666666</ele><time>2026-05-02T15:33:10.998Z</time></trkpt><trkpt lat="44.20074961487945" lon="10.057084799000428"><ele>130.83333333333334</ele><time>2026-05-02T15:33:11.998Z</time></trkpt><trkpt lat="44.20072010837055" lon="10.056970745094402"><ele>132.0</ele><time>2026-05-02T15:33:12.998Z</time></trkpt><trkpt lat="44.2006876462105" lon="10.056852285564853"><ele>128.79999999999998</ele><time>2026-05-02T15:33:13.998Z</time></trkpt><trkpt lat="44.200651240405755" lon="10.056733575831156"><ele>125.6</ele><time>2026-05-02T15:33:14.998Z</time></trkpt><trkpt lat="44.20061616142024" lon="10.056610081038201"><ele>122.39999999999999</ele><time>2026-05-02T15:33:15.998Z</time></trkpt><trkpt lat="44.200583735060924" lon="10.056484978231707"><ele>119.19999999999999</ele><time>2026-05-02T15:33:16.998Z</time></trkpt><trkpt lat="44.2005507832277" lon="10.056355302661704"><ele>116.0</ele><time>2026-05-02T15:33:17.998Z</time></trkpt><trkpt lat="44.2005147442518" lon="10.056222296716523"><ele>116.0</ele><time>2026-05-02T15:33:18.998Z</time></trkpt><trkpt lat="44.20047850297504" lon="10.056086641380984"><ele>116.0</ele><time>2026-05-02T15:33:19.998Z</time></trkpt><trkpt lat="44.200453544239956" lon="10.055944717165481"><ele>116.0</ele><time>2026-05-02T15:33:20.998Z</time></trkpt><trkpt lat="44.20044800728774" lon="10.055798384786442"><ele>116.0</ele><time>2026-05-02T15:33:21.998Z</time></trkpt><trkpt lat="44.20045474594992" lon="10.055648333097334"><ele>116.0</ele><time>2026-05-02T15:33:23Z</time></trkpt><trkpt lat="44.20046700191279" lon="10.055497715118062"><ele>116.0</ele><time>2026-05-02T15:33:24.001Z</time></trkpt><trkpt lat="44.20047538663337" lon="10.055343310997635"><ele>116.0</ele><time>2026-05-02T15:33:25Z</time></trkpt><trkpt lat="44.20048470443794" lon="10.05518860019954"><ele>116.0</ele><time>2026-05-02T15:33:26.001Z</time></trkpt><trkpt lat="44.2004932665178" lon="10.055034867161188"><ele>116.0</ele><time>2026-05-02T15:33:27.001Z</time></trkpt><trkpt lat="44.200501668251114" lon="10.054881073185735"><ele>116.0</ele><time>2026-05-02T15:33:28.001Z</time></trkpt><trkpt lat="44.200509517628525" lon="10.054730040480846"><ele>115.6</ele><time>2026-05-02T15:33:29.001Z</time></trkpt><trkpt lat="44.20051793322908" lon="10.054585909814781"><ele>115.19999999999999</ele><time>2026-05-02T15:33:30.001Z</time></trkpt><trkpt lat="44.20052760849555" lon="10.054446053996946"><ele>114.80000000000001</ele><time>2026-05-02T15:33:31.001Z</time></trkpt><trkpt lat="44.200537905457566" lon="10.054313427222963"><ele>114.4</ele><time>2026-05-02T15:33:32.001Z</time></trkpt><trkpt lat="44.20054812056153" lon="10.054175710650714"><ele>114.0</ele><time>2026-05-02T15:33:33.001Z</time></trkpt><trkpt lat="44.200556182945064" lon="10.054023679131891"><ele>114.0</ele><time>2026-05-02T15:33:34.001Z</time></trkpt><trkpt lat="44.20056616997399" lon="10.053864734943666"><ele>114.0</ele><time>2026-05-02T15:33:35.001Z</time></trkpt><trkpt lat="44.200578064669415" lon="10.053701610053377"><ele>114.0</ele><time>2026-05-02T15:33:36.001Z</time></trkpt><trkpt lat="44.20058937897226" lon="10.053537251807745"><ele>114.0</ele><time>2026-05-02T15:33:37.001Z</time></trkpt><trkpt lat="44.20059921462673" lon="10.053373777337143"><ele>114.25</ele><time>2026-05-02T15:33:38.001Z</time></trkpt><trkpt lat="44.20060975966933" lon="10.053212927054124"><ele>114.5</ele><time>2026-05-02T15:33:39.001Z</time></trkpt><trkpt lat="44.20062268430989" lon="10.053055345384742"><ele>114.75</ele><time>2026-05-02T15:33:40.001Z</time></trkpt><trkpt lat="44.20063510863575" lon="10.05290085076965"><ele>115.0</ele><time>2026-05-02T15:33:41.001Z</time></trkpt><trkpt lat="44.20064309305712" lon="10.05274755198022"><ele>115.0</ele><time>2026-05-02T15:33:42Z</time></trkpt><trkpt lat="44.20065034484847" lon="10.052595765719076"><ele>115.0</ele><time>2026-05-02T15:33:43Z</time></trkpt><trkpt lat="44.20065599239584" lon="10.05244637470958"><ele>115.0</ele><time>2026-05-02T15:33:44Z</time></trkpt><trkpt lat="44.200660440485784" lon="10.05229713702577"><ele>115.0</ele><time>2026-05-02T15:33:45Z</time></trkpt><trkpt lat="44.20066117641812" lon="10.052148062490934"><ele>115.0</ele><time>2026-05-02T15:33:46Z</time></trkpt><trkpt lat="44.200650644631956" lon="10.051996733857193"><ele>115.0</ele><time>2026-05-02T15:33:47Z</time></trkpt><trkpt lat="44.200626274717294" lon="10.051848792331507"><ele>115.0</ele><time>2026-05-02T15:33:48Z</time></trkpt><trkpt lat="44.20058984903282" lon="10.051702559957484"><ele>115.0</ele><time>2026-05-02T15:33:49Z</time></trkpt><trkpt lat="44.200546584158175" lon="10.05155976499508"><ele>115.0</ele><time>2026-05-02T15:33:50Z</time></trkpt><trkpt lat="44.20050101413537" lon="10.051416116351806"><ele>115.0</ele><time>2026-05-02T15:33:51Z</time></trkpt><trkpt lat="44.200457930578736" lon="10.051269702037889"><ele>114.5</ele><time>2026-05-02T15:33:52Z</time></trkpt><trkpt lat="44.20041190885364" lon="10.051122466064193"><ele>114.0</ele><time>2026-05-02T15:33:53Z</time></trkpt><trkpt lat="44.20036454050273" lon="10.050975296323381"><ele>113.5</ele><time>2026-05-02T15:33:54Z</time></trkpt><trkpt lat="44.20031386607459" lon="10.050829029808169"><ele>113.0</ele><time>2026-05-02T15:33:55Z</time></trkpt><trkpt lat="44.20026434262309" lon="10.050683700733824"><ele>112.80000000000001</ele><time>2026-05-02T15:33:56Z</time></trkpt><trkpt lat="44.20021523400643" lon="10.050539402950669"><ele>112.60000000000001</ele><time>2026-05-02T15:33:57Z</time></trkpt><trkpt lat="44.20016777278252" lon="10.050404833321966"><ele>112.39999999999999</ele><time>2026-05-02T15:33:58Z</time></trkpt><trkpt lat="44.20011334351385" lon="10.050282851134257"><ele>112.19999999999999</ele><time>2026-05-02T15:33:59Z</time></trkpt><trkpt lat="44.20004361050476" lon="10.050186964406281"><ele>112.0</ele><time>2026-05-02T15:34:00Z</time></trkpt><trkpt lat="44.19995906134644" lon="10.050122363687143"><ele>112.0</ele><time>2026-05-02T15:34:01Z</time></trkpt><trkpt lat="44.19986542854699" lon="10.050070183574842"><ele>111.99999999999999</ele><time>2026-05-02T15:34:02Z</time></trkpt><trkpt lat="44.199770414476326" lon="10.050003679311903"><ele>111.99999999999999</ele><time>2026-05-02T15:34:03Z</time></trkpt><trkpt lat="44.199672643604394" lon="10.049926216111388"><ele>112.0</ele><time>2026-05-02T15:34:04Z</time></trkpt><trkpt lat="44.19957889062502" lon="10.04983333560094"><ele>112.0</ele><time>2026-05-02T15:34:05Z</time></trkpt><trkpt lat="44.199486526196075" lon="10.04973216795955"><ele>110.25</ele><time>2026-05-02T15:34:06Z</time></trkpt><trkpt lat="44.19939537660035" lon="10.049615930954394"><ele>108.5</ele><time>2026-05-02T15:34:07Z</time></trkpt><trkpt lat="44.19930874066184" lon="10.049482805783285"><ele>106.75</ele><time>2026-05-02T15:34:08Z</time></trkpt><trkpt lat="44.19922899521743" lon="10.04933295024831"><ele>105.0</ele><time>2026-05-02T15:34:09Z</time></trkpt><trkpt lat="44.19915707169499" lon="10.049169828143333"><ele>105.25</ele><time>2026-05-02T15:34:10Z</time></trkpt><trkpt lat="44.199093111788166" lon="10.04900484539029"><ele>105.5</ele><time>2026-05-02T15:34:11Z</time></trkpt><trkpt lat="44.199033023497826" lon="10.048829752910242"><ele>105.75</ele><time>2026-05-02T15:34:12Z</time></trkpt><trkpt lat="44.19897711422116" lon="10.04864596133649"><ele>106.0</ele><time>2026-05-02T15:34:13Z</time></trkpt><trkpt lat="44.19892341461129" lon="10.04845566565207"><ele>105.0</ele><time>2026-05-02T15:34:14Z</time></trkpt><trkpt lat="44.198869568683826" lon="10.048258120379503"><ele>104.0</ele><time>2026-05-02T15:34:15Z</time></trkpt><trkpt lat="44.19881639498588" lon="10.048060694659974"><ele>103.0</ele><time>2026-05-02T15:34:16Z</time></trkpt><trkpt lat="44.19876017594052" lon="10.047859149416917"><ele>103.0</ele><time>2026-05-02T15:34:17Z</time></trkpt><trkpt lat="44.198706500082906" lon="10.047656051831027"><ele>103.0</ele><time>2026-05-02T15:34:17.999Z</time></trkpt><trkpt lat="44.19865084985385" lon="10.047451051876997"><ele>103.0</ele><time>2026-05-02T15:34:18.999Z</time></trkpt><trkpt lat="44.198594901273566" lon="10.047245713789561"><ele>103.0</ele><time>2026-05-02T15:34:19.999Z</time></trkpt><trkpt lat="44.19853997510212" lon="10.047038561164433"><ele>103.0</ele><time>2026-05-02T15:34:20.999Z</time></trkpt><trkpt lat="44.198485991459826" lon="10.046832022545502"><ele>103.0</ele><time>2026-05-02T15:34:21.999Z</time></trkpt><trkpt lat="44.19843299008544" lon="10.046625411244088"><ele>103.0</ele><time>2026-05-02T15:34:22.999Z</time></trkpt><trkpt lat="44.198389456319696" lon="10.04641463091192"><ele>103.0</ele><time>2026-05-02T15:34:23.999Z</time></trkpt><trkpt lat="44.19835884986947" lon="10.046200401595625"><ele>103.0</ele><time>2026-05-02T15:34:24.999Z</time></trkpt><trkpt lat="44.198343158693135" lon="10.045985633093183"><ele>103.33333333333334</ele><time>2026-05-02T15:34:25.999Z</time></trkpt><trkpt lat="44.19833867118779" lon="10.045769958359184"><ele>103.66666666666666</ele><time>2026-05-02T15:34:26.999Z</time></trkpt><trkpt lat="44.198349834271596" lon="10.045552165088528"><ele>104.0</ele><time>2026-05-02T15:34:27.999Z</time></trkpt><trkpt lat="44.198371061539945" lon="10.045339872121705"><ele>104.0</ele><time>2026-05-02T15:34:28.999Z</time></trkpt><trkpt lat="44.19839229624548" lon="10.045129332281777"><ele>104.0</ele><time>2026-05-02T15:34:29.999Z</time></trkpt><trkpt lat="44.19840399757021" lon="10.044919810020978"><ele>104.0</ele><time>2026-05-02T15:34:30.999Z</time></trkpt><trkpt lat="44.19840003734007" lon="10.044710915850166"><ele>104.0</ele><time>2026-05-02T15:34:31.999Z</time></trkpt><trkpt lat="44.198379672352814" lon="10.044502594294983"><ele>104.0</ele><time>2026-05-02T15:34:32.999Z</time></trkpt><trkpt lat="44.19835364010526" lon="10.044294309143707"><ele>104.0</ele><time>2026-05-02T15:34:33.999Z</time></trkpt><trkpt lat="44.19832678069538" lon="10.04408654737664"><ele>104.33333333333333</ele><time>2026-05-02T15:34:34.999Z</time></trkpt><trkpt lat="44.19829919243563" lon="10.043877192607278"><ele>104.66666666666666</ele><time>2026-05-02T15:34:35.999Z</time></trkpt><trkpt lat="44.198277505463814" lon="10.0436724052347"><ele>105.0</ele><time>2026-05-02T15:34:36.999Z</time></trkpt><trkpt lat="44.19826824516051" lon="10.043463009664581"><ele>104.75</ele><time>2026-05-02T15:34:37.999Z</time></trkpt><trkpt lat="44.19827432655702" lon="10.043263899011407"><ele>104.5</ele><time>2026-05-02T15:34:38.999Z</time></trkpt><trkpt lat="44.19829473907461" lon="10.043070386871591"><ele>104.25</ele><time>2026-05-02T15:34:39.999Z</time></trkpt><trkpt lat="44.19833149260506" lon="10.042879123280523"><ele>104.0</ele><time>2026-05-02T15:34:40.999Z</time></trkpt><trkpt lat="44.198375405435996" lon="10.042696920470073"><ele>104.0</ele><time>2026-05-02T15:34:41.998Z</time></trkpt><trkpt lat="44.19842106527192" lon="10.04251840465125"><ele>104.0</ele><time>2026-05-02T15:34:42.998Z</time></trkpt><trkpt lat="44.19846504583721" lon="10.042345961418018"><ele>104.0</ele><time>2026-05-02T15:34:43.998Z</time></trkpt><trkpt lat="44.198507870626294" lon="10.042184705799011"><ele>104.0</ele><time>2026-05-02T15:34:44.998Z</time></trkpt><trkpt lat="44.19854877017581" lon="10.042025913565258"><ele>103.25</ele><time>2026-05-02T15:34:45.998Z</time></trkpt><trkpt lat="44.19858917512663" lon="10.041870043214846"><ele>102.5</ele><time>2026-05-02T15:34:46.998Z</time></trkpt><trkpt lat="44.19863122019114" lon="10.041716281727751"><ele>101.75</ele><time>2026-05-02T15:34:47.998Z</time></trkpt><trkpt lat="44.19867417101227" lon="10.041563602814072"><ele>101.0</ele><time>2026-05-02T15:34:48.998Z</time></trkpt><trkpt lat="44.19871632310135" lon="10.041408618357085"><ele>101.0</ele><time>2026-05-02T15:34:49.998Z</time></trkpt><trkpt lat="44.19875734961055" lon="10.041253086768998"><ele>101.0</ele><time>2026-05-02T15:34:50.998Z</time></trkpt><trkpt lat="44.19879705592325" lon="10.041095443895554"><ele>101.0</ele><time>2026-05-02T15:34:51.998Z</time></trkpt><trkpt lat="44.19883669958539" lon="10.040937142947191"><ele>101.0</ele><time>2026-05-02T15:34:52.998Z</time></trkpt><trkpt lat="44.19887830408879" lon="10.04077965207939"><ele>101.0</ele><time>2026-05-02T15:34:53.998Z</time></trkpt><trkpt lat="44.19892243322693" lon="10.04062092680294"><ele>101.0</ele><time>2026-05-02T15:34:54.998Z</time></trkpt><trkpt lat="44.1989686838637" lon="10.040461713525556"><ele>101.0</ele><time>2026-05-02T15:34:55.998Z</time></trkpt><trkpt lat="44.199016088148255" lon="10.0403017575148"><ele>101.0</ele><time>2026-05-02T15:34:56.998Z</time></trkpt><trkpt lat="44.19906219094228" lon="10.040137513545796"><ele>100.75</ele><time>2026-05-02T15:34:57.998Z</time></trkpt><trkpt lat="44.19910642719019" lon="10.039973629289074"><ele>100.5</ele><time>2026-05-02T15:34:58.998Z</time></trkpt><trkpt lat="44.19914986674739" lon="10.039812716183619"><ele>100.25</ele><time>2026-05-02T15:34:59.998Z</time></trkpt><trkpt lat="44.19919683430686" lon="10.039653392430447"><ele>100.0</ele><time>2026-05-02T15:35:00.998Z</time></trkpt><trkpt lat="44.199247226292144" lon="10.039493095370315"><ele>100.0</ele><time>2026-05-02T15:35:01.998Z</time></trkpt><trkpt lat="44.19930639689976" lon="10.039335151173782"><ele>100.0</ele><time>2026-05-02T15:35:02.998Z</time></trkpt><trkpt lat="44.19937402024598" lon="10.039181843578008"><ele>100.0</ele><time>2026-05-02T15:35:03.998Z</time></trkpt><trkpt lat="44.19944767172957" lon="10.039032092491247"><ele>100.0</ele><time>2026-05-02T15:35:04.998Z</time></trkpt><trkpt lat="44.19952501235748" lon="10.038879564661087"><ele>99.25</ele><time>2026-05-02T15:35:05.998Z</time></trkpt><trkpt lat="44.19960671006635" lon="10.038729457245944"><ele>98.5</ele><time>2026-05-02T15:35:06.998Z</time></trkpt><trkpt lat="44.199693886386584" lon="10.038583356976856"><ele>97.75</ele><time>2026-05-02T15:35:07.998Z</time></trkpt><trkpt lat="44.19978939465991" lon="10.038444146446034"><ele>97.0</ele><time>2026-05-02T15:35:08.998Z</time></trkpt><trkpt lat="44.19989288073357" lon="10.03831885613131"><ele>97.25</ele><time>2026-05-02T15:35:09.998Z</time></trkpt><trkpt lat="44.199999692455265" lon="10.038207517224144"><ele>97.5</ele><time>2026-05-02T15:35:10.998Z</time></trkpt><trkpt lat="44.20010520229067" lon="10.038094035686383"><ele>97.75</ele><time>2026-05-02T15:35:11.998Z</time></trkpt><trkpt lat="44.200203179881655" lon="10.037973278596418"><ele>98.0</ele><time>2026-05-02T15:35:12.998Z</time></trkpt><trkpt lat="44.200290353763684" lon="10.037833609642698"><ele>98.0</ele><time>2026-05-02T15:35:13.998Z</time></trkpt><trkpt lat="44.20037198152918" lon="10.03769045076137"><ele>98.0</ele><time>2026-05-02T15:35:14.998Z</time></trkpt><trkpt lat="44.20044989298811" lon="10.037549187184814"><ele>98.0</ele><time>2026-05-02T15:35:15.998Z</time></trkpt><trkpt lat="44.20052091412979" lon="10.037410206793771"><ele>98.0</ele><time>2026-05-02T15:35:16.998Z</time></trkpt><trkpt lat="44.20059459208017" lon="10.037272621390992"><ele>98.75</ele><time>2026-05-02T15:35:17.998Z</time></trkpt><trkpt lat="44.20067044012461" lon="10.037141511481876"><ele>99.5</ele><time>2026-05-02T15:35:18.998Z</time></trkpt><trkpt lat="44.20074399443494" lon="10.037009894263502"><ele>100.25</ele><time>2026-05-02T15:35:19.998Z</time></trkpt><trkpt lat="44.200816479452634" lon="10.036872270629972"><ele>101.0</ele><time>2026-05-02T15:35:20.998Z</time></trkpt><trkpt lat="44.20088915372656" lon="10.03673460688474"><ele>100.5</ele><time>2026-05-02T15:35:21.998Z</time></trkpt><trkpt lat="44.200961864519364" lon="10.036594755880591"><ele>100.0</ele><time>2026-05-02T15:35:22.998Z</time></trkpt><trkpt lat="44.201033109291856" lon="10.036455594030253"><ele>99.5</ele><time>2026-05-02T15:35:23.998Z</time></trkpt><trkpt lat="44.20110066840032" lon="10.036317648192178"><ele>99.0</ele><time>2026-05-02T15:35:24.998Z</time></trkpt><trkpt lat="44.20116252567864" lon="10.036176069947434"><ele>99.0</ele><time>2026-05-02T15:35:25.998Z</time></trkpt><trkpt lat="44.201218018190836" lon="10.036030856298613"><ele>99.0</ele><time>2026-05-02T15:35:26.998Z</time></trkpt><trkpt lat="44.20126604593828" lon="10.035878969988268"><ele>99.0</ele><time>2026-05-02T15:35:27.998Z</time></trkpt><trkpt lat="44.201313380001544" lon="10.035724721479587"><ele>99.0</ele><time>2026-05-02T15:35:29Z</time></trkpt><trkpt lat="44.20136821633324" lon="10.03557366021729"><ele>99.0</ele><time>2026-05-02T15:35:30Z</time></trkpt><trkpt lat="44.201420772276826" lon="10.035419156297232"><ele>99.0</ele><time>2026-05-02T15:35:31Z</time></trkpt><trkpt lat="44.20147362547155" lon="10.035261399049201"><ele>99.0</ele><time>2026-05-02T15:35:32Z</time></trkpt><trkpt lat="44.201523755841876" lon="10.035106330676726"><ele>99.0</ele><time>2026-05-02T15:35:33Z</time></trkpt><trkpt lat="44.201568687019204" lon="10.034958209405929"><ele>98.6</ele><time>2026-05-02T15:35:34Z</time></trkpt><trkpt lat="44.20161283922231" lon="10.034815371486195"><ele>98.2</ele><time>2026-05-02T15:35:35Z</time></trkpt><trkpt lat="44.20165950062763" lon="10.034678603838646"><ele>97.8</ele><time>2026-05-02T15:35:36Z</time></trkpt><trkpt lat="44.201704975801036" lon="10.034544450086466"><ele>97.39999999999999</ele><time>2026-05-02T15:35:37Z</time></trkpt><trkpt lat="44.20174782263194" lon="10.034410469505538"><ele>97.0</ele><time>2026-05-02T15:35:38Z</time></trkpt><trkpt lat="44.201793964793154" lon="10.034278939509305"><ele>97.0</ele><time>2026-05-02T15:35:39Z</time></trkpt><trkpt lat="44.20183836899435" lon="10.034146432389548"><ele>97.0</ele><time>2026-05-02T15:35:40Z</time></trkpt><trkpt lat="44.201878897915094" lon="10.03401050790714"><ele>97.0</ele><time>2026-05-02T15:35:41Z</time></trkpt><trkpt lat="44.20192122449469" lon="10.033875721020795"><ele>97.0</ele><time>2026-05-02T15:35:42Z</time></trkpt><trkpt lat="44.201968176427066" lon="10.03374442109542"><ele>97.0</ele><time>2026-05-02T15:35:43Z</time></trkpt><trkpt lat="44.20201480729521" lon="10.033614531539543"><ele>96.8</ele><time>2026-05-02T15:35:44Z</time></trkpt><trkpt lat="44.202059602297375" lon="10.03348346218608"><ele>96.6</ele><time>2026-05-02T15:35:45Z</time></trkpt><trkpt lat="44.20210190525744" lon="10.033351988104476"><ele>96.39999999999999</ele><time>2026-05-02T15:35:46Z</time></trkpt><trkpt lat="44.20214319704221" lon="10.033227317379916"><ele>96.19999999999999</ele><time>2026-05-02T15:35:47Z</time></trkpt><trkpt lat="44.20218353976735" lon="10.033106411650026"><ele>96.0</ele><time>2026-05-02T15:35:48Z</time></trkpt><trkpt lat="44.202219819681304" lon="10.032995780072438"><ele>96.0</ele><time>2026-05-02T15:35:49Z</time></trkpt><trkpt lat="44.202254285905155" lon="10.032889769866125"><ele>96.0</ele><time>2026-05-02T15:35:50Z</time></trkpt><trkpt lat="44.202287999218996" lon="10.032787584183334"><ele>96.0</ele><time>2026-05-02T15:35:51Z</time></trkpt><trkpt lat="44.20232573009666" lon="10.03268036041906"><ele>96.0</ele><time>2026-05-02T15:35:52Z</time></trkpt><trkpt lat="44.20236450740184" lon="10.032569650782516"><ele>96.0</ele><time>2026-05-02T15:35:53Z</time></trkpt><trkpt lat="44.20240124481931" lon="10.032454768636534"><ele>96.0</ele><time>2026-05-02T15:35:54Z</time></trkpt><trkpt lat="44.20243888201082" lon="10.03233790046105"><ele>96.0</ele><time>2026-05-02T15:35:55Z</time></trkpt><trkpt lat="44.20247913284424" lon="10.032222715412942"><ele>96.0</ele><time>2026-05-02T15:35:56Z</time></trkpt><trkpt lat="44.20252189119742" lon="10.032103317274057"><ele>96.0</ele><time>2026-05-02T15:35:57Z</time></trkpt><trkpt lat="44.20256230580426" lon="10.031980285771457"><ele>96.0</ele><time>2026-05-02T15:35:58Z</time></trkpt><trkpt lat="44.20260220482834" lon="10.031853627271355"><ele>96.0</ele><time>2026-05-02T15:35:59Z</time></trkpt><trkpt lat="44.2026476023726" lon="10.031729280848044"><ele>95.6</ele><time>2026-05-02T15:36:00Z</time></trkpt><trkpt lat="44.202691983323284" lon="10.031604723835772"><ele>95.19999999999999</ele><time>2026-05-02T15:36:01Z</time></trkpt><trkpt lat="44.202736619492924" lon="10.031480148532866"><ele>94.80000000000001</ele><time>2026-05-02T15:36:02Z</time></trkpt><trkpt lat="44.2027810470094" lon="10.031351988707307"><ele>94.4</ele><time>2026-05-02T15:36:03Z</time></trkpt><trkpt lat="44.2028237738396" lon="10.031221071440157"><ele>94.0</ele><time>2026-05-02T15:36:04Z</time></trkpt><trkpt lat="44.20286655556407" lon="10.031088712241353"><ele>94.0</ele><time>2026-05-02T15:36:05Z</time></trkpt><trkpt lat="44.202910951143885" lon="10.030956002812294"><ele>94.0</ele><time>2026-05-02T15:36:06Z</time></trkpt><trkpt lat="44.2029546171513" lon="10.030821702782033"><ele>94.0</ele><time>2026-05-02T15:36:07Z</time></trkpt><trkpt lat="44.202998895134364" lon="10.030689270571227"><ele>94.0</ele><time>2026-05-02T15:36:08Z</time></trkpt><trkpt lat="44.20304323141324" lon="10.030557102320296"><ele>94.0</ele><time>2026-05-02T15:36:08.999Z</time></trkpt><trkpt lat="44.203087332609314" lon="10.030426289513922"><ele>93.80000000000001</ele><time>2026-05-02T15:36:09.999Z</time></trkpt><trkpt lat="44.20313108977362" lon="10.03029443254977"><ele>93.60000000000001</ele><time>2026-05-02T15:36:10.999Z</time></trkpt><trkpt lat="44.20317521707643" lon="10.030161249990602"><ele>93.4</ele><time>2026-05-02T15:36:11.999Z</time></trkpt><trkpt lat="44.20321880901541" lon="10.030027303178494"><ele>93.2</ele><time>2026-05-02T15:36:12.999Z</time></trkpt><trkpt lat="44.20325603161333" lon="10.0298897010806"><ele>93.0</ele><time>2026-05-02T15:36:13.999Z</time></trkpt><trkpt lat="44.2032813618742" lon="10.029748893576114"><ele>93.0</ele><time>2026-05-02T15:36:14.999Z</time></trkpt><trkpt lat="44.203289536368594" lon="10.029604780122211"><ele>93.0</ele><time>2026-05-02T15:36:15.999Z</time></trkpt><trkpt lat="44.20327596888979" lon="10.02946402871661"><ele>93.0</ele><time>2026-05-02T15:36:16.999Z</time></trkpt><trkpt lat="44.2032348755841" lon="10.02933641014051"><ele>93.0</ele><time>2026-05-02T15:36:17.999Z</time></trkpt><trkpt lat="44.20317706264219" lon="10.029220344829293"><ele>93.0</ele><time>2026-05-02T15:36:18.999Z</time></trkpt><trkpt lat="44.20309551678622" lon="10.029136665694223"><ele>92.0</ele><time>2026-05-02T15:36:19.999Z</time></trkpt><trkpt lat="44.20301039829485" lon="10.029066901058396"><ele>91.0</ele><time>2026-05-02T15:36:20.999Z</time></trkpt><trkpt lat="44.20292474900392" lon="10.028994132807233"><ele>90.0</ele><time>2026-05-02T15:36:21.999Z</time></trkpt><trkpt lat="44.202835771532655" lon="10.028912892594708"><ele>89.0</ele><time>2026-05-02T15:36:22.999Z</time></trkpt><trkpt lat="44.202740749297426" lon="10.028828248384917"><ele>88.0</ele><time>2026-05-02T15:36:23.999Z</time></trkpt><trkpt lat="44.20264212352712" lon="10.028737357273974"><ele>88.0</ele><time>2026-05-02T15:36:24.999Z</time></trkpt><trkpt lat="44.20254107423732" lon="10.028647089536287"><ele>88.0</ele><time>2026-05-02T15:36:25.999Z</time></trkpt><trkpt lat="44.202437973215126" lon="10.028556918222558"><ele>88.0</ele><time>2026-05-02T15:36:26.999Z</time></trkpt><trkpt lat="44.202332796854456" lon="10.028466292539079"><ele>88.0</ele><time>2026-05-02T15:36:27.999Z</time></trkpt><trkpt lat="44.202230809266965" lon="10.028370042888952"><ele>91.75</ele><time>2026-05-02T15:36:28.999Z</time></trkpt><trkpt lat="44.2021425460618" lon="10.028252406080002"><ele>95.5</ele><time>2026-05-02T15:36:29.999Z</time></trkpt><trkpt lat="44.202078533133694" lon="10.028108489329524"><ele>99.25</ele><time>2026-05-02T15:36:30.999Z</time></trkpt><trkpt lat="44.20204810582745" lon="10.027948032958385"><ele>103.0</ele><time>2026-05-02T15:36:31.999Z</time></trkpt><trkpt lat="44.20204797810506" lon="10.027785040419841"><ele>103.0</ele><time>2026-05-02T15:36:32.999Z</time></trkpt><trkpt lat="44.2020754887589" lon="10.027623377166398"><ele>103.0</ele><time>2026-05-02T15:36:33.999Z</time></trkpt><trkpt lat="44.20211384955084" lon="10.02746393424228"><ele>103.0</ele><time>2026-05-02T15:36:34.999Z</time></trkpt><trkpt lat="44.20215696245226" lon="10.027302062450127"><ele>103.0</ele><time>2026-05-02T15:36:35.999Z</time></trkpt><trkpt lat="44.202201967482885" lon="10.027137625588743"><ele>105.25</ele><time>2026-05-02T15:36:36.999Z</time></trkpt><trkpt lat="44.20224253116613" lon="10.026964111095442"><ele>107.5</ele><time>2026-05-02T15:36:37.999Z</time></trkpt><trkpt lat="44.20227591623506" lon="10.026783746877605"><ele>109.75</ele><time>2026-05-02T15:36:38.999Z</time></trkpt><trkpt lat="44.20230007066561" lon="10.026598821470978"><ele>112.0</ele><time>2026-05-02T15:36:39.999Z</time></trkpt><trkpt lat="44.20230568648824" lon="10.026412180246304"><ele>112.0</ele><time>2026-05-02T15:36:40.999Z</time></trkpt><trkpt lat="44.202284133376814" lon="10.026225554795015"><ele>112.0</ele><time>2026-05-02T15:36:41.999Z</time></trkpt><trkpt lat="44.20225051150089" lon="10.02604335533496"><ele>112.0</ele><time>2026-05-02T15:36:42.999Z</time></trkpt><trkpt lat="44.20221193581477" lon="10.025864723055323"><ele>112.0</ele><time>2026-05-02T15:36:43.999Z</time></trkpt><trkpt lat="44.20217432563209" lon="10.025684956182511"><ele>111.0</ele><time>2026-05-02T15:36:44.999Z</time></trkpt><trkpt lat="44.20214048405041" lon="10.025504465608954"><ele>110.0</ele><time>2026-05-02T15:36:45.999Z</time></trkpt><trkpt lat="44.20210689648329" lon="10.025323787144004"><ele>109.0</ele><time>2026-05-02T15:36:46.999Z</time></trkpt><trkpt lat="44.202073079633706" lon="10.025146759014438"><ele>108.0</ele><time>2026-05-02T15:36:47.999Z</time></trkpt><trkpt lat="44.202037694948025" lon="10.024977640775697"><ele>107.0</ele><time>2026-05-02T15:36:48.999Z</time></trkpt><trkpt lat="44.202001486308085" lon="10.024817011712118"><ele>106.0</ele><time>2026-05-02T15:36:49.999Z</time></trkpt><trkpt lat="44.20196640970869" lon="10.024658694811444"><ele>105.0</ele><time>2026-05-02T15:36:50.999Z</time></trkpt><trkpt lat="44.201935263220356" lon="10.024499031268572"><ele>104.0</ele><time>2026-05-02T15:36:51.999Z</time></trkpt><trkpt lat="44.20190606086185" lon="10.024342500397477"><ele>104.0</ele><time>2026-05-02T15:36:52.999Z</time></trkpt><trkpt lat="44.2018758416539" lon="10.024187907265382"><ele>104.0</ele><time>2026-05-02T15:36:53.999Z</time></trkpt><trkpt lat="44.20184388633746" lon="10.024031172703987"><ele>104.0</ele><time>2026-05-02T15:36:54.999Z</time></trkpt><trkpt lat="44.201810563729744" lon="10.023875248846714"><ele>104.0</ele><time>2026-05-02T15:36:55.999Z</time></trkpt><trkpt lat="44.201775964996884" lon="10.023717889467306"><ele>102.75</ele><time>2026-05-02T15:36:56.999Z</time></trkpt><trkpt lat="44.2017434486386" lon="10.023558840700002"><ele>101.5</ele><time>2026-05-02T15:36:57.999Z</time></trkpt><trkpt lat="44.20171245482184" lon="10.023398524725726"><ele>100.25</ele><time>2026-05-02T15:36:58.999Z</time></trkpt><trkpt lat="44.20168283019409" lon="10.023238425779411"><ele>99.0</ele><time>2026-05-02T15:36:59.999Z</time></trkpt><trkpt lat="44.20165209368026" lon="10.02307729657747"><ele>98.25</ele><time>2026-05-02T15:37:00.999Z</time></trkpt><trkpt lat="44.201622919967086" lon="10.022915345692487"><ele>97.5</ele><time>2026-05-02T15:37:01.999Z</time></trkpt><trkpt lat="44.20159680193748" lon="10.0227506627998"><ele>96.75</ele><time>2026-05-02T15:37:02.998Z</time></trkpt><trkpt lat="44.20157694082768" lon="10.022581563095871"><ele>96.0</ele><time>2026-05-02T15:37:03.998Z</time></trkpt><trkpt lat="44.20156550603026" lon="10.022406026347538"><ele>96.0</ele><time>2026-05-02T15:37:04.998Z</time></trkpt><trkpt lat="44.20155500544772" lon="10.022227481728676"><ele>96.0</ele><time>2026-05-02T15:37:05.998Z</time></trkpt><trkpt lat="44.201546173232806" lon="10.022046618834377"><ele>96.0</ele><time>2026-05-02T15:37:06.998Z</time></trkpt><trkpt lat="44.20153741261397" lon="10.021864072238623"><ele>96.0</ele><time>2026-05-02T15:37:07.998Z</time></trkpt><trkpt lat="44.20152824235361" lon="10.021678921835498"><ele>95.5</ele><time>2026-05-02T15:37:08.998Z</time></trkpt><trkpt lat="44.20151889673823" lon="10.021492902389467"><ele>95.0</ele><time>2026-05-02T15:37:09.998Z</time></trkpt><trkpt lat="44.201510738168096" lon="10.021306727974421"><ele>94.5</ele><time>2026-05-02T15:37:10.998Z</time></trkpt><trkpt lat="44.20150418440594" lon="10.021122917329413"><ele>94.0</ele><time>2026-05-02T15:37:11.998Z</time></trkpt><trkpt lat="44.20149659906705" lon="10.020941392028353"><ele>96.5</ele><time>2026-05-02T15:37:12.998Z</time></trkpt><trkpt lat="44.201486830116764" lon="10.0207619707488"><ele>99.0</ele><time>2026-05-02T15:37:13.998Z</time></trkpt><trkpt lat="44.20147746424586" lon="10.020584396038021"><ele>101.5</ele><time>2026-05-02T15:37:14.998Z</time></trkpt><trkpt lat="44.20146903305069" lon="10.020408920473272"><ele>104.0</ele><time>2026-05-02T15:37:15.998Z</time></trkpt><trkpt lat="44.20146042665401" lon="10.02023481672809"><ele>104.0</ele><time>2026-05-02T15:37:16.998Z</time></trkpt><trkpt lat="44.20145270220302" lon="10.020062914568193"><ele>104.0</ele><time>2026-05-02T15:37:17.998Z</time></trkpt><trkpt lat="44.20144594178516" lon="10.019888945964436"><ele>104.0</ele><time>2026-05-02T15:37:18.998Z</time></trkpt><trkpt lat="44.20144055467501" lon="10.019715683029476"><ele>104.0</ele><time>2026-05-02T15:37:19.998Z</time></trkpt><trkpt lat="44.2014355788942" lon="10.019545702201968"><ele>104.75</ele><time>2026-05-02T15:37:20.998Z</time></trkpt><trkpt lat="44.20142941286325" lon="10.019376218071326"><ele>105.5</ele><time>2026-05-02T15:37:21.998Z</time></trkpt><trkpt lat="44.201419754762156" lon="10.019207187305524"><ele>106.25</ele><time>2026-05-02T15:37:22.998Z</time></trkpt><trkpt lat="44.20141066933423" lon="10.019040099495157"><ele>107.0</ele><time>2026-05-02T15:37:23.998Z</time></trkpt><trkpt lat="44.20140380667878" lon="10.018873836416049"><ele>105.5</ele><time>2026-05-02T15:37:24.998Z</time></trkpt><trkpt lat="44.20139905099009" lon="10.01870883552578"><ele>104.0</ele><time>2026-05-02T15:37:25.998Z</time></trkpt><trkpt lat="44.20139345117601" lon="10.018543610915556"><ele>102.5</ele><time>2026-05-02T15:37:26.998Z</time></trkpt><trkpt lat="44.20138708199844" lon="10.018380675812146"><ele>101.0</ele><time>2026-05-02T15:37:27.998Z</time></trkpt><trkpt lat="44.20138253352237" lon="10.01822296287181"><ele>99.8</ele><time>2026-05-02T15:37:28.998Z</time></trkpt><trkpt lat="44.20137921430249" lon="10.018077956069439"><ele>98.6</ele><time>2026-05-02T15:37:29.998Z</time></trkpt><trkpt lat="44.201376544011694" lon="10.017937990004175"><ele>97.4</ele><time>2026-05-02T15:37:30.998Z</time></trkpt><trkpt lat="44.201371656100015" lon="10.017809967648729"><ele>96.2</ele><time>2026-05-02T15:37:31.998Z</time></trkpt><trkpt lat="44.201367271361896" lon="10.017687733845914"><ele>95.0</ele><time>2026-05-02T15:37:32.998Z</time></trkpt><trkpt lat="44.20137555259744" lon="10.017566719265538"><ele>95.0</ele><time>2026-05-02T15:37:33.998Z</time></trkpt><trkpt lat="44.201408149353234" lon="10.017450796015348"><ele>95.0</ele><time>2026-05-02T15:37:35.001Z</time></trkpt><trkpt lat="44.20145925349281" lon="10.017347882629567"><ele>95.0</ele><time>2026-05-02T15:37:36.001Z</time></trkpt><trkpt lat="44.20153410037366" lon="10.01726204856304"><ele>95.0</ele><time>2026-05-02T15:37:37.001Z</time></trkpt><trkpt lat="44.20162288393391" lon="10.017197120469318"><ele>95.0</ele><time>2026-05-02T15:37:38.001Z</time></trkpt><trkpt lat="44.20171979360583" lon="10.017154752751111"><ele>95.0</ele><time>2026-05-02T15:37:39.001Z</time></trkpt><trkpt lat="44.20182008667798" lon="10.01711905859563"><ele>95.0</ele><time>2026-05-02T15:37:40.001Z</time></trkpt><trkpt lat="44.201922005973344" lon="10.017078148691498"><ele>95.0</ele><time>2026-05-02T15:37:41Z</time></trkpt><trkpt lat="44.20202833893072" lon="10.017028454951323"><ele>95.0</ele><time>2026-05-02T15:37:42Z</time></trkpt><trkpt lat="44.202134453929496" lon="10.016977233398332"><ele>95.0</ele><time>2026-05-02T15:37:43Z</time></trkpt><trkpt lat="44.20223714992009" lon="10.01693196274618"><ele>93.8</ele><time>2026-05-02T15:37:44Z</time></trkpt><trkpt lat="44.202339287189446" lon="10.016887194572703"><ele>92.6</ele><time>2026-05-02T15:37:45Z</time></trkpt><trkpt lat="44.20244027033116" lon="10.016845946244441"><ele>91.4</ele><time>2026-05-02T15:37:46Z</time></trkpt><trkpt lat="44.202541071648675" lon="10.016809112104049"><ele>90.2</ele><time>2026-05-02T15:37:47Z</time></trkpt><trkpt lat="44.20263914248098" lon="10.016773683547873"><ele>89.0</ele><time>2026-05-02T15:37:48Z</time></trkpt><trkpt lat="44.20273692432624" lon="10.016738343825839"><ele>89.0</ele><time>2026-05-02T15:37:49Z</time></trkpt><trkpt lat="44.202833408411585" lon="10.016696075781852"><ele>89.0</ele><time>2026-05-02T15:37:50Z</time></trkpt><trkpt lat="44.20292751855521" lon="10.016651870863548"><ele>89.0</ele><time>2026-05-02T15:37:51Z</time></trkpt><trkpt lat="44.2030204212391" lon="10.01661308289656"><ele>89.0</ele><time>2026-05-02T15:37:52Z</time></trkpt><trkpt lat="44.20310983656665" lon="10.016573348694775"><ele>89.0</ele><time>2026-05-02T15:37:53Z</time></trkpt><trkpt lat="44.20319453458501" lon="10.016531423159723"><ele>88.66666666666667</ele><time>2026-05-02T15:37:54Z</time></trkpt><trkpt lat="44.20328076170191" lon="10.016518565105027"><ele>88.33333333333334</ele><time>2026-05-02T15:37:55Z</time></trkpt><trkpt lat="44.20335574338253" lon="10.016487185699514"><ele>88.0</ele><time>2026-05-02T15:37:56Z</time></trkpt><trkpt lat="44.20342977687591" lon="10.016456203118569"><ele>87.66666666666667</ele><time>2026-05-02T15:37:57Z</time></trkpt><trkpt lat="44.20349969445775" lon="10.016403592706222"><ele>87.33333333333333</ele><time>2026-05-02T15:37:58Z</time></trkpt><trkpt lat="44.20357095677786" lon="10.016376708877686"><ele>87.0</ele><time>2026-05-02T15:37:59Z</time></trkpt><trkpt lat="44.203637763830194" lon="10.01635183910295"><ele>87.0</ele><time>2026-05-02T15:38:00Z</time></trkpt><trkpt lat="44.203699375938584" lon="10.016326855255652"><ele>87.0</ele><time>2026-05-02T15:38:01Z</time></trkpt><trkpt lat="44.20381045986008" lon="10.01627838334358"><ele>87.0</ele><time>2026-05-02T15:38:03Z</time></trkpt><trkpt lat="44.20390209280657" lon="10.016241983133138"><ele>87.0</ele><time>2026-05-02T15:38:05Z</time></trkpt><trkpt lat="44.203969625478244" lon="10.016216287382774"><ele>87.0</ele><time>2026-05-02T15:38:09Z</time></trkpt><trkpt lat="44.204056636040605" lon="10.016192236752756"><ele>87.0</ele><time>2026-05-02T15:38:16Z</time></trkpt><trkpt lat="44.20416395851477" lon="10.016143367684759"><ele>86.6</ele><time>2026-05-02T15:38:18Z</time></trkpt><trkpt lat="44.204277802004526" lon="10.016094564275996"><ele>86.19999999999999</ele><time>2026-05-02T15:38:20Z</time></trkpt><trkpt lat="44.2043978428893" lon="10.016045970840443"><ele>85.8</ele><time>2026-05-02T15:38:22Z</time></trkpt><trkpt lat="44.20446033694492" lon="10.016018474309844"><ele>85.4</ele><time>2026-05-02T15:38:23Z</time></trkpt><trkpt lat="44.2045247915537" lon="10.015989625792757"><ele>85.0</ele><time>2026-05-02T15:38:23.999Z</time></trkpt><trkpt lat="44.20459598064686" lon="10.01595784645014"><ele>85.0</ele><time>2026-05-02T15:38:24.999Z</time></trkpt><trkpt lat="44.20467133444438" lon="10.015929747653917"><ele>85.0</ele><time>2026-05-02T15:38:25.999Z</time></trkpt><trkpt lat="44.20476745488575" lon="10.015897283914478"><ele>85.0</ele><time>2026-05-02T15:38:27.999Z</time></trkpt><trkpt lat="44.20485833727354" lon="10.015852553844576"><ele>85.0</ele><time>2026-05-02T15:38:29.999Z</time></trkpt><trkpt lat="44.204920134313284" lon="10.015827336265122"><ele>85.0</ele><time>2026-05-02T15:38:30.999Z</time></trkpt><trkpt lat="44.20499411830435" lon="10.015802610735095"><ele>85.0</ele><time>2026-05-02T15:38:31.999Z</time></trkpt><trkpt lat="44.2050793194817" lon="10.01577130912076"><ele>84.6</ele><time>2026-05-02T15:38:32.999Z</time></trkpt><trkpt lat="44.20516872428568" lon="10.015731089091396"><ele>84.2</ele><time>2026-05-02T15:38:33.999Z</time></trkpt><trkpt lat="44.20526438724355" lon="10.015682470078634"><ele>83.80000000000001</ele><time>2026-05-02T15:38:34.999Z</time></trkpt><trkpt lat="44.205367473769954" lon="10.015631305664407"><ele>83.4</ele><time>2026-05-02T15:38:35.999Z</time></trkpt><trkpt lat="44.2054738507814" lon="10.015573447978035"><ele>83.0</ele><time>2026-05-02T15:38:36.999Z</time></trkpt><trkpt lat="44.20557923159222" lon="10.015502078592478"><ele>82.75</ele><time>2026-05-02T15:38:37.999Z</time></trkpt><trkpt lat="44.2056833285153" lon="10.015417826359213"><ele>82.5</ele><time>2026-05-02T15:38:38.999Z</time></trkpt><trkpt lat="44.20578332912746" lon="10.015318496760583"><ele>82.25</ele><time>2026-05-02T15:38:39.999Z</time></trkpt><trkpt lat="44.20587616012" lon="10.015206130657992"><ele>82.0</ele><time>2026-05-02T15:38:40.999Z</time></trkpt><trkpt lat="44.20596136327481" lon="10.01508212688661"><ele>82.0</ele><time>2026-05-02T15:38:41.999Z</time></trkpt><trkpt lat="44.206037022738464" lon="10.014945526861757"><ele>82.0</ele><time>2026-05-02T15:38:42.999Z</time></trkpt><trkpt lat="44.20610260613185" lon="10.014795140028628"><ele>82.0</ele><time>2026-05-02T15:38:43.999Z</time></trkpt><trkpt lat="44.20616133757952" lon="10.014638386652525"><ele>82.0</ele><time>2026-05-02T15:38:44.999Z</time></trkpt><trkpt lat="44.20621118496056" lon="10.014476761551304"><ele>82.0</ele><time>2026-05-02T15:38:45.999Z</time></trkpt><trkpt lat="44.206247335294414" lon="10.014309577477379"><ele>82.0</ele><time>2026-05-02T15:38:46.999Z</time></trkpt><trkpt lat="44.2062726909068" lon="10.014136730993677"><ele>82.0</ele><time>2026-05-02T15:38:47.999Z</time></trkpt><trkpt lat="44.20629008902061" lon="10.01396116390968"><ele>82.0</ele><time>2026-05-02T15:38:48.999Z</time></trkpt><trkpt lat="44.20629732533111" lon="10.013784217834731"><ele>81.75</ele><time>2026-05-02T15:38:49.999Z</time></trkpt><trkpt lat="44.206291716088884" lon="10.013609629276033"><ele>81.5</ele><time>2026-05-02T15:38:50.999Z</time></trkpt><trkpt lat="44.20627803980033" lon="10.013433612914497"><ele>81.25</ele><time>2026-05-02T15:38:51.999Z</time></trkpt><trkpt lat="44.2062652713997" lon="10.013257916767456"><ele>81.0</ele><time>2026-05-02T15:38:52.999Z</time></trkpt><trkpt lat="44.20625552299851" lon="10.013080237714766"><ele>81.0</ele><time>2026-05-02T15:38:53.999Z</time></trkpt><trkpt lat="44.20624716861362" lon="10.012904864142788"><ele>81.0</ele><time>2026-05-02T15:38:54.999Z</time></trkpt><trkpt lat="44.206239437805344" lon="10.012735514083161"><ele>81.0</ele><time>2026-05-02T15:38:55.999Z</time></trkpt><trkpt lat="44.2062432313583" lon="10.012569757798174"><ele>81.0</ele><time>2026-05-02T15:38:56.999Z</time></trkpt><trkpt lat="44.206266716179464" lon="10.012409608340674"><ele>81.25</ele><time>2026-05-02T15:38:57.999Z</time></trkpt><trkpt lat="44.20631185665174" lon="10.012254821016842"><ele>81.5</ele><time>2026-05-02T15:38:58.999Z</time></trkpt><trkpt lat="44.20635712844686" lon="10.012101329498645"><ele>81.75</ele><time>2026-05-02T15:38:59.999Z</time></trkpt><trkpt lat="44.206396970255035" lon="10.011944996871517"><ele>82.0</ele><time>2026-05-02T15:39:00.999Z</time></trkpt><trkpt lat="44.20642195119228" lon="10.011777594374468"><ele>82.0</ele><time>2026-05-02T15:39:01.999Z</time></trkpt><trkpt lat="44.20644711926206" lon="10.0116011896104"><ele>82.0</ele><time>2026-05-02T15:39:02.999Z</time></trkpt><trkpt lat="44.206471507179344" lon="10.011420237125161"><ele>82.0</ele><time>2026-05-02T15:39:03.999Z</time></trkpt><trkpt lat="44.20649114078321" lon="10.01123555099011"><ele>82.0</ele><time>2026-05-02T15:39:04.999Z</time></trkpt><trkpt lat="44.20649926892512" lon="10.01105108685775"><ele>82.0</ele><time>2026-05-02T15:39:05.999Z</time></trkpt><trkpt lat="44.20649122635421" lon="10.010865334571074"><ele>82.0</ele><time>2026-05-02T15:39:06.999Z</time></trkpt><trkpt lat="44.20647037615041" lon="10.010681452883372"><ele>82.0</ele><time>2026-05-02T15:39:07.999Z</time></trkpt><trkpt lat="44.20644617666344" lon="10.010497729191707"><ele>82.0</ele><time>2026-05-02T15:39:08.999Z</time></trkpt><trkpt lat="44.20642041826949" lon="10.010311962870102"><ele>81.75</ele><time>2026-05-02T15:39:09.999Z</time></trkpt><trkpt lat="44.2063946539702" lon="10.01012240114738"><ele>81.5</ele><time>2026-05-02T15:39:10.999Z</time></trkpt><trkpt lat="44.20636852028841" lon="10.009930228023943"><ele>81.25</ele><time>2026-05-02T15:39:11.999Z</time></trkpt><trkpt lat="44.20634217796177" lon="10.009737934471211"><ele>81.0</ele><time>2026-05-02T15:39:12.999Z</time></trkpt><trkpt lat="44.20631581362648" lon="10.009546894391692"><ele>80.75</ele><time>2026-05-02T15:39:13.999Z</time></trkpt><trkpt lat="44.20629016130151" lon="10.009357417384239"><ele>80.5</ele><time>2026-05-02T15:39:14.999Z</time></trkpt><trkpt lat="44.20626326824158" lon="10.009169650395071"><ele>80.25</ele><time>2026-05-02T15:39:15.999Z</time></trkpt><trkpt lat="44.20623624761627" lon="10.008981684900458"><ele>80.0</ele><time>2026-05-02T15:39:16.998Z</time></trkpt><trkpt lat="44.20620966827827" lon="10.008793743255106"><ele>80.0</ele><time>2026-05-02T15:39:17.998Z</time></trkpt><trkpt lat="44.20618497224637" lon="10.00860561454043"><ele>80.0</ele><time>2026-05-02T15:39:18.998Z</time></trkpt><trkpt lat="44.20616099048081" lon="10.00841895897182"><ele>80.0</ele><time>2026-05-02T15:39:19.998Z</time></trkpt><trkpt lat="44.20613682354261" lon="10.00823191049983"><ele>80.0</ele><time>2026-05-02T15:39:20.998Z</time></trkpt><trkpt lat="44.20611137471735" lon="10.008044999984499"><ele>80.0</ele><time>2026-05-02T15:39:21.998Z</time></trkpt><trkpt lat="44.20608503678308" lon="10.007861063344137"><ele>80.0</ele><time>2026-05-02T15:39:22.998Z</time></trkpt><trkpt lat="44.20606261209395" lon="10.007679273435583"><ele>80.0</ele><time>2026-05-02T15:39:23.998Z</time></trkpt><trkpt lat="44.20604170335712" lon="10.007495136599983"><ele>80.0</ele><time>2026-05-02T15:39:24.998Z</time></trkpt><trkpt lat="44.20602434379509" lon="10.007308543390732"><ele>80.0</ele><time>2026-05-02T15:39:25.998Z</time></trkpt><trkpt lat="44.20600613973402" lon="10.007122806063844"><ele>80.0</ele><time>2026-05-02T15:39:26.998Z</time></trkpt><trkpt lat="44.20598375232218" lon="10.006939285456397"><ele>80.0</ele><time>2026-05-02T15:39:27.998Z</time></trkpt><trkpt lat="44.20595856896499" lon="10.00675535899148"><ele>80.0</ele><time>2026-05-02T15:39:28.998Z</time></trkpt><trkpt lat="44.20593182280467" lon="10.006572664172102"><ele>80.0</ele><time>2026-05-02T15:39:29.998Z</time></trkpt><trkpt lat="44.20590472473289" lon="10.006388622779793"><ele>80.0</ele><time>2026-05-02T15:39:30.998Z</time></trkpt><trkpt lat="44.205877103680784" lon="10.006204992798272"><ele>80.0</ele><time>2026-05-02T15:39:31.998Z</time></trkpt><trkpt lat="44.20585185975604" lon="10.006021727339306"><ele>80.0</ele><time>2026-05-02T15:39:32.998Z</time></trkpt><trkpt lat="44.20582725682625" lon="10.005841214578956"><ele>79.75</ele><time>2026-05-02T15:39:33.998Z</time></trkpt><trkpt lat="44.205804641946756" lon="10.005665861057953"><ele>79.5</ele><time>2026-05-02T15:39:34.998Z</time></trkpt><trkpt lat="44.20578321394361" lon="10.005491883177124"><ele>79.25</ele><time>2026-05-02T15:39:35.998Z</time></trkpt><trkpt lat="44.20576172136366" lon="10.005321866980067"><ele>79.0</ele><time>2026-05-02T15:39:36.998Z</time></trkpt><trkpt lat="44.20574080694385" lon="10.005157517104298"><ele>79.0</ele><time>2026-05-02T15:39:37.998Z</time></trkpt><trkpt lat="44.205720402792196" lon="10.005003570009906"><ele>79.0</ele><time>2026-05-02T15:39:38.998Z</time></trkpt><trkpt lat="44.205692635949156" lon="10.00485940773981"><ele>79.0</ele><time>2026-05-02T15:39:39.998Z</time></trkpt><trkpt lat="44.20563880812868" lon="10.004731967146139"><ele>79.0</ele><time>2026-05-02T15:39:41.001Z</time></trkpt><trkpt lat="44.20556353959735" lon="10.004640107764907"><ele>79.0</ele><time>2026-05-02T15:39:42.001Z</time></trkpt><trkpt lat="44.205481565109245" lon="10.004564676817623"><ele>79.0</ele><time>2026-05-02T15:39:43.001Z</time></trkpt><trkpt lat="44.20540288232601" lon="10.004494891056357"><ele>79.0</ele><time>2026-05-02T15:39:44.001Z</time></trkpt><trkpt lat="44.20533046505953" lon="10.004424354360879"><ele>79.0</ele><time>2026-05-02T15:39:45.001Z</time></trkpt><trkpt lat="44.20526708934366" lon="10.00434938190523"><ele>79.0</ele><time>2026-05-02T15:39:46.001Z</time></trkpt><trkpt lat="44.20521811554192" lon="10.004269693598285"><ele>79.0</ele><time>2026-05-02T15:39:47.001Z</time></trkpt><trkpt lat="44.2051926912973" lon="10.004184999824577"><ele>79.0</ele><time>2026-05-02T15:39:48.001Z</time></trkpt><trkpt lat="44.20519623258175" lon="10.004079208136565"><ele>78.83333333333333</ele><time>2026-05-02T15:39:49.001Z</time></trkpt><trkpt lat="44.20520818366136" lon="10.003981972686807"><ele>78.66666666666666</ele><time>2026-05-02T15:39:50.001Z</time></trkpt><trkpt lat="44.205224589192184" lon="10.00389291812679"><ele>78.5</ele><time>2026-05-02T15:39:51.001Z</time></trkpt><trkpt lat="44.20524112993509" lon="10.003807262792554"><ele>78.33333333333333</ele><time>2026-05-02T15:39:52.001Z</time></trkpt><trkpt lat="44.20527009296813" lon="10.003632914972458"><ele>78.16666666666667</ele><time>2026-05-02T15:39:54Z</time></trkpt><trkpt lat="44.20528357329296" lon="10.003533288621353"><ele>78.0</ele><time>2026-05-02T15:39:55Z</time></trkpt><trkpt lat="44.20529631343906" lon="10.003430501948921"><ele>78.0</ele><time>2026-05-02T15:39:56Z</time></trkpt><trkpt lat="44.20531228838416" lon="10.003326012718894"><ele>78.0</ele><time>2026-05-02T15:39:57Z</time></trkpt><trkpt lat="44.205329906750954" lon="10.003221094458322"><ele>78.0</ele><time>2026-05-02T15:39:58Z</time></trkpt><trkpt lat="44.20534450796257" lon="10.003116978207691"><ele>78.0</ele><time>2026-05-02T15:39:59Z</time></trkpt><trkpt lat="44.20535308496266" lon="10.00301473244066"><ele>78.0</ele><time>2026-05-02T15:40:00Z</time></trkpt><trkpt lat="44.20535426147151" lon="10.002916630440158"><ele>78.0</ele><time>2026-05-02T15:40:01Z</time></trkpt><trkpt lat="44.20534401826165" lon="10.002819593821709"><ele>78.0</ele><time>2026-05-02T15:40:02Z</time></trkpt><trkpt lat="44.205320459427355" lon="10.00273231106161"><ele>78.0</ele><time>2026-05-02T15:40:03Z</time></trkpt><trkpt lat="44.2052846148696" lon="10.002655239495267"><ele>78.0</ele><time>2026-05-02T15:40:04Z</time></trkpt><trkpt lat="44.20524216795685" lon="10.002587643527294"><ele>78.0</ele><time>2026-05-02T15:40:05Z</time></trkpt><trkpt lat="44.2051395613612" lon="10.002478579125466"><ele>78.0</ele><time>2026-05-02T15:40:07Z</time></trkpt><trkpt lat="44.205080989289996" lon="10.002426655669552"><ele>78.0</ele><time>2026-05-02T15:40:08Z</time></trkpt><trkpt lat="44.205016765995694" lon="10.002374715347862"><ele>78.0</ele><time>2026-05-02T15:40:09Z</time></trkpt><trkpt lat="44.20495934303714" lon="10.002320435919923"><ele>77.83333333333333</ele><time>2026-05-02T15:40:10Z</time></trkpt><trkpt lat="44.204904528945754" lon="10.002272971308123"><ele>77.66666666666667</ele><time>2026-05-02T15:40:11Z</time></trkpt><trkpt lat="44.204851365333944" lon="10.002224819787518"><ele>77.5</ele><time>2026-05-02T15:40:12Z</time></trkpt><trkpt lat="44.20474722693544" lon="10.0021151677813"><ele>77.33333333333334</ele><time>2026-05-02T15:40:14Z</time></trkpt><trkpt lat="44.20470863642705" lon="10.00203283962078"><ele>77.16666666666667</ele><time>2026-05-02T15:40:15Z</time></trkpt><trkpt lat="44.204687377441786" lon="10.001938181097428"><ele>77.0</ele><time>2026-05-02T15:40:16Z</time></trkpt><trkpt lat="44.204673235072136" lon="10.001837989602103"><ele>77.0</ele><time>2026-05-02T15:40:17Z</time></trkpt><trkpt lat="44.20465913352986" lon="10.001736371678145"><ele>77.0</ele><time>2026-05-02T15:40:18Z</time></trkpt><trkpt lat="44.204644123762414" lon="10.001628798362445"><ele>77.0</ele><time>2026-05-02T15:40:19Z</time></trkpt><trkpt lat="44.2046256471306" lon="10.00152212944447"><ele>77.0</ele><time>2026-05-02T15:40:20Z</time></trkpt><trkpt lat="44.20460618479342" lon="10.001410682269684"><ele>77.0</ele><time>2026-05-02T15:40:21Z</time></trkpt><trkpt lat="44.20458629041053" lon="10.001296508050503"><ele>77.0</ele><time>2026-05-02T15:40:22Z</time></trkpt><trkpt lat="44.2045663903215" lon="10.001173638418932"><ele>77.0</ele><time>2026-05-02T15:40:23Z</time></trkpt><trkpt lat="44.20454541573925" lon="10.001050650411829"><ele>77.0</ele><time>2026-05-02T15:40:24Z</time></trkpt><trkpt lat="44.20452418270761" lon="10.000919357903172"><ele>77.0</ele><time>2026-05-02T15:40:25Z</time></trkpt><trkpt lat="44.20450378029265" lon="10.000778918747024"><ele>77.0</ele><time>2026-05-02T15:40:26Z</time></trkpt><trkpt lat="44.204480032825586" lon="10.000634448944457"><ele>77.0</ele><time>2026-05-02T15:40:27Z</time></trkpt><trkpt lat="44.20445543064109" lon="10.000484174782237"><ele>76.4</ele><time>2026-05-02T15:40:28Z</time></trkpt><trkpt lat="44.204432036697426" lon="10.000330032347632"><ele>75.80000000000001</ele><time>2026-05-02T15:40:29Z</time></trkpt><trkpt lat="44.20440832480771" lon="10.000177690935702"><ele>75.2</ele><time>2026-05-02T15:40:30Z</time></trkpt><trkpt lat="44.204387089197624" lon="10.000028243014377"><ele>74.60000000000001</ele><time>2026-05-02T15:40:31Z</time></trkpt><trkpt lat="44.20436399183521" lon="9.999883439056442"><ele>74.0</ele><time>2026-05-02T15:40:32Z</time></trkpt><trkpt lat="44.20434032292558" lon="9.999738219545103"><ele>74.0</ele><time>2026-05-02T15:40:32.999Z</time></trkpt><trkpt lat="44.20431997385061" lon="9.999604464684266"><ele>74.0</ele><time>2026-05-02T15:40:33.999Z</time></trkpt><trkpt lat="44.20430100406738" lon="9.999486086241504"><ele>74.0</ele><time>2026-05-02T15:40:34.999Z</time></trkpt><trkpt lat="44.204280996637046" lon="9.999372957517105"><ele>74.0</ele><time>2026-05-02T15:40:35.999Z</time></trkpt><trkpt lat="44.20426036610865" lon="9.999255814893088"><ele>74.0</ele><time>2026-05-02T15:40:36.999Z</time></trkpt><trkpt lat="44.204239881368395" lon="9.999133566477882"><ele>74.0</ele><time>2026-05-02T15:40:37.999Z</time></trkpt><trkpt lat="44.204221069367904" lon="9.999003491406247"><ele>73.8</ele><time>2026-05-02T15:40:38.999Z</time></trkpt><trkpt lat="44.204201067561726" lon="9.998868732305835"><ele>73.60000000000001</ele><time>2026-05-02T15:40:39.999Z</time></trkpt><trkpt lat="44.20417797319214" lon="9.99873095603837"><ele>73.4</ele><time>2026-05-02T15:40:40.999Z</time></trkpt><trkpt lat="44.204151417712076" lon="9.99858540577123"><ele>73.2</ele><time>2026-05-02T15:40:41.999Z</time></trkpt><trkpt lat="44.20412187065626" lon="9.99843526670203"><ele>73.0</ele><time>2026-05-02T15:40:42.999Z</time></trkpt><trkpt lat="44.2040863943319" lon="9.99828116564674"><ele>73.0</ele><time>2026-05-02T15:40:43.999Z</time></trkpt><trkpt lat="44.2040432298404" lon="9.998124500169364"><ele>73.0</ele><time>2026-05-02T15:40:44.999Z</time></trkpt><trkpt lat="44.203987410901185" lon="9.997965433619374"><ele>73.0</ele><time>2026-05-02T15:40:45.999Z</time></trkpt><trkpt lat="44.20392395482019" lon="9.997804155508222"><ele>73.0</ele><time>2026-05-02T15:40:46.999Z</time></trkpt><trkpt lat="44.20385860622325" lon="9.997636810346973"><ele>72.75</ele><time>2026-05-02T15:40:47.999Z</time></trkpt><trkpt lat="44.20379104560509" lon="9.997467330584714"><ele>72.5</ele><time>2026-05-02T15:40:48.999Z</time></trkpt><trkpt lat="44.20372282732779" lon="9.99729363625806"><ele>72.25</ele><time>2026-05-02T15:40:49.999Z</time></trkpt><trkpt lat="44.20365184493764" lon="9.997111535173222"><ele>72.0</ele><time>2026-05-02T15:40:50.999Z</time></trkpt><trkpt lat="44.203577784905946" lon="9.996923930750393"><ele>72.0</ele><time>2026-05-02T15:40:51.999Z</time></trkpt><trkpt lat="44.20350273986097" lon="9.996736695370034"><ele>72.0</ele><time>2026-05-02T15:40:52.999Z</time></trkpt><trkpt lat="44.20342951307115" lon="9.996548486641304"><ele>72.0</ele><time>2026-05-02T15:40:53.999Z</time></trkpt><trkpt lat="44.203357053393795" lon="9.996361684463437"><ele>72.0</ele><time>2026-05-02T15:40:54.999Z</time></trkpt><trkpt lat="44.20328452371713" lon="9.996175338711877"><ele>72.0</ele><time>2026-05-02T15:40:55.999Z</time></trkpt><trkpt lat="44.20321161742415" lon="9.995992767528831"><ele>72.0</ele><time>2026-05-02T15:40:56.999Z</time></trkpt><trkpt lat="44.20314062102505" lon="9.995814696255518"><ele>72.0</ele><time>2026-05-02T15:40:57.999Z</time></trkpt><trkpt lat="44.20306922626386" lon="9.995636561637653"><ele>72.25</ele><time>2026-05-02T15:40:58.999Z</time></trkpt><trkpt lat="44.202998562985705" lon="9.995457455777897"><ele>72.5</ele><time>2026-05-02T15:40:59.999Z</time></trkpt><trkpt lat="44.202927148815554" lon="9.995279977325852"><ele>72.75</ele><time>2026-05-02T15:41:00.999Z</time></trkpt><trkpt lat="44.20285729153478" lon="9.995103563562"><ele>73.0</ele><time>2026-05-02T15:41:01.999Z</time></trkpt><trkpt lat="44.2027915293064" lon="9.994934105498546"><ele>72.5</ele><time>2026-05-02T15:41:02.999Z</time></trkpt><trkpt lat="44.20273107228344" lon="9.994777498607016"><ele>72.0</ele><time>2026-05-02T15:41:03.999Z</time></trkpt><trkpt lat="44.2026720350147" lon="9.994622627320533"><ele>71.5</ele><time>2026-05-02T15:41:04.999Z</time></trkpt><trkpt lat="44.202610886468754" lon="9.994467775137071"><ele>71.0</ele><time>2026-05-02T15:41:05.999Z</time></trkpt><trkpt lat="44.202548799237555" lon="9.994312932424748"><ele>70.5</ele><time>2026-05-02T15:41:06.999Z</time></trkpt><trkpt lat="44.202488325270494" lon="9.99415718557344"><ele>70.0</ele><time>2026-05-02T15:41:07.999Z</time></trkpt><trkpt lat="44.20243234249344" lon="9.99399710592183"><ele>69.5</ele><time>2026-05-02T15:41:08.999Z</time></trkpt><trkpt lat="44.202384871142065" lon="9.993831289920768"><ele>69.0</ele><time>2026-05-02T15:41:09.999Z</time></trkpt><trkpt lat="44.202349751091745" lon="9.993660519054465"><ele>69.0</ele><time>2026-05-02T15:41:10.999Z</time></trkpt><trkpt lat="44.202332229202575" lon="9.993485583314149"><ele>69.0</ele><time>2026-05-02T15:41:11.999Z</time></trkpt><trkpt lat="44.202331531377396" lon="9.993310899636274"><ele>69.0</ele><time>2026-05-02T15:41:12.999Z</time></trkpt><trkpt lat="44.20234146779358" lon="9.993135938918984"><ele>69.0</ele><time>2026-05-02T15:41:13.999Z</time></trkpt><trkpt lat="44.202356889454855" lon="9.992962907888339"><ele>69.0</ele><time>2026-05-02T15:41:14.999Z</time></trkpt><trkpt lat="44.20237635301455" lon="9.992791136098"><ele>69.0</ele><time>2026-05-02T15:41:15.999Z</time></trkpt><trkpt lat="44.202394872502936" lon="9.992617644888657"><ele>69.0</ele><time>2026-05-02T15:41:16.999Z</time></trkpt><trkpt lat="44.202411149108826" lon="9.992448637572457"><ele>69.0</ele><time>2026-05-02T15:41:17.999Z</time></trkpt><trkpt lat="44.20242809990468" lon="9.992289651436655"><ele>68.8</ele><time>2026-05-02T15:41:18.999Z</time></trkpt><trkpt lat="44.202444808937564" lon="9.992131637693044"><ele>68.60000000000001</ele><time>2026-05-02T15:41:19.999Z</time></trkpt><trkpt lat="44.20246362079043" lon="9.991979633121652"><ele>68.4</ele><time>2026-05-02T15:41:20.998Z</time></trkpt><trkpt lat="44.20248181687143" lon="9.99183211672759"><ele>68.2</ele><time>2026-05-02T15:41:21.998Z</time></trkpt><trkpt lat="44.20249796945116" lon="9.991689928670962"><ele>68.0</ele><time>2026-05-02T15:41:22.998Z</time></trkpt><trkpt lat="44.202513577538326" lon="9.991552374401328"><ele>67.6</ele><time>2026-05-02T15:41:23.998Z</time></trkpt><trkpt lat="44.20253129135533" lon="9.991414870867008"><ele>67.19999999999999</ele><time>2026-05-02T15:41:24.998Z</time></trkpt><trkpt lat="44.20254502024007" lon="9.991276635745228"><ele>66.8</ele><time>2026-05-02T15:41:25.998Z</time></trkpt><trkpt lat="44.20255062992325" lon="9.991142330566438"><ele>66.39999999999999</ele><time>2026-05-02T15:41:26.998Z</time></trkpt><trkpt lat="44.202533216888696" lon="9.991015639549321"><ele>66.0</ele><time>2026-05-02T15:41:27.998Z</time></trkpt><trkpt lat="44.202494319357335" lon="9.990901266462213"><ele>65.8</ele><time>2026-05-02T15:41:28.998Z</time></trkpt><trkpt lat="44.202435982995276" lon="9.990801313891563"><ele>65.6</ele><time>2026-05-02T15:41:29.998Z</time></trkpt><trkpt lat="44.20235275570194" lon="9.990716839499955"><ele>65.4</ele><time>2026-05-02T15:41:30.998Z</time></trkpt><trkpt lat="44.20226513281031" lon="9.990634397143458"><ele>65.2</ele><time>2026-05-02T15:41:31.998Z</time></trkpt><trkpt lat="44.20217633217714" lon="9.990542630688147"><ele>65.0</ele><time>2026-05-02T15:41:32.998Z</time></trkpt><trkpt lat="44.20208606662135" lon="9.99044029054286"><ele>65.0</ele><time>2026-05-02T15:41:33.998Z</time></trkpt><trkpt lat="44.20199251045454" lon="9.99033137376074"><ele>65.0</ele><time>2026-05-02T15:41:34.998Z</time></trkpt><trkpt lat="44.20189780554057" lon="9.990216589506012"><ele>65.0</ele><time>2026-05-02T15:41:35.998Z</time></trkpt><trkpt lat="44.20180151705917" lon="9.990096573875231"><ele>65.0</ele><time>2026-05-02T15:41:36.998Z</time></trkpt><trkpt lat="44.20171188486864" lon="9.989982976527987"><ele>65.75</ele><time>2026-05-02T15:41:37.998Z</time></trkpt><trkpt lat="44.20163689522336" lon="9.989855483945034"><ele>66.5</ele><time>2026-05-02T15:41:38.998Z</time></trkpt><trkpt lat="44.2015812439668" lon="9.98970912400398"><ele>67.25</ele><time>2026-05-02T15:41:39.998Z</time></trkpt><trkpt lat="44.201539719604895" lon="9.989549424854843"><ele>68.0</ele><time>2026-05-02T15:41:40.998Z</time></trkpt><trkpt lat="44.20151026548489" lon="9.989384822297133"><ele>67.25</ele><time>2026-05-02T15:41:41.998Z</time></trkpt><trkpt lat="44.20148108900698" lon="9.989224550187476"><ele>66.5</ele><time>2026-05-02T15:41:42.998Z</time></trkpt><trkpt lat="44.2014498329899" lon="9.98906937791927"><ele>65.75</ele><time>2026-05-02T15:41:43.998Z</time></trkpt><trkpt lat="44.20141976151373" lon="9.988913471344766"><ele>65.0</ele><time>2026-05-02T15:41:44.998Z</time></trkpt><trkpt lat="44.201391456800536" lon="9.988757876932349"><ele>65.0</ele><time>2026-05-02T15:41:45.998Z</time></trkpt><trkpt lat="44.20136575470571" lon="9.988602974298827"><ele>65.0</ele><time>2026-05-02T15:41:47.001Z</time></trkpt><trkpt lat="44.20134435580349" lon="9.988449195875917"><ele>65.0</ele><time>2026-05-02T15:41:48.001Z</time></trkpt><trkpt lat="44.2013256310277" lon="9.988291044427193"><ele>65.0</ele><time>2026-05-02T15:41:49.001Z</time></trkpt><trkpt lat="44.20131016016876" lon="9.988126935573316"><ele>65.5</ele><time>2026-05-02T15:41:50.001Z</time></trkpt><trkpt lat="44.2013005554111" lon="9.987955287503667"><ele>66.0</ele><time>2026-05-02T15:41:51.001Z</time></trkpt><trkpt lat="44.201299075746306" lon="9.987779509885092"><ele>66.5</ele><time>2026-05-02T15:41:52.001Z</time></trkpt><trkpt lat="44.20131127914203" lon="9.987599407556237"><ele>67.0</ele><time>2026-05-02T15:41:53.001Z</time></trkpt><trkpt lat="44.20132897136917" lon="9.987421861369656"><ele>67.0</ele><time>2026-05-02T15:41:54.001Z</time></trkpt><trkpt lat="44.20133590623938" lon="9.987246259948378"><ele>67.0</ele><time>2026-05-02T15:41:55.001Z</time></trkpt><trkpt lat="44.20133272992655" lon="9.987078418323573"><ele>67.0</ele><time>2026-05-02T15:41:56.001Z</time></trkpt><trkpt lat="44.20132621585654" lon="9.986918408767965"><ele>67.0</ele><time>2026-05-02T15:41:57.001Z</time></trkpt><trkpt lat="44.20132109369535" lon="9.986757084318196"><ele>66.75</ele><time>2026-05-02T15:41:58.001Z</time></trkpt><trkpt lat="44.2013181766425" lon="9.986590704283174"><ele>66.5</ele><time>2026-05-02T15:41:59.001Z</time></trkpt><trkpt lat="44.201319540098325" lon="9.986430144612488"><ele>66.25</ele><time>2026-05-02T15:42:00.001Z</time></trkpt><trkpt lat="44.20132494311565" lon="9.986274459341269"><ele>66.0</ele><time>2026-05-02T15:42:01.001Z</time></trkpt><trkpt lat="44.20134428103928" lon="9.98612514194749"><ele>66.0</ele><time>2026-05-02T15:42:02Z</time></trkpt><trkpt lat="44.20136845240382" lon="9.985976827627557"><ele>66.0</ele><time>2026-05-02T15:42:03Z</time></trkpt><trkpt lat="44.20139025411415" lon="9.985827138821527"><ele>66.0</ele><time>2026-05-02T15:42:04Z</time></trkpt><trkpt lat="44.20140740269418" lon="9.985675089467396"><ele>66.0</ele><time>2026-05-02T15:42:05Z</time></trkpt><trkpt lat="44.20141368649237" lon="9.985519900578185"><ele>66.0</ele><time>2026-05-02T15:42:06Z</time></trkpt><trkpt lat="44.20139790533204" lon="9.985362841398633"><ele>66.0</ele><time>2026-05-02T15:42:07Z</time></trkpt><trkpt lat="44.20136353624923" lon="9.98520947503768"><ele>66.0</ele><time>2026-05-02T15:42:08Z</time></trkpt><trkpt lat="44.20132344348514" lon="9.985049690792735"><ele>66.0</ele><time>2026-05-02T15:42:09Z</time></trkpt><trkpt lat="44.20128764125499" lon="9.984886011081581"><ele>66.0</ele><time>2026-05-02T15:42:10Z</time></trkpt><trkpt lat="44.201249827815886" lon="9.98472148044376"><ele>66.0</ele><time>2026-05-02T15:42:11Z</time></trkpt><trkpt lat="44.20121185706796" lon="9.984560541898192"><ele>66.0</ele><time>2026-05-02T15:42:12Z</time></trkpt><trkpt lat="44.201173359992026" lon="9.98440288618486"><ele>66.0</ele><time>2026-05-02T15:42:13Z</time></trkpt><trkpt lat="44.201137872745115" lon="9.98425609972326"><ele>66.0</ele><time>2026-05-02T15:42:14Z</time></trkpt><trkpt lat="44.20110868601283" lon="9.984116842085779"><ele>66.0</ele><time>2026-05-02T15:42:15Z</time></trkpt><trkpt lat="44.201087632036405" lon="9.983971912025565"><ele>66.0</ele><time>2026-05-02T15:42:16Z</time></trkpt><trkpt lat="44.20107863978601" lon="9.983817704336616"><ele>66.0</ele><time>2026-05-02T15:42:17Z</time></trkpt><trkpt lat="44.20108736743955" lon="9.98366088324747"><ele>66.0</ele><time>2026-05-02T15:42:18Z</time></trkpt><trkpt lat="44.201114010070555" lon="9.98350696819127"><ele>66.0</ele><time>2026-05-02T15:42:19Z</time></trkpt><trkpt lat="44.20115585659511" lon="9.983362654856291"><ele>65.5</ele><time>2026-05-02T15:42:20Z</time></trkpt><trkpt lat="44.20121090050878" lon="9.983221322866537"><ele>65.0</ele><time>2026-05-02T15:42:21Z</time></trkpt><trkpt lat="44.20127460344479" lon="9.983085189230307"><ele>64.5</ele><time>2026-05-02T15:42:22Z</time></trkpt><trkpt lat="44.2013471329983" lon="9.982948568264868"><ele>64.0</ele><time>2026-05-02T15:42:23Z</time></trkpt><trkpt lat="44.201426528822886" lon="9.982808323077967"><ele>65.75</ele><time>2026-05-02T15:42:24Z</time></trkpt><trkpt lat="44.2015134272856" lon="9.98266617837845"><ele>67.5</ele><time>2026-05-02T15:42:25Z</time></trkpt><trkpt lat="44.20160472380811" lon="9.982530519496354"><ele>69.25</ele><time>2026-05-02T15:42:26Z</time></trkpt><trkpt lat="44.20169982565369" lon="9.982402412699743"><ele>71.0</ele><time>2026-05-02T15:42:27Z</time></trkpt><trkpt lat="44.20180027910132" lon="9.982289702510865"><ele>71.0</ele><time>2026-05-02T15:42:28Z</time></trkpt><trkpt lat="44.20190222425565" lon="9.982189101721058"><ele>71.0</ele><time>2026-05-02T15:42:29Z</time></trkpt><trkpt lat="44.202010716979686" lon="9.982107687347858"><ele>71.0</ele><time>2026-05-02T15:42:30Z</time></trkpt><trkpt lat="44.20212624954791" lon="9.98204660599303"><ele>71.0</ele><time>2026-05-02T15:42:31Z</time></trkpt><trkpt lat="44.20224297702201" lon="9.98198785199486"><ele>70.0</ele><time>2026-05-02T15:42:32Z</time></trkpt><trkpt lat="44.2023544173182" lon="9.981912938439086"><ele>69.0</ele><time>2026-05-02T15:42:33Z</time></trkpt><trkpt lat="44.2024562326215" lon="9.98182942929593"><ele>68.0</ele><time>2026-05-02T15:42:34Z</time></trkpt><trkpt lat="44.20254708583906" lon="9.981737040858617"><ele>67.0</ele><time>2026-05-02T15:42:35Z</time></trkpt><trkpt lat="44.20263112139321" lon="9.981638438210434"><ele>67.0</ele><time>2026-05-02T15:42:36Z</time></trkpt><trkpt lat="44.20271252384765" lon="9.981547313275065"><ele>67.0</ele><time>2026-05-02T15:42:37Z</time></trkpt><trkpt lat="44.20279854289238" lon="9.98147139179782"><ele>67.0</ele><time>2026-05-02T15:42:38Z</time></trkpt><trkpt lat="44.20289220446908" lon="9.981411568867255"><ele>67.0</ele><time>2026-05-02T15:42:39Z</time></trkpt><trkpt lat="44.20299640458111" lon="9.981362511054519"><ele>67.0</ele><time>2026-05-02T15:42:39.999Z</time></trkpt><trkpt lat="44.203110422316115" lon="9.98132869514291"><ele>69.25</ele><time>2026-05-02T15:42:40.999Z</time></trkpt><trkpt lat="44.20323071250998" lon="9.981306960922787"><ele>71.5</ele><time>2026-05-02T15:42:41.999Z</time></trkpt><trkpt lat="44.2033476458597" lon="9.981290135722427"><ele>73.75</ele><time>2026-05-02T15:42:42.999Z</time></trkpt><trkpt lat="44.20346098794544" lon="9.981271309431525"><ele>76.0</ele><time>2026-05-02T15:42:43.999Z</time></trkpt><trkpt lat="44.20357235127401" lon="9.981248605908196"><ele>76.0</ele><time>2026-05-02T15:42:44.999Z</time></trkpt><trkpt lat="44.20368084172758" lon="9.981212272445337"><ele>76.0</ele><time>2026-05-02T15:42:45.999Z</time></trkpt><trkpt lat="44.203786396305304" lon="9.981153416374761"><ele>76.0</ele><time>2026-05-02T15:42:46.999Z</time></trkpt><trkpt lat="44.20388466060094" lon="9.981071581526857"><ele>76.0</ele><time>2026-05-02T15:42:47.999Z</time></trkpt><trkpt lat="44.203978367326364" lon="9.980974075192318"><ele>76.2</ele><time>2026-05-02T15:42:48.999Z</time></trkpt><trkpt lat="44.20406679265709" lon="9.980878037491115"><ele>76.39999999999999</ele><time>2026-05-02T15:42:49.999Z</time></trkpt><trkpt lat="44.20415111448623" lon="9.980784221518402"><ele>76.6</ele><time>2026-05-02T15:42:50.999Z</time></trkpt><trkpt lat="44.20423582275171" lon="9.980698770701915"><ele>76.8</ele><time>2026-05-02T15:42:51.999Z</time></trkpt><trkpt lat="44.204320306105686" lon="9.980622395965328"><ele>77.0</ele><time>2026-05-02T15:42:52.999Z</time></trkpt><trkpt lat="44.2044091111752" lon="9.98056013771452"><ele>74.2</ele><time>2026-05-02T15:42:53.999Z</time></trkpt><trkpt lat="44.20450216773151" lon="9.980513799260102"><ele>71.4</ele><time>2026-05-02T15:42:54.999Z</time></trkpt><trkpt lat="44.20460133630575" lon="9.98047719886775"><ele>68.6</ele><time>2026-05-02T15:42:55.999Z</time></trkpt><trkpt lat="44.20470066114283" lon="9.980436775528187"><ele>65.8</ele><time>2026-05-02T15:42:56.999Z</time></trkpt><trkpt lat="44.20479803969609" lon="9.980384303546227"><ele>63.0</ele><time>2026-05-02T15:42:57.999Z</time></trkpt><trkpt lat="44.20489094050782" lon="9.980319819617264"><ele>63.0</ele><time>2026-05-02T15:42:58.999Z</time></trkpt><trkpt lat="44.20498153625278" lon="9.98025209594951"><ele>63.0</ele><time>2026-05-02T15:42:59.999Z</time></trkpt><trkpt lat="44.205075360333794" lon="9.980180277745399"><ele>63.0</ele><time>2026-05-02T15:43:00.999Z</time></trkpt><trkpt lat="44.20517042961753" lon="9.980109854104137"><ele>63.0</ele><time>2026-05-02T15:43:01.999Z</time></trkpt><trkpt lat="44.20526269690927" lon="9.980035860140726"><ele>63.0</ele><time>2026-05-02T15:43:02.999Z</time></trkpt><trkpt lat="44.20535111335972" lon="9.979964263630627"><ele>62.8</ele><time>2026-05-02T15:43:03.999Z</time></trkpt><trkpt lat="44.20544165437283" lon="9.979893910585659"><ele>62.599999999999994</ele><time>2026-05-02T15:43:04.999Z</time></trkpt><trkpt lat="44.20553036525582" lon="9.979824051388333"><ele>62.400000000000006</ele><time>2026-05-02T15:43:05.999Z</time></trkpt><trkpt lat="44.205619784982844" lon="9.979758880115646"><ele>62.2</ele><time>2026-05-02T15:43:06.999Z</time></trkpt><trkpt lat="44.205713447601916" lon="9.979700971974593"><ele>62.0</ele><time>2026-05-02T15:43:07.999Z</time></trkpt><trkpt lat="44.20580924559501" lon="9.979652827107737"><ele>62.0</ele><time>2026-05-02T15:43:08.999Z</time></trkpt><trkpt lat="44.20590796369812" lon="9.979617436903835"><ele>62.0</ele><time>2026-05-02T15:43:09.999Z</time></trkpt><trkpt lat="44.20600824515409" lon="9.979594531711303"><ele>62.0</ele><time>2026-05-02T15:43:10.999Z</time></trkpt><trkpt lat="44.20611192958478" lon="9.979575518737782"><ele>62.0</ele><time>2026-05-02T15:43:11.999Z</time></trkpt><trkpt lat="44.20621568457698" lon="9.979558865586801"><ele>62.0</ele><time>2026-05-02T15:43:12.999Z</time></trkpt><trkpt lat="44.206320239708916" lon="9.979549505957838"><ele>62.0</ele><time>2026-05-02T15:43:13.999Z</time></trkpt><trkpt lat="44.206422727362195" lon="9.979525754027138"><ele>62.0</ele><time>2026-05-02T15:43:14.999Z</time></trkpt><trkpt lat="44.20651589270552" lon="9.979477814920685"><ele>62.0</ele><time>2026-05-02T15:43:15.999Z</time></trkpt><trkpt lat="44.206590390647946" lon="9.979402013777245"><ele>62.0</ele><time>2026-05-02T15:43:16.999Z</time></trkpt><trkpt lat="44.20664938620352" lon="9.979306306667102"><ele>62.0</ele><time>2026-05-02T15:43:17.999Z</time></trkpt><trkpt lat="44.20668230685848" lon="9.979193919065672"><ele>62.00000000000001</ele><time>2026-05-02T15:43:18.999Z</time></trkpt><trkpt lat="44.2067119656221" lon="9.979086184435609"><ele>62.0</ele><time>2026-05-02T15:43:19.999Z</time></trkpt><trkpt lat="44.20674555944261" lon="9.978982023085848"><ele>62.0</ele><time>2026-05-02T15:43:20.999Z</time></trkpt><trkpt lat="44.20678245283746" lon="9.978882175432327"><ele>62.0</ele><time>2026-05-02T15:43:21.999Z</time></trkpt><trkpt lat="44.20682067461712" lon="9.978781915939418"><ele>62.00000000000001</ele><time>2026-05-02T15:43:22.999Z</time></trkpt><trkpt lat="44.20685819450421" lon="9.978675249770298"><ele>62.0</ele><time>2026-05-02T15:43:23.999Z</time></trkpt><trkpt lat="44.20689943524797" lon="9.978563718941277"><ele>62.0</ele><time>2026-05-02T15:43:24.999Z</time></trkpt><trkpt lat="44.20694850439843" lon="9.978451583139904"><ele>62.0</ele><time>2026-05-02T15:43:25.998Z</time></trkpt><trkpt lat="44.207003771538105" lon="9.978340244887734"><ele>62.0</ele><time>2026-05-02T15:43:26.998Z</time></trkpt><trkpt lat="44.20706452324912" lon="9.978228845697153"><ele>62.0</ele><time>2026-05-02T15:43:27.998Z</time></trkpt><trkpt lat="44.2071222495846" lon="9.978130222029995"><ele>62.0</ele><time>2026-05-02T15:43:28.998Z</time></trkpt><trkpt lat="44.20718379533657" lon="9.97803205991879"><ele>61.833333333333336</ele><time>2026-05-02T15:43:29.998Z</time></trkpt><trkpt lat="44.207238980802224" lon="9.97793607950321"><ele>61.66666666666667</ele><time>2026-05-02T15:43:30.998Z</time></trkpt><trkpt lat="44.20729349567585" lon="9.977844445661306"><ele>61.5</ele><time>2026-05-02T15:43:31.998Z</time></trkpt><trkpt lat="44.207349525059314" lon="9.977750809918689"><ele>61.33333333333333</ele><time>2026-05-02T15:43:32.998Z</time></trkpt><trkpt lat="44.207413217124646" lon="9.977664161061808"><ele>61.166666666666664</ele><time>2026-05-02T15:43:33.998Z</time></trkpt><trkpt lat="44.20748260818156" lon="9.977573301690294"><ele>61.0</ele><time>2026-05-02T15:43:34.998Z</time></trkpt><trkpt lat="44.207558961946454" lon="9.977492135959643"><ele>61.0</ele><time>2026-05-02T15:43:35.998Z</time></trkpt><trkpt lat="44.207643856479194" lon="9.977420181930329"><ele>60.99999999999999</ele><time>2026-05-02T15:43:36.998Z</time></trkpt><trkpt lat="44.20773239907957" lon="9.977364781519965"><ele>60.99999999999999</ele><time>2026-05-02T15:43:37.998Z</time></trkpt><trkpt lat="44.20781991471803" lon="9.977325409242972"><ele>61.0</ele><time>2026-05-02T15:43:38.998Z</time></trkpt><trkpt lat="44.20790052774208" lon="9.977286454822552"><ele>61.0</ele><time>2026-05-02T15:43:39.998Z</time></trkpt><trkpt lat="44.20797784758592" lon="9.977249271862032"><ele>60.99999999999999</ele><time>2026-05-02T15:43:40.998Z</time></trkpt><trkpt lat="44.20805013594496" lon="9.977210578798417"><ele>61.0</ele><time>2026-05-02T15:43:41.998Z</time></trkpt><trkpt lat="44.20811998607059" lon="9.977168980399309"><ele>61.0</ele><time>2026-05-02T15:43:42.998Z</time></trkpt><trkpt lat="44.2081896182977" lon="9.977129071177941"><ele>61.0</ele><time>2026-05-02T15:43:43.998Z</time></trkpt><trkpt lat="44.20826056787385" lon="9.97708553168087"><ele>60.99999999999999</ele><time>2026-05-02T15:43:44.998Z</time></trkpt><trkpt lat="44.208330139835475" lon="9.977032198474603"><ele>61.0</ele><time>2026-05-02T15:43:45.998Z</time></trkpt><trkpt lat="44.20839321349615" lon="9.976975712034461"><ele>61.4</ele><time>2026-05-02T15:43:46.998Z</time></trkpt><trkpt lat="44.20844675250935" lon="9.976922464938692"><ele>61.8</ele><time>2026-05-02T15:43:47.998Z</time></trkpt><trkpt lat="44.208538235143486" lon="9.976812061431348"><ele>62.199999999999996</ele><time>2026-05-02T15:43:49.998Z</time></trkpt><trkpt lat="44.20855231156236" lon="9.976644876778733"><ele>62.599999999999994</ele><time>2026-05-02T15:43:51.998Z</time></trkpt><trkpt lat="44.20851185440366" lon="9.97655473570235"><ele>63.0</ele><time>2026-05-02T15:43:53.001Z</time></trkpt><trkpt lat="44.20846759406016" lon="9.976456773192785"><ele>63.0</ele><time>2026-05-02T15:43:54.001Z</time></trkpt><trkpt lat="44.20843932118412" lon="9.976339323125783"><ele>63.0</ele><time>2026-05-02T15:43:55.001Z</time></trkpt><trkpt lat="44.208430850916685" lon="9.976233287972764"><ele>63.0</ele><time>2026-05-02T15:43:56.001Z</time></trkpt><trkpt lat="44.20843498418317" lon="9.976130790603195"><ele>63.0</ele><time>2026-05-02T15:43:57.001Z</time></trkpt><trkpt lat="44.208451943134754" lon="9.976032750804434"><ele>63.0</ele><time>2026-05-02T15:43:58.001Z</time></trkpt><trkpt lat="44.20847444161093" lon="9.975925659029246"><ele>63.0</ele><time>2026-05-02T15:43:59.001Z</time></trkpt><trkpt lat="44.20849697906214" lon="9.97581178947361"><ele>62.8</ele><time>2026-05-02T15:44:00.001Z</time></trkpt><trkpt lat="44.20851793667562" lon="9.975692230957"><ele>62.599999999999994</ele><time>2026-05-02T15:44:01.001Z</time></trkpt><trkpt lat="44.2085370529483" lon="9.975568151320624"><ele>62.400000000000006</ele><time>2026-05-02T15:44:02.001Z</time></trkpt><trkpt lat="44.20855441979405" lon="9.97544258639116"><ele>62.2</ele><time>2026-05-02T15:44:03.001Z</time></trkpt><trkpt lat="44.2085694840077" lon="9.97531257432047"><ele>62.0</ele><time>2026-05-02T15:44:04Z</time></trkpt><trkpt lat="44.20858656757064" lon="9.97518146462497"><ele>62.0</ele><time>2026-05-02T15:44:05Z</time></trkpt><trkpt lat="44.20858811684146" lon="9.975048322160603"><ele>62.0</ele><time>2026-05-02T15:44:06.001Z</time></trkpt><trkpt lat="44.20855400757338" lon="9.974919046442908"><ele>62.0</ele><time>2026-05-02T15:44:07Z</time></trkpt><trkpt lat="44.20849877635517" lon="9.97480266755734"><ele>62.0</ele><time>2026-05-02T15:44:08Z</time></trkpt><trkpt lat="44.2084404816085" lon="9.974688550519401"><ele>62.0</ele><time>2026-05-02T15:44:09Z</time></trkpt><trkpt lat="44.20838029629645" lon="9.974577806791272"><ele>62.6</ele><time>2026-05-02T15:44:10Z</time></trkpt><trkpt lat="44.20831746431402" lon="9.974471604926528"><ele>63.2</ele><time>2026-05-02T15:44:11Z</time></trkpt><trkpt lat="44.2082521437475" lon="9.974372436242444"><ele>63.8</ele><time>2026-05-02T15:44:12Z</time></trkpt><trkpt lat="44.208184138750845" lon="9.974286517538717"><ele>64.4</ele><time>2026-05-02T15:44:13Z</time></trkpt><trkpt lat="44.20811766292139" lon="9.974213000722191"><ele>65.0</ele><time>2026-05-02T15:44:14Z</time></trkpt><trkpt lat="44.208055025969934" lon="9.974141908983437"><ele>63.833333333333336</ele><time>2026-05-02T15:44:15Z</time></trkpt><trkpt lat="44.20799864835219" lon="9.974065882571551"><ele>62.66666666666667</ele><time>2026-05-02T15:44:16Z</time></trkpt><trkpt lat="44.20794678902081" lon="9.973984901837225"><ele>61.5</ele><time>2026-05-02T15:44:17Z</time></trkpt><trkpt lat="44.20790522833635" lon="9.973900281354057"><ele>60.33333333333333</ele><time>2026-05-02T15:44:18Z</time></trkpt><trkpt lat="44.20786232734677" lon="9.973814206554646"><ele>59.166666666666664</ele><time>2026-05-02T15:44:19Z</time></trkpt><trkpt lat="44.20781738955669" lon="9.973725942078346"><ele>58.0</ele><time>2026-05-02T15:44:20Z</time></trkpt><trkpt lat="44.207771062366085" lon="9.973636206910726"><ele>57.99999999999999</ele><time>2026-05-02T15:44:21Z</time></trkpt><trkpt lat="44.20772750485579" lon="9.973543449798836"><ele>58.0</ele><time>2026-05-02T15:44:22Z</time></trkpt><trkpt lat="44.20769659078573" lon="9.973443766885623"><ele>58.0</ele><time>2026-05-02T15:44:23Z</time></trkpt><trkpt lat="44.207685767000484" lon="9.97334127530115"><ele>58.0</ele><time>2026-05-02T15:44:24Z</time></trkpt><trkpt lat="44.20768775042023" lon="9.973239734576088"><ele>57.99999999999999</ele><time>2026-05-02T15:44:25Z</time></trkpt><trkpt lat="44.207681130211824" lon="9.97313450865499"><ele>58.0</ele><time>2026-05-02T15:44:26Z</time></trkpt><trkpt lat="44.20765878238689" lon="9.973032638617795"><ele>59.33333333333333</ele><time>2026-05-02T15:44:27Z</time></trkpt><trkpt lat="44.20763484146378" lon="9.97293207588732"><ele>60.666666666666664</ele><time>2026-05-02T15:44:28Z</time></trkpt><trkpt lat="44.207614586305276" lon="9.9728284398724"><ele>62.0</ele><time>2026-05-02T15:44:29Z</time></trkpt><trkpt lat="44.20759826181161" lon="9.97272039300769"><ele>63.33333333333333</ele><time>2026-05-02T15:44:30Z</time></trkpt><trkpt lat="44.207590027864626" lon="9.972609539336835"><ele>64.66666666666667</ele><time>2026-05-02T15:44:31Z</time></trkpt><trkpt lat="44.20759038663633" lon="9.97250293961503"><ele>66.0</ele><time>2026-05-02T15:44:32Z</time></trkpt><trkpt lat="44.20759858719867" lon="9.972395122320197"><ele>66.28571428571428</ele><time>2026-05-02T15:44:33Z</time></trkpt><trkpt lat="44.20761268805308" lon="9.972286765887803"><ele>66.57142857142857</ele><time>2026-05-02T15:44:34Z</time></trkpt><trkpt lat="44.20763347405126" lon="9.972181938681796"><ele>66.85714285714286</ele><time>2026-05-02T15:44:35Z</time></trkpt><trkpt lat="44.207661979657544" lon="9.972086097468404"><ele>67.14285714285714</ele><time>2026-05-02T15:44:36Z</time></trkpt><trkpt lat="44.20769145164045" lon="9.97199174563166"><ele>67.42857142857143</ele><time>2026-05-02T15:44:37Z</time></trkpt><trkpt lat="44.20772226739593" lon="9.97190250343925"><ele>67.71428571428571</ele><time>2026-05-02T15:44:38Z</time></trkpt><trkpt lat="44.207747217708175" lon="9.971815675284192"><ele>68.0</ele><time>2026-05-02T15:44:39Z</time></trkpt><trkpt lat="44.20777128387427" lon="9.971730634748527"><ele>67.16666666666667</ele><time>2026-05-02T15:44:40Z</time></trkpt><trkpt lat="44.207794387515634" lon="9.971645491198988"><ele>66.33333333333334</ele><time>2026-05-02T15:44:41Z</time></trkpt><trkpt lat="44.207846561803315" lon="9.971497284449995"><ele>65.5</ele><time>2026-05-02T15:44:43Z</time></trkpt><trkpt lat="44.20789648016786" lon="9.971384403654461"><ele>64.66666666666667</ele><time>2026-05-02T15:44:45Z</time></trkpt><trkpt lat="44.207925715868576" lon="9.971303237775393"><ele>63.833333333333336</ele><time>2026-05-02T15:44:46.999Z</time></trkpt><trkpt lat="44.2079446710876" lon="9.97120890557651"><ele>63.0</ele><time>2026-05-02T15:44:56.999Z</time></trkpt><trkpt lat="44.20797959945299" lon="9.97110031814614"><ele>63.0</ele><time>2026-05-02T15:44:59.999Z</time></trkpt><trkpt lat="44.20801415921397" lon="9.971003612501038"><ele>63.0</ele><time>2026-05-02T15:45:01.999Z</time></trkpt><trkpt lat="44.208048043011715" lon="9.97088924611341"><ele>63.0</ele><time>2026-05-02T15:45:03.999Z</time></trkpt><trkpt lat="44.208082916228044" lon="9.97076853294699"><ele>63.0</ele><time>2026-05-02T15:45:05.999Z</time></trkpt><trkpt lat="44.208110286861576" lon="9.970684229972697"><ele>63.0</ele><time>2026-05-02T15:45:07.999Z</time></trkpt><trkpt lat="44.20813364745637" lon="9.970582781403298"><ele>63.0</ele><time>2026-05-02T15:45:10.999Z</time></trkpt><trkpt lat="44.20816251079354" lon="9.970483569334032"><ele>63.0</ele><time>2026-05-02T15:45:14.999Z</time></trkpt><trkpt lat="44.20819324935684" lon="9.970395356990704"><ele>63.0</ele><time>2026-05-02T15:45:16.999Z</time></trkpt><trkpt lat="44.20825888992891" lon="9.970396095789974"><ele>63.0</ele><time>2026-05-02T15:45:17.999Z</time></trkpt><trkpt lat="44.20831321974824" lon="9.97030889990298"><ele>63.0</ele><time>2026-05-02T15:45:18.999Z</time></trkpt><trkpt lat="44.20836423316633" lon="9.970250541466703"><ele>63.0</ele><time>2026-05-02T15:45:19.999Z</time></trkpt><trkpt lat="44.20845261099684" lon="9.970131423030466"><ele>63.0</ele><time>2026-05-02T15:45:21.999Z</time></trkpt><trkpt lat="44.20851729129913" lon="9.97002294644207"><ele>63.4</ele><time>2026-05-02T15:45:23.999Z</time></trkpt><trkpt lat="44.20855608498169" lon="9.96993381506218"><ele>63.8</ele><time>2026-05-02T15:45:25.999Z</time></trkpt><trkpt lat="44.20858727651265" lon="9.969839603200585"><ele>64.2</ele><time>2026-05-02T15:45:27.999Z</time></trkpt><trkpt lat="44.20862937272199" lon="9.969705932281354"><ele>64.6</ele><time>2026-05-02T15:45:29.999Z</time></trkpt><trkpt lat="44.20866303769703" lon="9.969557636409268"><ele>65.0</ele><time>2026-05-02T15:45:31.998Z</time></trkpt><trkpt lat="44.2086954609957" lon="9.969447811419135"><ele>65.0</ele><time>2026-05-02T15:45:33.998Z</time></trkpt><trkpt lat="44.20873337255048" lon="9.96935639289875"><ele>65.0</ele><time>2026-05-02T15:45:37.998Z</time></trkpt><trkpt lat="44.20880203436297" lon="9.969298415250401"><ele>65.0</ele><time>2026-05-02T15:45:39.998Z</time></trkpt><trkpt lat="44.20891385829961" lon="9.969290838974295"><ele>65.0</ele><time>2026-05-02T15:45:41.998Z</time></trkpt><trkpt lat="44.208975629730496" lon="9.969269149883544"><ele>65.0</ele><time>2026-05-02T15:45:42.998Z</time></trkpt><trkpt lat="44.209095008233504" lon="9.969262413648433"><ele>65.00000000000001</ele><time>2026-05-02T15:45:44.998Z</time></trkpt><trkpt lat="44.20915926096805" lon="9.969281636175708"><ele>65.0</ele><time>2026-05-02T15:45:45.998Z</time></trkpt><trkpt lat="44.20922528959608" lon="9.969260968884045"><ele>65.0</ele><time>2026-05-02T15:45:46.998Z</time></trkpt><trkpt lat="44.209295268816895" lon="9.969260886802298"><ele>65.0</ele><time>2026-05-02T15:45:47.998Z</time></trkpt><trkpt lat="44.20936759741001" lon="9.969261209598152"><ele>65.0</ele><time>2026-05-02T15:45:48.998Z</time></trkpt><trkpt lat="44.20944288225291" lon="9.969253659210075"><ele>65.00000000000001</ele><time>2026-05-02T15:45:49.998Z</time></trkpt><trkpt lat="44.209518853853105" lon="9.969246662394854"><ele>65.0</ele><time>2026-05-02T15:45:50.998Z</time></trkpt><trkpt lat="44.20959714689448" lon="9.969246123673026"><ele>65.0</ele><time>2026-05-02T15:45:51.998Z</time></trkpt><trkpt lat="44.20967806543854" lon="9.969241905775608"><ele>65.0</ele><time>2026-05-02T15:45:52.998Z</time></trkpt><trkpt lat="44.20976138104524" lon="9.969237137154392"><ele>65.0</ele><time>2026-05-02T15:45:53.998Z</time></trkpt><trkpt lat="44.20984874983479" lon="9.969236727600052"><ele>65.0</ele><time>2026-05-02T15:45:54.998Z</time></trkpt><trkpt lat="44.20994210718255" lon="9.969240246233001"><ele>65.0</ele><time>2026-05-02T15:45:55.998Z</time></trkpt><trkpt lat="44.210036560608586" lon="9.969252131641651"><ele>65.0</ele><time>2026-05-02T15:45:56.998Z</time></trkpt><trkpt lat="44.21013624604737" lon="9.969260758487986"><ele>64.8</ele><time>2026-05-02T15:45:57.998Z</time></trkpt><trkpt lat="44.21023693975407" lon="9.969277170640213"><ele>64.6</ele><time>2026-05-02T15:45:59.001Z</time></trkpt><trkpt lat="44.21033965523328" lon="9.969309004829364"><ele>64.4</ele><time>2026-05-02T15:46:00.001Z</time></trkpt><trkpt lat="44.21044519411508" lon="9.969327625114426"><ele>64.2</ele><time>2026-05-02T15:46:01.001Z</time></trkpt><trkpt lat="44.21055024735128" lon="9.969349847276572"><ele>64.0</ele><time>2026-05-02T15:46:02.001Z</time></trkpt><trkpt lat="44.21065301342119" lon="9.969372412793218"><ele>64.2</ele><time>2026-05-02T15:46:03.001Z</time></trkpt><trkpt lat="44.21075772557698" lon="9.969398588398068"><ele>64.4</ele><time>2026-05-02T15:46:04.001Z</time></trkpt><trkpt lat="44.21086096905646" lon="9.9694248873552"><ele>64.6</ele><time>2026-05-02T15:46:05.001Z</time></trkpt><trkpt lat="44.210963683414484" lon="9.969453241769735"><ele>64.8</ele><time>2026-05-02T15:46:06.001Z</time></trkpt><trkpt lat="44.211066189205745" lon="9.969479289250197"><ele>65.0</ele><time>2026-05-02T15:46:07.001Z</time></trkpt><trkpt lat="44.21116761672482" lon="9.969506017988195"><ele>65.0</ele><time>2026-05-02T15:46:08.001Z</time></trkpt><trkpt lat="44.211267852329044" lon="9.969530191144989"><ele>65.0</ele><time>2026-05-02T15:46:09.001Z</time></trkpt><trkpt lat="44.21136752408452" lon="9.969545755005912"><ele>65.0</ele><time>2026-05-02T15:46:10Z</time></trkpt><trkpt lat="44.2114706723327" lon="9.96955400894799"><ele>65.0</ele><time>2026-05-02T15:46:11.001Z</time></trkpt><trkpt lat="44.21157779393611" lon="9.969548304269352"><ele>65.0</ele><time>2026-05-02T15:46:12.001Z</time></trkpt><trkpt lat="44.21168743157911" lon="9.96953456720896"><ele>65.6</ele><time>2026-05-02T15:46:13Z</time></trkpt><trkpt lat="44.211795921652076" lon="9.969509941166653"><ele>66.2</ele><time>2026-05-02T15:46:14Z</time></trkpt><trkpt lat="44.21190077377177" lon="9.969479172311562"><ele>66.8</ele><time>2026-05-02T15:46:15Z</time></trkpt><trkpt lat="44.21200508626368" lon="9.969445615342691"><ele>67.4</ele><time>2026-05-02T15:46:16Z</time></trkpt><trkpt lat="44.212107940220754" lon="9.969406578067805"><ele>68.0</ele><time>2026-05-02T15:46:17Z</time></trkpt><trkpt lat="44.21221020592095" lon="9.969368548434984"><ele>68.0</ele><time>2026-05-02T15:46:18Z</time></trkpt><trkpt lat="44.21231369750046" lon="9.969330118080775"><ele>68.0</ele><time>2026-05-02T15:46:19Z</time></trkpt><trkpt lat="44.21241838297025" lon="9.969282624162577"><ele>68.0</ele><time>2026-05-02T15:46:20Z</time></trkpt><trkpt lat="44.21252109354111" lon="9.969225116444383"><ele>68.0</ele><time>2026-05-02T15:46:21Z</time></trkpt><trkpt lat="44.21262238393843" lon="9.969156267489428"><ele>68.0</ele><time>2026-05-02T15:46:22Z</time></trkpt><trkpt lat="44.21272064104197" lon="9.969077780149282"><ele>67.6</ele><time>2026-05-02T15:46:23Z</time></trkpt><trkpt lat="44.21281642175256" lon="9.96899882346963"><ele>67.19999999999999</ele><time>2026-05-02T15:46:24Z</time></trkpt><trkpt lat="44.212910277683555" lon="9.96891548565379"><ele>66.8</ele><time>2026-05-02T15:46:25Z</time></trkpt><trkpt lat="44.213004818503784" lon="9.968831510772564"><ele>66.39999999999999</ele><time>2026-05-02T15:46:26Z</time></trkpt><trkpt lat="44.21310302154217" lon="9.96875624405095"><ele>66.0</ele><time>2026-05-02T15:46:27Z</time></trkpt><trkpt lat="44.213203921065734" lon="9.968680309480337"><ele>66.0</ele><time>2026-05-02T15:46:28Z</time></trkpt><trkpt lat="44.213307123066365" lon="9.968607061473534"><ele>66.0</ele><time>2026-05-02T15:46:29Z</time></trkpt><trkpt lat="44.21341507310148" lon="9.968542915891378"><ele>66.0</ele><time>2026-05-02T15:46:30Z</time></trkpt><trkpt lat="44.21352606892754" lon="9.968481898713296"><ele>66.0</ele><time>2026-05-02T15:46:31Z</time></trkpt><trkpt lat="44.21363811357947" lon="9.96842791945382"><ele>66.0</ele><time>2026-05-02T15:46:32Z</time></trkpt><trkpt lat="44.21375025499406" lon="9.9683798685523"><ele>66.0</ele><time>2026-05-02T15:46:33Z</time></trkpt><trkpt lat="44.213861005906914" lon="9.968338313854987"><ele>66.0</ele><time>2026-05-02T15:46:34Z</time></trkpt><trkpt lat="44.21396817162822" lon="9.968304667110385"><ele>66.0</ele><time>2026-05-02T15:46:35Z</time></trkpt><trkpt lat="44.21407685650157" lon="9.968274705944594"><ele>65.2</ele><time>2026-05-02T15:46:36Z</time></trkpt><trkpt lat="44.21418476834872" lon="9.968240328275835"><ele>64.39999999999999</ele><time>2026-05-02T15:46:37Z</time></trkpt><trkpt lat="44.21429392775804" lon="9.968207583339693"><ele>63.6</ele><time>2026-05-02T15:46:38Z</time></trkpt><trkpt lat="44.21440434946001" lon="9.96817649652992"><ele>62.8</ele><time>2026-05-02T15:46:39Z</time></trkpt><trkpt lat="44.21451622118085" lon="9.968148526340821"><ele>62.0</ele><time>2026-05-02T15:46:40Z</time></trkpt><trkpt lat="44.21462911027741" lon="9.968118587056084"><ele>62.0</ele><time>2026-05-02T15:46:41Z</time></trkpt><trkpt lat="44.21473737154614" lon="9.9680908135815"><ele>62.0</ele><time>2026-05-02T15:46:42Z</time></trkpt><trkpt lat="44.21484096756463" lon="9.968064612031657"><ele>62.0</ele><time>2026-05-02T15:46:43Z</time></trkpt><trkpt lat="44.21493853394751" lon="9.968043937935487"><ele>62.0</ele><time>2026-05-02T15:46:44Z</time></trkpt><trkpt lat="44.2150324020597" lon="9.9680207662052"><ele>62.0</ele><time>2026-05-02T15:46:45Z</time></trkpt><trkpt lat="44.21512541303602" lon="9.967989126712848"><ele>61.8</ele><time>2026-05-02T15:46:46Z</time></trkpt><trkpt lat="44.21521939121738" lon="9.967960824444823"><ele>61.6</ele><time>2026-05-02T15:46:47Z</time></trkpt><trkpt lat="44.21531597584966" lon="9.967941880846995"><ele>61.39999999999999</ele><time>2026-05-02T15:46:48Z</time></trkpt><trkpt lat="44.21541535599345" lon="9.967919771695097"><ele>61.199999999999996</ele><time>2026-05-02T15:46:49Z</time></trkpt><trkpt lat="44.215520683568336" lon="9.967885947564165"><ele>61.0</ele><time>2026-05-02T15:46:50Z</time></trkpt><trkpt lat="44.215630654160535" lon="9.96784839278459"><ele>61.25</ele><time>2026-05-02T15:46:51Z</time></trkpt><trkpt lat="44.215742801886634" lon="9.967809188855053"><ele>61.5</ele><time>2026-05-02T15:46:52Z</time></trkpt><trkpt lat="44.21585761254741" lon="9.96777582538732"><ele>61.75</ele><time>2026-05-02T15:46:52.999Z</time></trkpt><trkpt lat="44.2159694885427" lon="9.967739593307808"><ele>62.0</ele><time>2026-05-02T15:46:53.999Z</time></trkpt><trkpt lat="44.216079267995" lon="9.967703882077144"><ele>62.00000000000001</ele><time>2026-05-02T15:46:54.999Z</time></trkpt><trkpt lat="44.216181246928606" lon="9.967668850739393"><ele>62.0</ele><time>2026-05-02T15:46:55.999Z</time></trkpt><trkpt lat="44.216275218290335" lon="9.967636868880515"><ele>62.0</ele><time>2026-05-02T15:46:56.999Z</time></trkpt><trkpt lat="44.21635163863705" lon="9.967608642710434"><ele>62.0</ele><time>2026-05-02T15:46:57.999Z</time></trkpt><trkpt lat="44.216441988508436" lon="9.967566401370387"><ele>62.00000000000001</ele><time>2026-05-02T15:46:59.999Z</time></trkpt><trkpt lat="44.21650450263221" lon="9.967553462281524"><ele>62.0</ele><time>2026-05-02T15:47:27.999Z</time></trkpt><trkpt lat="44.216454122619666" lon="9.967238949137345"><ele>61.400000000000006</ele><time>2026-05-02T15:47:39.998Z</time></trkpt><trkpt lat="44.21641204641997" lon="9.967152815087099"><ele>60.800000000000004</ele><time>2026-05-02T15:47:40.998Z</time></trkpt><trkpt lat="44.2163452368027" lon="9.967050447959021"><ele>60.2</ele><time>2026-05-02T15:47:42.998Z</time></trkpt><trkpt lat="44.21642823816171" lon="9.96686659442974"><ele>59.6</ele><time>2026-05-02T15:47:44.998Z</time></trkpt><trkpt lat="44.21648554231637" lon="9.966761443782998"><ele>59.0</ele><time>2026-05-02T15:47:46.998Z</time></trkpt><trkpt lat="44.21655567469575" lon="9.966703331525093"><ele>58.833333333333336</ele><time>2026-05-02T15:47:48.998Z</time></trkpt><trkpt lat="44.216667552195005" lon="9.966635393681923"><ele>58.66666666666667</ele><time>2026-05-02T15:47:52.998Z</time></trkpt><trkpt lat="44.21673493970603" lon="9.966587940043349"><ele>58.5</ele><time>2026-05-02T15:48:20Z</time></trkpt><trkpt lat="44.216788753514365" lon="9.966537191724171"><ele>58.33333333333333</ele><time>2026-05-02T15:48:27Z</time></trkpt><trkpt lat="44.21688972101842" lon="9.96651266371756"><ele>58.166666666666664</ele><time>2026-05-02T15:48:29Z</time></trkpt><trkpt lat="44.216961272990496" lon="9.966505520902855"><ele>58.0</ele><time>2026-05-02T15:48:31Z</time></trkpt><trkpt lat="44.21696137109757" lon="9.966613485226533"><ele>58.0</ele><time>2026-05-02T15:48:34Z</time></trkpt><trkpt lat="44.21697395891087" lon="9.966706242540862"><ele>58.0</ele><time>2026-05-02T15:48:42Z</time></trkpt><trkpt lat="44.216944445076" lon="9.966786847462487"><ele>58.0</ele><time>2026-05-02T15:50:59.999Z</time></trkpt><trkpt lat="44.21688466817994" lon="9.96683593868339"><ele>58.0</ele><time>2026-05-02T15:51:12.999Z</time></trkpt><trkpt lat="44.21697777699012" lon="9.966662240041915"><ele>58.0</ele><time>2026-05-02T15:51:28.423Z</time></trkpt><trkpt lat="44.216878720693295" lon="9.966801161460946"><ele>58.0</ele><time>2026-05-02T15:51:55.039Z</time></trkpt><trkpt lat="44.21661489003376" lon="9.966550841186184"><ele>58.0</ele><time>2026-05-02T15:57:05.865Z</time></trkpt><trkpt lat="44.21690314419454" lon="9.966682638978835"><ele>58.14285714285715</ele><time>2026-05-02T15:57:06.99Z</time></trkpt><trkpt lat="44.216885732183826" lon="9.966794859199464"><ele>58.28571428571429</ele><time>2026-05-02T15:57:10.99Z</time></trkpt><trkpt lat="44.21683130767143" lon="9.966845075518824"><ele>58.42857142857143</ele><time>2026-05-02T15:57:16.001Z</time></trkpt><trkpt lat="44.21690325433596" lon="9.966826679856409"><ele>58.57142857142858</ele><time>2026-05-02T16:07:02.998Z</time></trkpt><trkpt lat="44.21692559308215" lon="9.966733129588297"><ele>58.71428571428572</ele><time>2026-05-02T16:07:07.998Z</time></trkpt><trkpt lat="44.216919823766325" lon="9.966832948435936"><ele>58.857142857142854</ele><time>2026-05-02T16:09:29.874Z</time></trkpt><trkpt lat="44.21685343843737" lon="9.96686072788954"><ele>59.0</ele><time>2026-05-02T16:10:28Z</time></trkpt><trkpt lat="44.21691076706895" lon="9.96680677770497"><ele>59.00000000000001</ele><time>2026-05-02T16:10:50Z</time></trkpt><trkpt lat="44.21697528145348" lon="9.966745827537911"><ele>59.0</ele><time>2026-05-02T16:10:56.999Z</time></trkpt><trkpt lat="44.216985179870456" lon="9.966628673380878"><ele>59.0</ele><time>2026-05-02T16:13:44.999Z</time></trkpt><trkpt lat="44.216985933567784" lon="9.966537672582259"><ele>59.0</ele><time>2026-05-02T16:13:46.999Z</time></trkpt><trkpt lat="44.217015853553924" lon="9.966454326918301"><ele>59.00000000000001</ele><time>2026-05-02T16:13:58.999Z</time></trkpt><trkpt lat="44.21711590980941" lon="9.96642723743777"><ele>59.0</ele><time>2026-05-02T16:14:00.999Z</time></trkpt><trkpt lat="44.2171801317818" lon="9.966413700784015"><ele>59.0</ele><time>2026-05-02T16:14:01.999Z</time></trkpt><trkpt lat="44.21725215109713" lon="9.966396105299646"><ele>59.00000000000001</ele><time>2026-05-02T16:14:02.999Z</time></trkpt><trkpt lat="44.2173475898597" lon="9.966372256689015"><ele>59.00000000000001</ele><time>2026-05-02T16:14:03.999Z</time></trkpt><trkpt lat="44.21748408814121" lon="9.96634469459661"><ele>59.0</ele><time>2026-05-02T16:14:04.999Z</time></trkpt><trkpt lat="44.21757575000791" lon="9.966317024641631"><ele>59.0</ele><time>2026-05-02T16:14:05.999Z</time></trkpt><trkpt lat="44.217667393217134" lon="9.966288881382617"><ele>59.0</ele><time>2026-05-02T16:14:06.999Z</time></trkpt><trkpt lat="44.217760796965386" lon="9.966265476895904"><ele>59.00000000000001</ele><time>2026-05-02T16:14:07.999Z</time></trkpt><trkpt lat="44.21785653500562" lon="9.96624356757031"><ele>59.00000000000001</ele><time>2026-05-02T16:14:08.998Z</time></trkpt><trkpt lat="44.21795376102806" lon="9.966219064006811"><ele>59.0</ele><time>2026-05-02T16:14:09.998Z</time></trkpt><trkpt lat="44.21805650986496" lon="9.96619110324218"><ele>59.0</ele><time>2026-05-02T16:14:10.998Z</time></trkpt><trkpt lat="44.218157641474136" lon="9.966164961640446"><ele>59.2</ele><time>2026-05-02T16:14:11.998Z</time></trkpt><trkpt lat="44.21825899100113" lon="9.966145549938867"><ele>59.400000000000006</ele><time>2026-05-02T16:14:12.998Z</time></trkpt><trkpt lat="44.21835541015927" lon="9.966130029537043"><ele>59.6</ele><time>2026-05-02T16:14:13.998Z</time></trkpt><trkpt lat="44.21844694327157" lon="9.966119134908405"><ele>59.8</ele><time>2026-05-02T16:14:14.998Z</time></trkpt><trkpt lat="44.21853567893596" lon="9.96611229889009"><ele>60.0</ele><time>2026-05-02T16:14:15.998Z</time></trkpt><trkpt lat="44.218620143400656" lon="9.966111459498602"><ele>60.0</ele><time>2026-05-02T16:14:16.998Z</time></trkpt><trkpt lat="44.21869899276516" lon="9.966118515589935"><ele>60.0</ele><time>2026-05-02T16:14:17.998Z</time></trkpt><trkpt lat="44.218772475371935" lon="9.966132833514767"><ele>60.0</ele><time>2026-05-02T16:14:18.998Z</time></trkpt><trkpt lat="44.218836251239175" lon="9.96614581642639"><ele>60.0</ele><time>2026-05-02T16:14:19.998Z</time></trkpt><trkpt lat="44.21893701953272" lon="9.966170186445556"><ele>60.0</ele><time>2026-05-02T16:14:21.998Z</time></trkpt><trkpt lat="44.21900216912463" lon="9.966202345077525"><ele>60.0</ele><time>2026-05-02T16:14:24.998Z</time></trkpt><trkpt lat="44.219096988547896" lon="9.96622351875471"><ele>60.166666666666664</ele><time>2026-05-02T16:14:27.998Z</time></trkpt><trkpt lat="44.219199935793604" lon="9.966145216043069"><ele>60.33333333333333</ele><time>2026-05-02T16:14:29.998Z</time></trkpt><trkpt lat="44.21923441236464" lon="9.96606953627201"><ele>60.5</ele><time>2026-05-02T16:14:30.998Z</time></trkpt><trkpt lat="44.21924775862413" lon="9.965977016386473"><ele>60.666666666666664</ele><time>2026-05-02T16:14:31.998Z</time></trkpt><trkpt lat="44.21924992348306" lon="9.96587394157919"><ele>60.83333333333333</ele><time>2026-05-02T16:14:32.998Z</time></trkpt><trkpt lat="44.2192465493936" lon="9.965762591829114"><ele>61.0</ele><time>2026-05-02T16:14:33.998Z</time></trkpt><trkpt lat="44.219243087013986" lon="9.96564610109848"><ele>61.0</ele><time>2026-05-02T16:14:34.998Z</time></trkpt><trkpt lat="44.219247040664285" lon="9.965520517520503"><ele>60.99999999999999</ele><time>2026-05-02T16:14:35.998Z</time></trkpt><trkpt lat="44.21925301083952" lon="9.965386567423227"><ele>60.99999999999999</ele><time>2026-05-02T16:14:36.998Z</time></trkpt><trkpt lat="44.21924310077075" lon="9.965245547150769"><ele>61.0</ele><time>2026-05-02T16:14:37.998Z</time></trkpt><trkpt lat="44.21922345288914" lon="9.965100004736437"><ele>61.0</ele><time>2026-05-02T16:14:39Z</time></trkpt><trkpt lat="44.219201304829404" lon="9.964946660926389"><ele>61.0</ele><time>2026-05-02T16:14:40Z</time></trkpt><trkpt lat="44.219176296166005" lon="9.964787782600357"><ele>61.0</ele><time>2026-05-02T16:14:41Z</time></trkpt><trkpt lat="44.21914720579354" lon="9.96462478247503"><ele>61.0</ele><time>2026-05-02T16:14:42Z</time></trkpt><trkpt lat="44.219119909657216" lon="9.964455980485955"><ele>61.0</ele><time>2026-05-02T16:14:43Z</time></trkpt><trkpt lat="44.219092436870014" lon="9.964289415947146"><ele>60.75</ele><time>2026-05-02T16:14:44Z</time></trkpt><trkpt lat="44.21906467394981" lon="9.964117427759165"><ele>60.5</ele><time>2026-05-02T16:14:45Z</time></trkpt><trkpt lat="44.2190349429573" lon="9.963939638071123"><ele>60.25</ele><time>2026-05-02T16:14:46Z</time></trkpt><trkpt lat="44.21900513671465" lon="9.963761808994146"><ele>60.0</ele><time>2026-05-02T16:14:47Z</time></trkpt><trkpt lat="44.2189765812221" lon="9.963581458244438"><ele>59.5</ele><time>2026-05-02T16:14:48Z</time></trkpt><trkpt lat="44.218946289688326" lon="9.963396277712986"><ele>59.0</ele><time>2026-05-02T16:14:49Z</time></trkpt><trkpt lat="44.21891782494963" lon="9.963212532556598"><ele>58.5</ele><time>2026-05-02T16:14:50Z</time></trkpt><trkpt lat="44.218888340733635" lon="9.963023935577864"><ele>58.0</ele><time>2026-05-02T16:14:51Z</time></trkpt><trkpt lat="44.21885784499074" lon="9.962837424814538"><ele>58.0</ele><time>2026-05-02T16:14:52Z</time></trkpt><trkpt lat="44.21882802036935" lon="9.962653950539247"><ele>58.0</ele><time>2026-05-02T16:14:53Z</time></trkpt><trkpt lat="44.21879648215375" lon="9.962472459607419"><ele>58.0</ele><time>2026-05-02T16:14:54Z</time></trkpt><trkpt lat="44.21876674208781" lon="9.962293305705419"><ele>58.0</ele><time>2026-05-02T16:14:55Z</time></trkpt><trkpt lat="44.21873823753016" lon="9.9621154071287"><ele>58.25</ele><time>2026-05-02T16:14:56Z</time></trkpt><trkpt lat="44.21871088243278" lon="9.961937969910942"><ele>58.5</ele><time>2026-05-02T16:14:57Z</time></trkpt><trkpt lat="44.21868420565688" lon="9.961760282705539"><ele>58.75</ele><time>2026-05-02T16:14:58Z</time></trkpt><trkpt lat="44.21865971592807" lon="9.961586116282561"><ele>59.0</ele><time>2026-05-02T16:14:59Z</time></trkpt><trkpt lat="44.21863202504827" lon="9.961416908217592"><ele>59.0</ele><time>2026-05-02T16:15:00Z</time></trkpt><trkpt lat="44.21860768570749" lon="9.961261268599575"><ele>59.00000000000001</ele><time>2026-05-02T16:15:01Z</time></trkpt><trkpt lat="44.21858106097469" lon="9.961124975388547"><ele>59.00000000000001</ele><time>2026-05-02T16:15:02Z</time></trkpt><trkpt lat="44.21855944376015" lon="9.961013106651357"><ele>59.0</ele><time>2026-05-02T16:15:03Z</time></trkpt><trkpt lat="44.21853740888163" lon="9.960922005840729"><ele>59.0</ele><time>2026-05-02T16:15:04Z</time></trkpt><trkpt lat="44.21849820303213" lon="9.960805670243111"><ele>60.16666666666667</ele><time>2026-05-02T16:15:06Z</time></trkpt><trkpt lat="44.21845761330041" lon="9.960724046518036"><ele>61.333333333333336</ele><time>2026-05-02T16:15:08.999Z</time></trkpt><trkpt lat="44.21840087031291" lon="9.960664970522513"><ele>62.5</ele><time>2026-05-02T16:15:10.999Z</time></trkpt><trkpt lat="44.218328270930485" lon="9.960615825476804"><ele>63.66666666666667</ele><time>2026-05-02T16:15:12.999Z</time></trkpt><trkpt lat="44.218244048486" lon="9.96057106916461"><ele>64.83333333333333</ele><time>2026-05-02T16:15:14.999Z</time></trkpt><trkpt lat="44.21816793089406" lon="9.960522759177309"><ele>66.0</ele><time>2026-05-02T16:15:16.999Z</time></trkpt><trkpt lat="44.218093915256645" lon="9.96053361762176"><ele>66.39999999999999</ele><time>2026-05-02T16:15:19.999Z</time></trkpt><trkpt lat="44.21801864167045" lon="9.96055553428343"><ele>66.8</ele><time>2026-05-02T16:15:37.999Z</time></trkpt><trkpt lat="44.217954309548404" lon="9.960596448733488"><ele>67.19999999999999</ele><time>2026-05-02T16:15:39.999Z</time></trkpt><trkpt lat="44.21787714529752" lon="9.960685069497778"><ele>67.6</ele><time>2026-05-02T16:15:41.999Z</time></trkpt><trkpt lat="44.21779577923391" lon="9.96077703706093"><ele>68.0</ele><time>2026-05-02T16:15:43.999Z</time></trkpt><trkpt lat="44.217710581177904" lon="9.960874242253016"><ele>68.0</ele><time>2026-05-02T16:15:45.999Z</time></trkpt><trkpt lat="44.21762118717014" lon="9.960981396626519"><ele>68.0</ele><time>2026-05-02T16:15:47.999Z</time></trkpt><trkpt lat="44.21756747608963" lon="9.961044218669226"><ele>68.0</ele><time>2026-05-02T16:15:48.999Z</time></trkpt><trkpt lat="44.2175024672535" lon="9.961117800717018"><ele>68.0</ele><time>2026-05-02T16:15:49.999Z</time></trkpt><trkpt lat="44.217449613268855" lon="9.961177625586243"><ele>68.0</ele><time>2026-05-02T16:15:50.999Z</time></trkpt><trkpt lat="44.2173627197519" lon="9.961235840851094"><ele>68.0</ele><time>2026-05-02T16:15:52.999Z</time></trkpt><trkpt lat="44.21730671433286" lon="9.961297801909426"><ele>68.66666666666667</ele><time>2026-05-02T16:16:26.998Z</time></trkpt><trkpt lat="44.21724611288978" lon="9.961358202759255"><ele>69.33333333333334</ele><time>2026-05-02T16:16:28.998Z</time></trkpt><trkpt lat="44.21713245989147" lon="9.961389737263355"><ele>70.0</ele><time>2026-05-02T16:16:30.998Z</time></trkpt><trkpt lat="44.21706451130401" lon="9.96138659061837"><ele>70.66666666666667</ele><time>2026-05-02T16:16:31.998Z</time></trkpt><trkpt lat="44.2169979706044" lon="9.961356624097249"><ele>71.33333333333333</ele><time>2026-05-02T16:16:32.998Z</time></trkpt><trkpt lat="44.21693276645801" lon="9.961314488573311"><ele>72.0</ele><time>2026-05-02T16:16:33.998Z</time></trkpt><trkpt lat="44.216868614274595" lon="9.961258086147257"><ele>72.0</ele><time>2026-05-02T16:16:34.998Z</time></trkpt><trkpt lat="44.216814113669486" lon="9.961187381924786"><ele>72.0</ele><time>2026-05-02T16:16:35.998Z</time></trkpt><trkpt lat="44.21677103514508" lon="9.96109338761623"><ele>72.0</ele><time>2026-05-02T16:16:36.998Z</time></trkpt><trkpt lat="44.21674840109801" lon="9.960989145092089"><ele>72.0</ele><time>2026-05-02T16:16:37.998Z</time></trkpt><trkpt lat="44.21674214392908" lon="9.96087910171459"><ele>72.0</ele><time>2026-05-02T16:16:38.998Z</time></trkpt><trkpt lat="44.21673773522725" lon="9.960770672134219"><ele>72.0</ele><time>2026-05-02T16:16:39.998Z</time></trkpt><trkpt lat="44.21672820973547" lon="9.960659159482038"><ele>73.5</ele><time>2026-05-02T16:16:40.998Z</time></trkpt><trkpt lat="44.2167186199113" lon="9.960550521932543"><ele>75.0</ele><time>2026-05-02T16:16:41.998Z</time></trkpt><trkpt lat="44.21671883750131" lon="9.960440642715534"><ele>76.5</ele><time>2026-05-02T16:16:42.998Z</time></trkpt><trkpt lat="44.21673367786628" lon="9.960334484111332"><ele>78.0</ele><time>2026-05-02T16:16:43.998Z</time></trkpt><trkpt lat="44.21676873660255" lon="9.960237841861913"><ele>79.5</ele><time>2026-05-02T16:16:45Z</time></trkpt><trkpt lat="44.21681921980039" lon="9.960156738340219"><ele>81.0</ele><time>2026-05-02T16:16:46Z</time></trkpt><trkpt lat="44.21688314578965" lon="9.960089892227948"><ele>81.0</ele><time>2026-05-02T16:16:46.999Z</time></trkpt><trkpt lat="44.216955710526655" lon="9.9600335481207"><ele>81.0</ele><time>2026-05-02T16:16:48Z</time></trkpt><trkpt lat="44.21702874598409" lon="9.959978237886077"><ele>81.0</ele><time>2026-05-02T16:16:49Z</time></trkpt><trkpt lat="44.2171174844814" lon="9.959913024603143"><ele>81.0</ele><time>2026-05-02T16:16:50Z</time></trkpt><trkpt lat="44.21719419517331" lon="9.959849308443921"><ele>81.0</ele><time>2026-05-02T16:16:51Z</time></trkpt><trkpt lat="44.217278597848036" lon="9.959784703056613"><ele>81.0</ele><time>2026-05-02T16:16:52Z</time></trkpt><trkpt lat="44.217361046448055" lon="9.959717905078689"><ele>81.0</ele><time>2026-05-02T16:16:53Z</time></trkpt><trkpt lat="44.21743008400007" lon="9.959638515643256"><ele>81.0</ele><time>2026-05-02T16:16:54Z</time></trkpt><trkpt lat="44.21748545131762" lon="9.959550072753917"><ele>81.0</ele><time>2026-05-02T16:16:55Z</time></trkpt><trkpt lat="44.217523371640524" lon="9.959452772747277"><ele>81.0</ele><time>2026-05-02T16:16:56Z</time></trkpt><trkpt lat="44.21754935324121" lon="9.959346726849226"><ele>81.0</ele><time>2026-05-02T16:16:57Z</time></trkpt><trkpt lat="44.217568041151125" lon="9.959238189024445"><ele>83.66666666666667</ele><time>2026-05-02T16:16:58Z</time></trkpt><trkpt lat="44.21758672321932" lon="9.959129014766955"><ele>86.33333333333334</ele><time>2026-05-02T16:16:59Z</time></trkpt><trkpt lat="44.217608182099994" lon="9.959024977639467"><ele>89.0</ele><time>2026-05-02T16:17:00Z</time></trkpt><trkpt lat="44.21763441519177" lon="9.958921772666267"><ele>91.66666666666667</ele><time>2026-05-02T16:17:01Z</time></trkpt><trkpt lat="44.21766135869105" lon="9.958823294372046"><ele>94.33333333333334</ele><time>2026-05-02T16:17:02Z</time></trkpt><trkpt lat="44.2176931062378" lon="9.958730122737055"><ele>97.0</ele><time>2026-05-02T16:17:03Z</time></trkpt><trkpt lat="44.21773202795014" lon="9.958645063792314"><ele>97.0</ele><time>2026-05-02T16:17:04Z</time></trkpt><trkpt lat="44.21778227497469" lon="9.958575460791149"><ele>97.0</ele><time>2026-05-02T16:17:05Z</time></trkpt><trkpt lat="44.217843715498205" lon="9.958525924671905"><ele>97.0</ele><time>2026-05-02T16:17:06Z</time></trkpt><trkpt lat="44.21791337355488" lon="9.958495497215251"><ele>97.0</ele><time>2026-05-02T16:17:07Z</time></trkpt><trkpt lat="44.217988171035714" lon="9.958485927967155"><ele>97.0</ele><time>2026-05-02T16:17:08Z</time></trkpt><trkpt lat="44.218063210578585" lon="9.958498249617858"><ele>97.0</ele><time>2026-05-02T16:17:09Z</time></trkpt><trkpt lat="44.21813513760271" lon="9.95853001150213"><ele>97.0</ele><time>2026-05-02T16:17:10Z</time></trkpt><trkpt lat="44.21819968344395" lon="9.958586113625328"><ele>94.33333333333334</ele><time>2026-05-02T16:17:11Z</time></trkpt><trkpt lat="44.218255107546426" lon="9.958668024131129"><ele>91.66666666666667</ele><time>2026-05-02T16:17:12Z</time></trkpt><trkpt lat="44.21829587587425" lon="9.958767551208835"><ele>89.0</ele><time>2026-05-02T16:17:13Z</time></trkpt><trkpt lat="44.21832027718409" lon="9.958875410799854"><ele>86.33333333333334</ele><time>2026-05-02T16:17:13.999Z</time></trkpt><trkpt lat="44.21832927643593" lon="9.958981401499223"><ele>83.66666666666667</ele><time>2026-05-02T16:17:14.999Z</time></trkpt><trkpt lat="44.2183198979701" lon="9.959090528933752"><ele>81.0</ele><time>2026-05-02T16:17:15.999Z</time></trkpt><trkpt lat="44.21828839359764" lon="9.95919275338794"><ele>81.0</ele><time>2026-05-02T16:17:16.999Z</time></trkpt><trkpt lat="44.218239061354694" lon="9.95928944934127"><ele>81.0</ele><time>2026-05-02T16:17:17.999Z</time></trkpt><trkpt lat="44.21817192600299" lon="9.959375639082374"><ele>81.0</ele><time>2026-05-02T16:17:18.999Z</time></trkpt><trkpt lat="44.21809141674178" lon="9.959447080340944"><ele>81.0</ele><time>2026-05-02T16:17:19.999Z</time></trkpt><trkpt lat="44.21800586020989" lon="9.959514238287644"><ele>81.0</ele><time>2026-05-02T16:17:20.999Z</time></trkpt><trkpt lat="44.21791648717095" lon="9.959585826549345"><ele>81.0</ele><time>2026-05-02T16:17:21.999Z</time></trkpt><trkpt lat="44.217821461933276" lon="9.959661675932804"><ele>81.0</ele><time>2026-05-02T16:17:22.999Z</time></trkpt><trkpt lat="44.21772616450675" lon="9.959736633471756"><ele>81.0</ele><time>2026-05-02T16:17:23.999Z</time></trkpt><trkpt lat="44.217630614004065" lon="9.959811764840907"><ele>81.0</ele><time>2026-05-02T16:17:24.999Z</time></trkpt><trkpt lat="44.21752079188436" lon="9.959908248289478"><ele>81.0</ele><time>2026-05-02T16:17:25.999Z</time></trkpt><trkpt lat="44.217390773905585" lon="9.960008406552781"><ele>81.0</ele><time>2026-05-02T16:17:26.999Z</time></trkpt><trkpt lat="44.217241420705726" lon="9.960107931554022"><ele>81.0</ele><time>2026-05-02T16:17:27.999Z</time></trkpt><trkpt lat="44.21707514215979" lon="9.96021221384454"><ele>81.0</ele><time>2026-05-02T16:17:28.999Z</time></trkpt><trkpt lat="44.216890398284356" lon="9.960309762426133"><ele>81.0</ele><time>2026-05-02T16:17:29.999Z</time></trkpt><trkpt lat="44.21669629588792" lon="9.96040864457865"><ele>81.0</ele><time>2026-05-02T16:17:30.999Z</time></trkpt><trkpt lat="44.21649333996202" lon="9.960523874234392"><ele>90.0</ele><time>2026-05-02T16:17:31.999Z</time></trkpt><trkpt lat="44.216285502797184" lon="9.960655734349912"><ele>99.0</ele><time>2026-05-02T16:17:32.999Z</time></trkpt><trkpt lat="44.21606736078857" lon="9.960790621104259"><ele>92.5</ele><time>2026-05-02T16:17:33.999Z</time></trkpt><trkpt lat="44.21584210033465" lon="9.960933533423814"><ele>86.0</ele><time>2026-05-02T16:17:34.999Z</time></trkpt><trkpt lat="44.21560583107122" lon="9.96107774635973"><ele>86.0</ele><time>2026-05-02T16:17:35.999Z</time></trkpt><trkpt lat="44.21536240308259" lon="9.961230993009037"><ele>86.0</ele><time>2026-05-02T16:17:36.999Z</time></trkpt><trkpt lat="44.21511780145622" lon="9.961383741660718"><ele>86.0</ele><time>2026-05-02T16:17:37.999Z</time></trkpt><trkpt lat="44.21487554369287" lon="9.961534623453156"><ele>86.0</ele><time>2026-05-02T16:17:38.999Z</time></trkpt><trkpt lat="44.21462940964193" lon="9.961687725390124"><ele>79.5</ele><time>2026-05-02T16:17:39.999Z</time></trkpt><trkpt lat="44.214384207519885" lon="9.96184026347946"><ele>73.0</ele><time>2026-05-02T16:17:40.999Z</time></trkpt><trkpt lat="44.214138974326744" lon="9.961994479405234"><ele>76.5</ele><time>2026-05-02T16:17:41.999Z</time></trkpt><trkpt lat="44.21389455350318" lon="9.962140470491212"><ele>80.0</ele><time>2026-05-02T16:17:42.999Z</time></trkpt><trkpt lat="44.21365066384771" lon="9.962276388717552"><ele>80.0</ele><time>2026-05-02T16:17:43.999Z</time></trkpt><trkpt lat="44.213402442399534" lon="9.962400660894762"><ele>80.0</ele><time>2026-05-02T16:17:44.999Z</time></trkpt><trkpt lat="44.21315053671067" lon="9.962504911934175"><ele>72.5</ele><time>2026-05-02T16:17:45.999Z</time></trkpt><trkpt lat="44.21289327346056" lon="9.962605682930112"><ele>65.0</ele><time>2026-05-02T16:17:46.999Z</time></trkpt><trkpt lat="44.21263383711808" lon="9.962693760687584"><ele>65.0</ele><time>2026-05-02T16:17:47.999Z</time></trkpt><trkpt lat="44.21236630492507" lon="9.962764926461507"><ele>65.0</ele><time>2026-05-02T16:17:48.999Z</time></trkpt><trkpt lat="44.2120949679912" lon="9.962818143811823"><ele>66.5</ele><time>2026-05-02T16:17:49.999Z</time></trkpt><trkpt lat="44.21182331731374" lon="9.962863774755265"><ele>68.0</ele><time>2026-05-02T16:17:50.999Z</time></trkpt><trkpt lat="44.21154863834849" lon="9.9629003722767"><ele>70.5</ele><time>2026-05-02T16:17:51.999Z</time></trkpt><trkpt lat="44.21127430607027" lon="9.962933505345024"><ele>73.0</ele><time>2026-05-02T16:17:52.999Z</time></trkpt><trkpt lat="44.211001001542876" lon="9.962963775724544"><ele>73.0</ele><time>2026-05-02T16:17:53.999Z</time></trkpt><trkpt lat="44.21072825198155" lon="9.962999756870827"><ele>73.0</ele><time>2026-05-02T16:17:54.999Z</time></trkpt><trkpt lat="44.21045861641923" lon="9.963043083149778"><ele>76.0</ele><time>2026-05-02T16:17:55.999Z</time></trkpt><trkpt lat="44.21019087536629" lon="9.963084249584867"><ele>79.0</ele><time>2026-05-02T16:17:56.999Z</time></trkpt><trkpt lat="44.20992222985694" lon="9.963127668326981"><ele>83.5</ele><time>2026-05-02T16:17:57.999Z</time></trkpt><trkpt lat="44.20965286416821" lon="9.963163871385275"><ele>88.0</ele><time>2026-05-02T16:17:58.999Z</time></trkpt><trkpt lat="44.20937990502388" lon="9.963198321034582"><ele>88.0</ele><time>2026-05-02T16:17:59.999Z</time></trkpt><trkpt lat="44.20911120305715" lon="9.963206219789761"><ele>88.0</ele><time>2026-05-02T16:18:00.999Z</time></trkpt><trkpt lat="44.2088411800101" lon="9.963193203521293"><ele>93.5</ele><time>2026-05-02T16:18:01.999Z</time></trkpt><trkpt lat="44.20857233067436" lon="9.963156199406658"><ele>99.0</ele><time>2026-05-02T16:18:02.999Z</time></trkpt><trkpt lat="44.2083040264147" lon="9.963105820972332"><ele>94.0</ele><time>2026-05-02T16:18:03.999Z</time></trkpt><trkpt lat="44.20803714214429" lon="9.96303378652294"><ele>89.0</ele><time>2026-05-02T16:18:04.999Z</time></trkpt><trkpt lat="44.207771686446996" lon="9.962943833221686"><ele>89.0</ele><time>2026-05-02T16:18:05.999Z</time></trkpt><trkpt lat="44.20750793142972" lon="9.962836167611778"><ele>89.0</ele><time>2026-05-02T16:18:06.999Z</time></trkpt><trkpt lat="44.20724768415435" lon="9.962711892483254"><ele>81.5</ele><time>2026-05-02T16:18:07.999Z</time></trkpt><trkpt lat="44.207002758607715" lon="9.962552573170253"><ele>74.0</ele><time>2026-05-02T16:18:08.999Z</time></trkpt><trkpt lat="44.20674911205028" lon="9.962408855103769"><ele>74.0</ele><time>2026-05-02T16:18:09.999Z</time></trkpt><trkpt lat="44.206497721796815" lon="9.962251812165729"><ele>74.0</ele><time>2026-05-02T16:18:10.998Z</time></trkpt><trkpt lat="44.20624879934306" lon="9.962082266378191"><ele>71.0</ele><time>2026-05-02T16:18:11.998Z</time></trkpt><trkpt lat="44.205999323661565" lon="9.961912857777829"><ele>68.0</ele><time>2026-05-02T16:18:12.998Z</time></trkpt><trkpt lat="44.20574692146728" lon="9.961742843986778"><ele>74.0</ele><time>2026-05-02T16:18:13.998Z</time></trkpt><trkpt lat="44.20549320086385" lon="9.961570865135757"><ele>80.0</ele><time>2026-05-02T16:18:14.998Z</time></trkpt><trkpt lat="44.20523930848082" lon="9.961399442365309"><ele>80.0</ele><time>2026-05-02T16:18:15.998Z</time></trkpt><trkpt lat="44.204985043543424" lon="9.961221479501756"><ele>80.0</ele><time>2026-05-02T16:18:16.998Z</time></trkpt><trkpt lat="44.20472975781925" lon="9.961042160946203"><ele>88.0</ele><time>2026-05-02T16:18:17.998Z</time></trkpt><trkpt lat="44.20447577004824" lon="9.960857042166348"><ele>96.0</ele><time>2026-05-02T16:18:18.998Z</time></trkpt><trkpt lat="44.20422486471384" lon="9.960667922640429"><ele>87.5</ele><time>2026-05-02T16:18:19.998Z</time></trkpt><trkpt lat="44.20397034424355" lon="9.960480993888934"><ele>79.0</ele><time>2026-05-02T16:18:20.998Z</time></trkpt><trkpt lat="44.20371483653999" lon="9.960301421928486"><ele>79.0</ele><time>2026-05-02T16:18:21.998Z</time></trkpt><trkpt lat="44.203457533429415" lon="9.96012709698824"><ele>79.0</ele><time>2026-05-02T16:18:22.998Z</time></trkpt><trkpt lat="44.20320031341245" lon="9.959943080991978"><ele>80.0</ele><time>2026-05-02T16:18:23.998Z</time></trkpt><trkpt lat="44.202951011458026" lon="9.959748916297146"><ele>81.0</ele><time>2026-05-02T16:18:24.998Z</time></trkpt><trkpt lat="44.202710320668004" lon="9.959526517557096"><ele>81.0</ele><time>2026-05-02T16:18:25.998Z</time></trkpt><trkpt lat="44.202485906842206" lon="9.95927310683734"><ele>81.0</ele><time>2026-05-02T16:18:26.998Z</time></trkpt><trkpt lat="44.20227805167471" lon="9.958995746739062"><ele>82.5</ele><time>2026-05-02T16:18:27.998Z</time></trkpt><trkpt lat="44.202088045598266" lon="9.958691996068964"><ele>84.0</ele><time>2026-05-02T16:18:28.998Z</time></trkpt><trkpt lat="44.20191110017035" lon="9.958372803718355"><ele>90.0</ele><time>2026-05-02T16:18:29.998Z</time></trkpt><trkpt lat="44.2017607804087" lon="9.958028758606716"><ele>96.0</ele><time>2026-05-02T16:18:30.998Z</time></trkpt><trkpt lat="44.20162718625004" lon="9.957668879288772"><ele>98.5</ele><time>2026-05-02T16:18:31.998Z</time></trkpt><trkpt lat="44.201513697811436" lon="9.95729343051348"><ele>101.0</ele><time>2026-05-02T16:18:32.998Z</time></trkpt><trkpt lat="44.2014176659201" lon="9.956914154774713"><ele>83.0</ele><time>2026-05-02T16:18:33.998Z</time></trkpt><trkpt lat="44.20134608079784" lon="9.95651912826358"><ele>65.0</ele><time>2026-05-02T16:18:34.998Z</time></trkpt><trkpt lat="44.201290533979666" lon="9.956123270442152"><ele>65.5</ele><time>2026-05-02T16:18:35.998Z</time></trkpt><trkpt lat="44.20123405674387" lon="9.955720564607986"><ele>66.0</ele><time>2026-05-02T16:18:36.998Z</time></trkpt><trkpt lat="44.20117109279136" lon="9.95532614910493"><ele>69.5</ele><time>2026-05-02T16:18:37.998Z</time></trkpt><trkpt lat="44.2011026446319" lon="9.954927280854006"><ele>73.0</ele><time>2026-05-02T16:18:38.998Z</time></trkpt><trkpt lat="44.201038089121205" lon="9.954532678608"><ele>77.5</ele><time>2026-05-02T16:18:39.998Z</time></trkpt><trkpt lat="44.200976996274726" lon="9.954137534584225"><ele>82.0</ele><time>2026-05-02T16:18:40.998Z</time></trkpt><trkpt lat="44.20091203816888" lon="9.953727178401925"><ele>87.5</ele><time>2026-05-02T16:18:41.998Z</time></trkpt><trkpt lat="44.20084508316655" lon="9.953339612472712"><ele>93.0</ele><time>2026-05-02T16:18:42.998Z</time></trkpt><trkpt lat="44.200774584375196" lon="9.952934136392091"><ele>93.0</ele><time>2026-05-02T16:18:43.998Z</time></trkpt><trkpt lat="44.20069246463766" lon="9.952548744771407"><ele>93.0</ele><time>2026-05-02T16:18:44.998Z</time></trkpt><trkpt lat="44.200588301291695" lon="9.952162187534498"><ele>81.5</ele><time>2026-05-02T16:18:45.998Z</time></trkpt><trkpt lat="44.20046467894737" lon="9.951783004030213"><ele>70.0</ele><time>2026-05-02T16:18:46.998Z</time></trkpt><trkpt lat="44.200321674954296" lon="9.951422040109609"><ele>70.0</ele><time>2026-05-02T16:18:47.998Z</time></trkpt><trkpt lat="44.200156110402126" lon="9.951077218334428"><ele>70.0</ele><time>2026-05-02T16:18:48.998Z</time></trkpt><trkpt lat="44.19997192062108" lon="9.950750043141731"><ele>67.0</ele><time>2026-05-02T16:18:50Z</time></trkpt><trkpt lat="44.199764517546775" lon="9.95045390720655"><ele>64.0</ele><time>2026-05-02T16:18:51Z</time></trkpt><trkpt lat="44.19954301952945" lon="9.950170538608917"><ele>71.5</ele><time>2026-05-02T16:18:52Z</time></trkpt><trkpt lat="44.199307110129666" lon="9.949916212696898"><ele>79.0</ele><time>2026-05-02T16:18:53Z</time></trkpt><trkpt lat="44.19906380205631" lon="9.949670285133653"><ele>77.5</ele><time>2026-05-02T16:18:54Z</time></trkpt><trkpt lat="44.19881208157427" lon="9.949425535640954"><ele>76.0</ele><time>2026-05-02T16:18:55Z</time></trkpt><trkpt lat="44.19856490790036" lon="9.94918022065774"><ele>76.0</ele><time>2026-05-02T16:18:56Z</time></trkpt><trkpt lat="44.198319834808785" lon="9.948928487703094"><ele>76.0</ele><time>2026-05-02T16:18:57Z</time></trkpt><trkpt lat="44.19807593418963" lon="9.94867499573987"><ele>72.0</ele><time>2026-05-02T16:18:58Z</time></trkpt><trkpt lat="44.19783405228056" lon="9.948417564514463"><ele>68.0</ele><time>2026-05-02T16:18:59Z</time></trkpt><trkpt lat="44.197596990006694" lon="9.948151442865823"><ele>68.0</ele><time>2026-05-02T16:19:00Z</time></trkpt><trkpt lat="44.197370967592484" lon="9.947870840821526"><ele>68.0</ele><time>2026-05-02T16:19:01Z</time></trkpt><trkpt lat="44.19715426211807" lon="9.947580370205424"><ele>64.0</ele><time>2026-05-02T16:19:02Z</time></trkpt><trkpt lat="44.196944163279774" lon="9.947276514027443"><ele>60.0</ele><time>2026-05-02T16:19:03Z</time></trkpt><trkpt lat="44.19674441979471" lon="9.946960402947724"><ele>60.5</ele><time>2026-05-02T16:19:04Z</time></trkpt><trkpt lat="44.196555164711995" lon="9.94663469644671"><ele>61.0</ele><time>2026-05-02T16:19:05Z</time></trkpt><trkpt lat="44.196371920985754" lon="9.946297255071206"><ele>58.5</ele><time>2026-05-02T16:19:06Z</time></trkpt><trkpt lat="44.19620050296006" lon="9.945950682960973"><ele>56.0</ele><time>2026-05-02T16:19:07Z</time></trkpt><trkpt lat="44.19603616392538" lon="9.945599297748712"><ele>56.0</ele><time>2026-05-02T16:19:08Z</time></trkpt><trkpt lat="44.19587384914413" lon="9.945256792976027"><ele>56.0</ele><time>2026-05-02T16:19:09Z</time></trkpt><trkpt lat="44.19570787720759" lon="9.944919148553437"><ele>54.0</ele><time>2026-05-02T16:19:10Z</time></trkpt><trkpt lat="44.19554103975845" lon="9.94459315207618"><ele>52.0</ele><time>2026-05-02T16:19:11Z</time></trkpt><trkpt lat="44.19537816732335" lon="9.94427134830339"><ele>55.5</ele><time>2026-05-02T16:19:12Z</time></trkpt><trkpt lat="44.19521846661731" lon="9.943947570882532"><ele>59.0</ele><time>2026-05-02T16:19:13Z</time></trkpt><trkpt lat="44.19505923243556" lon="9.94362721227924"><ele>57.0</ele><time>2026-05-02T16:19:14Z</time></trkpt><trkpt lat="44.19489821477219" lon="9.943308313667302"><ele>55.0</ele><time>2026-05-02T16:19:15Z</time></trkpt><trkpt lat="44.19473732431326" lon="9.94299459070183"><ele>54.5</ele><time>2026-05-02T16:19:16Z</time></trkpt><trkpt lat="44.194573445601435" lon="9.94268120450103"><ele>54.0</ele><time>2026-05-02T16:19:17Z</time></trkpt><trkpt lat="44.194406840463884" lon="9.942372514431169"><ele>54.0</ele><time>2026-05-02T16:19:18Z</time></trkpt><trkpt lat="44.194234610420665" lon="9.942067190862383"><ele>54.0</ele><time>2026-05-02T16:19:19Z</time></trkpt><trkpt lat="44.19405266549791" lon="9.941775140502456"><ele>51.0</ele><time>2026-05-02T16:19:20Z</time></trkpt><trkpt lat="44.19386072728961" lon="9.941494655388437"><ele>48.0</ele><time>2026-05-02T16:19:21Z</time></trkpt><trkpt lat="44.193665850814625" lon="9.941216975126794"><ele>48.0</ele><time>2026-05-02T16:19:22Z</time></trkpt><trkpt lat="44.19346971752658" lon="9.940939599726667"><ele>48.0</ele><time>2026-05-02T16:19:23Z</time></trkpt><trkpt lat="44.19327429766038" lon="9.940662157297362"><ele>47.0</ele><time>2026-05-02T16:19:24Z</time></trkpt><trkpt lat="44.1930804569847" lon="9.940382013522509"><ele>46.0</ele><time>2026-05-02T16:19:25Z</time></trkpt><trkpt lat="44.192889518525035" lon="9.940100187604493"><ele>49.5</ele><time>2026-05-02T16:19:26Z</time></trkpt><trkpt lat="44.19269616920454" lon="9.939817121074332"><ele>53.0</ele><time>2026-05-02T16:19:27Z</time></trkpt><trkpt lat="44.192501303024464" lon="9.939534022758588"><ele>53.5</ele><time>2026-05-02T16:19:28Z</time></trkpt><trkpt lat="44.192304346885166" lon="9.939248711867448"><ele>54.0</ele><time>2026-05-02T16:19:29Z</time></trkpt><trkpt lat="44.19210602810256" lon="9.938962925804194"><ele>54.0</ele><time>2026-05-02T16:19:30Z</time></trkpt><trkpt lat="44.19190471748674" lon="9.938674770712069"><ele>54.0</ele><time>2026-05-02T16:19:31Z</time></trkpt><trkpt lat="44.19170216049009" lon="9.938384086261756"><ele>53.5</ele><time>2026-05-02T16:19:32Z</time></trkpt><trkpt lat="44.19149661538553" lon="9.938091267807382"><ele>53.0</ele><time>2026-05-02T16:19:33Z</time></trkpt><trkpt lat="44.19128987367763" lon="9.93779925834152"><ele>58.0</ele><time>2026-05-02T16:19:34Z</time></trkpt><trkpt lat="44.19108415264366" lon="9.937509018567303"><ele>63.0</ele><time>2026-05-02T16:19:35Z</time></trkpt><trkpt lat="44.190879432527765" lon="9.937212636643586"><ele>63.0</ele><time>2026-05-02T16:19:36Z</time></trkpt><trkpt lat="44.19067743297165" lon="9.936919895993826"><ele>63.0</ele><time>2026-05-02T16:19:37Z</time></trkpt><trkpt lat="44.19047599277711" lon="9.936626855827347"><ele>63.0</ele><time>2026-05-02T16:19:38Z</time></trkpt><trkpt lat="44.19027708302056" lon="9.936340799208727"><ele>63.0</ele><time>2026-05-02T16:19:39Z</time></trkpt><trkpt lat="44.19008261680936" lon="9.936058817932024"><ele>65.5</ele><time>2026-05-02T16:19:40Z</time></trkpt><trkpt lat="44.18988688937356" lon="9.935778211519787"><ele>68.0</ele><time>2026-05-02T16:19:40.999Z</time></trkpt><trkpt lat="44.18969161233786" lon="9.935503289404325"><ele>68.0</ele><time>2026-05-02T16:19:41.999Z</time></trkpt><trkpt lat="44.18949699043388" lon="9.935225687263568"><ele>68.0</ele><time>2026-05-02T16:19:42.999Z</time></trkpt><trkpt lat="44.189305795814306" lon="9.93495379931832"><ele>70.0</ele><time>2026-05-02T16:19:43.999Z</time></trkpt><trkpt lat="44.1891164509755" lon="9.934682627496745"><ele>72.0</ele><time>2026-05-02T16:19:44.999Z</time></trkpt><trkpt lat="44.18892617076672" lon="9.934411256988794"><ele>71.5</ele><time>2026-05-02T16:19:45.999Z</time></trkpt><trkpt lat="44.18873653564111" lon="9.93413436994849"><ele>71.0</ele><time>2026-05-02T16:19:46.999Z</time></trkpt><trkpt lat="44.18854572862346" lon="9.933852125287013"><ele>71.0</ele><time>2026-05-02T16:19:47.999Z</time></trkpt><trkpt lat="44.188356324483706" lon="9.933576292668869"><ele>71.0</ele><time>2026-05-02T16:19:48.999Z</time></trkpt><trkpt lat="44.188171432339864" lon="9.93329634659816"><ele>64.5</ele><time>2026-05-02T16:19:49.999Z</time></trkpt><trkpt lat="44.18799176565521" lon="9.933010192545462"><ele>58.0</ele><time>2026-05-02T16:19:50.999Z</time></trkpt><trkpt lat="44.18781885004681" lon="9.93271451133681"><ele>58.5</ele><time>2026-05-02T16:19:51.999Z</time></trkpt><trkpt lat="44.187658477378285" lon="9.932404438666738"><ele>59.0</ele><time>2026-05-02T16:19:52.999Z</time></trkpt><trkpt lat="44.18751036148386" lon="9.932086767686261"><ele>59.0</ele><time>2026-05-02T16:19:53.999Z</time></trkpt><trkpt lat="44.187372201874936" lon="9.931763571269622"><ele>59.0</ele><time>2026-05-02T16:19:54.999Z</time></trkpt><trkpt lat="44.18724354797207" lon="9.931428394207835"><ele>54.5</ele><time>2026-05-02T16:19:55.999Z</time></trkpt><trkpt lat="44.18712571010924" lon="9.931085418368008"><ele>50.0</ele><time>2026-05-02T16:19:56.999Z</time></trkpt><trkpt lat="44.18701545648152" lon="9.930730391308913"><ele>50.0</ele><time>2026-05-02T16:19:57.999Z</time></trkpt><trkpt lat="44.186913056261936" lon="9.93037172041575"><ele>50.0</ele><time>2026-05-02T16:19:58.999Z</time></trkpt><trkpt lat="44.18681380772326" lon="9.93000433993332"><ele>50.5</ele><time>2026-05-02T16:19:59.999Z</time></trkpt><trkpt lat="44.18671804990197" lon="9.92962918612944"><ele>51.0</ele><time>2026-05-02T16:20:00.999Z</time></trkpt><trkpt lat="44.186624235734115" lon="9.929251071890471"><ele>50.0</ele><time>2026-05-02T16:20:01.999Z</time></trkpt><trkpt lat="44.186527431258625" lon="9.928873684546058"><ele>49.0</ele><time>2026-05-02T16:20:02.999Z</time></trkpt><trkpt lat="44.186432498458856" lon="9.928500853678296"><ele>44.0</ele><time>2026-05-02T16:20:03.999Z</time></trkpt><trkpt lat="44.186324362526584" lon="9.928108119203628"><ele>39.0</ele><time>2026-05-02T16:20:04.999Z</time></trkpt><trkpt lat="44.18622397418306" lon="9.927726126975687"><ele>40.0</ele><time>2026-05-02T16:20:05.999Z</time></trkpt><trkpt lat="44.18612674197043" lon="9.92734649071822"><ele>41.0</ele><time>2026-05-02T16:20:06.999Z</time></trkpt><trkpt lat="44.18603506355777" lon="9.92697142720035"><ele>38.5</ele><time>2026-05-02T16:20:07.999Z</time></trkpt><trkpt lat="44.185938754355305" lon="9.926598232153253"><ele>36.0</ele><time>2026-05-02T16:20:08.999Z</time></trkpt><trkpt lat="44.18583247847879" lon="9.926233505883081"><ele>38.0</ele><time>2026-05-02T16:20:09.999Z</time></trkpt><trkpt lat="44.18571043819269" lon="9.925879569651002"><ele>40.0</ele><time>2026-05-02T16:20:10.999Z</time></trkpt><trkpt lat="44.185565749633824" lon="9.925541346365561"><ele>45.5</ele><time>2026-05-02T16:20:11.999Z</time></trkpt><trkpt lat="44.18539953875378" lon="9.925219494264443"><ele>51.0</ele><time>2026-05-02T16:20:12.999Z</time></trkpt><trkpt lat="44.18521652306135" lon="9.92491287959623"><ele>51.0</ele><time>2026-05-02T16:20:13.999Z</time></trkpt><trkpt lat="44.18501795808379" lon="9.924623286774242"><ele>51.0</ele><time>2026-05-02T16:20:14.999Z</time></trkpt><trkpt lat="44.18480141250581" lon="9.924357300126871"><ele>46.5</ele><time>2026-05-02T16:20:15.999Z</time></trkpt><trkpt lat="44.184567052442" lon="9.924115461568785"><ele>42.0</ele><time>2026-05-02T16:20:16.999Z</time></trkpt><trkpt lat="44.18431846846447" lon="9.923905748163646"><ele>42.0</ele><time>2026-05-02T16:20:17.999Z</time></trkpt><trkpt lat="44.18405198558954" lon="9.923722079800239"><ele>42.0</ele><time>2026-05-02T16:20:18.999Z</time></trkpt><trkpt lat="44.18376946046538" lon="9.923574016600917"><ele>38.5</ele><time>2026-05-02T16:20:19.999Z</time></trkpt><trkpt lat="44.18348108573859" lon="9.923456653950234"><ele>35.0</ele><time>2026-05-02T16:20:20.999Z</time></trkpt><trkpt lat="44.183185498776645" lon="9.923361786162697"><ele>34.0</ele><time>2026-05-02T16:20:21.999Z</time></trkpt><trkpt lat="44.18288548100687" lon="9.923281668164675"><ele>33.0</ele><time>2026-05-02T16:20:22.999Z</time></trkpt><trkpt lat="44.18258429953758" lon="9.923202185239122"><ele>35.0</ele><time>2026-05-02T16:20:23.999Z</time></trkpt><trkpt lat="44.18228847137541" lon="9.92311533086074"><ele>37.0</ele><time>2026-05-02T16:20:24.999Z</time></trkpt><trkpt lat="44.181997420486134" lon="9.9230166279295"><ele>37.0</ele><time>2026-05-02T16:20:25.999Z</time></trkpt><trkpt lat="44.18171333694818" lon="9.922897340610735"><ele>37.0</ele><time>2026-05-02T16:20:26.999Z</time></trkpt><trkpt lat="44.18142277217061" lon="9.922822812710885"><ele>38.0</ele><time>2026-05-02T16:20:27.999Z</time></trkpt><trkpt lat="44.18113746092128" lon="9.922736658187464"><ele>39.0</ele><time>2026-05-02T16:20:28.999Z</time></trkpt><trkpt lat="44.18085571219968" lon="9.922643372747979"><ele>43.0</ele><time>2026-05-02T16:20:29.999Z</time></trkpt><trkpt lat="44.18057235089009" lon="9.9225453057042"><ele>47.0</ele><time>2026-05-02T16:20:30.999Z</time></trkpt><trkpt lat="44.180287111842965" lon="9.922455435120892"><ele>47.0</ele><time>2026-05-02T16:20:31.999Z</time></trkpt><trkpt lat="44.18000273913387" lon="9.922366799698917"><ele>47.0</ele><time>2026-05-02T16:20:32.999Z</time></trkpt><trkpt lat="44.17971610322112" lon="9.922282254237253"><ele>47.0</ele><time>2026-05-02T16:20:33.999Z</time></trkpt><trkpt lat="44.179426899791444" lon="9.922195091016004"><ele>47.0</ele><time>2026-05-02T16:20:34.999Z</time></trkpt><trkpt lat="44.17914104862297" lon="9.922109385471215"><ele>54.0</ele><time>2026-05-02T16:20:35.998Z</time></trkpt><trkpt lat="44.17885072248744" lon="9.92201666158117"><ele>61.0</ele><time>2026-05-02T16:20:36.998Z</time></trkpt><trkpt lat="44.17856198819944" lon="9.921922478119516"><ele>61.0</ele><time>2026-05-02T16:20:37.998Z</time></trkpt><trkpt lat="44.178273134015704" lon="9.921832797999585"><ele>61.0</ele><time>2026-05-02T16:20:38.998Z</time></trkpt><trkpt lat="44.177985384841264" lon="9.921741685612197"><ele>69.0</ele><time>2026-05-02T16:20:39.998Z</time></trkpt><trkpt lat="44.17769344891807" lon="9.921651296954392"><ele>77.0</ele><time>2026-05-02T16:20:40.998Z</time></trkpt><trkpt lat="44.17740310227748" lon="9.921567851337093"><ele>72.0</ele><time>2026-05-02T16:20:41.998Z</time></trkpt><trkpt lat="44.1771141534459" lon="9.9214864924963"><ele>67.0</ele><time>2026-05-02T16:20:42.998Z</time></trkpt><trkpt lat="44.176822355219954" lon="9.921398594186284"><ele>67.0</ele><time>2026-05-02T16:20:43.998Z</time></trkpt><trkpt lat="44.17652770253482" lon="9.921301546152877"><ele>67.0</ele><time>2026-05-02T16:20:44.998Z</time></trkpt><trkpt lat="44.17623627424662" lon="9.92121409791695"><ele>61.0</ele><time>2026-05-02T16:20:45.998Z</time></trkpt><trkpt lat="44.17601966075144" lon="9.921088375308692"><ele>55.0</ele><time>2026-05-02T16:20:46.998Z</time></trkpt><trkpt lat="44.17572988177013" lon="9.920994545119093"><ele>47.0</ele><time>2026-05-02T16:20:47.998Z</time></trkpt><trkpt lat="44.17545092521036" lon="9.92089355456029"><ele>39.0</ele><time>2026-05-02T16:20:48.998Z</time></trkpt><trkpt lat="44.17517222895074" lon="9.92079897528248"><ele>39.0</ele><time>2026-05-02T16:20:49.998Z</time></trkpt><trkpt lat="44.17489335678283" lon="9.920708033645061"><ele>39.0</ele><time>2026-05-02T16:20:50.998Z</time></trkpt><trkpt lat="44.17461651729214" lon="9.920623773322045"><ele>37.0</ele><time>2026-05-02T16:20:51.998Z</time></trkpt><trkpt lat="44.174345574946415" lon="9.920532773285908"><ele>35.0</ele><time>2026-05-02T16:20:52.998Z</time></trkpt><trkpt lat="44.17408064322598" lon="9.920437758007585"><ele>34.0</ele><time>2026-05-02T16:20:53.998Z</time></trkpt><trkpt lat="44.17381127515953" lon="9.920323895497663"><ele>33.0</ele><time>2026-05-02T16:20:55.001Z</time></trkpt><trkpt lat="44.17355340381888" lon="9.920189200171107"><ele>33.5</ele><time>2026-05-02T16:20:56.001Z</time></trkpt><trkpt lat="44.17330040247261" lon="9.920030682646226"><ele>34.0</ele><time>2026-05-02T16:20:57.001Z</time></trkpt><trkpt lat="44.173047424594024" lon="9.919855755163216"><ele>32.0</ele><time>2026-05-02T16:20:58.001Z</time></trkpt><trkpt lat="44.17279945175911" lon="9.919674391248762"><ele>30.0</ele><time>2026-05-02T16:20:59.001Z</time></trkpt><trkpt lat="44.17255852041104" lon="9.919482572508775"><ele>30.0</ele><time>2026-05-02T16:21:00.001Z</time></trkpt><trkpt lat="44.17231684011662" lon="9.919293866328921"><ele>30.0</ele><time>2026-05-02T16:21:01.001Z</time></trkpt><trkpt lat="44.17206849831341" lon="9.919113653627614"><ele>30.0</ele><time>2026-05-02T16:21:02.001Z</time></trkpt><trkpt lat="44.171823429496335" lon="9.918929970977837"><ele>30.0</ele><time>2026-05-02T16:21:03.001Z</time></trkpt><trkpt lat="44.17157688194014" lon="9.91874137968437"><ele>28.5</ele><time>2026-05-02T16:21:04.001Z</time></trkpt><trkpt lat="44.1713272112066" lon="9.918555936081903"><ele>27.0</ele><time>2026-05-02T16:21:05.001Z</time></trkpt><trkpt lat="44.17107586229768" lon="9.918367532699568"><ele>27.0</ele><time>2026-05-02T16:21:06.001Z</time></trkpt><trkpt lat="44.17082541750091" lon="9.91817773669413"><ele>27.0</ele><time>2026-05-02T16:21:07.001Z</time></trkpt><trkpt lat="44.170580464575856" lon="9.917987826213098"><ele>27.0</ele><time>2026-05-02T16:21:08.001Z</time></trkpt><trkpt lat="44.170334280591035" lon="9.917799567372342"><ele>27.0</ele><time>2026-05-02T16:21:09.001Z</time></trkpt><trkpt lat="44.17008771698472" lon="9.917610343812132"><ele>28.0</ele><time>2026-05-02T16:21:10.001Z</time></trkpt><trkpt lat="44.169842253151906" lon="9.91741889721205"><ele>29.0</ele><time>2026-05-02T16:21:11.001Z</time></trkpt><trkpt lat="44.16959401301434" lon="9.917227684990843"><ele>29.0</ele><time>2026-05-02T16:21:12.001Z</time></trkpt><trkpt lat="44.16934151788881" lon="9.917041961916043"><ele>29.0</ele><time>2026-05-02T16:21:13.001Z</time></trkpt><trkpt lat="44.16908901767033" lon="9.916857254069924"><ele>29.5</ele><time>2026-05-02T16:21:14.001Z</time></trkpt><trkpt lat="44.16883813441312" lon="9.916669780810233"><ele>30.0</ele><time>2026-05-02T16:21:15.001Z</time></trkpt><trkpt lat="44.1685866006806" lon="9.916479848034914"><ele>30.0</ele><time>2026-05-02T16:21:16.001Z</time></trkpt><trkpt lat="44.16833432239278" lon="9.916289609260257"><ele>30.0</ele><time>2026-05-02T16:21:17.001Z</time></trkpt><trkpt lat="44.1680859141266" lon="9.916095421905771"><ele>31.5</ele><time>2026-05-02T16:21:18.001Z</time></trkpt><trkpt lat="44.167833671862965" lon="9.915899877760188"><ele>33.0</ele><time>2026-05-02T16:21:19Z</time></trkpt><trkpt lat="44.167583252050704" lon="9.915699783177635"><ele>33.5</ele><time>2026-05-02T16:21:20Z</time></trkpt><trkpt lat="44.167335961989394" lon="9.915495994472954"><ele>34.0</ele><time>2026-05-02T16:21:20.999Z</time></trkpt><trkpt lat="44.16709207968545" lon="9.915289985370736"><ele>34.0</ele><time>2026-05-02T16:21:21.999Z</time></trkpt><trkpt lat="44.16684903218182" lon="9.915079439281923"><ele>34.0</ele><time>2026-05-02T16:21:22.999Z</time></trkpt><trkpt lat="44.166617347724426" lon="9.914852934660896"><ele>38.5</ele><time>2026-05-02T16:21:23.999Z</time></trkpt><trkpt lat="44.166391974336165" lon="9.914615671603865"><ele>43.0</ele><time>2026-05-02T16:21:24.999Z</time></trkpt><trkpt lat="44.16617329321837" lon="9.914367605755182"><ele>41.5</ele><time>2026-05-02T16:21:25.999Z</time></trkpt><trkpt lat="44.16596824712179" lon="9.914105879436068"><ele>40.0</ele><time>2026-05-02T16:21:26.999Z</time></trkpt><trkpt lat="44.165767384770575" lon="9.91383840835685"><ele>41.5</ele><time>2026-05-02T16:21:27.999Z</time></trkpt><trkpt lat="44.16557651056659" lon="9.913562866990812"><ele>43.0</ele><time>2026-05-02T16:21:28.999Z</time></trkpt><trkpt lat="44.16539325775136" lon="9.913281115539018"><ele>43.0</ele><time>2026-05-02T16:21:29.999Z</time></trkpt><trkpt lat="44.165218074508815" lon="9.912993525392249"><ele>43.0</ele><time>2026-05-02T16:21:30.999Z</time></trkpt><trkpt lat="44.16504790019374" lon="9.912689905411753"><ele>43.0</ele><time>2026-05-02T16:21:31.999Z</time></trkpt><trkpt lat="44.164877802306926" lon="9.912389402374698"><ele>43.0</ele><time>2026-05-02T16:21:32.999Z</time></trkpt><trkpt lat="44.164702610398585" lon="9.912091415109527"><ele>43.0</ele><time>2026-05-02T16:21:33.999Z</time></trkpt><trkpt lat="44.164527818892076" lon="9.911804004228667"><ele>43.0</ele><time>2026-05-02T16:21:34.999Z</time></trkpt><trkpt lat="44.16434818607326" lon="9.911509389830082"><ele>41.0</ele><time>2026-05-02T16:21:35.999Z</time></trkpt><trkpt lat="44.164171333607726" lon="9.911217956352711"><ele>39.0</ele><time>2026-05-02T16:21:36.999Z</time></trkpt><trkpt lat="44.163994424865955" lon="9.91092320634016"><ele>36.0</ele><time>2026-05-02T16:21:37.999Z</time></trkpt><trkpt lat="44.16381985207121" lon="9.910628003499331"><ele>33.0</ele><time>2026-05-02T16:21:38.999Z</time></trkpt><trkpt lat="44.163644728802744" lon="9.910332106311065"><ele>32.5</ele><time>2026-05-02T16:21:39.999Z</time></trkpt><trkpt lat="44.16346792621981" lon="9.910035883265449"><ele>32.0</ele><time>2026-05-02T16:21:40.999Z</time></trkpt><trkpt lat="44.163290446651565" lon="9.909742074517212"><ele>31.0</ele><time>2026-05-02T16:21:41.999Z</time></trkpt><trkpt lat="44.16311520358414" lon="9.90944619355017"><ele>30.0</ele><time>2026-05-02T16:21:42.999Z</time></trkpt><trkpt lat="44.16293719654261" lon="9.90914689566929"><ele>30.0</ele><time>2026-05-02T16:21:43.999Z</time></trkpt><trkpt lat="44.16275644001625" lon="9.908849333675215"><ele>30.0</ele><time>2026-05-02T16:21:44.999Z</time></trkpt><trkpt lat="44.16256993655274" lon="9.908560123219935"><ele>30.0</ele><time>2026-05-02T16:21:45.999Z</time></trkpt><trkpt lat="44.16237880936405" lon="9.908285528899333"><ele>30.0</ele><time>2026-05-02T16:21:46.999Z</time></trkpt><trkpt lat="44.16217468277782" lon="9.908025766912226"><ele>29.0</ele><time>2026-05-02T16:21:47.999Z</time></trkpt><trkpt lat="44.161964278831356" lon="9.907776424421257"><ele>28.0</ele><time>2026-05-02T16:21:48.999Z</time></trkpt><trkpt lat="44.16175408751428" lon="9.907544876318987"><ele>28.0</ele><time>2026-05-02T16:21:49.999Z</time></trkpt><trkpt lat="44.16153651834837" lon="9.907318053597567"><ele>28.0</ele><time>2026-05-02T16:21:50.999Z</time></trkpt><trkpt lat="44.16131464096113" lon="9.907106241562495"><ele>27.0</ele><time>2026-05-02T16:21:51.999Z</time></trkpt><trkpt lat="44.16108860658232" lon="9.906900065291522"><ele>26.0</ele><time>2026-05-02T16:21:52.999Z</time></trkpt><trkpt lat="44.16085250757013" lon="9.906704872658109"><ele>24.5</ele><time>2026-05-02T16:21:53.999Z</time></trkpt><trkpt lat="44.160613616340015" lon="9.906523335321983"><ele>23.0</ele><time>2026-05-02T16:21:54.999Z</time></trkpt><trkpt lat="44.16037661438711" lon="9.906354719610063"><ele>23.0</ele><time>2026-05-02T16:21:55.999Z</time></trkpt><trkpt lat="44.16013936001776" lon="9.906203077242045"><ele>23.0</ele><time>2026-05-02T16:21:56.999Z</time></trkpt><trkpt lat="44.159906222939014" lon="9.906070972496606"><ele>22.5</ele><time>2026-05-02T16:21:57.999Z</time></trkpt><trkpt lat="44.15967595052873" lon="9.905953964223672"><ele>22.0</ele><time>2026-05-02T16:21:58.999Z</time></trkpt><trkpt lat="44.15945566575573" lon="9.905843447104202"><ele>22.0</ele><time>2026-05-02T16:21:59.999Z</time></trkpt><trkpt lat="44.159234516542995" lon="9.905725149574495"><ele>22.0</ele><time>2026-05-02T16:22:00.999Z</time></trkpt><trkpt lat="44.15901950052849" lon="9.905611456508383"><ele>22.0</ele><time>2026-05-02T16:22:01.999Z</time></trkpt><trkpt lat="44.158804201841306" lon="9.905485351208972"><ele>22.0</ele><time>2026-05-02T16:22:02.999Z</time></trkpt><trkpt lat="44.15859378542938" lon="9.905360737691728"><ele>22.0</ele><time>2026-05-02T16:22:03.999Z</time></trkpt><trkpt lat="44.15838411534101" lon="9.90523617996855"><ele>22.0</ele><time>2026-05-02T16:22:04.999Z</time></trkpt><trkpt lat="44.158177774827365" lon="9.905121663419877"><ele>21.0</ele><time>2026-05-02T16:22:05.999Z</time></trkpt><trkpt lat="44.15797246120121" lon="9.905015095380524"><ele>20.0</ele><time>2026-05-02T16:22:06.999Z</time></trkpt><trkpt lat="44.157768117415884" lon="9.90490559780954"><ele>19.0</ele><time>2026-05-02T16:22:07.999Z</time></trkpt><trkpt lat="44.157559853465195" lon="9.904830203262602"><ele>19.0</ele><time>2026-05-02T16:22:08.998Z</time></trkpt><trkpt lat="44.15738118887909" lon="9.904644695547578"><ele>19.0</ele><time>2026-05-02T16:22:09.998Z</time></trkpt><trkpt lat="44.157209690314026" lon="9.90448639704529"><ele>19.0</ele><time>2026-05-02T16:22:10.998Z</time></trkpt><trkpt lat="44.157050163636534" lon="9.904322350919962"><ele>20.666666666666664</ele><time>2026-05-02T16:22:11.998Z</time></trkpt><trkpt lat="44.156894769013874" lon="9.904172491555245"><ele>22.333333333333332</ele><time>2026-05-02T16:22:12.998Z</time></trkpt><trkpt lat="44.15674373818139" lon="9.904035640482096"><ele>24.0</ele><time>2026-05-02T16:22:13.998Z</time></trkpt><trkpt lat="44.15659131429465" lon="9.903919409313685"><ele>23.333333333333332</ele><time>2026-05-02T16:22:14.998Z</time></trkpt><trkpt lat="44.15642898392776" lon="9.903811903846266"><ele>22.666666666666664</ele><time>2026-05-02T16:22:15.998Z</time></trkpt><trkpt lat="44.15625596059685" lon="9.903731808736374"><ele>22.0</ele><time>2026-05-02T16:22:16.998Z</time></trkpt><trkpt lat="44.15606732451548" lon="9.90367832997294"><ele>22.0</ele><time>2026-05-02T16:22:17.998Z</time></trkpt><trkpt lat="44.155875908012476" lon="9.903651850811025"><ele>22.0</ele><time>2026-05-02T16:22:18.998Z</time></trkpt><trkpt lat="44.155679915615174" lon="9.903645895342905"><ele>22.0</ele><time>2026-05-02T16:22:19.998Z</time></trkpt><trkpt lat="44.15548119804829" lon="9.903660071474462"><ele>21.333333333333332</ele><time>2026-05-02T16:22:20.998Z</time></trkpt><trkpt lat="44.15527985525569" lon="9.903689817478755"><ele>20.666666666666668</ele><time>2026-05-02T16:22:21.998Z</time></trkpt><trkpt lat="44.155074509669916" lon="9.90371994035691"><ele>20.0</ele><time>2026-05-02T16:22:22.998Z</time></trkpt><trkpt lat="44.154863396376676" lon="9.903748315103654"><ele>20.0</ele><time>2026-05-02T16:22:23.998Z</time></trkpt><trkpt lat="44.15465409171926" lon="9.903774846002346"><ele>20.0</ele><time>2026-05-02T16:22:24.998Z</time></trkpt><trkpt lat="44.15444449713501" lon="9.903804030719211"><ele>20.0</ele><time>2026-05-02T16:22:25.998Z</time></trkpt><trkpt lat="44.15423927384105" lon="9.903830221927539"><ele>18.333333333333336</ele><time>2026-05-02T16:22:26.998Z</time></trkpt><trkpt lat="44.15402723082002" lon="9.903856481722743"><ele>16.666666666666668</ele><time>2026-05-02T16:22:27.998Z</time></trkpt><trkpt lat="44.15381624280122" lon="9.903881908365063"><ele>15.0</ele><time>2026-05-02T16:22:28.998Z</time></trkpt><trkpt lat="44.15359969626516" lon="9.903905242391124"><ele>15.0</ele><time>2026-05-02T16:22:29.998Z</time></trkpt><trkpt lat="44.15338198411829" lon="9.903927536627206"><ele>15.0</ele><time>2026-05-02T16:22:30.998Z</time></trkpt><trkpt lat="44.15316348160038" lon="9.903951028643888"><ele>15.0</ele><time>2026-05-02T16:22:31.998Z</time></trkpt><trkpt lat="44.152937007031724" lon="9.903976687767303"><ele>16.333333333333332</ele><time>2026-05-02T16:22:32.998Z</time></trkpt><trkpt lat="44.152714129502755" lon="9.90400775307004"><ele>17.666666666666664</ele><time>2026-05-02T16:22:33.998Z</time></trkpt><trkpt lat="44.152492435464914" lon="9.904043044447004"><ele>19.0</ele><time>2026-05-02T16:22:34.998Z</time></trkpt><trkpt lat="44.152266505869406" lon="9.904081969440009"><ele>20.666666666666664</ele><time>2026-05-02T16:22:35.998Z</time></trkpt><trkpt lat="44.15204131872587" lon="9.904119861864007"><ele>22.333333333333332</ele><time>2026-05-02T16:22:36.998Z</time></trkpt><trkpt lat="44.15182206725269" lon="9.904158034282995"><ele>24.0</ele><time>2026-05-02T16:22:37.998Z</time></trkpt><trkpt lat="44.151605024613644" lon="9.904193772682042"><ele>22.333333333333332</ele><time>2026-05-02T16:22:38.998Z</time></trkpt><trkpt lat="44.1513885362169" lon="9.904231526072353"><ele>20.666666666666664</ele><time>2026-05-02T16:22:39.998Z</time></trkpt><trkpt lat="44.15118726652065" lon="9.904292914646735"><ele>19.0</ele><time>2026-05-02T16:22:40.998Z</time></trkpt><trkpt lat="44.15103861318362" lon="9.90433648086011"><ele>19.0</ele><time>2026-05-02T16:22:41.998Z</time></trkpt><trkpt lat="44.15074892714388" lon="9.904439298720332"><ele>19.0</ele><time>2026-05-02T16:22:42.998Z</time></trkpt><trkpt lat="44.15054867271612" lon="9.904546869144767"><ele>19.0</ele><time>2026-05-02T16:22:43.998Z</time></trkpt><trkpt lat="44.15037046207409" lon="9.904692673600485"><ele>19.0</ele><time>2026-05-02T16:22:44.998Z</time></trkpt><trkpt lat="44.150211692665565" lon="9.904847820796894"><ele>19.0</ele><time>2026-05-02T16:22:45.998Z</time></trkpt><trkpt lat="44.15006386244989" lon="9.905021190442872"><ele>18.333333333333332</ele><time>2026-05-02T16:22:46.998Z</time></trkpt><trkpt lat="44.149919375409084" lon="9.905200310045595"><ele>17.666666666666668</ele><time>2026-05-02T16:22:47.998Z</time></trkpt><trkpt lat="44.149764937071616" lon="9.9053822470563"><ele>17.0</ele><time>2026-05-02T16:22:48.998Z</time></trkpt><trkpt lat="44.14960409487858" lon="9.90555764666291"><ele>16.333333333333336</ele><time>2026-05-02T16:22:49.998Z</time></trkpt><trkpt lat="44.14943605260016" lon="9.90572079688903"><ele>15.666666666666668</ele><time>2026-05-02T16:22:50.998Z</time></trkpt><trkpt lat="44.14926525158353" lon="9.905876840728705"><ele>15.0</ele><time>2026-05-02T16:22:51.998Z</time></trkpt><trkpt lat="44.149087598085714" lon="9.906031222296393"><ele>15.0</ele><time>2026-05-02T16:22:52.998Z</time></trkpt><trkpt lat="44.14890842395974" lon="9.906187270770786"><ele>15.0</ele><time>2026-05-02T16:22:53.998Z</time></trkpt><trkpt lat="44.148718011792084" lon="9.906344424964564"><ele>15.0</ele><time>2026-05-02T16:22:54.998Z</time></trkpt><trkpt lat="44.14852360800077" lon="9.906491677545201"><ele>15.0</ele><time>2026-05-02T16:22:55.998Z</time></trkpt><trkpt lat="44.14832571386001" lon="9.906646208057044"><ele>15.0</ele><time>2026-05-02T16:22:56.998Z</time></trkpt><trkpt lat="44.14812365657945" lon="9.906805535632046"><ele>15.0</ele><time>2026-05-02T16:22:57.998Z</time></trkpt><trkpt lat="44.14792379155044" lon="9.906963314490973"><ele>15.0</ele><time>2026-05-02T16:22:58.998Z</time></trkpt><trkpt lat="44.147722551250205" lon="9.90712190352435"><ele>15.0</ele><time>2026-05-02T16:22:59.998Z</time></trkpt><trkpt lat="44.147518174611875" lon="9.907279926711999"><ele>15.0</ele><time>2026-05-02T16:23:01Z</time></trkpt><trkpt lat="44.14731319673043" lon="9.907437978037631"><ele>14.5</ele><time>2026-05-02T16:23:02Z</time></trkpt><trkpt lat="44.14711330414745" lon="9.907602556031366"><ele>14.0</ele><time>2026-05-02T16:23:03Z</time></trkpt><trkpt lat="44.146915140499175" lon="9.907770903983861"><ele>14.0</ele><time>2026-05-02T16:23:04Z</time></trkpt><trkpt lat="44.146721865495635" lon="9.907938621960541"><ele>14.0</ele><time>2026-05-02T16:23:05Z</time></trkpt><trkpt lat="44.146533013179486" lon="9.908104157854146"><ele>13.5</ele><time>2026-05-02T16:23:06Z</time></trkpt><trkpt lat="44.14633602244525" lon="9.90827410512659"><ele>13.0</ele><time>2026-05-02T16:23:07Z</time></trkpt><trkpt lat="44.14612632862445" lon="9.90845049783458"><ele>12.5</ele><time>2026-05-02T16:23:08Z</time></trkpt><trkpt lat="44.14591479414446" lon="9.908611228105382"><ele>12.0</ele><time>2026-05-02T16:23:09Z</time></trkpt><trkpt lat="44.14569390245703" lon="9.908786196399786"><ele>13.5</ele><time>2026-05-02T16:23:10Z</time></trkpt><trkpt lat="44.14546723097894" lon="9.908967805244844"><ele>15.0</ele><time>2026-05-02T16:23:11Z</time></trkpt><trkpt lat="44.14527052538975" lon="9.909111124389606"><ele>15.0</ele><time>2026-05-02T16:23:12Z</time></trkpt><trkpt lat="44.145059185686144" lon="9.909270949152816"><ele>15.0</ele><time>2026-05-02T16:23:13Z</time></trkpt><trkpt lat="44.14483865887612" lon="9.909439792099937"><ele>15.5</ele><time>2026-05-02T16:23:14Z</time></trkpt><trkpt lat="44.14461626935007" lon="9.90961373417837"><ele>16.0</ele><time>2026-05-02T16:23:15Z</time></trkpt><trkpt lat="44.14439598208483" lon="9.909788335834758"><ele>16.0</ele><time>2026-05-02T16:23:16Z</time></trkpt><trkpt lat="44.144189844842074" lon="9.909949071458836"><ele>16.0</ele><time>2026-05-02T16:23:17Z</time></trkpt><trkpt lat="44.1439938467235" lon="9.91010253184214"><ele>17.333333333333332</ele><time>2026-05-02T16:23:18Z</time></trkpt><trkpt lat="44.14380308230092" lon="9.910252124966078"><ele>18.666666666666668</ele><time>2026-05-02T16:23:19Z</time></trkpt><trkpt lat="44.14360706816344" lon="9.910404051916721"><ele>20.0</ele><time>2026-05-02T16:23:20Z</time></trkpt><trkpt lat="44.14341172072064" lon="9.910556050197398"><ele>20.0</ele><time>2026-05-02T16:23:21Z</time></trkpt><trkpt lat="44.14321657783987" lon="9.91070843342486"><ele>20.0</ele><time>2026-05-02T16:23:22Z</time></trkpt><trkpt lat="44.143020316000694" lon="9.91085967797566"><ele>20.0</ele><time>2026-05-02T16:23:23Z</time></trkpt><trkpt lat="44.14282124581349" lon="9.911012825976414"><ele>19.0</ele><time>2026-05-02T16:23:24Z</time></trkpt><trkpt lat="44.142617455832585" lon="9.911170809896133"><ele>18.0</ele><time>2026-05-02T16:23:25Z</time></trkpt><trkpt lat="44.142412688290925" lon="9.911330815671796"><ele>17.0</ele><time>2026-05-02T16:23:26Z</time></trkpt><trkpt lat="44.142208005363926" lon="9.911490704937735"><ele>16.0</ele><time>2026-05-02T16:23:27Z</time></trkpt><trkpt lat="44.142002499901494" lon="9.911654200519255"><ele>15.0</ele><time>2026-05-02T16:23:28Z</time></trkpt><trkpt lat="44.14179832067529" lon="9.911816788957186"><ele>14.0</ele><time>2026-05-02T16:23:29Z</time></trkpt><trkpt lat="44.1415946286462" lon="9.911984429328301"><ele>14.5</ele><time>2026-05-02T16:23:30Z</time></trkpt><trkpt lat="44.141391854008354" lon="9.91215531071248"><ele>15.0</ele><time>2026-05-02T16:23:31Z</time></trkpt><trkpt lat="44.14119061290612" lon="9.912330320414275"><ele>15.0</ele><time>2026-05-02T16:23:32Z</time></trkpt><trkpt lat="44.14098958482648" lon="9.912510614384086"><ele>15.0</ele><time>2026-05-02T16:23:33Z</time></trkpt><trkpt lat="44.14078461026577" lon="9.912699440721193"><ele>15.5</ele><time>2026-05-02T16:23:34Z</time></trkpt><trkpt lat="44.14057334683638" lon="9.912900869794003"><ele>16.0</ele><time>2026-05-02T16:23:35Z</time></trkpt><trkpt lat="44.14035657121421" lon="9.91311286060394"><ele>16.0</ele><time>2026-05-02T16:23:36Z</time></trkpt><trkpt lat="44.140141483062195" lon="9.913332058046404"><ele>16.0</ele><time>2026-05-02T16:23:37Z</time></trkpt><trkpt lat="44.1399271143935" lon="9.913556075220999"><ele>15.0</ele><time>2026-05-02T16:23:38Z</time></trkpt><trkpt lat="44.139715247882805" lon="9.913783458267725"><ele>14.0</ele><time>2026-05-02T16:23:39Z</time></trkpt><trkpt lat="44.13950544810974" lon="9.91401347576657"><ele>13.0</ele><time>2026-05-02T16:23:40Z</time></trkpt><trkpt lat="44.139298930456526" lon="9.914249428103554"><ele>12.0</ele><time>2026-05-02T16:23:41Z</time></trkpt><trkpt lat="44.13909345213957" lon="9.914490425247852"><ele>13.0</ele><time>2026-05-02T16:23:42Z</time></trkpt><trkpt lat="44.13888929642253" lon="9.914737185427105"><ele>14.0</ele><time>2026-05-02T16:23:43Z</time></trkpt><trkpt lat="44.13868408347145" lon="9.914989990803356"><ele>14.0</ele><time>2026-05-02T16:23:44Z</time></trkpt><trkpt lat="44.13847844285245" lon="9.915246690561244"><ele>14.0</ele><time>2026-05-02T16:23:44.999Z</time></trkpt><trkpt lat="44.13827230379208" lon="9.915510479341062"><ele>14.0</ele><time>2026-05-02T16:23:45.999Z</time></trkpt><trkpt lat="44.138062585287095" lon="9.915783649908015"><ele>14.0</ele><time>2026-05-02T16:23:46.999Z</time></trkpt><trkpt lat="44.13784970330305" lon="9.916058279016323"><ele>14.5</ele><time>2026-05-02T16:23:47.999Z</time></trkpt><trkpt lat="44.13763487242188" lon="9.916330738129515"><ele>15.0</ele><time>2026-05-02T16:23:48.999Z</time></trkpt><trkpt lat="44.13742043615673" lon="9.916603233116367"><ele>14.0</ele><time>2026-05-02T16:23:49.999Z</time></trkpt><trkpt lat="44.137205362987544" lon="9.916878094223529"><ele>13.0</ele><time>2026-05-02T16:23:50.999Z</time></trkpt><trkpt lat="44.13699035561345" lon="9.917160258536326"><ele>13.0</ele><time>2026-05-02T16:23:51.999Z</time></trkpt><trkpt lat="44.13677716258077" lon="9.917439587983381"><ele>13.0</ele><time>2026-05-02T16:23:52.999Z</time></trkpt><trkpt lat="44.136562320699085" lon="9.917717720378747"><ele>12.0</ele><time>2026-05-02T16:23:53.999Z</time></trkpt><trkpt lat="44.13634405339465" lon="9.917997119100043"><ele>11.0</ele><time>2026-05-02T16:23:54.999Z</time></trkpt><trkpt lat="44.136126414112745" lon="9.918276846826778"><ele>10.0</ele><time>2026-05-02T16:23:55.999Z</time></trkpt><trkpt lat="44.135910134019426" lon="9.91855955700211"><ele>9.0</ele><time>2026-05-02T16:23:56.999Z</time></trkpt><trkpt lat="44.13569196750994" lon="9.918842980724294"><ele>11.5</ele><time>2026-05-02T16:23:57.999Z</time></trkpt><trkpt lat="44.135472399061705" lon="9.919124133694078"><ele>14.0</ele><time>2026-05-02T16:23:58.999Z</time></trkpt><trkpt lat="44.1352516119124" lon="9.919401581164411"><ele>14.0</ele><time>2026-05-02T16:23:59.999Z</time></trkpt><trkpt lat="44.13503201310886" lon="9.919678416643233"><ele>14.0</ele><time>2026-05-02T16:24:00.999Z</time></trkpt><trkpt lat="44.13481168821063" lon="9.91995478673881"><ele>11.5</ele><time>2026-05-02T16:24:01.999Z</time></trkpt><trkpt lat="44.13459426254021" lon="9.920229578926389"><ele>9.0</ele><time>2026-05-02T16:24:02.999Z</time></trkpt><trkpt lat="44.13437281945612" lon="9.920505281863523"><ele>9.0</ele><time>2026-05-02T16:24:03.999Z</time></trkpt><trkpt lat="44.13414746333924" lon="9.920785888627114"><ele>9.0</ele><time>2026-05-02T16:24:04.999Z</time></trkpt><trkpt lat="44.13392593268477" lon="9.921063918553461"><ele>9.5</ele><time>2026-05-02T16:24:05.999Z</time></trkpt><trkpt lat="44.13370324347564" lon="9.921345304551556"><ele>10.0</ele><time>2026-05-02T16:24:06.999Z</time></trkpt><trkpt lat="44.133481791281056" lon="9.921627784978336"><ele>10.5</ele><time>2026-05-02T16:24:07.999Z</time></trkpt><trkpt lat="44.13326168116573" lon="9.921910429764877"><ele>11.0</ele><time>2026-05-02T16:24:08.999Z</time></trkpt><trkpt lat="44.13303948534009" lon="9.922193199755723"><ele>11.5</ele><time>2026-05-02T16:24:09.999Z</time></trkpt><trkpt lat="44.13281504695096" lon="9.92247533920537"><ele>12.0</ele><time>2026-05-02T16:24:10.999Z</time></trkpt><trkpt lat="44.13259127384504" lon="9.922761071569665"><ele>12.0</ele><time>2026-05-02T16:24:11.999Z</time></trkpt><trkpt lat="44.13236723296824" lon="9.923049005850123"><ele>12.0</ele><time>2026-05-02T16:24:12.999Z</time></trkpt><trkpt lat="44.13213977917598" lon="9.923338964989565"><ele>12.5</ele><time>2026-05-02T16:24:13.999Z</time></trkpt><trkpt lat="44.13190919402371" lon="9.923633418179556"><ele>13.0</ele><time>2026-05-02T16:24:14.999Z</time></trkpt><trkpt lat="44.1316812594346" lon="9.923928753529063"><ele>12.5</ele><time>2026-05-02T16:24:15.999Z</time></trkpt><trkpt lat="44.13145486333283" lon="9.924222421118595"><ele>12.0</ele><time>2026-05-02T16:24:16.999Z</time></trkpt><trkpt lat="44.131229281475996" lon="9.924515267795243"><ele>12.0</ele><time>2026-05-02T16:24:17.999Z</time></trkpt><trkpt lat="44.13100249467457" lon="9.924807245346889"><ele>12.0</ele><time>2026-05-02T16:24:18.999Z</time></trkpt><trkpt lat="44.13077517361315" lon="9.925096455296234"><ele>11.5</ele><time>2026-05-02T16:24:19.999Z</time></trkpt><trkpt lat="44.13054973732646" lon="9.925384198469246"><ele>11.0</ele><time>2026-05-02T16:24:20.999Z</time></trkpt><trkpt lat="44.130324792694225" lon="9.925673996461366"><ele>11.5</ele><time>2026-05-02T16:24:21.999Z</time></trkpt><trkpt lat="44.13009855061196" lon="9.925965646070493"><ele>12.0</ele><time>2026-05-02T16:24:22.999Z</time></trkpt><trkpt lat="44.12987645786132" lon="9.926253308788839"><ele>12.0</ele><time>2026-05-02T16:24:23.999Z</time></trkpt><trkpt lat="44.12965452476576" lon="9.92654125164053"><ele>12.0</ele><time>2026-05-02T16:24:24.999Z</time></trkpt><trkpt lat="44.12943111781499" lon="9.926828453911359"><ele>12.0</ele><time>2026-05-02T16:24:25.999Z</time></trkpt><trkpt lat="44.129206804366945" lon="9.92711516008441"><ele>12.0</ele><time>2026-05-02T16:24:26.999Z</time></trkpt><trkpt lat="44.128984453952356" lon="9.927399115898817"><ele>12.0</ele><time>2026-05-02T16:24:27.999Z</time></trkpt><trkpt lat="44.12876167127058" lon="9.927684340896581"><ele>12.0</ele><time>2026-05-02T16:24:28.999Z</time></trkpt><trkpt lat="44.12853695713531" lon="9.927972082887884"><ele>12.0</ele><time>2026-05-02T16:24:29.999Z</time></trkpt><trkpt lat="44.12831877717098" lon="9.928252008856782"><ele>12.0</ele><time>2026-05-02T16:24:30.999Z</time></trkpt><trkpt lat="44.12809845741652" lon="9.928535535262572"><ele>10.5</ele><time>2026-05-02T16:24:31.999Z</time></trkpt><trkpt lat="44.127879193858455" lon="9.928817610988107"><ele>9.0</ele><time>2026-05-02T16:24:32.999Z</time></trkpt><trkpt lat="44.12766181409707" lon="9.929096791818424"><ele>10.0</ele><time>2026-05-02T16:24:33.999Z</time></trkpt><trkpt lat="44.127446867449684" lon="9.92937012260688"><ele>11.0</ele><time>2026-05-02T16:24:34.998Z</time></trkpt><trkpt lat="44.12722501236126" lon="9.929650175543642"><ele>11.0</ele><time>2026-05-02T16:24:35.998Z</time></trkpt><trkpt lat="44.12700637867876" lon="9.929931324283874"><ele>11.0</ele><time>2026-05-02T16:24:36.998Z</time></trkpt><trkpt lat="44.12679042273965" lon="9.930211573709434"><ele>11.0</ele><time>2026-05-02T16:24:37.998Z</time></trkpt><trkpt lat="44.12657549222338" lon="9.930486726574507"><ele>11.0</ele><time>2026-05-02T16:24:38.998Z</time></trkpt><trkpt lat="44.126358346261" lon="9.93076468236236"><ele>11.5</ele><time>2026-05-02T16:24:39.998Z</time></trkpt><trkpt lat="44.12614159865396" lon="9.931047137436247"><ele>12.0</ele><time>2026-05-02T16:24:40.998Z</time></trkpt><trkpt lat="44.125925954256104" lon="9.931326100643473"><ele>10.5</ele><time>2026-05-02T16:24:41.998Z</time></trkpt><trkpt lat="44.12570867122493" lon="9.93160728982442"><ele>9.0</ele><time>2026-05-02T16:24:42.998Z</time></trkpt><trkpt lat="44.12549401788201" lon="9.931886786801066"><ele>9.0</ele><time>2026-05-02T16:24:43.998Z</time></trkpt><trkpt lat="44.125276608623125" lon="9.93216935359646"><ele>9.0</ele><time>2026-05-02T16:24:44.998Z</time></trkpt><trkpt lat="44.1250595470274" lon="9.932448035307766"><ele>10.0</ele><time>2026-05-02T16:24:45.998Z</time></trkpt><trkpt lat="44.12484093548497" lon="9.932725089091186"><ele>11.0</ele><time>2026-05-02T16:24:46.998Z</time></trkpt><trkpt lat="44.124621645365664" lon="9.933003889411678"><ele>11.0</ele><time>2026-05-02T16:24:47.998Z</time></trkpt><trkpt lat="44.12440167667968" lon="9.933279216033695"><ele>11.0</ele><time>2026-05-02T16:24:48.998Z</time></trkpt><trkpt lat="44.124178530892955" lon="9.933552848227446"><ele>10.5</ele><time>2026-05-02T16:24:49.998Z</time></trkpt><trkpt lat="44.12395002345015" lon="9.933820352759868"><ele>10.0</ele><time>2026-05-02T16:24:50.998Z</time></trkpt><trkpt lat="44.123721214721506" lon="9.934078274082543"><ele>10.0</ele><time>2026-05-02T16:24:51.998Z</time></trkpt><trkpt lat="44.12349002893522" lon="9.934331009018885"><ele>10.0</ele><time>2026-05-02T16:24:52.998Z</time></trkpt><trkpt lat="44.12325583891282" lon="9.934578867654208"><ele>9.5</ele><time>2026-05-02T16:24:53.998Z</time></trkpt><trkpt lat="44.12301580245142" lon="9.934826135136184"><ele>9.0</ele><time>2026-05-02T16:24:54.998Z</time></trkpt><trkpt lat="44.1227737472018" lon="9.935065446653642"><ele>9.0</ele><time>2026-05-02T16:24:55.998Z</time></trkpt><trkpt lat="44.1225299011842" lon="9.935296727475658"><ele>9.0</ele><time>2026-05-02T16:24:56.998Z</time></trkpt><trkpt lat="44.12228447821729" lon="9.935520335471237"><ele>9.0</ele><time>2026-05-02T16:24:57.998Z</time></trkpt><trkpt lat="44.12203368015081" lon="9.935741271750496"><ele>9.0</ele><time>2026-05-02T16:24:58.998Z</time></trkpt><trkpt lat="44.12177934546145" lon="9.935961631158474"><ele>8.5</ele><time>2026-05-02T16:24:59.998Z</time></trkpt><trkpt lat="44.121523469583664" lon="9.936174845980384"><ele>8.0</ele><time>2026-05-02T16:25:00.998Z</time></trkpt><trkpt lat="44.12126253630165" lon="9.936380002824688"><ele>8.0</ele><time>2026-05-02T16:25:01.998Z</time></trkpt><trkpt lat="44.12099995108777" lon="9.93657871724283"><ele>8.0</ele><time>2026-05-02T16:25:02.998Z</time></trkpt><trkpt lat="44.12073556666509" lon="9.93677316631264"><ele>8.5</ele><time>2026-05-02T16:25:03.998Z</time></trkpt><trkpt lat="44.12046683901969" lon="9.936965257643523"><ele>9.0</ele><time>2026-05-02T16:25:04.998Z</time></trkpt><trkpt lat="44.12020363551652" lon="9.937144839245713"><ele>9.0</ele><time>2026-05-02T16:25:05.998Z</time></trkpt><trkpt lat="44.119938140920496" lon="9.937316126701235"><ele>9.0</ele><time>2026-05-02T16:25:07.001Z</time></trkpt><trkpt lat="44.119678151955895" lon="9.93747891211825"><ele>10.0</ele><time>2026-05-02T16:25:08.001Z</time></trkpt><trkpt lat="44.119423825765345" lon="9.937631676944182"><ele>11.0</ele><time>2026-05-02T16:25:09.001Z</time></trkpt><trkpt lat="44.11917292077646" lon="9.937777918313596"><ele>10.5</ele><time>2026-05-02T16:25:10.001Z</time></trkpt><trkpt lat="44.1189250620971" lon="9.937919178879202"><ele>10.0</ele><time>2026-05-02T16:25:11.001Z</time></trkpt><trkpt lat="44.11868352910968" lon="9.93805907589028"><ele>10.0</ele><time>2026-05-02T16:25:12.001Z</time></trkpt><trkpt lat="44.11845109597579" lon="9.938191720262612"><ele>10.0</ele><time>2026-05-02T16:25:13.001Z</time></trkpt><trkpt lat="44.118232054636174" lon="9.93831663331327"><ele>10.0</ele><time>2026-05-02T16:25:14.001Z</time></trkpt><trkpt lat="44.118023081997514" lon="9.938439703299311"><ele>10.0</ele><time>2026-05-02T16:25:15.001Z</time></trkpt><trkpt lat="44.11781614667579" lon="9.93856337743313"><ele>10.0</ele><time>2026-05-02T16:25:16.001Z</time></trkpt><trkpt lat="44.117617641521655" lon="9.938680788327211"><ele>10.0</ele><time>2026-05-02T16:25:17.001Z</time></trkpt><trkpt lat="44.11742713438038" lon="9.938793679365391"><ele>10.0</ele><time>2026-05-02T16:25:18Z</time></trkpt><trkpt lat="44.117245835044514" lon="9.93890563985872"><ele>9.666666666666668</ele><time>2026-05-02T16:25:19Z</time></trkpt><trkpt lat="44.117065064718425" lon="9.939013538841145"><ele>9.333333333333334</ele><time>2026-05-02T16:25:20Z</time></trkpt><trkpt lat="44.116879553755275" lon="9.939120336621206"><ele>9.0</ele><time>2026-05-02T16:25:21Z</time></trkpt><trkpt lat="44.11668742937053" lon="9.939238435823723"><ele>9.0</ele><time>2026-05-02T16:25:22Z</time></trkpt><trkpt lat="44.1164845042086" lon="9.939361530754507"><ele>9.0</ele><time>2026-05-02T16:25:23Z</time></trkpt><trkpt lat="44.11628120531878" lon="9.939482124053653"><ele>9.0</ele><time>2026-05-02T16:25:24Z</time></trkpt><trkpt lat="44.116075865081044" lon="9.93960804723601"><ele>9.0</ele><time>2026-05-02T16:25:25Z</time></trkpt><trkpt lat="44.11586898029251" lon="9.939736902695891"><ele>9.0</ele><time>2026-05-02T16:25:26Z</time></trkpt><trkpt lat="44.115656398896924" lon="9.939881369070033"><ele>8.5</ele><time>2026-05-02T16:25:27Z</time></trkpt><trkpt lat="44.115426508047285" lon="9.940025574952168"><ele>8.0</ele><time>2026-05-02T16:25:28Z</time></trkpt><trkpt lat="44.115181869757265" lon="9.940171812277718"><ele>7.5</ele><time>2026-05-02T16:25:29Z</time></trkpt><trkpt lat="44.11492433420106" lon="9.94032105283744"><ele>7.0</ele><time>2026-05-02T16:25:30Z</time></trkpt><trkpt lat="44.11465364242607" lon="9.940476051373683"><ele>7.0</ele><time>2026-05-02T16:25:31Z</time></trkpt><trkpt lat="44.11436805381923" lon="9.940636308173445"><ele>7.0</ele><time>2026-05-02T16:25:32Z</time></trkpt><trkpt lat="44.11406798946162" lon="9.940808572535234"><ele>7.5</ele><time>2026-05-02T16:25:33Z</time></trkpt><trkpt lat="44.113760486086385" lon="9.940990334814165"><ele>8.0</ele><time>2026-05-02T16:25:34Z</time></trkpt><trkpt lat="44.11345573217445" lon="9.941170246029058"><ele>8.0</ele><time>2026-05-02T16:25:35Z</time></trkpt><trkpt lat="44.113152967537275" lon="9.941346113061167"><ele>8.0</ele><time>2026-05-02T16:25:36Z</time></trkpt><trkpt lat="44.11285731319354" lon="9.94150763967265"><ele>8.0</ele><time>2026-05-02T16:25:37Z</time></trkpt><trkpt lat="44.112566391437554" lon="9.941674038688731"><ele>8.0</ele><time>2026-05-02T16:25:38Z</time></trkpt><trkpt lat="44.11228223505649" lon="9.941838420354859"><ele>9.0</ele><time>2026-05-02T16:25:39Z</time></trkpt><trkpt lat="44.11199753937712" lon="9.942003242634534"><ele>10.0</ele><time>2026-05-02T16:25:40Z</time></trkpt><trkpt lat="44.11170873933943" lon="9.942171288587573"><ele>10.0</ele><time>2026-05-02T16:25:41Z</time></trkpt><trkpt lat="44.11143088165444" lon="9.942329254271115"><ele>10.0</ele><time>2026-05-02T16:25:42Z</time></trkpt><trkpt lat="44.1111499281836" lon="9.942490422156531"><ele>10.0</ele><time>2026-05-02T16:25:43Z</time></trkpt><trkpt lat="44.11075702051362" lon="9.942740068504612"><ele>10.0</ele><time>2026-05-02T16:25:44Z</time></trkpt><trkpt lat="44.110468733989094" lon="9.942905502102464"><ele>11.0</ele><time>2026-05-02T16:25:45Z</time></trkpt><trkpt lat="44.11019038083521" lon="9.943052418269733"><ele>12.0</ele><time>2026-05-02T16:25:46Z</time></trkpt><trkpt lat="44.109924335364816" lon="9.943192509637283"><ele>11.5</ele><time>2026-05-02T16:25:47Z</time></trkpt><trkpt lat="44.109665101005746" lon="9.943333851615291"><ele>11.0</ele><time>2026-05-02T16:25:48Z</time></trkpt><trkpt lat="44.109407791646035" lon="9.943480073858133"><ele>10.5</ele><time>2026-05-02T16:25:49Z</time></trkpt><trkpt lat="44.10915675520678" lon="9.943628320848921"><ele>10.0</ele><time>2026-05-02T16:25:50Z</time></trkpt><trkpt lat="44.10891108933331" lon="9.943774328233065"><ele>9.5</ele><time>2026-05-02T16:25:51Z</time></trkpt><trkpt lat="44.10866844605862" lon="9.943916473826075"><ele>9.0</ele><time>2026-05-02T16:25:52Z</time></trkpt><trkpt lat="44.10842893969671" lon="9.944057470681079"><ele>9.0</ele><time>2026-05-02T16:25:53Z</time></trkpt><trkpt lat="44.108191861073415" lon="9.944195452770607"><ele>9.0</ele><time>2026-05-02T16:25:53.999Z</time></trkpt><trkpt lat="44.1079555768111" lon="9.944330302007847"><ele>8.5</ele><time>2026-05-02T16:25:54.999Z</time></trkpt><trkpt lat="44.10771955434043" lon="9.944471333460532"><ele>8.0</ele><time>2026-05-02T16:25:55.999Z</time></trkpt><trkpt lat="44.10748114644484" lon="9.944611474836245"><ele>7.5</ele><time>2026-05-02T16:25:56.999Z</time></trkpt><trkpt lat="44.10724186826323" lon="9.944756583451783"><ele>7.0</ele><time>2026-05-02T16:25:57.999Z</time></trkpt><trkpt lat="44.10700106144634" lon="9.944909761981817"><ele>7.0</ele><time>2026-05-02T16:25:58.999Z</time></trkpt><trkpt lat="44.10676205479386" lon="9.945076103281174"><ele>7.0</ele><time>2026-05-02T16:25:59.999Z</time></trkpt><trkpt lat="44.106522124473166" lon="9.945250869967873"><ele>7.0</ele><time>2026-05-02T16:26:00.999Z</time></trkpt><trkpt lat="44.10628150611312" lon="9.94543356109914"><ele>7.0</ele><time>2026-05-02T16:26:01.999Z</time></trkpt><trkpt lat="44.1060410741058" lon="9.94561921059876"><ele>7.0</ele><time>2026-05-02T16:26:02.999Z</time></trkpt><trkpt lat="44.10580316873513" lon="9.945808324312601"><ele>7.0</ele><time>2026-05-02T16:26:03.999Z</time></trkpt><trkpt lat="44.10556631145375" lon="9.946013299671856"><ele>8.0</ele><time>2026-05-02T16:26:04.999Z</time></trkpt><trkpt lat="44.10533283145623" lon="9.946229734951231"><ele>9.0</ele><time>2026-05-02T16:26:05.999Z</time></trkpt><trkpt lat="44.10510084468343" lon="9.946452694473093"><ele>8.5</ele><time>2026-05-02T16:26:06.999Z</time></trkpt><trkpt lat="44.10487346785834" lon="9.946679978293956"><ele>8.0</ele><time>2026-05-02T16:26:07.999Z</time></trkpt><trkpt lat="44.10465135445389" lon="9.946913892317278"><ele>9.0</ele><time>2026-05-02T16:26:08.999Z</time></trkpt><trkpt lat="44.104433083924775" lon="9.94715388823043"><ele>10.0</ele><time>2026-05-02T16:26:09.999Z</time></trkpt><trkpt lat="44.104216884235356" lon="9.947401350496817"><ele>9.0</ele><time>2026-05-02T16:26:10.999Z</time></trkpt><trkpt lat="44.1040016553836" lon="9.947649758008218"><ele>8.0</ele><time>2026-05-02T16:26:11.999Z</time></trkpt><trkpt lat="44.10379040238503" lon="9.947910386216925"><ele>8.0</ele><time>2026-05-02T16:26:12.999Z</time></trkpt><trkpt lat="44.1035835102258" lon="9.948179067805793"><ele>8.0</ele><time>2026-05-02T16:26:13.999Z</time></trkpt><trkpt lat="44.103379825948714" lon="9.948457397668669"><ele>6.5</ele><time>2026-05-02T16:26:14.999Z</time></trkpt><trkpt lat="44.10317973831128" lon="9.94873212599516"><ele>5.0</ele><time>2026-05-02T16:26:15.999Z</time></trkpt><trkpt lat="44.10298193783741" lon="9.949016291931162"><ele>5.5</ele><time>2026-05-02T16:26:16.999Z</time></trkpt><trkpt lat="44.10278839386879" lon="9.949312618842637"><ele>6.0</ele><time>2026-05-02T16:26:17.999Z</time></trkpt><trkpt lat="44.10259911515131" lon="9.949608302790887"><ele>6.0</ele><time>2026-05-02T16:26:18.999Z</time></trkpt><trkpt lat="44.102416716336755" lon="9.949919158451392"><ele>6.0</ele><time>2026-05-02T16:26:19.999Z</time></trkpt><trkpt lat="44.10223746229689" lon="9.950224355953866"><ele>7.5</ele><time>2026-05-02T16:26:20.999Z</time></trkpt><trkpt lat="44.102065129463924" lon="9.950544538272108"><ele>9.0</ele><time>2026-05-02T16:26:21.999Z</time></trkpt><trkpt lat="44.10189479874442" lon="9.950867039174394"><ele>9.0</ele><time>2026-05-02T16:26:22.999Z</time></trkpt><trkpt lat="44.10172731253994" lon="9.95119150877746"><ele>9.0</ele><time>2026-05-02T16:26:23.999Z</time></trkpt><trkpt lat="44.101563593884045" lon="9.951516947840748"><ele>9.5</ele><time>2026-05-02T16:26:24.999Z</time></trkpt><trkpt lat="44.10140344152408" lon="9.951849937995158"><ele>10.0</ele><time>2026-05-02T16:26:25.999Z</time></trkpt><trkpt lat="44.101243522730314" lon="9.95218851375896"><ele>10.0</ele><time>2026-05-02T16:26:26.999Z</time></trkpt><trkpt lat="44.101080433179476" lon="9.952511441880446"><ele>10.0</ele><time>2026-05-02T16:26:27.999Z</time></trkpt><trkpt lat="44.10091779456914" lon="9.95284003607695"><ele>8.5</ele><time>2026-05-02T16:26:28.999Z</time></trkpt><trkpt lat="44.10075228241551" lon="9.953170140293844"><ele>7.0</ele><time>2026-05-02T16:26:29.999Z</time></trkpt><trkpt lat="44.10058876077937" lon="9.953492754612983"><ele>6.0</ele><time>2026-05-02T16:26:30.999Z</time></trkpt><trkpt lat="44.10043296761777" lon="9.953813823882745"><ele>5.0</ele><time>2026-05-02T16:26:31.999Z</time></trkpt><trkpt lat="44.10027757538236" lon="9.954123575042129"><ele>4.5</ele><time>2026-05-02T16:26:32.999Z</time></trkpt><trkpt lat="44.10013850257918" lon="9.954415426835226"><ele>4.0</ele><time>2026-05-02T16:26:33.999Z</time></trkpt><trkpt lat="44.10000489286089" lon="9.95470963794776"><ele>4.0</ele><time>2026-05-02T16:26:34.999Z</time></trkpt><trkpt lat="44.099877448417615" lon="9.955016404743311"><ele>4.0</ele><time>2026-05-02T16:26:35.999Z</time></trkpt><trkpt lat="44.0997357643492" lon="9.955327441691491"><ele>4.0</ele><time>2026-05-02T16:26:36.999Z</time></trkpt><trkpt lat="44.09957405806065" lon="9.955646761490687"><ele>4.0</ele><time>2026-05-02T16:26:37.999Z</time></trkpt><trkpt lat="44.099411629953046" lon="9.955974145777798"><ele>4.0</ele><time>2026-05-02T16:26:38.999Z</time></trkpt><trkpt lat="44.09924798375665" lon="9.956309806091747"><ele>4.0</ele><time>2026-05-02T16:26:39.998Z</time></trkpt><trkpt lat="44.09908182784071" lon="9.956648263534992"><ele>4.0</ele><time>2026-05-02T16:26:40.998Z</time></trkpt><trkpt lat="44.09891484547932" lon="9.956986494273899"><ele>4.0</ele><time>2026-05-02T16:26:41.998Z</time></trkpt><trkpt lat="44.09874740872245" lon="9.957325151817129"><ele>4.5</ele><time>2026-05-02T16:26:42.998Z</time></trkpt><trkpt lat="44.09857774959883" lon="9.957664738641101"><ele>5.0</ele><time>2026-05-02T16:26:43.998Z</time></trkpt><trkpt lat="44.09840569878889" lon="9.958005850348778"><ele>4.0</ele><time>2026-05-02T16:26:44.998Z</time></trkpt><trkpt lat="44.098237457908894" lon="9.958344043586939"><ele>3.0</ele><time>2026-05-02T16:26:45.998Z</time></trkpt><trkpt lat="44.09807066223978" lon="9.95868615297876"><ele>3.0</ele><time>2026-05-02T16:26:46.998Z</time></trkpt><trkpt lat="44.09790312617791" lon="9.959030314699255"><ele>3.0</ele><time>2026-05-02T16:26:47.998Z</time></trkpt><trkpt lat="44.0977363424882" lon="9.95937441956415"><ele>3.5</ele><time>2026-05-02T16:26:48.998Z</time></trkpt><trkpt lat="44.09757286095648" lon="9.95971488099277"><ele>4.0</ele><time>2026-05-02T16:26:49.998Z</time></trkpt><trkpt lat="44.09740873086434" lon="9.960054713156287"><ele>4.0</ele><time>2026-05-02T16:26:50.998Z</time></trkpt><trkpt lat="44.097243113484645" lon="9.960391712177035"><ele>4.0</ele><time>2026-05-02T16:26:51.998Z</time></trkpt><trkpt lat="44.09707465996491" lon="9.960727299483077"><ele>4.5</ele><time>2026-05-02T16:26:52.998Z</time></trkpt><trkpt lat="44.09690755295556" lon="9.961061418901744"><ele>5.0</ele><time>2026-05-02T16:26:53.998Z</time></trkpt><trkpt lat="44.09673875070826" lon="9.961394326904342"><ele>5.5</ele><time>2026-05-02T16:26:54.998Z</time></trkpt><trkpt lat="44.09656472413158" lon="9.961731188483192"><ele>6.0</ele><time>2026-05-02T16:26:55.998Z</time></trkpt><trkpt lat="44.09639167408138" lon="9.962055674073527"><ele>6.0</ele><time>2026-05-02T16:26:56.998Z</time></trkpt><trkpt lat="44.0962095871421" lon="9.962381462417884"><ele>6.0</ele><time>2026-05-02T16:26:57.998Z</time></trkpt><trkpt lat="44.096027535690915" lon="9.9627050191505"><ele>6.0</ele><time>2026-05-02T16:26:58.998Z</time></trkpt><trkpt lat="44.09584170915231" lon="9.963024885319767"><ele>6.0</ele><time>2026-05-02T16:26:59.998Z</time></trkpt><trkpt lat="44.095654220615124" lon="9.963344217838083"><ele>5.5</ele><time>2026-05-02T16:27:00.998Z</time></trkpt><trkpt lat="44.09546636896646" lon="9.963662683316054"><ele>5.0</ele><time>2026-05-02T16:27:01.998Z</time></trkpt><trkpt lat="44.095273885056216" lon="9.963979388909845"><ele>4.5</ele><time>2026-05-02T16:27:02.998Z</time></trkpt><trkpt lat="44.095077734644846" lon="9.964291832466312"><ele>4.0</ele><time>2026-05-02T16:27:03.998Z</time></trkpt><trkpt lat="44.09488114766662" lon="9.964602281719605"><ele>4.5</ele><time>2026-05-02T16:27:04.998Z</time></trkpt><trkpt lat="44.094682019358714" lon="9.964909424360041"><ele>5.0</ele><time>2026-05-02T16:27:05.998Z</time></trkpt><trkpt lat="44.09448267209122" lon="9.965212928305743"><ele>5.0</ele><time>2026-05-02T16:27:06.998Z</time></trkpt><trkpt lat="44.09427892041778" lon="9.96551418374615"><ele>5.0</ele><time>2026-05-02T16:27:07.998Z</time></trkpt><trkpt lat="44.09407331623347" lon="9.965812654159137"><ele>5.0</ele><time>2026-05-02T16:27:08.998Z</time></trkpt><trkpt lat="44.09386716604986" lon="9.966105443962913"><ele>5.0</ele><time>2026-05-02T16:27:09.998Z</time></trkpt><trkpt lat="44.09365583177182" lon="9.966395311408874"><ele>5.0</ele><time>2026-05-02T16:27:10.998Z</time></trkpt><trkpt lat="44.093441085260686" lon="9.96668134916915"><ele>5.0</ele><time>2026-05-02T16:27:12Z</time></trkpt><trkpt lat="44.09322515004234" lon="9.966963976203136"><ele>5.5</ele><time>2026-05-02T16:27:13Z</time></trkpt><trkpt lat="44.093006246205604" lon="9.967244881245696"><ele>6.0</ele><time>2026-05-02T16:27:14Z</time></trkpt><trkpt lat="44.09278794597718" lon="9.967519096669289"><ele>4.5</ele><time>2026-05-02T16:27:15Z</time></trkpt><trkpt lat="44.09256223925436" lon="9.967794871762809"><ele>3.0</ele><time>2026-05-02T16:27:16Z</time></trkpt><trkpt lat="44.09233856583025" lon="9.968063600955821"><ele>3.0</ele><time>2026-05-02T16:27:17Z</time></trkpt><trkpt lat="44.09211142537221" lon="9.96832934126628"><ele>3.0</ele><time>2026-05-02T16:27:18Z</time></trkpt><trkpt lat="44.09188485009255" lon="9.968590728722543"><ele>3.0</ele><time>2026-05-02T16:27:19Z</time></trkpt><trkpt lat="44.0916488906558" lon="9.968850374574135"><ele>3.0</ele><time>2026-05-02T16:27:20Z</time></trkpt><trkpt lat="44.09141823451204" lon="9.969104860927848"><ele>3.5</ele><time>2026-05-02T16:27:21Z</time></trkpt><trkpt lat="44.09117800791877" lon="9.969352011526416"><ele>4.0</ele><time>2026-05-02T16:27:22Z</time></trkpt><trkpt lat="44.09093704981915" lon="9.96959142201814"><ele>4.0</ele><time>2026-05-02T16:27:23Z</time></trkpt><trkpt lat="44.090692425011554" lon="9.969828998915792"><ele>4.0</ele><time>2026-05-02T16:27:24Z</time></trkpt><trkpt lat="44.09045042620469" lon="9.970064178501682"><ele>5.0</ele><time>2026-05-02T16:27:25Z</time></trkpt><trkpt lat="44.09020725286065" lon="9.970297916056667"><ele>6.0</ele><time>2026-05-02T16:27:26Z</time></trkpt><trkpt lat="44.08996316182258" lon="9.970531666119998"><ele>6.0</ele><time>2026-05-02T16:27:27Z</time></trkpt><trkpt lat="44.089723442481954" lon="9.970758974438315"><ele>6.0</ele><time>2026-05-02T16:27:28Z</time></trkpt><trkpt lat="44.089474582013224" lon="9.970984797647281"><ele>6.0</ele><time>2026-05-02T16:27:29Z</time></trkpt><trkpt lat="44.089230726933394" lon="9.971200055931051"><ele>6.0</ele><time>2026-05-02T16:27:30Z</time></trkpt><trkpt lat="44.088979047440176" lon="9.971414138223762"><ele>6.0</ele><time>2026-05-02T16:27:31Z</time></trkpt><trkpt lat="44.08873202963249" lon="9.971621240355951"><ele>6.0</ele><time>2026-05-02T16:27:32Z</time></trkpt><trkpt lat="44.088479442610875" lon="9.97182655886007"><ele>5.0</ele><time>2026-05-02T16:27:33Z</time></trkpt><trkpt lat="44.08823189362671" lon="9.972031957773206"><ele>4.0</ele><time>2026-05-02T16:27:34Z</time></trkpt><trkpt lat="44.08798387866977" lon="9.972230785918073"><ele>4.0</ele><time>2026-05-02T16:27:35Z</time></trkpt><trkpt lat="44.08773642599216" lon="9.972428163013676"><ele>4.0</ele><time>2026-05-02T16:27:36Z</time></trkpt><trkpt lat="44.08748896694509" lon="9.972626446584366"><ele>4.0</ele><time>2026-05-02T16:27:37Z</time></trkpt><trkpt lat="44.08724684366461" lon="9.972824328484332"><ele>4.0</ele><time>2026-05-02T16:27:38Z</time></trkpt><trkpt lat="44.08699883749362" lon="9.973024636204393"><ele>4.0</ele><time>2026-05-02T16:27:39Z</time></trkpt><trkpt lat="44.08675846747854" lon="9.97322472656291"><ele>4.0</ele><time>2026-05-02T16:27:40Z</time></trkpt><trkpt lat="44.086513467698474" lon="9.97342154043983"><ele>2.5</ele><time>2026-05-02T16:27:41Z</time></trkpt><trkpt lat="44.086264443764435" lon="9.973620789879233"><ele>1.0</ele><time>2026-05-02T16:27:42Z</time></trkpt><trkpt lat="44.08602888580344" lon="9.973816956145395"><ele>1.0</ele><time>2026-05-02T16:27:43Z</time></trkpt><trkpt lat="44.08579528831415" lon="9.974001712132589"><ele>1.0</ele><time>2026-05-02T16:27:44Z</time></trkpt><trkpt lat="44.08557572103724" lon="9.974173581740711"><ele>2.0</ele><time>2026-05-02T16:27:45Z</time></trkpt><trkpt lat="44.08535957676999" lon="9.974344575815321"><ele>3.0</ele><time>2026-05-02T16:27:46Z</time></trkpt><trkpt lat="44.0851407457705" lon="9.974512330686135"><ele>3.0</ele><time>2026-05-02T16:27:47Z</time></trkpt><trkpt lat="44.08492251640133" lon="9.974685187924273"><ele>3.0</ele><time>2026-05-02T16:27:48Z</time></trkpt><trkpt lat="44.084702995729685" lon="9.97485764731159"><ele>2.0</ele><time>2026-05-02T16:27:49Z</time></trkpt><trkpt lat="44.084481791454515" lon="9.975034129149709"><ele>1.0</ele><time>2026-05-02T16:27:50Z</time></trkpt><trkpt lat="44.08425081594769" lon="9.975216909619904"><ele>2.5</ele><time>2026-05-02T16:27:51Z</time></trkpt><trkpt lat="44.084019541510166" lon="9.975401467049725"><ele>4.0</ele><time>2026-05-02T16:27:52Z</time></trkpt><trkpt lat="44.083786137874846" lon="9.975587160148544"><ele>4.0</ele><time>2026-05-02T16:27:53Z</time></trkpt><trkpt lat="44.08355063130499" lon="9.97577048750983"><ele>4.0</ele><time>2026-05-02T16:27:54Z</time></trkpt><trkpt lat="44.08331087886275" lon="9.97595378311151"><ele>3.5</ele><time>2026-05-02T16:27:55Z</time></trkpt><trkpt lat="44.083073841785335" lon="9.976138578658317"><ele>3.0</ele><time>2026-05-02T16:27:56Z</time></trkpt><trkpt lat="44.0828347398466" lon="9.976324023052408"><ele>3.0</ele><time>2026-05-02T16:27:57Z</time></trkpt><trkpt lat="44.08259374420232" lon="9.976518200100976"><ele>3.0</ele><time>2026-05-02T16:27:58Z</time></trkpt><trkpt lat="44.08235027829525" lon="9.976709689539485"><ele>2.5</ele><time>2026-05-02T16:27:59Z</time></trkpt><trkpt lat="44.08210940173492" lon="9.976904442753968"><ele>2.0</ele><time>2026-05-02T16:27:59.999Z</time></trkpt><trkpt lat="44.08186796188772" lon="9.977098696462015"><ele>2.0</ele><time>2026-05-02T16:28:00.999Z</time></trkpt><trkpt lat="44.08162108657782" lon="9.977294290394084"><ele>2.0</ele><time>2026-05-02T16:28:01.999Z</time></trkpt><trkpt lat="44.081380568292445" lon="9.97748627770554"><ele>2.5</ele><time>2026-05-02T16:28:02.999Z</time></trkpt><trkpt lat="44.081137719632835" lon="9.977678367255848"><ele>3.0</ele><time>2026-05-02T16:28:03.999Z</time></trkpt><trkpt lat="44.0808913798926" lon="9.97787066130241"><ele>2.5</ele><time>2026-05-02T16:28:04.999Z</time></trkpt><trkpt lat="44.080651262519325" lon="9.978065610039522"><ele>2.0</ele><time>2026-05-02T16:28:05.999Z</time></trkpt><trkpt lat="44.080410595510536" lon="9.978258424855717"><ele>2.0</ele><time>2026-05-02T16:28:06.999Z</time></trkpt><trkpt lat="44.08016673569685" lon="9.978453081153756"><ele>2.0</ele><time>2026-05-02T16:28:07.999Z</time></trkpt><trkpt lat="44.07992457681356" lon="9.978652284222404"><ele>2.0</ele><time>2026-05-02T16:28:08.999Z</time></trkpt><trkpt lat="44.07968256301539" lon="9.978851809044816"><ele>2.0</ele><time>2026-05-02T16:28:09.999Z</time></trkpt><trkpt lat="44.079442897984094" lon="9.979057338913838"><ele>1.5</ele><time>2026-05-02T16:28:10.999Z</time></trkpt><trkpt lat="44.079205177083686" lon="9.979269279187081"><ele>1.0</ele><time>2026-05-02T16:28:11.999Z</time></trkpt><trkpt lat="44.078969033732" lon="9.979490834894698"><ele>1.0</ele><time>2026-05-02T16:28:12.999Z</time></trkpt><trkpt lat="44.078735468736106" lon="9.979714428846764"><ele>1.0</ele><time>2026-05-02T16:28:13.999Z</time></trkpt><trkpt lat="44.07850037594716" lon="9.979949167784714"><ele>2.0</ele><time>2026-05-02T16:28:14.999Z</time></trkpt><trkpt lat="44.07826503815491" lon="9.980187175649844"><ele>3.0</ele><time>2026-05-02T16:28:15.999Z</time></trkpt><trkpt lat="44.07803520598568" lon="9.980424868153492"><ele>3.0</ele><time>2026-05-02T16:28:16.999Z</time></trkpt><trkpt lat="44.07780698519111" lon="9.980660992581221"><ele>3.0</ele><time>2026-05-02T16:28:17.999Z</time></trkpt><trkpt lat="44.07757748785618" lon="9.980915598695374"><ele>3.5</ele><time>2026-05-02T16:28:18.999Z</time></trkpt><trkpt lat="44.07735927611597" lon="9.981168124824856"><ele>4.0</ele><time>2026-05-02T16:28:19.999Z</time></trkpt><trkpt lat="44.07713621796244" lon="9.981414871093403"><ele>3.5</ele><time>2026-05-02T16:28:20.999Z</time></trkpt><trkpt lat="44.07688118826942" lon="9.981691532114523"><ele>3.0</ele><time>2026-05-02T16:28:21.999Z</time></trkpt><trkpt lat="44.07670095836172" lon="9.981984551280387"><ele>3.0</ele><time>2026-05-02T16:28:22.999Z</time></trkpt><trkpt lat="44.076481573256004" lon="9.98227274499434"><ele>3.0</ele><time>2026-05-02T16:28:23.999Z</time></trkpt><trkpt lat="44.07626753124722" lon="9.982562878562437"><ele>3.0</ele><time>2026-05-02T16:28:24.999Z</time></trkpt><trkpt lat="44.07606054917831" lon="9.982858881757558"><ele>3.0</ele><time>2026-05-02T16:28:25.999Z</time></trkpt><trkpt lat="44.075856400764316" lon="9.983158463905852"><ele>3.0</ele><time>2026-05-02T16:28:26.999Z</time></trkpt><trkpt lat="44.07565444183391" lon="9.983464052608298"><ele>3.0</ele><time>2026-05-02T16:28:27.999Z</time></trkpt><trkpt lat="44.075452771723214" lon="9.98377795501354"><ele>3.0</ele><time>2026-05-02T16:28:28.999Z</time></trkpt><trkpt lat="44.07526102204533" lon="9.984088107824805"><ele>3.0</ele><time>2026-05-02T16:28:29.999Z</time></trkpt><trkpt lat="44.07507091241372" lon="9.984411475046548"><ele>3.0</ele><time>2026-05-02T16:28:30.999Z</time></trkpt><trkpt lat="44.07487369245675" lon="9.984737676476605"><ele>3.0</ele><time>2026-05-02T16:28:31.999Z</time></trkpt><trkpt lat="44.07467726031583" lon="9.985067641343848"><ele>3.0</ele><time>2026-05-02T16:28:32.999Z</time></trkpt><trkpt lat="44.07448252983423" lon="9.985391410439524"><ele>3.0</ele><time>2026-05-02T16:28:33.999Z</time></trkpt><trkpt lat="44.074289590128835" lon="9.985715614316677"><ele>2.5</ele><time>2026-05-02T16:28:34.999Z</time></trkpt><trkpt lat="44.07409638762089" lon="9.986035620397436"><ele>2.0</ele><time>2026-05-02T16:28:35.999Z</time></trkpt><trkpt lat="44.07389978098989" lon="9.986352105131049"><ele>2.0</ele><time>2026-05-02T16:28:36.999Z</time></trkpt><trkpt lat="44.0737075125706" lon="9.986661090789468"><ele>2.0</ele><time>2026-05-02T16:28:37.999Z</time></trkpt><trkpt lat="44.07351790891448" lon="9.986972735616623"><ele>2.0</ele><time>2026-05-02T16:28:38.999Z</time></trkpt><trkpt lat="44.07332957958134" lon="9.987284802585226"><ele>2.0</ele><time>2026-05-02T16:28:39.999Z</time></trkpt><trkpt lat="44.073140975521234" lon="9.987595174088495"><ele>2.5</ele><time>2026-05-02T16:28:40.999Z</time></trkpt><trkpt lat="44.072953320065785" lon="9.987901315097817"><ele>3.0</ele><time>2026-05-02T16:28:41.999Z</time></trkpt><trkpt lat="44.0727653209563" lon="9.98820718677934"><ele>2.5</ele><time>2026-05-02T16:28:42.999Z</time></trkpt><trkpt lat="44.07257949106879" lon="9.98851477341883"><ele>2.0</ele><time>2026-05-02T16:28:43.999Z</time></trkpt><trkpt lat="44.0723939785506" lon="9.988822731358134"><ele>2.0</ele><time>2026-05-02T16:28:44.999Z</time></trkpt><trkpt lat="44.07221166324213" lon="9.989126134782806"><ele>2.0</ele><time>2026-05-02T16:28:45.998Z</time></trkpt><trkpt lat="44.0720257731839" lon="9.989429593448824"><ele>2.0</ele><time>2026-05-02T16:28:46.998Z</time></trkpt><trkpt lat="44.071838201296984" lon="9.989736290174063"><ele>2.0</ele><time>2026-05-02T16:28:47.998Z</time></trkpt><trkpt lat="44.07165016508931" lon="9.99004342747468"><ele>2.5</ele><time>2026-05-02T16:28:48.998Z</time></trkpt><trkpt lat="44.071464881109236" lon="9.990352294858587"><ele>3.0</ele><time>2026-05-02T16:28:49.998Z</time></trkpt><trkpt lat="44.07127869221285" lon="9.990661444323466"><ele>2.5</ele><time>2026-05-02T16:28:50.998Z</time></trkpt><trkpt lat="44.07109171000877" lon="9.990968325966824"><ele>2.0</ele><time>2026-05-02T16:28:51.998Z</time></trkpt><trkpt lat="44.0708992125805" lon="9.991274277986786"><ele>2.0</ele><time>2026-05-02T16:28:52.998Z</time></trkpt><trkpt lat="44.07070898449229" lon="9.991585888860353"><ele>2.0</ele><time>2026-05-02T16:28:53.998Z</time></trkpt><trkpt lat="44.07052070710164" lon="9.99190080650773"><ele>2.0</ele><time>2026-05-02T16:28:54.998Z</time></trkpt><trkpt lat="44.07033407240616" lon="9.992214898848731"><ele>2.0</ele><time>2026-05-02T16:28:55.998Z</time></trkpt><trkpt lat="44.07014587674852" lon="9.992527707469975"><ele>2.0</ele><time>2026-05-02T16:28:56.998Z</time></trkpt><trkpt lat="44.06995409978638" lon="9.992839055629902"><ele>2.0</ele><time>2026-05-02T16:28:57.998Z</time></trkpt><trkpt lat="44.0697612069436" lon="9.993152252599183"><ele>2.0</ele><time>2026-05-02T16:28:58.998Z</time></trkpt><trkpt lat="44.06957041077289" lon="9.99346552283686"><ele>2.0</ele><time>2026-05-02T16:28:59.998Z</time></trkpt><trkpt lat="44.06938190173762" lon="9.993777359721152"><ele>2.0</ele><time>2026-05-02T16:29:00.998Z</time></trkpt><trkpt lat="44.06919783050078" lon="9.994085628752762"><ele>2.0</ele><time>2026-05-02T16:29:01.998Z</time></trkpt><trkpt lat="44.069013261117504" lon="9.994393616820053"><ele>2.5</ele><time>2026-05-02T16:29:02.998Z</time></trkpt><trkpt lat="44.0688311966074" lon="9.994702229419616"><ele>3.0</ele><time>2026-05-02T16:29:03.998Z</time></trkpt><trkpt lat="44.06865110654655" lon="9.995009437293483"><ele>3.0</ele><time>2026-05-02T16:29:04.998Z</time></trkpt><trkpt lat="44.06846947756019" lon="9.995318243086864"><ele>3.0</ele><time>2026-05-02T16:29:05.998Z</time></trkpt><trkpt lat="44.06828758303286" lon="9.995627970272366"><ele>2.0</ele><time>2026-05-02T16:29:06.998Z</time></trkpt><trkpt lat="44.06810878981966" lon="9.995938795397954"><ele>1.0</ele><time>2026-05-02T16:29:07.998Z</time></trkpt><trkpt lat="44.0679293196276" lon="9.99624593140862"><ele>1.0</ele><time>2026-05-02T16:29:08.998Z</time></trkpt><trkpt lat="44.06774355266341" lon="9.996553235852794"><ele>1.0</ele><time>2026-05-02T16:29:09.998Z</time></trkpt><trkpt lat="44.06755514861972" lon="9.996857495141025"><ele>1.0</ele><time>2026-05-02T16:29:10.998Z</time></trkpt><trkpt lat="44.06736873207036" lon="9.997164682878966"><ele>1.0</ele><time>2026-05-02T16:29:11.998Z</time></trkpt><trkpt lat="44.06718383666857" lon="9.997471823881044"><ele>2.5</ele><time>2026-05-02T16:29:12.998Z</time></trkpt><trkpt lat="44.06700264699007" lon="9.99777774034572"><ele>4.0</ele><time>2026-05-02T16:29:13.998Z</time></trkpt><trkpt lat="44.06681950730468" lon="9.998087606949882"><ele>4.0</ele><time>2026-05-02T16:29:14.998Z</time></trkpt><trkpt lat="44.06663600584677" lon="9.998391287358787"><ele>4.0</ele><time>2026-05-02T16:29:15.998Z</time></trkpt><trkpt lat="44.06645434230771" lon="9.998689279097054"><ele>3.5</ele><time>2026-05-02T16:29:16.998Z</time></trkpt><trkpt lat="44.06627034163889" lon="9.998988862904508"><ele>3.0</ele><time>2026-05-02T16:29:18Z</time></trkpt><trkpt lat="44.066076895702714" lon="9.999298587802457"><ele>3.0</ele><time>2026-05-02T16:29:19Z</time></trkpt><trkpt lat="44.0658863464449" lon="9.999598919474114"><ele>3.0</ele><time>2026-05-02T16:29:20Z</time></trkpt><trkpt lat="44.06569583897858" lon="9.999901608689077"><ele>1.5</ele><time>2026-05-02T16:29:21Z</time></trkpt><trkpt lat="44.06550817430192" lon="10.000206196239754"><ele>0.0</ele><time>2026-05-02T16:29:22Z</time></trkpt><trkpt lat="44.06532054034275" lon="10.000512285220406"><ele>0.0</ele><time>2026-05-02T16:29:23Z</time></trkpt><trkpt lat="44.06513599832483" lon="10.000812887309943"><ele>0.0</ele><time>2026-05-02T16:29:24Z</time></trkpt><trkpt lat="44.064943913798984" lon="10.001117948696374"><ele>-0.5</ele><time>2026-05-02T16:29:25Z</time></trkpt><trkpt lat="44.06475682777467" lon="10.001417681452779"><ele>-1.0</ele><time>2026-05-02T16:29:26Z</time></trkpt><trkpt lat="44.064571626421134" lon="10.001716750050312"><ele>0.0</ele><time>2026-05-02T16:29:27Z</time></trkpt><trkpt lat="44.0643850735161" lon="10.002019134967263"><ele>1.0</ele><time>2026-05-02T16:29:28Z</time></trkpt><trkpt lat="44.06419889615445" lon="10.002321295052147"><ele>0.0</ele><time>2026-05-02T16:29:29Z</time></trkpt><trkpt lat="44.064014878674776" lon="10.002623670569099"><ele>-1.0</ele><time>2026-05-02T16:29:30Z</time></trkpt><trkpt lat="44.063830755341414" lon="10.00292555813588"><ele>-1.0</ele><time>2026-05-02T16:29:31Z</time></trkpt><trkpt lat="44.063650773000305" lon="10.00322220641284"><ele>-1.0</ele><time>2026-05-02T16:29:32Z</time></trkpt><trkpt lat="44.063467641873395" lon="10.003520681458472"><ele>-0.5</ele><time>2026-05-02T16:29:33Z</time></trkpt><trkpt lat="44.0632868621632" lon="10.003817482953457"><ele>0.0</ele><time>2026-05-02T16:29:34Z</time></trkpt><trkpt lat="44.06310686816879" lon="10.004113456231186"><ele>0.5</ele><time>2026-05-02T16:29:35Z</time></trkpt><trkpt lat="44.06292267658234" lon="10.004414451162173"><ele>1.0</ele><time>2026-05-02T16:29:36Z</time></trkpt><trkpt lat="44.06274669174639" lon="10.004708624335674"><ele>1.0</ele><time>2026-05-02T16:29:37Z</time></trkpt><trkpt lat="44.06256513491763" lon="10.00500796909658"><ele>1.0</ele><time>2026-05-02T16:29:38Z</time></trkpt><trkpt lat="44.062382596701745" lon="10.005309084893625"><ele>2.0</ele><time>2026-05-02T16:29:39Z</time></trkpt><trkpt lat="44.06220062984818" lon="10.005609822402363"><ele>3.0</ele><time>2026-05-02T16:29:40Z</time></trkpt><trkpt lat="44.06202014391399" lon="10.005910566576244"><ele>3.0</ele><time>2026-05-02T16:29:41Z</time></trkpt><trkpt lat="44.06183889661054" lon="10.006210488675812"><ele>3.0</ele><time>2026-05-02T16:29:42Z</time></trkpt><trkpt lat="44.06165430318643" lon="10.006513234721636"><ele>3.5</ele><time>2026-05-02T16:29:43Z</time></trkpt><trkpt lat="44.061472415482285" lon="10.006816147799976"><ele>4.0</ele><time>2026-05-02T16:29:44Z</time></trkpt><trkpt lat="44.06128912737423" lon="10.007118144925343"><ele>4.0</ele><time>2026-05-02T16:29:45Z</time></trkpt><trkpt lat="44.06110767997796" lon="10.007422260087624"><ele>4.0</ele><time>2026-05-02T16:29:46Z</time></trkpt><trkpt lat="44.06092776532163" lon="10.007732601555727"><ele>4.0</ele><time>2026-05-02T16:29:47Z</time></trkpt><trkpt lat="44.06075091150582" lon="10.008046504080696"><ele>4.0</ele><time>2026-05-02T16:29:48Z</time></trkpt><trkpt lat="44.06057746845992" lon="10.008368393995434"><ele>4.0</ele><time>2026-05-02T16:29:49Z</time></trkpt><trkpt lat="44.060411929593606" lon="10.00869031066184"><ele>4.0</ele><time>2026-05-02T16:29:50Z</time></trkpt><trkpt lat="44.060247533621435" lon="10.009015997198324"><ele>4.5</ele><time>2026-05-02T16:29:51Z</time></trkpt><trkpt lat="44.06008701047864" lon="10.009346287069006"><ele>5.0</ele><time>2026-05-02T16:29:52Z</time></trkpt><trkpt lat="44.05993134860894" lon="10.009679504961621"><ele>4.5</ele><time>2026-05-02T16:29:53Z</time></trkpt><trkpt lat="44.05977920541415" lon="10.010022734187704"><ele>4.0</ele><time>2026-05-02T16:29:54Z</time></trkpt><trkpt lat="44.05963041027015" lon="10.010367785443526"><ele>4.0</ele><time>2026-05-02T16:29:55Z</time></trkpt><trkpt lat="44.05948680445754" lon="10.010714049043019"><ele>4.0</ele><time>2026-05-02T16:29:56Z</time></trkpt><trkpt lat="44.05934799607731" lon="10.011064910303924"><ele>4.0</ele><time>2026-05-02T16:29:57Z</time></trkpt><trkpt lat="44.059211391901115" lon="10.011422915591194"><ele>4.0</ele><time>2026-05-02T16:29:58Z</time></trkpt><trkpt lat="44.05907635457138" lon="10.011782278557062"><ele>2.0</ele><time>2026-05-02T16:29:59Z</time></trkpt><trkpt lat="44.05894630151973" lon="10.012137457023364"><ele>0.0</ele><time>2026-05-02T16:30:00Z</time></trkpt><trkpt lat="44.05881992389944" lon="10.012497186099337"><ele>-0.5</ele><time>2026-05-02T16:30:01Z</time></trkpt><trkpt lat="44.05869649645772" lon="10.012864131929692"><ele>-1.0</ele><time>2026-05-02T16:30:01.999Z</time></trkpt><trkpt lat="44.05857939016489" lon="10.013237875345565"><ele>0.5</ele><time>2026-05-02T16:30:02.999Z</time></trkpt><trkpt lat="44.05846654268539" lon="10.01360933987585"><ele>2.0</ele><time>2026-05-02T16:30:03.999Z</time></trkpt><trkpt lat="44.05835893621174" lon="10.013998058641446"><ele>1.0</ele><time>2026-05-02T16:30:04.999Z</time></trkpt><trkpt lat="44.0582548378254" lon="10.014397090794882"><ele>0.0</ele><time>2026-05-02T16:30:05.999Z</time></trkpt><trkpt lat="44.05814075487305" lon="10.014725981246476"><ele>0.5</ele><time>2026-05-02T16:30:06.999Z</time></trkpt><trkpt lat="44.058034863659714" lon="10.015101142853666"><ele>1.0</ele><time>2026-05-02T16:30:07.999Z</time></trkpt><trkpt lat="44.05792795045374" lon="10.01547241310754"><ele>1.5</ele><time>2026-05-02T16:30:08.999Z</time></trkpt><trkpt lat="44.057819326905296" lon="10.01584655193165"><ele>2.0</ele><time>2026-05-02T16:30:09.999Z</time></trkpt><trkpt lat="44.057711916234844" lon="10.016214894365081"><ele>2.0</ele><time>2026-05-02T16:30:10.999Z</time></trkpt><trkpt lat="44.05760353994802" lon="10.016587920470817"><ele>2.0</ele><time>2026-05-02T16:30:11.999Z</time></trkpt><trkpt lat="44.0574957883121" lon="10.01696524375093"><ele>1.5</ele><time>2026-05-02T16:30:12.999Z</time></trkpt><trkpt lat="44.05738843320651" lon="10.01733956471623"><ele>1.0</ele><time>2026-05-02T16:30:13.999Z</time></trkpt><trkpt lat="44.057281042180485" lon="10.017715370220008"><ele>1.0</ele><time>2026-05-02T16:30:14.999Z</time></trkpt><trkpt lat="44.057172695822764" lon="10.01809056029992"><ele>1.0</ele><time>2026-05-02T16:30:15.999Z</time></trkpt><trkpt lat="44.05705991289206" lon="10.018463817575414"><ele>1.0</ele><time>2026-05-02T16:30:16.999Z</time></trkpt><trkpt lat="44.05694774614261" lon="10.01883458663254"><ele>1.0</ele><time>2026-05-02T16:30:17.999Z</time></trkpt><trkpt lat="44.05683711509008" lon="10.019210975312413"><ele>1.0</ele><time>2026-05-02T16:30:18.999Z</time></trkpt><trkpt lat="44.05672606828644" lon="10.019589017386902"><ele>1.0</ele><time>2026-05-02T16:30:19.999Z</time></trkpt><trkpt lat="44.056614505124806" lon="10.019969820741876"><ele>1.0</ele><time>2026-05-02T16:30:20.999Z</time></trkpt><trkpt lat="44.05650519678596" lon="10.020347347772049"><ele>1.0</ele><time>2026-05-02T16:30:21.999Z</time></trkpt><trkpt lat="44.05639536733802" lon="10.020726905855739"><ele>0.5</ele><time>2026-05-02T16:30:22.999Z</time></trkpt><trkpt lat="44.056289534691295" lon="10.021108393159716"><ele>0.0</ele><time>2026-05-02T16:30:23.999Z</time></trkpt><trkpt lat="44.05618414695464" lon="10.02148726661598"><ele>0.5</ele><time>2026-05-02T16:30:24.999Z</time></trkpt><trkpt lat="44.056077989741276" lon="10.02186706847569"><ele>1.0</ele><time>2026-05-02T16:30:25.999Z</time></trkpt><trkpt lat="44.055973325572864" lon="10.022244669383221"><ele>1.0</ele><time>2026-05-02T16:30:26.999Z</time></trkpt><trkpt lat="44.05586560809691" lon="10.02261950646231"><ele>1.0</ele><time>2026-05-02T16:30:27.999Z</time></trkpt><trkpt lat="44.055757085226155" lon="10.022995908911854"><ele>1.0</ele><time>2026-05-02T16:30:28.999Z</time></trkpt><trkpt lat="44.0556510700436" lon="10.023380773816651"><ele>1.0</ele><time>2026-05-02T16:30:29.999Z</time></trkpt><trkpt lat="44.055538312447155" lon="10.023761408983821"><ele>1.0</ele><time>2026-05-02T16:30:30.999Z</time></trkpt><trkpt lat="44.05542464171407" lon="10.02414319945699"><ele>1.0</ele><time>2026-05-02T16:30:31.999Z</time></trkpt><trkpt lat="44.0553064087926" lon="10.024523804607108"><ele>2.0</ele><time>2026-05-02T16:30:32.999Z</time></trkpt><trkpt lat="44.055190998525426" lon="10.02490940963367"><ele>3.0</ele><time>2026-05-02T16:30:33.999Z</time></trkpt><trkpt lat="44.055076404201515" lon="10.02529436406859"><ele>3.0</ele><time>2026-05-02T16:30:34.999Z</time></trkpt><trkpt lat="44.05496411566794" lon="10.025677156509618"><ele>3.0</ele><time>2026-05-02T16:30:35.999Z</time></trkpt><trkpt lat="44.054852698887984" lon="10.026061476339596"><ele>3.0</ele><time>2026-05-02T16:30:36.999Z</time></trkpt><trkpt lat="44.05474061222091" lon="10.026445270156236"><ele>3.0</ele><time>2026-05-02T16:30:37.999Z</time></trkpt><trkpt lat="44.054630603475715" lon="10.026834077573485"><ele>2.5</ele><time>2026-05-02T16:30:38.999Z</time></trkpt><trkpt lat="44.05452246305274" lon="10.02721238319228"><ele>2.0</ele><time>2026-05-02T16:30:39.999Z</time></trkpt><trkpt lat="44.05441118615404" lon="10.027595987115847"><ele>2.0</ele><time>2026-05-02T16:30:40.999Z</time></trkpt><trkpt lat="44.054300818121156" lon="10.027979760743339"><ele>2.0</ele><time>2026-05-02T16:30:41.999Z</time></trkpt><trkpt lat="44.05418993459643" lon="10.028360072357883"><ele>2.5</ele><time>2026-05-02T16:30:42.999Z</time></trkpt><trkpt lat="44.05407835933618" lon="10.028744691444139"><ele>3.0</ele><time>2026-05-02T16:30:43.999Z</time></trkpt><trkpt lat="44.05396690134796" lon="10.029124683684532"><ele>3.0</ele><time>2026-05-02T16:30:44.999Z</time></trkpt><trkpt lat="44.05385296118331" lon="10.029506219949877"><ele>3.0</ele><time>2026-05-02T16:30:45.998Z</time></trkpt><trkpt lat="44.05373982869587" lon="10.029893717303825"><ele>3.0</ele><time>2026-05-02T16:30:46.998Z</time></trkpt><trkpt lat="44.05362770251351" lon="10.0302760829758"><ele>3.0</ele><time>2026-05-02T16:30:47.998Z</time></trkpt><trkpt lat="44.05351531802492" lon="10.030668091102795"><ele>3.0</ele><time>2026-05-02T16:30:48.998Z</time></trkpt><trkpt lat="44.0534031837931" lon="10.031053803366252"><ele>3.0</ele><time>2026-05-02T16:30:49.998Z</time></trkpt><trkpt lat="44.05328938626757" lon="10.03144486247281"><ele>3.0</ele><time>2026-05-02T16:30:50.998Z</time></trkpt><trkpt lat="44.05317628180308" lon="10.031826627214196"><ele>3.0</ele><time>2026-05-02T16:30:51.998Z</time></trkpt><trkpt lat="44.05305803321884" lon="10.032215671465154"><ele>4.0</ele><time>2026-05-02T16:30:52.998Z</time></trkpt><trkpt lat="44.052937555039456" lon="10.032603441173183"><ele>5.0</ele><time>2026-05-02T16:30:53.998Z</time></trkpt><trkpt lat="44.052817374391395" lon="10.032981744953666"><ele>3.5</ele><time>2026-05-02T16:30:54.998Z</time></trkpt><trkpt lat="44.05268765249197" lon="10.033365346671237"><ele>2.0</ele><time>2026-05-02T16:30:55.998Z</time></trkpt><trkpt lat="44.052554442829944" lon="10.033735274067775"><ele>2.0</ele><time>2026-05-02T16:30:56.998Z</time></trkpt><trkpt lat="44.05241640164768" lon="10.034104551007482"><ele>2.0</ele><time>2026-05-02T16:30:57.998Z</time></trkpt><trkpt lat="44.05227315649426" lon="10.03447071937726"><ele>1.5</ele><time>2026-05-02T16:30:58.998Z</time></trkpt><trkpt lat="44.052128870655395" lon="10.034833529609504"><ele>1.0</ele><time>2026-05-02T16:30:59.998Z</time></trkpt><trkpt lat="44.05197976939788" lon="10.035190352557368"><ele>0.5</ele><time>2026-05-02T16:31:00.998Z</time></trkpt><trkpt lat="44.05182641816979" lon="10.035538456501982"><ele>0.0</ele><time>2026-05-02T16:31:01.998Z</time></trkpt><trkpt lat="44.05167013808286" lon="10.035886385676568"><ele>1.0</ele><time>2026-05-02T16:31:02.998Z</time></trkpt><trkpt lat="44.051512544309915" lon="10.036230980101859"><ele>2.0</ele><time>2026-05-02T16:31:03.998Z</time></trkpt><trkpt lat="44.05135278581403" lon="10.036571388431568"><ele>2.0</ele><time>2026-05-02T16:31:04.998Z</time></trkpt><trkpt lat="44.05119009519695" lon="10.036914638294588"><ele>2.0</ele><time>2026-05-02T16:31:05.998Z</time></trkpt><trkpt lat="44.051025712630924" lon="10.037251594614222"><ele>2.0</ele><time>2026-05-02T16:31:06.998Z</time></trkpt><trkpt lat="44.050856347484945" lon="10.03758322223291"><ele>2.0</ele><time>2026-05-02T16:31:07.998Z</time></trkpt><trkpt lat="44.05068306657001" lon="10.037908904318297"><ele>2.0</ele><time>2026-05-02T16:31:08.998Z</time></trkpt><trkpt lat="44.050505548525535" lon="10.038233605819169"><ele>2.0</ele><time>2026-05-02T16:31:09.998Z</time></trkpt><trkpt lat="44.05032873549499" lon="10.038557936073119"><ele>2.0</ele><time>2026-05-02T16:31:10.998Z</time></trkpt><trkpt lat="44.05015304651654" lon="10.03888246635779"><ele>2.0</ele><time>2026-05-02T16:31:11.998Z</time></trkpt><trkpt lat="44.04997679986743" lon="10.039208217667186"><ele>1.5</ele><time>2026-05-02T16:31:12.998Z</time></trkpt><trkpt lat="44.04980320094573" lon="10.03953238159679"><ele>1.0</ele><time>2026-05-02T16:31:13.998Z</time></trkpt><trkpt lat="44.04962981212809" lon="10.039853220192722"><ele>1.0</ele><time>2026-05-02T16:31:14.998Z</time></trkpt><trkpt lat="44.0494519656795" lon="10.040178882087842"><ele>1.0</ele><time>2026-05-02T16:31:15.998Z</time></trkpt><trkpt lat="44.04928065568969" lon="10.040497108803171"><ele>2.0</ele><time>2026-05-02T16:31:16.998Z</time></trkpt><trkpt lat="44.04911178903314" lon="10.040813432887278"><ele>3.0</ele><time>2026-05-02T16:31:17.998Z</time></trkpt><trkpt lat="44.04894091347381" lon="10.041137179583512"><ele>3.0</ele><time>2026-05-02T16:31:18.998Z</time></trkpt><trkpt lat="44.04877063259405" lon="10.04145865211801"><ele>3.0</ele><time>2026-05-02T16:31:19.998Z</time></trkpt><trkpt lat="44.04860015596414" lon="10.041777283745208"><ele>3.5</ele><time>2026-05-02T16:31:20.998Z</time></trkpt><trkpt lat="44.04843172206557" lon="10.042097871610126"><ele>4.0</ele><time>2026-05-02T16:31:21.998Z</time></trkpt><trkpt lat="44.04826041690995" lon="10.042418854757969"><ele>5.0</ele><time>2026-05-02T16:31:22.998Z</time></trkpt><trkpt lat="44.04808837881976" lon="10.042742471049607"><ele>6.0</ele><time>2026-05-02T16:31:24Z</time></trkpt><trkpt lat="44.047918054968136" lon="10.0430624890856"><ele>5.5</ele><time>2026-05-02T16:31:25Z</time></trkpt><trkpt lat="44.047746662441924" lon="10.043385412378896"><ele>5.0</ele><time>2026-05-02T16:31:26Z</time></trkpt><trkpt lat="44.0475761322067" lon="10.043706849581042"><ele>4.5</ele><time>2026-05-02T16:31:27Z</time></trkpt><trkpt lat="44.047403322067076" lon="10.044032633114377"><ele>4.0</ele><time>2026-05-02T16:31:28Z</time></trkpt><trkpt lat="44.04723353450423" lon="10.044354252216927"><ele>3.5</ele><time>2026-05-02T16:31:29Z</time></trkpt><trkpt lat="44.04706180881513" lon="10.04467914190759"><ele>3.0</ele><time>2026-05-02T16:31:30Z</time></trkpt><trkpt lat="44.04688902113422" lon="10.045009417595718"><ele>3.5</ele><time>2026-05-02T16:31:31Z</time></trkpt><trkpt lat="44.04671560124325" lon="10.045336961420343"><ele>4.0</ele><time>2026-05-02T16:31:32Z</time></trkpt><trkpt lat="44.046541972857696" lon="10.04566678690177"><ele>3.5</ele><time>2026-05-02T16:31:33Z</time></trkpt><trkpt lat="44.046365523183525" lon="10.045996330382282"><ele>3.0</ele><time>2026-05-02T16:31:34Z</time></trkpt><trkpt lat="44.04618829802354" lon="10.046327640597925"><ele>3.5</ele><time>2026-05-02T16:31:35Z</time></trkpt><trkpt lat="44.046009466609206" lon="10.04666056705747"><ele>4.0</ele><time>2026-05-02T16:31:36Z</time></trkpt><trkpt lat="44.04583168549467" lon="10.046993140639621"><ele>4.0</ele><time>2026-05-02T16:31:37Z</time></trkpt><trkpt lat="44.0456544880261" lon="10.04732535582888"><ele>4.0</ele><time>2026-05-02T16:31:38Z</time></trkpt><trkpt lat="44.04547651883159" lon="10.047655766479627"><ele>4.5</ele><time>2026-05-02T16:31:39Z</time></trkpt><trkpt lat="44.0453001717205" lon="10.047988068225342"><ele>5.0</ele><time>2026-05-02T16:31:40Z</time></trkpt><trkpt lat="44.04512542405221" lon="10.048320970200509"><ele>4.5</ele><time>2026-05-02T16:31:41Z</time></trkpt><trkpt lat="44.0449512777029" lon="10.048653037381838"><ele>4.0</ele><time>2026-05-02T16:31:42Z</time></trkpt><trkpt lat="44.04477538283404" lon="10.048982888080355"><ele>4.0</ele><time>2026-05-02T16:31:43Z</time></trkpt><trkpt lat="44.044597728583575" lon="10.049309251560759"><ele>4.0</ele><time>2026-05-02T16:31:44Z</time></trkpt><trkpt lat="44.04441842328851" lon="10.049634892413891"><ele>4.5</ele><time>2026-05-02T16:31:45Z</time></trkpt><trkpt lat="44.04423652166032" lon="10.049958906859786"><ele>5.0</ele><time>2026-05-02T16:31:46Z</time></trkpt><trkpt lat="44.04405788596688" lon="10.050283143671104"><ele>5.0</ele><time>2026-05-02T16:31:47Z</time></trkpt><trkpt lat="44.0438830132087" lon="10.050612460492898"><ele>5.0</ele><time>2026-05-02T16:31:48Z</time></trkpt><trkpt lat="44.043709286137" lon="10.050943455278281"><ele>5.0</ele><time>2026-05-02T16:31:49Z</time></trkpt><trkpt lat="44.04353488668443" lon="10.05127714496689"><ele>5.0</ele><time>2026-05-02T16:31:50Z</time></trkpt><trkpt lat="44.04335915290746" lon="10.051613737203121"><ele>6.0</ele><time>2026-05-02T16:31:51Z</time></trkpt><trkpt lat="44.043186159878516" lon="10.051953754500197"><ele>7.0</ele><time>2026-05-02T16:31:52Z</time></trkpt><trkpt lat="44.0430183666249" lon="10.052297804435195"><ele>6.5</ele><time>2026-05-02T16:31:53Z</time></trkpt><trkpt lat="44.04285567418237" lon="10.052650309048754"><ele>6.0</ele><time>2026-05-02T16:31:54Z</time></trkpt><trkpt lat="44.04269924017113" lon="10.053003893392598"><ele>5.0</ele><time>2026-05-02T16:31:55Z</time></trkpt><trkpt lat="44.04254523677968" lon="10.053359340219506"><ele>4.0</ele><time>2026-05-02T16:31:56Z</time></trkpt><trkpt lat="44.04239054856226" lon="10.053711086729981"><ele>3.5</ele><time>2026-05-02T16:31:57Z</time></trkpt><trkpt lat="44.04223471335968" lon="10.054063794945986"><ele>3.0</ele><time>2026-05-02T16:31:58Z</time></trkpt><trkpt lat="44.04207601345334" lon="10.054412792440298"><ele>3.0</ele><time>2026-05-02T16:31:59Z</time></trkpt><trkpt lat="44.04191975439137" lon="10.054763066948446"><ele>3.0</ele><time>2026-05-02T16:32:00Z</time></trkpt><trkpt lat="44.04176529121382" lon="10.055114964191489"><ele>3.0</ele><time>2026-05-02T16:32:01Z</time></trkpt><trkpt lat="44.04161045083386" lon="10.055463960186506"><ele>3.0</ele><time>2026-05-02T16:32:02Z</time></trkpt><trkpt lat="44.04145822375941" lon="10.055816391566966"><ele>3.0</ele><time>2026-05-02T16:32:03Z</time></trkpt><trkpt lat="44.041309648452085" lon="10.056157528039751"><ele>3.0</ele><time>2026-05-02T16:32:04Z</time></trkpt><trkpt lat="44.04115079900301" lon="10.056511529340279"><ele>3.0</ele><time>2026-05-02T16:32:05Z</time></trkpt><trkpt lat="44.04100149890093" lon="10.056851443802712"><ele>3.0</ele><time>2026-05-02T16:32:06Z</time></trkpt><trkpt lat="44.04085002808244" lon="10.057192016918236"><ele>3.0</ele><time>2026-05-02T16:32:07Z</time></trkpt><trkpt lat="44.040697742257755" lon="10.057539080952584"><ele>3.0</ele><time>2026-05-02T16:32:08Z</time></trkpt><trkpt lat="44.04054718560579" lon="10.057878516776004"><ele>3.0</ele><time>2026-05-02T16:32:09Z</time></trkpt><trkpt lat="44.040394768423084" lon="10.05822650236446"><ele>3.0</ele><time>2026-05-02T16:32:10Z</time></trkpt><trkpt lat="44.0402422367452" lon="10.058568774978095"><ele>3.5</ele><time>2026-05-02T16:32:11Z</time></trkpt><trkpt lat="44.040086865455336" lon="10.058917301862026"><ele>4.0</ele><time>2026-05-02T16:32:12Z</time></trkpt><trkpt lat="44.03993228272737" lon="10.059268700574117"><ele>4.0</ele><time>2026-05-02T16:32:13Z</time></trkpt><trkpt lat="44.03977866132211" lon="10.059616967137778"><ele>4.0</ele><time>2026-05-02T16:32:14Z</time></trkpt><trkpt lat="44.03962472930201" lon="10.059970096274606"><ele>4.5</ele><time>2026-05-02T16:32:15Z</time></trkpt><trkpt lat="44.039469799029554" lon="10.060326222956114"><ele>5.0</ele><time>2026-05-02T16:32:15.999Z</time></trkpt><trkpt lat="44.03931515955246" lon="10.060680202272733"><ele>4.5</ele><time>2026-05-02T16:32:16.999Z</time></trkpt><trkpt lat="44.03915975429962" lon="10.06103569466135"><ele>4.0</ele><time>2026-05-02T16:32:17.999Z</time></trkpt><trkpt lat="44.039003696915785" lon="10.061389879149804"><ele>4.0</ele><time>2026-05-02T16:32:18.999Z</time></trkpt><trkpt lat="44.03884797617851" lon="10.061743750603817"><ele>4.0</ele><time>2026-05-02T16:32:19.999Z</time></trkpt><trkpt lat="44.03869250410592" lon="10.062095295373126"><ele>4.0</ele><time>2026-05-02T16:32:20.999Z</time></trkpt><trkpt lat="44.03853415901009" lon="10.062449996252223"><ele>4.0</ele><time>2026-05-02T16:32:21.999Z</time></trkpt><trkpt lat="44.03837592154633" lon="10.062807239389056"><ele>3.5</ele><time>2026-05-02T16:32:22.999Z</time></trkpt><trkpt lat="44.03821815925309" lon="10.063163979606346"><ele>3.0</ele><time>2026-05-02T16:32:23.999Z</time></trkpt><trkpt lat="44.038061492213664" lon="10.063521664196557"><ele>3.0</ele><time>2026-05-02T16:32:24.999Z</time></trkpt><trkpt lat="44.03790277286501" lon="10.063882971697653"><ele>3.0</ele><time>2026-05-02T16:32:25.999Z</time></trkpt><trkpt lat="44.03774410552864" lon="10.06423906220732"><ele>3.0</ele><time>2026-05-02T16:32:26.999Z</time></trkpt><trkpt lat="44.03758288633647" lon="10.064596799474636"><ele>3.0</ele><time>2026-05-02T16:32:27.999Z</time></trkpt><trkpt lat="44.037423152161146" lon="10.064958528023332"><ele>3.5</ele><time>2026-05-02T16:32:28.999Z</time></trkpt><trkpt lat="44.03726160942012" lon="10.065319926520564"><ele>4.0</ele><time>2026-05-02T16:32:29.999Z</time></trkpt><trkpt lat="44.037101137662326" lon="10.065680083965098"><ele>3.5</ele><time>2026-05-02T16:32:30.999Z</time></trkpt><trkpt lat="44.03694033931374" lon="10.066042898463639"><ele>3.0</ele><time>2026-05-02T16:32:31.999Z</time></trkpt><trkpt lat="44.03677957475845" lon="10.066405397716181"><ele>4.0</ele><time>2026-05-02T16:32:32.999Z</time></trkpt><trkpt lat="44.03662001710466" lon="10.066762063977682"><ele>5.0</ele><time>2026-05-02T16:32:33.999Z</time></trkpt><trkpt lat="44.03645784349975" lon="10.067137229864858"><ele>5.0</ele><time>2026-05-02T16:32:34.999Z</time></trkpt><trkpt lat="44.03629780285728" lon="10.067490308944192"><ele>5.0</ele><time>2026-05-02T16:32:35.999Z</time></trkpt><trkpt lat="44.0361390663469" lon="10.067851286204407"><ele>5.0</ele><time>2026-05-02T16:32:36.999Z</time></trkpt><trkpt lat="44.03598354906353" lon="10.068205335995012"><ele>5.0</ele><time>2026-05-02T16:32:37.999Z</time></trkpt><trkpt lat="44.03582300195956" lon="10.068568728185145"><ele>4.0</ele><time>2026-05-02T16:32:38.999Z</time></trkpt><trkpt lat="44.03566729580166" lon="10.06891992081827"><ele>3.0</ele><time>2026-05-02T16:32:39.999Z</time></trkpt><trkpt lat="44.03551216763383" lon="10.06927963173016"><ele>3.0</ele><time>2026-05-02T16:32:40.999Z</time></trkpt><trkpt lat="44.03536194048632" lon="10.069633713372836"><ele>3.0</ele><time>2026-05-02T16:32:41.999Z</time></trkpt><trkpt lat="44.03521337556756" lon="10.06999737087902"><ele>3.0</ele><time>2026-05-02T16:32:42.999Z</time></trkpt><trkpt lat="44.0350687225085" lon="10.070364753305828"><ele>3.0</ele><time>2026-05-02T16:32:43.999Z</time></trkpt><trkpt lat="44.03492957961529" lon="10.070727664541478"><ele>3.0</ele><time>2026-05-02T16:32:44.999Z</time></trkpt><trkpt lat="44.034795053689" lon="10.07110179742094"><ele>3.0</ele><time>2026-05-02T16:32:45.999Z</time></trkpt><trkpt lat="44.03466842849097" lon="10.07148050170154"><ele>3.0</ele><time>2026-05-02T16:32:46.999Z</time></trkpt><trkpt lat="44.03455086302712" lon="10.071861522492432"><ele>3.0</ele><time>2026-05-02T16:32:47.999Z</time></trkpt><trkpt lat="44.03443957011345" lon="10.072253928955261"><ele>2.5</ele><time>2026-05-02T16:32:48.999Z</time></trkpt><trkpt lat="44.034335920631925" lon="10.072659691263485"><ele>2.0</ele><time>2026-05-02T16:32:49.999Z</time></trkpt><trkpt lat="44.03424093986388" lon="10.073077942152763"><ele>2.0</ele><time>2026-05-02T16:32:50.999Z</time></trkpt><trkpt lat="44.03416048137669" lon="10.073484933810573"><ele>2.0</ele><time>2026-05-02T16:32:51.999Z</time></trkpt><trkpt lat="44.03407305805088" lon="10.073888709422503"><ele>2.0</ele><time>2026-05-02T16:32:52.999Z</time></trkpt><trkpt lat="44.03399838183243" lon="10.074326475287538"><ele>2.0</ele><time>2026-05-02T16:32:53.999Z</time></trkpt><trkpt lat="44.03388781999006" lon="10.074627001885139"><ele>2.5</ele><time>2026-05-02T16:32:54.999Z</time></trkpt><trkpt lat="44.03382040524281" lon="10.075035770299058"><ele>3.0</ele><time>2026-05-02T16:32:55.999Z</time></trkpt><trkpt lat="44.03375619867511" lon="10.07544446518541"><ele>3.0</ele><time>2026-05-02T16:32:56.999Z</time></trkpt><trkpt lat="44.03369578515639" lon="10.07585736710485"><ele>3.0</ele><time>2026-05-02T16:32:57.999Z</time></trkpt><trkpt lat="44.03364001896116" lon="10.076273099312358"><ele>3.0</ele><time>2026-05-02T16:32:58.999Z</time></trkpt><trkpt lat="44.033585052215145" lon="10.076689046642212"><ele>3.0</ele><time>2026-05-02T16:32:59.998Z</time></trkpt><trkpt lat="44.03353116430243" lon="10.077109852169054"><ele>2.5</ele><time>2026-05-02T16:33:00.998Z</time></trkpt><trkpt lat="44.033474192807056" lon="10.077532393683041"><ele>2.0</ele><time>2026-05-02T16:33:01.998Z</time></trkpt><trkpt lat="44.03341644276045" lon="10.077956666612083"><ele>2.0</ele><time>2026-05-02T16:33:02.998Z</time></trkpt><trkpt lat="44.03335854860987" lon="10.078382011816743"><ele>2.0</ele><time>2026-05-02T16:33:03.998Z</time></trkpt><trkpt lat="44.0332968400622" lon="10.078808776288874"><ele>2.0</ele><time>2026-05-02T16:33:04.998Z</time></trkpt><trkpt lat="44.03323503220819" lon="10.079234276849329"><ele>2.0</ele><time>2026-05-02T16:33:05.998Z</time></trkpt><trkpt lat="44.03317376691563" lon="10.079661978556041"><ele>2.5</ele><time>2026-05-02T16:33:06.998Z</time></trkpt><trkpt lat="44.0331125562455" lon="10.08009174490069"><ele>3.0</ele><time>2026-05-02T16:33:07.998Z</time></trkpt><trkpt lat="44.033053780087094" lon="10.08052159480282"><ele>2.5</ele><time>2026-05-02T16:33:08.998Z</time></trkpt><trkpt lat="44.03298972252834" lon="10.080950536807794"><ele>2.0</ele><time>2026-05-02T16:33:09.998Z</time></trkpt><trkpt lat="44.03292059087189" lon="10.081374711298606"><ele>3.0</ele><time>2026-05-02T16:33:10.998Z</time></trkpt><trkpt lat="44.0328429742319" lon="10.081795265781377"><ele>4.0</ele><time>2026-05-02T16:33:11.998Z</time></trkpt><trkpt lat="44.032752872701955" lon="10.082211989401266"><ele>4.5</ele><time>2026-05-02T16:33:12.998Z</time></trkpt><trkpt lat="44.03265471826514" lon="10.082627898845832"><ele>5.0</ele><time>2026-05-02T16:33:13.998Z</time></trkpt><trkpt lat="44.03255190945727" lon="10.08304123153272"><ele>3.5</ele><time>2026-05-02T16:33:14.998Z</time></trkpt><trkpt lat="44.032445132895226" lon="10.083444225376038"><ele>2.0</ele><time>2026-05-02T16:33:15.998Z</time></trkpt><trkpt lat="44.03231506718405" lon="10.083833673276613"><ele>2.5</ele><time>2026-05-02T16:33:16.998Z</time></trkpt><trkpt lat="44.03219288317303" lon="10.084228310002887"><ele>3.0</ele><time>2026-05-02T16:33:17.998Z</time></trkpt><trkpt lat="44.032068410387666" lon="10.084610852668595"><ele>4.0</ele><time>2026-05-02T16:33:18.998Z</time></trkpt><trkpt lat="44.03192946949177" lon="10.085001622125226"><ele>5.0</ele><time>2026-05-02T16:33:19.998Z</time></trkpt><trkpt lat="44.03179416341541" lon="10.085377197556808"><ele>5.0</ele><time>2026-05-02T16:33:20.998Z</time></trkpt><trkpt lat="44.03164599748559" lon="10.085757143570353"><ele>5.0</ele><time>2026-05-02T16:33:21.998Z</time></trkpt><trkpt lat="44.03149221239424" lon="10.086117333920086"><ele>4.0</ele><time>2026-05-02T16:33:22.998Z</time></trkpt><trkpt lat="44.031337926147195" lon="10.086476540314187"><ele>3.0</ele><time>2026-05-02T16:33:23.998Z</time></trkpt><trkpt lat="44.03117176165816" lon="10.086835917265848"><ele>3.0</ele><time>2026-05-02T16:33:24.998Z</time></trkpt><trkpt lat="44.0310016125774" lon="10.087189292321591"><ele>3.0</ele><time>2026-05-02T16:33:25.998Z</time></trkpt><trkpt lat="44.03082831812119" lon="10.087529486362017"><ele>2.0</ele><time>2026-05-02T16:33:26.998Z</time></trkpt><trkpt lat="44.030643037896205" lon="10.087875207746807"><ele>1.0</ele><time>2026-05-02T16:33:27.998Z</time></trkpt><trkpt lat="44.030457933652045" lon="10.088198918956556"><ele>1.5</ele><time>2026-05-02T16:33:29.001Z</time></trkpt><trkpt lat="44.03026589918124" lon="10.088527639548165"><ele>2.0</ele><time>2026-05-02T16:33:30.001Z</time></trkpt><trkpt lat="44.03007014263127" lon="10.08884819143059"><ele>3.0</ele><time>2026-05-02T16:33:31.001Z</time></trkpt><trkpt lat="44.029869016021074" lon="10.089168883658266"><ele>4.0</ele><time>2026-05-02T16:33:32.001Z</time></trkpt><trkpt lat="44.02966959430806" lon="10.089483433496252"><ele>4.0</ele><time>2026-05-02T16:33:33.001Z</time></trkpt><trkpt lat="44.02946881214269" lon="10.089798679305328"><ele>4.0</ele><time>2026-05-02T16:33:34.001Z</time></trkpt><trkpt lat="44.029263903337636" lon="10.090109621286803"><ele>4.5</ele><time>2026-05-02T16:33:35.001Z</time></trkpt><trkpt lat="44.029059428720274" lon="10.090431233082805"><ele>5.0</ele><time>2026-05-02T16:33:36.001Z</time></trkpt><trkpt lat="44.02885453760507" lon="10.090742370272311"><ele>5.5</ele><time>2026-05-02T16:33:37.001Z</time></trkpt><trkpt lat="44.02865020327513" lon="10.09106038698502"><ele>6.0</ele><time>2026-05-02T16:33:38.001Z</time></trkpt><trkpt lat="44.02844244471833" lon="10.0913765739917"><ele>5.5</ele><time>2026-05-02T16:33:39.001Z</time></trkpt><trkpt lat="44.02823601572207" lon="10.091696758501651"><ele>5.0</ele><time>2026-05-02T16:33:40.001Z</time></trkpt><trkpt lat="44.028028337896295" lon="10.092011921013198"><ele>5.0</ele><time>2026-05-02T16:33:41.001Z</time></trkpt><trkpt lat="44.027818496242304" lon="10.092330157747963"><ele>5.0</ele><time>2026-05-02T16:33:42.001Z</time></trkpt><trkpt lat="44.02760972401454" lon="10.092651740282202"><ele>4.0</ele><time>2026-05-02T16:33:43.001Z</time></trkpt><trkpt lat="44.02740118210439" lon="10.092975332936106"><ele>3.0</ele><time>2026-05-02T16:33:44.001Z</time></trkpt><trkpt lat="44.02719120236363" lon="10.093299141722039"><ele>3.0</ele><time>2026-05-02T16:33:45Z</time></trkpt><trkpt lat="44.02697964900823" lon="10.09362349841108"><ele>3.0</ele><time>2026-05-02T16:33:46Z</time></trkpt><trkpt lat="44.026765637055554" lon="10.093947673701406"><ele>3.0</ele><time>2026-05-02T16:33:47Z</time></trkpt><trkpt lat="44.02655175937975" lon="10.094270261588028"><ele>3.0</ele><time>2026-05-02T16:33:48Z</time></trkpt><trkpt lat="44.02633739222765" lon="10.094598893289248"><ele>3.5</ele><time>2026-05-02T16:33:49Z</time></trkpt><trkpt lat="44.02612246436334" lon="10.09493284944894"><ele>4.0</ele><time>2026-05-02T16:33:50Z</time></trkpt><trkpt lat="44.02590843039856" lon="10.095263480021732"><ele>3.5</ele><time>2026-05-02T16:33:51Z</time></trkpt><trkpt lat="44.025692624868164" lon="10.095595444036109"><ele>3.0</ele><time>2026-05-02T16:33:51.999Z</time></trkpt><trkpt lat="44.025475075151626" lon="10.095925159701896"><ele>2.5</ele><time>2026-05-02T16:33:52.999Z</time></trkpt><trkpt lat="44.025255028115566" lon="10.096257730150775"><ele>2.0</ele><time>2026-05-02T16:33:53.999Z</time></trkpt><trkpt lat="44.025036185339694" lon="10.096591859515389"><ele>2.0</ele><time>2026-05-02T16:33:54.999Z</time></trkpt><trkpt lat="44.0248178934289" lon="10.096924261689791"><ele>2.0</ele><time>2026-05-02T16:33:55.999Z</time></trkpt><trkpt lat="44.02460150866304" lon="10.097256740442392"><ele>2.0</ele><time>2026-05-02T16:33:56.999Z</time></trkpt><trkpt lat="44.02438703934293" lon="10.097589156473433"><ele>2.0</ele><time>2026-05-02T16:33:57.999Z</time></trkpt><trkpt lat="44.02417505690645" lon="10.09792850409953"><ele>3.0</ele><time>2026-05-02T16:33:58.999Z</time></trkpt><trkpt lat="44.02396550829258" lon="10.098265799288713"><ele>4.0</ele><time>2026-05-02T16:33:59.999Z</time></trkpt><trkpt lat="44.0237605572177" lon="10.098620129749"><ele>4.0</ele><time>2026-05-02T16:34:00.999Z</time></trkpt><trkpt lat="44.023567010516715" lon="10.098972017708752"><ele>4.0</ele><time>2026-05-02T16:34:01.999Z</time></trkpt><trkpt lat="44.02338250895585" lon="10.099339729839981"><ele>4.0</ele><time>2026-05-02T16:34:02.999Z</time></trkpt><trkpt lat="44.02320170624822" lon="10.099706796043964"><ele>4.0</ele><time>2026-05-02T16:34:03.999Z</time></trkpt><trkpt lat="44.0230265162696" lon="10.100077742875877"><ele>3.0</ele><time>2026-05-02T16:34:04.998Z</time></trkpt><trkpt lat="44.02285823837796" lon="10.100470229992407"><ele>2.0</ele><time>2026-05-02T16:34:05.998Z</time></trkpt><trkpt lat="44.02270147374766" lon="10.100853770058801"><ele>2.0</ele><time>2026-05-02T16:34:06.998Z</time></trkpt><trkpt lat="44.022553110344674" lon="10.101249489909659"><ele>2.0</ele><time>2026-05-02T16:34:07.998Z</time></trkpt><trkpt lat="44.022407614602244" lon="10.101649827616514"><ele>2.0</ele><time>2026-05-02T16:34:08.998Z</time></trkpt><trkpt lat="44.02226787942995" lon="10.102051815934464"><ele>2.0</ele><time>2026-05-02T16:34:09.998Z</time></trkpt><trkpt lat="44.02213270987574" lon="10.102456201193236"><ele>2.0</ele><time>2026-05-02T16:34:10.998Z</time></trkpt><trkpt lat="44.02199891216327" lon="10.102860542466386"><ele>2.0</ele><time>2026-05-02T16:34:11.998Z</time></trkpt><trkpt lat="44.021871750460285" lon="10.103272428692183"><ele>2.5</ele><time>2026-05-02T16:34:12.998Z</time></trkpt><trkpt lat="44.02175622798598" lon="10.103682794332437"><ele>3.0</ele><time>2026-05-02T16:34:13.998Z</time></trkpt><trkpt lat="44.02164905624485" lon="10.10410179917226"><ele>2.5</ele><time>2026-05-02T16:34:14.998Z</time></trkpt><trkpt lat="44.02154946456376" lon="10.104522866018584"><ele>2.0</ele><time>2026-05-02T16:34:15.998Z</time></trkpt><trkpt lat="44.02145451884224" lon="10.104947021788892"><ele>3.0</ele><time>2026-05-02T16:34:16.998Z</time></trkpt><trkpt lat="44.02136359644586" lon="10.105369017761682"><ele>4.0</ele><time>2026-05-02T16:34:17.998Z</time></trkpt><trkpt lat="44.021274811432335" lon="10.105792479716484"><ele>4.0</ele><time>2026-05-02T16:34:18.998Z</time></trkpt><trkpt lat="44.021187921327794" lon="10.106220809174385"><ele>4.0</ele><time>2026-05-02T16:34:19.998Z</time></trkpt><trkpt lat="44.02109332281493" lon="10.106633259180319"><ele>4.0</ele><time>2026-05-02T16:34:20.998Z</time></trkpt><trkpt lat="44.02099817398382" lon="10.107049538849408"><ele>4.0</ele><time>2026-05-02T16:34:21.998Z</time></trkpt><trkpt lat="44.020903651379356" lon="10.107469291425874"><ele>4.0</ele><time>2026-05-02T16:34:22.998Z</time></trkpt><trkpt lat="44.02081173095601" lon="10.10788423033493"><ele>4.0</ele><time>2026-05-02T16:34:23.998Z</time></trkpt><trkpt lat="44.02071825220624" lon="10.108298524707559"><ele>4.0</ele><time>2026-05-02T16:34:24.998Z</time></trkpt><trkpt lat="44.02062522252782" lon="10.108713745241669"><ele>4.0</ele><time>2026-05-02T16:34:25.998Z</time></trkpt><trkpt lat="44.02053510296162" lon="10.109128573616895"><ele>4.0</ele><time>2026-05-02T16:34:26.998Z</time></trkpt><trkpt lat="44.02044320842439" lon="10.109544243096208"><ele>4.0</ele><time>2026-05-02T16:34:27.998Z</time></trkpt><trkpt lat="44.0203524101465" lon="10.109958534184281"><ele>3.5</ele><time>2026-05-02T16:34:28.998Z</time></trkpt><trkpt lat="44.02026276395884" lon="10.110371447898396"><ele>3.0</ele><time>2026-05-02T16:34:29.997Z</time></trkpt><trkpt lat="44.02016807673492" lon="10.110785924599183"><ele>3.0</ele><time>2026-05-02T16:34:30.997Z</time></trkpt><trkpt lat="44.02007215843622" lon="10.11119627258584"><ele>3.0</ele><time>2026-05-02T16:34:31.997Z</time></trkpt><trkpt lat="44.01997138205833" lon="10.11160133144145"><ele>3.0</ele><time>2026-05-02T16:34:32.997Z</time></trkpt><trkpt lat="44.019864110561684" lon="10.112005673562235"><ele>3.0</ele><time>2026-05-02T16:34:33.997Z</time></trkpt><trkpt lat="44.01974927911268" lon="10.112401110437046"><ele>4.0</ele><time>2026-05-02T16:34:34.997Z</time></trkpt><trkpt lat="44.01962826356157" lon="10.112794479100305"><ele>5.0</ele><time>2026-05-02T16:34:35.997Z</time></trkpt><trkpt lat="44.01950012291759" lon="10.11317830016608"><ele>5.5</ele><time>2026-05-02T16:34:36.997Z</time></trkpt><trkpt lat="44.01936382471907" lon="10.113555498974078"><ele>6.0</ele><time>2026-05-02T16:34:37.997Z</time></trkpt><trkpt lat="44.01922560239543" lon="10.113931063087874"><ele>5.0</ele><time>2026-05-02T16:34:38.997Z</time></trkpt><trkpt lat="44.01908122750044" lon="10.114302641592197"><ele>4.0</ele><time>2026-05-02T16:34:39.997Z</time></trkpt><trkpt lat="44.018930189706026" lon="10.114669757632592"><ele>5.0</ele><time>2026-05-02T16:34:40.997Z</time></trkpt><trkpt lat="44.01877232899411" lon="10.115031531445494"><ele>6.0</ele><time>2026-05-02T16:34:41.997Z</time></trkpt><trkpt lat="44.01860614288716" lon="10.11539090613824"><ele>6.5</ele><time>2026-05-02T16:34:42.997Z</time></trkpt><trkpt lat="44.018433364700236" lon="10.115744873820095"><ele>7.0</ele><time>2026-05-02T16:34:43.997Z</time></trkpt><trkpt lat="44.01825768460415" lon="10.116099273254422"><ele>7.0</ele><time>2026-05-02T16:34:44.997Z</time></trkpt><trkpt lat="44.018081301488394" lon="10.116450687200727"><ele>7.0</ele><time>2026-05-02T16:34:45.997Z</time></trkpt><trkpt lat="44.017902823065135" lon="10.116804862515945"><ele>7.0</ele><time>2026-05-02T16:34:46.997Z</time></trkpt><trkpt lat="44.01772388014306" lon="10.117152959769324"><ele>7.0</ele><time>2026-05-02T16:34:47.997Z</time></trkpt><trkpt lat="44.01754321800662" lon="10.117504053276866"><ele>7.0</ele><time>2026-05-02T16:34:48.997Z</time></trkpt><trkpt lat="44.01736447078024" lon="10.117856740121121"><ele>7.0</ele><time>2026-05-02T16:34:49.997Z</time></trkpt><trkpt lat="44.01718562717041" lon="10.118208409787247"><ele>6.5</ele><time>2026-05-02T16:34:50.997Z</time></trkpt><trkpt lat="44.01700508829244" lon="10.11856069165588"><ele>6.0</ele><time>2026-05-02T16:34:51.997Z</time></trkpt><trkpt lat="44.01682312871818" lon="10.118912370786104"><ele>7.5</ele><time>2026-05-02T16:34:52.997Z</time></trkpt><trkpt lat="44.016643075937125" lon="10.11926418106965"><ele>9.0</ele><time>2026-05-02T16:34:53.997Z</time></trkpt><trkpt lat="44.016462920270556" lon="10.11961670874896"><ele>8.0</ele><time>2026-05-02T16:34:54.997Z</time></trkpt><trkpt lat="44.01628270159242" lon="10.119970230619467"><ele>7.0</ele><time>2026-05-02T16:34:55.997Z</time></trkpt><trkpt lat="44.01610348013663" lon="10.120324582619354"><ele>7.0</ele><time>2026-05-02T16:34:56.997Z</time></trkpt><trkpt lat="44.015925021229094" lon="10.120678319016132"><ele>7.0</ele><time>2026-05-02T16:34:57.997Z</time></trkpt><trkpt lat="44.015742938908666" lon="10.121033069985357"><ele>5.0</ele><time>2026-05-02T16:34:58.997Z</time></trkpt><trkpt lat="44.01556171276299" lon="10.12138646471904"><ele>3.0</ele><time>2026-05-02T16:34:59.997Z</time></trkpt><trkpt lat="44.01538064102667" lon="10.121742441101398"><ele>3.0</ele><time>2026-05-02T16:35:00.997Z</time></trkpt><trkpt lat="44.015201934727564" lon="10.122099789709736"><ele>3.0</ele><time>2026-05-02T16:35:01.997Z</time></trkpt><trkpt lat="44.01502418084099" lon="10.122455709514531"><ele>2.5</ele><time>2026-05-02T16:35:02.997Z</time></trkpt><trkpt lat="44.014842935861346" lon="10.122817712977783"><ele>2.0</ele><time>2026-05-02T16:35:03.997Z</time></trkpt><trkpt lat="44.01466286545788" lon="10.123173295780344"><ele>2.5</ele><time>2026-05-02T16:35:04.997Z</time></trkpt><trkpt lat="44.01448130027452" lon="10.123533954414205"><ele>3.0</ele><time>2026-05-02T16:35:05.997Z</time></trkpt><trkpt lat="44.01429794997101" lon="10.123896758273702"><ele>2.5</ele><time>2026-05-02T16:35:06.997Z</time></trkpt><trkpt lat="44.01411581688703" lon="10.124253227917587"><ele>2.0</ele><time>2026-05-02T16:35:07.997Z</time></trkpt><trkpt lat="44.01393505779095" lon="10.124614577798848"><ele>2.0</ele><time>2026-05-02T16:35:08.996Z</time></trkpt><trkpt lat="44.01375192460987" lon="10.124977479754019"><ele>2.0</ele><time>2026-05-02T16:35:09.996Z</time></trkpt><trkpt lat="44.01357250168937" lon="10.125332418492087"><ele>2.0</ele><time>2026-05-02T16:35:10.996Z</time></trkpt><trkpt lat="44.013391724841846" lon="10.125691192795315"><ele>2.0</ele><time>2026-05-02T16:35:11.996Z</time></trkpt><trkpt lat="44.013213660400346" lon="10.126043012921128"><ele>2.0</ele><time>2026-05-02T16:35:12.996Z</time></trkpt><trkpt lat="44.01304123053161" lon="10.12638331696941"><ele>2.0</ele><time>2026-05-02T16:35:13.996Z</time></trkpt><trkpt lat="44.01287511815696" lon="10.126725839490627"><ele>2.5</ele><time>2026-05-02T16:35:14.996Z</time></trkpt><trkpt lat="44.01270395802141" lon="10.127063950387559"><ele>3.0</ele><time>2026-05-02T16:35:15.996Z</time></trkpt><trkpt lat="44.01253517631295" lon="10.127402621729406"><ele>2.0</ele><time>2026-05-02T16:35:16.996Z</time></trkpt><trkpt lat="44.01236339572758" lon="10.127745794371918"><ele>1.0</ele><time>2026-05-02T16:35:17.996Z</time></trkpt><trkpt lat="44.01218289706" lon="10.128083103802462"><ele>2.0</ele><time>2026-05-02T16:35:18.996Z</time></trkpt><trkpt lat="44.01198966564951" lon="10.1284114840724"><ele>3.0</ele><time>2026-05-02T16:35:19.996Z</time></trkpt><trkpt lat="44.011790504723926" lon="10.12872825598282"><ele>3.0</ele><time>2026-05-02T16:35:20.996Z</time></trkpt><trkpt lat="44.01158306975287" lon="10.129043853155748"><ele>3.0</ele><time>2026-05-02T16:35:21.996Z</time></trkpt><trkpt lat="44.011372834838845" lon="10.129359600529211"><ele>3.5</ele><time>2026-05-02T16:35:22.996Z</time></trkpt><trkpt lat="44.011161589119325" lon="10.129672916057721"><ele>4.0</ele><time>2026-05-02T16:35:23.996Z</time></trkpt><trkpt lat="44.010948987858214" lon="10.129981272084025"><ele>3.5</ele><time>2026-05-02T16:35:24.996Z</time></trkpt><trkpt lat="44.01073373609515" lon="10.130287930788949"><ele>3.0</ele><time>2026-05-02T16:35:25.996Z</time></trkpt><trkpt lat="44.01051587950246" lon="10.13059206510415"><ele>3.5</ele><time>2026-05-02T16:35:26.996Z</time></trkpt><trkpt lat="44.01029897843444" lon="10.130902771577011"><ele>4.0</ele><time>2026-05-02T16:35:27.996Z</time></trkpt><trkpt lat="44.01008488204629" lon="10.131215651597493"><ele>3.0</ele><time>2026-05-02T16:35:28.996Z</time></trkpt><trkpt lat="44.009870902690956" lon="10.131530326054481"><ele>2.0</ele><time>2026-05-02T16:35:29.996Z</time></trkpt><trkpt lat="44.00965533658962" lon="10.131844629266551"><ele>2.0</ele><time>2026-05-02T16:35:30.996Z</time></trkpt><trkpt lat="44.00943876370875" lon="10.132160024287877"><ele>2.0</ele><time>2026-05-02T16:35:31.996Z</time></trkpt><trkpt lat="44.00921835120501" lon="10.132474933017505"><ele>2.0</ele><time>2026-05-02T16:35:32.996Z</time></trkpt><trkpt lat="44.00899652178267" lon="10.132791223380625"><ele>2.0</ele><time>2026-05-02T16:35:33.996Z</time></trkpt><trkpt lat="44.00877633362112" lon="10.133108294856978"><ele>2.0</ele><time>2026-05-02T16:35:34.999Z</time></trkpt><trkpt lat="44.008555649898035" lon="10.133428880493362"><ele>2.0</ele><time>2026-05-02T16:35:35.999Z</time></trkpt><trkpt lat="44.00833607161481" lon="10.133749947697629"><ele>2.5</ele><time>2026-05-02T16:35:36.999Z</time></trkpt><trkpt lat="44.00811443287562" lon="10.13406924282184"><ele>3.0</ele><time>2026-05-02T16:35:37.999Z</time></trkpt><trkpt lat="44.007890306249976" lon="10.134388834018555"><ele>3.0</ele><time>2026-05-02T16:35:38.999Z</time></trkpt><trkpt lat="44.00766530176694" lon="10.13470571865314"><ele>3.0</ele><time>2026-05-02T16:35:39.999Z</time></trkpt><trkpt lat="44.00743775202119" lon="10.135019065223998"><ele>2.5</ele><time>2026-05-02T16:35:40.999Z</time></trkpt><trkpt lat="44.00720986370316" lon="10.135331475765302"><ele>2.0</ele><time>2026-05-02T16:35:41.999Z</time></trkpt><trkpt lat="44.0069841633264" lon="10.135647258198757"><ele>2.0</ele><time>2026-05-02T16:35:43Z</time></trkpt><trkpt lat="44.006761193028076" lon="10.135965866671153"><ele>2.0</ele><time>2026-05-02T16:35:44Z</time></trkpt><trkpt lat="44.00653961784554" lon="10.136285236674409"><ele>2.5</ele><time>2026-05-02T16:35:45Z</time></trkpt><trkpt lat="44.00631757543601" lon="10.13660511205469"><ele>3.0</ele><time>2026-05-02T16:35:46Z</time></trkpt><trkpt lat="44.00609444498305" lon="10.136927257394518"><ele>3.0</ele><time>2026-05-02T16:35:47Z</time></trkpt><trkpt lat="44.00586979409422" lon="10.137251852150962"><ele>3.0</ele><time>2026-05-02T16:35:48Z</time></trkpt><trkpt lat="44.00564580479097" lon="10.137575433440892"><ele>3.0</ele><time>2026-05-02T16:35:49Z</time></trkpt><trkpt lat="44.00542168182567" lon="10.137898310546406"><ele>3.0</ele><time>2026-05-02T16:35:50Z</time></trkpt><trkpt lat="44.00519747139968" lon="10.138221831289012"><ele>2.0</ele><time>2026-05-02T16:35:51Z</time></trkpt><trkpt lat="44.00497513750426" lon="10.138545287607561"><ele>1.0</ele><time>2026-05-02T16:35:52Z</time></trkpt><trkpt lat="44.0047520769222" lon="10.138867893852611"><ele>0.5</ele><time>2026-05-02T16:35:53Z</time></trkpt><trkpt lat="44.00452741497153" lon="10.13919259139355"><ele>0.0</ele><time>2026-05-02T16:35:54Z</time></trkpt><trkpt lat="44.00430147267994" lon="10.1395180910106"><ele>0.0</ele><time>2026-05-02T16:35:55Z</time></trkpt><trkpt lat="44.004075501793416" lon="10.139841588934159"><ele>0.0</ele><time>2026-05-02T16:35:56Z</time></trkpt><trkpt lat="44.00385026999504" lon="10.140162552424817"><ele>1.5</ele><time>2026-05-02T16:35:57Z</time></trkpt><trkpt lat="44.00362604524326" lon="10.140488373121237"><ele>3.0</ele><time>2026-05-02T16:35:58Z</time></trkpt><trkpt lat="44.00340197888173" lon="10.140814714243401"><ele>2.5</ele><time>2026-05-02T16:35:59Z</time></trkpt><trkpt lat="44.00317745085655" lon="10.141142096036306"><ele>2.0</ele><time>2026-05-02T16:36:00Z</time></trkpt><trkpt lat="44.00295208683564" lon="10.141468061279092"><ele>2.0</ele><time>2026-05-02T16:36:01Z</time></trkpt><trkpt lat="44.00272557986578" lon="10.141798459493094"><ele>2.0</ele><time>2026-05-02T16:36:02Z</time></trkpt><trkpt lat="44.00249821045293" lon="10.1421234871703"><ele>1.5</ele><time>2026-05-02T16:36:03Z</time></trkpt><trkpt lat="44.00226917637482" lon="10.14244665302692"><ele>1.0</ele><time>2026-05-02T16:36:04Z</time></trkpt><trkpt lat="44.002039468456374" lon="10.142767830012662"><ele>1.0</ele><time>2026-05-02T16:36:05Z</time></trkpt><trkpt lat="44.00180737267894" lon="10.14308679017365"><ele>1.0</ele><time>2026-05-02T16:36:06Z</time></trkpt><trkpt lat="44.00156964826451" lon="10.143401896345368"><ele>1.5</ele><time>2026-05-02T16:36:07Z</time></trkpt><trkpt lat="44.00132177657506" lon="10.143699364484002"><ele>2.0</ele><time>2026-05-02T16:36:08Z</time></trkpt><trkpt lat="44.0010702766596" lon="10.14398505399124"><ele>2.0</ele><time>2026-05-02T16:36:09Z</time></trkpt><trkpt lat="44.00081643259454" lon="10.144262548092126"><ele>2.0</ele><time>2026-05-02T16:36:10Z</time></trkpt><trkpt lat="44.00055547305358" lon="10.144535890229445"><ele>2.0</ele><time>2026-05-02T16:36:11Z</time></trkpt><trkpt lat="44.000290030851374" lon="10.144800595999234"><ele>2.0</ele><time>2026-05-02T16:36:12Z</time></trkpt><trkpt lat="44.00001995108829" lon="10.145058636341485"><ele>2.5</ele><time>2026-05-02T16:36:13Z</time></trkpt><trkpt lat="43.99974749543641" lon="10.145307833630172"><ele>3.0</ele><time>2026-05-02T16:36:14Z</time></trkpt><trkpt lat="43.99947377007729" lon="10.145549193139889"><ele>3.0</ele><time>2026-05-02T16:36:15Z</time></trkpt><trkpt lat="43.9991964699148" lon="10.145777859236008"><ele>3.0</ele><time>2026-05-02T16:36:16Z</time></trkpt><trkpt lat="43.998918453772774" lon="10.14599657487625"><ele>3.0</ele><time>2026-05-02T16:36:17Z</time></trkpt><trkpt lat="43.99863881140067" lon="10.146206021249302"><ele>3.0</ele><time>2026-05-02T16:36:18Z</time></trkpt><trkpt lat="43.99835888702222" lon="10.146402481618777"><ele>3.0</ele><time>2026-05-02T16:36:19Z</time></trkpt><trkpt lat="43.998072329319186" lon="10.146587744764476"><ele>3.0</ele><time>2026-05-02T16:36:20Z</time></trkpt><trkpt lat="43.997787048841744" lon="10.146764522815655"><ele>3.5</ele><time>2026-05-02T16:36:21Z</time></trkpt><trkpt lat="43.997499522311806" lon="10.146942070772052"><ele>4.0</ele><time>2026-05-02T16:36:22Z</time></trkpt><trkpt lat="43.997209584965866" lon="10.147122762325944"><ele>4.0</ele><time>2026-05-02T16:36:23Z</time></trkpt><trkpt lat="43.9969201707232" lon="10.1473058277084"><ele>4.0</ele><time>2026-05-02T16:36:24Z</time></trkpt><trkpt lat="43.99663133133723" lon="10.147493224905313"><ele>3.5</ele><time>2026-05-02T16:36:25Z</time></trkpt><trkpt lat="43.996342118349446" lon="10.147682478330776"><ele>3.0</ele><time>2026-05-02T16:36:26Z</time></trkpt><trkpt lat="43.99605212256064" lon="10.14787075180386"><ele>3.0</ele><time>2026-05-02T16:36:27Z</time></trkpt><trkpt lat="43.99576141896005" lon="10.148061676587831"><ele>3.0</ele><time>2026-05-02T16:36:28Z</time></trkpt><trkpt lat="43.99547213896197" lon="10.148253231058204"><ele>3.5</ele><time>2026-05-02T16:36:29Z</time></trkpt><trkpt lat="43.995177452509786" lon="10.14844449526493"><ele>4.0</ele><time>2026-05-02T16:36:30Z</time></trkpt><trkpt lat="43.994880700035736" lon="10.148631142205971"><ele>4.0</ele><time>2026-05-02T16:36:31Z</time></trkpt><trkpt lat="43.994582874371055" lon="10.148816028530662"><ele>4.0</ele><time>2026-05-02T16:36:32Z</time></trkpt><trkpt lat="43.9942836270307" lon="10.149004122090007"><ele>4.5</ele><time>2026-05-02T16:36:33Z</time></trkpt><trkpt lat="43.9939829213185" lon="10.149197099687873"><ele>5.0</ele><time>2026-05-02T16:36:34Z</time></trkpt><trkpt lat="43.993684106481936" lon="10.14939927623402"><ele>5.0</ele><time>2026-05-02T16:36:34.999Z</time></trkpt><trkpt lat="43.993389072405414" lon="10.149614299743455"><ele>5.0</ele><time>2026-05-02T16:36:35.999Z</time></trkpt><trkpt lat="43.99309789938501" lon="10.149838833898256"><ele>4.5</ele><time>2026-05-02T16:36:36.998Z</time></trkpt><trkpt lat="43.992812173603554" lon="10.150077888728422"><ele>4.0</ele><time>2026-05-02T16:36:37.998Z</time></trkpt><trkpt lat="43.99251895825273" lon="10.150317959216682"><ele>4.0</ele><time>2026-05-02T16:36:38.998Z</time></trkpt><trkpt lat="43.9922384792161" lon="10.15057605754324"><ele>4.0</ele><time>2026-05-02T16:36:39.998Z</time></trkpt><trkpt lat="43.991963038840304" lon="10.15084201569075"><ele>4.0</ele><time>2026-05-02T16:36:40.998Z</time></trkpt><trkpt lat="43.99169668595969" lon="10.151116810468535"><ele>4.0</ele><time>2026-05-02T16:36:41.998Z</time></trkpt><trkpt lat="43.99143757188876" lon="10.151401732567514"><ele>4.0</ele><time>2026-05-02T16:36:42.998Z</time></trkpt><trkpt lat="43.99118670599879" lon="10.151695472081796"><ele>4.0</ele><time>2026-05-02T16:36:43.998Z</time></trkpt><trkpt lat="43.99093760145919" lon="10.151994749489878"><ele>4.0</ele><time>2026-05-02T16:36:44.998Z</time></trkpt><trkpt lat="43.990695119564876" lon="10.15229939122292"><ele>4.0</ele><time>2026-05-02T16:36:45.998Z</time></trkpt><trkpt lat="43.99045991378397" lon="10.15261271928793"><ele>4.0</ele><time>2026-05-02T16:36:46.998Z</time></trkpt><trkpt lat="43.99022708529705" lon="10.152927208544572"><ele>4.0</ele><time>2026-05-02T16:36:47.998Z</time></trkpt><trkpt lat="43.990001572386326" lon="10.153252513200933"><ele>3.0</ele><time>2026-05-02T16:36:48.998Z</time></trkpt><trkpt lat="43.989779649445" lon="10.153585329069458"><ele>2.0</ele><time>2026-05-02T16:36:49.998Z</time></trkpt><trkpt lat="43.989558283118285" lon="10.153915497012486"><ele>2.0</ele><time>2026-05-02T16:36:50.998Z</time></trkpt><trkpt lat="43.98933567699794" lon="10.154242419362616"><ele>2.0</ele><time>2026-05-02T16:36:51.998Z</time></trkpt><trkpt lat="43.989114196524106" lon="10.154566277076375"><ele>1.5</ele><time>2026-05-02T16:36:52.998Z</time></trkpt><trkpt lat="43.98888892077331" lon="10.154888727247002"><ele>1.0</ele><time>2026-05-02T16:36:53.998Z</time></trkpt><trkpt lat="43.98866605524773" lon="10.155212149989055"><ele>1.0</ele><time>2026-05-02T16:36:54.998Z</time></trkpt><trkpt lat="43.988440472393194" lon="10.155536188601424"><ele>1.0</ele><time>2026-05-02T16:36:55.998Z</time></trkpt><trkpt lat="43.98821774002105" lon="10.155859608986225"><ele>1.0</ele><time>2026-05-02T16:36:56.998Z</time></trkpt><trkpt lat="43.98799422354305" lon="10.156181035713804"><ele>1.0</ele><time>2026-05-02T16:36:57.998Z</time></trkpt><trkpt lat="43.987770519302146" lon="10.156500233053364"><ele>1.0</ele><time>2026-05-02T16:36:58.998Z</time></trkpt><trkpt lat="43.987548670371694" lon="10.156821137411304"><ele>1.0</ele><time>2026-05-02T16:36:59.998Z</time></trkpt><trkpt lat="43.98733306967314" lon="10.157135694503205"><ele>0.5</ele><time>2026-05-02T16:37:00.998Z</time></trkpt><trkpt lat="43.9871197768333" lon="10.157452055818043"><ele>0.0</ele><time>2026-05-02T16:37:01.998Z</time></trkpt><trkpt lat="43.98690994131655" lon="10.157757561673389"><ele>0.0</ele><time>2026-05-02T16:37:02.998Z</time></trkpt><trkpt lat="43.9867023519748" lon="10.15806338415123"><ele>0.0</ele><time>2026-05-02T16:37:03.998Z</time></trkpt><trkpt lat="43.986499340508686" lon="10.158357151734863"><ele>0.5</ele><time>2026-05-02T16:37:04.998Z</time></trkpt><trkpt lat="43.98629946824937" lon="10.158649228968887"><ele>1.0</ele><time>2026-05-02T16:37:05.998Z</time></trkpt><trkpt lat="43.9861015110846" lon="10.158937918367325"><ele>1.0</ele><time>2026-05-02T16:37:06.998Z</time></trkpt><trkpt lat="43.98590826536068" lon="10.15922135758658"><ele>1.0</ele><time>2026-05-02T16:37:07.998Z</time></trkpt><trkpt lat="43.98571675376266" lon="10.159502326592312"><ele>1.0</ele><time>2026-05-02T16:37:08.998Z</time></trkpt><trkpt lat="43.98552779542422" lon="10.159785162551259"><ele>1.0</ele><time>2026-05-02T16:37:09.998Z</time></trkpt><trkpt lat="43.98533910820095" lon="10.160066732177938"><ele>1.0</ele><time>2026-05-02T16:37:10.998Z</time></trkpt><trkpt lat="43.985147757602896" lon="10.160349140912022"><ele>1.0</ele><time>2026-05-02T16:37:11.998Z</time></trkpt><trkpt lat="43.98496314473176" lon="10.160622540027484"><ele>0.5</ele><time>2026-05-02T16:37:12.998Z</time></trkpt><trkpt lat="43.984767470923046" lon="10.160893390905082"><ele>0.0</ele><time>2026-05-02T16:37:13.998Z</time></trkpt><trkpt lat="43.98457717640663" lon="10.161164314895448"><ele>0.0</ele><time>2026-05-02T16:37:14.998Z</time></trkpt><trkpt lat="43.98438793061134" lon="10.161441417883198"><ele>0.0</ele><time>2026-05-02T16:37:15.998Z</time></trkpt><trkpt lat="43.98419390075866" lon="10.161723345998208"><ele>1.0</ele><time>2026-05-02T16:37:16.998Z</time></trkpt><trkpt lat="43.983998347575934" lon="10.16200574554802"><ele>2.0</ele><time>2026-05-02T16:37:17.998Z</time></trkpt><trkpt lat="43.98379965536702" lon="10.162292803368624"><ele>2.0</ele><time>2026-05-02T16:37:18.997Z</time></trkpt><trkpt lat="43.98359971339161" lon="10.1625853259486"><ele>2.0</ele><time>2026-05-02T16:37:19.997Z</time></trkpt><trkpt lat="43.983395030916626" lon="10.162877428717398"><ele>2.0</ele><time>2026-05-02T16:37:20.997Z</time></trkpt><trkpt lat="43.98318932129752" lon="10.163172882671013"><ele>2.0</ele><time>2026-05-02T16:37:21.997Z</time></trkpt><trkpt lat="43.98298268205901" lon="10.163468221883248"><ele>2.0</ele><time>2026-05-02T16:37:22.997Z</time></trkpt><trkpt lat="43.98277162837093" lon="10.163770980924465"><ele>2.0</ele><time>2026-05-02T16:37:23.997Z</time></trkpt><trkpt lat="43.98256684369193" lon="10.16407131377553"><ele>3.5</ele><time>2026-05-02T16:37:24.997Z</time></trkpt><trkpt lat="43.982358739303535" lon="10.164372296276582"><ele>5.0</ele><time>2026-05-02T16:37:25.997Z</time></trkpt><trkpt lat="43.98215225159193" lon="10.16467694599445"><ele>4.0</ele><time>2026-05-02T16:37:26.997Z</time></trkpt><trkpt lat="43.98194175730505" lon="10.164982693853936"><ele>3.0</ele><time>2026-05-02T16:37:27.997Z</time></trkpt><trkpt lat="43.98173007701302" lon="10.165286753891218"><ele>3.5</ele><time>2026-05-02T16:37:28.997Z</time></trkpt><trkpt lat="43.98151633331398" lon="10.165592398377079"><ele>4.0</ele><time>2026-05-02T16:37:29.997Z</time></trkpt><trkpt lat="43.98130482937896" lon="10.16589563526761"><ele>4.0</ele><time>2026-05-02T16:37:30.997Z</time></trkpt><trkpt lat="43.98109158494597" lon="10.1662060327999"><ele>4.0</ele><time>2026-05-02T16:37:31.997Z</time></trkpt><trkpt lat="43.98087597198108" lon="10.166516073140537"><ele>3.5</ele><time>2026-05-02T16:37:32.997Z</time></trkpt><trkpt lat="43.98065955252452" lon="10.166821484585522"><ele>3.0</ele><time>2026-05-02T16:37:33.997Z</time></trkpt><trkpt lat="43.980438575710686" lon="10.16712175781189"><ele>2.5</ele><time>2026-05-02T16:37:34.997Z</time></trkpt><trkpt lat="43.98021373676578" lon="10.167425401587314"><ele>2.0</ele><time>2026-05-02T16:37:35.997Z</time></trkpt><trkpt lat="43.97999110860046" lon="10.167734857367009"><ele>2.0</ele><time>2026-05-02T16:37:36.997Z</time></trkpt><trkpt lat="43.97977037112465" lon="10.168055416231924"><ele>2.0</ele><time>2026-05-02T16:37:37.997Z</time></trkpt><trkpt lat="43.97955090953127" lon="10.168373927303106"><ele>2.0</ele><time>2026-05-02T16:37:38.997Z</time></trkpt><trkpt lat="43.97932947801124" lon="10.168696179707542"><ele>2.0</ele><time>2026-05-02T16:37:39.997Z</time></trkpt><trkpt lat="43.97910698172346" lon="10.169015958405364"><ele>2.5</ele><time>2026-05-02T16:37:41Z</time></trkpt><trkpt lat="43.97888482528837" lon="10.169335637285139"><ele>3.0</ele><time>2026-05-02T16:37:42Z</time></trkpt><trkpt lat="43.97866333397535" lon="10.169652980601288"><ele>3.5</ele><time>2026-05-02T16:37:43Z</time></trkpt><trkpt lat="43.97844127195334" lon="10.16997098983612"><ele>4.0</ele><time>2026-05-02T16:37:44Z</time></trkpt><trkpt lat="43.97822222149802" lon="10.170285468674964"><ele>4.0</ele><time>2026-05-02T16:37:45Z</time></trkpt><trkpt lat="43.978003939786994" lon="10.170598904411287"><ele>4.0</ele><time>2026-05-02T16:37:46Z</time></trkpt><trkpt lat="43.977788592316756" lon="10.170911043586468"><ele>3.0</ele><time>2026-05-02T16:37:47Z</time></trkpt><trkpt lat="43.977575527774924" lon="10.17121914539131"><ele>2.0</ele><time>2026-05-02T16:37:48Z</time></trkpt><trkpt lat="43.977360259281944" lon="10.171529923226364"><ele>2.0</ele><time>2026-05-02T16:37:49Z</time></trkpt><trkpt lat="43.97714807339225" lon="10.171837067679174"><ele>2.0</ele><time>2026-05-02T16:37:50Z</time></trkpt><trkpt lat="43.97693397864801" lon="10.172145986165393"><ele>1.5</ele><time>2026-05-02T16:37:51Z</time></trkpt><trkpt lat="43.976719793360225" lon="10.17245503641649"><ele>1.0</ele><time>2026-05-02T16:37:52Z</time></trkpt><trkpt lat="43.97650550524289" lon="10.172764372869754"><ele>1.0</ele><time>2026-05-02T16:37:53Z</time></trkpt><trkpt lat="43.97629332686723" lon="10.173071319440941"><ele>1.0</ele><time>2026-05-02T16:37:54Z</time></trkpt><trkpt lat="43.97608178614719" lon="10.173382429889816"><ele>1.0</ele><time>2026-05-02T16:37:55Z</time></trkpt><trkpt lat="43.975869301574996" lon="10.173697244849329"><ele>1.0</ele><time>2026-05-02T16:37:56Z</time></trkpt><trkpt lat="43.97565895244247" lon="10.17401148968508"><ele>2.0</ele><time>2026-05-02T16:37:57Z</time></trkpt><trkpt lat="43.97544995263826" lon="10.174330599518836"><ele>3.0</ele><time>2026-05-02T16:37:58Z</time></trkpt><trkpt lat="43.97524465479693" lon="10.17465448764861"><ele>2.5</ele><time>2026-05-02T16:37:59Z</time></trkpt><trkpt lat="43.97504111552623" lon="10.174983997579563"><ele>2.0</ele><time>2026-05-02T16:38:00Z</time></trkpt><trkpt lat="43.97483877086319" lon="10.175316395690823"><ele>2.0</ele><time>2026-05-02T16:38:01Z</time></trkpt><trkpt lat="43.97463755336237" lon="10.175646672102918"><ele>2.0</ele><time>2026-05-02T16:38:02Z</time></trkpt><trkpt lat="43.9744366870283" lon="10.175983829112011"><ele>2.0</ele><time>2026-05-02T16:38:03Z</time></trkpt><trkpt lat="43.97423790474217" lon="10.176322274029722"><ele>2.0</ele><time>2026-05-02T16:38:04Z</time></trkpt><trkpt lat="43.974035786013836" lon="10.176667536988722"><ele>2.0</ele><time>2026-05-02T16:38:05Z</time></trkpt><trkpt lat="43.97383935213177" lon="10.177025192427624"><ele>2.0</ele><time>2026-05-02T16:38:06Z</time></trkpt><trkpt lat="43.97364745095949" lon="10.177370085685476"><ele>2.5</ele><time>2026-05-02T16:38:07Z</time></trkpt><trkpt lat="43.97345454450272" lon="10.177723850145956"><ele>3.0</ele><time>2026-05-02T16:38:07.999Z</time></trkpt><trkpt lat="43.97325949456014" lon="10.178075902722687"><ele>3.5</ele><time>2026-05-02T16:38:08.999Z</time></trkpt><trkpt lat="43.97306316945932" lon="10.17842354113415"><ele>4.0</ele><time>2026-05-02T16:38:09.999Z</time></trkpt><trkpt lat="43.97286385034595" lon="10.178769743601064"><ele>4.0</ele><time>2026-05-02T16:38:10.999Z</time></trkpt><trkpt lat="43.97266222341149" lon="10.17911203392962"><ele>4.0</ele><time>2026-05-02T16:38:11.999Z</time></trkpt><trkpt lat="43.97245775745399" lon="10.17945053765636"><ele>3.5</ele><time>2026-05-02T16:38:12.999Z</time></trkpt><trkpt lat="43.97225527091065" lon="10.17978988598613"><ele>3.0</ele><time>2026-05-02T16:38:13.999Z</time></trkpt><trkpt lat="43.97205546164776" lon="10.180129723942324"><ele>3.0</ele><time>2026-05-02T16:38:14.999Z</time></trkpt><trkpt lat="43.97185561881252" lon="10.180470913329152"><ele>3.0</ele><time>2026-05-02T16:38:15.999Z</time></trkpt><trkpt lat="43.97165872725962" lon="10.180814121964698"><ele>3.0</ele><time>2026-05-02T16:38:16.999Z</time></trkpt><trkpt lat="43.97146141304291" lon="10.18116041132969"><ele>3.0</ele><time>2026-05-02T16:38:17.999Z</time></trkpt><trkpt lat="43.97126816983723" lon="10.181505347004506"><ele>3.5</ele><time>2026-05-02T16:38:18.999Z</time></trkpt><trkpt lat="43.9710740606441" lon="10.181850922648126"><ele>4.0</ele><time>2026-05-02T16:38:19.999Z</time></trkpt><trkpt lat="43.97088060649982" lon="10.182196351816737"><ele>5.0</ele><time>2026-05-02T16:38:20.999Z</time></trkpt><trkpt lat="43.970687645895026" lon="10.182541197643793"><ele>6.0</ele><time>2026-05-02T16:38:21.999Z</time></trkpt><trkpt lat="43.97049733465292" lon="10.182891610096888"><ele>7.0</ele><time>2026-05-02T16:38:22.999Z</time></trkpt><trkpt lat="43.970300070297974" lon="10.18322650206363"><ele>8.0</ele><time>2026-05-02T16:38:23.999Z</time></trkpt><trkpt lat="43.97010406925316" lon="10.183565552746913"><ele>7.0</ele><time>2026-05-02T16:38:24.999Z</time></trkpt><trkpt lat="43.96990675611236" lon="10.183899464163344"><ele>6.0</ele><time>2026-05-02T16:38:25.999Z</time></trkpt><trkpt lat="43.9697066334067" lon="10.18423402286327"><ele>6.0</ele><time>2026-05-02T16:38:26.999Z</time></trkpt><trkpt lat="43.969502130054586" lon="10.184558585309276"><ele>6.0</ele><time>2026-05-02T16:38:27.999Z</time></trkpt><trkpt lat="43.96929163850078" lon="10.18487485122582"><ele>5.5</ele><time>2026-05-02T16:38:28.999Z</time></trkpt><trkpt lat="43.96907492043613" lon="10.185184150683822"><ele>5.0</ele><time>2026-05-02T16:38:29.999Z</time></trkpt><trkpt lat="43.96885372482625" lon="10.185486958315625"><ele>5.0</ele><time>2026-05-02T16:38:30.999Z</time></trkpt><trkpt lat="43.968628871137255" lon="10.185781956693061"><ele>5.0</ele><time>2026-05-02T16:38:31.999Z</time></trkpt><trkpt lat="43.9684013441853" lon="10.186078392322978"><ele>5.5</ele><time>2026-05-02T16:38:32.999Z</time></trkpt><trkpt lat="43.96817247960505" lon="10.186374829422407"><ele>6.0</ele><time>2026-05-02T16:38:33.999Z</time></trkpt><trkpt lat="43.9679418433575" lon="10.186666482942595"><ele>6.0</ele><time>2026-05-02T16:38:34.999Z</time></trkpt><trkpt lat="43.96770734655186" lon="10.186953966632549"><ele>6.0</ele><time>2026-05-02T16:38:35.999Z</time></trkpt><trkpt lat="43.967469654781645" lon="10.187231965993204"><ele>5.0</ele><time>2026-05-02T16:38:36.999Z</time></trkpt><trkpt lat="43.96722514770665" lon="10.187515050020743"><ele>4.0</ele><time>2026-05-02T16:38:37.999Z</time></trkpt><trkpt lat="43.96697615798807" lon="10.18779258967956"><ele>4.0</ele><time>2026-05-02T16:38:38.999Z</time></trkpt><trkpt lat="43.966725666137165" lon="10.18806514394413"><ele>4.0</ele><time>2026-05-02T16:38:39.999Z</time></trkpt><trkpt lat="43.966475273817494" lon="10.188342010898621"><ele>3.5</ele><time>2026-05-02T16:38:40.999Z</time></trkpt><trkpt lat="43.96622371277034" lon="10.18861991380704"><ele>3.0</ele><time>2026-05-02T16:38:41.999Z</time></trkpt><trkpt lat="43.9659712686" lon="10.188898406040966"><ele>2.0</ele><time>2026-05-02T16:38:42.999Z</time></trkpt><trkpt lat="43.96571802605031" lon="10.189181147017951"><ele>1.0</ele><time>2026-05-02T16:38:43.999Z</time></trkpt><trkpt lat="43.96546433463625" lon="10.189467461712397"><ele>1.0</ele><time>2026-05-02T16:38:44.999Z</time></trkpt><trkpt lat="43.965208066925406" lon="10.189757106855534"><ele>1.0</ele><time>2026-05-02T16:38:45.999Z</time></trkpt><trkpt lat="43.96495130310615" lon="10.190042380662296"><ele>0.5</ele><time>2026-05-02T16:38:46.998Z</time></trkpt><trkpt lat="43.964693505575" lon="10.190327336338845"><ele>0.0</ele><time>2026-05-02T16:38:47.998Z</time></trkpt><trkpt lat="43.9644342347265" lon="10.19061363367736"><ele>1.0</ele><time>2026-05-02T16:38:48.998Z</time></trkpt><trkpt lat="43.964174269522616" lon="10.190902934375107"><ele>2.0</ele><time>2026-05-02T16:38:49.998Z</time></trkpt><trkpt lat="43.963915575627894" lon="10.191192510159286"><ele>2.0</ele><time>2026-05-02T16:38:50.998Z</time></trkpt><trkpt lat="43.96365599105355" lon="10.191481189509409"><ele>2.0</ele><time>2026-05-02T16:38:51.998Z</time></trkpt><trkpt lat="43.963397091324204" lon="10.191769112009613"><ele>2.0</ele><time>2026-05-02T16:38:52.998Z</time></trkpt><trkpt lat="43.96313827546287" lon="10.192055611731222"><ele>2.0</ele><time>2026-05-02T16:38:53.998Z</time></trkpt><trkpt lat="43.962881981881424" lon="10.19234194602245"><ele>2.0</ele><time>2026-05-02T16:38:54.998Z</time></trkpt><trkpt lat="43.962627984594675" lon="10.192629259402578"><ele>2.0</ele><time>2026-05-02T16:38:55.998Z</time></trkpt><trkpt lat="43.96237059817939" lon="10.19290772695164"><ele>2.0</ele><time>2026-05-02T16:38:56.998Z</time></trkpt><trkpt lat="43.96211144251815" lon="10.193181271351941"><ele>2.0</ele><time>2026-05-02T16:38:57.998Z</time></trkpt><trkpt lat="43.961853835705035" lon="10.193456100674716"><ele>2.0</ele><time>2026-05-02T16:38:58.998Z</time></trkpt><trkpt lat="43.96159805171763" lon="10.193734183049347"><ele>2.0</ele><time>2026-05-02T16:38:59.998Z</time></trkpt><trkpt lat="43.961344900210605" lon="10.194016540654236"><ele>2.0</ele><time>2026-05-02T16:39:00.998Z</time></trkpt><trkpt lat="43.961094653825135" lon="10.194294848009505"><ele>2.0</ele><time>2026-05-02T16:39:01.998Z</time></trkpt><trkpt lat="43.9608444956725" lon="10.194577170464717"><ele>2.0</ele><time>2026-05-02T16:39:02.998Z</time></trkpt><trkpt lat="43.96059393863102" lon="10.194854841517062"><ele>2.0</ele><time>2026-05-02T16:39:03.998Z</time></trkpt><trkpt lat="43.96034191476337" lon="10.195130202883977"><ele>2.0</ele><time>2026-05-02T16:39:04.998Z</time></trkpt><trkpt lat="43.960090112610686" lon="10.195411506501085"><ele>2.0</ele><time>2026-05-02T16:39:05.998Z</time></trkpt><trkpt lat="43.959839629866096" lon="10.195688096539898"><ele>2.5</ele><time>2026-05-02T16:39:06.998Z</time></trkpt><trkpt lat="43.959588290637974" lon="10.195967132752518"><ele>3.0</ele><time>2026-05-02T16:39:07.998Z</time></trkpt><trkpt lat="43.95933886870415" lon="10.196244139824467"><ele>3.5</ele><time>2026-05-02T16:39:08.998Z</time></trkpt><trkpt lat="43.95908969766636" lon="10.196526706607067"><ele>4.0</ele><time>2026-05-02T16:39:09.998Z</time></trkpt><trkpt lat="43.95884116540014" lon="10.196805846323869"><ele>4.0</ele><time>2026-05-02T16:39:10.998Z</time></trkpt><trkpt lat="43.95859515010602" lon="10.197083751582522"><ele>4.0</ele><time>2026-05-02T16:39:11.998Z</time></trkpt><trkpt lat="43.95834636895505" lon="10.1973624940235"><ele>3.5</ele><time>2026-05-02T16:39:12.998Z</time></trkpt><trkpt lat="43.95809604632" lon="10.197645379836164"><ele>3.0</ele><time>2026-05-02T16:39:13.998Z</time></trkpt><trkpt lat="43.95784906959706" lon="10.197922378501348"><ele>3.0</ele><time>2026-05-02T16:39:14.998Z</time></trkpt><trkpt lat="43.95760005932798" lon="10.198200000882343"><ele>3.0</ele><time>2026-05-02T16:39:15.998Z</time></trkpt><trkpt lat="43.95735051834017" lon="10.198480722660246"><ele>2.5</ele><time>2026-05-02T16:39:16.998Z</time></trkpt><trkpt lat="43.95710151090917" lon="10.198757211421288"><ele>2.0</ele><time>2026-05-02T16:39:17.998Z</time></trkpt><trkpt lat="43.95685350378075" lon="10.199032405765287"><ele>2.5</ele><time>2026-05-02T16:39:18.998Z</time></trkpt><trkpt lat="43.9566053887281" lon="10.199308978185265"><ele>3.0</ele><time>2026-05-02T16:39:19.998Z</time></trkpt><trkpt lat="43.956357311827695" lon="10.199588093148968"><ele>2.5</ele><time>2026-05-02T16:39:20.998Z</time></trkpt><trkpt lat="43.95610789832965" lon="10.199874572448099"><ele>2.0</ele><time>2026-05-02T16:39:21.998Z</time></trkpt><trkpt lat="43.95585883366051" lon="10.200155683708244"><ele>2.5</ele><time>2026-05-02T16:39:22.998Z</time></trkpt><trkpt lat="43.95560735486218" lon="10.200429168117394"><ele>3.0</ele><time>2026-05-02T16:39:23.998Z</time></trkpt><trkpt lat="43.95535584837404" lon="10.200696301871925"><ele>3.0</ele><time>2026-05-02T16:39:24.998Z</time></trkpt><trkpt lat="43.955101288304995" lon="10.200955368972684"><ele>3.0</ele><time>2026-05-02T16:39:25.998Z</time></trkpt><trkpt lat="43.95485215849132" lon="10.201259396869803"><ele>2.0</ele><time>2026-05-02T16:39:26.997Z</time></trkpt><trkpt lat="43.954599227472556" lon="10.201538707576967"><ele>1.0</ele><time>2026-05-02T16:39:27.997Z</time></trkpt><trkpt lat="43.954346331410505" lon="10.201819959937884"><ele>2.0</ele><time>2026-05-02T16:39:28.997Z</time></trkpt><trkpt lat="43.95409195237787" lon="10.202101324735514"><ele>3.0</ele><time>2026-05-02T16:39:29.997Z</time></trkpt><trkpt lat="43.953838478960584" lon="10.202386815806749"><ele>3.0</ele><time>2026-05-02T16:39:30.997Z</time></trkpt><trkpt lat="43.95358495567353" lon="10.20266897485956"><ele>3.0</ele><time>2026-05-02T16:39:31.997Z</time></trkpt><trkpt lat="43.95333170482662" lon="10.202954511850423"><ele>2.5</ele><time>2026-05-02T16:39:32.997Z</time></trkpt><trkpt lat="43.95308181766564" lon="10.203243570513072"><ele>2.0</ele><time>2026-05-02T16:39:33.997Z</time></trkpt><trkpt lat="43.95283222686729" lon="10.203538056698573"><ele>2.0</ele><time>2026-05-02T16:39:34.997Z</time></trkpt><trkpt lat="43.95258365134552" lon="10.203834304151203"><ele>2.0</ele><time>2026-05-02T16:39:35.997Z</time></trkpt><trkpt lat="43.95233477523786" lon="10.204126708807065"><ele>3.0</ele><time>2026-05-02T16:39:36.997Z</time></trkpt><trkpt lat="43.952085033686615" lon="10.20441439836787"><ele>4.0</ele><time>2026-05-02T16:39:37.997Z</time></trkpt><trkpt lat="43.95183185187133" lon="10.204698136365247"><ele>3.0</ele><time>2026-05-02T16:39:38.997Z</time></trkpt><trkpt lat="43.95157777169615" lon="10.204979275831468"><ele>2.0</ele><time>2026-05-02T16:39:39.997Z</time></trkpt><trkpt lat="43.95132251452404" lon="10.205261808911292"><ele>2.0</ele><time>2026-05-02T16:39:40.997Z</time></trkpt><trkpt lat="43.95106740147733" lon="10.205544023351793"><ele>2.0</ele><time>2026-05-02T16:39:41.997Z</time></trkpt><trkpt lat="43.95081365433272" lon="10.205829662766467"><ele>2.0</ele><time>2026-05-02T16:39:42.997Z</time></trkpt><trkpt lat="43.95056032782758" lon="10.206115548701993"><ele>2.0</ele><time>2026-05-02T16:39:43.997Z</time></trkpt><trkpt lat="43.95030626991342" lon="10.206400493266308"><ele>2.0</ele><time>2026-05-02T16:39:44.997Z</time></trkpt><trkpt lat="43.95005233663281" lon="10.206683531195951"><ele>2.0</ele><time>2026-05-02T16:39:45.997Z</time></trkpt><trkpt lat="43.94979721089636" lon="10.206968422901289"><ele>2.0</ele><time>2026-05-02T16:39:47Z</time></trkpt><trkpt lat="43.9495441622917" lon="10.20724953794258"><ele>2.0</ele><time>2026-05-02T16:39:48Z</time></trkpt><trkpt lat="43.949296092673535" lon="10.20752821071771"><ele>2.5</ele><time>2026-05-02T16:39:49Z</time></trkpt><trkpt lat="43.949047800012615" lon="10.20780487969088"><ele>3.0</ele><time>2026-05-02T16:39:50Z</time></trkpt><trkpt lat="43.94880013544062" lon="10.208077315066534"><ele>2.5</ele><time>2026-05-02T16:39:51Z</time></trkpt><trkpt lat="43.948553523066145" lon="10.208348845057257"><ele>2.0</ele><time>2026-05-02T16:39:52Z</time></trkpt><trkpt lat="43.948308768473005" lon="10.208620087770939"><ele>3.0</ele><time>2026-05-02T16:39:53Z</time></trkpt><trkpt lat="43.94806571921852" lon="10.208892387313288"><ele>4.0</ele><time>2026-05-02T16:39:54Z</time></trkpt><trkpt lat="43.94782524918524" lon="10.209161926932953"><ele>4.0</ele><time>2026-05-02T16:39:55Z</time></trkpt><trkpt lat="43.94758234524945" lon="10.20943370645852"><ele>4.0</ele><time>2026-05-02T16:39:56Z</time></trkpt><trkpt lat="43.94734241167047" lon="10.209704155366317"><ele>4.5</ele><time>2026-05-02T16:39:57Z</time></trkpt><trkpt lat="43.94710220999697" lon="10.209971443878333"><ele>5.0</ele><time>2026-05-02T16:39:58Z</time></trkpt><trkpt lat="43.94685896910492" lon="10.210238577006223"><ele>5.0</ele><time>2026-05-02T16:39:59Z</time></trkpt><trkpt lat="43.94661794250625" lon="10.210503134991283"><ele>5.0</ele><time>2026-05-02T16:40:00Z</time></trkpt><trkpt lat="43.94637487009718" lon="10.210756587750907"><ele>5.0</ele><time>2026-05-02T16:40:01Z</time></trkpt><trkpt lat="43.9461282230091" lon="10.210999111261788"><ele>5.0</ele><time>2026-05-02T16:40:02Z</time></trkpt><trkpt lat="43.94587647450806" lon="10.211239038860214"><ele>5.0</ele><time>2026-05-02T16:40:03Z</time></trkpt><trkpt lat="43.94561899640721" lon="10.211474491123942"><ele>5.0</ele><time>2026-05-02T16:40:04Z</time></trkpt><trkpt lat="43.945356590932455" lon="10.211704673692248"><ele>5.0</ele><time>2026-05-02T16:40:05Z</time></trkpt><trkpt lat="43.94508930194682" lon="10.211931104012296"><ele>5.0</ele><time>2026-05-02T16:40:06Z</time></trkpt><trkpt lat="43.94482142144268" lon="10.212148789628378"><ele>4.0</ele><time>2026-05-02T16:40:07Z</time></trkpt><trkpt lat="43.9445489574476" lon="10.212363481197682"><ele>3.0</ele><time>2026-05-02T16:40:08Z</time></trkpt><trkpt lat="43.944271836302704" lon="10.212576525317296"><ele>2.0</ele><time>2026-05-02T16:40:09Z</time></trkpt><trkpt lat="43.94398755263096" lon="10.212785854974397"><ele>1.0</ele><time>2026-05-02T16:40:10Z</time></trkpt><trkpt lat="43.94369256987129" lon="10.212996070417981"><ele>2.0</ele><time>2026-05-02T16:40:11Z</time></trkpt><trkpt lat="43.94339405842541" lon="10.213196401092247"><ele>3.0</ele><time>2026-05-02T16:40:12Z</time></trkpt><trkpt lat="43.94309417628764" lon="10.213396893969307"><ele>4.0</ele><time>2026-05-02T16:40:13Z</time></trkpt><trkpt lat="43.942792169688296" lon="10.213602835736005"><ele>5.0</ele><time>2026-05-02T16:40:14Z</time></trkpt><trkpt lat="43.942487104427876" lon="10.213813362259554"><ele>4.5</ele><time>2026-05-02T16:40:14.999Z</time></trkpt><trkpt lat="43.94218194952708" lon="10.214026163843196"><ele>4.0</ele><time>2026-05-02T16:40:15.999Z</time></trkpt><trkpt lat="43.94188175072696" lon="10.214238196408091"><ele>3.5</ele><time>2026-05-02T16:40:16.999Z</time></trkpt><trkpt lat="43.9415827540616" lon="10.214448461809495"><ele>3.0</ele><time>2026-05-02T16:40:17.999Z</time></trkpt><trkpt lat="43.941281401715976" lon="10.214663324833216"><ele>2.5</ele><time>2026-05-02T16:40:18.999Z</time></trkpt><trkpt lat="43.9409806589871" lon="10.214875208815657"><ele>2.0</ele><time>2026-05-02T16:40:19.999Z</time></trkpt><trkpt lat="43.94067907945824" lon="10.215081528449883"><ele>1.5</ele><time>2026-05-02T16:40:20.999Z</time></trkpt><trkpt lat="43.94037769764688" lon="10.215289138973585"><ele>1.0</ele><time>2026-05-02T16:40:21.999Z</time></trkpt><trkpt lat="43.94007987189854" lon="10.215489877474647"><ele>1.5</ele><time>2026-05-02T16:40:22.999Z</time></trkpt><trkpt lat="43.93977877046464" lon="10.21569823985325"><ele>2.0</ele><time>2026-05-02T16:40:23.999Z</time></trkpt><trkpt lat="43.93948004446345" lon="10.215907001373589"><ele>2.0</ele><time>2026-05-02T16:40:24.999Z</time></trkpt><trkpt lat="43.939179988134605" lon="10.216123307752449"><ele>2.0</ele><time>2026-05-02T16:40:25.999Z</time></trkpt><trkpt lat="43.93888250474144" lon="10.216334867874023"><ele>1.5</ele><time>2026-05-02T16:40:26.999Z</time></trkpt><trkpt lat="43.93858415804526" lon="10.216545448880426"><ele>1.0</ele><time>2026-05-02T16:40:27.999Z</time></trkpt><trkpt lat="43.93828575347021" lon="10.216756575242199"><ele>1.0</ele><time>2026-05-02T16:40:28.999Z</time></trkpt><trkpt lat="43.93798865266248" lon="10.216966786413161"><ele>1.0</ele><time>2026-05-02T16:40:29.999Z</time></trkpt><trkpt lat="43.93769245324626" lon="10.21717556664432"><ele>0.5</ele><time>2026-05-02T16:40:30.999Z</time></trkpt><trkpt lat="43.937398214304906" lon="10.217381383911981"><ele>0.0</ele><time>2026-05-02T16:40:31.999Z</time></trkpt><trkpt lat="43.9371036364695" lon="10.217587793709555"><ele>0.0</ele><time>2026-05-02T16:40:32.999Z</time></trkpt><trkpt lat="43.93681057327328" lon="10.217792370639932"><ele>0.0</ele><time>2026-05-02T16:40:33.999Z</time></trkpt><trkpt lat="43.93651437411718" lon="10.21799933682538"><ele>0.0</ele><time>2026-05-02T16:40:34.999Z</time></trkpt><trkpt lat="43.936220222953295" lon="10.218202611294434"><ele>0.0</ele><time>2026-05-02T16:40:35.999Z</time></trkpt><trkpt lat="43.9359261566476" lon="10.218407600126383"><ele>0.5</ele><time>2026-05-02T16:40:36.999Z</time></trkpt><trkpt lat="43.93563161793472" lon="10.21861240314024"><ele>1.0</ele><time>2026-05-02T16:40:37.999Z</time></trkpt><trkpt lat="43.935339763626786" lon="10.218814969414728"><ele>0.0</ele><time>2026-05-02T16:40:38.999Z</time></trkpt><trkpt lat="43.93504902632407" lon="10.219015933348913"><ele>-1.0</ele><time>2026-05-02T16:40:39.999Z</time></trkpt><trkpt lat="43.93475791235636" lon="10.219221852090168"><ele>-1.0</ele><time>2026-05-02T16:40:40.999Z</time></trkpt><trkpt lat="43.934467901934894" lon="10.219425943102639"><ele>-1.0</ele><time>2026-05-02T16:40:41.999Z</time></trkpt><trkpt lat="43.93417860050626" lon="10.219630681708459"><ele>0.0</ele><time>2026-05-02T16:40:42.999Z</time></trkpt><trkpt lat="43.93388972788386" lon="10.219836036290333"><ele>1.0</ele><time>2026-05-02T16:40:43.999Z</time></trkpt><trkpt lat="43.93359969504035" lon="10.220043356685814"><ele>1.0</ele><time>2026-05-02T16:40:44.999Z</time></trkpt><trkpt lat="43.93331082724986" lon="10.220245887811794"><ele>1.0</ele><time>2026-05-02T16:40:45.999Z</time></trkpt><trkpt lat="43.93302193461362" lon="10.220446953412958"><ele>1.0</ele><time>2026-05-02T16:40:46.999Z</time></trkpt><trkpt lat="43.93273329193876" lon="10.220647444781987"><ele>1.0</ele><time>2026-05-02T16:40:47.999Z</time></trkpt><trkpt lat="43.93244443226641" lon="10.22084794975495"><ele>1.0</ele><time>2026-05-02T16:40:48.999Z</time></trkpt><trkpt lat="43.93215624881949" lon="10.221045581695948"><ele>1.0</ele><time>2026-05-02T16:40:49.999Z</time></trkpt><trkpt lat="43.9318656714237" lon="10.221246949265282"><ele>1.0</ele><time>2026-05-02T16:40:50.999Z</time></trkpt><trkpt lat="43.93158057124541" lon="10.221446018007128"><ele>1.0</ele><time>2026-05-02T16:40:51.998Z</time></trkpt><trkpt lat="43.93129045118003" lon="10.221648166866002"><ele>1.5</ele><time>2026-05-02T16:40:52.998Z</time></trkpt><trkpt lat="43.93100260941524" lon="10.221850472997877"><ele>2.0</ele><time>2026-05-02T16:40:53.998Z</time></trkpt><trkpt lat="43.93071510352978" lon="10.222045667406729"><ele>2.0</ele><time>2026-05-02T16:40:54.998Z</time></trkpt><trkpt lat="43.93042130633873" lon="10.222246774127283"><ele>2.0</ele><time>2026-05-02T16:40:55.998Z</time></trkpt><trkpt lat="43.930142019854145" lon="10.222455092758848"><ele>2.0</ele><time>2026-05-02T16:40:56.998Z</time></trkpt><trkpt lat="43.9298551983638" lon="10.222657094711883"><ele>2.0</ele><time>2026-05-02T16:40:57.998Z</time></trkpt><trkpt lat="43.92956397722816" lon="10.222863704205261"><ele>2.0</ele><time>2026-05-02T16:40:58.998Z</time></trkpt><trkpt lat="43.929281016510885" lon="10.223056958983642"><ele>2.0</ele><time>2026-05-02T16:40:59.998Z</time></trkpt><trkpt lat="43.92899239926558" lon="10.223259526697458"><ele>2.0</ele><time>2026-05-02T16:41:00.998Z</time></trkpt><trkpt lat="43.928705354765626" lon="10.22345667209872"><ele>2.0</ele><time>2026-05-02T16:41:01.998Z</time></trkpt><trkpt lat="43.92841700147823" lon="10.22366096510797"><ele>2.0</ele><time>2026-05-02T16:41:02.998Z</time></trkpt><trkpt lat="43.92813109349249" lon="10.223864366634066"><ele>2.0</ele><time>2026-05-02T16:41:03.998Z</time></trkpt><trkpt lat="43.927847755169815" lon="10.224069720774365"><ele>2.0</ele><time>2026-05-02T16:41:04.998Z</time></trkpt><trkpt lat="43.92756451723441" lon="10.224272462851896"><ele>2.0</ele><time>2026-05-02T16:41:05.998Z</time></trkpt><trkpt lat="43.92728230841861" lon="10.224473497716959"><ele>1.5</ele><time>2026-05-02T16:41:06.998Z</time></trkpt><trkpt lat="43.92700344359642" lon="10.22467774972385"><ele>1.0</ele><time>2026-05-02T16:41:07.998Z</time></trkpt><trkpt lat="43.92672148671217" lon="10.224890200771963"><ele>2.0</ele><time>2026-05-02T16:41:08.998Z</time></trkpt><trkpt lat="43.926444824780965" lon="10.225100557212837"><ele>3.0</ele><time>2026-05-02T16:41:09.998Z</time></trkpt><trkpt lat="43.92616814608765" lon="10.225312043593966"><ele>2.5</ele><time>2026-05-02T16:41:10.998Z</time></trkpt><trkpt lat="43.92589371762492" lon="10.225524222131003"><ele>2.0</ele><time>2026-05-02T16:41:11.998Z</time></trkpt><trkpt lat="43.92561840407049" lon="10.225741571737437"><ele>2.0</ele><time>2026-05-02T16:41:12.998Z</time></trkpt><trkpt lat="43.925342935472145" lon="10.225964349996172"><ele>2.0</ele><time>2026-05-02T16:41:13.998Z</time></trkpt><trkpt lat="43.925070261348004" lon="10.226187586317918"><ele>1.5</ele><time>2026-05-02T16:41:14.998Z</time></trkpt><trkpt lat="43.92479875299079" lon="10.226417607411207"><ele>1.0</ele><time>2026-05-02T16:41:15.998Z</time></trkpt><trkpt lat="43.92452662136201" lon="10.22665358924641"><ele>2.0</ele><time>2026-05-02T16:41:16.998Z</time></trkpt><trkpt lat="43.92425598511058" lon="10.226889516407848"><ele>3.0</ele><time>2026-05-02T16:41:17.998Z</time></trkpt><trkpt lat="43.92398766081455" lon="10.227132990600593"><ele>2.0</ele><time>2026-05-02T16:41:18.998Z</time></trkpt><trkpt lat="43.923721171685386" lon="10.227367440004455"><ele>1.0</ele><time>2026-05-02T16:41:19.998Z</time></trkpt><trkpt lat="43.92345715691406" lon="10.227606923158035"><ele>0.5</ele><time>2026-05-02T16:41:20.998Z</time></trkpt><trkpt lat="43.92319250370693" lon="10.227852416317525"><ele>0.0</ele><time>2026-05-02T16:41:21.998Z</time></trkpt><trkpt lat="43.92292880013823" lon="10.228100835382646"><ele>0.0</ele><time>2026-05-02T16:41:22.998Z</time></trkpt><trkpt lat="43.92266537990112" lon="10.228350331171265"><ele>0.0</ele><time>2026-05-02T16:41:23.998Z</time></trkpt><trkpt lat="43.922403067978415" lon="10.228602539807458"><ele>0.5</ele><time>2026-05-02T16:41:24.998Z</time></trkpt><trkpt lat="43.92214352415356" lon="10.228855220640757"><ele>1.0</ele><time>2026-05-02T16:41:25.998Z</time></trkpt><trkpt lat="43.921881946694484" lon="10.229114923685017"><ele>0.5</ele><time>2026-05-02T16:41:26.998Z</time></trkpt><trkpt lat="43.92162009443166" lon="10.229364920623135"><ele>0.0</ele><time>2026-05-02T16:41:27.998Z</time></trkpt><trkpt lat="43.9213585808348" lon="10.229620801168943"><ele>0.5</ele><time>2026-05-02T16:41:28.998Z</time></trkpt><trkpt lat="43.92109476505103" lon="10.229869693246597"><ele>1.0</ele><time>2026-05-02T16:41:29.998Z</time></trkpt><trkpt lat="43.92083036603551" lon="10.230122198969418"><ele>1.0</ele><time>2026-05-02T16:41:30.997Z</time></trkpt><trkpt lat="43.92056588037948" lon="10.230377466483619"><ele>1.0</ele><time>2026-05-02T16:41:31.997Z</time></trkpt><trkpt lat="43.920299678023454" lon="10.230634465880966"><ele>0.5</ele><time>2026-05-02T16:41:32.997Z</time></trkpt><trkpt lat="43.92003434059631" lon="10.230888993268927"><ele>0.0</ele><time>2026-05-02T16:41:33.997Z</time></trkpt><trkpt lat="43.919766231319734" lon="10.231148207959267"><ele>0.0</ele><time>2026-05-02T16:41:34.997Z</time></trkpt><trkpt lat="43.91949747439419" lon="10.23140127815975"><ele>0.0</ele><time>2026-05-02T16:41:35.997Z</time></trkpt><trkpt lat="43.91922705970346" lon="10.231663388719033"><ele>0.5</ele><time>2026-05-02T16:41:36.997Z</time></trkpt><trkpt lat="43.91895869841467" lon="10.231916602786736"><ele>1.0</ele><time>2026-05-02T16:41:37.997Z</time></trkpt><trkpt lat="43.91869031465956" lon="10.232179880052525"><ele>1.5</ele><time>2026-05-02T16:41:38.997Z</time></trkpt><trkpt lat="43.91842207475191" lon="10.232439256741316"><ele>2.0</ele><time>2026-05-02T16:41:39.997Z</time></trkpt><trkpt lat="43.91815280218987" lon="10.232704710747674"><ele>1.0</ele><time>2026-05-02T16:41:40.997Z</time></trkpt><trkpt lat="43.91788674067604" lon="10.232961557264662"><ele>0.0</ele><time>2026-05-02T16:41:41.997Z</time></trkpt><trkpt lat="43.91762629496469" lon="10.233217232316317"><ele>-0.5</ele><time>2026-05-02T16:41:42.997Z</time></trkpt><trkpt lat="43.917366062369794" lon="10.233477847716912"><ele>-1.0</ele><time>2026-05-02T16:41:43.997Z</time></trkpt><trkpt lat="43.91710022643476" lon="10.23374714151015"><ele>-1.0</ele><time>2026-05-02T16:41:44.997Z</time></trkpt><trkpt lat="43.91685459123976" lon="10.23399705026977"><ele>-1.0</ele><time>2026-05-02T16:41:45.997Z</time></trkpt><trkpt lat="43.91660644692376" lon="10.234253671741895"><ele>-1.0</ele><time>2026-05-02T16:41:46.997Z</time></trkpt><trkpt lat="43.91634496303504" lon="10.234492364311903"><ele>-1.0</ele><time>2026-05-02T16:41:47.997Z</time></trkpt><trkpt lat="43.916077574313434" lon="10.234751821015063"><ele>-0.5</ele><time>2026-05-02T16:41:48.997Z</time></trkpt><trkpt lat="43.91581135321727" lon="10.235002475298076"><ele>0.0</ele><time>2026-05-02T16:41:49.997Z</time></trkpt><trkpt lat="43.91554295736862" lon="10.235257111203772"><ele>0.0</ele><time>2026-05-02T16:41:50.997Z</time></trkpt><trkpt lat="43.91527313076966" lon="10.235514717065724"><ele>0.0</ele><time>2026-05-02T16:41:51.997Z</time></trkpt><trkpt lat="43.915003514456586" lon="10.235778153911214"><ele>0.5</ele><time>2026-05-02T16:41:53Z</time></trkpt><trkpt lat="43.9147341016865" lon="10.23603998302928"><ele>1.0</ele><time>2026-05-02T16:41:54Z</time></trkpt><trkpt lat="43.91446668195726" lon="10.236303806509815"><ele>1.0</ele><time>2026-05-02T16:41:55Z</time></trkpt><trkpt lat="43.91420350658336" lon="10.236564907651465"><ele>1.0</ele><time>2026-05-02T16:41:56Z</time></trkpt><trkpt lat="43.913938890594075" lon="10.236826497499871"><ele>1.0</ele><time>2026-05-02T16:41:57Z</time></trkpt><trkpt lat="43.91367684995394" lon="10.237085728477934"><ele>1.0</ele><time>2026-05-02T16:41:58Z</time></trkpt><trkpt lat="43.913413854994225" lon="10.237344054564144"><ele>1.5</ele><time>2026-05-02T16:41:59Z</time></trkpt><trkpt lat="43.9131544381284" lon="10.23760086297376"><ele>2.0</ele><time>2026-05-02T16:42:00Z</time></trkpt><trkpt lat="43.912891563463745" lon="10.237855131965098"><ele>2.0</ele><time>2026-05-02T16:42:01Z</time></trkpt><trkpt lat="43.91262396929315" lon="10.238106113411112"><ele>2.0</ele><time>2026-05-02T16:42:02Z</time></trkpt><trkpt lat="43.91235283418489" lon="10.238357599414591"><ele>1.0</ele><time>2026-05-02T16:42:03Z</time></trkpt><trkpt lat="43.91208758427526" lon="10.238604804702367"><ele>0.0</ele><time>2026-05-02T16:42:04Z</time></trkpt><trkpt lat="43.91182520555584" lon="10.238848031454866"><ele>1.0</ele><time>2026-05-02T16:42:05Z</time></trkpt><trkpt lat="43.911566515106905" lon="10.239094890928351"><ele>2.0</ele><time>2026-05-02T16:42:06Z</time></trkpt><trkpt lat="43.911309403248" lon="10.239344485748418"><ele>2.0</ele><time>2026-05-02T16:42:07Z</time></trkpt><trkpt lat="43.911061337937234" lon="10.239589433416326"><ele>2.0</ele><time>2026-05-02T16:42:08Z</time></trkpt><trkpt lat="43.91080893243599" lon="10.23983608645852"><ele>1.5</ele><time>2026-05-02T16:42:09Z</time></trkpt><trkpt lat="43.91056044426375" lon="10.240077859965343"><ele>1.0</ele><time>2026-05-02T16:42:10Z</time></trkpt><trkpt lat="43.91030822350761" lon="10.240320965255401"><ele>0.5</ele><time>2026-05-02T16:42:11Z</time></trkpt><trkpt lat="43.91005986151808" lon="10.240564450666135"><ele>0.0</ele><time>2026-05-02T16:42:12Z</time></trkpt><trkpt lat="43.909809211670755" lon="10.240808519875301"><ele>0.0</ele><time>2026-05-02T16:42:13Z</time></trkpt><trkpt lat="43.9095587243925" lon="10.241054109288637"><ele>0.0</ele><time>2026-05-02T16:42:14Z</time></trkpt><trkpt lat="43.909307208312896" lon="10.241302623339063"><ele>1.0</ele><time>2026-05-02T16:42:15Z</time></trkpt><trkpt lat="43.90905772818379" lon="10.241555857939298"><ele>2.0</ele><time>2026-05-02T16:42:16Z</time></trkpt><trkpt lat="43.908808305013636" lon="10.241810419137286"><ele>2.0</ele><time>2026-05-02T16:42:17Z</time></trkpt><trkpt lat="43.9085622018905" lon="10.24207399011005"><ele>2.0</ele><time>2026-05-02T16:42:18Z</time></trkpt><trkpt lat="43.90831620665689" lon="10.242343084772381"><ele>2.0</ele><time>2026-05-02T16:42:19Z</time></trkpt><trkpt lat="43.9080696282711" lon="10.242612023324066"><ele>2.0</ele><time>2026-05-02T16:42:20Z</time></trkpt><trkpt lat="43.90782126612536" lon="10.242885124168959"><ele>2.0</ele><time>2026-05-02T16:42:21Z</time></trkpt><trkpt lat="43.907572380298966" lon="10.243165832319702"><ele>2.0</ele><time>2026-05-02T16:42:22Z</time></trkpt><trkpt lat="43.907315998212" lon="10.243454837619247"><ele>2.0</ele><time>2026-05-02T16:42:23Z</time></trkpt><trkpt lat="43.90705735124679" lon="10.243751663581572"><ele>2.0</ele><time>2026-05-02T16:42:24Z</time></trkpt><trkpt lat="43.90680055354039" lon="10.24404584999174"><ele>1.5</ele><time>2026-05-02T16:42:24.999Z</time></trkpt><trkpt lat="43.90654350463311" lon="10.244334758288458"><ele>1.0</ele><time>2026-05-02T16:42:25.999Z</time></trkpt><trkpt lat="43.90629250767578" lon="10.244619763860591"><ele>1.0</ele><time>2026-05-02T16:42:26.999Z</time></trkpt><trkpt lat="43.90604385941145" lon="10.244901428384761"><ele>1.0</ele><time>2026-05-02T16:42:27.999Z</time></trkpt><trkpt lat="43.90579624942878" lon="10.245183272477218"><ele>1.0</ele><time>2026-05-02T16:42:28.999Z</time></trkpt><trkpt lat="43.9055532261566" lon="10.245462215496119"><ele>1.0</ele><time>2026-05-02T16:42:29.999Z</time></trkpt><trkpt lat="43.90530585957503" lon="10.245738341020878"><ele>1.0</ele><time>2026-05-02T16:42:30.999Z</time></trkpt><trkpt lat="43.90506233504841" lon="10.246015479917242"><ele>1.0</ele><time>2026-05-02T16:42:31.999Z</time></trkpt><trkpt lat="43.90482138053898" lon="10.24628932882279"><ele>1.0</ele><time>2026-05-02T16:42:32.999Z</time></trkpt><trkpt lat="43.90457717504271" lon="10.24656918280832"><ele>1.0</ele><time>2026-05-02T16:42:33.999Z</time></trkpt><trkpt lat="43.90433200365524" lon="10.246848036729858"><ele>1.0</ele><time>2026-05-02T16:42:34.999Z</time></trkpt><trkpt lat="43.904082144383885" lon="10.247130977715033"><ele>1.0</ele><time>2026-05-02T16:42:35.999Z</time></trkpt><trkpt lat="43.903833913575326" lon="10.247412223504718"><ele>1.0</ele><time>2026-05-02T16:42:36.999Z</time></trkpt><trkpt lat="43.90358571501684" lon="10.24769480449196"><ele>1.0</ele><time>2026-05-02T16:42:37.999Z</time></trkpt><trkpt lat="43.90333107410881" lon="10.247982002541637"><ele>2.0</ele><time>2026-05-02T16:42:38.999Z</time></trkpt><trkpt lat="43.90307653282503" lon="10.248270149842325"><ele>3.0</ele><time>2026-05-02T16:42:39.999Z</time></trkpt><trkpt lat="43.90281653316662" lon="10.248555673300265"><ele>3.0</ele><time>2026-05-02T16:42:40.999Z</time></trkpt><trkpt lat="43.90255390763684" lon="10.24883552545485"><ele>3.0</ele><time>2026-05-02T16:42:41.999Z</time></trkpt><trkpt lat="43.902295305738406" lon="10.249115690767116"><ele>3.0</ele><time>2026-05-02T16:42:42.999Z</time></trkpt><trkpt lat="43.90203809438405" lon="10.249398772690256"><ele>3.0</ele><time>2026-05-02T16:42:43.999Z</time></trkpt><trkpt lat="43.90178095289118" lon="10.249682705533589"><ele>3.0</ele><time>2026-05-02T16:42:44.999Z</time></trkpt><trkpt lat="43.90152643896453" lon="10.249965852367108"><ele>3.0</ele><time>2026-05-02T16:42:45.999Z</time></trkpt><trkpt lat="43.901274565130144" lon="10.250246807877161"><ele>3.0</ele><time>2026-05-02T16:42:46.999Z</time></trkpt><trkpt lat="43.90102356773995" lon="10.250528259459724"><ele>3.0</ele><time>2026-05-02T16:42:47.999Z</time></trkpt><trkpt lat="43.9007730124757" lon="10.250810040530968"><ele>3.5</ele><time>2026-05-02T16:42:48.999Z</time></trkpt><trkpt lat="43.90052401931307" lon="10.25109184430722"><ele>4.0</ele><time>2026-05-02T16:42:49.999Z</time></trkpt><trkpt lat="43.90027700987217" lon="10.251374052937368"><ele>3.5</ele><time>2026-05-02T16:42:50.999Z</time></trkpt><trkpt lat="43.90003170711238" lon="10.251654582979702"><ele>3.0</ele><time>2026-05-02T16:42:51.999Z</time></trkpt><trkpt lat="43.89978827472358" lon="10.25193259008807"><ele>3.0</ele><time>2026-05-02T16:42:52.999Z</time></trkpt><trkpt lat="43.8995429351139" lon="10.252209091727785"><ele>3.0</ele><time>2026-05-02T16:42:53.999Z</time></trkpt><trkpt lat="43.89929643667786" lon="10.252485850217852"><ele>3.0</ele><time>2026-05-02T16:42:54.999Z</time></trkpt><trkpt lat="43.89905015580667" lon="10.252761371210138"><ele>3.0</ele><time>2026-05-02T16:42:55.999Z</time></trkpt><trkpt lat="43.8988031939125" lon="10.253037855645093"><ele>3.0</ele><time>2026-05-02T16:42:56.999Z</time></trkpt><trkpt lat="43.898561002354555" lon="10.25331132911191"><ele>3.0</ele><time>2026-05-02T16:42:57.999Z</time></trkpt><trkpt lat="43.898320462977765" lon="10.253583188716656"><ele>2.0</ele><time>2026-05-02T16:42:58.999Z</time></trkpt><trkpt lat="43.89808105347812" lon="10.253853879379074"><ele>1.0</ele><time>2026-05-02T16:42:59.999Z</time></trkpt><trkpt lat="43.89784754552161" lon="10.254118790778856"><ele>1.0</ele><time>2026-05-02T16:43:00.999Z</time></trkpt><trkpt lat="43.897616015750415" lon="10.254381753323695"><ele>1.0</ele><time>2026-05-02T16:43:01.999Z</time></trkpt><trkpt lat="43.89738433373234" lon="10.254644162237803"><ele>0.5</ele><time>2026-05-02T16:43:02.998Z</time></trkpt><trkpt lat="43.897153101507065" lon="10.254905989071753"><ele>0.0</ele><time>2026-05-02T16:43:03.998Z</time></trkpt><trkpt lat="43.89692450639809" lon="10.255165798732008"><ele>0.5</ele><time>2026-05-02T16:43:04.998Z</time></trkpt><trkpt lat="43.89670411057025" lon="10.255413783884284"><ele>1.0</ele><time>2026-05-02T16:43:05.998Z</time></trkpt><trkpt lat="43.89648883110693" lon="10.255650132911645"><ele>1.5</ele><time>2026-05-02T16:43:06.998Z</time></trkpt><trkpt lat="43.89628473070145" lon="10.255880857367053"><ele>2.0</ele><time>2026-05-02T16:43:07.998Z</time></trkpt><trkpt lat="43.89608342433367" lon="10.256103680838507"><ele>1.0</ele><time>2026-05-02T16:43:08.998Z</time></trkpt><trkpt lat="43.89589566241889" lon="10.256317020984023"><ele>0.0</ele><time>2026-05-02T16:43:09.998Z</time></trkpt><trkpt lat="43.895711555151465" lon="10.256523437431289"><ele>-0.5</ele><time>2026-05-02T16:43:10.998Z</time></trkpt><trkpt lat="43.89552469028073" lon="10.256726537604768"><ele>-1.0</ele><time>2026-05-02T16:43:11.998Z</time></trkpt><trkpt lat="43.89533195127984" lon="10.256927446274235"><ele>-1.0</ele><time>2026-05-02T16:43:12.998Z</time></trkpt><trkpt lat="43.89513204573238" lon="10.257127049130979"><ele>-1.0</ele><time>2026-05-02T16:43:13.998Z</time></trkpt><trkpt lat="43.894930044026616" lon="10.257325285167623"><ele>-0.5</ele><time>2026-05-02T16:43:14.998Z</time></trkpt><trkpt lat="43.89472390418731" lon="10.257520639274205"><ele>0.0</ele><time>2026-05-02T16:43:15.998Z</time></trkpt><trkpt lat="43.89451792470238" lon="10.25770992844484"><ele>0.0</ele><time>2026-05-02T16:43:16.998Z</time></trkpt><trkpt lat="43.89431190188305" lon="10.25789553165233"><ele>0.0</ele><time>2026-05-02T16:43:17.998Z</time></trkpt><trkpt lat="43.89410576571457" lon="10.258079092885204"><ele>0.0</ele><time>2026-05-02T16:43:18.998Z</time></trkpt><trkpt lat="43.89389463517145" lon="10.258261823873408"><ele>0.0</ele><time>2026-05-02T16:43:19.998Z</time></trkpt><trkpt lat="43.89367878929917" lon="10.258441774956134"><ele>0.0</ele><time>2026-05-02T16:43:20.998Z</time></trkpt><trkpt lat="43.89345885030215" lon="10.258615033286043"><ele>0.0</ele><time>2026-05-02T16:43:21.998Z</time></trkpt><trkpt lat="43.893236207946245" lon="10.258784797346353"><ele>0.5</ele><time>2026-05-02T16:43:22.998Z</time></trkpt><trkpt lat="43.89301276052216" lon="10.258952339391142"><ele>1.0</ele><time>2026-05-02T16:43:23.998Z</time></trkpt><trkpt lat="43.89278375827678" lon="10.259118715010725"><ele>0.5</ele><time>2026-05-02T16:43:24.998Z</time></trkpt><trkpt lat="43.89255525018175" lon="10.259282456761099"><ele>0.0</ele><time>2026-05-02T16:43:25.998Z</time></trkpt><trkpt lat="43.89232489211646" lon="10.259444664877153"><ele>0.0</ele><time>2026-05-02T16:43:26.998Z</time></trkpt><trkpt lat="43.89209674707557" lon="10.259607256495713"><ele>0.0</ele><time>2026-05-02T16:43:27.998Z</time></trkpt><trkpt lat="43.891871371748415" lon="10.259770255690853"><ele>-0.5</ele><time>2026-05-02T16:43:28.998Z</time></trkpt><trkpt lat="43.891646547875" lon="10.259932486081391"><ele>-1.0</ele><time>2026-05-02T16:43:29.998Z</time></trkpt><trkpt lat="43.89142428714602" lon="10.26009077752565"><ele>-1.0</ele><time>2026-05-02T16:43:30.998Z</time></trkpt><trkpt lat="43.89120528319338" lon="10.26024506974349"><ele>-1.0</ele><time>2026-05-02T16:43:31.998Z</time></trkpt><trkpt lat="43.89099004519873" lon="10.260397060175613"><ele>-0.5</ele><time>2026-05-02T16:43:32.998Z</time></trkpt><trkpt lat="43.89078220771157" lon="10.26054489963611"><ele>0.0</ele><time>2026-05-02T16:43:33.998Z</time></trkpt><trkpt lat="43.890579293930315" lon="10.260690801217175"><ele>0.3333333333333333</ele><time>2026-05-02T16:43:34.998Z</time></trkpt><trkpt lat="43.89037906752969" lon="10.260834238199442"><ele>0.6666666666666666</ele><time>2026-05-02T16:43:35.998Z</time></trkpt><trkpt lat="43.890185364476224" lon="10.260971650669157"><ele>1.0</ele><time>2026-05-02T16:43:36.998Z</time></trkpt><trkpt lat="43.88999381033577" lon="10.261109306037952"><ele>0.6666666666666666</ele><time>2026-05-02T16:43:37.998Z</time></trkpt><trkpt lat="43.88980598911073" lon="10.261243006441592"><ele>0.3333333333333333</ele><time>2026-05-02T16:43:38.998Z</time></trkpt><trkpt lat="43.88962370396089" lon="10.261371650480136"><ele>0.0</ele><time>2026-05-02T16:43:39.998Z</time></trkpt><trkpt lat="43.88944650881288" lon="10.261498155293852"><ele>0.0</ele><time>2026-05-02T16:43:40.998Z</time></trkpt><trkpt lat="43.88927512970742" lon="10.261621197115078"><ele>0.0</ele><time>2026-05-02T16:43:41.997Z</time></trkpt><trkpt lat="43.88910357967991" lon="10.261746113827103"><ele>0.0</ele><time>2026-05-02T16:43:42.997Z</time></trkpt><trkpt lat="43.88893192766134" lon="10.261871340911803"><ele>-0.3333333333333333</ele><time>2026-05-02T16:43:43.997Z</time></trkpt><trkpt lat="43.888761148821494" lon="10.261995627675969"><ele>-0.6666666666666666</ele><time>2026-05-02T16:43:44.997Z</time></trkpt><trkpt lat="43.88858966678974" lon="10.262118944586609"><ele>-1.0</ele><time>2026-05-02T16:43:45.997Z</time></trkpt><trkpt lat="43.88842058596289" lon="10.262239469722518"><ele>-1.0</ele><time>2026-05-02T16:43:46.997Z</time></trkpt><trkpt lat="43.8882568309668" lon="10.262355346429104"><ele>-1.0</ele><time>2026-05-02T16:43:47.997Z</time></trkpt><trkpt lat="43.888098625665485" lon="10.26246421723346"><ele>-1.0</ele><time>2026-05-02T16:43:48.997Z</time></trkpt><trkpt lat="43.88794184606936" lon="10.262572718173173"><ele>-1.0</ele><time>2026-05-02T16:43:49.997Z</time></trkpt><trkpt lat="43.8877849675871" lon="10.262674033794497"><ele>-1.0</ele><time>2026-05-02T16:43:50.997Z</time></trkpt><trkpt lat="43.88762561061894" lon="10.262776102879155"><ele>-1.0</ele><time>2026-05-02T16:43:51.997Z</time></trkpt><trkpt lat="43.88746724420894" lon="10.262856885277841"><ele>-0.6666666666666666</ele><time>2026-05-02T16:43:52.997Z</time></trkpt><trkpt lat="43.88730335014062" lon="10.262911296071918"><ele>-0.3333333333333333</ele><time>2026-05-02T16:43:53.997Z</time></trkpt><trkpt lat="43.88713885832555" lon="10.262931402478928"><ele>0.0</ele><time>2026-05-02T16:43:54.997Z</time></trkpt><trkpt lat="43.88698058230084" lon="10.262919776435584"><ele>0.0</ele><time>2026-05-02T16:43:55.997Z</time></trkpt><trkpt lat="43.88683404221637" lon="10.262882518032796"><ele>0.0</ele><time>2026-05-02T16:43:56.997Z</time></trkpt><trkpt lat="43.88669376909251" lon="10.262817644845708"><ele>0.0</ele><time>2026-05-02T16:43:57.997Z</time></trkpt><trkpt lat="43.88656643050557" lon="10.262721981776094"><ele>0.0</ele><time>2026-05-02T16:43:59Z</time></trkpt><trkpt lat="43.8864523415604" lon="10.26260138993345"><ele>-0.5</ele><time>2026-05-02T16:44:00Z</time></trkpt><trkpt lat="43.886365346008425" lon="10.262443181534325"><ele>-1.0</ele><time>2026-05-02T16:44:01Z</time></trkpt><trkpt lat="43.88630442693807" lon="10.262259977113018"><ele>-1.5</ele><time>2026-05-02T16:44:02Z</time></trkpt><trkpt lat="43.88626810904127" lon="10.262070485523738"><ele>-2.0</ele><time>2026-05-02T16:44:03Z</time></trkpt><trkpt lat="43.88625218686179" lon="10.261884129693476"><ele>-2.0</ele><time>2026-05-02T16:44:04Z</time></trkpt><trkpt lat="43.88626388091532" lon="10.261697816745713"><ele>-2.0</ele><time>2026-05-02T16:44:05Z</time></trkpt><trkpt lat="43.88630218516069" lon="10.261520068693866"><ele>-2.0</ele><time>2026-05-02T16:44:06Z</time></trkpt><trkpt lat="43.88637065667464" lon="10.261364947937341"><ele>-2.0</ele><time>2026-05-02T16:44:07Z</time></trkpt><trkpt lat="43.88645733859075" lon="10.261232043303378"><ele>-1.5</ele><time>2026-05-02T16:44:08Z</time></trkpt><trkpt lat="43.886558788961345" lon="10.261119481990503"><ele>-1.0</ele><time>2026-05-02T16:44:09Z</time></trkpt><trkpt lat="43.886672445281185" lon="10.261028950074282"><ele>-0.5</ele><time>2026-05-02T16:44:10Z</time></trkpt><trkpt lat="43.88679467221699" lon="10.260973585358888"><ele>0.0</ele><time>2026-05-02T16:44:11Z</time></trkpt><trkpt lat="43.886920813598785" lon="10.26095616273704"><ele>0.5</ele><time>2026-05-02T16:44:12Z</time></trkpt><trkpt lat="43.887050083388615" lon="10.260959541849749"><ele>1.0</ele><time>2026-05-02T16:44:13Z</time></trkpt><trkpt lat="43.88717759552511" lon="10.260991771918215"><ele>1.5</ele><time>2026-05-02T16:44:14Z</time></trkpt><trkpt lat="43.887298923225366" lon="10.261058080403807"><ele>2.0</ele><time>2026-05-02T16:44:15Z</time></trkpt><trkpt lat="43.88740623143734" lon="10.261156863514998"><ele>2.0</ele><time>2026-05-02T16:44:16Z</time></trkpt><trkpt lat="43.88750014227414" lon="10.261276713789163"><ele>2.0</ele><time>2026-05-02T16:44:17Z</time></trkpt><trkpt lat="43.887582979031436" lon="10.26141353469953"><ele>2.0</ele><time>2026-05-02T16:44:18Z</time></trkpt><trkpt lat="43.88765547396041" lon="10.261563894376318"><ele>2.0</ele><time>2026-05-02T16:44:19Z</time></trkpt><trkpt lat="43.887723492061035" lon="10.26172051258783"><ele>1.75</ele><time>2026-05-02T16:44:20Z</time></trkpt><trkpt lat="43.887788068103795" lon="10.261882568248911"><ele>1.5</ele><time>2026-05-02T16:44:21Z</time></trkpt><trkpt lat="43.88785124152359" lon="10.262049245048905"><ele>1.25</ele><time>2026-05-02T16:44:22Z</time></trkpt><trkpt lat="43.887916734217896" lon="10.262217877481213"><ele>1.0</ele><time>2026-05-02T16:44:23Z</time></trkpt><trkpt lat="43.887982371572676" lon="10.26238959863353"><ele>1.0</ele><time>2026-05-02T16:44:24Z</time></trkpt><trkpt lat="43.88804909202504" lon="10.262563673508403"><ele>1.0</ele><time>2026-05-02T16:44:25Z</time></trkpt><trkpt lat="43.88811586514995" lon="10.262742943989952"><ele>1.0</ele><time>2026-05-02T16:44:26Z</time></trkpt><trkpt lat="43.88818689026195" lon="10.262927216021748"><ele>1.0</ele><time>2026-05-02T16:44:27Z</time></trkpt><trkpt lat="43.88825768705411" lon="10.263118301972876"><ele>1.0</ele><time>2026-05-02T16:44:28Z</time></trkpt><trkpt lat="43.88833174010836" lon="10.263313695050643"><ele>1.0</ele><time>2026-05-02T16:44:29Z</time></trkpt><trkpt lat="43.88840851824038" lon="10.263518612385846"><ele>1.0</ele><time>2026-05-02T16:44:30Z</time></trkpt><trkpt lat="43.88848912766813" lon="10.26373945744967"><ele>0.6666666666666666</ele><time>2026-05-02T16:44:31Z</time></trkpt><trkpt lat="43.888574820702416" lon="10.263969512715473"><ele>0.3333333333333333</ele><time>2026-05-02T16:44:31.999Z</time></trkpt><trkpt lat="43.888667273088146" lon="10.264209335886614"><ele>0.0</ele><time>2026-05-02T16:44:32.999Z</time></trkpt><trkpt lat="43.88876243341778" lon="10.264459228849402"><ele>0.0</ele><time>2026-05-02T16:44:33.999Z</time></trkpt><trkpt lat="43.88885981204987" lon="10.264717567661384"><ele>0.0</ele><time>2026-05-02T16:44:34.999Z</time></trkpt><trkpt lat="43.88895979703441" lon="10.264983762562721"><ele>0.0</ele><time>2026-05-02T16:44:35.999Z</time></trkpt><trkpt lat="43.889063811160845" lon="10.265257454019656"><ele>0.0</ele><time>2026-05-02T16:44:36.999Z</time></trkpt><trkpt lat="43.889168006948985" lon="10.265537913146387"><ele>0.0</ele><time>2026-05-02T16:44:37.999Z</time></trkpt><trkpt lat="43.88927458248322" lon="10.265827228391798"><ele>0.0</ele><time>2026-05-02T16:44:38.999Z</time></trkpt><trkpt lat="43.889383141786006" lon="10.266121328466012"><ele>0.0</ele><time>2026-05-02T16:44:39.999Z</time></trkpt><trkpt lat="43.88949419729506" lon="10.26641962205332"><ele>0.0</ele><time>2026-05-02T16:44:40.999Z</time></trkpt><trkpt lat="43.889606722863185" lon="10.266718780765213"><ele>0.0</ele><time>2026-05-02T16:44:41.999Z</time></trkpt><trkpt lat="43.889719766563815" lon="10.267018531623297"><ele>0.5</ele><time>2026-05-02T16:44:42.999Z</time></trkpt><trkpt lat="43.889833808170856" lon="10.267323686012785"><ele>1.0</ele><time>2026-05-02T16:44:43.999Z</time></trkpt><trkpt lat="43.889947258975305" lon="10.267629662268174"><ele>1.0</ele><time>2026-05-02T16:44:44.999Z</time></trkpt><trkpt lat="43.89006303122275" lon="10.267937525725781"><ele>1.0</ele><time>2026-05-02T16:44:45.999Z</time></trkpt><trkpt lat="43.89017547184187" lon="10.26824378429919"><ele>-0.5</ele><time>2026-05-02T16:44:46.999Z</time></trkpt><trkpt lat="43.89029148191724" lon="10.268556159380621"><ele>-2.0</ele><time>2026-05-02T16:44:47.999Z</time></trkpt><trkpt lat="43.890408165512476" lon="10.268867348941466"><ele>-1.5</ele><time>2026-05-02T16:44:48.999Z</time></trkpt><trkpt lat="43.89052594348643" lon="10.269178716541786"><ele>-1.0</ele><time>2026-05-02T16:44:49.999Z</time></trkpt><trkpt lat="43.89064387252246" lon="10.269491126059858"><ele>-2.5</ele><time>2026-05-02T16:44:50.999Z</time></trkpt><trkpt lat="43.890763714656025" lon="10.26980626944621"><ele>-4.0</ele><time>2026-05-02T16:44:51.999Z</time></trkpt><trkpt lat="43.8908831130375" lon="10.27012201335479"><ele>-3.5</ele><time>2026-05-02T16:44:52.999Z</time></trkpt><trkpt lat="43.89100207773269" lon="10.270441012276184"><ele>-3.0</ele><time>2026-05-02T16:44:53.999Z</time></trkpt><trkpt lat="43.891120978692" lon="10.2707647018207"><ele>-3.0</ele><time>2026-05-02T16:44:54.999Z</time></trkpt><trkpt lat="43.89124215699889" lon="10.27109184006316"><ele>-3.0</ele><time>2026-05-02T16:44:55.999Z</time></trkpt><trkpt lat="43.891365063939055" lon="10.271419026700618"><ele>-3.0</ele><time>2026-05-02T16:44:56.999Z</time></trkpt><trkpt lat="43.89148949666636" lon="10.271748742270631"><ele>-3.0</ele><time>2026-05-02T16:44:57.999Z</time></trkpt><trkpt lat="43.89161461577411" lon="10.272079132551045"><ele>-3.0</ele><time>2026-05-02T16:44:58.999Z</time></trkpt><trkpt lat="43.89173973824276" lon="10.272414312436062"><ele>-3.0</ele><time>2026-05-02T16:44:59.999Z</time></trkpt><trkpt lat="43.891860439413065" lon="10.272748688336558"><ele>-3.0</ele><time>2026-05-02T16:45:00.999Z</time></trkpt><trkpt lat="43.89197299567513" lon="10.273089383860096"><ele>-3.0</ele><time>2026-05-02T16:45:01.999Z</time></trkpt><trkpt lat="43.89207627287996" lon="10.27343861442618"><ele>-2.5</ele><time>2026-05-02T16:45:02.999Z</time></trkpt><trkpt lat="43.892166640711544" lon="10.27378824580873"><ele>-2.0</ele><time>2026-05-02T16:45:03.999Z</time></trkpt><trkpt lat="43.8922480056284" lon="10.27414481508773"><ele>-2.0</ele><time>2026-05-02T16:45:04.999Z</time></trkpt><trkpt lat="43.892322001914366" lon="10.274511563897802"><ele>-2.0</ele><time>2026-05-02T16:45:05.999Z</time></trkpt><trkpt lat="43.892387375805676" lon="10.274878878413356"><ele>-2.0</ele><time>2026-05-02T16:45:06.999Z</time></trkpt><trkpt lat="43.89244221885173" lon="10.275254342404724"><ele>-2.0</ele><time>2026-05-02T16:45:07.999Z</time></trkpt><trkpt lat="43.89248587996716" lon="10.275633416050448"><ele>-2.0</ele><time>2026-05-02T16:45:08.999Z</time></trkpt><trkpt lat="43.89252004024819" lon="10.276016975065048"><ele>-2.0</ele><time>2026-05-02T16:45:09.999Z</time></trkpt><trkpt lat="43.89254296023876" lon="10.276403226912851"><ele>-2.5</ele><time>2026-05-02T16:45:10.998Z</time></trkpt><trkpt lat="43.892549134733024" lon="10.276787479929904"><ele>-3.0</ele><time>2026-05-02T16:45:11.998Z</time></trkpt><trkpt lat="43.89255131327155" lon="10.27716526604823"><ele>-3.0</ele><time>2026-05-02T16:45:12.998Z</time></trkpt><trkpt lat="43.89254411864762" lon="10.27754348363823"><ele>-3.0</ele><time>2026-05-02T16:45:13.998Z</time></trkpt><trkpt lat="43.892525376195955" lon="10.277922405131132"><ele>-2.0</ele><time>2026-05-02T16:45:14.998Z</time></trkpt><trkpt lat="43.892494044802675" lon="10.27830565522842"><ele>-1.0</ele><time>2026-05-02T16:45:15.998Z</time></trkpt><trkpt lat="43.89245165884493" lon="10.278682894785073"><ele>0.0</ele><time>2026-05-02T16:45:16.998Z</time></trkpt><trkpt lat="43.892397568774" lon="10.279064485722177"><ele>1.0</ele><time>2026-05-02T16:45:17.998Z</time></trkpt><trkpt lat="43.89233479399744" lon="10.279442270044562"><ele>1.0</ele><time>2026-05-02T16:45:18.998Z</time></trkpt><trkpt lat="43.892261244613685" lon="10.279823677933122"><ele>1.0</ele><time>2026-05-02T16:45:19.998Z</time></trkpt><trkpt lat="43.89217391936664" lon="10.280198816585756"><ele>1.0</ele><time>2026-05-02T16:45:20.998Z</time></trkpt><trkpt lat="43.892074203952745" lon="10.280571476121636"><ele>1.0</ele><time>2026-05-02T16:45:21.998Z</time></trkpt><trkpt lat="43.891967343330535" lon="10.280941150073314"><ele>0.5</ele><time>2026-05-02T16:45:22.998Z</time></trkpt><trkpt lat="43.89185568121939" lon="10.281311567031631"><ele>0.0</ele><time>2026-05-02T16:45:23.998Z</time></trkpt><trkpt lat="43.89172631717897" lon="10.281687646843563"><ele>-0.5</ele><time>2026-05-02T16:45:24.998Z</time></trkpt><trkpt lat="43.89159381090223" lon="10.282065207374982"><ele>-1.0</ele><time>2026-05-02T16:45:25.998Z</time></trkpt><trkpt lat="43.891463737486795" lon="10.282442895973134"><ele>-1.0</ele><time>2026-05-02T16:45:26.998Z</time></trkpt><trkpt lat="43.89133843606356" lon="10.282817818452063"><ele>-1.0</ele><time>2026-05-02T16:45:27.998Z</time></trkpt><trkpt lat="43.89121296754623" lon="10.283194111824178"><ele>-1.0</ele><time>2026-05-02T16:45:28.998Z</time></trkpt><trkpt lat="43.89108819800038" lon="10.283570775393182"><ele>-1.0</ele><time>2026-05-02T16:45:29.998Z</time></trkpt><trkpt lat="43.89096378059217" lon="10.283946235577128"><ele>-1.0</ele><time>2026-05-02T16:45:30.998Z</time></trkpt><trkpt lat="43.890838388917935" lon="10.284320968568188"><ele>-1.0</ele><time>2026-05-02T16:45:31.998Z</time></trkpt><trkpt lat="43.8907113768414" lon="10.284699825683868"><ele>-1.0</ele><time>2026-05-02T16:45:32.998Z</time></trkpt><trkpt lat="43.89058480405893" lon="10.285078736101681"><ele>-1.0</ele><time>2026-05-02T16:45:33.998Z</time></trkpt><trkpt lat="43.89045998553514" lon="10.285459663737905"><ele>-1.5</ele><time>2026-05-02T16:45:34.998Z</time></trkpt><trkpt lat="43.890335043150316" lon="10.285839640202653"><ele>-2.0</ele><time>2026-05-02T16:45:35.998Z</time></trkpt><trkpt lat="43.89020571000406" lon="10.2862224590728"><ele>-1.5</ele><time>2026-05-02T16:45:36.998Z</time></trkpt><trkpt lat="43.89007690617749" lon="10.286601634455154"><ele>-1.0</ele><time>2026-05-02T16:45:37.998Z</time></trkpt><trkpt lat="43.88994613060529" lon="10.286983311912069"><ele>-0.5</ele><time>2026-05-02T16:45:38.998Z</time></trkpt><trkpt lat="43.88981666505177" lon="10.287365031234854"><ele>0.0</ele><time>2026-05-02T16:45:39.998Z</time></trkpt><trkpt lat="43.88969081240816" lon="10.287759996593053"><ele>0.0</ele><time>2026-05-02T16:45:40.998Z</time></trkpt><trkpt lat="43.88956452270285" lon="10.288135473341773"><ele>0.0</ele><time>2026-05-02T16:45:41.998Z</time></trkpt><trkpt lat="43.889428651112006" lon="10.288526351847356"><ele>0.0</ele><time>2026-05-02T16:45:42.998Z</time></trkpt><trkpt lat="43.88929978887685" lon="10.288910230728737"><ele>0.0</ele><time>2026-05-02T16:45:43.998Z</time></trkpt><trkpt lat="43.889170269003515" lon="10.289298055691264"><ele>-0.5</ele><time>2026-05-02T16:45:44.998Z</time></trkpt><trkpt lat="43.88904137330487" lon="10.289687573154369"><ele>-1.0</ele><time>2026-05-02T16:45:45.998Z</time></trkpt><trkpt lat="43.88891291877151" lon="10.290071577068368"><ele>-1.0</ele><time>2026-05-02T16:45:46.998Z</time></trkpt><trkpt lat="43.88878084162103" lon="10.290465197571763"><ele>-1.0</ele><time>2026-05-02T16:45:47.998Z</time></trkpt><trkpt lat="43.88865048661292" lon="10.290852761682373"><ele>-1.0</ele><time>2026-05-02T16:45:48.998Z</time></trkpt><trkpt lat="43.888517898804565" lon="10.29124673442395"><ele>-1.0</ele><time>2026-05-02T16:45:49.997Z</time></trkpt><trkpt lat="43.888386387285145" lon="10.291639892380548"><ele>0.0</ele><time>2026-05-02T16:45:50.997Z</time></trkpt><trkpt lat="43.88825456905009" lon="10.292034446053004"><ele>1.0</ele><time>2026-05-02T16:45:51.997Z</time></trkpt><trkpt lat="43.88812441797051" lon="10.292421760786977"><ele>1.0</ele><time>2026-05-02T16:45:52.997Z</time></trkpt><trkpt lat="43.887992127267374" lon="10.29281239864131"><ele>1.0</ele><time>2026-05-02T16:45:53.997Z</time></trkpt><trkpt lat="43.88785928463799" lon="10.293205337378676"><ele>0.5</ele><time>2026-05-02T16:45:54.997Z</time></trkpt><trkpt lat="43.88772973045011" lon="10.293593761871906"><ele>0.0</ele><time>2026-05-02T16:45:55.997Z</time></trkpt><trkpt lat="43.88760001828233" lon="10.293983227056861"><ele>0.5</ele><time>2026-05-02T16:45:56.997Z</time></trkpt><trkpt lat="43.88747001974878" lon="10.29437440817393"><ele>1.0</ele><time>2026-05-02T16:45:57.997Z</time></trkpt><trkpt lat="43.88734160641557" lon="10.29476280398833"><ele>1.0</ele><time>2026-05-02T16:45:58.997Z</time></trkpt><trkpt lat="43.88721207364601" lon="10.295152281769898"><ele>1.0</ele><time>2026-05-02T16:45:59.997Z</time></trkpt><trkpt lat="43.88708330490209" lon="10.295537811821285"><ele>1.0</ele><time>2026-05-02T16:46:00.997Z</time></trkpt><trkpt lat="43.88695341854975" lon="10.295927646457228"><ele>1.0</ele><time>2026-05-02T16:46:01.997Z</time></trkpt><trkpt lat="43.88682333818419" lon="10.296315890996597"><ele>0.0</ele><time>2026-05-02T16:46:02.997Z</time></trkpt><trkpt lat="43.88669388502485" lon="10.296697875534832"><ele>-1.0</ele><time>2026-05-02T16:46:03.997Z</time></trkpt><trkpt lat="43.88656280676102" lon="10.297084586342029"><ele>-0.5</ele><time>2026-05-02T16:46:05Z</time></trkpt><trkpt lat="43.886432040085715" lon="10.297469170979472"><ele>0.0</ele><time>2026-05-02T16:46:06Z</time></trkpt><trkpt lat="43.886301847963644" lon="10.297851402852368"><ele>-1.5</ele><time>2026-05-02T16:46:07Z</time></trkpt><trkpt lat="43.88617217757259" lon="10.298235493442112"><ele>-3.0</ele><time>2026-05-02T16:46:08Z</time></trkpt><trkpt lat="43.886043951736475" lon="10.29861836136575"><ele>-1.0</ele><time>2026-05-02T16:46:09Z</time></trkpt><trkpt lat="43.885919013951224" lon="10.298999804407199"><ele>1.0</ele><time>2026-05-02T16:46:10Z</time></trkpt><trkpt lat="43.88580023805538" lon="10.299389621208492"><ele>2.5</ele><time>2026-05-02T16:46:11Z</time></trkpt><trkpt lat="43.88568850380865" lon="10.299783249499646"><ele>4.0</ele><time>2026-05-02T16:46:12Z</time></trkpt><trkpt lat="43.885593951870504" lon="10.30018870777934"><ele>7.0</ele><time>2026-05-02T16:46:13Z</time></trkpt><trkpt lat="43.8855070859365" lon="10.30059360085187"><ele>10.0</ele><time>2026-05-02T16:46:14Z</time></trkpt><trkpt lat="43.885419615359815" lon="10.301000316175903"><ele>10.0</ele><time>2026-05-02T16:46:15Z</time></trkpt><trkpt lat="43.88532849377866" lon="10.301411357604623"><ele>10.0</ele><time>2026-05-02T16:46:16Z</time></trkpt><trkpt lat="43.88523924675602" lon="10.301821221974189"><ele>13.0</ele><time>2026-05-02T16:46:17Z</time></trkpt><trkpt lat="43.885148893231076" lon="10.302233680229566"><ele>16.0</ele><time>2026-05-02T16:46:18Z</time></trkpt><trkpt lat="43.88505970276064" lon="10.30263876096508"><ele>16.0</ele><time>2026-05-02T16:46:19Z</time></trkpt><trkpt lat="43.884972683185616" lon="10.303038359799038"><ele>16.0</ele><time>2026-05-02T16:46:20Z</time></trkpt><trkpt lat="43.88488517888951" lon="10.30343370058462"><ele>17.5</ele><time>2026-05-02T16:46:21Z</time></trkpt><trkpt lat="43.88479739917401" lon="10.303828264705835"><ele>19.0</ele><time>2026-05-02T16:46:22Z</time></trkpt><trkpt lat="43.88471008341042" lon="10.304219008926006"><ele>22.5</ele><time>2026-05-02T16:46:23Z</time></trkpt><trkpt lat="43.88462151776946" lon="10.304613347201936"><ele>26.0</ele><time>2026-05-02T16:46:24Z</time></trkpt><trkpt lat="43.88453436078479" lon="10.305001963838075"><ele>27.0</ele><time>2026-05-02T16:46:25Z</time></trkpt><trkpt lat="43.88444801680426" lon="10.305392609325638"><ele>28.0</ele><time>2026-05-02T16:46:26Z</time></trkpt><trkpt lat="43.88436284283132" lon="10.305779629548677"><ele>24.5</ele><time>2026-05-02T16:46:27Z</time></trkpt><trkpt lat="43.884275187423874" lon="10.306167101235681"><ele>21.0</ele><time>2026-05-02T16:46:28Z</time></trkpt><trkpt lat="43.88418675847698" lon="10.306549097501545"><ele>21.0</ele><time>2026-05-02T16:46:29Z</time></trkpt><trkpt lat="43.8840985946001" lon="10.306929909219205"><ele>21.0</ele><time>2026-05-02T16:46:30Z</time></trkpt><trkpt lat="43.88401348622062" lon="10.30730531878876"><ele>24.5</ele><time>2026-05-02T16:46:31Z</time></trkpt><trkpt lat="43.88393305563319" lon="10.307683088619376"><ele>28.0</ele><time>2026-05-02T16:46:32Z</time></trkpt><trkpt lat="43.88386175240433" lon="10.308060160370985"><ele>34.5</ele><time>2026-05-02T16:46:33Z</time></trkpt><trkpt lat="43.88380716988522" lon="10.30843738732549"><ele>41.0</ele><time>2026-05-02T16:46:34Z</time></trkpt><trkpt lat="43.88376849646726" lon="10.308825195216913"><ele>38.5</ele><time>2026-05-02T16:46:35Z</time></trkpt><trkpt lat="43.883748058918925" lon="10.30920989005177"><ele>36.0</ele><time>2026-05-02T16:46:36Z</time></trkpt><trkpt lat="43.88374043858454" lon="10.309595838935305"><ele>27.0</ele><time>2026-05-02T16:46:37Z</time></trkpt><trkpt lat="43.88374659873318" lon="10.309979890172217"><ele>18.0</ele><time>2026-05-02T16:46:38Z</time></trkpt><trkpt lat="43.88376522678758" lon="10.310366712311303"><ele>11.5</ele><time>2026-05-02T16:46:39Z</time></trkpt><trkpt lat="43.88379520249146" lon="10.310752915612435"><ele>5.0</ele><time>2026-05-02T16:46:40Z</time></trkpt><trkpt lat="43.883833966721895" lon="10.311137621638467"><ele>5.0</ele><time>2026-05-02T16:46:41Z</time></trkpt><trkpt lat="43.883877777790914" lon="10.311524273466194"><ele>5.0</ele><time>2026-05-02T16:46:42Z</time></trkpt><trkpt lat="43.8839240045548" lon="10.311912646022407"><ele>5.5</ele><time>2026-05-02T16:46:43Z</time></trkpt><trkpt lat="43.8839667608858" lon="10.312301940574713"><ele>6.0</ele><time>2026-05-02T16:46:44Z</time></trkpt><trkpt lat="43.88400565370693" lon="10.312692000621366"><ele>6.5</ele><time>2026-05-02T16:46:44.999Z</time></trkpt><trkpt lat="43.884043913278184" lon="10.313085955037243"><ele>7.0</ele><time>2026-05-02T16:46:45.999Z</time></trkpt><trkpt lat="43.884081670377235" lon="10.31347858492982"><ele>7.0</ele><time>2026-05-02T16:46:46.999Z</time></trkpt><trkpt lat="43.884117985995665" lon="10.313867688070433"><ele>7.0</ele><time>2026-05-02T16:46:47.999Z</time></trkpt><trkpt lat="43.88415033447094" lon="10.314256606456565"><ele>8.5</ele><time>2026-05-02T16:46:48.999Z</time></trkpt><trkpt lat="43.884180818115894" lon="10.314645214197236"><ele>10.0</ele><time>2026-05-02T16:46:49.999Z</time></trkpt><trkpt lat="43.8841967840795" lon="10.315036243522846"><ele>15.0</ele><time>2026-05-02T16:46:50.999Z</time></trkpt><trkpt lat="43.88419567722992" lon="10.315424829065558"><ele>20.0</ele><time>2026-05-02T16:46:51.999Z</time></trkpt><trkpt lat="43.88418399122287" lon="10.31580952410944"><ele>26.0</ele><time>2026-05-02T16:46:52.999Z</time></trkpt><trkpt lat="43.884160679993485" lon="10.316183382022569"><ele>32.0</ele><time>2026-05-02T16:46:53.999Z</time></trkpt><trkpt lat="43.88413108280407" lon="10.316562383665763"><ele>37.0</ele><time>2026-05-02T16:46:54.999Z</time></trkpt><trkpt lat="43.88409428612229" lon="10.316930884462689"><ele>42.0</ele><time>2026-05-02T16:46:55.999Z</time></trkpt><trkpt lat="43.88405333017939" lon="10.317297531318303"><ele>44.0</ele><time>2026-05-02T16:46:56.999Z</time></trkpt><trkpt lat="43.88401556087503" lon="10.317664734475631"><ele>46.0</ele><time>2026-05-02T16:46:57.999Z</time></trkpt><trkpt lat="43.88399025925826" lon="10.31803319461463"><ele>42.5</ele><time>2026-05-02T16:46:58.999Z</time></trkpt><trkpt lat="43.88396252028027" lon="10.318405341307411"><ele>39.0</ele><time>2026-05-02T16:46:59.999Z</time></trkpt><trkpt lat="43.883932522242795" lon="10.318778468000755"><ele>35.5</ele><time>2026-05-02T16:47:00.999Z</time></trkpt><trkpt lat="43.88390223478317" lon="10.319153736183468"><ele>32.0</ele><time>2026-05-02T16:47:01.999Z</time></trkpt><trkpt lat="43.883869781121625" lon="10.319530081736008"><ele>39.0</ele><time>2026-05-02T16:47:02.999Z</time></trkpt><trkpt lat="43.88383511091926" lon="10.319907407541802"><ele>46.0</ele><time>2026-05-02T16:47:03.999Z</time></trkpt><trkpt lat="43.883798080819254" lon="10.320285397838301"><ele>50.5</ele><time>2026-05-02T16:47:04.999Z</time></trkpt><trkpt lat="43.8837571039559" lon="10.32066245003991"><ele>55.0</ele><time>2026-05-02T16:47:05.999Z</time></trkpt><trkpt lat="43.88370678150033" lon="10.321042488899511"><ele>54.0</ele><time>2026-05-02T16:47:06.999Z</time></trkpt><trkpt lat="43.883645365218335" lon="10.321414955348347"><ele>53.0</ele><time>2026-05-02T16:47:07.999Z</time></trkpt><trkpt lat="43.883569700040994" lon="10.321785406549175"><ele>53.0</ele><time>2026-05-02T16:47:08.999Z</time></trkpt><trkpt lat="43.883478252927105" lon="10.322147966479797"><ele>53.0</ele><time>2026-05-02T16:47:09.999Z</time></trkpt><trkpt lat="43.88337681721112" lon="10.322503159632372"><ele>48.5</ele><time>2026-05-02T16:47:10.999Z</time></trkpt><trkpt lat="43.88327232237605" lon="10.32285737585462"><ele>44.0</ele><time>2026-05-02T16:47:11.999Z</time></trkpt><trkpt lat="43.88316823069175" lon="10.323214175611522"><ele>44.0</ele><time>2026-05-02T16:47:12.999Z</time></trkpt><trkpt lat="43.883065264073295" lon="10.323569425100597"><ele>44.0</ele><time>2026-05-02T16:47:13.999Z</time></trkpt><trkpt lat="43.88295893196501" lon="10.323926503821003"><ele>44.0</ele><time>2026-05-02T16:47:14.999Z</time></trkpt><trkpt lat="43.882851695159566" lon="10.324280811822916"><ele>44.0</ele><time>2026-05-02T16:47:15.999Z</time></trkpt><trkpt lat="43.882744225957296" lon="10.324631390019073"><ele>45.0</ele><time>2026-05-02T16:47:16.999Z</time></trkpt><trkpt lat="43.88263554271374" lon="10.32498392356538"><ele>46.0</ele><time>2026-05-02T16:47:17.999Z</time></trkpt><trkpt lat="43.88252814110499" lon="10.325335283130231"><ele>52.0</ele><time>2026-05-02T16:47:18.999Z</time></trkpt><trkpt lat="43.8824217122678" lon="10.325687782549902"><ele>58.0</ele><time>2026-05-02T16:47:19.999Z</time></trkpt><trkpt lat="43.882318549714185" lon="10.326043044822837"><ele>59.5</ele><time>2026-05-02T16:47:20.999Z</time></trkpt><trkpt lat="43.88221485571116" lon="10.32639848051819"><ele>61.0</ele><time>2026-05-02T16:47:21.999Z</time></trkpt><trkpt lat="43.88210882667418" lon="10.326754286885183"><ele>61.0</ele><time>2026-05-02T16:47:22.999Z</time></trkpt><trkpt lat="43.882003425783815" lon="10.327112043552859"><ele>61.0</ele><time>2026-05-02T16:47:23.998Z</time></trkpt><trkpt lat="43.881899049746345" lon="10.327469887613372"><ele>52.0</ele><time>2026-05-02T16:47:24.998Z</time></trkpt><trkpt lat="43.88179588768637" lon="10.32782826613967"><ele>43.0</ele><time>2026-05-02T16:47:25.998Z</time></trkpt><trkpt lat="43.8816904473675" lon="10.328186459630974"><ele>33.5</ele><time>2026-05-02T16:47:26.998Z</time></trkpt><trkpt lat="43.88158364290436" lon="10.328545006129266"><ele>24.0</ele><time>2026-05-02T16:47:27.998Z</time></trkpt><trkpt lat="43.881477565218596" lon="10.328904602925023"><ele>24.0</ele><time>2026-05-02T16:47:28.998Z</time></trkpt><trkpt lat="43.88137284105429" lon="10.329261265823726"><ele>24.0</ele><time>2026-05-02T16:47:29.998Z</time></trkpt><trkpt lat="43.88126774151625" lon="10.32962277585342"><ele>28.5</ele><time>2026-05-02T16:47:30.998Z</time></trkpt><trkpt lat="43.881161096431306" lon="10.329983271997474"><ele>33.0</ele><time>2026-05-02T16:47:31.998Z</time></trkpt><trkpt lat="43.881054638706416" lon="10.330343404390808"><ele>38.0</ele><time>2026-05-02T16:47:32.998Z</time></trkpt><trkpt lat="43.880952496145724" lon="10.330705141938655"><ele>43.0</ele><time>2026-05-02T16:47:33.998Z</time></trkpt><trkpt lat="43.88085631496632" lon="10.331071252176244"><ele>48.5</ele><time>2026-05-02T16:47:34.998Z</time></trkpt><trkpt lat="43.88077066526119" lon="10.331442230466415"><ele>54.0</ele><time>2026-05-02T16:47:35.998Z</time></trkpt><trkpt lat="43.88069580339584" lon="10.331817122768221"><ele>54.0</ele><time>2026-05-02T16:47:36.998Z</time></trkpt><trkpt lat="43.880627317483686" lon="10.332192886513251"><ele>54.0</ele><time>2026-05-02T16:47:37.998Z</time></trkpt><trkpt lat="43.88056632164098" lon="10.332570557611904"><ele>58.0</ele><time>2026-05-02T16:47:38.998Z</time></trkpt><trkpt lat="43.880513221473535" lon="10.332949873540564"><ele>62.0</ele><time>2026-05-02T16:47:39.998Z</time></trkpt><trkpt lat="43.880461865771665" lon="10.333330218067395"><ele>62.0</ele><time>2026-05-02T16:47:40.998Z</time></trkpt><trkpt lat="43.88041412376022" lon="10.333708793833642"><ele>62.0</ele><time>2026-05-02T16:47:41.998Z</time></trkpt><trkpt lat="43.88036682467112" lon="10.334082949363472"><ele>61.5</ele><time>2026-05-02T16:47:42.998Z</time></trkpt><trkpt lat="43.8803213887148" lon="10.334440220452985"><ele>61.0</ele><time>2026-05-02T16:47:43.998Z</time></trkpt><trkpt lat="43.880277268120636" lon="10.334784676013664"><ele>61.0</ele><time>2026-05-02T16:47:44.998Z</time></trkpt><trkpt lat="43.88023465270748" lon="10.335126741370575"><ele>61.0</ele><time>2026-05-02T16:47:45.998Z</time></trkpt><trkpt lat="43.88019230590638" lon="10.335464535798467"><ele>64.0</ele><time>2026-05-02T16:47:46.998Z</time></trkpt><trkpt lat="43.88014965165197" lon="10.335798918332216"><ele>67.0</ele><time>2026-05-02T16:47:47.998Z</time></trkpt><trkpt lat="43.88010786147185" lon="10.336129472394704"><ele>62.5</ele><time>2026-05-02T16:47:48.998Z</time></trkpt><trkpt lat="43.88006737877203" lon="10.336457254981907"><ele>58.0</ele><time>2026-05-02T16:47:49.998Z</time></trkpt><trkpt lat="43.88002886809865" lon="10.336781414127607"><ele>58.0</ele><time>2026-05-02T16:47:50.998Z</time></trkpt><trkpt lat="43.879990462229536" lon="10.337100996100228"><ele>58.0</ele><time>2026-05-02T16:47:51.998Z</time></trkpt><trkpt lat="43.8799518634888" lon="10.337418687909928"><ele>61.0</ele><time>2026-05-02T16:47:52.998Z</time></trkpt><trkpt lat="43.879908499395924" lon="10.337734018598523"><ele>64.0</ele><time>2026-05-02T16:47:53.998Z</time></trkpt><trkpt lat="43.87986444142312" lon="10.33804821165949"><ele>63.0</ele><time>2026-05-02T16:47:54.998Z</time></trkpt><trkpt lat="43.87982022271141" lon="10.338357871333905"><ele>62.0</ele><time>2026-05-02T16:47:55.998Z</time></trkpt><trkpt lat="43.879775930559966" lon="10.338663852321954"><ele>63.66666666666667</ele><time>2026-05-02T16:47:56.998Z</time></trkpt><trkpt lat="43.87972629323084" lon="10.338964157390642"><ele>65.33333333333333</ele><time>2026-05-02T16:47:57.998Z</time></trkpt><trkpt lat="43.87966856787434" lon="10.339259702579874"><ele>67.0</ele><time>2026-05-02T16:47:58.998Z</time></trkpt><trkpt lat="43.87960462379255" lon="10.33954771152609"><ele>70.0</ele><time>2026-05-02T16:47:59.998Z</time></trkpt><trkpt lat="43.87953074232266" lon="10.33983299120132"><ele>73.0</ele><time>2026-05-02T16:48:00.998Z</time></trkpt><trkpt lat="43.879444659347286" lon="10.340118020250006"><ele>76.0</ele><time>2026-05-02T16:48:01.998Z</time></trkpt><trkpt lat="43.87935230788077" lon="10.340398348058995"><ele>67.5</ele><time>2026-05-02T16:48:02.997Z</time></trkpt><trkpt lat="43.87925067183791" lon="10.34067887649651"><ele>59.0</ele><time>2026-05-02T16:48:03.997Z</time></trkpt><trkpt lat="43.879141205590194" lon="10.340958203753173"><ele>59.0</ele><time>2026-05-02T16:48:04.997Z</time></trkpt><trkpt lat="43.87901883808649" lon="10.341232350200833"><ele>59.0</ele><time>2026-05-02T16:48:05.997Z</time></trkpt><trkpt lat="43.878888522619995" lon="10.341504729239924"><ele>55.0</ele><time>2026-05-02T16:48:06.997Z</time></trkpt><trkpt lat="43.878745805134685" lon="10.341773918566838"><ele>51.0</ele><time>2026-05-02T16:48:07.997Z</time></trkpt><trkpt lat="43.87858701950256" lon="10.342037665927966"><ele>47.5</ele><time>2026-05-02T16:48:08.997Z</time></trkpt><trkpt lat="43.878414322837834" lon="10.342296822166333"><ele>44.0</ele><time>2026-05-02T16:48:09.997Z</time></trkpt><trkpt lat="43.87823263153153" lon="10.342547052199635"><ele>44.0</ele><time>2026-05-02T16:48:11Z</time></trkpt><trkpt lat="43.87804155285154" lon="10.342791652295919"><ele>44.0</ele><time>2026-05-02T16:48:12Z</time></trkpt><trkpt lat="43.87784307136608" lon="10.343026981688123"><ele>41.5</ele><time>2026-05-02T16:48:13Z</time></trkpt><trkpt lat="43.87763853847311" lon="10.343256553535468"><ele>39.0</ele><time>2026-05-02T16:48:14Z</time></trkpt><trkpt lat="43.87743203873375" lon="10.34348747197218"><ele>39.0</ele><time>2026-05-02T16:48:15Z</time></trkpt><trkpt lat="43.8772316411019" lon="10.34370960537677"><ele>39.0</ele><time>2026-05-02T16:48:16Z</time></trkpt><trkpt lat="43.87703795639043" lon="10.343925201431752"><ele>40.5</ele><time>2026-05-02T16:48:17Z</time></trkpt><trkpt lat="43.87684812080865" lon="10.344137877389798"><ele>42.0</ele><time>2026-05-02T16:48:18Z</time></trkpt><trkpt lat="43.87666220266565" lon="10.344352519658928"><ele>42.0</ele><time>2026-05-02T16:48:19Z</time></trkpt><trkpt lat="43.876478301123925" lon="10.34456086503436"><ele>42.0</ele><time>2026-05-02T16:48:20Z</time></trkpt><trkpt lat="43.87629619795737" lon="10.344765910453452"><ele>45.0</ele><time>2026-05-02T16:48:21Z</time></trkpt><trkpt lat="43.876115814227504" lon="10.344968082145977"><ele>48.0</ele><time>2026-05-02T16:48:22Z</time></trkpt><trkpt lat="43.87593952192739" lon="10.34516970181126"><ele>45.5</ele><time>2026-05-02T16:48:23Z</time></trkpt><trkpt lat="43.875764179235624" lon="10.345369651274162"><ele>43.0</ele><time>2026-05-02T16:48:24Z</time></trkpt><trkpt lat="43.87558826221117" lon="10.345564884620785"><ele>43.0</ele><time>2026-05-02T16:48:25Z</time></trkpt><trkpt lat="43.87541128031094" lon="10.345760592867542"><ele>43.0</ele><time>2026-05-02T16:48:26Z</time></trkpt><trkpt lat="43.87523711369767" lon="10.345954754499596"><ele>43.333333333333336</ele><time>2026-05-02T16:48:27Z</time></trkpt><trkpt lat="43.875061587618625" lon="10.34615048768972"><ele>43.666666666666664</ele><time>2026-05-02T16:48:28Z</time></trkpt><trkpt lat="43.87488831574074" lon="10.346344732773415"><ele>44.0</ele><time>2026-05-02T16:48:29Z</time></trkpt><trkpt lat="43.87471458579708" lon="10.346538676823398"><ele>48.666666666666664</ele><time>2026-05-02T16:48:30Z</time></trkpt><trkpt lat="43.87453851119381" lon="10.346735464407052"><ele>53.33333333333333</ele><time>2026-05-02T16:48:31Z</time></trkpt><trkpt lat="43.87436771619079" lon="10.346927924165662"><ele>58.0</ele><time>2026-05-02T16:48:32Z</time></trkpt><trkpt lat="43.874202876228075" lon="10.347116100285993"><ele>64.66666666666666</ele><time>2026-05-02T16:48:33Z</time></trkpt><trkpt lat="43.87403808625193" lon="10.347302579031066"><ele>71.33333333333333</ele><time>2026-05-02T16:48:34Z</time></trkpt><trkpt lat="43.87387506938914" lon="10.347486633426573"><ele>78.0</ele><time>2026-05-02T16:48:35Z</time></trkpt><trkpt lat="43.873713692401935" lon="10.34766971899907"><ele>78.0</ele><time>2026-05-02T16:48:36Z</time></trkpt><trkpt lat="43.87355154342824" lon="10.347858213824674"><ele>78.0</ele><time>2026-05-02T16:48:37Z</time></trkpt><trkpt lat="43.8733862162356" lon="10.348054986223646"><ele>78.0</ele><time>2026-05-02T16:48:38Z</time></trkpt><trkpt lat="43.87321482762707" lon="10.348253494618174"><ele>92.5</ele><time>2026-05-02T16:48:39Z</time></trkpt><trkpt lat="43.87303085380511" lon="10.348465513877311"><ele>107.0</ele><time>2026-05-02T16:48:40Z</time></trkpt><trkpt lat="43.872844858587925" lon="10.3486816983337"><ele>109.5</ele><time>2026-05-02T16:48:41Z</time></trkpt><trkpt lat="43.87266437585651" lon="10.348892841327343"><ele>112.0</ele><time>2026-05-02T16:48:42Z</time></trkpt><trkpt lat="43.87248104249041" lon="10.349111290035326"><ele>105.0</ele><time>2026-05-02T16:48:43Z</time></trkpt><trkpt lat="43.87229748282835" lon="10.349333701515468"><ele>98.0</ele><time>2026-05-02T16:48:44Z</time></trkpt><trkpt lat="43.87222251134526" lon="10.349394206692256"><ele>91.0</ele><time>2026-05-02T16:48:45Z</time></trkpt><trkpt lat="43.872040959528256" lon="10.349599271475505"><ele>93.0</ele><time>2026-05-02T16:48:46Z</time></trkpt><trkpt lat="43.871898520746" lon="10.349797378330486"><ele>95.0</ele><time>2026-05-02T16:48:47Z</time></trkpt><trkpt lat="43.87176456769764" lon="10.350014791453756"><ele>97.0</ele><time>2026-05-02T16:48:48Z</time></trkpt><trkpt lat="43.871637978194435" lon="10.350248903108778"><ele>95.0</ele><time>2026-05-02T16:48:49Z</time></trkpt><trkpt lat="43.87151704608335" lon="10.350491073155428"><ele>93.0</ele><time>2026-05-02T16:48:49.999Z</time></trkpt><trkpt lat="43.87139377012911" lon="10.350728341887681"><ele>91.0</ele><time>2026-05-02T16:48:50.999Z</time></trkpt><trkpt lat="43.871292567875514" lon="10.351001452455263"><ele>91.0</ele><time>2026-05-02T16:48:51.999Z</time></trkpt><trkpt lat="43.87120083577844" lon="10.351277835496829"><ele>91.0</ele><time>2026-05-02T16:48:52.999Z</time></trkpt><trkpt lat="43.87111901734686" lon="10.351560227655579"><ele>91.0</ele><time>2026-05-02T16:48:53.999Z</time></trkpt><trkpt lat="43.87102648747893" lon="10.351864650500852"><ele>92.33333333333333</ele><time>2026-05-02T16:48:54.999Z</time></trkpt><trkpt lat="43.87095056290181" lon="10.352157043227432"><ele>93.66666666666667</ele><time>2026-05-02T16:48:55.999Z</time></trkpt><trkpt lat="43.87087840903816" lon="10.352452139054202"><ele>95.0</ele><time>2026-05-02T16:48:56.999Z</time></trkpt><trkpt lat="43.87082261053024" lon="10.35276358653503"><ele>118.5</ele><time>2026-05-02T16:48:57.999Z</time></trkpt><trkpt lat="43.87078405364759" lon="10.35308651740848"><ele>142.0</ele><time>2026-05-02T16:48:58.999Z</time></trkpt><trkpt lat="43.87075726415725" lon="10.3534105646122"><ele>142.0</ele><time>2026-05-02T16:48:59.999Z</time></trkpt><trkpt lat="43.87074164627163" lon="10.353727932340954"><ele>142.0</ele><time>2026-05-02T16:49:00.999Z</time></trkpt><trkpt lat="43.87073870113474" lon="10.354036556244154"><ele>141.0</ele><time>2026-05-02T16:49:01.999Z</time></trkpt><trkpt lat="43.87073874930822" lon="10.354336426671626"><ele>140.0</ele><time>2026-05-02T16:49:02.999Z</time></trkpt><trkpt lat="43.87074168094187" lon="10.354633985314019"><ele>139.0</ele><time>2026-05-02T16:49:03.999Z</time></trkpt><trkpt lat="43.870734513501134" lon="10.355007082490149"><ele>131.66666666666669</ele><time>2026-05-02T16:49:04.999Z</time></trkpt><trkpt lat="43.87073610818328" lon="10.355312915251575"><ele>124.33333333333334</ele><time>2026-05-02T16:49:05.999Z</time></trkpt><trkpt lat="43.87073397534388" lon="10.355616669516886"><ele>117.0</ele><time>2026-05-02T16:49:06.999Z</time></trkpt><trkpt lat="43.87073291469101" lon="10.355929438476391"><ele>111.0</ele><time>2026-05-02T16:49:07.999Z</time></trkpt><trkpt lat="43.87073612155082" lon="10.356242526547543"><ele>105.0</ele><time>2026-05-02T16:49:08.999Z</time></trkpt><trkpt lat="43.87073916506881" lon="10.35655392709619"><ele>102.0</ele><time>2026-05-02T16:49:09.999Z</time></trkpt><trkpt lat="43.87075086909198" lon="10.356844191942816"><ele>99.0</ele><time>2026-05-02T16:49:10.999Z</time></trkpt><trkpt lat="43.870745340624694" lon="10.357164928291462"><ele>96.0</ele><time>2026-05-02T16:49:11.999Z</time></trkpt><trkpt lat="43.870730947701624" lon="10.35749528205242"><ele>92.66666666666667</ele><time>2026-05-02T16:49:12.999Z</time></trkpt><trkpt lat="43.870734292211125" lon="10.357797904306857"><ele>89.33333333333334</ele><time>2026-05-02T16:49:13.999Z</time></trkpt><trkpt lat="43.870738261667526" lon="10.358100893740204"><ele>86.0</ele><time>2026-05-02T16:49:14.999Z</time></trkpt><trkpt lat="43.87074321084653" lon="10.358403301595072"><ele>86.0</ele><time>2026-05-02T16:49:15.999Z</time></trkpt><trkpt lat="43.87074618552173" lon="10.358706279036344"><ele>86.0</ele><time>2026-05-02T16:49:16.999Z</time></trkpt><trkpt lat="43.87074271013007" lon="10.359003866917746"><ele>86.0</ele><time>2026-05-02T16:49:17.999Z</time></trkpt><trkpt lat="43.870729522570656" lon="10.359294465919579"><ele>84.33333333333334</ele><time>2026-05-02T16:49:18.999Z</time></trkpt><trkpt lat="43.87070526900788" lon="10.359580311997895"><ele>82.66666666666667</ele><time>2026-05-02T16:49:19.999Z</time></trkpt><trkpt lat="43.87067660204826" lon="10.35986462884428"><ele>81.0</ele><time>2026-05-02T16:49:20.999Z</time></trkpt><trkpt lat="43.87064082497287" lon="10.360150114721234"><ele>76.66666666666667</ele><time>2026-05-02T16:49:21.999Z</time></trkpt><trkpt lat="43.8705991518578" lon="10.360430004652635"><ele>72.33333333333334</ele><time>2026-05-02T16:49:22.999Z</time></trkpt><trkpt lat="43.87054977515066" lon="10.360690401891222"><ele>68.0</ele><time>2026-05-02T16:49:23.999Z</time></trkpt><trkpt lat="43.87049562164979" lon="10.36093766404283"><ele>63.66666666666667</ele><time>2026-05-02T16:49:24.999Z</time></trkpt><trkpt lat="43.87043750378851" lon="10.361186418327868"><ele>59.33333333333333</ele><time>2026-05-02T16:49:25.999Z</time></trkpt><trkpt lat="43.870371406568694" lon="10.361434667907064"><ele>55.0</ele><time>2026-05-02T16:49:26.999Z</time></trkpt><trkpt lat="43.870298111704905" lon="10.361679787071926"><ele>53.666666666666664</ele><time>2026-05-02T16:49:27.999Z</time></trkpt><trkpt lat="43.87021745961774" lon="10.36192305289916"><ele>52.33333333333333</ele><time>2026-05-02T16:49:28.999Z</time></trkpt><trkpt lat="43.870129584539214" lon="10.362168659119545"><ele>51.0</ele><time>2026-05-02T16:49:29.998Z</time></trkpt><trkpt lat="43.870031967094235" lon="10.362413985155097"><ele>58.66666666666667</ele><time>2026-05-02T16:49:30.998Z</time></trkpt><trkpt lat="43.869926041498815" lon="10.36265955003271"><ele>66.33333333333334</ele><time>2026-05-02T16:49:31.998Z</time></trkpt><trkpt lat="43.86981349544879" lon="10.36290438115309"><ele>74.0</ele><time>2026-05-02T16:49:32.998Z</time></trkpt><trkpt lat="43.86969051113279" lon="10.36314826980449"><ele>80.0</ele><time>2026-05-02T16:49:33.998Z</time></trkpt><trkpt lat="43.86955921502554" lon="10.363385342060358"><ele>86.0</ele><time>2026-05-02T16:49:34.998Z</time></trkpt><trkpt lat="43.86941936162864" lon="10.363611278239059"><ele>92.0</ele><time>2026-05-02T16:49:35.998Z</time></trkpt><trkpt lat="43.86927159474887" lon="10.363829279969584"><ele>99.33333333333334</ele><time>2026-05-02T16:49:36.998Z</time></trkpt><trkpt lat="43.86911627410036" lon="10.364040258435129"><ele>106.66666666666667</ele><time>2026-05-02T16:49:37.998Z</time></trkpt><trkpt lat="43.86895573266185" lon="10.364243800941098"><ele>114.0</ele><time>2026-05-02T16:49:38.998Z</time></trkpt><trkpt lat="43.86879364086954" lon="10.364432907112455"><ele>114.0</ele><time>2026-05-02T16:49:39.998Z</time></trkpt><trkpt lat="43.8686302408848" lon="10.364612585393226"><ele>114.0</ele><time>2026-05-02T16:49:40.998Z</time></trkpt><trkpt lat="43.86846225775423" lon="10.364786093559108"><ele>114.0</ele><time>2026-05-02T16:49:41.998Z</time></trkpt><trkpt lat="43.8682902950275" lon="10.364950159299077"><ele>106.33333333333333</ele><time>2026-05-02T16:49:42.998Z</time></trkpt><trkpt lat="43.86811058535608" lon="10.365106540462037"><ele>98.66666666666666</ele><time>2026-05-02T16:49:43.998Z</time></trkpt><trkpt lat="43.867922708255655" lon="10.365256661329136"><ele>91.0</ele><time>2026-05-02T16:49:44.998Z</time></trkpt><trkpt lat="43.867729228230445" lon="10.36539589183159"><ele>86.0</ele><time>2026-05-02T16:49:45.998Z</time></trkpt><trkpt lat="43.86752604228211" lon="10.365527172963386"><ele>81.0</ele><time>2026-05-02T16:49:46.998Z</time></trkpt><trkpt lat="43.8673215253988" lon="10.36564825397614"><ele>76.0</ele><time>2026-05-02T16:49:47.998Z</time></trkpt><trkpt lat="43.86711368568341" lon="10.36575525266772"><ele>76.0</ele><time>2026-05-02T16:49:48.998Z</time></trkpt><trkpt lat="43.866904997382235" lon="10.365850107934914"><ele>76.0</ele><time>2026-05-02T16:49:49.998Z</time></trkpt><trkpt lat="43.866697057088835" lon="10.365926429096007"><ele>76.0</ele><time>2026-05-02T16:49:50.998Z</time></trkpt><trkpt lat="43.86648582690551" lon="10.365991530803955"><ele>76.0</ele><time>2026-05-02T16:49:51.998Z</time></trkpt><trkpt lat="43.866272952301685" lon="10.366053593135607"><ele>76.0</ele><time>2026-05-02T16:49:52.998Z</time></trkpt><trkpt lat="43.8660594741092" lon="10.366104147210967"><ele>76.0</ele><time>2026-05-02T16:49:53.998Z</time></trkpt><trkpt lat="43.865846046139104" lon="10.366152313897846"><ele>71.66666666666666</ele><time>2026-05-02T16:49:54.998Z</time></trkpt><trkpt lat="43.86563135711185" lon="10.366201893948325"><ele>67.33333333333333</ele><time>2026-05-02T16:49:55.998Z</time></trkpt><trkpt lat="43.86541688772106" lon="10.366254038806337"><ele>63.0</ele><time>2026-05-02T16:49:56.998Z</time></trkpt><trkpt lat="43.86520190579983" lon="10.366305986989818"><ele>65.33333333333333</ele><time>2026-05-02T16:49:57.998Z</time></trkpt><trkpt lat="43.86498894738072" lon="10.366358980359067"><ele>67.66666666666666</ele><time>2026-05-02T16:49:58.998Z</time></trkpt><trkpt lat="43.86477676612926" lon="10.366412724125153"><ele>70.0</ele><time>2026-05-02T16:49:59.998Z</time></trkpt><trkpt lat="43.864565914922146" lon="10.366465858933543"><ele>78.66666666666666</ele><time>2026-05-02T16:50:00.998Z</time></trkpt><trkpt lat="43.864355954313524" lon="10.366516752180786"><ele>87.33333333333333</ele><time>2026-05-02T16:50:01.998Z</time></trkpt><trkpt lat="43.86414654065649" lon="10.366567728863101"><ele>96.0</ele><time>2026-05-02T16:50:02.998Z</time></trkpt><trkpt lat="43.863937911864625" lon="10.366618527492532"><ele>105.33333333333334</ele><time>2026-05-02T16:50:03.998Z</time></trkpt><trkpt lat="43.86373148947936" lon="10.366668793344065"><ele>114.66666666666667</ele><time>2026-05-02T16:50:04.998Z</time></trkpt><trkpt lat="43.86352558625351" lon="10.36671929639784"><ele>124.0</ele><time>2026-05-02T16:50:05.998Z</time></trkpt><trkpt lat="43.863319239075174" lon="10.366768680627725"><ele>124.0</ele><time>2026-05-02T16:50:06.998Z</time></trkpt><trkpt lat="43.86311046419495" lon="10.366819141856986"><ele>124.0</ele><time>2026-05-02T16:50:07.998Z</time></trkpt><trkpt lat="43.86290031022212" lon="10.366867668660912"><ele>124.0</ele><time>2026-05-02T16:50:08.998Z</time></trkpt><trkpt lat="43.86268920635956" lon="10.36691576741516"><ele>125.0</ele><time>2026-05-02T16:50:09.997Z</time></trkpt><trkpt lat="43.86247728819754" lon="10.36696492272998"><ele>126.0</ele><time>2026-05-02T16:50:10.997Z</time></trkpt><trkpt lat="43.86226319469823" lon="10.367016741587454"><ele>127.0</ele><time>2026-05-02T16:50:11.997Z</time></trkpt><trkpt lat="43.862045805415285" lon="10.367067154208007"><ele>127.0</ele><time>2026-05-02T16:50:12.997Z</time></trkpt><trkpt lat="43.861826966160294" lon="10.367118318916189"><ele>127.0</ele><time>2026-05-02T16:50:13.997Z</time></trkpt><trkpt lat="43.86160772891172" lon="10.367171443196128"><ele>127.0</ele><time>2026-05-02T16:50:14.997Z</time></trkpt><trkpt lat="43.86138868762684" lon="10.367223256381639"><ele>131.0</ele><time>2026-05-02T16:50:15.997Z</time></trkpt><trkpt lat="43.861167503631954" lon="10.367276265162715"><ele>135.0</ele><time>2026-05-02T16:50:17Z</time></trkpt><trkpt lat="43.860947751797674" lon="10.367330909461012"><ele>139.0</ele><time>2026-05-02T16:50:18Z</time></trkpt><trkpt lat="43.86072705879718" lon="10.36739197496795"><ele>139.0</ele><time>2026-05-02T16:50:19Z</time></trkpt><trkpt lat="43.860508898206604" lon="10.367462509009856"><ele>139.0</ele><time>2026-05-02T16:50:20Z</time></trkpt><trkpt lat="43.86029437514095" lon="10.367543750895098"><ele>139.0</ele><time>2026-05-02T16:50:21Z</time></trkpt><trkpt lat="43.86008091540509" lon="10.36764481417264"><ele>134.5</ele><time>2026-05-02T16:50:22Z</time></trkpt><trkpt lat="43.85986728624263" lon="10.367760495622175"><ele>130.0</ele><time>2026-05-02T16:50:23Z</time></trkpt><trkpt lat="43.85965571788764" lon="10.367890627755083"><ele>140.0</ele><time>2026-05-02T16:50:24Z</time></trkpt><trkpt lat="43.85944700789349" lon="10.368035677065116"><ele>150.0</ele><time>2026-05-02T16:50:25Z</time></trkpt><trkpt lat="43.85924002233796" lon="10.36819324260477"><ele>150.0</ele><time>2026-05-02T16:50:26Z</time></trkpt><trkpt lat="43.85903867093089" lon="10.368356689694306"><ele>150.0</ele><time>2026-05-02T16:50:27Z</time></trkpt><trkpt lat="43.85884056713819" lon="10.368531513236398"><ele>150.0</ele><time>2026-05-02T16:50:28Z</time></trkpt><trkpt lat="43.85864594153866" lon="10.368714926833196"><ele>150.0</ele><time>2026-05-02T16:50:29Z</time></trkpt><trkpt lat="43.85845989860863" lon="10.368897263095468"><ele>140.0</ele><time>2026-05-02T16:50:30Z</time></trkpt><trkpt lat="43.858259784510686" lon="10.369092249406586"><ele>130.0</ele><time>2026-05-02T16:50:31Z</time></trkpt><trkpt lat="43.85806466654258" lon="10.36928310090649"><ele>130.0</ele><time>2026-05-02T16:50:32Z</time></trkpt><trkpt lat="43.857873894802985" lon="10.369471731167188"><ele>130.0</ele><time>2026-05-02T16:50:33Z</time></trkpt><trkpt lat="43.857683239242775" lon="10.369659870059541"><ele>123.5</ele><time>2026-05-02T16:50:34Z</time></trkpt><trkpt lat="43.8574950105989" lon="10.369847510805252"><ele>117.0</ele><time>2026-05-02T16:50:35Z</time></trkpt><trkpt lat="43.857304493949655" lon="10.370032272553797"><ele>117.0</ele><time>2026-05-02T16:50:36Z</time></trkpt><trkpt lat="43.85711314910106" lon="10.370215217430456"><ele>117.0</ele><time>2026-05-02T16:50:37Z</time></trkpt><trkpt lat="43.85692148494796" lon="10.370399441735204"><ele>127.5</ele><time>2026-05-02T16:50:38Z</time></trkpt><trkpt lat="43.85673286873857" lon="10.370586100032028"><ele>138.0</ele><time>2026-05-02T16:50:39Z</time></trkpt><trkpt lat="43.85654330608922" lon="10.370773231975706"><ele>138.0</ele><time>2026-05-02T16:50:40Z</time></trkpt><trkpt lat="43.85635299108987" lon="10.370962072664396"><ele>138.0</ele><time>2026-05-02T16:50:41Z</time></trkpt><trkpt lat="43.85616317023561" lon="10.371151625803668"><ele>138.0</ele><time>2026-05-02T16:50:42Z</time></trkpt><trkpt lat="43.85597269726391" lon="10.37134044547297"><ele>138.0</ele><time>2026-05-02T16:50:43Z</time></trkpt><trkpt lat="43.855780183781846" lon="10.371528824218839"><ele>145.5</ele><time>2026-05-02T16:50:44Z</time></trkpt><trkpt lat="43.85558450836788" lon="10.371718004928706"><ele>153.0</ele><time>2026-05-02T16:50:45Z</time></trkpt><trkpt lat="43.85538847621736" lon="10.371909385372927"><ele>153.0</ele><time>2026-05-02T16:50:46Z</time></trkpt><trkpt lat="43.85518846869082" lon="10.37210222941933"><ele>153.0</ele><time>2026-05-02T16:50:47Z</time></trkpt><trkpt lat="43.85498764290728" lon="10.37229513638837"><ele>155.5</ele><time>2026-05-02T16:50:48Z</time></trkpt><trkpt lat="43.85478991251074" lon="10.37249052067914"><ele>158.0</ele><time>2026-05-02T16:50:49Z</time></trkpt><trkpt lat="43.85459782253065" lon="10.37268353764254"><ele>158.0</ele><time>2026-05-02T16:50:50Z</time></trkpt><trkpt lat="43.854411081962446" lon="10.372882496595661"><ele>158.0</ele><time>2026-05-02T16:50:51Z</time></trkpt><trkpt lat="43.854226908221044" lon="10.373091562998114"><ele>151.5</ele><time>2026-05-02T16:50:52Z</time></trkpt><trkpt lat="43.8540477799309" lon="10.373307763482233"><ele>145.0</ele><time>2026-05-02T16:50:53Z</time></trkpt><trkpt lat="43.85387777425391" lon="10.373535440314923"><ele>145.0</ele><time>2026-05-02T16:50:54Z</time></trkpt><trkpt lat="43.85372086379514" lon="10.373770856612413"><ele>145.0</ele><time>2026-05-02T16:50:55Z</time></trkpt><trkpt lat="43.85357696269987" lon="10.374014553307056"><ele>141.5</ele><time>2026-05-02T16:50:56Z</time></trkpt><trkpt lat="43.853442849370566" lon="10.374269592701646"><ele>138.0</ele><time>2026-05-02T16:50:57Z</time></trkpt><trkpt lat="43.85332065543604" lon="10.374529989769488"><ele>150.0</ele><time>2026-05-02T16:50:58Z</time></trkpt><trkpt lat="43.853204819780125" lon="10.374799026682645"><ele>162.0</ele><time>2026-05-02T16:50:59Z</time></trkpt><trkpt lat="43.853095093139935" lon="10.375084536185586"><ele>162.0</ele><time>2026-05-02T16:51:00Z</time></trkpt><trkpt lat="43.852992539556666" lon="10.375394145562302"><ele>162.0</ele><time>2026-05-02T16:51:01Z</time></trkpt><trkpt lat="43.852893879152944" lon="10.375701976480482"><ele>175.0</ele><time>2026-05-02T16:51:02Z</time></trkpt><trkpt lat="43.85279942051669" lon="10.376016091778542"><ele>188.0</ele><time>2026-05-02T16:51:03Z</time></trkpt><trkpt lat="43.85270147783749" lon="10.37635565528616"><ele>191.0</ele><time>2026-05-02T16:51:04Z</time></trkpt><trkpt lat="43.852634327535846" lon="10.376680001221454"><ele>194.0</ele><time>2026-05-02T16:51:05Z</time></trkpt><trkpt lat="43.85259232362848" lon="10.377019849319227"><ele>192.0</ele><time>2026-05-02T16:51:05.999Z</time></trkpt><trkpt lat="43.85255899313889" lon="10.377358903283522"><ele>190.0</ele><time>2026-05-02T16:51:06.999Z</time></trkpt><trkpt lat="43.85263125361784" lon="10.377758483635567"><ele>181.0</ele><time>2026-05-02T16:51:07.999Z</time></trkpt><trkpt lat="43.85259964217177" lon="10.37811597970322"><ele>172.0</ele><time>2026-05-02T16:51:08.999Z</time></trkpt><trkpt lat="43.85257395192907" lon="10.378482362499945"><ele>172.0</ele><time>2026-05-02T16:51:09.999Z</time></trkpt><trkpt lat="43.85254916473197" lon="10.378848465396565"><ele>172.0</ele><time>2026-05-02T16:51:10.999Z</time></trkpt><trkpt lat="43.85252223211715" lon="10.379215406151724"><ele>174.5</ele><time>2026-05-02T16:51:11.999Z</time></trkpt><trkpt lat="43.85249275875313" lon="10.379598458762818"><ele>177.0</ele><time>2026-05-02T16:51:12.999Z</time></trkpt><trkpt lat="43.85246803816742" lon="10.380001749378607"><ele>177.5</ele><time>2026-05-02T16:51:13.999Z</time></trkpt><trkpt lat="43.852444466858394" lon="10.380443554555049"><ele>178.0</ele><time>2026-05-02T16:51:14.999Z</time></trkpt><trkpt lat="43.852412586349395" lon="10.380870957440548"><ele>174.5</ele><time>2026-05-02T16:51:15.999Z</time></trkpt><trkpt lat="43.852383332634936" lon="10.381301919675598"><ele>171.0</ele><time>2026-05-02T16:51:16.999Z</time></trkpt><trkpt lat="43.85236712931251" lon="10.381752985027207"><ele>169.5</ele><time>2026-05-02T16:51:17.999Z</time></trkpt><trkpt lat="43.852361421906494" lon="10.382181439355513"><ele>168.0</ele><time>2026-05-02T16:51:18.999Z</time></trkpt><trkpt lat="43.85236012619373" lon="10.382574020036708"><ele>168.0</ele><time>2026-05-02T16:51:19.999Z</time></trkpt><trkpt lat="43.85235560512968" lon="10.382984010986023"><ele>168.0</ele><time>2026-05-02T16:51:20.999Z</time></trkpt><trkpt lat="43.852354750024936" lon="10.383381690750513"><ele>167.5</ele><time>2026-05-02T16:51:21.999Z</time></trkpt><trkpt lat="43.852363361474005" lon="10.383786654528057"><ele>167.0</ele><time>2026-05-02T16:51:22.999Z</time></trkpt><trkpt lat="43.85237721426016" lon="10.384208036900619"><ele>168.0</ele><time>2026-05-02T16:51:23.999Z</time></trkpt><trkpt lat="43.85239892715097" lon="10.384630286553712"><ele>169.0</ele><time>2026-05-02T16:51:24.999Z</time></trkpt><trkpt lat="43.852423519503674" lon="10.385046042890753"><ele>169.0</ele><time>2026-05-02T16:51:25.999Z</time></trkpt><trkpt lat="43.852441713127966" lon="10.38545010617298"><ele>169.0</ele><time>2026-05-02T16:51:26.999Z</time></trkpt><trkpt lat="43.852476587509116" lon="10.385820577293886"><ele>165.5</ele><time>2026-05-02T16:51:27.999Z</time></trkpt><trkpt lat="43.85251554869773" lon="10.38618300163063"><ele>162.0</ele><time>2026-05-02T16:51:28.999Z</time></trkpt><trkpt lat="43.8525563649862" lon="10.386527633204397"><ele>154.5</ele><time>2026-05-02T16:51:29.999Z</time></trkpt><trkpt lat="43.85259513258938" lon="10.386900461615754"><ele>147.0</ele><time>2026-05-02T16:51:30.999Z</time></trkpt><trkpt lat="43.852627086588505" lon="10.387257792793596"><ele>166.5</ele><time>2026-05-02T16:51:31.999Z</time></trkpt><trkpt lat="43.85267001959405" lon="10.38762859065494"><ele>186.0</ele><time>2026-05-02T16:51:32.998Z</time></trkpt><trkpt lat="43.85271276739813" lon="10.387995437951185"><ele>179.0</ele><time>2026-05-02T16:51:33.998Z</time></trkpt><trkpt lat="43.852758204519574" lon="10.38834827411045"><ele>172.0</ele><time>2026-05-02T16:51:34.998Z</time></trkpt><trkpt lat="43.85281728807315" lon="10.388698529973402"><ele>105.0</ele><time>2026-05-02T16:51:36.021Z</time></trkpt><trkpt lat="43.853521050916775" lon="10.393256133525613"><ele>105.0</ele><time>2026-05-02T16:51:51.997Z</time></trkpt><trkpt lat="43.85348343313598" lon="10.393680089681707"><ele>105.0</ele><time>2026-05-02T16:51:52.997Z</time></trkpt><trkpt lat="43.85354513270963" lon="10.39400235711427"><ele>102.0</ele><time>2026-05-02T16:51:53.997Z</time></trkpt><trkpt lat="43.8536019366126" lon="10.394310504451527"><ele>99.0</ele><time>2026-05-02T16:51:54.997Z</time></trkpt><trkpt lat="43.8536734842936" lon="10.394607067377864"><ele>97.5</ele><time>2026-05-02T16:51:55.997Z</time></trkpt><trkpt lat="43.85369149018342" lon="10.394932776964163"><ele>96.0</ele><time>2026-05-02T16:51:56.997Z</time></trkpt><trkpt lat="43.853695358576495" lon="10.395266822488678"><ele>97.0</ele><time>2026-05-02T16:51:57.997Z</time></trkpt><trkpt lat="43.85369568358653" lon="10.395603441071536"><ele>98.0</ele><time>2026-05-02T16:51:58.997Z</time></trkpt><trkpt lat="43.85369413685803" lon="10.395943346649291"><ele>98.0</ele><time>2026-05-02T16:51:59.997Z</time></trkpt><trkpt lat="43.853686783490616" lon="10.396281889418761"><ele>98.0</ele><time>2026-05-02T16:52:00.997Z</time></trkpt><trkpt lat="43.85368198021484" lon="10.396616955344642"><ele>95.5</ele><time>2026-05-02T16:52:01.997Z</time></trkpt><trkpt lat="43.85367941733072" lon="10.396955934898584"><ele>93.0</ele><time>2026-05-02T16:52:02.997Z</time></trkpt><trkpt lat="43.85367426258648" lon="10.397294556839102"><ele>90.0</ele><time>2026-05-02T16:52:03.997Z</time></trkpt><trkpt lat="43.85366868698235" lon="10.397629077022184"><ele>87.0</ele><time>2026-05-02T16:52:04.997Z</time></trkpt><trkpt lat="43.85366461463458" lon="10.397971622915072"><ele>85.5</ele><time>2026-05-02T16:52:05.997Z</time></trkpt><trkpt lat="43.853660997118666" lon="10.398313587820335"><ele>84.0</ele><time>2026-05-02T16:52:06.997Z</time></trkpt><trkpt lat="43.85365655631866" lon="10.398655590374863"><ele>82.5</ele><time>2026-05-02T16:52:07.997Z</time></trkpt><trkpt lat="43.85365005600163" lon="10.398999232038143"><ele>81.0</ele><time>2026-05-02T16:52:08.997Z</time></trkpt><trkpt lat="43.8536436799726" lon="10.399342476097932"><ele>78.5</ele><time>2026-05-02T16:52:09.997Z</time></trkpt><trkpt lat="43.853636867845886" lon="10.399689015998137"><ele>76.0</ele><time>2026-05-02T16:52:10.997Z</time></trkpt><trkpt lat="43.853633588977104" lon="10.400037842847757"><ele>76.0</ele><time>2026-05-02T16:52:11.997Z</time></trkpt><trkpt lat="43.85363055953701" lon="10.40038833126202"><ele>76.0</ele><time>2026-05-02T16:52:12.997Z</time></trkpt><trkpt lat="43.85362719915118" lon="10.400735960307857"><ele>74.5</ele><time>2026-05-02T16:52:13.997Z</time></trkpt><trkpt lat="43.85362244656099" lon="10.401081163964054"><ele>73.0</ele><time>2026-05-02T16:52:14.997Z</time></trkpt><trkpt lat="43.85361760741993" lon="10.401430242441007"><ele>72.0</ele><time>2026-05-02T16:52:15.997Z</time></trkpt><trkpt lat="43.85361222645031" lon="10.401779109199794"><ele>71.0</ele><time>2026-05-02T16:52:16.997Z</time></trkpt><trkpt lat="43.85360675241855" lon="10.402128477347008"><ele>69.0</ele><time>2026-05-02T16:52:17.997Z</time></trkpt><trkpt lat="43.85360207320052" lon="10.402479683243186"><ele>67.0</ele><time>2026-05-02T16:52:18.997Z</time></trkpt><trkpt lat="43.85359870256461" lon="10.402829506845764"><ele>68.0</ele><time>2026-05-02T16:52:19.997Z</time></trkpt><trkpt lat="43.85359512664395" lon="10.403181829543678"><ele>69.0</ele><time>2026-05-02T16:52:20.997Z</time></trkpt><trkpt lat="43.8535897842326" lon="10.403538448330888"><ele>69.5</ele><time>2026-05-02T16:52:22Z</time></trkpt><trkpt lat="43.85358310181719" lon="10.403890170357858"><ele>70.0</ele><time>2026-05-02T16:52:23Z</time></trkpt><trkpt lat="43.853578754013206" lon="10.404236228008127"><ele>70.0</ele><time>2026-05-02T16:52:24Z</time></trkpt><trkpt lat="43.85357367638873" lon="10.404585865336985"><ele>70.0</ele><time>2026-05-02T16:52:25Z</time></trkpt><trkpt lat="43.853565450894074" lon="10.404937300017718"><ele>68.0</ele><time>2026-05-02T16:52:26Z</time></trkpt><trkpt lat="43.85355545323563" lon="10.405287264175586"><ele>66.0</ele><time>2026-05-02T16:52:27Z</time></trkpt><trkpt lat="43.853545549925336" lon="10.405635749450017"><ele>63.5</ele><time>2026-05-02T16:52:28Z</time></trkpt><trkpt lat="43.853535597851206" lon="10.405988342628396"><ele>61.0</ele><time>2026-05-02T16:52:29Z</time></trkpt><trkpt lat="43.85352591924265" lon="10.406343477401101"><ele>60.5</ele><time>2026-05-02T16:52:30Z</time></trkpt><trkpt lat="43.853517189106434" lon="10.406698320941821"><ele>60.0</ele><time>2026-05-02T16:52:31Z</time></trkpt><trkpt lat="43.8535083386074" lon="10.407053179716376"><ele>59.0</ele><time>2026-05-02T16:52:32Z</time></trkpt><trkpt lat="43.853498537563816" lon="10.407410228077728"><ele>58.0</ele><time>2026-05-02T16:52:33Z</time></trkpt><trkpt lat="43.85348837292637" lon="10.40777552672388"><ele>58.5</ele><time>2026-05-02T16:52:34Z</time></trkpt><trkpt lat="43.85347777785227" lon="10.408140588708113"><ele>59.0</ele><time>2026-05-02T16:52:35Z</time></trkpt><trkpt lat="43.85346692875443" lon="10.408503646932152"><ele>58.0</ele><time>2026-05-02T16:52:36Z</time></trkpt><trkpt lat="43.8534566486793" lon="10.408868085573717"><ele>57.0</ele><time>2026-05-02T16:52:37Z</time></trkpt><trkpt lat="43.853445959456764" lon="10.409236655914851"><ele>59.0</ele><time>2026-05-02T16:52:38Z</time></trkpt><trkpt lat="43.85343531232598" lon="10.409606619596365"><ele>61.0</ele><time>2026-05-02T16:52:39Z</time></trkpt><trkpt lat="43.85342844846209" lon="10.409977730528892"><ele>57.0</ele><time>2026-05-02T16:52:40Z</time></trkpt><trkpt lat="43.85341653799265" lon="10.410347265016837"><ele>53.0</ele><time>2026-05-02T16:52:41Z</time></trkpt><trkpt lat="43.85340669619339" lon="10.410710970641947"><ele>50.0</ele><time>2026-05-02T16:52:41.999Z</time></trkpt><trkpt lat="43.8533965031245" lon="10.411067000988979"><ele>47.0</ele><time>2026-05-02T16:52:42.999Z</time></trkpt><trkpt lat="43.853388448330534" lon="10.411418000756022"><ele>46.0</ele><time>2026-05-02T16:52:43.999Z</time></trkpt><trkpt lat="43.853379711945344" lon="10.411767824107464"><ele>45.0</ele><time>2026-05-02T16:52:44.999Z</time></trkpt><trkpt lat="43.85337085270858" lon="10.412111982367117"><ele>43.0</ele><time>2026-05-02T16:52:45.999Z</time></trkpt><trkpt lat="43.85336131418931" lon="10.412453896110366"><ele>41.0</ele><time>2026-05-02T16:52:46.999Z</time></trkpt><trkpt lat="43.85335117661182" lon="10.412796934317464"><ele>40.0</ele><time>2026-05-02T16:52:47.999Z</time></trkpt><trkpt lat="43.85334122642544" lon="10.413138870785316"><ele>39.0</ele><time>2026-05-02T16:52:48.999Z</time></trkpt><trkpt lat="43.853332243927774" lon="10.413480964995355"><ele>39.0</ele><time>2026-05-02T16:52:49.999Z</time></trkpt><trkpt lat="43.85332493759224" lon="10.413820903762131"><ele>39.0</ele><time>2026-05-02T16:52:50.999Z</time></trkpt><trkpt lat="43.85331845805501" lon="10.414159007362555"><ele>38.0</ele><time>2026-05-02T16:52:51.999Z</time></trkpt><trkpt lat="43.85331049948295" lon="10.41450218911442"><ele>37.0</ele><time>2026-05-02T16:52:52.999Z</time></trkpt><trkpt lat="43.85330021735848" lon="10.414840628445626"><ele>35.0</ele><time>2026-05-02T16:52:53.999Z</time></trkpt><trkpt lat="43.853291354463096" lon="10.4151850198433"><ele>33.0</ele><time>2026-05-02T16:52:54.999Z</time></trkpt><trkpt lat="43.85328384681069" lon="10.415526851264024"><ele>32.0</ele><time>2026-05-02T16:52:55.999Z</time></trkpt><trkpt lat="43.853274584391166" lon="10.415871757511033"><ele>31.0</ele><time>2026-05-02T16:52:56.999Z</time></trkpt><trkpt lat="43.85326650969984" lon="10.416217988040163"><ele>30.5</ele><time>2026-05-02T16:52:57.999Z</time></trkpt><trkpt lat="43.853258151029294" lon="10.416565697648926"><ele>30.0</ele><time>2026-05-02T16:52:58.999Z</time></trkpt><trkpt lat="43.8532475812141" lon="10.41690826091393"><ele>29.0</ele><time>2026-05-02T16:52:59.999Z</time></trkpt><trkpt lat="43.85323757715685" lon="10.41724905846694"><ele>28.0</ele><time>2026-05-02T16:53:00.999Z</time></trkpt><trkpt lat="43.85322878056341" lon="10.417579454827322"><ele>28.0</ele><time>2026-05-02T16:53:01.999Z</time></trkpt><trkpt lat="43.85322027724968" lon="10.417906598720638"><ele>28.0</ele><time>2026-05-02T16:53:02.999Z</time></trkpt><trkpt lat="43.85321185140551" lon="10.418235541517179"><ele>26.5</ele><time>2026-05-02T16:53:03.999Z</time></trkpt><trkpt lat="43.85320349195012" lon="10.418561745983803"><ele>25.0</ele><time>2026-05-02T16:53:04.999Z</time></trkpt><trkpt lat="43.853195751910135" lon="10.418881987290955"><ele>24.0</ele><time>2026-05-02T16:53:05.999Z</time></trkpt><trkpt lat="43.85318740086209" lon="10.419201449052787"><ele>23.0</ele><time>2026-05-02T16:53:06.999Z</time></trkpt><trkpt lat="43.853177430132554" lon="10.419514590922335"><ele>23.0</ele><time>2026-05-02T16:53:07.999Z</time></trkpt><trkpt lat="43.853169557455985" lon="10.41983245703337"><ele>23.0</ele><time>2026-05-02T16:53:08.999Z</time></trkpt><trkpt lat="43.853161697137146" lon="10.420151925961244"><ele>23.0</ele><time>2026-05-02T16:53:09.999Z</time></trkpt><trkpt lat="43.853152324675875" lon="10.420472239546012"><ele>23.0</ele><time>2026-05-02T16:53:10.999Z</time></trkpt><trkpt lat="43.853143028536685" lon="10.42079340185779"><ele>22.0</ele><time>2026-05-02T16:53:11.999Z</time></trkpt><trkpt lat="43.853134285738996" lon="10.421115046661606"><ele>21.0</ele><time>2026-05-02T16:53:12.999Z</time></trkpt><trkpt lat="43.853124508919386" lon="10.421431011146906"><ele>20.5</ele><time>2026-05-02T16:53:13.999Z</time></trkpt><trkpt lat="43.85311467235485" lon="10.421746563558555"><ele>20.0</ele><time>2026-05-02T16:53:14.999Z</time></trkpt><trkpt lat="43.85310528236783" lon="10.42206208451462"><ele>20.0</ele><time>2026-05-02T16:53:15.999Z</time></trkpt><trkpt lat="43.85309567985739" lon="10.42238066059183"><ele>20.0</ele><time>2026-05-02T16:53:16.999Z</time></trkpt><trkpt lat="43.85308767697813" lon="10.422698227706258"><ele>19.0</ele><time>2026-05-02T16:53:17.999Z</time></trkpt><trkpt lat="43.85308118173262" lon="10.423014772288044"><ele>18.0</ele><time>2026-05-02T16:53:18.999Z</time></trkpt><trkpt lat="43.85307425100962" lon="10.423332345114883"><ele>18.0</ele><time>2026-05-02T16:53:19.999Z</time></trkpt><trkpt lat="43.85306600589338" lon="10.42364712675699"><ele>18.0</ele><time>2026-05-02T16:53:20.998Z</time></trkpt><trkpt lat="43.85305576279102" lon="10.423962912084237"><ele>18.0</ele><time>2026-05-02T16:53:21.998Z</time></trkpt><trkpt lat="43.85304441874345" lon="10.42428093468453"><ele>18.0</ele><time>2026-05-02T16:53:22.998Z</time></trkpt><trkpt lat="43.85303497628107" lon="10.424595517249767"><ele>18.0</ele><time>2026-05-02T16:53:23.998Z</time></trkpt><trkpt lat="43.85302807391647" lon="10.42490964712537"><ele>18.0</ele><time>2026-05-02T16:53:24.998Z</time></trkpt><trkpt lat="43.85302208860811" lon="10.425219836598112"><ele>17.666666666666668</ele><time>2026-05-02T16:53:25.998Z</time></trkpt><trkpt lat="43.85301683536359" lon="10.425532196909797"><ele>17.333333333333336</ele><time>2026-05-02T16:53:26.998Z</time></trkpt><trkpt lat="43.853011299889026" lon="10.425838580868412"><ele>17.0</ele><time>2026-05-02T16:53:27.998Z</time></trkpt><trkpt lat="43.85300498453025" lon="10.426142681968134"><ele>16.666666666666668</ele><time>2026-05-02T16:53:28.998Z</time></trkpt><trkpt lat="43.85299765093009" lon="10.426439626526866"><ele>16.333333333333332</ele><time>2026-05-02T16:53:29.998Z</time></trkpt><trkpt lat="43.852989223021694" lon="10.4267416180489"><ele>16.0</ele><time>2026-05-02T16:53:30.998Z</time></trkpt><trkpt lat="43.85298072920282" lon="10.427042922865406"><ele>16.0</ele><time>2026-05-02T16:53:31.998Z</time></trkpt><trkpt lat="43.852971695118526" lon="10.427343417081303"><ele>16.0</ele><time>2026-05-02T16:53:32.998Z</time></trkpt><trkpt lat="43.85296275996902" lon="10.427644363488579"><ele>16.0</ele><time>2026-05-02T16:53:33.998Z</time></trkpt><trkpt lat="43.85295334153646" lon="10.427948526681316"><ele>16.333333333333332</ele><time>2026-05-02T16:53:34.998Z</time></trkpt><trkpt lat="43.8529446241128" lon="10.428252462635834"><ele>16.666666666666668</ele><time>2026-05-02T16:53:35.998Z</time></trkpt><trkpt lat="43.85293652187058" lon="10.428559860460425"><ele>17.0</ele><time>2026-05-02T16:53:36.998Z</time></trkpt><trkpt lat="43.85292928176008" lon="10.428871529743763"><ele>17.0</ele><time>2026-05-02T16:53:37.998Z</time></trkpt><trkpt lat="43.85292110416118" lon="10.429187191403582"><ele>17.0</ele><time>2026-05-02T16:53:38.998Z</time></trkpt><trkpt lat="43.85290712716094" lon="10.429506865969408"><ele>17.0</ele><time>2026-05-02T16:53:39.998Z</time></trkpt><trkpt lat="43.85289003355333" lon="10.429828174565062"><ele>17.0</ele><time>2026-05-02T16:53:40.998Z</time></trkpt><trkpt lat="43.85287056843401" lon="10.430153359314613"><ele>16.5</ele><time>2026-05-02T16:53:41.998Z</time></trkpt><trkpt lat="43.852849027423844" lon="10.4304835922194"><ele>16.0</ele><time>2026-05-02T16:53:42.998Z</time></trkpt><trkpt lat="43.85282456268757" lon="10.430818876531301"><ele>16.0</ele><time>2026-05-02T16:53:43.998Z</time></trkpt><trkpt lat="43.85279770574131" lon="10.431157258710467"><ele>16.0</ele><time>2026-05-02T16:53:44.998Z</time></trkpt><trkpt lat="43.85276405361931" lon="10.431495169985206"><ele>16.0</ele><time>2026-05-02T16:53:45.998Z</time></trkpt><trkpt lat="43.852726598298446" lon="10.431833422625052"><ele>16.0</ele><time>2026-05-02T16:53:46.998Z</time></trkpt><trkpt lat="43.8526857317706" lon="10.432171582849538"><ele>15.0</ele><time>2026-05-02T16:53:47.998Z</time></trkpt><trkpt lat="43.85264026469417" lon="10.432508409016119"><ele>14.0</ele><time>2026-05-02T16:53:48.998Z</time></trkpt><trkpt lat="43.852589504449774" lon="10.432845780810899"><ele>14.5</ele><time>2026-05-02T16:53:49.998Z</time></trkpt><trkpt lat="43.852539700438335" lon="10.433183489863318"><ele>15.0</ele><time>2026-05-02T16:53:50.998Z</time></trkpt><trkpt lat="43.85248740713876" lon="10.433522881553156"><ele>14.0</ele><time>2026-05-02T16:53:51.998Z</time></trkpt><trkpt lat="43.85243239111351" lon="10.433862780179817"><ele>13.0</ele><time>2026-05-02T16:53:52.998Z</time></trkpt><trkpt lat="43.85237330599255" lon="10.434198076099175"><ele>13.0</ele><time>2026-05-02T16:53:53.998Z</time></trkpt><trkpt lat="43.85230969369479" lon="10.434536263954454"><ele>13.0</ele><time>2026-05-02T16:53:54.998Z</time></trkpt><trkpt lat="43.852241950485215" lon="10.43487323895737"><ele>13.0</ele><time>2026-05-02T16:53:55.998Z</time></trkpt><trkpt lat="43.85217006490742" lon="10.435206453853587"><ele>13.0</ele><time>2026-05-02T16:53:56.998Z</time></trkpt><trkpt lat="43.85209421293296" lon="10.435541254424946"><ele>13.5</ele><time>2026-05-02T16:53:57.998Z</time></trkpt><trkpt lat="43.85201359905789" lon="10.435874256877362"><ele>14.0</ele><time>2026-05-02T16:53:58.998Z</time></trkpt><trkpt lat="43.851929374836004" lon="10.436203890050164"><ele>14.0</ele><time>2026-05-02T16:53:59.998Z</time></trkpt><trkpt lat="43.85184209398117" lon="10.436532051840146"><ele>14.0</ele><time>2026-05-02T16:54:00.997Z</time></trkpt><trkpt lat="43.851751477685006" lon="10.436861318766281"><ele>15.0</ele><time>2026-05-02T16:54:01.997Z</time></trkpt><trkpt lat="43.85165824771758" lon="10.437190054429852"><ele>16.0</ele><time>2026-05-02T16:54:02.997Z</time></trkpt><trkpt lat="43.85156030658351" lon="10.437518916875073"><ele>16.0</ele><time>2026-05-02T16:54:03.997Z</time></trkpt><trkpt lat="43.851458022063426" lon="10.437843570662531"><ele>16.0</ele><time>2026-05-02T16:54:04.997Z</time></trkpt><trkpt lat="43.85135262855309" lon="10.43816895408747"><ele>15.5</ele><time>2026-05-02T16:54:05.997Z</time></trkpt><trkpt lat="43.85124520789944" lon="10.438495860365991"><ele>15.0</ele><time>2026-05-02T16:54:06.997Z</time></trkpt><trkpt lat="43.85113435849277" lon="10.438822546411606"><ele>14.0</ele><time>2026-05-02T16:54:07.997Z</time></trkpt><trkpt lat="43.851020303754126" lon="10.439144297582626"><ele>13.0</ele><time>2026-05-02T16:54:08.997Z</time></trkpt><trkpt lat="43.85090298127156" lon="10.439461478824885"><ele>13.5</ele><time>2026-05-02T16:54:09.997Z</time></trkpt><trkpt lat="43.85078290973483" lon="10.439775581064422"><ele>14.0</ele><time>2026-05-02T16:54:10.997Z</time></trkpt><trkpt lat="43.850659698169245" lon="10.440087716839184"><ele>14.0</ele><time>2026-05-02T16:54:11.997Z</time></trkpt><trkpt lat="43.8505351075903" lon="10.440394872144426"><ele>14.0</ele><time>2026-05-02T16:54:12.997Z</time></trkpt><trkpt lat="43.850407191891456" lon="10.440699749009884"><ele>14.0</ele><time>2026-05-02T16:54:13.997Z</time></trkpt><trkpt lat="43.85027403584176" lon="10.441000342918153"><ele>14.0</ele><time>2026-05-02T16:54:14.997Z</time></trkpt><trkpt lat="43.85013756068475" lon="10.441299724883317"><ele>13.5</ele><time>2026-05-02T16:54:15.997Z</time></trkpt><trkpt lat="43.84999935291711" lon="10.441598737950878"><ele>13.0</ele><time>2026-05-02T16:54:16.997Z</time></trkpt><trkpt lat="43.84985550188991" lon="10.441893781657669"><ele>12.5</ele><time>2026-05-02T16:54:17.997Z</time></trkpt><trkpt lat="43.84970888055272" lon="10.442182680408232"><ele>12.0</ele><time>2026-05-02T16:54:18.997Z</time></trkpt><trkpt lat="43.84955825616316" lon="10.442470339498373"><ele>12.0</ele><time>2026-05-02T16:54:19.997Z</time></trkpt><trkpt lat="43.84940789898424" lon="10.442756813773018"><ele>12.0</ele><time>2026-05-02T16:54:20.997Z</time></trkpt><trkpt lat="43.84925664147384" lon="10.443044299426772"><ele>12.5</ele><time>2026-05-02T16:54:21.997Z</time></trkpt><trkpt lat="43.849109550389805" lon="10.443332174204965"><ele>13.0</ele><time>2026-05-02T16:54:22.997Z</time></trkpt><trkpt lat="43.84896165073878" lon="10.44361869693777"><ele>13.5</ele><time>2026-05-02T16:54:23.997Z</time></trkpt><trkpt lat="43.84881506287529" lon="10.443902938047579"><ele>14.0</ele><time>2026-05-02T16:54:24.997Z</time></trkpt><trkpt lat="43.84867013907215" lon="10.444185611785572"><ele>14.0</ele><time>2026-05-02T16:54:25.997Z</time></trkpt><trkpt lat="43.84852348600515" lon="10.444470540892494"><ele>14.0</ele><time>2026-05-02T16:54:26.997Z</time></trkpt><trkpt lat="43.84837950866883" lon="10.444751603406717"><ele>14.5</ele><time>2026-05-02T16:54:28Z</time></trkpt><trkpt lat="43.84823559720635" lon="10.44503224344406"><ele>15.0</ele><time>2026-05-02T16:54:29Z</time></trkpt><trkpt lat="43.84808968746869" lon="10.445313702213994"><ele>15.5</ele><time>2026-05-02T16:54:30Z</time></trkpt><trkpt lat="43.847943668119555" lon="10.445594529810366"><ele>16.0</ele><time>2026-05-02T16:54:31Z</time></trkpt><trkpt lat="43.84779777944215" lon="10.445874720788005"><ele>16.0</ele><time>2026-05-02T16:54:32Z</time></trkpt><trkpt lat="43.847651860840266" lon="10.446154319588207"><ele>16.0</ele><time>2026-05-02T16:54:33Z</time></trkpt><trkpt lat="43.84750755820308" lon="10.446435167155848"><ele>15.0</ele><time>2026-05-02T16:54:34Z</time></trkpt><trkpt lat="43.84736129188377" lon="10.446717692140815"><ele>14.0</ele><time>2026-05-02T16:54:35Z</time></trkpt><trkpt lat="43.847212231669175" lon="10.447004336462996"><ele>14.5</ele><time>2026-05-02T16:54:36Z</time></trkpt><trkpt lat="43.84706366058645" lon="10.447293324888985"><ele>15.0</ele><time>2026-05-02T16:54:37Z</time></trkpt><trkpt lat="43.84691380585186" lon="10.44758428540357"><ele>16.0</ele><time>2026-05-02T16:54:38Z</time></trkpt><trkpt lat="43.84676332178832" lon="10.4478756731317"><ele>17.0</ele><time>2026-05-02T16:54:39Z</time></trkpt><trkpt lat="43.84660835306133" lon="10.44816836304956"><ele>18.0</ele><time>2026-05-02T16:54:40Z</time></trkpt><trkpt lat="43.846454979849966" lon="10.448461400502653"><ele>19.0</ele><time>2026-05-02T16:54:41Z</time></trkpt><trkpt lat="43.84630105306428" lon="10.448754662522258"><ele>17.5</ele><time>2026-05-02T16:54:42Z</time></trkpt><trkpt lat="43.846147289883945" lon="10.449047985087706"><ele>16.0</ele><time>2026-05-02T16:54:43Z</time></trkpt><trkpt lat="43.84599624016671" lon="10.449339184404689"><ele>15.5</ele><time>2026-05-02T16:54:44Z</time></trkpt><trkpt lat="43.845847581642204" lon="10.449626821296471"><ele>15.0</ele><time>2026-05-02T16:54:45Z</time></trkpt><trkpt lat="43.84569957248026" lon="10.449913050084183"><ele>15.0</ele><time>2026-05-02T16:54:46Z</time></trkpt><trkpt lat="43.84555222962642" lon="10.45019702416333"><ele>15.0</ele><time>2026-05-02T16:54:47Z</time></trkpt><trkpt lat="43.84540422533253" lon="10.450481302683263"><ele>15.0</ele><time>2026-05-02T16:54:48Z</time></trkpt><trkpt lat="43.84525713156904" lon="10.450764751079706"><ele>15.0</ele><time>2026-05-02T16:54:49Z</time></trkpt><trkpt lat="43.845110707145984" lon="10.451049458186032"><ele>14.5</ele><time>2026-05-02T16:54:50Z</time></trkpt><trkpt lat="43.84496210351309" lon="10.451335529802794"><ele>14.0</ele><time>2026-05-02T16:54:51Z</time></trkpt><trkpt lat="43.84481345232593" lon="10.451622709214407"><ele>14.0</ele><time>2026-05-02T16:54:52Z</time></trkpt><trkpt lat="43.84466571528336" lon="10.451909632876996"><ele>14.0</ele><time>2026-05-02T16:54:53Z</time></trkpt><trkpt lat="43.8445160578457" lon="10.452197078073096"><ele>13.5</ele><time>2026-05-02T16:54:54Z</time></trkpt><trkpt lat="43.84436605248248" lon="10.452484625551966"><ele>13.0</ele><time>2026-05-02T16:54:55Z</time></trkpt><trkpt lat="43.8442129750973" lon="10.452773779150656"><ele>12.5</ele><time>2026-05-02T16:54:56Z</time></trkpt><trkpt lat="43.844061797358606" lon="10.453061583528525"><ele>12.0</ele><time>2026-05-02T16:54:56.999Z</time></trkpt><trkpt lat="43.84390815463089" lon="10.453352526605993"><ele>12.0</ele><time>2026-05-02T16:54:57.999Z</time></trkpt><trkpt lat="43.8437573692004" lon="10.453645253448762"><ele>12.0</ele><time>2026-05-02T16:54:58.999Z</time></trkpt><trkpt lat="43.84360241464959" lon="10.453936168555046"><ele>12.0</ele><time>2026-05-02T16:54:59.999Z</time></trkpt><trkpt lat="43.843454682824394" lon="10.454231838070083"><ele>12.0</ele><time>2026-05-02T16:55:00.999Z</time></trkpt><trkpt lat="43.84330383630968" lon="10.45452447901717"><ele>12.0</ele><time>2026-05-02T16:55:01.999Z</time></trkpt><trkpt lat="43.84315363082492" lon="10.454816151283723"><ele>12.0</ele><time>2026-05-02T16:55:02.999Z</time></trkpt><trkpt lat="43.84300184800649" lon="10.455110655624738"><ele>12.0</ele><time>2026-05-02T16:55:03.999Z</time></trkpt><trkpt lat="43.842846666168676" lon="10.45539942768922"><ele>12.0</ele><time>2026-05-02T16:55:04.999Z</time></trkpt><trkpt lat="43.84269293442486" lon="10.45569083068733"><ele>11.5</ele><time>2026-05-02T16:55:05.999Z</time></trkpt><trkpt lat="43.84254422955957" lon="10.455980883085259"><ele>11.0</ele><time>2026-05-02T16:55:06.999Z</time></trkpt><trkpt lat="43.84239878503963" lon="10.456271074397856"><ele>10.5</ele><time>2026-05-02T16:55:07.999Z</time></trkpt><trkpt lat="43.84224623951631" lon="10.456558543409685"><ele>10.0</ele><time>2026-05-02T16:55:08.999Z</time></trkpt><trkpt lat="43.842096191010235" lon="10.456850360319224"><ele>10.5</ele><time>2026-05-02T16:55:09.999Z</time></trkpt><trkpt lat="43.84194616203815" lon="10.457139683207446"><ele>11.0</ele><time>2026-05-02T16:55:10.999Z</time></trkpt><trkpt lat="43.841793887344664" lon="10.457428649803836"><ele>11.0</ele><time>2026-05-02T16:55:11.999Z</time></trkpt><trkpt lat="43.8416431058853" lon="10.457716210793333"><ele>11.0</ele><time>2026-05-02T16:55:12.999Z</time></trkpt><trkpt lat="43.84149338994427" lon="10.458006719021643"><ele>11.0</ele><time>2026-05-02T16:55:13.999Z</time></trkpt><trkpt lat="43.841348749339446" lon="10.458292209313038"><ele>11.0</ele><time>2026-05-02T16:55:14.999Z</time></trkpt><trkpt lat="43.84120318980157" lon="10.458575782679892"><ele>11.0</ele><time>2026-05-02T16:55:15.999Z</time></trkpt><trkpt lat="43.841057030166574" lon="10.458861454176402"><ele>11.0</ele><time>2026-05-02T16:55:16.999Z</time></trkpt><trkpt lat="43.840912411073504" lon="10.459143509566761"><ele>11.0</ele><time>2026-05-02T16:55:17.999Z</time></trkpt><trkpt lat="43.840767880790935" lon="10.459427385595973"><ele>11.0</ele><time>2026-05-02T16:55:18.999Z</time></trkpt><trkpt lat="43.84062311736662" lon="10.459711301124978"><ele>12.0</ele><time>2026-05-02T16:55:19.999Z</time></trkpt><trkpt lat="43.840483318015295" lon="10.459994421214184"><ele>13.0</ele><time>2026-05-02T16:55:20.999Z</time></trkpt><trkpt lat="43.84034798085648" lon="10.46027927910685"><ele>13.0</ele><time>2026-05-02T16:55:21.999Z</time></trkpt><trkpt lat="43.84020977529654" lon="10.46055846250511"><ele>13.0</ele><time>2026-05-02T16:55:22.999Z</time></trkpt><trkpt lat="43.840066244001626" lon="10.46083934941339"><ele>13.0</ele><time>2026-05-02T16:55:23.999Z</time></trkpt><trkpt lat="43.83991836370214" lon="10.46112480166754"><ele>13.0</ele><time>2026-05-02T16:55:24.999Z</time></trkpt><trkpt lat="43.83977105177435" lon="10.461407059261004"><ele>12.5</ele><time>2026-05-02T16:55:25.999Z</time></trkpt><trkpt lat="43.83962024220723" lon="10.461695626764444"><ele>12.0</ele><time>2026-05-02T16:55:26.999Z</time></trkpt><trkpt lat="43.83946580482371" lon="10.461988386743796"><ele>11.5</ele><time>2026-05-02T16:55:27.999Z</time></trkpt><trkpt lat="43.83931446183187" lon="10.462282337129382"><ele>11.0</ele><time>2026-05-02T16:55:28.999Z</time></trkpt><trkpt lat="43.839157519603106" lon="10.46257875796765"><ele>12.0</ele><time>2026-05-02T16:55:29.999Z</time></trkpt><trkpt lat="43.83900274887279" lon="10.462873144611029"><ele>13.0</ele><time>2026-05-02T16:55:30.999Z</time></trkpt><trkpt lat="43.83884915022806" lon="10.463167738108451"><ele>13.0</ele><time>2026-05-02T16:55:31.999Z</time></trkpt><trkpt lat="43.83869494967819" lon="10.463464908842687"><ele>13.0</ele><time>2026-05-02T16:55:32.999Z</time></trkpt><trkpt lat="43.838540285840516" lon="10.46376364369592"><ele>13.5</ele><time>2026-05-02T16:55:33.998Z</time></trkpt><trkpt lat="43.83838782046361" lon="10.464062430408172"><ele>14.0</ele><time>2026-05-02T16:55:34.998Z</time></trkpt><trkpt lat="43.838234577582384" lon="10.464362658642145"><ele>13.5</ele><time>2026-05-02T16:55:35.998Z</time></trkpt><trkpt lat="43.838083730283536" lon="10.464665747734701"><ele>13.0</ele><time>2026-05-02T16:55:36.998Z</time></trkpt><trkpt lat="43.837939825005975" lon="10.464971026932702"><ele>13.0</ele><time>2026-05-02T16:55:37.998Z</time></trkpt><trkpt lat="43.837799205585185" lon="10.465276542796689"><ele>13.0</ele><time>2026-05-02T16:55:38.998Z</time></trkpt><trkpt lat="43.8376718626466" lon="10.465583856426202"><ele>13.5</ele><time>2026-05-02T16:55:39.998Z</time></trkpt><trkpt lat="43.83754653125889" lon="10.465892279908369"><ele>14.0</ele><time>2026-05-02T16:55:40.998Z</time></trkpt><trkpt lat="43.83743142023463" lon="10.466199193564933"><ele>14.0</ele><time>2026-05-02T16:55:41.998Z</time></trkpt><trkpt lat="43.837330401051936" lon="10.466501180031829"><ele>14.0</ele><time>2026-05-02T16:55:42.998Z</time></trkpt><trkpt lat="43.83724610280289" lon="10.466797395774899"><ele>14.0</ele><time>2026-05-02T16:55:43.998Z</time></trkpt><trkpt lat="43.83716945186131" lon="10.467089969591301"><ele>14.0</ele><time>2026-05-02T16:55:44.998Z</time></trkpt><trkpt lat="43.8370945161601" lon="10.467377631088379"><ele>14.0</ele><time>2026-05-02T16:55:45.998Z</time></trkpt><trkpt lat="43.837023154175675" lon="10.467664142514323"><ele>13.0</ele><time>2026-05-02T16:55:46.998Z</time></trkpt><trkpt lat="43.83694764690572" lon="10.467961077882636"><ele>12.0</ele><time>2026-05-02T16:55:47.998Z</time></trkpt><trkpt lat="43.836876234603125" lon="10.468255991760858"><ele>12.0</ele><time>2026-05-02T16:55:48.998Z</time></trkpt><trkpt lat="43.83680504669024" lon="10.468546253587421"><ele>12.0</ele><time>2026-05-02T16:55:49.998Z</time></trkpt><trkpt lat="43.83673402956657" lon="10.468840214670385"><ele>12.0</ele><time>2026-05-02T16:55:50.998Z</time></trkpt><trkpt lat="43.83666300863305" lon="10.469129800627725"><ele>12.333333333333332</ele><time>2026-05-02T16:55:51.998Z</time></trkpt><trkpt lat="43.83659403206031" lon="10.469414539858716"><ele>12.666666666666666</ele><time>2026-05-02T16:55:52.998Z</time></trkpt><trkpt lat="43.836525753164985" lon="10.46968507236772"><ele>13.0</ele><time>2026-05-02T16:55:53.998Z</time></trkpt><trkpt lat="43.836460944726674" lon="10.469946381583044"><ele>13.0</ele><time>2026-05-02T16:55:54.998Z</time></trkpt><trkpt lat="43.83639810291846" lon="10.470202000729197"><ele>13.0</ele><time>2026-05-02T16:55:55.998Z</time></trkpt><trkpt lat="43.836335691319164" lon="10.470449591726323"><ele>13.0</ele><time>2026-05-02T16:55:56.998Z</time></trkpt><trkpt lat="43.83627319672811" lon="10.47069645247091"><ele>13.0</ele><time>2026-05-02T16:55:57.998Z</time></trkpt><trkpt lat="43.83621126711826" lon="10.470942745976158"><ele>13.0</ele><time>2026-05-02T16:55:58.998Z</time></trkpt><trkpt lat="43.83615229652313" lon="10.471175919448099"><ele>13.0</ele><time>2026-05-02T16:55:59.998Z</time></trkpt><trkpt lat="43.83609341091338" lon="10.471402108582268"><ele>12.333333333333332</ele><time>2026-05-02T16:56:00.998Z</time></trkpt><trkpt lat="43.83603756933604" lon="10.471621630501472"><ele>11.666666666666666</ele><time>2026-05-02T16:56:01.998Z</time></trkpt><trkpt lat="43.835983330551414" lon="10.471847481109638"><ele>11.0</ele><time>2026-05-02T16:56:02.998Z</time></trkpt><trkpt lat="43.83593352066293" lon="10.47207098285009"><ele>10.666666666666666</ele><time>2026-05-02T16:56:03.998Z</time></trkpt><trkpt lat="43.83587452994433" lon="10.472292910844969"><ele>10.333333333333334</ele><time>2026-05-02T16:56:04.998Z</time></trkpt><trkpt lat="43.83580384672066" lon="10.472515864155458"><ele>10.0</ele><time>2026-05-02T16:56:05.998Z</time></trkpt><trkpt lat="43.83571650144082" lon="10.472732260297157"><ele>10.0</ele><time>2026-05-02T16:56:06.998Z</time></trkpt><trkpt lat="43.83561267184536" lon="10.472931365907593"><ele>10.0</ele><time>2026-05-02T16:56:07.998Z</time></trkpt><trkpt lat="43.83549280983759" lon="10.47311555341821"><ele>10.0</ele><time>2026-05-02T16:56:08.998Z</time></trkpt><trkpt lat="43.83535714320315" lon="10.473283598524219"><ele>10.666666666666668</ele><time>2026-05-02T16:56:09.998Z</time></trkpt><trkpt lat="43.835210753125025" lon="10.47343019656092"><ele>11.333333333333334</ele><time>2026-05-02T16:56:10.998Z</time></trkpt><trkpt lat="43.8350516774046" lon="10.47355600749283"><ele>12.0</ele><time>2026-05-02T16:56:11.998Z</time></trkpt><trkpt lat="43.83488452749951" lon="10.47366177254852"><ele>12.0</ele><time>2026-05-02T16:56:12.997Z</time></trkpt><trkpt lat="43.83471057313435" lon="10.473740871304543"><ele>12.0</ele><time>2026-05-02T16:56:13.997Z</time></trkpt><trkpt lat="43.834534422588156" lon="10.473795767997826"><ele>12.0</ele><time>2026-05-02T16:56:14.997Z</time></trkpt><trkpt lat="43.834352839679916" lon="10.473829891244076"><ele>12.666666666666668</ele><time>2026-05-02T16:56:15.997Z</time></trkpt><trkpt lat="43.834172588338895" lon="10.473855176539383"><ele>13.333333333333334</ele><time>2026-05-02T16:56:16.997Z</time></trkpt><trkpt lat="43.83399289805071" lon="10.47386963822062"><ele>14.0</ele><time>2026-05-02T16:56:17.997Z</time></trkpt><trkpt lat="43.83381747033525" lon="10.473890937054884"><ele>14.0</ele><time>2026-05-02T16:56:18.997Z</time></trkpt><trkpt lat="43.83364082371859" lon="10.473923715440955"><ele>14.0</ele><time>2026-05-02T16:56:19.997Z</time></trkpt><trkpt lat="43.833466894952956" lon="10.473968514193661"><ele>14.0</ele><time>2026-05-02T16:56:20.997Z</time></trkpt><trkpt lat="43.83329544393991" lon="10.474033151286319"><ele>13.333333333333334</ele><time>2026-05-02T16:56:21.997Z</time></trkpt><trkpt lat="43.833131527781845" lon="10.47412108554155"><ele>12.666666666666668</ele><time>2026-05-02T16:56:22.997Z</time></trkpt><trkpt lat="43.83296959903539" lon="10.474222138772337"><ele>12.0</ele><time>2026-05-02T16:56:23.997Z</time></trkpt><trkpt lat="43.83281368426794" lon="10.474340146658031"><ele>12.0</ele><time>2026-05-02T16:56:24.997Z</time></trkpt><trkpt lat="43.83266349642764" lon="10.474466529921964"><ele>12.0</ele><time>2026-05-02T16:56:25.997Z</time></trkpt><trkpt lat="43.832522875467234" lon="10.474592939973608"><ele>12.0</ele><time>2026-05-02T16:56:26.997Z</time></trkpt><trkpt lat="43.83238842738928" lon="10.474718226137531"><ele>12.0</ele><time>2026-05-02T16:56:27.997Z</time></trkpt><trkpt lat="43.83226241638829" lon="10.474847291688294"><ele>12.0</ele><time>2026-05-02T16:56:28.997Z</time></trkpt><trkpt lat="43.83214515196402" lon="10.47498519362571"><ele>12.0</ele><time>2026-05-02T16:56:29.997Z</time></trkpt><trkpt lat="43.832044599773134" lon="10.4751401474346"><ele>12.0</ele><time>2026-05-02T16:56:30.997Z</time></trkpt><trkpt lat="43.83196096095718" lon="10.47532270946498"><ele>12.0</ele><time>2026-05-02T16:56:31.997Z</time></trkpt><trkpt lat="43.831909527301505" lon="10.47552050226547"><ele>12.0</ele><time>2026-05-02T16:56:32.997Z</time></trkpt><trkpt lat="43.83188546766498" lon="10.475730515294112"><ele>11.666666666666666</ele><time>2026-05-02T16:56:34Z</time></trkpt><trkpt lat="43.831880805219285" lon="10.475944432924836"><ele>11.333333333333332</ele><time>2026-05-02T16:56:35Z</time></trkpt><trkpt lat="43.831908030403056" lon="10.476159085417907"><ele>11.0</ele><time>2026-05-02T16:56:36Z</time></trkpt><trkpt lat="43.8319671357728" lon="10.47637353170967"><ele>11.0</ele><time>2026-05-02T16:56:37Z</time></trkpt><trkpt lat="43.83203655152333" lon="10.476594672919804"><ele>11.0</ele><time>2026-05-02T16:56:38Z</time></trkpt><trkpt lat="43.83210736166287" lon="10.47681717549105"><ele>11.0</ele><time>2026-05-02T16:56:39Z</time></trkpt><trkpt lat="43.83217412187764" lon="10.477039810239416"><ele>11.333333333333332</ele><time>2026-05-02T16:56:40Z</time></trkpt><trkpt lat="43.832232975582045" lon="10.477255413335339"><ele>11.666666666666666</ele><time>2026-05-02T16:56:41Z</time></trkpt><trkpt lat="43.832284210738706" lon="10.477474461594046"><ele>12.0</ele><time>2026-05-02T16:56:42Z</time></trkpt><trkpt lat="43.83232550608034" lon="10.477685871714113"><ele>12.0</ele><time>2026-05-02T16:56:43Z</time></trkpt><trkpt lat="43.83235287901128" lon="10.477894813485726"><ele>12.0</ele><time>2026-05-02T16:56:44Z</time></trkpt><trkpt lat="43.83236605324689" lon="10.478095127042002"><ele>12.0</ele><time>2026-05-02T16:56:45Z</time></trkpt><trkpt lat="43.832366170759535" lon="10.478285964838665"><ele>12.0</ele><time>2026-05-02T16:56:46Z</time></trkpt><trkpt lat="43.83235675381583" lon="10.478469065379258"><ele>12.0</ele><time>2026-05-02T16:56:47Z</time></trkpt><trkpt lat="43.832341593143305" lon="10.478646907255492"><ele>12.0</ele><time>2026-05-02T16:56:48Z</time></trkpt><trkpt lat="43.832321047705086" lon="10.478812264128477"><ele>12.0</ele><time>2026-05-02T16:56:49Z</time></trkpt><trkpt lat="43.83230659107282" lon="10.478975675620582"><ele>12.0</ele><time>2026-05-02T16:56:50Z</time></trkpt><trkpt lat="43.832286691031044" lon="10.479134180810885"><ele>12.0</ele><time>2026-05-02T16:56:51Z</time></trkpt><trkpt lat="43.83226565130241" lon="10.479292956649406"><ele>12.0</ele><time>2026-05-02T16:56:52Z</time></trkpt><trkpt lat="43.83223919050823" lon="10.479472414499707"><ele>12.0</ele><time>2026-05-02T16:56:53Z</time></trkpt><trkpt lat="43.8322062393563" lon="10.479665445484162"><ele>12.0</ele><time>2026-05-02T16:56:54Z</time></trkpt><trkpt lat="43.832168186245234" lon="10.479870411460338"><ele>12.0</ele><time>2026-05-02T16:56:55Z</time></trkpt><trkpt lat="43.83213241004579" lon="10.48007647412944"><ele>12.0</ele><time>2026-05-02T16:56:56Z</time></trkpt><trkpt lat="43.83210212529364" lon="10.480271811336427"><ele>12.0</ele><time>2026-05-02T16:56:57Z</time></trkpt><trkpt lat="43.83207614258921" lon="10.480459376503827"><ele>12.0</ele><time>2026-05-02T16:56:58Z</time></trkpt><trkpt lat="43.83204915651322" lon="10.480644650987307"><ele>11.75</ele><time>2026-05-02T16:56:59Z</time></trkpt><trkpt lat="43.83202358930657" lon="10.480825686975114"><ele>11.5</ele><time>2026-05-02T16:57:00Z</time></trkpt><trkpt lat="43.831998410748874" lon="10.48100404764102"><ele>11.25</ele><time>2026-05-02T16:57:01Z</time></trkpt><trkpt lat="43.83197512402682" lon="10.481178328265674"><ele>11.0</ele><time>2026-05-02T16:57:02Z</time></trkpt><trkpt lat="43.831952352833845" lon="10.48134753052415"><ele>11.0</ele><time>2026-05-02T16:57:03Z</time></trkpt><trkpt lat="43.831929842423904" lon="10.481509944215246"><ele>11.0</ele><time>2026-05-02T16:57:04Z</time></trkpt><trkpt lat="43.83190896701774" lon="10.48166448667007"><ele>11.0</ele><time>2026-05-02T16:57:05Z</time></trkpt><trkpt lat="43.83189018751424" lon="10.481811134269131"><ele>11.0</ele><time>2026-05-02T16:57:06Z</time></trkpt><trkpt lat="43.83187781702459" lon="10.481933199007766"><ele>11.0</ele><time>2026-05-02T16:57:07Z</time></trkpt><trkpt lat="43.83186471517203" lon="10.482033306768907"><ele>11.0</ele><time>2026-05-02T16:57:08Z</time></trkpt><trkpt lat="43.83185260812291" lon="10.482132809586364"><ele>11.0</ele><time>2026-05-02T16:57:08.999Z</time></trkpt><trkpt lat="43.83184173251165" lon="10.482229111456231"><ele>11.0</ele><time>2026-05-02T16:57:09.999Z</time></trkpt><trkpt lat="43.831831830504136" lon="10.482317850279237"><ele>11.0</ele><time>2026-05-02T16:57:10.999Z</time></trkpt><trkpt lat="43.83181474410836" lon="10.482452654162413"><ele>11.0</ele><time>2026-05-02T16:57:12.999Z</time></trkpt><trkpt lat="43.831793887142574" lon="10.482582716769675"><ele>11.0</ele><time>2026-05-02T16:57:14.999Z</time></trkpt><trkpt lat="43.8317659724515" lon="10.482722443590188"><ele>11.0</ele><time>2026-05-02T16:57:16.999Z</time></trkpt><trkpt lat="43.831735064300446" lon="10.4828708794219"><ele>11.0</ele><time>2026-05-02T16:57:18.999Z</time></trkpt><trkpt lat="43.831716981481286" lon="10.482955837720501"><ele>11.0</ele><time>2026-05-02T16:57:19.999Z</time></trkpt><trkpt lat="43.83169766997129" lon="10.483050913972232"><ele>11.0</ele><time>2026-05-02T16:57:20.999Z</time></trkpt><trkpt lat="43.83168112831" lon="10.483164270672885"><ele>11.0</ele><time>2026-05-02T16:57:21.999Z</time></trkpt><trkpt lat="43.83166250008536" lon="10.483288206951954"><ele>11.0</ele><time>2026-05-02T16:57:22.999Z</time></trkpt><trkpt lat="43.831642594936405" lon="10.48341549979468"><ele>11.0</ele><time>2026-05-02T16:57:23.999Z</time></trkpt><trkpt lat="43.83162124095483" lon="10.483549507224671"><ele>11.0</ele><time>2026-05-02T16:57:24.999Z</time></trkpt><trkpt lat="43.83159905532105" lon="10.483687756187345"><ele>11.0</ele><time>2026-05-02T16:57:25.999Z</time></trkpt><trkpt lat="43.83157584750017" lon="10.48382294518022"><ele>11.0</ele><time>2026-05-02T16:57:26.999Z</time></trkpt><trkpt lat="43.8315527528279" lon="10.483958543435381"><ele>11.0</ele><time>2026-05-02T16:57:27.999Z</time></trkpt><trkpt lat="43.83153215600624" lon="10.484092801631046"><ele>11.0</ele><time>2026-05-02T16:57:28.999Z</time></trkpt><trkpt lat="43.83151564254744" lon="10.484228026329193"><ele>11.0</ele><time>2026-05-02T16:57:29.999Z</time></trkpt><trkpt lat="43.83149454844936" lon="10.484371624659842"><ele>11.0</ele><time>2026-05-02T16:57:30.999Z</time></trkpt><trkpt lat="43.83146911435613" lon="10.484526733565525"><ele>11.0</ele><time>2026-05-02T16:57:31.999Z</time></trkpt><trkpt lat="43.831440729002246" lon="10.484693588042528"><ele>11.0</ele><time>2026-05-02T16:57:32.999Z</time></trkpt><trkpt lat="43.831413494579" lon="10.484865934105843"><ele>11.0</ele><time>2026-05-02T16:57:33.999Z</time></trkpt><trkpt lat="43.8313903451382" lon="10.485044372110103"><ele>11.0</ele><time>2026-05-02T16:57:34.999Z</time></trkpt><trkpt lat="43.83136737393896" lon="10.485223084167018"><ele>11.0</ele><time>2026-05-02T16:57:35.999Z</time></trkpt><trkpt lat="43.83134402169654" lon="10.485402223567107"><ele>11.0</ele><time>2026-05-02T16:57:36.999Z</time></trkpt><trkpt lat="43.83132065441147" lon="10.485574298643431"><ele>11.0</ele><time>2026-05-02T16:57:37.999Z</time></trkpt><trkpt lat="43.83129736510555" lon="10.485737528323916"><ele>11.0</ele><time>2026-05-02T16:57:38.999Z</time></trkpt><trkpt lat="43.83127543156038" lon="10.485898630513546"><ele>11.0</ele><time>2026-05-02T16:57:39.999Z</time></trkpt><trkpt lat="43.83125357982908" lon="10.48606144264725"><ele>11.0</ele><time>2026-05-02T16:57:40.999Z</time></trkpt><trkpt lat="43.8312298383557" lon="10.486234243441457"><ele>11.0</ele><time>2026-05-02T16:57:41.999Z</time></trkpt><trkpt lat="43.83120521679808" lon="10.486414561413403"><ele>11.0</ele><time>2026-05-02T16:57:42.999Z</time></trkpt><trkpt lat="43.831177455096444" lon="10.486605705910861"><ele>11.0</ele><time>2026-05-02T16:57:43.999Z</time></trkpt><trkpt lat="43.83115024118029" lon="10.486801921231976"><ele>11.0</ele><time>2026-05-02T16:57:44.999Z</time></trkpt><trkpt lat="43.83112048778427" lon="10.487001042564517"><ele>11.25</ele><time>2026-05-02T16:57:45.998Z</time></trkpt><trkpt lat="43.83109202825173" lon="10.487200740249527"><ele>11.5</ele><time>2026-05-02T16:57:46.998Z</time></trkpt><trkpt lat="43.83106213833861" lon="10.487401632816054"><ele>11.75</ele><time>2026-05-02T16:57:47.998Z</time></trkpt><trkpt lat="43.83103013778577" lon="10.487601935490725"><ele>12.0</ele><time>2026-05-02T16:57:48.998Z</time></trkpt><trkpt lat="43.83099882815465" lon="10.487798921513539"><ele>12.0</ele><time>2026-05-02T16:57:49.998Z</time></trkpt><trkpt lat="43.83096857155131" lon="10.48799417875739"><ele>12.0</ele><time>2026-05-02T16:57:50.998Z</time></trkpt><trkpt lat="43.83094205073998" lon="10.488182565375796"><ele>12.0</ele><time>2026-05-02T16:57:51.998Z</time></trkpt><trkpt lat="43.83091201066079" lon="10.488369432605005"><ele>12.0</ele><time>2026-05-02T16:57:52.998Z</time></trkpt><trkpt lat="43.83088220067786" lon="10.48855512043876"><ele>12.0</ele><time>2026-05-02T16:57:53.998Z</time></trkpt><trkpt lat="43.83085374056221" lon="10.488742554892106"><ele>12.0</ele><time>2026-05-02T16:57:54.998Z</time></trkpt><trkpt lat="43.8308239066339" lon="10.488940751142804"><ele>12.0</ele><time>2026-05-02T16:57:55.998Z</time></trkpt><trkpt lat="43.8307923969118" lon="10.48914664787996"><ele>12.0</ele><time>2026-05-02T16:57:56.998Z</time></trkpt><trkpt lat="43.830761990122014" lon="10.48935522056848"><ele>11.666666666666666</ele><time>2026-05-02T16:57:57.998Z</time></trkpt><trkpt lat="43.83073167465388" lon="10.489561166146732"><ele>11.333333333333332</ele><time>2026-05-02T16:57:58.998Z</time></trkpt><trkpt lat="43.830700162509544" lon="10.489766915416457"><ele>11.0</ele><time>2026-05-02T16:57:59.998Z</time></trkpt><trkpt lat="43.83066873933035" lon="10.489969496416965"><ele>11.333333333333332</ele><time>2026-05-02T16:58:00.998Z</time></trkpt><trkpt lat="43.83063668614878" lon="10.490172878268668"><ele>11.666666666666666</ele><time>2026-05-02T16:58:01.998Z</time></trkpt><trkpt lat="43.83060468024482" lon="10.490375159117082"><ele>12.0</ele><time>2026-05-02T16:58:02.998Z</time></trkpt><trkpt lat="43.83057325957599" lon="10.490579645041668"><ele>12.0</ele><time>2026-05-02T16:58:03.998Z</time></trkpt><trkpt lat="43.8305408056603" lon="10.490794056045356"><ele>12.0</ele><time>2026-05-02T16:58:04.998Z</time></trkpt><trkpt lat="43.83050470693692" lon="10.49102651786003"><ele>12.0</ele><time>2026-05-02T16:58:05.998Z</time></trkpt><trkpt lat="43.830466923006874" lon="10.491270648635897"><ele>12.666666666666668</ele><time>2026-05-02T16:58:06.998Z</time></trkpt><trkpt lat="43.830429956723385" lon="10.491512612734773"><ele>13.333333333333334</ele><time>2026-05-02T16:58:07.998Z</time></trkpt><trkpt lat="43.830388235281525" lon="10.491764089365752"><ele>14.0</ele><time>2026-05-02T16:58:08.998Z</time></trkpt><trkpt lat="43.83034398789899" lon="10.49201796147532"><ele>13.333333333333334</ele><time>2026-05-02T16:58:09.998Z</time></trkpt><trkpt lat="43.83029953375922" lon="10.492267184581118"><ele>12.666666666666668</ele><time>2026-05-02T16:58:10.998Z</time></trkpt><trkpt lat="43.830260780662336" lon="10.49251253727479"><ele>12.0</ele><time>2026-05-02T16:58:11.998Z</time></trkpt><trkpt lat="43.83022427014413" lon="10.492759395822976"><ele>12.0</ele><time>2026-05-02T16:58:12.998Z</time></trkpt><trkpt lat="43.8301877228521" lon="10.493004542592569"><ele>12.0</ele><time>2026-05-02T16:58:13.998Z</time></trkpt><trkpt lat="43.83014741705639" lon="10.493233561198247"><ele>12.0</ele><time>2026-05-02T16:58:14.998Z</time></trkpt><trkpt lat="43.83011236347116" lon="10.493466123317448"><ele>12.0</ele><time>2026-05-02T16:58:15.998Z</time></trkpt><trkpt lat="43.83008110278711" lon="10.493690358261333"><ele>12.0</ele><time>2026-05-02T16:58:16.998Z</time></trkpt><trkpt lat="43.83005009632137" lon="10.493916115797514"><ele>12.0</ele><time>2026-05-02T16:58:17.998Z</time></trkpt><trkpt lat="43.83001827845563" lon="10.494142368018693"><ele>12.0</ele><time>2026-05-02T16:58:18.998Z</time></trkpt><trkpt lat="43.829986409948226" lon="10.494367916411827"><ele>12.0</ele><time>2026-05-02T16:58:19.998Z</time></trkpt><trkpt lat="43.829951560444" lon="10.494593490745856"><ele>12.0</ele><time>2026-05-02T16:58:20.998Z</time></trkpt><trkpt lat="43.829917913324344" lon="10.494814530180085"><ele>12.333333333333332</ele><time>2026-05-02T16:58:21.998Z</time></trkpt><trkpt lat="43.82988379964141" lon="10.495032158580262"><ele>12.666666666666666</ele><time>2026-05-02T16:58:22.998Z</time></trkpt><trkpt lat="43.82984902157732" lon="10.495242680856519"><ele>13.0</ele><time>2026-05-02T16:58:23.998Z</time></trkpt><trkpt lat="43.82981579596674" lon="10.49544046385009"><ele>13.0</ele><time>2026-05-02T16:58:24.997Z</time></trkpt><trkpt lat="43.82978622183432" lon="10.495618002201862"><ele>13.0</ele><time>2026-05-02T16:58:25.997Z</time></trkpt><trkpt lat="43.82976113706302" lon="10.495770842777128"><ele>13.0</ele><time>2026-05-02T16:58:26.997Z</time></trkpt><trkpt lat="43.82973406299534" lon="10.49591849667684"><ele>13.0</ele><time>2026-05-02T16:58:27.997Z</time></trkpt><trkpt lat="43.829709138940764" lon="10.496058324082384"><ele>13.0</ele><time>2026-05-02T16:58:28.997Z</time></trkpt><trkpt lat="43.82968713316397" lon="10.4961905820938"><ele>13.0</ele><time>2026-05-02T16:58:29.997Z</time></trkpt><trkpt lat="43.829661858386324" lon="10.496332014030926"><ele>13.0</ele><time>2026-05-02T16:58:30.997Z</time></trkpt><trkpt lat="43.82963858454795" lon="10.496480401791418"><ele>13.0</ele><time>2026-05-02T16:58:31.997Z</time></trkpt><trkpt lat="43.829615105564834" lon="10.496630427230736"><ele>13.0</ele><time>2026-05-02T16:58:32.997Z</time></trkpt><trkpt lat="43.829586936270765" lon="10.496778535080574"><ele>13.0</ele><time>2026-05-02T16:58:33.997Z</time></trkpt><trkpt lat="43.82955860875153" lon="10.49692667872176"><ele>13.0</ele><time>2026-05-02T16:58:34.997Z</time></trkpt><trkpt lat="43.82952833461674" lon="10.497078936403359"><ele>13.0</ele><time>2026-05-02T16:58:35.997Z</time></trkpt><trkpt lat="43.829502831921744" lon="10.497229690377168"><ele>13.0</ele><time>2026-05-02T16:58:36.997Z</time></trkpt><trkpt lat="43.82948044381664" lon="10.497376003188197"><ele>13.0</ele><time>2026-05-02T16:58:37.997Z</time></trkpt><trkpt lat="43.829462690774406" lon="10.497515631747923"><ele>13.0</ele><time>2026-05-02T16:58:39Z</time></trkpt><trkpt lat="43.82944579083888" lon="10.497652849400522"><ele>13.0</ele><time>2026-05-02T16:58:40Z</time></trkpt><trkpt lat="43.829428145882254" lon="10.49779252430252"><ele>13.0</ele><time>2026-05-02T16:58:41Z</time></trkpt><trkpt lat="43.82941077262427" lon="10.497931807006218"><ele>13.0</ele><time>2026-05-02T16:58:42Z</time></trkpt><trkpt lat="43.829391301598264" lon="10.498072222146526"><ele>13.0</ele><time>2026-05-02T16:58:43Z</time></trkpt><trkpt lat="43.82936858914562" lon="10.498211133865619"><ele>12.8</ele><time>2026-05-02T16:58:44Z</time></trkpt><trkpt lat="43.82934665835122" lon="10.498351732084506"><ele>12.600000000000001</ele><time>2026-05-02T16:58:45Z</time></trkpt><trkpt lat="43.82932382361621" lon="10.49849534539777"><ele>12.399999999999999</ele><time>2026-05-02T16:58:46Z</time></trkpt><trkpt lat="43.82930099745422" lon="10.498643373491792"><ele>12.2</ele><time>2026-05-02T16:58:47Z</time></trkpt><trkpt lat="43.82927905655024" lon="10.498790773910173"><ele>12.0</ele><time>2026-05-02T16:58:48Z</time></trkpt><trkpt lat="43.82925601618341" lon="10.498939367920734"><ele>12.0</ele><time>2026-05-02T16:58:49Z</time></trkpt><trkpt lat="43.82923065716655" lon="10.499089813970913"><ele>12.0</ele><time>2026-05-02T16:58:50Z</time></trkpt><trkpt lat="43.82920374142953" lon="10.499241647489258"><ele>12.0</ele><time>2026-05-02T16:58:51Z</time></trkpt><trkpt lat="43.829172742168545" lon="10.499393557454635"><ele>12.0</ele><time>2026-05-02T16:58:52Z</time></trkpt><trkpt lat="43.82913986932009" lon="10.499549853274235"><ele>12.0</ele><time>2026-05-02T16:58:53Z</time></trkpt><trkpt lat="43.82910947276135" lon="10.49971680050709"><ele>12.0</ele><time>2026-05-02T16:58:54Z</time></trkpt><trkpt lat="43.82908097251396" lon="10.499892562011322"><ele>12.0</ele><time>2026-05-02T16:58:55Z</time></trkpt><trkpt lat="43.82905209835863" lon="10.500075628534084"><ele>12.0</ele><time>2026-05-02T16:58:56Z</time></trkpt><trkpt lat="43.82902446237733" lon="10.500264482463006"><ele>12.0</ele><time>2026-05-02T16:58:57Z</time></trkpt><trkpt lat="43.82899735433089" lon="10.500454482503848"><ele>12.0</ele><time>2026-05-02T16:58:58Z</time></trkpt><trkpt lat="43.828972237860924" lon="10.500645878447497"><ele>12.0</ele><time>2026-05-02T16:58:59Z</time></trkpt><trkpt lat="43.828948469128406" lon="10.500835541022305"><ele>12.0</ele><time>2026-05-02T16:59:00Z</time></trkpt><trkpt lat="43.828931117140186" lon="10.501025702220426"><ele>12.0</ele><time>2026-05-02T16:59:01Z</time></trkpt><trkpt lat="43.82891522428782" lon="10.501227170556678"><ele>12.0</ele><time>2026-05-02T16:59:02Z</time></trkpt><trkpt lat="43.8288914576792" lon="10.501439379898978"><ele>12.0</ele><time>2026-05-02T16:59:03Z</time></trkpt><trkpt lat="43.82886467625662" lon="10.50166356676759"><ele>12.0</ele><time>2026-05-02T16:59:04Z</time></trkpt><trkpt lat="43.82883733657144" lon="10.501896064802608"><ele>12.0</ele><time>2026-05-02T16:59:05Z</time></trkpt><trkpt lat="43.82880713149281" lon="10.50213930023269"><ele>12.0</ele><time>2026-05-02T16:59:06Z</time></trkpt><trkpt lat="43.82877925170893" lon="10.502395271636841"><ele>12.0</ele><time>2026-05-02T16:59:07Z</time></trkpt><trkpt lat="43.828750286130976" lon="10.502650624567119"><ele>12.0</ele><time>2026-05-02T16:59:08Z</time></trkpt><trkpt lat="43.82872487593333" lon="10.5029131507586"><ele>12.0</ele><time>2026-05-02T16:59:09Z</time></trkpt><trkpt lat="43.82870283094684" lon="10.503176744387211"><ele>12.333333333333332</ele><time>2026-05-02T16:59:10Z</time></trkpt><trkpt lat="43.82867883791488" lon="10.503434102388237"><ele>12.666666666666666</ele><time>2026-05-02T16:59:11Z</time></trkpt><trkpt lat="43.82865880630542" lon="10.5036841272468"><ele>13.0</ele><time>2026-05-02T16:59:12Z</time></trkpt><trkpt lat="43.82864250019262" lon="10.503926651929726"><ele>13.0</ele><time>2026-05-02T16:59:13Z</time></trkpt><trkpt lat="43.828630461185234" lon="10.504175648586562"><ele>13.0</ele><time>2026-05-02T16:59:14Z</time></trkpt><trkpt lat="43.82862234618038" lon="10.504447702222977"><ele>13.0</ele><time>2026-05-02T16:59:15Z</time></trkpt><trkpt lat="43.8286033702084" lon="10.504733233877449"><ele>12.5</ele><time>2026-05-02T16:59:16Z</time></trkpt><trkpt lat="43.82857701429869" lon="10.505048010133482"><ele>12.0</ele><time>2026-05-02T16:59:17Z</time></trkpt><trkpt lat="43.82856003218301" lon="10.505364467069551"><ele>12.0</ele><time>2026-05-02T16:59:17.999Z</time></trkpt><trkpt lat="43.82855457123194" lon="10.505687668571728"><ele>12.0</ele><time>2026-05-02T16:59:18.999Z</time></trkpt><trkpt lat="43.82854698712528" lon="10.506007712903244"><ele>12.0</ele><time>2026-05-02T16:59:19.999Z</time></trkpt><trkpt lat="43.82854054319145" lon="10.50633272934636"><ele>12.0</ele><time>2026-05-02T16:59:20.999Z</time></trkpt><trkpt lat="43.8285402025015" lon="10.506664432879518"><ele>12.0</ele><time>2026-05-02T16:59:21.999Z</time></trkpt><trkpt lat="43.82854268702337" lon="10.50698205170371"><ele>12.0</ele><time>2026-05-02T16:59:22.999Z</time></trkpt><trkpt lat="43.828542994002525" lon="10.507287452907747"><ele>12.0</ele><time>2026-05-02T16:59:23.999Z</time></trkpt><trkpt lat="43.828539406765145" lon="10.507594220511061"><ele>11.333333333333334</ele><time>2026-05-02T16:59:24.999Z</time></trkpt><trkpt lat="43.82853374452846" lon="10.507903905856267"><ele>10.666666666666668</ele><time>2026-05-02T16:59:25.999Z</time></trkpt><trkpt lat="43.82852679059424" lon="10.508212974725783"><ele>10.0</ele><time>2026-05-02T16:59:26.999Z</time></trkpt><trkpt lat="43.828518195373086" lon="10.508516902592078"><ele>10.333333333333334</ele><time>2026-05-02T16:59:27.999Z</time></trkpt><trkpt lat="43.82850966528846" lon="10.508818641540023"><ele>10.666666666666666</ele><time>2026-05-02T16:59:28.999Z</time></trkpt><trkpt lat="43.82850338306556" lon="10.509102126983596"><ele>11.0</ele><time>2026-05-02T16:59:29.999Z</time></trkpt><trkpt lat="43.82849729354662" lon="10.50939413117274"><ele>11.5</ele><time>2026-05-02T16:59:30.999Z</time></trkpt><trkpt lat="43.828491056466916" lon="10.50970925085468"><ele>12.0</ele><time>2026-05-02T16:59:31.999Z</time></trkpt><trkpt lat="43.828484491381815" lon="10.510033593283792"><ele>12.0</ele><time>2026-05-02T16:59:32.999Z</time></trkpt><trkpt lat="43.828478673723055" lon="10.510362880308598"><ele>12.0</ele><time>2026-05-02T16:59:33.999Z</time></trkpt><trkpt lat="43.82847344547175" lon="10.510698053138487"><ele>13.0</ele><time>2026-05-02T16:59:34.999Z</time></trkpt><trkpt lat="43.82846778567413" lon="10.511031063563724"><ele>14.0</ele><time>2026-05-02T16:59:35.999Z</time></trkpt><trkpt lat="43.82846085475877" lon="10.511362756834137"><ele>14.0</ele><time>2026-05-02T16:59:36.999Z</time></trkpt><trkpt lat="43.82845413147881" lon="10.511689376551205"><ele>14.0</ele><time>2026-05-02T16:59:37.999Z</time></trkpt><trkpt lat="43.82844690730807" lon="10.512023205591357"><ele>14.0</ele><time>2026-05-02T16:59:38.999Z</time></trkpt><trkpt lat="43.828441431162275" lon="10.51235948821232"><ele>14.0</ele><time>2026-05-02T16:59:39.999Z</time></trkpt><trkpt lat="43.82843386859821" lon="10.512682805662736"><ele>12.5</ele><time>2026-05-02T16:59:40.999Z</time></trkpt><trkpt lat="43.82842565369857" lon="10.513004762571038"><ele>11.0</ele><time>2026-05-02T16:59:41.999Z</time></trkpt><trkpt lat="43.828416708818246" lon="10.513324043443886"><ele>11.0</ele><time>2026-05-02T16:59:42.999Z</time></trkpt><trkpt lat="43.82840889749059" lon="10.513634933322159"><ele>11.0</ele><time>2026-05-02T16:59:43.999Z</time></trkpt><trkpt lat="43.82840233936262" lon="10.513945940516788"><ele>11.0</ele><time>2026-05-02T16:59:44.999Z</time></trkpt><trkpt lat="43.828397807880236" lon="10.514253260942777"><ele>11.0</ele><time>2026-05-02T16:59:45.999Z</time></trkpt><trkpt lat="43.828392668605964" lon="10.514557877353713"><ele>11.0</ele><time>2026-05-02T16:59:46.999Z</time></trkpt><trkpt lat="43.82838712508032" lon="10.514857920646417"><ele>11.0</ele><time>2026-05-02T16:59:47.999Z</time></trkpt><trkpt lat="43.828382546456965" lon="10.515154212144083"><ele>11.333333333333332</ele><time>2026-05-02T16:59:48.999Z</time></trkpt><trkpt lat="43.828377234251136" lon="10.515451716286792"><ele>11.666666666666666</ele><time>2026-05-02T16:59:49.999Z</time></trkpt><trkpt lat="43.82837248829043" lon="10.515747619054807"><ele>12.0</ele><time>2026-05-02T16:59:50.999Z</time></trkpt><trkpt lat="43.82836714532405" lon="10.51604252464997"><ele>12.0</ele><time>2026-05-02T16:59:51.999Z</time></trkpt><trkpt lat="43.828360728107405" lon="10.516321322473944"><ele>12.0</ele><time>2026-05-02T16:59:52.999Z</time></trkpt><trkpt lat="43.82835279575547" lon="10.51659497389032"><ele>12.0</ele><time>2026-05-02T16:59:53.999Z</time></trkpt><trkpt lat="43.828344093324965" lon="10.516857558406763"><ele>12.333333333333332</ele><time>2026-05-02T16:59:54.999Z</time></trkpt><trkpt lat="43.828336527822415" lon="10.517127369969124"><ele>12.666666666666666</ele><time>2026-05-02T16:59:55.998Z</time></trkpt><trkpt lat="43.82832716262773" lon="10.517403414750305"><ele>13.0</ele><time>2026-05-02T16:59:56.998Z</time></trkpt><trkpt lat="43.82831948496345" lon="10.51767789529741"><ele>13.0</ele><time>2026-05-02T16:59:57.998Z</time></trkpt><trkpt lat="43.828313714189505" lon="10.51796234155379"><ele>13.0</ele><time>2026-05-02T16:59:58.998Z</time></trkpt><trkpt lat="43.828310697770355" lon="10.518273590221867"><ele>13.0</ele><time>2026-05-02T16:59:59.998Z</time></trkpt><trkpt lat="43.828307866641055" lon="10.51860046314481"><ele>12.5</ele><time>2026-05-02T17:00:00.998Z</time></trkpt><trkpt lat="43.828300032048716" lon="10.51892907176262"><ele>12.0</ele><time>2026-05-02T17:00:01.998Z</time></trkpt><trkpt lat="43.8282919132573" lon="10.519247318851898"><ele>12.0</ele><time>2026-05-02T17:00:02.998Z</time></trkpt><trkpt lat="43.82828595593047" lon="10.519550006780975"><ele>12.0</ele><time>2026-05-02T17:00:03.998Z</time></trkpt><trkpt lat="43.828281217129074" lon="10.519836667690475"><ele>12.0</ele><time>2026-05-02T17:00:04.998Z</time></trkpt><trkpt lat="43.828273472244305" lon="10.520118328898493"><ele>12.5</ele><time>2026-05-02T17:00:05.998Z</time></trkpt><trkpt lat="43.828265480312275" lon="10.520428254731167"><ele>13.0</ele><time>2026-05-02T17:00:06.998Z</time></trkpt><trkpt lat="43.82825954121565" lon="10.520757731842991"><ele>13.0</ele><time>2026-05-02T17:00:07.998Z</time></trkpt><trkpt lat="43.82824999998582" lon="10.521106289914059"><ele>13.0</ele><time>2026-05-02T17:00:08.998Z</time></trkpt><trkpt lat="43.82823761893217" lon="10.521459226578909"><ele>12.5</ele><time>2026-05-02T17:00:09.998Z</time></trkpt><trkpt lat="43.828226357563906" lon="10.52180721765167"><ele>12.0</ele><time>2026-05-02T17:00:10.998Z</time></trkpt><trkpt lat="43.82821811545956" lon="10.522152608617127"><ele>11.5</ele><time>2026-05-02T17:00:11.998Z</time></trkpt><trkpt lat="43.82821057642024" lon="10.522493232715675"><ele>11.0</ele><time>2026-05-02T17:00:12.998Z</time></trkpt><trkpt lat="43.82820298097845" lon="10.52283030764229"><ele>12.0</ele><time>2026-05-02T17:00:13.998Z</time></trkpt><trkpt lat="43.8281962076278" lon="10.523163652914572"><ele>13.0</ele><time>2026-05-02T17:00:14.998Z</time></trkpt><trkpt lat="43.82818940489118" lon="10.523494841000428"><ele>12.5</ele><time>2026-05-02T17:00:15.998Z</time></trkpt><trkpt lat="43.828182574562135" lon="10.523823343093065"><ele>12.0</ele><time>2026-05-02T17:00:16.998Z</time></trkpt><trkpt lat="43.82817636368228" lon="10.524149888738984"><ele>12.0</ele><time>2026-05-02T17:00:17.998Z</time></trkpt><trkpt lat="43.8281695795798" lon="10.524466427367349"><ele>12.0</ele><time>2026-05-02T17:00:18.998Z</time></trkpt><trkpt lat="43.828162815571005" lon="10.52476433324248"><ele>12.0</ele><time>2026-05-02T17:00:19.998Z</time></trkpt><trkpt lat="43.82815387538191" lon="10.52505092634561"><ele>11.333333333333334</ele><time>2026-05-02T17:00:20.998Z</time></trkpt><trkpt lat="43.828146300751364" lon="10.525312049366924"><ele>10.666666666666668</ele><time>2026-05-02T17:00:21.998Z</time></trkpt><trkpt lat="43.82814419655722" lon="10.525533593548266"><ele>10.0</ele><time>2026-05-02T17:00:22.998Z</time></trkpt><trkpt lat="43.82814130239102" lon="10.525727019733946"><ele>9.8</ele><time>2026-05-02T17:00:23.998Z</time></trkpt><trkpt lat="43.82813953275769" lon="10.525901206054156"><ele>9.6</ele><time>2026-05-02T17:00:24.998Z</time></trkpt><trkpt lat="43.82813564762491" lon="10.526061199001564"><ele>9.4</ele><time>2026-05-02T17:00:25.998Z</time></trkpt><trkpt lat="43.82813124644142" lon="10.526198919497514"><ele>9.2</ele><time>2026-05-02T17:00:26.998Z</time></trkpt><trkpt lat="43.82812979678234" lon="10.526333382976095"><ele>9.0</ele><time>2026-05-02T17:00:27.998Z</time></trkpt><trkpt lat="43.82812848194243" lon="10.526463537766327"><ele>9.4</ele><time>2026-05-02T17:00:28.998Z</time></trkpt><trkpt lat="43.828124970270565" lon="10.526601832033855"><ele>9.8</ele><time>2026-05-02T17:00:29.998Z</time></trkpt><trkpt lat="43.82812236067066" lon="10.526746549722198"><ele>10.200000000000001</ele><time>2026-05-02T17:00:30.998Z</time></trkpt><trkpt lat="43.82811996992448" lon="10.5269024724835"><ele>10.600000000000001</ele><time>2026-05-02T17:00:31.998Z</time></trkpt><trkpt lat="43.82811721096066" lon="10.527069880040633"><ele>11.0</ele><time>2026-05-02T17:00:32.997Z</time></trkpt><trkpt lat="43.8281122141434" lon="10.527244366678968"><ele>11.0</ele><time>2026-05-02T17:00:33.997Z</time></trkpt><trkpt lat="43.828105030810896" lon="10.527425673178842"><ele>11.0</ele><time>2026-05-02T17:00:34.997Z</time></trkpt><trkpt lat="43.828094879981734" lon="10.527615697904174"><ele>11.0</ele><time>2026-05-02T17:00:35.997Z</time></trkpt><trkpt lat="43.828086985296714" lon="10.527805455929022"><ele>11.0</ele><time>2026-05-02T17:00:36.997Z</time></trkpt><trkpt lat="43.82807986309786" lon="10.527986403455618"><ele>11.200000000000001</ele><time>2026-05-02T17:00:37.997Z</time></trkpt><trkpt lat="43.82807305338464" lon="10.528145784542462"><ele>11.4</ele><time>2026-05-02T17:00:38.997Z</time></trkpt><trkpt lat="43.828067247145356" lon="10.528286083203833"><ele>11.6</ele><time>2026-05-02T17:00:39.997Z</time></trkpt><trkpt lat="43.82806265496655" lon="10.528427443090361"><ele>11.8</ele><time>2026-05-02T17:00:40.997Z</time></trkpt><trkpt lat="43.828059885573445" lon="10.528568523847408"><ele>12.0</ele><time>2026-05-02T17:00:41.997Z</time></trkpt><trkpt lat="43.82805805364023" lon="10.528706737373916"><ele>12.399999999999999</ele><time>2026-05-02T17:00:42.997Z</time></trkpt><trkpt lat="43.8280526143015" lon="10.528845350869805"><ele>12.799999999999999</ele><time>2026-05-02T17:00:44Z</time></trkpt><trkpt lat="43.828050540590844" lon="10.528988949575941"><ele>13.2</ele><time>2026-05-02T17:00:45Z</time></trkpt><trkpt lat="43.82804910563493" lon="10.529133076507254"><ele>13.6</ele><time>2026-05-02T17:00:46Z</time></trkpt><trkpt lat="43.82804589236989" lon="10.52927917422915"><ele>14.0</ele><time>2026-05-02T17:00:47Z</time></trkpt><trkpt lat="43.82804195454029" lon="10.529428694306644"><ele>14.0</ele><time>2026-05-02T17:00:48Z</time></trkpt><trkpt lat="43.82803863282095" lon="10.529581103712058"><ele>14.0</ele><time>2026-05-02T17:00:49Z</time></trkpt><trkpt lat="43.82803650136572" lon="10.529737008113461"><ele>14.0</ele><time>2026-05-02T17:00:50Z</time></trkpt><trkpt lat="43.82803433896666" lon="10.529895810042333"><ele>14.0</ele><time>2026-05-02T17:00:51Z</time></trkpt><trkpt lat="43.82803083243163" lon="10.53005269652399"><ele>14.000000000000002</ele><time>2026-05-02T17:00:52Z</time></trkpt><trkpt lat="43.82802784638575" lon="10.530193518144884"><ele>14.0</ele><time>2026-05-02T17:00:53Z</time></trkpt><trkpt lat="43.82802538580768" lon="10.530323308442663"><ele>14.0</ele><time>2026-05-02T17:00:54Z</time></trkpt><trkpt lat="43.82802373504502" lon="10.53044271340809"><ele>14.0</ele><time>2026-05-02T17:00:55Z</time></trkpt><trkpt lat="43.82801952716641" lon="10.53055266303268"><ele>14.000000000000002</ele><time>2026-05-02T17:00:56Z</time></trkpt><trkpt lat="43.82801205721102" lon="10.530674418449502"><ele>14.0</ele><time>2026-05-02T17:00:57Z</time></trkpt><trkpt lat="43.82801017294786" lon="10.530805641237"><ele>14.0</ele><time>2026-05-02T17:00:58Z</time></trkpt><trkpt lat="43.828007337181724" lon="10.530941391929263"><ele>13.999999999999998</ele><time>2026-05-02T17:00:59Z</time></trkpt><trkpt lat="43.82800385461094" lon="10.531079791974744"><ele>13.999999999999998</ele><time>2026-05-02T17:01:00Z</time></trkpt><trkpt lat="43.828001001463974" lon="10.531221889965398"><ele>14.0</ele><time>2026-05-02T17:01:01Z</time></trkpt><trkpt lat="43.82799733207765" lon="10.531368674614846"><ele>14.0</ele><time>2026-05-02T17:01:02Z</time></trkpt><trkpt lat="43.8279923510026" lon="10.531521183322562"><ele>14.0</ele><time>2026-05-02T17:01:03Z</time></trkpt><trkpt lat="43.82798770206696" lon="10.531678774783664"><ele>14.0</ele><time>2026-05-02T17:01:04Z</time></trkpt><trkpt lat="43.8279865030354" lon="10.531841023311614"><ele>14.0</ele><time>2026-05-02T17:01:05Z</time></trkpt><trkpt lat="43.827987041532126" lon="10.532007221545365"><ele>14.0</ele><time>2026-05-02T17:01:06Z</time></trkpt><trkpt lat="43.82798671975546" lon="10.532168645379084"><ele>14.0</ele><time>2026-05-02T17:01:07Z</time></trkpt><trkpt lat="43.8279843166169" lon="10.532324835455764"><ele>13.999999999999998</ele><time>2026-05-02T17:01:08Z</time></trkpt><trkpt lat="43.82797983052187" lon="10.532475823669538"><ele>13.999999999999998</ele><time>2026-05-02T17:01:09Z</time></trkpt><trkpt lat="43.8279741306358" lon="10.532623451268377"><ele>14.0</ele><time>2026-05-02T17:01:10Z</time></trkpt><trkpt lat="43.82797016345947" lon="10.532773088099841"><ele>14.0</ele><time>2026-05-02T17:01:11Z</time></trkpt><trkpt lat="43.827971581867025" lon="10.532929270187374"><ele>14.25</ele><time>2026-05-02T17:01:12Z</time></trkpt><trkpt lat="43.827977377411685" lon="10.533097828023026"><ele>14.5</ele><time>2026-05-02T17:01:13Z</time></trkpt><trkpt lat="43.82798505620295" lon="10.533277622094706"><ele>14.75</ele><time>2026-05-02T17:01:14Z</time></trkpt><trkpt lat="43.82798585988767" lon="10.533465164913084"><ele>15.0</ele><time>2026-05-02T17:01:15Z</time></trkpt><trkpt lat="43.827981471174915" lon="10.533655685850551"><ele>14.75</ele><time>2026-05-02T17:01:16Z</time></trkpt><trkpt lat="43.8279737148826" lon="10.533844274880245"><ele>14.5</ele><time>2026-05-02T17:01:17Z</time></trkpt><trkpt lat="43.827968084915916" lon="10.534034080785066"><ele>14.25</ele><time>2026-05-02T17:01:18Z</time></trkpt><trkpt lat="43.82796441393444" lon="10.534227853131908"><ele>14.0</ele><time>2026-05-02T17:01:19Z</time></trkpt><trkpt lat="43.82796037589262" lon="10.534426664216486"><ele>14.666666666666668</ele><time>2026-05-02T17:01:20Z</time></trkpt><trkpt lat="43.82795510015156" lon="10.534629776554604"><ele>15.333333333333332</ele><time>2026-05-02T17:01:21Z</time></trkpt><trkpt lat="43.82794903034922" lon="10.534836838001288"><ele>16.0</ele><time>2026-05-02T17:01:22Z</time></trkpt><trkpt lat="43.8279416957029" lon="10.535050456493792"><ele>16.0</ele><time>2026-05-02T17:01:23Z</time></trkpt><trkpt lat="43.82793535588821" lon="10.535266304877512"><ele>16.0</ele><time>2026-05-02T17:01:24Z</time></trkpt><trkpt lat="43.82792941884137" lon="10.53547824536136"><ele>16.0</ele><time>2026-05-02T17:01:25Z</time></trkpt><trkpt lat="43.82792374913706" lon="10.535689244297242"><ele>15.666666666666666</ele><time>2026-05-02T17:01:26Z</time></trkpt><trkpt lat="43.82791813659054" lon="10.53589816313012"><ele>15.333333333333332</ele><time>2026-05-02T17:01:26.999Z</time></trkpt><trkpt lat="43.82791111736419" lon="10.53611083612111"><ele>15.0</ele><time>2026-05-02T17:01:27.999Z</time></trkpt><trkpt lat="43.82790978394216" lon="10.536313195250486"><ele>15.0</ele><time>2026-05-02T17:01:28.999Z</time></trkpt><trkpt lat="43.8279090039817" lon="10.536517156228792"><ele>15.0</ele><time>2026-05-02T17:01:29.999Z</time></trkpt><trkpt lat="43.827908035062194" lon="10.536710239193809"><ele>15.0</ele><time>2026-05-02T17:01:30.999Z</time></trkpt><trkpt lat="43.82790677909802" lon="10.536896517968552"><ele>15.0</ele><time>2026-05-02T17:01:31.999Z</time></trkpt><trkpt lat="43.82790421733097" lon="10.537078723380851"><ele>14.5</ele><time>2026-05-02T17:01:32.999Z</time></trkpt><trkpt lat="43.82789871638135" lon="10.537268878800878"><ele>14.0</ele><time>2026-05-02T17:01:33.999Z</time></trkpt><trkpt lat="43.827892885805646" lon="10.537459203478372"><ele>13.5</ele><time>2026-05-02T17:01:34.999Z</time></trkpt><trkpt lat="43.827886198554616" lon="10.537650152291015"><ele>13.0</ele><time>2026-05-02T17:01:35.999Z</time></trkpt><trkpt lat="43.82788108860683" lon="10.537840747119798"><ele>13.0</ele><time>2026-05-02T17:01:36.999Z</time></trkpt><trkpt lat="43.82787660468139" lon="10.538022198443848"><ele>13.0</ele><time>2026-05-02T17:01:37.999Z</time></trkpt><trkpt lat="43.82787288481307" lon="10.538198563511612"><ele>13.0</ele><time>2026-05-02T17:01:38.999Z</time></trkpt><trkpt lat="43.82787414809601" lon="10.538376940926481"><ele>13.0</ele><time>2026-05-02T17:01:39.999Z</time></trkpt><trkpt lat="43.82788201902192" lon="10.538566133970372"><ele>13.0</ele><time>2026-05-02T17:01:40.999Z</time></trkpt><trkpt lat="43.82788095405229" lon="10.538754575886532"><ele>13.0</ele><time>2026-05-02T17:01:41.999Z</time></trkpt><trkpt lat="43.82787913835678" lon="10.538944704434739"><ele>13.0</ele><time>2026-05-02T17:01:42.999Z</time></trkpt><trkpt lat="43.8278760161414" lon="10.539130680681488"><ele>13.0</ele><time>2026-05-02T17:01:43.999Z</time></trkpt><trkpt lat="43.82787245493969" lon="10.53931640044822"><ele>13.0</ele><time>2026-05-02T17:01:44.999Z</time></trkpt><trkpt lat="43.82786856071427" lon="10.539502222745808"><ele>13.0</ele><time>2026-05-02T17:01:45.999Z</time></trkpt><trkpt lat="43.82786382053886" lon="10.539694263312077"><ele>13.0</ele><time>2026-05-02T17:01:46.999Z</time></trkpt><trkpt lat="43.8278573398573" lon="10.539894583470861"><ele>13.0</ele><time>2026-05-02T17:01:47.999Z</time></trkpt><trkpt lat="43.827850224770486" lon="10.540100883353226"><ele>13.333333333333332</ele><time>2026-05-02T17:01:48.999Z</time></trkpt><trkpt lat="43.8278420236857" lon="10.540311918362079"><ele>13.666666666666668</ele><time>2026-05-02T17:01:49.999Z</time></trkpt><trkpt lat="43.8278363967737" lon="10.540523751850076"><ele>14.0</ele><time>2026-05-02T17:01:50.999Z</time></trkpt><trkpt lat="43.827830719036655" lon="10.540736309745034"><ele>14.333333333333334</ele><time>2026-05-02T17:01:51.999Z</time></trkpt><trkpt lat="43.827826494286775" lon="10.540951545029952"><ele>14.666666666666668</ele><time>2026-05-02T17:01:52.999Z</time></trkpt><trkpt lat="43.82782310223608" lon="10.54117180512061"><ele>15.0</ele><time>2026-05-02T17:01:53.999Z</time></trkpt><trkpt lat="43.82782148385863" lon="10.54139442163546"><ele>15.0</ele><time>2026-05-02T17:01:54.999Z</time></trkpt><trkpt lat="43.827819603468065" lon="10.54162183471426"><ele>15.0</ele><time>2026-05-02T17:01:55.999Z</time></trkpt><trkpt lat="43.82781565783034" lon="10.541855247919862"><ele>15.0</ele><time>2026-05-02T17:01:56.999Z</time></trkpt><trkpt lat="43.82781126600596" lon="10.54208947561292"><ele>15.0</ele><time>2026-05-02T17:01:57.999Z</time></trkpt><trkpt lat="43.82780733693329" lon="10.542331314970054"><ele>15.0</ele><time>2026-05-02T17:01:58.999Z</time></trkpt><trkpt lat="43.82780155945806" lon="10.542576610181111"><ele>15.0</ele><time>2026-05-02T17:01:59.999Z</time></trkpt><trkpt lat="43.82779409385033" lon="10.542824273319715"><ele>15.666666666666668</ele><time>2026-05-02T17:02:00.999Z</time></trkpt><trkpt lat="43.82778791877027" lon="10.543072836114026"><ele>16.333333333333336</ele><time>2026-05-02T17:02:01.999Z</time></trkpt><trkpt lat="43.82778409640938" lon="10.543326970951796"><ele>17.0</ele><time>2026-05-02T17:02:02.999Z</time></trkpt><trkpt lat="43.8277778608691" lon="10.543583807821824"><ele>16.0</ele><time>2026-05-02T17:02:03.998Z</time></trkpt><trkpt lat="43.82777256022633" lon="10.543844636294018"><ele>15.0</ele><time>2026-05-02T17:02:04.998Z</time></trkpt><trkpt lat="43.82776532940115" lon="10.544111545549441"><ele>14.0</ele><time>2026-05-02T17:02:05.998Z</time></trkpt><trkpt lat="43.827758151674644" lon="10.54438063373447"><ele>13.666666666666668</ele><time>2026-05-02T17:02:06.998Z</time></trkpt><trkpt lat="43.82775288775862" lon="10.544650127009728"><ele>13.333333333333332</ele><time>2026-05-02T17:02:07.998Z</time></trkpt><trkpt lat="43.82774885994766" lon="10.54491720475417"><ele>13.0</ele><time>2026-05-02T17:02:08.998Z</time></trkpt><trkpt lat="43.8277436241985" lon="10.545187311089125"><ele>13.0</ele><time>2026-05-02T17:02:09.998Z</time></trkpt><trkpt lat="43.82773764234708" lon="10.545457098581037"><ele>13.0</ele><time>2026-05-02T17:02:10.998Z</time></trkpt><trkpt lat="43.82773173530382" lon="10.545725562366487"><ele>13.0</ele><time>2026-05-02T17:02:11.998Z</time></trkpt><trkpt lat="43.82772623078141" lon="10.545993627582085"><ele>13.333333333333332</ele><time>2026-05-02T17:02:12.998Z</time></trkpt><trkpt lat="43.82771979249924" lon="10.546250798386847"><ele>13.666666666666668</ele><time>2026-05-02T17:02:13.998Z</time></trkpt><trkpt lat="43.82771331055801" lon="10.546492789096376"><ele>14.0</ele><time>2026-05-02T17:02:14.998Z</time></trkpt><trkpt lat="43.827707772952856" lon="10.546715991051084"><ele>14.0</ele><time>2026-05-02T17:02:15.998Z</time></trkpt><trkpt lat="43.827699595662615" lon="10.546926006828173"><ele>14.0</ele><time>2026-05-02T17:02:16.998Z</time></trkpt><trkpt lat="43.8276956850171" lon="10.547127916981564"><ele>14.0</ele><time>2026-05-02T17:02:17.998Z</time></trkpt><trkpt lat="43.82769271200578" lon="10.547326432151317"><ele>14.0</ele><time>2026-05-02T17:02:18.998Z</time></trkpt><trkpt lat="43.82769186685824" lon="10.54752163736097"><ele>13.75</ele><time>2026-05-02T17:02:19.998Z</time></trkpt><trkpt lat="43.82768819772447" lon="10.547714401947335"><ele>13.5</ele><time>2026-05-02T17:02:20.998Z</time></trkpt><trkpt lat="43.82768128762469" lon="10.547902961580748"><ele>13.25</ele><time>2026-05-02T17:02:21.998Z</time></trkpt><trkpt lat="43.82767582131946" lon="10.548088172536577"><ele>13.0</ele><time>2026-05-02T17:02:22.998Z</time></trkpt><trkpt lat="43.827671122474484" lon="10.548275537706148"><ele>12.5</ele><time>2026-05-02T17:02:23.998Z</time></trkpt><trkpt lat="43.827667064791356" lon="10.548468503281182"><ele>12.0</ele><time>2026-05-02T17:02:24.998Z</time></trkpt><trkpt lat="43.82766176504201" lon="10.548663431548595"><ele>11.5</ele><time>2026-05-02T17:02:25.998Z</time></trkpt><trkpt lat="43.827657419443625" lon="10.54885989021808"><ele>11.0</ele><time>2026-05-02T17:02:26.998Z</time></trkpt><trkpt lat="43.827653271249844" lon="10.549057348348375"><ele>11.0</ele><time>2026-05-02T17:02:27.998Z</time></trkpt><trkpt lat="43.827649780320414" lon="10.54925061333347"><ele>11.0</ele><time>2026-05-02T17:02:28.998Z</time></trkpt><trkpt lat="43.82764630109897" lon="10.549443435883795"><ele>11.0</ele><time>2026-05-02T17:02:29.998Z</time></trkpt><trkpt lat="43.827640773308346" lon="10.549637674754232"><ele>11.0</ele><time>2026-05-02T17:02:30.998Z</time></trkpt><trkpt lat="43.8276334792121" lon="10.5498354851295"><ele>11.333333333333332</ele><time>2026-05-02T17:02:31.998Z</time></trkpt><trkpt lat="43.827627216571166" lon="10.550039546105987"><ele>11.666666666666666</ele><time>2026-05-02T17:02:32.998Z</time></trkpt><trkpt lat="43.827622870414075" lon="10.550251355870323"><ele>12.0</ele><time>2026-05-02T17:02:33.998Z</time></trkpt><trkpt lat="43.827619036697165" lon="10.550471607977654"><ele>12.333333333333332</ele><time>2026-05-02T17:02:34.998Z</time></trkpt><trkpt lat="43.827614265369924" lon="10.550698562274889"><ele>12.666666666666666</ele><time>2026-05-02T17:02:35.998Z</time></trkpt><trkpt lat="43.82761012251763" lon="10.550945648173897"><ele>13.0</ele><time>2026-05-02T17:02:36.998Z</time></trkpt><trkpt lat="43.82760434724172" lon="10.551212158457112"><ele>13.0</ele><time>2026-05-02T17:02:37.998Z</time></trkpt><trkpt lat="43.82759398070559" lon="10.551497615387946"><ele>13.0</ele><time>2026-05-02T17:02:38.998Z</time></trkpt><trkpt lat="43.827583792437565" lon="10.551787005909405"><ele>13.0</ele><time>2026-05-02T17:02:39.998Z</time></trkpt><trkpt lat="43.827577843178304" lon="10.552091388340541"><ele>12.5</ele><time>2026-05-02T17:02:40.997Z</time></trkpt><trkpt lat="43.82756697719616" lon="10.552408984081724"><ele>12.0</ele><time>2026-05-02T17:02:41.997Z</time></trkpt><trkpt lat="43.827544149661726" lon="10.552724141878672"><ele>11.5</ele><time>2026-05-02T17:02:42.997Z</time></trkpt><trkpt lat="43.82751143724087" lon="10.553036358346505"><ele>11.0</ele><time>2026-05-02T17:02:43.997Z</time></trkpt><trkpt lat="43.827478360218926" lon="10.553341214305531"><ele>11.0</ele><time>2026-05-02T17:02:44.997Z</time></trkpt><trkpt lat="43.82745383129896" lon="10.553644902623452"><ele>11.0</ele><time>2026-05-02T17:02:45.997Z</time></trkpt><trkpt lat="43.8274296903188" lon="10.553949380911188"><ele>11.0</ele><time>2026-05-02T17:02:46.997Z</time></trkpt><trkpt lat="43.82740608459529" lon="10.554245448321046"><ele>11.333333333333332</ele><time>2026-05-02T17:02:47.997Z</time></trkpt><trkpt lat="43.827385573882545" lon="10.554522187928992"><ele>11.666666666666666</ele><time>2026-05-02T17:02:48.997Z</time></trkpt><trkpt lat="43.82736041428808" lon="10.554785473878578"><ele>12.0</ele><time>2026-05-02T17:02:50Z</time></trkpt><trkpt lat="43.82733158636883" lon="10.555043796897765"><ele>12.333333333333332</ele><time>2026-05-02T17:02:51Z</time></trkpt><trkpt lat="43.82730403845943" lon="10.555300532006472"><ele>12.666666666666666</ele><time>2026-05-02T17:02:52Z</time></trkpt><trkpt lat="43.82727696505369" lon="10.55557480438555"><ele>13.0</ele><time>2026-05-02T17:02:53Z</time></trkpt><trkpt lat="43.82725423916067" lon="10.555851773778311"><ele>13.333333333333332</ele><time>2026-05-02T17:02:54Z</time></trkpt><trkpt lat="43.827226172550496" lon="10.556122696840115"><ele>13.666666666666668</ele><time>2026-05-02T17:02:55Z</time></trkpt><trkpt lat="43.827189051826046" lon="10.556394811186179"><ele>14.0</ele><time>2026-05-02T17:02:56Z</time></trkpt><trkpt lat="43.82714913425558" lon="10.556684225608116"><ele>14.0</ele><time>2026-05-02T17:02:57Z</time></trkpt><trkpt lat="43.82712977545408" lon="10.556989171794509"><ele>14.0</ele><time>2026-05-02T17:02:58Z</time></trkpt><trkpt lat="43.82709771899128" lon="10.557301958164896"><ele>14.0</ele><time>2026-05-02T17:02:59Z</time></trkpt><trkpt lat="43.827053231692666" lon="10.557597956001864"><ele>13.666666666666668</ele><time>2026-05-02T17:03:00Z</time></trkpt><trkpt lat="43.827018972800104" lon="10.557881264505502"><ele>13.333333333333332</ele><time>2026-05-02T17:03:01Z</time></trkpt><trkpt lat="43.82699147837204" lon="10.558151014614854"><ele>13.0</ele><time>2026-05-02T17:03:02Z</time></trkpt><trkpt lat="43.8269612282394" lon="10.558413042443059"><ele>13.0</ele><time>2026-05-02T17:03:03Z</time></trkpt><trkpt lat="43.826932254424015" lon="10.558665487883118"><ele>13.0</ele><time>2026-05-02T17:03:04Z</time></trkpt><trkpt lat="43.82690523958225" lon="10.558909817227423"><ele>13.0</ele><time>2026-05-02T17:03:05Z</time></trkpt><trkpt lat="43.82687765554527" lon="10.559155666745001"><ele>12.666666666666666</ele><time>2026-05-02T17:03:06Z</time></trkpt><trkpt lat="43.82684927131646" lon="10.559399500795775"><ele>12.333333333333332</ele><time>2026-05-02T17:03:07Z</time></trkpt><trkpt lat="43.826820424320246" lon="10.559630948645664"><ele>12.0</ele><time>2026-05-02T17:03:08Z</time></trkpt><trkpt lat="43.82677809535175" lon="10.559865345324196"><ele>12.0</ele><time>2026-05-02T17:03:09Z</time></trkpt><trkpt lat="43.82672483510697" lon="10.560109787353676"><ele>12.0</ele><time>2026-05-02T17:03:10Z</time></trkpt><trkpt lat="43.82668905882484" lon="10.560389465375783"><ele>12.0</ele><time>2026-05-02T17:03:11Z</time></trkpt><trkpt lat="43.826656143185716" lon="10.560686053928634"><ele>12.0</ele><time>2026-05-02T17:03:12Z</time></trkpt><trkpt lat="43.826623906445654" lon="10.560990715332187"><ele>12.0</ele><time>2026-05-02T17:03:13Z</time></trkpt><trkpt lat="43.826592881011756" lon="10.561298740467699"><ele>12.0</ele><time>2026-05-02T17:03:14Z</time></trkpt><trkpt lat="43.82655718036199" lon="10.561600684198568"><ele>12.0</ele><time>2026-05-02T17:03:15Z</time></trkpt><trkpt lat="43.82652169803289" lon="10.561895922252415"><ele>12.0</ele><time>2026-05-02T17:03:16Z</time></trkpt><trkpt lat="43.8264872077859" lon="10.562188525590072"><ele>12.0</ele><time>2026-05-02T17:03:17Z</time></trkpt><trkpt lat="43.826454287589236" lon="10.562479343727194"><ele>12.0</ele><time>2026-05-02T17:03:18Z</time></trkpt><trkpt lat="43.826422673078184" lon="10.562766963227132"><ele>12.0</ele><time>2026-05-02T17:03:19Z</time></trkpt><trkpt lat="43.826390213436476" lon="10.563051495349036"><ele>12.0</ele><time>2026-05-02T17:03:20Z</time></trkpt><trkpt lat="43.82635706932537" lon="10.563333447596765"><ele>12.0</ele><time>2026-05-02T17:03:21Z</time></trkpt><trkpt lat="43.826324568049756" lon="10.563612954410827"><ele>12.0</ele><time>2026-05-02T17:03:22Z</time></trkpt><trkpt lat="43.826292602417304" lon="10.563891519267514"><ele>12.0</ele><time>2026-05-02T17:03:23Z</time></trkpt><trkpt lat="43.8262617986551" lon="10.564170341536139"><ele>12.0</ele><time>2026-05-02T17:03:24Z</time></trkpt><trkpt lat="43.82622968822317" lon="10.564448763487592"><ele>12.0</ele><time>2026-05-02T17:03:25Z</time></trkpt><trkpt lat="43.82619631982029" lon="10.564727494193399"><ele>12.0</ele><time>2026-05-02T17:03:26Z</time></trkpt><trkpt lat="43.82616375107855" lon="10.564995256114342"><ele>12.0</ele><time>2026-05-02T17:03:27Z</time></trkpt><trkpt lat="43.82613628606264" lon="10.56523626964006"><ele>12.0</ele><time>2026-05-02T17:03:28Z</time></trkpt><trkpt lat="43.826110007348646" lon="10.565465797163814"><ele>12.0</ele><time>2026-05-02T17:03:29Z</time></trkpt><trkpt lat="43.82608470210235" lon="10.565691209747524"><ele>11.666666666666666</ele><time>2026-05-02T17:03:30Z</time></trkpt><trkpt lat="43.826053843130744" lon="10.56593688191727"><ele>11.333333333333332</ele><time>2026-05-02T17:03:31Z</time></trkpt><trkpt lat="43.82602260963924" lon="10.566191186878985"><ele>11.0</ele><time>2026-05-02T17:03:32Z</time></trkpt><trkpt lat="43.82599423272968" lon="10.566462909241821"><ele>11.333333333333332</ele><time>2026-05-02T17:03:33Z</time></trkpt><trkpt lat="43.82597161243605" lon="10.56675828428115"><ele>11.666666666666666</ele><time>2026-05-02T17:03:34Z</time></trkpt><trkpt lat="43.82594286554083" lon="10.567049790236892"><ele>12.0</ele><time>2026-05-02T17:03:35Z</time></trkpt><trkpt lat="43.825907751884344" lon="10.567334757591237"><ele>12.0</ele><time>2026-05-02T17:03:36Z</time></trkpt><trkpt lat="43.82587059064355" lon="10.567617840984193"><ele>12.0</ele><time>2026-05-02T17:03:36.999Z</time></trkpt><trkpt lat="43.82583616243895" lon="10.567902662199693"><ele>12.0</ele><time>2026-05-02T17:03:37.999Z</time></trkpt><trkpt lat="43.825803098708136" lon="10.568190451212445"><ele>12.0</ele><time>2026-05-02T17:03:38.999Z</time></trkpt><trkpt lat="43.82577050137182" lon="10.568477556675825"><ele>12.0</ele><time>2026-05-02T17:03:39.999Z</time></trkpt><trkpt lat="43.825737419433096" lon="10.568767259377015"><ele>12.0</ele><time>2026-05-02T17:03:40.999Z</time></trkpt><trkpt lat="43.82570302694692" lon="10.569060984593511"><ele>12.0</ele><time>2026-05-02T17:03:41.999Z</time></trkpt><trkpt lat="43.82566834220268" lon="10.569352495945338"><ele>12.0</ele><time>2026-05-02T17:03:42.999Z</time></trkpt><trkpt lat="43.82563291599604" lon="10.569646334649573"><ele>12.0</ele><time>2026-05-02T17:03:43.999Z</time></trkpt><trkpt lat="43.82559959600669" lon="10.569940958848042"><ele>11.666666666666666</ele><time>2026-05-02T17:03:44.999Z</time></trkpt><trkpt lat="43.82556705676104" lon="10.570236842444531"><ele>11.333333333333332</ele><time>2026-05-02T17:03:45.999Z</time></trkpt><trkpt lat="43.825534011601086" lon="10.570534451164596"><ele>11.0</ele><time>2026-05-02T17:03:46.999Z</time></trkpt><trkpt lat="43.825498705533214" lon="10.57083401985718"><ele>11.0</ele><time>2026-05-02T17:03:47.999Z</time></trkpt><trkpt lat="43.82546192519785" lon="10.571131914143784"><ele>11.0</ele><time>2026-05-02T17:03:48.999Z</time></trkpt><trkpt lat="43.825426436955034" lon="10.571433931051251"><ele>11.0</ele><time>2026-05-02T17:03:49.999Z</time></trkpt><trkpt lat="43.825392707205005" lon="10.571730907960196"><ele>11.0</ele><time>2026-05-02T17:03:50.999Z</time></trkpt><trkpt lat="43.82535949970332" lon="10.572026077306191"><ele>11.0</ele><time>2026-05-02T17:03:51.999Z</time></trkpt><trkpt lat="43.82532447485973" lon="10.572324043463475"><ele>11.0</ele><time>2026-05-02T17:03:52.999Z</time></trkpt><trkpt lat="43.8252930412569" lon="10.57262199977591"><ele>11.0</ele><time>2026-05-02T17:03:53.999Z</time></trkpt><trkpt lat="43.825263765492" lon="10.57292232478633"><ele>11.0</ele><time>2026-05-02T17:03:54.999Z</time></trkpt><trkpt lat="43.82523202599157" lon="10.573218557742726"><ele>11.0</ele><time>2026-05-02T17:03:55.999Z</time></trkpt><trkpt lat="43.82519743259407" lon="10.57350891129175"><ele>10.666666666666666</ele><time>2026-05-02T17:03:56.999Z</time></trkpt><trkpt lat="43.82516276739456" lon="10.573800662806581"><ele>10.333333333333334</ele><time>2026-05-02T17:03:57.999Z</time></trkpt><trkpt lat="43.825126757849546" lon="10.574096086118244"><ele>10.0</ele><time>2026-05-02T17:03:58.999Z</time></trkpt><trkpt lat="43.82508825620785" lon="10.57439730887878"><ele>9.5</ele><time>2026-05-02T17:03:59.999Z</time></trkpt><trkpt lat="43.82505239587562" lon="10.574705553717612"><ele>9.0</ele><time>2026-05-02T17:04:00.999Z</time></trkpt><trkpt lat="43.825024186135465" lon="10.575018284907264"><ele>9.0</ele><time>2026-05-02T17:04:01.999Z</time></trkpt><trkpt lat="43.824996235563596" lon="10.575336353461715"><ele>9.0</ele><time>2026-05-02T17:04:02.999Z</time></trkpt><trkpt lat="43.824961642529246" lon="10.575652185784339"><ele>10.0</ele><time>2026-05-02T17:04:03.999Z</time></trkpt><trkpt lat="43.82492622973752" lon="10.575966798882018"><ele>11.0</ele><time>2026-05-02T17:04:04.999Z</time></trkpt><trkpt lat="43.82488968162007" lon="10.576289469992595"><ele>11.5</ele><time>2026-05-02T17:04:05.999Z</time></trkpt><trkpt lat="43.82485198317968" lon="10.5766148070171"><ele>12.0</ele><time>2026-05-02T17:04:06.999Z</time></trkpt><trkpt lat="43.82481378949326" lon="10.576941102014452"><ele>12.0</ele><time>2026-05-02T17:04:07.999Z</time></trkpt><trkpt lat="43.82477549973403" lon="10.577270116198493"><ele>12.0</ele><time>2026-05-02T17:04:08.999Z</time></trkpt><trkpt lat="43.82473644019273" lon="10.577606341393262"><ele>11.0</ele><time>2026-05-02T17:04:09.999Z</time></trkpt><trkpt lat="43.82469788577238" lon="10.577942865835237"><ele>10.0</ele><time>2026-05-02T17:04:10.999Z</time></trkpt><trkpt lat="43.82465969350205" lon="10.578282331547602"><ele>10.0</ele><time>2026-05-02T17:04:11.999Z</time></trkpt><trkpt lat="43.82462204401208" lon="10.578620895046479"><ele>10.0</ele><time>2026-05-02T17:04:12.999Z</time></trkpt><trkpt lat="43.82458503113753" lon="10.578962353451486"><ele>9.5</ele><time>2026-05-02T17:04:13.998Z</time></trkpt><trkpt lat="43.8245494547579" lon="10.579303880866462"><ele>9.0</ele><time>2026-05-02T17:04:14.998Z</time></trkpt><trkpt lat="43.8245137916098" lon="10.579647137375023"><ele>9.0</ele><time>2026-05-02T17:04:15.998Z</time></trkpt><trkpt lat="43.824476328729425" lon="10.579992519687526"><ele>9.0</ele><time>2026-05-02T17:04:16.998Z</time></trkpt><trkpt lat="43.82443829256239" lon="10.580333435560071"><ele>10.0</ele><time>2026-05-02T17:04:17.998Z</time></trkpt><trkpt lat="43.824402185733206" lon="10.58067576329325"><ele>11.0</ele><time>2026-05-02T17:04:18.998Z</time></trkpt><trkpt lat="43.82436558452155" lon="10.581014281243123"><ele>12.0</ele><time>2026-05-02T17:04:19.998Z</time></trkpt><trkpt lat="43.8243225496007" lon="10.581342052993252"><ele>13.0</ele><time>2026-05-02T17:04:20.998Z</time></trkpt><trkpt lat="43.824273946479714" lon="10.5816599839699"><ele>13.0</ele><time>2026-05-02T17:04:21.998Z</time></trkpt><trkpt lat="43.824227516989055" lon="10.58197887992849"><ele>13.0</ele><time>2026-05-02T17:04:22.998Z</time></trkpt><trkpt lat="43.82418735842965" lon="10.582292207524317"><ele>12.333333333333332</ele><time>2026-05-02T17:04:23.998Z</time></trkpt><trkpt lat="43.82414965263318" lon="10.582601856836781"><ele>11.666666666666666</ele><time>2026-05-02T17:04:24.998Z</time></trkpt><trkpt lat="43.824115576601706" lon="10.582897759884169"><ele>11.0</ele><time>2026-05-02T17:04:25.998Z</time></trkpt><trkpt lat="43.82408508843999" lon="10.583181440804212"><ele>11.0</ele><time>2026-05-02T17:04:26.998Z</time></trkpt><trkpt lat="43.824055375995485" lon="10.58345370945617"><ele>11.0</ele><time>2026-05-02T17:04:27.998Z</time></trkpt><trkpt lat="43.82402739923301" lon="10.583701455417787"><ele>11.0</ele><time>2026-05-02T17:04:28.998Z</time></trkpt><trkpt lat="43.82400121232152" lon="10.58393366342656"><ele>11.0</ele><time>2026-05-02T17:04:29.998Z</time></trkpt><trkpt lat="43.82397492516333" lon="10.58416403474789"><ele>11.0</ele><time>2026-05-02T17:04:30.998Z</time></trkpt><trkpt lat="43.82394828564664" lon="10.584386398090643"><ele>11.0</ele><time>2026-05-02T17:04:31.998Z</time></trkpt><trkpt lat="43.82392158855901" lon="10.584609814331191"><ele>11.333333333333332</ele><time>2026-05-02T17:04:32.998Z</time></trkpt><trkpt lat="43.8238958084648" lon="10.58482955781551"><ele>11.666666666666666</ele><time>2026-05-02T17:04:33.998Z</time></trkpt><trkpt lat="43.82387129880799" lon="10.58504425768925"><ele>12.0</ele><time>2026-05-02T17:04:34.998Z</time></trkpt><trkpt lat="43.82384692481304" lon="10.585257001799686"><ele>12.666666666666668</ele><time>2026-05-02T17:04:35.998Z</time></trkpt><trkpt lat="43.82382292382275" lon="10.585478601570228"><ele>13.333333333333334</ele><time>2026-05-02T17:04:36.998Z</time></trkpt><trkpt lat="43.823798823640644" lon="10.585703993540598"><ele>14.0</ele><time>2026-05-02T17:04:37.998Z</time></trkpt><trkpt lat="43.82377353677289" lon="10.585932495498273"><ele>14.0</ele><time>2026-05-02T17:04:38.998Z</time></trkpt><trkpt lat="43.82374591548367" lon="10.586167911714197"><ele>14.0</ele><time>2026-05-02T17:04:39.998Z</time></trkpt><trkpt lat="43.82371968668302" lon="10.586404006619151"><ele>14.0</ele><time>2026-05-02T17:04:40.998Z</time></trkpt><trkpt lat="43.82369186254187" lon="10.586643435251748"><ele>14.0</ele><time>2026-05-02T17:04:41.998Z</time></trkpt><trkpt lat="43.823660799595224" lon="10.586885189504505"><ele>14.0</ele><time>2026-05-02T17:04:42.998Z</time></trkpt><trkpt lat="43.82362822761116" lon="10.587132770815204"><ele>14.0</ele><time>2026-05-02T17:04:43.998Z</time></trkpt><trkpt lat="43.8235976218654" lon="10.58737987209461"><ele>13.0</ele><time>2026-05-02T17:04:44.998Z</time></trkpt><trkpt lat="43.82356303033323" lon="10.587637527041412"><ele>12.0</ele><time>2026-05-02T17:04:45.998Z</time></trkpt><trkpt lat="43.823534920903484" lon="10.58789702686963"><ele>11.0</ele><time>2026-05-02T17:04:46.998Z</time></trkpt><trkpt lat="43.82351263946458" lon="10.588148626443434"><ele>10.333333333333332</ele><time>2026-05-02T17:04:47.998Z</time></trkpt><trkpt lat="43.82348429631734" lon="10.588401058344541"><ele>9.666666666666666</ele><time>2026-05-02T17:04:48.998Z</time></trkpt><trkpt lat="43.82345880301492" lon="10.588639242499129"><ele>9.0</ele><time>2026-05-02T17:04:49.997Z</time></trkpt><trkpt lat="43.823433454452925" lon="10.588874205643064"><ele>9.0</ele><time>2026-05-02T17:04:50.997Z</time></trkpt><trkpt lat="43.82340600635911" lon="10.589115257229373"><ele>9.0</ele><time>2026-05-02T17:04:51.997Z</time></trkpt><trkpt lat="43.82337885036326" lon="10.589362582248432"><ele>9.0</ele><time>2026-05-02T17:04:52.997Z</time></trkpt><trkpt lat="43.823352672196556" lon="10.589608760710663"><ele>8.666666666666666</ele><time>2026-05-02T17:04:53.997Z</time></trkpt><trkpt lat="43.8233257831039" lon="10.589845106666283"><ele>8.333333333333332</ele><time>2026-05-02T17:04:54.997Z</time></trkpt><trkpt lat="43.82329562015666" lon="10.590076393545603"><ele>8.0</ele><time>2026-05-02T17:04:56.001Z</time></trkpt><trkpt lat="43.823260836336736" lon="10.590318906506218"><ele>8.333333333333332</ele><time>2026-05-02T17:04:57.001Z</time></trkpt><trkpt lat="43.82323223061101" lon="10.590578136265748"><ele>8.666666666666666</ele><time>2026-05-02T17:04:58Z</time></trkpt><trkpt lat="43.82320508020586" lon="10.590833807516486"><ele>9.0</ele><time>2026-05-02T17:04:59.001Z</time></trkpt><trkpt lat="43.823177679370716" lon="10.591077930875679"><ele>9.333333333333334</ele><time>2026-05-02T17:05:00.001Z</time></trkpt><trkpt lat="43.823149568624046" lon="10.591307324881205"><ele>9.666666666666668</ele><time>2026-05-02T17:05:01Z</time></trkpt><trkpt lat="43.823123628627926" lon="10.591527612215923"><ele>10.0</ele><time>2026-05-02T17:05:02.001Z</time></trkpt><trkpt lat="43.823101071623384" lon="10.59174263027004"><ele>10.0</ele><time>2026-05-02T17:05:03.001Z</time></trkpt><trkpt lat="43.82308019877171" lon="10.591960126103814"><ele>10.0</ele><time>2026-05-02T17:05:04Z</time></trkpt><trkpt lat="43.823056423671396" lon="10.592175846327047"><ele>10.0</ele><time>2026-05-02T17:05:05.001Z</time></trkpt><trkpt lat="43.823032061850725" lon="10.59238741390024"><ele>9.333333333333334</ele><time>2026-05-02T17:05:06.001Z</time></trkpt><trkpt lat="43.82300679238352" lon="10.59259985408932"><ele>8.666666666666666</ele><time>2026-05-02T17:05:07Z</time></trkpt><trkpt lat="43.822982156501595" lon="10.592812591114091"><ele>8.0</ele><time>2026-05-02T17:05:08.001Z</time></trkpt><trkpt lat="43.82295801572671" lon="10.593027174940325"><ele>8.0</ele><time>2026-05-02T17:05:09.001Z</time></trkpt><trkpt lat="43.82293552301699" lon="10.593242623948296"><ele>8.0</ele><time>2026-05-02T17:05:10Z</time></trkpt><trkpt lat="43.822910585872734" lon="10.593459924265108"><ele>8.0</ele><time>2026-05-02T17:05:11Z</time></trkpt><trkpt lat="43.82288105683709" lon="10.593679020139154"><ele>8.666666666666666</ele><time>2026-05-02T17:05:12Z</time></trkpt><trkpt lat="43.8228542753021" lon="10.59389730596937"><ele>9.333333333333334</ele><time>2026-05-02T17:05:13Z</time></trkpt><trkpt lat="43.82283559355528" lon="10.594117075955129"><ele>10.0</ele><time>2026-05-02T17:05:14Z</time></trkpt><trkpt lat="43.822813951543566" lon="10.594341839565754"><ele>9.333333333333334</ele><time>2026-05-02T17:05:15Z</time></trkpt><trkpt lat="43.82278782581533" lon="10.5945654799323"><ele>8.666666666666666</ele><time>2026-05-02T17:05:16Z</time></trkpt><trkpt lat="43.82275823634216" lon="10.594790208557615"><ele>8.0</ele><time>2026-05-02T17:05:17Z</time></trkpt><trkpt lat="43.822727697619236" lon="10.595021948710265"><ele>8.0</ele><time>2026-05-02T17:05:18Z</time></trkpt><trkpt lat="43.8226976456614" lon="10.59525884317916"><ele>8.0</ele><time>2026-05-02T17:05:19Z</time></trkpt><trkpt lat="43.82267170752345" lon="10.595493112051829"><ele>8.0</ele><time>2026-05-02T17:05:20Z</time></trkpt><trkpt lat="43.822644274711536" lon="10.595728019000656"><ele>8.0</ele><time>2026-05-02T17:05:21Z</time></trkpt><trkpt lat="43.822615756279404" lon="10.595963813479349"><ele>8.0</ele><time>2026-05-02T17:05:22Z</time></trkpt><trkpt lat="43.82258693301684" lon="10.596196913516776"><ele>8.0</ele><time>2026-05-02T17:05:23Z</time></trkpt><trkpt lat="43.82255905371926" lon="10.59642701769935"><ele>8.0</ele><time>2026-05-02T17:05:24Z</time></trkpt><trkpt lat="43.8225356191747" lon="10.596655999500395"><ele>8.0</ele><time>2026-05-02T17:05:25Z</time></trkpt><trkpt lat="43.82251045238671" lon="10.596891858580962"><ele>8.0</ele><time>2026-05-02T17:05:26Z</time></trkpt><trkpt lat="43.82248347325942" lon="10.597130126150269"><ele>8.0</ele><time>2026-05-02T17:05:27Z</time></trkpt><trkpt lat="43.82245732461079" lon="10.5973698046023"><ele>8.0</ele><time>2026-05-02T17:05:28Z</time></trkpt><trkpt lat="43.82243145076448" lon="10.597607482149176"><ele>8.0</ele><time>2026-05-02T17:05:29Z</time></trkpt><trkpt lat="43.82240625229279" lon="10.597848508021597"><ele>9.0</ele><time>2026-05-02T17:05:30Z</time></trkpt><trkpt lat="43.82237820530252" lon="10.598090186712973"><ele>10.0</ele><time>2026-05-02T17:05:31Z</time></trkpt><trkpt lat="43.82234968493102" lon="10.598333742579493"><ele>11.0</ele><time>2026-05-02T17:05:32Z</time></trkpt><trkpt lat="43.82232636115557" lon="10.598574361470021"><ele>11.0</ele><time>2026-05-02T17:05:33Z</time></trkpt><trkpt lat="43.82230355271274" lon="10.598812921683011"><ele>11.0</ele><time>2026-05-02T17:05:34Z</time></trkpt><trkpt lat="43.82227901255059" lon="10.599052052426215"><ele>11.0</ele><time>2026-05-02T17:05:35Z</time></trkpt><trkpt lat="43.822252762616245" lon="10.599293910386958"><ele>11.0</ele><time>2026-05-02T17:05:36Z</time></trkpt><trkpt lat="43.8222133975172" lon="10.599559528069806"><ele>11.0</ele><time>2026-05-02T17:05:37Z</time></trkpt><trkpt lat="43.822184250777504" lon="10.599805122165519"><ele>11.0</ele><time>2026-05-02T17:05:38Z</time></trkpt><trkpt lat="43.822154421487106" lon="10.600048008320284"><ele>11.0</ele><time>2026-05-02T17:05:39Z</time></trkpt><trkpt lat="43.822122866695175" lon="10.600292711689908"><ele>11.0</ele><time>2026-05-02T17:05:40Z</time></trkpt><trkpt lat="43.82209379440132" lon="10.600533875169738"><ele>11.0</ele><time>2026-05-02T17:05:41Z</time></trkpt><trkpt lat="43.82206999313786" lon="10.600773715634272"><ele>11.0</ele><time>2026-05-02T17:05:42Z</time></trkpt><trkpt lat="43.82204230487327" lon="10.60102010128478"><ele>11.0</ele><time>2026-05-02T17:05:43Z</time></trkpt><trkpt lat="43.82201304591019" lon="10.601263350080151"><ele>11.0</ele><time>2026-05-02T17:05:44Z</time></trkpt><trkpt lat="43.82198403120801" lon="10.601514769460547"><ele>11.0</ele><time>2026-05-02T17:05:45Z</time></trkpt><trkpt lat="43.82195618795944" lon="10.601767013569544"><ele>11.0</ele><time>2026-05-02T17:05:46Z</time></trkpt><trkpt lat="43.821926971318106" lon="10.602025348190029"><ele>11.0</ele><time>2026-05-02T17:05:46.999Z</time></trkpt><trkpt lat="43.82189837190449" lon="10.602282474099773"><ele>10.333333333333332</ele><time>2026-05-02T17:05:47.999Z</time></trkpt><trkpt lat="43.821871757733454" lon="10.602542101222673"><ele>9.666666666666666</ele><time>2026-05-02T17:05:48.999Z</time></trkpt><trkpt lat="43.82184633794455" lon="10.602805001825468"><ele>9.0</ele><time>2026-05-02T17:05:49.999Z</time></trkpt><trkpt lat="43.821820565529904" lon="10.603070542057067"><ele>8.666666666666666</ele><time>2026-05-02T17:05:50.999Z</time></trkpt><trkpt lat="43.821793472790745" lon="10.603341037186423"><ele>8.333333333333332</ele><time>2026-05-02T17:05:51.999Z</time></trkpt><trkpt lat="43.8217658231599" lon="10.603611357933909"><ele>8.0</ele><time>2026-05-02T17:05:52.999Z</time></trkpt><trkpt lat="43.821739757389985" lon="10.603885797551525"><ele>9.333333333333332</ele><time>2026-05-02T17:05:53.999Z</time></trkpt><trkpt lat="43.82171158045913" lon="10.604162486246993"><ele>10.666666666666666</ele><time>2026-05-02T17:05:54.999Z</time></trkpt><trkpt lat="43.821683497388115" lon="10.604441930298918"><ele>12.0</ele><time>2026-05-02T17:05:55.999Z</time></trkpt><trkpt lat="43.82165483421606" lon="10.604729799900761"><ele>12.5</ele><time>2026-05-02T17:05:56.999Z</time></trkpt><trkpt lat="43.8216236415703" lon="10.605033211031527"><ele>13.0</ele><time>2026-05-02T17:05:57.999Z</time></trkpt><trkpt lat="43.82159160787719" lon="10.60535102924928"><ele>11.5</ele><time>2026-05-02T17:05:58.999Z</time></trkpt><trkpt lat="43.82155503526283" lon="10.605674479680813"><ele>10.0</ele><time>2026-05-02T17:05:59.999Z</time></trkpt><trkpt lat="43.82151135038113" lon="10.606002023220686"><ele>10.0</ele><time>2026-05-02T17:06:00.999Z</time></trkpt><trkpt lat="43.82146470795521" lon="10.606328677752442"><ele>10.0</ele><time>2026-05-02T17:06:01.999Z</time></trkpt><trkpt lat="43.82143049583059" lon="10.606639417230404"><ele>10.0</ele><time>2026-05-02T17:06:02.999Z</time></trkpt><trkpt lat="43.821394037774816" lon="10.606953451823552"><ele>10.0</ele><time>2026-05-02T17:06:03.999Z</time></trkpt><trkpt lat="43.821350516881196" lon="10.607299105554036"><ele>10.0</ele><time>2026-05-02T17:06:04.999Z</time></trkpt><trkpt lat="43.82131804543369" lon="10.607661179721694"><ele>10.0</ele><time>2026-05-02T17:06:05.998Z</time></trkpt><trkpt lat="43.821279003069606" lon="10.608025682510338"><ele>9.5</ele><time>2026-05-02T17:06:06.998Z</time></trkpt><trkpt lat="43.821226685122305" lon="10.608391637415112"><ele>9.0</ele><time>2026-05-02T17:06:07.998Z</time></trkpt><trkpt lat="43.82118245019933" lon="10.608752313773332"><ele>9.0</ele><time>2026-05-02T17:06:08.998Z</time></trkpt><trkpt lat="43.821148606595635" lon="10.609110167461356"><ele>9.0</ele><time>2026-05-02T17:06:09.998Z</time></trkpt><trkpt lat="43.82111371429135" lon="10.60946519090912"><ele>9.5</ele><time>2026-05-02T17:06:10.998Z</time></trkpt><trkpt lat="43.82107190517798" lon="10.60982258461598"><ele>10.0</ele><time>2026-05-02T17:06:11.998Z</time></trkpt><trkpt lat="43.82103266602694" lon="10.610170106136005"><ele>10.0</ele><time>2026-05-02T17:06:12.998Z</time></trkpt><trkpt lat="43.82099459450723" lon="10.610514655565225"><ele>10.0</ele><time>2026-05-02T17:06:13.998Z</time></trkpt><trkpt lat="43.82095671411632" lon="10.610858707561183"><ele>11.0</ele><time>2026-05-02T17:06:14.998Z</time></trkpt><trkpt lat="43.82091742457972" lon="10.61120276165156"><ele>12.0</ele><time>2026-05-02T17:06:15.998Z</time></trkpt><trkpt lat="43.82087857378541" lon="10.611544131730323"><ele>12.0</ele><time>2026-05-02T17:06:16.998Z</time></trkpt><trkpt lat="43.820838092481004" lon="10.611886731686484"><ele>12.0</ele><time>2026-05-02T17:06:17.998Z</time></trkpt><trkpt lat="43.82080020845872" lon="10.61222994401447"><ele>12.0</ele><time>2026-05-02T17:06:18.998Z</time></trkpt><trkpt lat="43.820763091257845" lon="10.6125778751528"><ele>12.0</ele><time>2026-05-02T17:06:19.998Z</time></trkpt><trkpt lat="43.82072499163506" lon="10.612926720200369"><ele>12.0</ele><time>2026-05-02T17:06:20.998Z</time></trkpt><trkpt lat="43.82068686439307" lon="10.613277296667059"><ele>12.0</ele><time>2026-05-02T17:06:21.998Z</time></trkpt><trkpt lat="43.82064749190535" lon="10.613629310135082"><ele>11.5</ele><time>2026-05-02T17:06:22.997Z</time></trkpt><trkpt lat="43.820607109636995" lon="10.613980860760236"><ele>11.0</ele><time>2026-05-02T17:06:23.997Z</time></trkpt><trkpt lat="43.8205658615559" lon="10.614332565137827"><ele>11.0</ele><time>2026-05-02T17:06:24.997Z</time></trkpt><trkpt lat="43.82052387705037" lon="10.614695677667582"><ele>11.0</ele><time>2026-05-02T17:06:25.997Z</time></trkpt><trkpt lat="43.82048045399229" lon="10.615052514724495"><ele>12.0</ele><time>2026-05-02T17:06:26.997Z</time></trkpt><trkpt lat="43.82043585411867" lon="10.615408950781642"><ele>13.0</ele><time>2026-05-02T17:06:27.997Z</time></trkpt><trkpt lat="43.8203929309375" lon="10.615766488825749"><ele>13.0</ele><time>2026-05-02T17:06:28.997Z</time></trkpt><trkpt lat="43.82035110781012" lon="10.616125231189457"><ele>13.0</ele><time>2026-05-02T17:06:29.997Z</time></trkpt><trkpt lat="43.82031192003762" lon="10.616478102984473"><ele>13.0</ele><time>2026-05-02T17:06:30.997Z</time></trkpt><trkpt lat="43.82027483502219" lon="10.616820777912922"><ele>13.0</ele><time>2026-05-02T17:06:31.997Z</time></trkpt><trkpt lat="43.820234404698596" lon="10.617158914801731"><ele>12.5</ele><time>2026-05-02T17:06:32.997Z</time></trkpt><trkpt lat="43.82019228806585" lon="10.617488938001037"><ele>12.0</ele><time>2026-05-02T17:06:33.997Z</time></trkpt><trkpt lat="43.820152724081986" lon="10.61781375012948"><ele>11.5</ele><time>2026-05-02T17:06:34.997Z</time></trkpt><trkpt lat="43.820117139118125" lon="10.61813965081248"><ele>11.0</ele><time>2026-05-02T17:06:35.997Z</time></trkpt><trkpt lat="43.82008157429752" lon="10.618463911922753"><ele>10.5</ele><time>2026-05-02T17:06:36.997Z</time></trkpt><trkpt lat="43.82004598278222" lon="10.618793805358925"><ele>10.0</ele><time>2026-05-02T17:06:37.997Z</time></trkpt><trkpt lat="43.82000980915473" lon="10.619130948644047"><ele>10.0</ele><time>2026-05-02T17:06:38.997Z</time></trkpt><trkpt lat="43.819972413346754" lon="10.619476114450245"><ele>10.0</ele><time>2026-05-02T17:06:39.997Z</time></trkpt><trkpt lat="43.8199332763" lon="10.619820495104461"><ele>10.5</ele><time>2026-05-02T17:06:40.997Z</time></trkpt><trkpt lat="43.81989237766525" lon="10.620163011565284"><ele>11.0</ele><time>2026-05-02T17:06:41.997Z</time></trkpt><trkpt lat="43.81985148091885" lon="10.620504089356691"><ele>11.0</ele><time>2026-05-02T17:06:42.997Z</time></trkpt><trkpt lat="43.81981186303927" lon="10.620844492644043"><ele>11.0</ele><time>2026-05-02T17:06:43.997Z</time></trkpt><trkpt lat="43.81977220689715" lon="10.621183459401655"><ele>10.5</ele><time>2026-05-02T17:06:44.997Z</time></trkpt><trkpt lat="43.81973360975379" lon="10.6215176437207"><ele>10.0</ele><time>2026-05-02T17:06:45.997Z</time></trkpt><trkpt lat="43.8196956827458" lon="10.621846786912759"><ele>10.5</ele><time>2026-05-02T17:06:46.997Z</time></trkpt><trkpt lat="43.81965830689963" lon="10.622176490260438"><ele>11.0</ele><time>2026-05-02T17:06:47.997Z</time></trkpt><trkpt lat="43.81962138682803" lon="10.622508691083159"><ele>11.0</ele><time>2026-05-02T17:06:48.997Z</time></trkpt><trkpt lat="43.8195839020902" lon="10.622846564547514"><ele>11.0</ele><time>2026-05-02T17:06:49.997Z</time></trkpt><trkpt lat="43.81954452415721" lon="10.623180713250258"><ele>11.0</ele><time>2026-05-02T17:06:50.997Z</time></trkpt><trkpt lat="43.819503377093476" lon="10.623513403813114"><ele>11.0</ele><time>2026-05-02T17:06:51.997Z</time></trkpt><trkpt lat="43.81946136960112" lon="10.623846745021751"><ele>11.0</ele><time>2026-05-02T17:06:52.997Z</time></trkpt><trkpt lat="43.819420998027965" lon="10.624179208900062"><ele>11.0</ele><time>2026-05-02T17:06:53.997Z</time></trkpt><trkpt lat="43.81938121697269" lon="10.624512183769175"><ele>10.5</ele><time>2026-05-02T17:06:54.997Z</time></trkpt><trkpt lat="43.81933908205765" lon="10.624844569694808"><ele>10.0</ele><time>2026-05-02T17:06:55.997Z</time></trkpt><trkpt lat="43.819297253681846" lon="10.625179581389194"><ele>10.5</ele><time>2026-05-02T17:06:56.997Z</time></trkpt><trkpt lat="43.819258953941635" lon="10.62550983858725"><ele>11.0</ele><time>2026-05-02T17:06:57.997Z</time></trkpt><trkpt lat="43.81922574898803" lon="10.625843335030801"><ele>10.5</ele><time>2026-05-02T17:06:58.997Z</time></trkpt><trkpt lat="43.81919162308435" lon="10.626181250100592"><ele>10.0</ele><time>2026-05-02T17:06:59.996Z</time></trkpt><trkpt lat="43.81915620553033" lon="10.626520033338243"><ele>10.0</ele><time>2026-05-02T17:07:00.996Z</time></trkpt><trkpt lat="43.81911896207878" lon="10.62685842295529"><ele>10.0</ele><time>2026-05-02T17:07:02Z</time></trkpt><trkpt lat="43.819080914044" lon="10.627193024358188"><ele>10.0</ele><time>2026-05-02T17:07:03Z</time></trkpt><trkpt lat="43.81904346998019" lon="10.62753263240902"><ele>10.0</ele><time>2026-05-02T17:07:04Z</time></trkpt><trkpt lat="43.81900585305653" lon="10.62787850860117"><ele>10.0</ele><time>2026-05-02T17:07:05Z</time></trkpt><trkpt lat="43.81896608042489" lon="10.628228658389947"><ele>10.0</ele><time>2026-05-02T17:07:06Z</time></trkpt><trkpt lat="43.818925028809" lon="10.628581012469118"><ele>10.0</ele><time>2026-05-02T17:07:07Z</time></trkpt><trkpt lat="43.81888133685086" lon="10.628934285518213"><ele>10.0</ele><time>2026-05-02T17:07:08Z</time></trkpt><trkpt lat="43.81883581375068" lon="10.629289928755984"><ele>9.5</ele><time>2026-05-02T17:07:09Z</time></trkpt><trkpt lat="43.818786039449144" lon="10.629646468276638"><ele>9.0</ele><time>2026-05-02T17:07:10Z</time></trkpt><trkpt lat="43.81873845558452" lon="10.630000758666329"><ele>8.0</ele><time>2026-05-02T17:07:11Z</time></trkpt><trkpt lat="43.81869682341439" lon="10.630349339118837"><ele>7.0</ele><time>2026-05-02T17:07:12Z</time></trkpt><trkpt lat="43.818659201911444" lon="10.630694377166279"><ele>7.0</ele><time>2026-05-02T17:07:13Z</time></trkpt><trkpt lat="43.81862209856999" lon="10.631040762221767"><ele>7.0</ele><time>2026-05-02T17:07:14Z</time></trkpt><trkpt lat="43.81858396113916" lon="10.631385967803753"><ele>7.0</ele><time>2026-05-02T17:07:15Z</time></trkpt><trkpt lat="43.818545618171676" lon="10.63173081927024"><ele>7.0</ele><time>2026-05-02T17:07:16Z</time></trkpt><trkpt lat="43.81850757731549" lon="10.632077981739092"><ele>7.0</ele><time>2026-05-02T17:07:17Z</time></trkpt><trkpt lat="43.81846967628256" lon="10.632421168002171"><ele>7.0</ele><time>2026-05-02T17:07:18Z</time></trkpt><trkpt lat="43.818432708664325" lon="10.632761514154044"><ele>7.0</ele><time>2026-05-02T17:07:19Z</time></trkpt><trkpt lat="43.81839563423675" lon="10.633101272758328"><ele>7.0</ele><time>2026-05-02T17:07:19.999Z</time></trkpt><trkpt lat="43.81835919271465" lon="10.633440091372936"><ele>7.5</ele><time>2026-05-02T17:07:20.999Z</time></trkpt><trkpt lat="43.81832136604583" lon="10.633781906873564"><ele>8.0</ele><time>2026-05-02T17:07:21.999Z</time></trkpt><trkpt lat="43.818284342855335" lon="10.634120436307823"><ele>8.0</ele><time>2026-05-02T17:07:22.999Z</time></trkpt><trkpt lat="43.81824576866031" lon="10.634460787256533"><ele>8.0</ele><time>2026-05-02T17:07:23.999Z</time></trkpt><trkpt lat="43.81820657571287" lon="10.63480574215584"><ele>7.5</ele><time>2026-05-02T17:07:24.999Z</time></trkpt><trkpt lat="43.81816841448139" lon="10.635148779271251"><ele>7.0</ele><time>2026-05-02T17:07:25.999Z</time></trkpt><trkpt lat="43.8181264488546" lon="10.635490454105843"><ele>7.0</ele><time>2026-05-02T17:07:26.999Z</time></trkpt><trkpt lat="43.818083705073775" lon="10.6358205350932"><ele>7.0</ele><time>2026-05-02T17:07:27.999Z</time></trkpt><trkpt lat="43.81804591763418" lon="10.636137161597755"><ele>7.5</ele><time>2026-05-02T17:07:28.999Z</time></trkpt><trkpt lat="43.81801072717051" lon="10.636450321875454"><ele>8.0</ele><time>2026-05-02T17:07:29.999Z</time></trkpt><trkpt lat="43.81797571876715" lon="10.636759579992285"><ele>7.5</ele><time>2026-05-02T17:07:30.999Z</time></trkpt><trkpt lat="43.81793284206296" lon="10.6370816677598"><ele>7.0</ele><time>2026-05-02T17:07:31.999Z</time></trkpt><trkpt lat="43.81788469185886" lon="10.637412384373343"><ele>7.0</ele><time>2026-05-02T17:07:32.999Z</time></trkpt><trkpt lat="43.81783481966711" lon="10.637758665576083"><ele>7.0</ele><time>2026-05-02T17:07:33.999Z</time></trkpt><trkpt lat="43.81779259884954" lon="10.638118957774834"><ele>7.0</ele><time>2026-05-02T17:07:34.999Z</time></trkpt><trkpt lat="43.81775262105469" lon="10.638481301132783"><ele>7.0</ele><time>2026-05-02T17:07:35.999Z</time></trkpt><trkpt lat="43.81770885454042" lon="10.63884892804415"><ele>7.0</ele><time>2026-05-02T17:07:36.999Z</time></trkpt><trkpt lat="43.81766636984347" lon="10.639219685592378"><ele>7.0</ele><time>2026-05-02T17:07:37.999Z</time></trkpt><trkpt lat="43.81762242460633" lon="10.639599986098837"><ele>7.0</ele><time>2026-05-02T17:07:38.999Z</time></trkpt><trkpt lat="43.817575608117735" lon="10.639986723280677"><ele>7.0</ele><time>2026-05-02T17:07:39.999Z</time></trkpt><trkpt lat="43.81753054137336" lon="10.640370520257635"><ele>7.0</ele><time>2026-05-02T17:07:40.999Z</time></trkpt><trkpt lat="43.817490023847476" lon="10.640755408136272"><ele>7.0</ele><time>2026-05-02T17:07:41.999Z</time></trkpt><trkpt lat="43.81745345594199" lon="10.641136840050944"><ele>7.0</ele><time>2026-05-02T17:07:42.999Z</time></trkpt><trkpt lat="43.81741676466123" lon="10.641510621127114"><ele>7.0</ele><time>2026-05-02T17:07:43.999Z</time></trkpt><trkpt lat="43.81737893821872" lon="10.641879502465084"><ele>7.0</ele><time>2026-05-02T17:07:44.999Z</time></trkpt><trkpt lat="43.817338511476095" lon="10.642250042418688"><ele>7.0</ele><time>2026-05-02T17:07:45.999Z</time></trkpt><trkpt lat="43.817298332951516" lon="10.642620243761723"><ele>7.0</ele><time>2026-05-02T17:07:46.999Z</time></trkpt><trkpt lat="43.8172566844242" lon="10.642990205783164"><ele>7.0</ele><time>2026-05-02T17:07:47.999Z</time></trkpt><trkpt lat="43.817214121948034" lon="10.643356022641267"><ele>6.5</ele><time>2026-05-02T17:07:48.999Z</time></trkpt><trkpt lat="43.8171735465605" lon="10.64371579765199"><ele>6.0</ele><time>2026-05-02T17:07:49.999Z</time></trkpt><trkpt lat="43.817132340110845" lon="10.644074250178253"><ele>6.0</ele><time>2026-05-02T17:07:50.999Z</time></trkpt><trkpt lat="43.817093242515966" lon="10.644426137836318"><ele>6.0</ele><time>2026-05-02T17:07:51.999Z</time></trkpt><trkpt lat="43.8170549261303" lon="10.644774543117313"><ele>6.5</ele><time>2026-05-02T17:07:52.999Z</time></trkpt><trkpt lat="43.817017165303795" lon="10.64511483396412"><ele>7.0</ele><time>2026-05-02T17:07:53.999Z</time></trkpt><trkpt lat="43.816979751677145" lon="10.645447864414686"><ele>7.5</ele><time>2026-05-02T17:07:54.999Z</time></trkpt><trkpt lat="43.816941168937895" lon="10.645776691390216"><ele>8.0</ele><time>2026-05-02T17:07:55.998Z</time></trkpt><trkpt lat="43.81689682207002" lon="10.646118869013284"><ele>7.5</ele><time>2026-05-02T17:07:56.998Z</time></trkpt><trkpt lat="43.816847548719714" lon="10.646479933193996"><ele>7.0</ele><time>2026-05-02T17:07:57.998Z</time></trkpt><trkpt lat="43.816797760959695" lon="10.646846393240768"><ele>8.5</ele><time>2026-05-02T17:07:58.998Z</time></trkpt><trkpt lat="43.816756695408145" lon="10.647215873474822"><ele>10.0</ele><time>2026-05-02T17:07:59.998Z</time></trkpt><trkpt lat="43.816714604928215" lon="10.647585718031024"><ele>11.0</ele><time>2026-05-02T17:08:00.998Z</time></trkpt><trkpt lat="43.8166706063049" lon="10.647955299838056"><ele>12.0</ele><time>2026-05-02T17:08:01.998Z</time></trkpt><trkpt lat="43.8166275101185" lon="10.648316460926116"><ele>13.5</ele><time>2026-05-02T17:08:02.998Z</time></trkpt><trkpt lat="43.81658943803269" lon="10.648670168127591"><ele>15.0</ele><time>2026-05-02T17:08:03.998Z</time></trkpt><trkpt lat="43.816550662126545" lon="10.64902361001005"><ele>15.0</ele><time>2026-05-02T17:08:04.998Z</time></trkpt><trkpt lat="43.81650970648551" lon="10.649383147496916"><ele>15.0</ele><time>2026-05-02T17:08:05.998Z</time></trkpt><trkpt lat="43.816469313416604" lon="10.649733280882055"><ele>14.0</ele><time>2026-05-02T17:08:06.998Z</time></trkpt><trkpt lat="43.81643075109995" lon="10.650081032815992"><ele>13.0</ele><time>2026-05-02T17:08:07.998Z</time></trkpt><trkpt lat="43.81639196230974" lon="10.6504225776564"><ele>13.0</ele><time>2026-05-02T17:08:08.998Z</time></trkpt><trkpt lat="43.816350953454716" lon="10.650756313426685"><ele>13.0</ele><time>2026-05-02T17:08:09.998Z</time></trkpt><trkpt lat="43.81631190992019" lon="10.65108929619793"><ele>13.0</ele><time>2026-05-02T17:08:10.998Z</time></trkpt><trkpt lat="43.81627147861277" lon="10.651424538841557"><ele>13.0</ele><time>2026-05-02T17:08:11.998Z</time></trkpt><trkpt lat="43.81623405049821" lon="10.651762591453362"><ele>13.0</ele><time>2026-05-02T17:08:12.998Z</time></trkpt><trkpt lat="43.81619743595149" lon="10.65209060331884"><ele>13.0</ele><time>2026-05-02T17:08:13.998Z</time></trkpt><trkpt lat="43.81616146551559" lon="10.652422637436166"><ele>13.0</ele><time>2026-05-02T17:08:14.998Z</time></trkpt><trkpt lat="43.81612350200834" lon="10.65275048501413"><ele>13.0</ele><time>2026-05-02T17:08:15.998Z</time></trkpt><trkpt lat="43.81608586244097" lon="10.65308071791565"><ele>12.5</ele><time>2026-05-02T17:08:16.998Z</time></trkpt><trkpt lat="43.81604974876909" lon="10.653408748877839"><ele>12.0</ele><time>2026-05-02T17:08:17.998Z</time></trkpt><trkpt lat="43.81601201316153" lon="10.653742568131506"><ele>15.0</ele><time>2026-05-02T17:08:18.998Z</time></trkpt><trkpt lat="43.81597330572377" lon="10.654080281558773"><ele>18.0</ele><time>2026-05-02T17:08:19.998Z</time></trkpt><trkpt lat="43.81593553288816" lon="10.654419329223991"><ele>18.5</ele><time>2026-05-02T17:08:20.998Z</time></trkpt><trkpt lat="43.815899485629416" lon="10.654759938197337"><ele>19.0</ele><time>2026-05-02T17:08:21.998Z</time></trkpt><trkpt lat="43.81586535746679" lon="10.655103960132372"><ele>18.0</ele><time>2026-05-02T17:08:22.998Z</time></trkpt><trkpt lat="43.81582952592381" lon="10.655451887808274"><ele>17.0</ele><time>2026-05-02T17:08:23.998Z</time></trkpt><trkpt lat="43.815792222905" lon="10.655801395747977"><ele>17.0</ele><time>2026-05-02T17:08:24.998Z</time></trkpt><trkpt lat="43.815749371318184" lon="10.656152561581834"><ele>17.0</ele><time>2026-05-02T17:08:25.998Z</time></trkpt><trkpt lat="43.81570137402421" lon="10.656503240726813"><ele>17.0</ele><time>2026-05-02T17:08:26.998Z</time></trkpt><trkpt lat="43.81565858568204" lon="10.656855759213965"><ele>17.0</ele><time>2026-05-02T17:08:27.998Z</time></trkpt><trkpt lat="43.81562001163543" lon="10.657210531280326"><ele>17.0</ele><time>2026-05-02T17:08:28.998Z</time></trkpt><trkpt lat="43.81558260409919" lon="10.65755890381268"><ele>17.0</ele><time>2026-05-02T17:08:29.998Z</time></trkpt><trkpt lat="43.81554354791297" lon="10.657907464368286"><ele>17.0</ele><time>2026-05-02T17:08:30.998Z</time></trkpt><trkpt lat="43.8155030711544" lon="10.65825789566306"><ele>17.0</ele><time>2026-05-02T17:08:31.998Z</time></trkpt><trkpt lat="43.81546328788211" lon="10.658604977202033"><ele>17.0</ele><time>2026-05-02T17:08:32.997Z</time></trkpt><trkpt lat="43.81542281561422" lon="10.658952528697546"><ele>17.0</ele><time>2026-05-02T17:08:33.997Z</time></trkpt><trkpt lat="43.815383747618704" lon="10.659296648259746"><ele>17.5</ele><time>2026-05-02T17:08:34.997Z</time></trkpt><trkpt lat="43.815345091442445" lon="10.659633891505038"><ele>18.0</ele><time>2026-05-02T17:08:35.997Z</time></trkpt><trkpt lat="43.81530616928044" lon="10.659972306054303"><ele>17.5</ele><time>2026-05-02T17:08:36.997Z</time></trkpt><trkpt lat="43.81526753593798" lon="10.660308197526346"><ele>17.0</ele><time>2026-05-02T17:08:37.997Z</time></trkpt><trkpt lat="43.81522857759353" lon="10.660640927221072"><ele>17.0</ele><time>2026-05-02T17:08:38.997Z</time></trkpt><trkpt lat="43.81518930730552" lon="10.660974856174485"><ele>17.0</ele><time>2026-05-02T17:08:39.997Z</time></trkpt><trkpt lat="43.815149077714615" lon="10.661310367601757"><ele>16.0</ele><time>2026-05-02T17:08:40.997Z</time></trkpt><trkpt lat="43.81510950389294" lon="10.66164543205712"><ele>15.0</ele><time>2026-05-02T17:08:41.997Z</time></trkpt><trkpt lat="43.81507314030541" lon="10.661969656925526"><ele>14.5</ele><time>2026-05-02T17:08:42.997Z</time></trkpt><trkpt lat="43.81503684976153" lon="10.662289536319003"><ele>14.0</ele><time>2026-05-02T17:08:43.997Z</time></trkpt><trkpt lat="43.815001453075695" lon="10.66261090593228"><ele>13.5</ele><time>2026-05-02T17:08:44.997Z</time></trkpt><trkpt lat="43.81496616275663" lon="10.662932394373193"><ele>13.0</ele><time>2026-05-02T17:08:45.997Z</time></trkpt><trkpt lat="43.814930534144864" lon="10.66325728305047"><ele>13.0</ele><time>2026-05-02T17:08:46.997Z</time></trkpt><trkpt lat="43.81489349299802" lon="10.66358002856329"><ele>13.0</ele><time>2026-05-02T17:08:47.997Z</time></trkpt><trkpt lat="43.814854522578145" lon="10.663910462190419"><ele>14.0</ele><time>2026-05-02T17:08:48.997Z</time></trkpt><trkpt lat="43.81481511221148" lon="10.664247045960355"><ele>15.0</ele><time>2026-05-02T17:08:49.997Z</time></trkpt><trkpt lat="43.81477760657813" lon="10.664581148963075"><ele>16.0</ele><time>2026-05-02T17:08:50.997Z</time></trkpt><trkpt lat="43.8147403520041" lon="10.664920783732722"><ele>17.0</ele><time>2026-05-02T17:08:51.997Z</time></trkpt><trkpt lat="43.81470419769489" lon="10.665261479326386"><ele>17.0</ele><time>2026-05-02T17:08:52.997Z</time></trkpt><trkpt lat="43.814668160766075" lon="10.665605530116292"><ele>17.0</ele><time>2026-05-02T17:08:53.997Z</time></trkpt><trkpt lat="43.814634568557956" lon="10.665944651943683"><ele>16.0</ele><time>2026-05-02T17:08:54.997Z</time></trkpt><trkpt lat="43.81461577957911" lon="10.66628529244718"><ele>15.0</ele><time>2026-05-02T17:08:55.997Z</time></trkpt><trkpt lat="43.8146118150335" lon="10.666630022564746"><ele>14.0</ele><time>2026-05-02T17:08:56.997Z</time></trkpt><trkpt lat="43.81461619133401" lon="10.666979095559922"><ele>13.0</ele><time>2026-05-02T17:08:57.997Z</time></trkpt><trkpt lat="43.81462995532934" lon="10.667342055956038"><ele>13.0</ele><time>2026-05-02T17:08:58.997Z</time></trkpt><trkpt lat="43.81465839659404" lon="10.6677228894849"><ele>13.0</ele><time>2026-05-02T17:08:59.997Z</time></trkpt><trkpt lat="43.81470213792205" lon="10.668115826491432"><ele>12.0</ele><time>2026-05-02T17:09:00.997Z</time></trkpt><trkpt lat="43.81476384260306" lon="10.668519263051264"><ele>11.0</ele><time>2026-05-02T17:09:01.997Z</time></trkpt><trkpt lat="43.8148326930163" lon="10.668921346138998"><ele>11.0</ele><time>2026-05-02T17:09:02.997Z</time></trkpt><trkpt lat="43.81491700048284" lon="10.669328379649361"><ele>11.0</ele><time>2026-05-02T17:09:03.997Z</time></trkpt><trkpt lat="43.815021111933845" lon="10.669740580573553"><ele>11.0</ele><time>2026-05-02T17:09:04.997Z</time></trkpt><trkpt lat="43.81514107206442" lon="10.670157736717579"><ele>11.0</ele><time>2026-05-02T17:09:05.997Z</time></trkpt><trkpt lat="43.815275834100646" lon="10.670575377207832"><ele>11.0</ele><time>2026-05-02T17:09:06.997Z</time></trkpt><trkpt lat="43.81542771947003" lon="10.670995150641719"><ele>11.0</ele><time>2026-05-02T17:09:08Z</time></trkpt><trkpt lat="43.81558075517501" lon="10.671411887794589"><ele>11.5</ele><time>2026-05-02T17:09:09Z</time></trkpt><trkpt lat="43.81572205056073" lon="10.67182097809391"><ele>12.0</ele><time>2026-05-02T17:09:10Z</time></trkpt><trkpt lat="43.81585586250371" lon="10.672220383245829"><ele>12.5</ele><time>2026-05-02T17:09:11Z</time></trkpt><trkpt lat="43.815989640075344" lon="10.672610703168164"><ele>13.0</ele><time>2026-05-02T17:09:12Z</time></trkpt><trkpt lat="43.81612312270511" lon="10.67298949292592"><ele>13.0</ele><time>2026-05-02T17:09:13Z</time></trkpt><trkpt lat="43.81625546068502" lon="10.673363735826818"><ele>13.0</ele><time>2026-05-02T17:09:14Z</time></trkpt><trkpt lat="43.816389461900776" lon="10.673733855693241"><ele>13.0</ele><time>2026-05-02T17:09:15Z</time></trkpt><trkpt lat="43.81652115012337" lon="10.674099568722102"><ele>13.0</ele><time>2026-05-02T17:09:16Z</time></trkpt><trkpt lat="43.816648899963056" lon="10.674460147565966"><ele>13.5</ele><time>2026-05-02T17:09:17Z</time></trkpt><trkpt lat="43.81677497389643" lon="10.674816882344325"><ele>14.0</ele><time>2026-05-02T17:09:18Z</time></trkpt><trkpt lat="43.81689937716041" lon="10.675167893043088"><ele>15.0</ele><time>2026-05-02T17:09:19Z</time></trkpt><trkpt lat="43.81702483608759" lon="10.675515345764527"><ele>16.0</ele><time>2026-05-02T17:09:20Z</time></trkpt><trkpt lat="43.817148543657815" lon="10.675857676120916"><ele>16.0</ele><time>2026-05-02T17:09:21Z</time></trkpt><trkpt lat="43.81726660550543" lon="10.676183424340888"><ele>16.0</ele><time>2026-05-02T17:09:22Z</time></trkpt><trkpt lat="43.81738276639097" lon="10.676504171785965"><ele>16.0</ele><time>2026-05-02T17:09:23Z</time></trkpt><trkpt lat="43.817498238160816" lon="10.676819018762282"><ele>16.0</ele><time>2026-05-02T17:09:24Z</time></trkpt><trkpt lat="43.817610538709744" lon="10.677131640485106"><ele>16.5</ele><time>2026-05-02T17:09:25Z</time></trkpt><trkpt lat="43.817722347594014" lon="10.677446803525688"><ele>17.0</ele><time>2026-05-02T17:09:26Z</time></trkpt><trkpt lat="43.81783541577813" lon="10.677762664596127"><ele>15.5</ele><time>2026-05-02T17:09:27Z</time></trkpt><trkpt lat="43.81794827583423" lon="10.678076209621855"><ele>14.0</ele><time>2026-05-02T17:09:27.999Z</time></trkpt><trkpt lat="43.81806129315549" lon="10.678388824728845"><ele>14.5</ele><time>2026-05-02T17:09:28.999Z</time></trkpt><trkpt lat="43.81817558668538" lon="10.67869948282822"><ele>15.0</ele><time>2026-05-02T17:09:29.999Z</time></trkpt><trkpt lat="43.81829395799726" lon="10.679014803580575"><ele>15.0</ele><time>2026-05-02T17:09:30.999Z</time></trkpt><trkpt lat="43.818415386116115" lon="10.679334239593205"><ele>15.0</ele><time>2026-05-02T17:09:31.999Z</time></trkpt><trkpt lat="43.81853351335917" lon="10.679658034388755"><ele>16.5</ele><time>2026-05-02T17:09:32.999Z</time></trkpt><trkpt lat="43.818652220319436" lon="10.67998295632442"><ele>18.0</ele><time>2026-05-02T17:09:33.999Z</time></trkpt><trkpt lat="43.818770140601956" lon="10.680310760582202"><ele>18.5</ele><time>2026-05-02T17:09:34.999Z</time></trkpt><trkpt lat="43.818887429252634" lon="10.680639157400906"><ele>19.0</ele><time>2026-05-02T17:09:35.999Z</time></trkpt><trkpt lat="43.81900520078834" lon="10.680969446923399"><ele>19.5</ele><time>2026-05-02T17:09:36.999Z</time></trkpt><trkpt lat="43.81912405357195" lon="10.681296468150085"><ele>20.0</ele><time>2026-05-02T17:09:37.999Z</time></trkpt><trkpt lat="43.819243086306784" lon="10.68162967761228"><ele>19.0</ele><time>2026-05-02T17:09:38.999Z</time></trkpt><trkpt lat="43.81936175082818" lon="10.681960951056332"><ele>18.0</ele><time>2026-05-02T17:09:39.999Z</time></trkpt><trkpt lat="43.819484189636114" lon="10.682290758399837"><ele>18.0</ele><time>2026-05-02T17:09:40.999Z</time></trkpt><trkpt lat="43.81961374507983" lon="10.68262923928174"><ele>18.0</ele><time>2026-05-02T17:09:41.999Z</time></trkpt><trkpt lat="43.819747693958504" lon="10.682969616572114"><ele>19.0</ele><time>2026-05-02T17:09:42.999Z</time></trkpt><trkpt lat="43.81988822099406" lon="10.683258076075973"><ele>20.0</ele><time>2026-05-02T17:09:43.999Z</time></trkpt><trkpt lat="43.8200361689587" lon="10.683581030904026"><ele>21.0</ele><time>2026-05-02T17:09:44.999Z</time></trkpt><trkpt lat="43.82018803123229" lon="10.683900757235788"><ele>22.0</ele><time>2026-05-02T17:09:45.999Z</time></trkpt><trkpt lat="43.820346359061865" lon="10.684220296406078"><ele>21.0</ele><time>2026-05-02T17:09:46.999Z</time></trkpt><trkpt lat="43.820511780445884" lon="10.684535009688187"><ele>20.0</ele><time>2026-05-02T17:09:47.999Z</time></trkpt><trkpt lat="43.8206813795168" lon="10.684846586750476"><ele>20.0</ele><time>2026-05-02T17:09:48.999Z</time></trkpt><trkpt lat="43.820855523643644" lon="10.685158325197193"><ele>20.0</ele><time>2026-05-02T17:09:49.999Z</time></trkpt><trkpt lat="43.82103912027102" lon="10.685464001069942"><ele>19.5</ele><time>2026-05-02T17:09:50.999Z</time></trkpt><trkpt lat="43.821227048697665" lon="10.685761310215172"><ele>19.0</ele><time>2026-05-02T17:09:51.999Z</time></trkpt><trkpt lat="43.82141844522416" lon="10.686057039040506"><ele>19.0</ele><time>2026-05-02T17:09:52.999Z</time></trkpt><trkpt lat="43.82160861980058" lon="10.68635318001835"><ele>19.0</ele><time>2026-05-02T17:09:53.999Z</time></trkpt><trkpt lat="43.82179976696926" lon="10.686648486840687"><ele>21.0</ele><time>2026-05-02T17:09:54.999Z</time></trkpt><trkpt lat="43.82199604650448" lon="10.686945437788754"><ele>23.0</ele><time>2026-05-02T17:09:55.999Z</time></trkpt><trkpt lat="43.822189470734344" lon="10.687246604212637"><ele>23.0</ele><time>2026-05-02T17:09:56.999Z</time></trkpt><trkpt lat="43.82238371715632" lon="10.687548217381496"><ele>23.0</ele><time>2026-05-02T17:09:57.999Z</time></trkpt><trkpt lat="43.82257743759266" lon="10.687850195728728"><ele>23.5</ele><time>2026-05-02T17:09:58.999Z</time></trkpt><trkpt lat="43.822769895251106" lon="10.688151105912558"><ele>24.0</ele><time>2026-05-02T17:09:59.999Z</time></trkpt><trkpt lat="43.82296650182821" lon="10.6884504099779"><ele>22.0</ele><time>2026-05-02T17:10:00.999Z</time></trkpt><trkpt lat="43.82315764471057" lon="10.688753764919495"><ele>20.0</ele><time>2026-05-02T17:10:01.999Z</time></trkpt><trkpt lat="43.823348841730834" lon="10.689059214087534"><ele>21.0</ele><time>2026-05-02T17:10:02.999Z</time></trkpt><trkpt lat="43.82354104676246" lon="10.689359633424212"><ele>22.0</ele><time>2026-05-02T17:10:03.999Z</time></trkpt><trkpt lat="43.82373088965196" lon="10.68965864754769"><ele>22.0</ele><time>2026-05-02T17:10:04.999Z</time></trkpt><trkpt lat="43.82392199257123" lon="10.689956887066675"><ele>22.0</ele><time>2026-05-02T17:10:05.999Z</time></trkpt><trkpt lat="43.8241101319034" lon="10.690258266567763"><ele>22.5</ele><time>2026-05-02T17:10:06.999Z</time></trkpt><trkpt lat="43.82430227307911" lon="10.690561399017504"><ele>23.0</ele><time>2026-05-02T17:10:07.999Z</time></trkpt><trkpt lat="43.82449478053775" lon="10.69086304925467"><ele>23.0</ele><time>2026-05-02T17:10:08.998Z</time></trkpt><trkpt lat="43.82468622163588" lon="10.691165371958348"><ele>23.0</ele><time>2026-05-02T17:10:09.998Z</time></trkpt><trkpt lat="43.82488007414873" lon="10.691470430030384"><ele>23.0</ele><time>2026-05-02T17:10:10.998Z</time></trkpt><trkpt lat="43.82507429983538" lon="10.691772607439923"><ele>23.0</ele><time>2026-05-02T17:10:11.998Z</time></trkpt><trkpt lat="43.82527321450968" lon="10.692076120925195"><ele>22.0</ele><time>2026-05-02T17:10:12.998Z</time></trkpt><trkpt lat="43.82547077409715" lon="10.692383061901545"><ele>21.0</ele><time>2026-05-02T17:10:13.998Z</time></trkpt><trkpt lat="43.82566872695632" lon="10.692693418967455"><ele>20.5</ele><time>2026-05-02T17:10:14.998Z</time></trkpt><trkpt lat="43.82586412124426" lon="10.693005341017335"><ele>20.0</ele><time>2026-05-02T17:10:15.998Z</time></trkpt><trkpt lat="43.82606026953136" lon="10.693319899392002"><ele>20.0</ele><time>2026-05-02T17:10:16.998Z</time></trkpt><trkpt lat="43.82625651022003" lon="10.693632929429358"><ele>20.0</ele><time>2026-05-02T17:10:17.998Z</time></trkpt><trkpt lat="43.8264545869197" lon="10.693945858774688"><ele>20.0</ele><time>2026-05-02T17:10:18.998Z</time></trkpt><trkpt lat="43.82665588503701" lon="10.694261409110284"><ele>20.0</ele><time>2026-05-02T17:10:19.998Z</time></trkpt><trkpt lat="43.826855198375846" lon="10.694575804020584"><ele>18.5</ele><time>2026-05-02T17:10:20.998Z</time></trkpt><trkpt lat="43.82705584720796" lon="10.694890902167504"><ele>17.0</ele><time>2026-05-02T17:10:21.998Z</time></trkpt><trkpt lat="43.82725455410307" lon="10.695203029329457"><ele>17.0</ele><time>2026-05-02T17:10:22.998Z</time></trkpt><trkpt lat="43.82745741001329" lon="10.695521991042316"><ele>17.0</ele><time>2026-05-02T17:10:23.998Z</time></trkpt><trkpt lat="43.827656935246" lon="10.695841110020785"><ele>16.5</ele><time>2026-05-02T17:10:24.998Z</time></trkpt><trkpt lat="43.82785661202397" lon="10.696156966304493"><ele>16.0</ele><time>2026-05-02T17:10:25.998Z</time></trkpt><trkpt lat="43.82805514752724" lon="10.696474819285413"><ele>16.0</ele><time>2026-05-02T17:10:26.998Z</time></trkpt><trkpt lat="43.82825639935469" lon="10.696791091290283"><ele>16.0</ele><time>2026-05-02T17:10:27.998Z</time></trkpt><trkpt lat="43.82845719173136" lon="10.69710888792078"><ele>16.5</ele><time>2026-05-02T17:10:28.998Z</time></trkpt><trkpt lat="43.82865996117888" lon="10.697426003972046"><ele>17.0</ele><time>2026-05-02T17:10:29.998Z</time></trkpt><trkpt lat="43.82885832838312" lon="10.697737597363538"><ele>17.0</ele><time>2026-05-02T17:10:30.998Z</time></trkpt><trkpt lat="43.82905934079517" lon="10.698054101975893"><ele>17.0</ele><time>2026-05-02T17:10:31.998Z</time></trkpt><trkpt lat="43.829257150701906" lon="10.698361964035433"><ele>19.0</ele><time>2026-05-02T17:10:32.998Z</time></trkpt><trkpt lat="43.82945844601552" lon="10.698677448469235"><ele>21.0</ele><time>2026-05-02T17:10:33.998Z</time></trkpt><trkpt lat="43.829654295270515" lon="10.69898496743752"><ele>21.0</ele><time>2026-05-02T17:10:34.998Z</time></trkpt><trkpt lat="43.829849271425296" lon="10.699294116884202"><ele>21.0</ele><time>2026-05-02T17:10:35.998Z</time></trkpt><trkpt lat="43.830049185192415" lon="10.69960547630835"><ele>21.0</ele><time>2026-05-02T17:10:36.998Z</time></trkpt><trkpt lat="43.83024566609318" lon="10.699914605430127"><ele>21.0</ele><time>2026-05-02T17:10:37.998Z</time></trkpt><trkpt lat="43.83044302512762" lon="10.700224794362496"><ele>22.0</ele><time>2026-05-02T17:10:38.998Z</time></trkpt><trkpt lat="43.8306423382508" lon="10.700534023976868"><ele>23.0</ele><time>2026-05-02T17:10:39.998Z</time></trkpt><trkpt lat="43.83083981043559" lon="10.700844407966391"><ele>24.0</ele><time>2026-05-02T17:10:40.998Z</time></trkpt><trkpt lat="43.83103089097639" lon="10.70115271756541"><ele>25.0</ele><time>2026-05-02T17:10:41.998Z</time></trkpt><trkpt lat="43.831232225756104" lon="10.701463781399896"><ele>25.0</ele><time>2026-05-02T17:10:42.998Z</time></trkpt><trkpt lat="43.831432191379264" lon="10.701773587244896"><ele>25.0</ele><time>2026-05-02T17:10:43.998Z</time></trkpt><trkpt lat="43.83163036553264" lon="10.702085179224916"><ele>23.0</ele><time>2026-05-02T17:10:44.998Z</time></trkpt><trkpt lat="43.83183235236995" lon="10.702395577232185"><ele>21.0</ele><time>2026-05-02T17:10:45.997Z</time></trkpt><trkpt lat="43.83203108131647" lon="10.702706575741107"><ele>20.0</ele><time>2026-05-02T17:10:46.997Z</time></trkpt><trkpt lat="43.832231256687706" lon="10.703019823871237"><ele>19.0</ele><time>2026-05-02T17:10:47.997Z</time></trkpt><trkpt lat="43.83242974037204" lon="10.703332125566815"><ele>19.5</ele><time>2026-05-02T17:10:48.997Z</time></trkpt><trkpt lat="43.83262347408673" lon="10.703645540721878"><ele>20.0</ele><time>2026-05-02T17:10:49.997Z</time></trkpt><trkpt lat="43.83281549094234" lon="10.703962345740619"><ele>20.0</ele><time>2026-05-02T17:10:50.997Z</time></trkpt><trkpt lat="43.83301995062227" lon="10.704279232003751"><ele>20.0</ele><time>2026-05-02T17:10:51.997Z</time></trkpt><trkpt lat="43.83321661474815" lon="10.704593471700115"><ele>20.0</ele><time>2026-05-02T17:10:52.997Z</time></trkpt><trkpt lat="43.833415485989086" lon="10.704909113449906"><ele>20.0</ele><time>2026-05-02T17:10:53.997Z</time></trkpt><trkpt lat="43.83361697790247" lon="10.705223643290676"><ele>19.0</ele><time>2026-05-02T17:10:54.997Z</time></trkpt><trkpt lat="43.83381878467294" lon="10.705539522432705"><ele>18.0</ele><time>2026-05-02T17:10:55.997Z</time></trkpt><trkpt lat="43.834019615969304" lon="10.705853304321481"><ele>18.5</ele><time>2026-05-02T17:10:56.997Z</time></trkpt><trkpt lat="43.83421765821537" lon="10.706168954215086"><ele>19.0</ele><time>2026-05-02T17:10:57.997Z</time></trkpt><trkpt lat="43.83441887316894" lon="10.706487783696028"><ele>19.0</ele><time>2026-05-02T17:10:58.997Z</time></trkpt><trkpt lat="43.83462519345775" lon="10.70680545898824"><ele>19.0</ele><time>2026-05-02T17:10:59.997Z</time></trkpt><trkpt lat="43.834825928317194" lon="10.707121345431187"><ele>19.0</ele><time>2026-05-02T17:11:00.997Z</time></trkpt><trkpt lat="43.83502483170097" lon="10.70744003983504"><ele>19.0</ele><time>2026-05-02T17:11:01.997Z</time></trkpt><trkpt lat="43.835220387772516" lon="10.707751756094217"><ele>19.0</ele><time>2026-05-02T17:11:02.997Z</time></trkpt><trkpt lat="43.83540946383691" lon="10.708036495538416"><ele>19.0</ele><time>2026-05-02T17:11:03.997Z</time></trkpt><trkpt lat="43.83559687927387" lon="10.708329758770171"><ele>19.5</ele><time>2026-05-02T17:11:04.997Z</time></trkpt><trkpt lat="43.835780480100425" lon="10.7086198788419"><ele>20.0</ele><time>2026-05-02T17:11:05.997Z</time></trkpt><trkpt lat="43.835962327829954" lon="10.708905585231902"><ele>20.0</ele><time>2026-05-02T17:11:06.997Z</time></trkpt><trkpt lat="43.83614032204433" lon="10.709187786290453"><ele>20.0</ele><time>2026-05-02T17:11:07.997Z</time></trkpt><trkpt lat="43.836315288538955" lon="10.709463257522277"><ele>20.0</ele><time>2026-05-02T17:11:08.997Z</time></trkpt><trkpt lat="43.836487759109154" lon="10.70973388569609"><ele>20.0</ele><time>2026-05-02T17:11:09.997Z</time></trkpt><trkpt lat="43.83665861974883" lon="10.710001059350985"><ele>19.5</ele><time>2026-05-02T17:11:10.997Z</time></trkpt><trkpt lat="43.836825864501485" lon="10.710261796831501"><ele>19.0</ele><time>2026-05-02T17:11:11.997Z</time></trkpt><trkpt lat="43.83698488130585" lon="10.710516842279983"><ele>19.0</ele><time>2026-05-02T17:11:12.997Z</time></trkpt><trkpt lat="43.837144539116736" lon="10.710768521060988"><ele>19.0</ele><time>2026-05-02T17:11:14Z</time></trkpt><trkpt lat="43.83730788544385" lon="10.711021347604987"><ele>19.0</ele><time>2026-05-02T17:11:15Z</time></trkpt><trkpt lat="43.8374725188372" lon="10.711278036677687"><ele>19.0</ele><time>2026-05-02T17:11:16Z</time></trkpt><trkpt lat="43.83763705972705" lon="10.711532004118624"><ele>19.0</ele><time>2026-05-02T17:11:17Z</time></trkpt><trkpt lat="43.83780828172657" lon="10.711797372385474"><ele>19.0</ele><time>2026-05-02T17:11:18Z</time></trkpt><trkpt lat="43.83797975541618" lon="10.712064585259888"><ele>19.0</ele><time>2026-05-02T17:11:19Z</time></trkpt><trkpt lat="43.838155243085" lon="10.712343415249146"><ele>19.0</ele><time>2026-05-02T17:11:20Z</time></trkpt><trkpt lat="43.83832557424153" lon="10.71262497760599"><ele>18.5</ele><time>2026-05-02T17:11:21Z</time></trkpt><trkpt lat="43.838498586032216" lon="10.71293461980475"><ele>18.0</ele><time>2026-05-02T17:11:22Z</time></trkpt><trkpt lat="43.838686085613745" lon="10.713247633525613"><ele>18.0</ele><time>2026-05-02T17:11:23Z</time></trkpt><trkpt lat="43.83888929300936" lon="10.713552022170472"><ele>18.0</ele><time>2026-05-02T17:11:24Z</time></trkpt><trkpt lat="43.839090146862425" lon="10.713843003965552"><ele>18.0</ele><time>2026-05-02T17:11:25Z</time></trkpt><trkpt lat="43.839284768046774" lon="10.714135953576687"><ele>18.0</ele><time>2026-05-02T17:11:26Z</time></trkpt><trkpt lat="43.83947698275286" lon="10.714428879361758"><ele>18.5</ele><time>2026-05-02T17:11:27Z</time></trkpt><trkpt lat="43.83966653536233" lon="10.714722698312087"><ele>19.0</ele><time>2026-05-02T17:11:28Z</time></trkpt><trkpt lat="43.839853178570415" lon="10.715017320284494"><ele>19.0</ele><time>2026-05-02T17:11:29Z</time></trkpt><trkpt lat="43.84003786702035" lon="10.715308643032659"><ele>19.0</ele><time>2026-05-02T17:11:30Z</time></trkpt><trkpt lat="43.840220332029546" lon="10.715595009297601"><ele>19.5</ele><time>2026-05-02T17:11:31Z</time></trkpt><trkpt lat="43.84040405475145" lon="10.715884084792004"><ele>20.0</ele><time>2026-05-02T17:11:32Z</time></trkpt><trkpt lat="43.84058537751011" lon="10.716171432294837"><ele>20.0</ele><time>2026-05-02T17:11:33Z</time></trkpt><trkpt lat="43.8407658563289" lon="10.716456604783806"><ele>20.0</ele><time>2026-05-02T17:11:34Z</time></trkpt><trkpt lat="43.84094060076146" lon="10.716736967215136"><ele>20.5</ele><time>2026-05-02T17:11:35Z</time></trkpt><trkpt lat="43.84111054190199" lon="10.717009592327994"><ele>21.0</ele><time>2026-05-02T17:11:36Z</time></trkpt><trkpt lat="43.8412807574168" lon="10.71728310160333"><ele>21.0</ele><time>2026-05-02T17:11:37Z</time></trkpt><trkpt lat="43.841448675453044" lon="10.717552481543464"><ele>21.0</ele><time>2026-05-02T17:11:38Z</time></trkpt><trkpt lat="43.841617206934025" lon="10.717816591920934"><ele>21.0</ele><time>2026-05-02T17:11:39Z</time></trkpt><trkpt lat="43.84178552838334" lon="10.718079261156273"><ele>21.0</ele><time>2026-05-02T17:11:40Z</time></trkpt><trkpt lat="43.84195391723296" lon="10.718344891941857"><ele>21.0</ele><time>2026-05-02T17:11:41Z</time></trkpt><trkpt lat="43.84212529265699" lon="10.71861372383229"><ele>21.0</ele><time>2026-05-02T17:11:42Z</time></trkpt><trkpt lat="43.84229432512828" lon="10.718880278332236"><ele>21.0</ele><time>2026-05-02T17:11:43Z</time></trkpt><trkpt lat="43.84246476615929" lon="10.719150152385499"><ele>21.0</ele><time>2026-05-02T17:11:43.999Z</time></trkpt><trkpt lat="43.84262923886848" lon="10.71941510018044"><ele>22.0</ele><time>2026-05-02T17:11:44.999Z</time></trkpt><trkpt lat="43.84279345358438" lon="10.719679898044921"><ele>23.0</ele><time>2026-05-02T17:11:45.999Z</time></trkpt><trkpt lat="43.8429544983948" lon="10.719939309334059"><ele>23.0</ele><time>2026-05-02T17:11:46.999Z</time></trkpt><trkpt lat="43.84311376788095" lon="10.720191194794468"><ele>23.0</ele><time>2026-05-02T17:11:47.999Z</time></trkpt><trkpt lat="43.84327152722995" lon="10.72043566460705"><ele>22.5</ele><time>2026-05-02T17:11:48.999Z</time></trkpt><trkpt lat="43.84343041638262" lon="10.720683548327292"><ele>22.0</ele><time>2026-05-02T17:11:49.999Z</time></trkpt><trkpt lat="43.843589612541905" lon="10.720935470240036"><ele>21.0</ele><time>2026-05-02T17:11:50.999Z</time></trkpt><trkpt lat="43.84374918867044" lon="10.721190900600634"><ele>20.0</ele><time>2026-05-02T17:11:51.999Z</time></trkpt><trkpt lat="43.843907730643714" lon="10.721446158589712"><ele>20.0</ele><time>2026-05-02T17:11:52.999Z</time></trkpt><trkpt lat="43.844070628954505" lon="10.721699448101804"><ele>20.0</ele><time>2026-05-02T17:11:53.999Z</time></trkpt><trkpt lat="43.844230956940244" lon="10.721953760198993"><ele>20.0</ele><time>2026-05-02T17:11:54.999Z</time></trkpt><trkpt lat="43.84439488038044" lon="10.722202479920195"><ele>20.0</ele><time>2026-05-02T17:11:55.999Z</time></trkpt><trkpt lat="43.84455709600668" lon="10.72245358500654"><ele>20.0</ele><time>2026-05-02T17:11:56.999Z</time></trkpt><trkpt lat="43.844720548953234" lon="10.722709657239848"><ele>20.0</ele><time>2026-05-02T17:11:57.999Z</time></trkpt><trkpt lat="43.84488548121786" lon="10.722965315626531"><ele>20.0</ele><time>2026-05-02T17:11:58.999Z</time></trkpt><trkpt lat="43.84505050530679" lon="10.72322223453689"><ele>20.0</ele><time>2026-05-02T17:11:59.999Z</time></trkpt><trkpt lat="43.84521714838704" lon="10.72348538696297"><ele>20.5</ele><time>2026-05-02T17:12:00.999Z</time></trkpt><trkpt lat="43.845385925932575" lon="10.723750941114004"><ele>21.0</ele><time>2026-05-02T17:12:01.999Z</time></trkpt><trkpt lat="43.845552801223675" lon="10.724010118900397"><ele>21.0</ele><time>2026-05-02T17:12:02.999Z</time></trkpt><trkpt lat="43.84572414395122" lon="10.72427662004421"><ele>21.0</ele><time>2026-05-02T17:12:03.999Z</time></trkpt><trkpt lat="43.84589664246509" lon="10.72454253531378"><ele>21.0</ele><time>2026-05-02T17:12:04.999Z</time></trkpt><trkpt lat="43.84606903128509" lon="10.724812291636024"><ele>21.0</ele><time>2026-05-02T17:12:05.999Z</time></trkpt><trkpt lat="43.84624151995725" lon="10.725083922169418"><ele>20.0</ele><time>2026-05-02T17:12:06.999Z</time></trkpt><trkpt lat="43.84641766783272" lon="10.72535818317854"><ele>19.0</ele><time>2026-05-02T17:12:07.999Z</time></trkpt><trkpt lat="43.846594621613676" lon="10.72563556554711"><ele>19.0</ele><time>2026-05-02T17:12:08.999Z</time></trkpt><trkpt lat="43.846772338536425" lon="10.725915114697106"><ele>19.0</ele><time>2026-05-02T17:12:09.999Z</time></trkpt><trkpt lat="43.84695028704436" lon="10.726195752768737"><ele>19.5</ele><time>2026-05-02T17:12:10.999Z</time></trkpt><trkpt lat="43.8471370853423" lon="10.726484570485036"><ele>20.0</ele><time>2026-05-02T17:12:11.999Z</time></trkpt><trkpt lat="43.847332710635904" lon="10.72679069428786"><ele>20.0</ele><time>2026-05-02T17:12:12.999Z</time></trkpt><trkpt lat="43.84753686866776" lon="10.727109539580306"><ele>20.0</ele><time>2026-05-02T17:12:13.999Z</time></trkpt><trkpt lat="43.847744276668614" lon="10.727420711937826"><ele>21.0</ele><time>2026-05-02T17:12:14.999Z</time></trkpt><trkpt lat="43.847946147085885" lon="10.727735402574854"><ele>22.0</ele><time>2026-05-02T17:12:15.999Z</time></trkpt><trkpt lat="43.848144565506615" lon="10.728047105432639"><ele>22.0</ele><time>2026-05-02T17:12:16.999Z</time></trkpt><trkpt lat="43.84834642481843" lon="10.7283590568687"><ele>22.0</ele><time>2026-05-02T17:12:17.999Z</time></trkpt><trkpt lat="43.84854681980233" lon="10.728670206559688"><ele>21.5</ele><time>2026-05-02T17:12:18.999Z</time></trkpt><trkpt lat="43.84874649264123" lon="10.728977787858174"><ele>21.0</ele><time>2026-05-02T17:12:19.999Z</time></trkpt><trkpt lat="43.84893861509255" lon="10.729286933292892"><ele>21.0</ele><time>2026-05-02T17:12:20.998Z</time></trkpt><trkpt lat="43.84912920887847" lon="10.729592169727457"><ele>21.0</ele><time>2026-05-02T17:12:21.998Z</time></trkpt><trkpt lat="43.849322853387804" lon="10.729901086933225"><ele>20.5</ele><time>2026-05-02T17:12:22.998Z</time></trkpt><trkpt lat="43.84951650166865" lon="10.730207246762404"><ele>20.0</ele><time>2026-05-02T17:12:23.998Z</time></trkpt><trkpt lat="43.84971326344827" lon="10.730511266613975"><ele>19.0</ele><time>2026-05-02T17:12:24.998Z</time></trkpt><trkpt lat="43.849904994362035" lon="10.730815684608425"><ele>18.0</ele><time>2026-05-02T17:12:25.998Z</time></trkpt><trkpt lat="43.850095295875576" lon="10.731116822331092"><ele>18.0</ele><time>2026-05-02T17:12:26.998Z</time></trkpt><trkpt lat="43.850289100289054" lon="10.731420982054733"><ele>18.0</ele><time>2026-05-02T17:12:27.998Z</time></trkpt><trkpt lat="43.850486771599954" lon="10.731727754589592"><ele>18.5</ele><time>2026-05-02T17:12:28.998Z</time></trkpt><trkpt lat="43.85068883323924" lon="10.73203879544893"><ele>19.0</ele><time>2026-05-02T17:12:29.998Z</time></trkpt><trkpt lat="43.850894519685184" lon="10.732355296933836"><ele>18.0</ele><time>2026-05-02T17:12:30.998Z</time></trkpt><trkpt lat="43.8511016415927" lon="10.7326773271997"><ele>17.0</ele><time>2026-05-02T17:12:31.998Z</time></trkpt><trkpt lat="43.85130785740215" lon="10.733000005577559"><ele>17.0</ele><time>2026-05-02T17:12:32.998Z</time></trkpt><trkpt lat="43.85151218880537" lon="10.733325221408672"><ele>17.0</ele><time>2026-05-02T17:12:33.998Z</time></trkpt><trkpt lat="43.851714559954345" lon="10.73365091699253"><ele>17.0</ele><time>2026-05-02T17:12:34.998Z</time></trkpt><trkpt lat="43.851916662884435" lon="10.733974938709943"><ele>17.0</ele><time>2026-05-02T17:12:35.998Z</time></trkpt><trkpt lat="43.852119650066726" lon="10.734303069008753"><ele>16.5</ele><time>2026-05-02T17:12:36.998Z</time></trkpt><trkpt lat="43.85232489275612" lon="10.734628910727757"><ele>16.0</ele><time>2026-05-02T17:12:37.998Z</time></trkpt><trkpt lat="43.852528152642776" lon="10.7349483899865"><ele>15.5</ele><time>2026-05-02T17:12:38.998Z</time></trkpt><trkpt lat="43.852724240514995" lon="10.735256258735658"><ele>15.0</ele><time>2026-05-02T17:12:39.998Z</time></trkpt><trkpt lat="43.85290980950149" lon="10.735551258801294"><ele>15.0</ele><time>2026-05-02T17:12:40.998Z</time></trkpt><trkpt lat="43.85309133056706" lon="10.735836248318135"><ele>15.0</ele><time>2026-05-02T17:12:41.998Z</time></trkpt><trkpt lat="43.853271665986064" lon="10.736121312690809"><ele>16.0</ele><time>2026-05-02T17:12:42.998Z</time></trkpt><trkpt lat="43.85345264825062" lon="10.736408039972934"><ele>17.0</ele><time>2026-05-02T17:12:43.998Z</time></trkpt><trkpt lat="43.853632027564686" lon="10.73669134787846"><ele>18.5</ele><time>2026-05-02T17:12:44.998Z</time></trkpt><trkpt lat="43.85380926038963" lon="10.736970808964058"><ele>20.0</ele><time>2026-05-02T17:12:45.998Z</time></trkpt><trkpt lat="43.85398572610728" lon="10.737247548239706"><ele>20.0</ele><time>2026-05-02T17:12:46.998Z</time></trkpt><trkpt lat="43.85416212752408" lon="10.737525000448228"><ele>20.0</ele><time>2026-05-02T17:12:47.998Z</time></trkpt><trkpt lat="43.85434007489534" lon="10.737801604998534"><ele>18.5</ele><time>2026-05-02T17:12:48.998Z</time></trkpt><trkpt lat="43.85451786575644" lon="10.738074424907683"><ele>17.0</ele><time>2026-05-02T17:12:49.998Z</time></trkpt><trkpt lat="43.854694128610085" lon="10.738351969050674"><ele>18.5</ele><time>2026-05-02T17:12:50.998Z</time></trkpt><trkpt lat="43.854869379708155" lon="10.738626461884722"><ele>20.0</ele><time>2026-05-02T17:12:51.998Z</time></trkpt><trkpt lat="43.85504221488744" lon="10.738898664697096"><ele>18.5</ele><time>2026-05-02T17:12:52.998Z</time></trkpt><trkpt lat="43.855216016568555" lon="10.739171430408087"><ele>17.0</ele><time>2026-05-02T17:12:53.998Z</time></trkpt><trkpt lat="43.85538705328674" lon="10.739440008369408"><ele>17.0</ele><time>2026-05-02T17:12:54.998Z</time></trkpt><trkpt lat="43.855557772540116" lon="10.739708221918555"><ele>17.0</ele><time>2026-05-02T17:12:55.998Z</time></trkpt><trkpt lat="43.8557267507422" lon="10.73997156729245"><ele>17.0</ele><time>2026-05-02T17:12:56.998Z</time></trkpt><trkpt lat="43.855895697499506" lon="10.740237674718312"><ele>17.0</ele><time>2026-05-02T17:12:57.997Z</time></trkpt><trkpt lat="43.85606380876244" lon="10.740500578473585"><ele>17.0</ele><time>2026-05-02T17:12:58.997Z</time></trkpt><trkpt lat="43.85622956300442" lon="10.740764782899214"><ele>17.0</ele><time>2026-05-02T17:12:59.997Z</time></trkpt><trkpt lat="43.85639464887499" lon="10.741025339491484"><ele>17.0</ele><time>2026-05-02T17:13:00.997Z</time></trkpt><trkpt lat="43.85656240653998" lon="10.741289026205182"><ele>17.0</ele><time>2026-05-02T17:13:01.997Z</time></trkpt><trkpt lat="43.856728750286194" lon="10.74154989703277"><ele>17.5</ele><time>2026-05-02T17:13:02.997Z</time></trkpt><trkpt lat="43.856897315503154" lon="10.741811771764347"><ele>18.0</ele><time>2026-05-02T17:13:03.997Z</time></trkpt><trkpt lat="43.85706821069133" lon="10.742079355613091"><ele>18.0</ele><time>2026-05-02T17:13:04.997Z</time></trkpt><trkpt lat="43.8572417612765" lon="10.742350258649159"><ele>18.0</ele><time>2026-05-02T17:13:05.997Z</time></trkpt><trkpt lat="43.857417253635774" lon="10.742623381756227"><ele>18.0</ele><time>2026-05-02T17:13:06.997Z</time></trkpt><trkpt lat="43.85759452347977" lon="10.74290173785099"><ele>18.0</ele><time>2026-05-02T17:13:07.997Z</time></trkpt><trkpt lat="43.857774867900275" lon="10.743182482263613"><ele>18.0</ele><time>2026-05-02T17:13:08.997Z</time></trkpt><trkpt lat="43.85795745312623" lon="10.74346641990638"><ele>18.0</ele><time>2026-05-02T17:13:09.997Z</time></trkpt><trkpt lat="43.85813876858897" lon="10.743753343396213"><ele>18.0</ele><time>2026-05-02T17:13:10.997Z</time></trkpt><trkpt lat="43.85832346156418" lon="10.744048257972903"><ele>18.0</ele><time>2026-05-02T17:13:11.997Z</time></trkpt><trkpt lat="43.85851272837863" lon="10.744351979664497"><ele>18.0</ele><time>2026-05-02T17:13:12.997Z</time></trkpt><trkpt lat="43.858704000039054" lon="10.744657207799223"><ele>18.0</ele><time>2026-05-02T17:13:13.997Z</time></trkpt><trkpt lat="43.85890207012941" lon="10.744971057462497"><ele>18.0</ele><time>2026-05-02T17:13:14.997Z</time></trkpt><trkpt lat="43.859103800157094" lon="10.745288924078507"><ele>18.0</ele><time>2026-05-02T17:13:15.997Z</time></trkpt><trkpt lat="43.85930959053307" lon="10.745609464601607"><ele>18.5</ele><time>2026-05-02T17:13:16.997Z</time></trkpt><trkpt lat="43.85951824044112" lon="10.74593837286324"><ele>19.0</ele><time>2026-05-02T17:13:17.997Z</time></trkpt><trkpt lat="43.85973015311718" lon="10.74627263675985"><ele>19.5</ele><time>2026-05-02T17:13:19Z</time></trkpt><trkpt lat="43.859944246316736" lon="10.746606761596107"><ele>20.0</ele><time>2026-05-02T17:13:20Z</time></trkpt><trkpt lat="43.860159546604805" lon="10.746944851393115"><ele>18.5</ele><time>2026-05-02T17:13:21Z</time></trkpt><trkpt lat="43.860374182780596" lon="10.74728140549043"><ele>17.0</ele><time>2026-05-02T17:13:22Z</time></trkpt><trkpt lat="43.86073874600761" lon="10.747435300392933"><ele>17.0</ele><time>2026-05-02T17:13:23Z</time></trkpt><trkpt lat="43.86094392069336" lon="10.747774725878337"><ele>17.0</ele><time>2026-05-02T17:13:24Z</time></trkpt><trkpt lat="43.86114977146928" lon="10.748076851731726"><ele>17.0</ele><time>2026-05-02T17:13:25Z</time></trkpt><trkpt lat="43.861377086163095" lon="10.748242619565486"><ele>17.0</ele><time>2026-05-02T17:13:26Z</time></trkpt><trkpt lat="43.86162870144079" lon="10.748473097760407"><ele>19.0</ele><time>2026-05-02T17:13:27Z</time></trkpt><trkpt lat="43.86164331401624" lon="10.749270868206295"><ele>19.0</ele><time>2026-05-02T17:13:28Z</time></trkpt><trkpt lat="43.86184733790887" lon="10.749606404933981"><ele>19.0</ele><time>2026-05-02T17:13:29Z</time></trkpt><trkpt lat="43.862050602890484" lon="10.749944401066132"><ele>18.0</ele><time>2026-05-02T17:13:30Z</time></trkpt><trkpt lat="43.86225047377729" lon="10.750271608803718"><ele>17.0</ele><time>2026-05-02T17:13:31Z</time></trkpt><trkpt lat="43.86245018462407" lon="10.750580282909436"><ele>17.0</ele><time>2026-05-02T17:13:32Z</time></trkpt><trkpt lat="43.86264910792523" lon="10.75088432915818"><ele>17.0</ele><time>2026-05-02T17:13:33Z</time></trkpt><trkpt lat="43.86284053202567" lon="10.751185412153536"><ele>17.0</ele><time>2026-05-02T17:13:34Z</time></trkpt><trkpt lat="43.86302774339289" lon="10.751481683761615"><ele>17.0</ele><time>2026-05-02T17:13:35Z</time></trkpt><trkpt lat="43.86321386928906" lon="10.751776810631693"><ele>17.0</ele><time>2026-05-02T17:13:36Z</time></trkpt><trkpt lat="43.863401244881324" lon="10.752072340570532"><ele>17.0</ele><time>2026-05-02T17:13:37Z</time></trkpt><trkpt lat="43.863590187107135" lon="10.752369194640668"><ele>16.5</ele><time>2026-05-02T17:13:38Z</time></trkpt><trkpt lat="43.86378053037108" lon="10.752666803446205"><ele>16.0</ele><time>2026-05-02T17:13:39Z</time></trkpt><trkpt lat="43.863972228928844" lon="10.75296632502812"><ele>16.0</ele><time>2026-05-02T17:13:40Z</time></trkpt><trkpt lat="43.86416430001689" lon="10.753262917016805"><ele>16.0</ele><time>2026-05-02T17:13:41Z</time></trkpt><trkpt lat="43.86435843281621" lon="10.75356366539469"><ele>16.0</ele><time>2026-05-02T17:13:42Z</time></trkpt><trkpt lat="43.864556228662174" lon="10.75387196077056"><ele>16.0</ele><time>2026-05-02T17:13:43Z</time></trkpt><trkpt lat="43.86475891704762" lon="10.754198538748046"><ele>16.0</ele><time>2026-05-02T17:13:44Z</time></trkpt><trkpt lat="43.864959626352324" lon="10.754549203759149"><ele>16.0</ele><time>2026-05-02T17:13:45Z</time></trkpt><trkpt lat="43.86517081225594" lon="10.754908313619195"><ele>15.5</ele><time>2026-05-02T17:13:46Z</time></trkpt><trkpt lat="43.86539537903237" lon="10.755258243399577"><ele>15.0</ele><time>2026-05-02T17:13:47Z</time></trkpt><trkpt lat="43.86562223851486" lon="10.755613846214818"><ele>15.0</ele><time>2026-05-02T17:13:48Z</time></trkpt><trkpt lat="43.865848082336335" lon="10.755973807217618"><ele>15.0</ele><time>2026-05-02T17:13:49Z</time></trkpt><trkpt lat="43.866077562595564" lon="10.75633910734966"><ele>15.5</ele><time>2026-05-02T17:13:50Z</time></trkpt><trkpt lat="43.86630810341656" lon="10.75670211547515"><ele>16.0</ele><time>2026-05-02T17:13:51Z</time></trkpt><trkpt lat="43.86653618842289" lon="10.75705778203136"><ele>17.0</ele><time>2026-05-02T17:13:51.999Z</time></trkpt><trkpt lat="43.86676267136618" lon="10.757411370549885"><ele>18.0</ele><time>2026-05-02T17:13:52.999Z</time></trkpt><trkpt lat="43.866985365784835" lon="10.757765921888158"><ele>18.0</ele><time>2026-05-02T17:13:53.999Z</time></trkpt><trkpt lat="43.86719997988336" lon="10.758109782433868"><ele>18.0</ele><time>2026-05-02T17:13:54.999Z</time></trkpt><trkpt lat="43.86741244018412" lon="10.758446182260288"><ele>17.5</ele><time>2026-05-02T17:13:55.999Z</time></trkpt><trkpt lat="43.867622105062175" lon="10.758776356767052"><ele>17.0</ele><time>2026-05-02T17:13:56.999Z</time></trkpt><trkpt lat="43.867829671717416" lon="10.759104862719562"><ele>17.0</ele><time>2026-05-02T17:13:57.999Z</time></trkpt><trkpt lat="43.86803342550852" lon="10.759419862213118"><ele>17.0</ele><time>2026-05-02T17:13:58.999Z</time></trkpt><trkpt lat="43.86823662569265" lon="10.759731424953983"><ele>17.0</ele><time>2026-05-02T17:13:59.999Z</time></trkpt><trkpt lat="43.86843445604904" lon="10.760038070083953"><ele>17.0</ele><time>2026-05-02T17:14:00.999Z</time></trkpt><trkpt lat="43.86862456309182" lon="10.760331394099424"><ele>18.0</ele><time>2026-05-02T17:14:01.999Z</time></trkpt><trkpt lat="43.868808397550616" lon="10.760616138202757"><ele>19.0</ele><time>2026-05-02T17:14:02.999Z</time></trkpt><trkpt lat="43.86898614737403" lon="10.76090134208778"><ele>19.5</ele><time>2026-05-02T17:14:03.999Z</time></trkpt><trkpt lat="43.86915619079791" lon="10.761188695271315"><ele>20.0</ele><time>2026-05-02T17:14:04.999Z</time></trkpt><trkpt lat="43.86931987784563" lon="10.761489627225362"><ele>18.5</ele><time>2026-05-02T17:14:05.999Z</time></trkpt><trkpt lat="43.86947493785542" lon="10.761797113016257"><ele>17.0</ele><time>2026-05-02T17:14:06.999Z</time></trkpt><trkpt lat="43.869623058901595" lon="10.762116677220398"><ele>17.0</ele><time>2026-05-02T17:14:07.999Z</time></trkpt><trkpt lat="43.86976535096606" lon="10.762438063769691"><ele>17.0</ele><time>2026-05-02T17:14:08.999Z</time></trkpt><trkpt lat="43.869897816903425" lon="10.762761742372001"><ele>17.5</ele><time>2026-05-02T17:14:09.999Z</time></trkpt><trkpt lat="43.8700262596304" lon="10.763103438997888"><ele>18.0</ele><time>2026-05-02T17:14:10.999Z</time></trkpt><trkpt lat="43.87015157916791" lon="10.763454317591753"><ele>17.0</ele><time>2026-05-02T17:14:11.999Z</time></trkpt><trkpt lat="43.87027335028286" lon="10.763816545202067"><ele>16.0</ele><time>2026-05-02T17:14:12.999Z</time></trkpt><trkpt lat="43.87038743796227" lon="10.764171478838177"><ele>17.5</ele><time>2026-05-02T17:14:13.999Z</time></trkpt><trkpt lat="43.870495248541104" lon="10.764507172521688"><ele>19.0</ele><time>2026-05-02T17:14:14.999Z</time></trkpt><trkpt lat="43.87060517699402" lon="10.764835860722405"><ele>19.0</ele><time>2026-05-02T17:14:15.999Z</time></trkpt><trkpt lat="43.870712815092276" lon="10.765152512055442"><ele>19.0</ele><time>2026-05-02T17:14:16.999Z</time></trkpt><trkpt lat="43.870819893165915" lon="10.765481090644256"><ele>19.0</ele><time>2026-05-02T17:14:17.999Z</time></trkpt><trkpt lat="43.870927911444234" lon="10.765815493574761"><ele>19.0</ele><time>2026-05-02T17:14:18.999Z</time></trkpt><trkpt lat="43.871037621779976" lon="10.7661539094866"><ele>19.5</ele><time>2026-05-02T17:14:19.999Z</time></trkpt><trkpt lat="43.871143948890364" lon="10.766486245919078"><ele>20.0</ele><time>2026-05-02T17:14:20.999Z</time></trkpt><trkpt lat="43.87124590572066" lon="10.766812019112294"><ele>20.0</ele><time>2026-05-02T17:14:21.999Z</time></trkpt><trkpt lat="43.871347992390085" lon="10.767139349996397"><ele>20.0</ele><time>2026-05-02T17:14:22.999Z</time></trkpt><trkpt lat="43.87144927689314" lon="10.767464977303677"><ele>19.0</ele><time>2026-05-02T17:14:23.999Z</time></trkpt><trkpt lat="43.87155321500906" lon="10.767797902416332"><ele>18.0</ele><time>2026-05-02T17:14:24.999Z</time></trkpt><trkpt lat="43.87166059317382" lon="10.768140193508282"><ele>18.0</ele><time>2026-05-02T17:14:25.999Z</time></trkpt><trkpt lat="43.87176891397902" lon="10.768487585036393"><ele>18.0</ele><time>2026-05-02T17:14:26.999Z</time></trkpt><trkpt lat="43.87187829853032" lon="10.768840819806087"><ele>18.5</ele><time>2026-05-02T17:14:27.998Z</time></trkpt><trkpt lat="43.87198337402167" lon="10.769192383170024"><ele>19.0</ele><time>2026-05-02T17:14:28.998Z</time></trkpt><trkpt lat="43.872089764006084" lon="10.769540690886481"><ele>19.0</ele><time>2026-05-02T17:14:29.998Z</time></trkpt><trkpt lat="43.872198077224255" lon="10.769888220314485"><ele>19.0</ele><time>2026-05-02T17:14:30.998Z</time></trkpt><trkpt lat="43.87230704315958" lon="10.770235757214563"><ele>19.0</ele><time>2026-05-02T17:14:31.998Z</time></trkpt><trkpt lat="43.87241488966102" lon="10.770582872083054"><ele>19.0</ele><time>2026-05-02T17:14:32.998Z</time></trkpt><trkpt lat="43.872522750869926" lon="10.7709298358649"><ele>19.0</ele><time>2026-05-02T17:14:33.998Z</time></trkpt><trkpt lat="43.87263028884896" lon="10.771279858792225"><ele>19.0</ele><time>2026-05-02T17:14:34.998Z</time></trkpt><trkpt lat="43.87273746623532" lon="10.771630360118403"><ele>19.5</ele><time>2026-05-02T17:14:35.998Z</time></trkpt><trkpt lat="43.87284358867663" lon="10.771983065560484"><ele>20.0</ele><time>2026-05-02T17:14:36.998Z</time></trkpt><trkpt lat="43.872950669146945" lon="10.772331729495216"><ele>20.0</ele><time>2026-05-02T17:14:37.998Z</time></trkpt><trkpt lat="43.87305895111022" lon="10.772680077606974"><ele>20.0</ele><time>2026-05-02T17:14:38.998Z</time></trkpt><trkpt lat="43.87316722525472" lon="10.7730270704623"><ele>20.0</ele><time>2026-05-02T17:14:39.998Z</time></trkpt><trkpt lat="43.87328009857496" lon="10.773385569318876"><ele>20.0</ele><time>2026-05-02T17:14:40.998Z</time></trkpt><trkpt lat="43.873395392694796" lon="10.773753553212938"><ele>19.5</ele><time>2026-05-02T17:14:41.998Z</time></trkpt><trkpt lat="43.87351093243394" lon="10.774119103870262"><ele>19.0</ele><time>2026-05-02T17:14:42.998Z</time></trkpt><trkpt lat="43.873626350154844" lon="10.774481340316356"><ele>19.0</ele><time>2026-05-02T17:14:43.998Z</time></trkpt><trkpt lat="43.87374210227386" lon="10.774835727474443"><ele>19.0</ele><time>2026-05-02T17:14:44.998Z</time></trkpt><trkpt lat="43.87385566663328" lon="10.775187692927409"><ele>19.5</ele><time>2026-05-02T17:14:45.998Z</time></trkpt><trkpt lat="43.873965447590024" lon="10.77553747981812"><ele>20.0</ele><time>2026-05-02T17:14:46.998Z</time></trkpt><trkpt lat="43.87407185625354" lon="10.775879659564374"><ele>19.5</ele><time>2026-05-02T17:14:47.998Z</time></trkpt><trkpt lat="43.874172669536236" lon="10.776201405840629"><ele>19.0</ele><time>2026-05-02T17:14:48.998Z</time></trkpt><trkpt lat="43.874269414811366" lon="10.776511079523408"><ele>19.0</ele><time>2026-05-02T17:14:49.998Z</time></trkpt><trkpt lat="43.874363946023564" lon="10.776818892116832"><ele>19.0</ele><time>2026-05-02T17:14:50.998Z</time></trkpt><trkpt lat="43.874460423954005" lon="10.777128980767486"><ele>19.0</ele><time>2026-05-02T17:14:51.998Z</time></trkpt><trkpt lat="43.874561464956614" lon="10.777442957801526"><ele>19.0</ele><time>2026-05-02T17:14:52.998Z</time></trkpt><trkpt lat="43.87466386878945" lon="10.777763838071307"><ele>18.5</ele><time>2026-05-02T17:14:53.998Z</time></trkpt><trkpt lat="43.87476536679173" lon="10.778089921168744"><ele>18.0</ele><time>2026-05-02T17:14:54.998Z</time></trkpt><trkpt lat="43.87487050874518" lon="10.778417635948285"><ele>18.5</ele><time>2026-05-02T17:14:55.998Z</time></trkpt><trkpt lat="43.87497652392869" lon="10.778751029440928"><ele>19.0</ele><time>2026-05-02T17:14:56.998Z</time></trkpt><trkpt lat="43.87508356677788" lon="10.779090027241049"><ele>21.0</ele><time>2026-05-02T17:14:57.998Z</time></trkpt><trkpt lat="43.875190662968116" lon="10.779430823766976"><ele>23.0</ele><time>2026-05-02T17:14:58.998Z</time></trkpt><trkpt lat="43.87529830434583" lon="10.779772581957936"><ele>23.0</ele><time>2026-05-02T17:14:59.998Z</time></trkpt><trkpt lat="43.875407602613045" lon="10.780118238265754"><ele>23.0</ele><time>2026-05-02T17:15:00.998Z</time></trkpt><trkpt lat="43.8755134484208" lon="10.780463897869812"><ele>22.0</ele><time>2026-05-02T17:15:01.998Z</time></trkpt><trkpt lat="43.875620859556015" lon="10.780808375081305"><ele>21.0</ele><time>2026-05-02T17:15:02.998Z</time></trkpt><trkpt lat="43.87573020386439" lon="10.781152985257425"><ele>21.0</ele><time>2026-05-02T17:15:03.997Z</time></trkpt><trkpt lat="43.87583758868294" lon="10.781493918876082"><ele>21.0</ele><time>2026-05-02T17:15:04.997Z</time></trkpt><trkpt lat="43.875944122900364" lon="10.781832721732558"><ele>21.0</ele><time>2026-05-02T17:15:05.997Z</time></trkpt><trkpt lat="43.87604978078158" lon="10.782171459940061"><ele>21.0</ele><time>2026-05-02T17:15:06.997Z</time></trkpt><trkpt lat="43.8761535597655" lon="10.782513241186772"><ele>22.0</ele><time>2026-05-02T17:15:07.997Z</time></trkpt><trkpt lat="43.87625616637876" lon="10.782850616583822"><ele>23.0</ele><time>2026-05-02T17:15:08.997Z</time></trkpt><trkpt lat="43.87635833786963" lon="10.783185560989317"><ele>22.5</ele><time>2026-05-02T17:15:09.997Z</time></trkpt><trkpt lat="43.87645716973488" lon="10.783520911131756"><ele>22.0</ele><time>2026-05-02T17:15:10.997Z</time></trkpt><trkpt lat="43.876553889357716" lon="10.78385538325322"><ele>22.0</ele><time>2026-05-02T17:15:11.997Z</time></trkpt><trkpt lat="43.876645879881586" lon="10.784195930683675"><ele>22.0</ele><time>2026-05-02T17:15:12.997Z</time></trkpt><trkpt lat="43.87673076875766" lon="10.78454011143389"><ele>22.0</ele><time>2026-05-02T17:15:13.997Z</time></trkpt><trkpt lat="43.87679662684493" lon="10.784890706298048"><ele>22.0</ele><time>2026-05-02T17:15:14.997Z</time></trkpt><trkpt lat="43.876850447686216" lon="10.785247751002117"><ele>21.0</ele><time>2026-05-02T17:15:15.997Z</time></trkpt><trkpt lat="43.87689017950754" lon="10.785607487014195"><ele>20.0</ele><time>2026-05-02T17:15:16.997Z</time></trkpt><trkpt lat="43.87691788191617" lon="10.7859717158818"><ele>20.5</ele><time>2026-05-02T17:15:17.997Z</time></trkpt><trkpt lat="43.876931521930345" lon="10.786340193296288"><ele>21.0</ele><time>2026-05-02T17:15:18.997Z</time></trkpt><trkpt lat="43.87693232658389" lon="10.786709348119295"><ele>22.0</ele><time>2026-05-02T17:15:19.997Z</time></trkpt><trkpt lat="43.87692271879285" lon="10.787075657309131"><ele>23.0</ele><time>2026-05-02T17:15:20.997Z</time></trkpt><trkpt lat="43.87690519577397" lon="10.787445275815406"><ele>23.0</ele><time>2026-05-02T17:15:21.997Z</time></trkpt><trkpt lat="43.876885717131564" lon="10.787818354145262"><ele>23.0</ele><time>2026-05-02T17:15:22.997Z</time></trkpt><trkpt lat="43.87686822533167" lon="10.788190378279182"><ele>22.5</ele><time>2026-05-02T17:15:23.997Z</time></trkpt><trkpt lat="43.876851889787716" lon="10.788568107046043"><ele>22.0</ele><time>2026-05-02T17:15:25Z</time></trkpt><trkpt lat="43.87683575361956" lon="10.788946717355167"><ele>22.0</ele><time>2026-05-02T17:15:26Z</time></trkpt><trkpt lat="43.87682022796277" lon="10.789325095433792"><ele>22.0</ele><time>2026-05-02T17:15:27Z</time></trkpt><trkpt lat="43.87680617981539" lon="10.789700183431123"><ele>22.5</ele><time>2026-05-02T17:15:28Z</time></trkpt><trkpt lat="43.87679059521154" lon="10.790078314270664"><ele>23.0</ele><time>2026-05-02T17:15:29Z</time></trkpt><trkpt lat="43.8767748073074" lon="10.790453275210766"><ele>22.5</ele><time>2026-05-02T17:15:30Z</time></trkpt><trkpt lat="43.87675724922881" lon="10.790825901854408"><ele>22.0</ele><time>2026-05-02T17:15:31Z</time></trkpt><trkpt lat="43.87674046704792" lon="10.791198131867805"><ele>21.5</ele><time>2026-05-02T17:15:32Z</time></trkpt><trkpt lat="43.8767242585709" lon="10.791567323043996"><ele>21.0</ele><time>2026-05-02T17:15:33Z</time></trkpt><trkpt lat="43.87670913008759" lon="10.791936667490413"><ele>21.0</ele><time>2026-05-02T17:15:34Z</time></trkpt><trkpt lat="43.87669199292021" lon="10.79231368631303"><ele>21.0</ele><time>2026-05-02T17:15:35Z</time></trkpt><trkpt lat="43.87667548229959" lon="10.792684159530475"><ele>21.0</ele><time>2026-05-02T17:15:36Z</time></trkpt><trkpt lat="43.87665922033566" lon="10.793046031571572"><ele>21.0</ele><time>2026-05-02T17:15:37Z</time></trkpt><trkpt lat="43.8766434141552" lon="10.793407678562085"><ele>21.5</ele><time>2026-05-02T17:15:38Z</time></trkpt><trkpt lat="43.87662836523634" lon="10.793771230384953"><ele>22.0</ele><time>2026-05-02T17:15:39Z</time></trkpt><trkpt lat="43.876612537936346" lon="10.794137261443291"><ele>23.0</ele><time>2026-05-02T17:15:40Z</time></trkpt><trkpt lat="43.876596352198845" lon="10.794507628902348"><ele>24.0</ele><time>2026-05-02T17:15:41Z</time></trkpt><trkpt lat="43.87657911663553" lon="10.794878372907172"><ele>24.0</ele><time>2026-05-02T17:15:42Z</time></trkpt><trkpt lat="43.876563702140466" lon="10.795254502392222"><ele>24.0</ele><time>2026-05-02T17:15:43Z</time></trkpt><trkpt lat="43.87654953451042" lon="10.795629039729961"><ele>24.0</ele><time>2026-05-02T17:15:44Z</time></trkpt><trkpt lat="43.87653620529134" lon="10.795999812897788"><ele>24.0</ele><time>2026-05-02T17:15:45Z</time></trkpt><trkpt lat="43.87652339431617" lon="10.796359246763197"><ele>23.5</ele><time>2026-05-02T17:15:46Z</time></trkpt><trkpt lat="43.87651093334476" lon="10.796704909290678"><ele>23.0</ele><time>2026-05-02T17:15:47Z</time></trkpt><trkpt lat="43.87649744905515" lon="10.797041053897404"><ele>23.0</ele><time>2026-05-02T17:15:48Z</time></trkpt><trkpt lat="43.87648580064679" lon="10.797370741687036"><ele>23.0</ele><time>2026-05-02T17:15:49Z</time></trkpt><trkpt lat="43.87647569263423" lon="10.797702300987114"><ele>22.5</ele><time>2026-05-02T17:15:50Z</time></trkpt><trkpt lat="43.87646610355701" lon="10.79803793809778"><ele>22.0</ele><time>2026-05-02T17:15:51Z</time></trkpt><trkpt lat="43.87645194797932" lon="10.798374679960935"><ele>22.0</ele><time>2026-05-02T17:15:52Z</time></trkpt><trkpt lat="43.876435104601406" lon="10.798708225058986"><ele>22.0</ele><time>2026-05-02T17:15:53Z</time></trkpt><trkpt lat="43.87641729871435" lon="10.79904778821371"><ele>22.0</ele><time>2026-05-02T17:15:54Z</time></trkpt><trkpt lat="43.87640445954353" lon="10.799384554210825"><ele>22.0</ele><time>2026-05-02T17:15:55Z</time></trkpt><trkpt lat="43.87638827852299" lon="10.799723390020226"><ele>22.0</ele><time>2026-05-02T17:15:56Z</time></trkpt><trkpt lat="43.876373560015786" lon="10.800063283376558"><ele>22.0</ele><time>2026-05-02T17:15:57Z</time></trkpt><trkpt lat="43.876357862033174" lon="10.800409840607015"><ele>22.0</ele><time>2026-05-02T17:15:58Z</time></trkpt><trkpt lat="43.876343125106615" lon="10.800760102083055"><ele>22.0</ele><time>2026-05-02T17:15:58.999Z</time></trkpt><trkpt lat="43.87632782814836" lon="10.801117341438312"><ele>22.0</ele><time>2026-05-02T17:15:59.999Z</time></trkpt><trkpt lat="43.87631103941183" lon="10.80148188885578"><ele>22.0</ele><time>2026-05-02T17:16:00.999Z</time></trkpt><trkpt lat="43.8762950618845" lon="10.801850275067213"><ele>22.5</ele><time>2026-05-02T17:16:01.999Z</time></trkpt><trkpt lat="43.8762794531384" lon="10.802219757014607"><ele>23.0</ele><time>2026-05-02T17:16:02.999Z</time></trkpt><trkpt lat="43.87626463992746" lon="10.802588871532604"><ele>23.0</ele><time>2026-05-02T17:16:03.999Z</time></trkpt><trkpt lat="43.87625046113927" lon="10.802959129009583"><ele>23.0</ele><time>2026-05-02T17:16:04.999Z</time></trkpt><trkpt lat="43.876235640635926" lon="10.803330454502367"><ele>23.0</ele><time>2026-05-02T17:16:05.999Z</time></trkpt><trkpt lat="43.87622009108365" lon="10.803705293971607"><ele>23.0</ele><time>2026-05-02T17:16:06.999Z</time></trkpt><trkpt lat="43.876203222647625" lon="10.804080906657614"><ele>22.0</ele><time>2026-05-02T17:16:07.999Z</time></trkpt><trkpt lat="43.8761856585038" lon="10.804457020587018"><ele>21.0</ele><time>2026-05-02T17:16:08.999Z</time></trkpt><trkpt lat="43.876169540813564" lon="10.804832790592597"><ele>21.0</ele><time>2026-05-02T17:16:09.999Z</time></trkpt><trkpt lat="43.87615362125105" lon="10.805213724589134"><ele>21.0</ele><time>2026-05-02T17:16:10.999Z</time></trkpt><trkpt lat="43.876139146641925" lon="10.805596271668747"><ele>21.0</ele><time>2026-05-02T17:16:11.999Z</time></trkpt><trkpt lat="43.876129194760885" lon="10.805975268744747"><ele>21.0</ele><time>2026-05-02T17:16:12.999Z</time></trkpt><trkpt lat="43.876126760304345" lon="10.806353926330742"><ele>21.0</ele><time>2026-05-02T17:16:13.999Z</time></trkpt><trkpt lat="43.876144028756194" lon="10.80672599034708"><ele>21.0</ele><time>2026-05-02T17:16:14.999Z</time></trkpt><trkpt lat="43.87618421843055" lon="10.807100768284242"><ele>21.5</ele><time>2026-05-02T17:16:15.999Z</time></trkpt><trkpt lat="43.87624710737623" lon="10.807466305597055"><ele>22.0</ele><time>2026-05-02T17:16:16.999Z</time></trkpt><trkpt lat="43.87633126796845" lon="10.807831902178734"><ele>22.5</ele><time>2026-05-02T17:16:17.999Z</time></trkpt><trkpt lat="43.876432774035784" lon="10.808179185429656"><ele>23.0</ele><time>2026-05-02T17:16:18.999Z</time></trkpt><trkpt lat="43.87655061399437" lon="10.808512067819413"><ele>23.5</ele><time>2026-05-02T17:16:19.999Z</time></trkpt><trkpt lat="43.87668412512844" lon="10.80883532475513"><ele>24.0</ele><time>2026-05-02T17:16:20.999Z</time></trkpt><trkpt lat="43.87683686434327" lon="10.809140385425597"><ele>22.5</ele><time>2026-05-02T17:16:21.999Z</time></trkpt><trkpt lat="43.87700606341187" lon="10.809427181464935"><ele>21.0</ele><time>2026-05-02T17:16:22.999Z</time></trkpt><trkpt lat="43.87718105784323" lon="10.809701399986125"><ele>21.0</ele><time>2026-05-02T17:16:23.999Z</time></trkpt><trkpt lat="43.87736749176529" lon="10.80995643663445"><ele>21.0</ele><time>2026-05-02T17:16:24.999Z</time></trkpt><trkpt lat="43.8775641350562" lon="10.810188423098797"><ele>22.0</ele><time>2026-05-02T17:16:25.999Z</time></trkpt><trkpt lat="43.87777122087356" lon="10.810398676620958"><ele>23.0</ele><time>2026-05-02T17:16:26.999Z</time></trkpt><trkpt lat="43.877981057441055" lon="10.810602481633216"><ele>23.0</ele><time>2026-05-02T17:16:27.999Z</time></trkpt><trkpt lat="43.878190131206914" lon="10.810818912644482"><ele>23.0</ele><time>2026-05-02T17:16:28.999Z</time></trkpt><trkpt lat="43.878394166944624" lon="10.81103030411339"><ele>24.0</ele><time>2026-05-02T17:16:29.999Z</time></trkpt><trkpt lat="43.87859466483237" lon="10.811233618778308"><ele>25.0</ele><time>2026-05-02T17:16:30.999Z</time></trkpt><trkpt lat="43.87879321780488" lon="10.811437815519195"><ele>25.0</ele><time>2026-05-02T17:16:31.999Z</time></trkpt><trkpt lat="43.87899276527244" lon="10.811646103535558"><ele>25.0</ele><time>2026-05-02T17:16:32.999Z</time></trkpt><trkpt lat="43.87919314620435" lon="10.811854147869232"><ele>26.0</ele><time>2026-05-02T17:16:33.999Z</time></trkpt><trkpt lat="43.879391143347846" lon="10.812060063441702"><ele>27.0</ele><time>2026-05-02T17:16:34.999Z</time></trkpt><trkpt lat="43.879592307302" lon="10.812270281455683"><ele>27.0</ele><time>2026-05-02T17:16:35.999Z</time></trkpt><trkpt lat="43.87979334823439" lon="10.812479143476768"><ele>27.0</ele><time>2026-05-02T17:16:36.998Z</time></trkpt><trkpt lat="43.879996367792614" lon="10.812688222626159"><ele>26.5</ele><time>2026-05-02T17:16:37.998Z</time></trkpt><trkpt lat="43.88019887176749" lon="10.812898297795007"><ele>26.0</ele><time>2026-05-02T17:16:38.998Z</time></trkpt><trkpt lat="43.880404656025185" lon="10.813107213635227"><ele>26.0</ele><time>2026-05-02T17:16:39.998Z</time></trkpt><trkpt lat="43.88061504237166" lon="10.81331754647676"><ele>26.0</ele><time>2026-05-02T17:16:40.998Z</time></trkpt><trkpt lat="43.88082723620642" lon="10.813532914956333"><ele>25.5</ele><time>2026-05-02T17:16:41.998Z</time></trkpt><trkpt lat="43.881041805849726" lon="10.813751979894986"><ele>25.0</ele><time>2026-05-02T17:16:42.998Z</time></trkpt><trkpt lat="43.881259793384544" lon="10.813976102579456"><ele>25.0</ele><time>2026-05-02T17:16:43.998Z</time></trkpt><trkpt lat="43.881485321941206" lon="10.814213139385433"><ele>25.0</ele><time>2026-05-02T17:16:44.998Z</time></trkpt><trkpt lat="43.88171309918338" lon="10.814462548839742"><ele>24.5</ele><time>2026-05-02T17:16:45.998Z</time></trkpt><trkpt lat="43.88194000312211" lon="10.81471891795463"><ele>24.0</ele><time>2026-05-02T17:16:46.998Z</time></trkpt><trkpt lat="43.882171863842636" lon="10.814964280414017"><ele>25.5</ele><time>2026-05-02T17:16:47.998Z</time></trkpt><trkpt lat="43.88240820000787" lon="10.815208610594611"><ele>27.0</ele><time>2026-05-02T17:16:48.998Z</time></trkpt><trkpt lat="43.88264167380715" lon="10.815450483479358"><ele>27.0</ele><time>2026-05-02T17:16:49.998Z</time></trkpt><trkpt lat="43.88287373218744" lon="10.815689022496992"><ele>27.0</ele><time>2026-05-02T17:16:50.998Z</time></trkpt><trkpt lat="43.88310392915992" lon="10.815925612006819"><ele>28.5</ele><time>2026-05-02T17:16:51.998Z</time></trkpt><trkpt lat="43.88333408110546" lon="10.816163729037818"><ele>30.0</ele><time>2026-05-02T17:16:52.998Z</time></trkpt><trkpt lat="43.88356435276489" lon="10.816404229727693"><ele>31.5</ele><time>2026-05-02T17:16:53.998Z</time></trkpt><trkpt lat="43.883796610339544" lon="10.816643916364374"><ele>33.0</ele><time>2026-05-02T17:16:54.998Z</time></trkpt><trkpt lat="43.88402736303611" lon="10.816882196182194"><ele>33.0</ele><time>2026-05-02T17:16:55.998Z</time></trkpt><trkpt lat="43.884257003827166" lon="10.81711927815369"><ele>33.0</ele><time>2026-05-02T17:16:56.998Z</time></trkpt><trkpt lat="43.88448616109074" lon="10.817353386121955"><ele>35.5</ele><time>2026-05-02T17:16:57.998Z</time></trkpt><trkpt lat="43.88471590648992" lon="10.817587893848145"><ele>38.0</ele><time>2026-05-02T17:16:58.998Z</time></trkpt><trkpt lat="43.88494719207664" lon="10.817821176684525"><ele>39.0</ele><time>2026-05-02T17:16:59.998Z</time></trkpt><trkpt lat="43.88517704543616" lon="10.818055443066084"><ele>40.0</ele><time>2026-05-02T17:17:00.998Z</time></trkpt><trkpt lat="43.885403927542534" lon="10.818290155512633"><ele>39.5</ele><time>2026-05-02T17:17:01.998Z</time></trkpt><trkpt lat="43.8856303891382" lon="10.818523068283582"><ele>39.0</ele><time>2026-05-02T17:17:02.998Z</time></trkpt><trkpt lat="43.885856808714195" lon="10.818757430931456"><ele>38.0</ele><time>2026-05-02T17:17:03.998Z</time></trkpt><trkpt lat="43.88608386791673" lon="10.818989167761842"><ele>37.0</ele><time>2026-05-02T17:17:04.998Z</time></trkpt><trkpt lat="43.88630943915609" lon="10.819216781544476"><ele>37.0</ele><time>2026-05-02T17:17:05.998Z</time></trkpt><trkpt lat="43.88653425101651" lon="10.819446488070465"><ele>37.0</ele><time>2026-05-02T17:17:06.998Z</time></trkpt><trkpt lat="43.88675549014966" lon="10.81967452690305"><ele>36.5</ele><time>2026-05-02T17:17:07.998Z</time></trkpt><trkpt lat="43.88697635272936" lon="10.819903762422546"><ele>36.0</ele><time>2026-05-02T17:17:08.998Z</time></trkpt><trkpt lat="43.88719693381625" lon="10.82013418030648"><ele>35.5</ele><time>2026-05-02T17:17:09.998Z</time></trkpt><trkpt lat="43.8874173013274" lon="10.820361858495048"><ele>35.0</ele><time>2026-05-02T17:17:10.998Z</time></trkpt><trkpt lat="43.88763621946956" lon="10.820591464206329"><ele>36.0</ele><time>2026-05-02T17:17:11.998Z</time></trkpt><trkpt lat="43.88785358996865" lon="10.820817937253368"><ele>37.0</ele><time>2026-05-02T17:17:12.998Z</time></trkpt><trkpt lat="43.88806992225356" lon="10.821046381796599"><ele>37.5</ele><time>2026-05-02T17:17:13.997Z</time></trkpt><trkpt lat="43.88828710448052" lon="10.821280384781339"><ele>38.0</ele><time>2026-05-02T17:17:14.997Z</time></trkpt><trkpt lat="43.88850099090693" lon="10.821513913907578"><ele>37.0</ele><time>2026-05-02T17:17:15.997Z</time></trkpt><trkpt lat="43.888716445175284" lon="10.821746201446633"><ele>36.0</ele><time>2026-05-02T17:17:16.997Z</time></trkpt><trkpt lat="43.888934044142395" lon="10.821979725499805"><ele>37.5</ele><time>2026-05-02T17:17:17.997Z</time></trkpt><trkpt lat="43.88914883714304" lon="10.822210121659497"><ele>39.0</ele><time>2026-05-02T17:17:18.997Z</time></trkpt><trkpt lat="43.889366288966606" lon="10.822447388097107"><ele>43.0</ele><time>2026-05-02T17:17:19.997Z</time></trkpt><trkpt lat="43.88957161539331" lon="10.822684473310256"><ele>47.0</ele><time>2026-05-02T17:17:20.997Z</time></trkpt><trkpt lat="43.889772420759975" lon="10.822931042491795"><ele>47.0</ele><time>2026-05-02T17:17:21.997Z</time></trkpt><trkpt lat="43.8899618907302" lon="10.82319267568754"><ele>47.0</ele><time>2026-05-02T17:17:22.997Z</time></trkpt><trkpt lat="43.8901476532968" lon="10.823466148786437"><ele>50.5</ele><time>2026-05-02T17:17:23.997Z</time></trkpt><trkpt lat="43.890327131247616" lon="10.823738385481567"><ele>54.0</ele><time>2026-05-02T17:17:24.997Z</time></trkpt><trkpt lat="43.8905045084778" lon="10.824010936747511"><ele>54.0</ele><time>2026-05-02T17:17:25.997Z</time></trkpt><trkpt lat="43.890683774647265" lon="10.824289809883082"><ele>54.0</ele><time>2026-05-02T17:17:26.997Z</time></trkpt><trkpt lat="43.890864038349235" lon="10.824572843064283"><ele>54.0</ele><time>2026-05-02T17:17:27.997Z</time></trkpt><trkpt lat="43.89104684048976" lon="10.824853132328515"><ele>54.0</ele><time>2026-05-02T17:17:28.997Z</time></trkpt><trkpt lat="43.89123659060443" lon="10.825132781133291"><ele>54.5</ele><time>2026-05-02T17:17:29.997Z</time></trkpt><trkpt lat="43.89143447010914" lon="10.82540628945717"><ele>55.0</ele><time>2026-05-02T17:17:31Z</time></trkpt><trkpt lat="43.89164644612476" lon="10.825660466097247"><ele>55.5</ele><time>2026-05-02T17:17:32Z</time></trkpt><trkpt lat="43.891869016163454" lon="10.825878005431207"><ele>56.0</ele><time>2026-05-02T17:17:33Z</time></trkpt><trkpt lat="43.89210638846103" lon="10.826072414058396"><ele>58.5</ele><time>2026-05-02T17:17:34Z</time></trkpt><trkpt lat="43.89235345621788" lon="10.82623915695555"><ele>61.0</ele><time>2026-05-02T17:17:35Z</time></trkpt><trkpt lat="43.892609890856725" lon="10.826373707892898"><ele>64.5</ele><time>2026-05-02T17:17:36Z</time></trkpt><trkpt lat="43.89287006984864" lon="10.826474489778098"><ele>68.0</ele><time>2026-05-02T17:17:37Z</time></trkpt><trkpt lat="43.893135695706796" lon="10.826546906283198"><ele>68.0</ele><time>2026-05-02T17:17:38Z</time></trkpt><trkpt lat="43.89340401276922" lon="10.826594379888046"><ele>68.0</ele><time>2026-05-02T17:17:39Z</time></trkpt><trkpt lat="43.89367128835512" lon="10.826616205871568"><ele>70.0</ele><time>2026-05-02T17:17:40Z</time></trkpt><trkpt lat="43.893935300461024" lon="10.82662018892345"><ele>72.0</ele><time>2026-05-02T17:17:41Z</time></trkpt><trkpt lat="43.89419806911108" lon="10.826628550678134"><ele>73.5</ele><time>2026-05-02T17:17:42Z</time></trkpt><trkpt lat="43.89445342740107" lon="10.826642094159311"><ele>75.0</ele><time>2026-05-02T17:17:43Z</time></trkpt><trkpt lat="43.894704343103896" lon="10.826654099733338"><ele>75.0</ele><time>2026-05-02T17:17:44Z</time></trkpt><trkpt lat="43.89495096116477" lon="10.826665395045804"><ele>75.0</ele><time>2026-05-02T17:17:45Z</time></trkpt><trkpt lat="43.895188440242926" lon="10.826687202000263"><ele>78.5</ele><time>2026-05-02T17:17:46Z</time></trkpt><trkpt lat="43.89541930397085" lon="10.826726079980338"><ele>82.0</ele><time>2026-05-02T17:17:47Z</time></trkpt><trkpt lat="43.89564551557509" lon="10.826774749441928"><ele>88.5</ele><time>2026-05-02T17:17:48Z</time></trkpt><trkpt lat="43.89587786078961" lon="10.826827034215322"><ele>95.0</ele><time>2026-05-02T17:17:49Z</time></trkpt><trkpt lat="43.89610768152439" lon="10.826882700209552"><ele>95.0</ele><time>2026-05-02T17:17:50Z</time></trkpt><trkpt lat="43.89633195726231" lon="10.82693651472164"><ele>95.0</ele><time>2026-05-02T17:17:51Z</time></trkpt><trkpt lat="43.896554640647615" lon="10.826985737782872"><ele>99.5</ele><time>2026-05-02T17:17:52Z</time></trkpt><trkpt lat="43.89677939349447" lon="10.827031882474104"><ele>104.0</ele><time>2026-05-02T17:17:53Z</time></trkpt><trkpt lat="43.897002994082186" lon="10.82708153172962"><ele>104.0</ele><time>2026-05-02T17:17:54Z</time></trkpt><trkpt lat="43.89721951743757" lon="10.827132934857897"><ele>104.0</ele><time>2026-05-02T17:17:55Z</time></trkpt><trkpt lat="43.89743075068742" lon="10.82718391531988"><ele>104.0</ele><time>2026-05-02T17:17:56Z</time></trkpt><trkpt lat="43.897638279326735" lon="10.827234959646967"><ele>102.0</ele><time>2026-05-02T17:17:57Z</time></trkpt><trkpt lat="43.897846961203435" lon="10.82728353995863"><ele>100.0</ele><time>2026-05-02T17:17:58Z</time></trkpt><trkpt lat="43.898059002431225" lon="10.827331016943736"><ele>98.0</ele><time>2026-05-02T17:17:59Z</time></trkpt><trkpt lat="43.898270716281765" lon="10.827378439913973"><ele>99.33333333333333</ele><time>2026-05-02T17:18:00Z</time></trkpt><trkpt lat="43.8984790508272" lon="10.827428740804072"><ele>100.66666666666666</ele><time>2026-05-02T17:18:01Z</time></trkpt><trkpt lat="43.89869057269339" lon="10.827478960466294"><ele>102.0</ele><time>2026-05-02T17:18:02Z</time></trkpt><trkpt lat="43.8989008322022" lon="10.827532255904334"><ele>102.0</ele><time>2026-05-02T17:18:03Z</time></trkpt><trkpt lat="43.8991153223919" lon="10.827588380751072"><ele>102.0</ele><time>2026-05-02T17:18:04Z</time></trkpt><trkpt lat="43.8993355922357" lon="10.827645580229698"><ele>102.0</ele><time>2026-05-02T17:18:05Z</time></trkpt><trkpt lat="43.8995595222758" lon="10.827703963805547"><ele>110.5</ele><time>2026-05-02T17:18:06Z</time></trkpt><trkpt lat="43.89978875390784" lon="10.827769649912794"><ele>119.0</ele><time>2026-05-02T17:18:07Z</time></trkpt><trkpt lat="43.90001579016359" lon="10.827855580125755"><ele>118.0</ele><time>2026-05-02T17:18:08Z</time></trkpt><trkpt lat="43.900242013599595" lon="10.827961217581954"><ele>117.0</ele><time>2026-05-02T17:18:09Z</time></trkpt><trkpt lat="43.900469195149135" lon="10.82809048789135"><ele>117.0</ele><time>2026-05-02T17:18:10Z</time></trkpt><trkpt lat="43.90069092110199" lon="10.828244934590774"><ele>117.0</ele><time>2026-05-02T17:18:11Z</time></trkpt><trkpt lat="43.900907509031335" lon="10.828414866893691"><ele>116.0</ele><time>2026-05-02T17:18:11.999Z</time></trkpt><trkpt lat="43.901122087921884" lon="10.828598447590258"><ele>115.0</ele><time>2026-05-02T17:18:12.999Z</time></trkpt><trkpt lat="43.90132828184938" lon="10.828796051999584"><ele>115.0</ele><time>2026-05-02T17:18:13.999Z</time></trkpt><trkpt lat="43.90152669050393" lon="10.829015843926275"><ele>115.0</ele><time>2026-05-02T17:18:14.999Z</time></trkpt><trkpt lat="43.901705739641166" lon="10.829262153246185"><ele>112.0</ele><time>2026-05-02T17:18:15.999Z</time></trkpt><trkpt lat="43.90186510632434" lon="10.829536090437744"><ele>109.0</ele><time>2026-05-02T17:18:16.999Z</time></trkpt><trkpt lat="43.902007454656456" lon="10.829826808610399"><ele>109.0</ele><time>2026-05-02T17:18:17.999Z</time></trkpt><trkpt lat="43.902143880276235" lon="10.83012740550338"><ele>109.0</ele><time>2026-05-02T17:18:18.999Z</time></trkpt><trkpt lat="43.90227743366423" lon="10.830429713233515"><ele>109.5</ele><time>2026-05-02T17:18:19.999Z</time></trkpt><trkpt lat="43.90241328605517" lon="10.830738051543442"><ele>110.0</ele><time>2026-05-02T17:18:20.999Z</time></trkpt><trkpt lat="43.902553606381275" lon="10.831044420540989"><ele>113.5</ele><time>2026-05-02T17:18:21.999Z</time></trkpt><trkpt lat="43.90269625245922" lon="10.831355727103396"><ele>117.0</ele><time>2026-05-02T17:18:22.999Z</time></trkpt><trkpt lat="43.902836772499896" lon="10.831669496095873"><ele>118.5</ele><time>2026-05-02T17:18:23.999Z</time></trkpt><trkpt lat="43.9029764226385" lon="10.831985856501971"><ele>120.0</ele><time>2026-05-02T17:18:24.999Z</time></trkpt><trkpt lat="43.90311705499818" lon="10.832305599297962"><ele>120.0</ele><time>2026-05-02T17:18:25.999Z</time></trkpt><trkpt lat="43.90325782001053" lon="10.83262792962953"><ele>120.0</ele><time>2026-05-02T17:18:26.999Z</time></trkpt><trkpt lat="43.90339880523079" lon="10.832950541336778"><ele>128.0</ele><time>2026-05-02T17:18:27.999Z</time></trkpt><trkpt lat="43.903541869849526" lon="10.833272864287387"><ele>136.0</ele><time>2026-05-02T17:18:28.999Z</time></trkpt><trkpt lat="43.90368105625849" lon="10.833597623124518"><ele>136.5</ele><time>2026-05-02T17:18:29.999Z</time></trkpt><trkpt lat="43.90382110126128" lon="10.833922208589032"><ele>137.0</ele><time>2026-05-02T17:18:30.999Z</time></trkpt><trkpt lat="43.90395791612584" lon="10.834244890389543"><ele>137.0</ele><time>2026-05-02T17:18:31.999Z</time></trkpt><trkpt lat="43.90408802044906" lon="10.834561640810449"><ele>137.0</ele><time>2026-05-02T17:18:32.999Z</time></trkpt><trkpt lat="43.904213550341105" lon="10.834874191548288"><ele>137.0</ele><time>2026-05-02T17:18:33.999Z</time></trkpt><trkpt lat="43.90433548599906" lon="10.835182622366133"><ele>137.0</ele><time>2026-05-02T17:18:34.999Z</time></trkpt><trkpt lat="43.90445413236543" lon="10.835484907822373"><ele>137.0</ele><time>2026-05-02T17:18:35.999Z</time></trkpt><trkpt lat="43.90457471209152" lon="10.835789400525954"><ele>137.0</ele><time>2026-05-02T17:18:36.999Z</time></trkpt><trkpt lat="43.904698443356175" lon="10.836100296959284"><ele>134.0</ele><time>2026-05-02T17:18:37.999Z</time></trkpt><trkpt lat="43.904823473628944" lon="10.836414334983324"><ele>131.0</ele><time>2026-05-02T17:18:38.999Z</time></trkpt><trkpt lat="43.90495848986759" lon="10.836465557673256"><ele>128.0</ele><time>2026-05-02T17:18:39.999Z</time></trkpt><trkpt lat="43.90507862937429" lon="10.836742624698944"><ele>123.0</ele><time>2026-05-02T17:18:40.999Z</time></trkpt><trkpt lat="43.905199237423595" lon="10.837022264866105"><ele>118.0</ele><time>2026-05-02T17:18:41.999Z</time></trkpt><trkpt lat="43.905311866989535" lon="10.837287200588134"><ele>118.0</ele><time>2026-05-02T17:18:42.999Z</time></trkpt><trkpt lat="43.90544949573824" lon="10.83756289198415"><ele>118.0</ele><time>2026-05-02T17:18:43.999Z</time></trkpt><trkpt lat="43.905569407256095" lon="10.837827344246781"><ele>114.0</ele><time>2026-05-02T17:18:44.999Z</time></trkpt><trkpt lat="43.905683325515916" lon="10.838082583508896"><ele>110.0</ele><time>2026-05-02T17:18:45.999Z</time></trkpt><trkpt lat="43.905800771576" lon="10.838340773486296"><ele>106.0</ele><time>2026-05-02T17:18:46.999Z</time></trkpt><trkpt lat="43.90591875959944" lon="10.83860191784024"><ele>101.0</ele><time>2026-05-02T17:18:47.999Z</time></trkpt><trkpt lat="43.906037887682736" lon="10.838870117392643"><ele>96.0</ele><time>2026-05-02T17:18:48.999Z</time></trkpt><trkpt lat="43.90616110255413" lon="10.839147429526024"><ele>97.0</ele><time>2026-05-02T17:18:49.998Z</time></trkpt><trkpt lat="43.906285088764655" lon="10.839428184685481"><ele>98.0</ele><time>2026-05-02T17:18:50.998Z</time></trkpt><trkpt lat="43.90640757226912" lon="10.839731730145953"><ele>98.0</ele><time>2026-05-02T17:18:51.998Z</time></trkpt><trkpt lat="43.90653388479833" lon="10.840033472268445"><ele>98.0</ele><time>2026-05-02T17:18:52.998Z</time></trkpt><trkpt lat="43.90665071859988" lon="10.84034341934457"><ele>92.5</ele><time>2026-05-02T17:18:53.998Z</time></trkpt><trkpt lat="43.906754726088124" lon="10.840668934954243"><ele>87.0</ele><time>2026-05-02T17:18:54.998Z</time></trkpt><trkpt lat="43.90684597461875" lon="10.840998090393327"><ele>86.5</ele><time>2026-05-02T17:18:55.998Z</time></trkpt><trkpt lat="43.906923870490786" lon="10.841333906419115"><ele>86.0</ele><time>2026-05-02T17:18:56.998Z</time></trkpt><trkpt lat="43.90699070229704" lon="10.841674565473962"><ele>85.0</ele><time>2026-05-02T17:18:57.998Z</time></trkpt><trkpt lat="43.90704876329183" lon="10.842014191438562"><ele>84.0</ele><time>2026-05-02T17:18:58.998Z</time></trkpt><trkpt lat="43.907095953138736" lon="10.842362185302663"><ele>83.5</ele><time>2026-05-02T17:18:59.998Z</time></trkpt><trkpt lat="43.90712762220801" lon="10.842715169554785"><ele>83.0</ele><time>2026-05-02T17:19:00.998Z</time></trkpt><trkpt lat="43.9071484172263" lon="10.843072000676317"><ele>83.0</ele><time>2026-05-02T17:19:01.998Z</time></trkpt><trkpt lat="43.90715723860702" lon="10.843437491173907"><ele>83.0</ele><time>2026-05-02T17:19:02.998Z</time></trkpt><trkpt lat="43.90715636409562" lon="10.843803973506569"><ele>83.0</ele><time>2026-05-02T17:19:03.998Z</time></trkpt><trkpt lat="43.90714651946413" lon="10.844171730460307"><ele>83.0</ele><time>2026-05-02T17:19:04.998Z</time></trkpt><trkpt lat="43.90712720960516" lon="10.844543907061327"><ele>83.5</ele><time>2026-05-02T17:19:05.998Z</time></trkpt><trkpt lat="43.90710149995956" lon="10.844920659190015"><ele>84.0</ele><time>2026-05-02T17:19:06.998Z</time></trkpt><trkpt lat="43.90707813943236" lon="10.845301761253099"><ele>84.0</ele><time>2026-05-02T17:19:07.998Z</time></trkpt><trkpt lat="43.90706064650747" lon="10.845687241018872"><ele>84.0</ele><time>2026-05-02T17:19:08.998Z</time></trkpt><trkpt lat="43.9070446032333" lon="10.846075619491339"><ele>85.0</ele><time>2026-05-02T17:19:09.998Z</time></trkpt><trkpt lat="43.907027701938276" lon="10.846467171455735"><ele>86.0</ele><time>2026-05-02T17:19:10.998Z</time></trkpt><trkpt lat="43.90701122630981" lon="10.846859810755836"><ele>86.0</ele><time>2026-05-02T17:19:11.998Z</time></trkpt><trkpt lat="43.9069958243961" lon="10.847253983995197"><ele>86.0</ele><time>2026-05-02T17:19:12.998Z</time></trkpt><trkpt lat="43.906979505901795" lon="10.847648789953345"><ele>86.5</ele><time>2026-05-02T17:19:13.998Z</time></trkpt><trkpt lat="43.90696259926664" lon="10.848045621753412"><ele>87.0</ele><time>2026-05-02T17:19:14.998Z</time></trkpt><trkpt lat="43.906945468412566" lon="10.848445685296296"><ele>87.0</ele><time>2026-05-02T17:19:15.998Z</time></trkpt><trkpt lat="43.90692839151928" lon="10.848844377557759"><ele>87.0</ele><time>2026-05-02T17:19:16.998Z</time></trkpt><trkpt lat="43.9069123358177" lon="10.849241444326506"><ele>84.0</ele><time>2026-05-02T17:19:17.998Z</time></trkpt><trkpt lat="43.906901857112686" lon="10.849635947967046"><ele>81.0</ele><time>2026-05-02T17:19:18.998Z</time></trkpt><trkpt lat="43.90689961432683" lon="10.850037349070046"><ele>80.0</ele><time>2026-05-02T17:19:19.998Z</time></trkpt><trkpt lat="43.90691141486641" lon="10.850436894439788"><ele>79.0</ele><time>2026-05-02T17:19:20.998Z</time></trkpt><trkpt lat="43.90693776544657" lon="10.850836130262962"><ele>79.5</ele><time>2026-05-02T17:19:21.998Z</time></trkpt><trkpt lat="43.90697289531291" lon="10.851238012276998"><ele>80.0</ele><time>2026-05-02T17:19:22.998Z</time></trkpt><trkpt lat="43.907018084418965" lon="10.851638780889155"><ele>80.0</ele><time>2026-05-02T17:19:23.998Z</time></trkpt><trkpt lat="43.907074371533504" lon="10.852034323219094"><ele>80.0</ele><time>2026-05-02T17:19:24.998Z</time></trkpt><trkpt lat="43.907141892991596" lon="10.852430152443779"><ele>84.0</ele><time>2026-05-02T17:19:25.998Z</time></trkpt><trkpt lat="43.90721995223252" lon="10.852821439335461"><ele>88.0</ele><time>2026-05-02T17:19:26.998Z</time></trkpt><trkpt lat="43.90730849457512" lon="10.853207551763655"><ele>93.0</ele><time>2026-05-02T17:19:27.997Z</time></trkpt><trkpt lat="43.90740786807106" lon="10.853584449075587"><ele>98.0</ele><time>2026-05-02T17:19:28.997Z</time></trkpt><trkpt lat="43.90751806651811" lon="10.853957384980067"><ele>92.0</ele><time>2026-05-02T17:19:29.997Z</time></trkpt><trkpt lat="43.907639633846664" lon="10.854330075863023"><ele>86.0</ele><time>2026-05-02T17:19:30.997Z</time></trkpt><trkpt lat="43.907771694972524" lon="10.854691929623156"><ele>86.0</ele><time>2026-05-02T17:19:31.997Z</time></trkpt><trkpt lat="43.907914212101" lon="10.855039700550904"><ele>86.0</ele><time>2026-05-02T17:19:32.997Z</time></trkpt><trkpt lat="43.908064118331644" lon="10.855373420643101"><ele>83.0</ele><time>2026-05-02T17:19:33.997Z</time></trkpt><trkpt lat="43.90822042869293" lon="10.855685748722482"><ele>80.0</ele><time>2026-05-02T17:19:34.997Z</time></trkpt><trkpt lat="43.908382845087175" lon="10.855988760329394"><ele>76.5</ele><time>2026-05-02T17:19:36Z</time></trkpt><trkpt lat="43.90854799900109" lon="10.856295595166737"><ele>73.0</ele><time>2026-05-02T17:19:37Z</time></trkpt><trkpt lat="43.90871103508031" lon="10.856603196785585"><ele>73.0</ele><time>2026-05-02T17:19:38Z</time></trkpt><trkpt lat="43.90887216805268" lon="10.856910113516555"><ele>73.0</ele><time>2026-05-02T17:19:39Z</time></trkpt><trkpt lat="43.90903537729671" lon="10.857221652708235"><ele>73.0</ele><time>2026-05-02T17:19:40Z</time></trkpt><trkpt lat="43.90919742070296" lon="10.857533843079757"><ele>73.0</ele><time>2026-05-02T17:19:41Z</time></trkpt><trkpt lat="43.909356680561714" lon="10.857845644610741"><ele>74.5</ele><time>2026-05-02T17:19:42Z</time></trkpt><trkpt lat="43.90951643358998" lon="10.858161096442553"><ele>76.0</ele><time>2026-05-02T17:19:43Z</time></trkpt><trkpt lat="43.90967520490224" lon="10.858476674088548"><ele>77.5</ele><time>2026-05-02T17:19:44Z</time></trkpt><trkpt lat="43.909834784646435" lon="10.858791839046447"><ele>79.0</ele><time>2026-05-02T17:19:45Z</time></trkpt><trkpt lat="43.90999437404661" lon="10.859108037871854"><ele>74.5</ele><time>2026-05-02T17:19:46Z</time></trkpt><trkpt lat="43.910154214466424" lon="10.859424028124426"><ele>70.0</ele><time>2026-05-02T17:19:47Z</time></trkpt><trkpt lat="43.910311347005866" lon="10.859743129064595"><ele>70.0</ele><time>2026-05-02T17:19:48Z</time></trkpt><trkpt lat="43.910464183442684" lon="10.86006941552348"><ele>70.0</ele><time>2026-05-02T17:19:49Z</time></trkpt><trkpt lat="43.91060606604416" lon="10.860403701266995"><ele>70.0</ele><time>2026-05-02T17:19:50Z</time></trkpt><trkpt lat="43.91073028188362" lon="10.860748694562476"><ele>70.0</ele><time>2026-05-02T17:19:51Z</time></trkpt><trkpt lat="43.91083571790166" lon="10.86110893218902"><ele>70.0</ele><time>2026-05-02T17:19:52Z</time></trkpt><trkpt lat="43.91092652344401" lon="10.861468508907818"><ele>70.0</ele><time>2026-05-02T17:19:53Z</time></trkpt><trkpt lat="43.91100884927255" lon="10.86182339938387"><ele>69.5</ele><time>2026-05-02T17:19:54Z</time></trkpt><trkpt lat="43.91108241321057" lon="10.862183992544756"><ele>69.0</ele><time>2026-05-02T17:19:55Z</time></trkpt><trkpt lat="43.91114574243455" lon="10.862544992345265"><ele>68.5</ele><time>2026-05-02T17:19:56Z</time></trkpt><trkpt lat="43.91119897633371" lon="10.862915742629651"><ele>68.0</ele><time>2026-05-02T17:19:57Z</time></trkpt><trkpt lat="43.9112423257987" lon="10.863290281188796"><ele>68.0</ele><time>2026-05-02T17:19:58Z</time></trkpt><trkpt lat="43.91127520462141" lon="10.863671353608398"><ele>68.0</ele><time>2026-05-02T17:19:59Z</time></trkpt><trkpt lat="43.91130352663791" lon="10.864056689487626"><ele>66.0</ele><time>2026-05-02T17:20:00Z</time></trkpt><trkpt lat="43.91133439126679" lon="10.864447803094116"><ele>64.0</ele><time>2026-05-02T17:20:01Z</time></trkpt><trkpt lat="43.911369406333876" lon="10.864835596607735"><ele>63.5</ele><time>2026-05-02T17:20:02Z</time></trkpt><trkpt lat="43.91140634480026" lon="10.865223087892902"><ele>63.0</ele><time>2026-05-02T17:20:03Z</time></trkpt><trkpt lat="43.911441753459" lon="10.865607744660517"><ele>63.5</ele><time>2026-05-02T17:20:04Z</time></trkpt><trkpt lat="43.91147371950816" lon="10.865992072181248"><ele>64.0</ele><time>2026-05-02T17:20:05Z</time></trkpt><trkpt lat="43.911506662347904" lon="10.866379017579577"><ele>64.0</ele><time>2026-05-02T17:20:06Z</time></trkpt><trkpt lat="43.91153894366346" lon="10.866759053393745"><ele>64.0</ele><time>2026-05-02T17:20:07Z</time></trkpt><trkpt lat="43.911571669387065" lon="10.867131966747802"><ele>64.0</ele><time>2026-05-02T17:20:08Z</time></trkpt><trkpt lat="43.911602285574816" lon="10.867483120775537"><ele>64.0</ele><time>2026-05-02T17:20:09Z</time></trkpt><trkpt lat="43.91163737127064" lon="10.867848428449392"><ele>64.0</ele><time>2026-05-02T17:20:10Z</time></trkpt><trkpt lat="43.911671211980334" lon="10.868219773009375"><ele>64.0</ele><time>2026-05-02T17:20:11Z</time></trkpt><trkpt lat="43.911702283157794" lon="10.868595514039955"><ele>64.0</ele><time>2026-05-02T17:20:12Z</time></trkpt><trkpt lat="43.91173313544774" lon="10.868973865430625"><ele>64.0</ele><time>2026-05-02T17:20:13Z</time></trkpt><trkpt lat="43.911762714760755" lon="10.869352665215576"><ele>62.5</ele><time>2026-05-02T17:20:14Z</time></trkpt><trkpt lat="43.91179223876092" lon="10.869727754688014"><ele>61.0</ele><time>2026-05-02T17:20:15Z</time></trkpt><trkpt lat="43.911822490830815" lon="10.870095756267643"><ele>61.0</ele><time>2026-05-02T17:20:16Z</time></trkpt><trkpt lat="43.91185199696936" lon="10.870460630816677"><ele>61.0</ele><time>2026-05-02T17:20:17Z</time></trkpt><trkpt lat="43.911883222314884" lon="10.870822369253904"><ele>62.0</ele><time>2026-05-02T17:20:18Z</time></trkpt><trkpt lat="43.91191395117831" lon="10.871185937644995"><ele>63.0</ele><time>2026-05-02T17:20:19Z</time></trkpt><trkpt lat="43.91194376398853" lon="10.871549136161729"><ele>63.0</ele><time>2026-05-02T17:20:20Z</time></trkpt><trkpt lat="43.91197398214325" lon="10.871918078802175"><ele>63.0</ele><time>2026-05-02T17:20:20.999Z</time></trkpt><trkpt lat="43.912003136327364" lon="10.87228738179712"><ele>63.5</ele><time>2026-05-02T17:20:21.999Z</time></trkpt><trkpt lat="43.912032597522014" lon="10.872658989293662"><ele>64.0</ele><time>2026-05-02T17:20:22.999Z</time></trkpt><trkpt lat="43.91206319663077" lon="10.873034364418034"><ele>64.0</ele><time>2026-05-02T17:20:23.999Z</time></trkpt><trkpt lat="43.91209375291184" lon="10.87341244597097"><ele>64.0</ele><time>2026-05-02T17:20:24.999Z</time></trkpt><trkpt lat="43.91212353727656" lon="10.873790012342955"><ele>63.0</ele><time>2026-05-02T17:20:25.999Z</time></trkpt><trkpt lat="43.912153623406304" lon="10.874168440551411"><ele>62.0</ele><time>2026-05-02T17:20:26.999Z</time></trkpt><trkpt lat="43.912183940670175" lon="10.874548849949006"><ele>61.5</ele><time>2026-05-02T17:20:27.999Z</time></trkpt><trkpt lat="43.91221453688683" lon="10.87493284752976"><ele>61.0</ele><time>2026-05-02T17:20:28.999Z</time></trkpt><trkpt lat="43.91224672329453" lon="10.875317085400543"><ele>61.0</ele><time>2026-05-02T17:20:29.999Z</time></trkpt><trkpt lat="43.91227932570232" lon="10.875703179533533"><ele>61.0</ele><time>2026-05-02T17:20:30.999Z</time></trkpt><trkpt lat="43.912312013590736" lon="10.8760864598772"><ele>61.0</ele><time>2026-05-02T17:20:31.999Z</time></trkpt><trkpt lat="43.91234351032428" lon="10.876471604940164"><ele>61.0</ele><time>2026-05-02T17:20:32.999Z</time></trkpt><trkpt lat="43.91237433674975" lon="10.876858889455642"><ele>61.0</ele><time>2026-05-02T17:20:33.999Z</time></trkpt><trkpt lat="43.91240445434685" lon="10.877249307876593"><ele>61.0</ele><time>2026-05-02T17:20:34.999Z</time></trkpt><trkpt lat="43.912433314799685" lon="10.87764114165032"><ele>60.5</ele><time>2026-05-02T17:20:35.999Z</time></trkpt><trkpt lat="43.91245882826884" lon="10.878031511469098"><ele>60.0</ele><time>2026-05-02T17:20:36.999Z</time></trkpt><trkpt lat="43.912482859591904" lon="10.878418553994022"><ele>60.5</ele><time>2026-05-02T17:20:37.999Z</time></trkpt><trkpt lat="43.91250583345588" lon="10.878805693268857"><ele>61.0</ele><time>2026-05-02T17:20:38.999Z</time></trkpt><trkpt lat="43.91253184572324" lon="10.87918064909155"><ele>61.0</ele><time>2026-05-02T17:20:39.999Z</time></trkpt><trkpt lat="43.9125550524147" lon="10.879554142313927"><ele>61.0</ele><time>2026-05-02T17:20:40.999Z</time></trkpt><trkpt lat="43.912582453661244" lon="10.879919514315938"><ele>61.5</ele><time>2026-05-02T17:20:41.999Z</time></trkpt><trkpt lat="43.91261190670089" lon="10.880277359059036"><ele>62.0</ele><time>2026-05-02T17:20:42.999Z</time></trkpt><trkpt lat="43.912641293790784" lon="10.880627178305216"><ele>61.0</ele><time>2026-05-02T17:20:43.999Z</time></trkpt><trkpt lat="43.91267112267179" lon="10.880975281717907"><ele>60.0</ele><time>2026-05-02T17:20:44.999Z</time></trkpt><trkpt lat="43.91269926318144" lon="10.881319707392532"><ele>60.0</ele><time>2026-05-02T17:20:45.999Z</time></trkpt><trkpt lat="43.91272573802122" lon="10.88166023118675"><ele>60.0</ele><time>2026-05-02T17:20:46.998Z</time></trkpt><trkpt lat="43.91275353113404" lon="10.882001071116438"><ele>59.0</ele><time>2026-05-02T17:20:47.998Z</time></trkpt><trkpt lat="43.91277823995464" lon="10.882335906889727"><ele>58.0</ele><time>2026-05-02T17:20:48.998Z</time></trkpt><trkpt lat="43.91280553918545" lon="10.882670843508675"><ele>58.0</ele><time>2026-05-02T17:20:49.998Z</time></trkpt><trkpt lat="43.91283408586992" lon="10.883003043809072"><ele>58.0</ele><time>2026-05-02T17:20:50.998Z</time></trkpt><trkpt lat="43.91285645540785" lon="10.883326013103547"><ele>58.666666666666664</ele><time>2026-05-02T17:20:51.998Z</time></trkpt><trkpt lat="43.912876812751925" lon="10.883636195146675"><ele>59.33333333333333</ele><time>2026-05-02T17:20:52.998Z</time></trkpt><trkpt lat="43.912897959210504" lon="10.883936604315027"><ele>60.0</ele><time>2026-05-02T17:20:53.998Z</time></trkpt><trkpt lat="43.91291791711459" lon="10.884237471874258"><ele>59.33333333333333</ele><time>2026-05-02T17:20:54.998Z</time></trkpt><trkpt lat="43.912939899744494" lon="10.884538913845002"><ele>58.666666666666664</ele><time>2026-05-02T17:20:55.998Z</time></trkpt><trkpt lat="43.91296289062486" lon="10.884841905303018"><ele>58.0</ele><time>2026-05-02T17:20:56.998Z</time></trkpt><trkpt lat="43.91298829260806" lon="10.885145838326148"><ele>58.0</ele><time>2026-05-02T17:20:57.998Z</time></trkpt><trkpt lat="43.9130135310066" lon="10.885452868606677"><ele>58.0</ele><time>2026-05-02T17:20:58.997Z</time></trkpt><trkpt lat="43.913040403668475" lon="10.885759830048265"><ele>58.0</ele><time>2026-05-02T17:20:59.997Z</time></trkpt><trkpt lat="43.913065493672946" lon="10.886065905851185"><ele>58.0</ele><time>2026-05-02T17:21:00.997Z</time></trkpt><trkpt lat="43.913092230298176" lon="10.886374962392942"><ele>58.0</ele><time>2026-05-02T17:21:01.997Z</time></trkpt><trkpt lat="43.91311835987653" lon="10.886684647555187"><ele>58.0</ele><time>2026-05-02T17:21:02.997Z</time></trkpt><trkpt lat="43.913145077456136" lon="10.88699414197651"><ele>58.0</ele><time>2026-05-02T17:21:03.997Z</time></trkpt><trkpt lat="43.913171673251114" lon="10.887304705408383"><ele>58.0</ele><time>2026-05-02T17:21:04.997Z</time></trkpt><trkpt lat="43.91319821344868" lon="10.88761617087057"><ele>58.0</ele><time>2026-05-02T17:21:05.997Z</time></trkpt><trkpt lat="43.91322312918895" lon="10.88792862285464"><ele>58.0</ele><time>2026-05-02T17:21:06.997Z</time></trkpt><trkpt lat="43.91324737487543" lon="10.888240373983532"><ele>58.33333333333333</ele><time>2026-05-02T17:21:07.997Z</time></trkpt><trkpt lat="43.91327224701387" lon="10.888549012855458"><ele>58.66666666666667</ele><time>2026-05-02T17:21:08.997Z</time></trkpt><trkpt lat="43.913299004131055" lon="10.88885802925022"><ele>59.0</ele><time>2026-05-02T17:21:09.997Z</time></trkpt><trkpt lat="43.913324191698244" lon="10.8891672407738"><ele>59.0</ele><time>2026-05-02T17:21:10.997Z</time></trkpt><trkpt lat="43.91334930489828" lon="10.889477717838027"><ele>59.0</ele><time>2026-05-02T17:21:11.997Z</time></trkpt><trkpt lat="43.913372422672445" lon="10.889790010806536"><ele>59.0</ele><time>2026-05-02T17:21:12.997Z</time></trkpt><trkpt lat="43.913395356688454" lon="10.890104294189506"><ele>59.0</ele><time>2026-05-02T17:21:13.997Z</time></trkpt><trkpt lat="43.91342130460816" lon="10.890420948437999"><ele>59.0</ele><time>2026-05-02T17:21:14.997Z</time></trkpt><trkpt lat="43.91344536051822" lon="10.890738519494715"><ele>59.0</ele><time>2026-05-02T17:21:15.997Z</time></trkpt><trkpt lat="43.913470526163735" lon="10.891054769326187"><ele>59.0</ele><time>2026-05-02T17:21:16.997Z</time></trkpt><trkpt lat="43.91349849817059" lon="10.891372005285069"><ele>59.0</ele><time>2026-05-02T17:21:17.997Z</time></trkpt><trkpt lat="43.91352721857986" lon="10.891693941650168"><ele>59.0</ele><time>2026-05-02T17:21:18.997Z</time></trkpt><trkpt lat="43.91355410106733" lon="10.892022187124645"><ele>59.0</ele><time>2026-05-02T17:21:19.997Z</time></trkpt><trkpt lat="43.913582621326505" lon="10.89235001522109"><ele>58.5</ele><time>2026-05-02T17:21:20.997Z</time></trkpt><trkpt lat="43.91361546306578" lon="10.892679435196124"><ele>58.0</ele><time>2026-05-02T17:21:21.997Z</time></trkpt><trkpt lat="43.91365514641122" lon="10.893009373985677"><ele>58.0</ele><time>2026-05-02T17:21:22.997Z</time></trkpt><trkpt lat="43.91369854242041" lon="10.893334160222338"><ele>58.0</ele><time>2026-05-02T17:21:23.997Z</time></trkpt><trkpt lat="43.91373247829351" lon="10.89367662743839"><ele>58.0</ele><time>2026-05-02T17:21:24.997Z</time></trkpt><trkpt lat="43.913765296612645" lon="10.894020509147063"><ele>58.0</ele><time>2026-05-02T17:21:25.997Z</time></trkpt><trkpt lat="43.91379428243581" lon="10.894363128616344"><ele>58.0</ele><time>2026-05-02T17:21:26.997Z</time></trkpt><trkpt lat="43.91382245614683" lon="10.894702119904814"><ele>58.0</ele><time>2026-05-02T17:21:27.997Z</time></trkpt><trkpt lat="43.91384935960949" lon="10.895044932686107"><ele>58.0</ele><time>2026-05-02T17:21:28.997Z</time></trkpt><trkpt lat="43.913876560023645" lon="10.895388433876143"><ele>58.0</ele><time>2026-05-02T17:21:29.997Z</time></trkpt><trkpt lat="43.91390203036643" lon="10.895725688473169"><ele>58.0</ele><time>2026-05-02T17:21:30.997Z</time></trkpt><trkpt lat="43.91392448949367" lon="10.896055876242007"><ele>58.0</ele><time>2026-05-02T17:21:31.997Z</time></trkpt><trkpt lat="43.91394586505473" lon="10.896386079389757"><ele>58.0</ele><time>2026-05-02T17:21:32.997Z</time></trkpt><trkpt lat="43.91397013921665" lon="10.89671587666797"><ele>58.0</ele><time>2026-05-02T17:21:33.997Z</time></trkpt><trkpt lat="43.91399635054432" lon="10.897045061143155"><ele>58.0</ele><time>2026-05-02T17:21:34.997Z</time></trkpt><trkpt lat="43.914024121789346" lon="10.897373220839055"><ele>58.0</ele><time>2026-05-02T17:21:35.996Z</time></trkpt><trkpt lat="43.91405176282142" lon="10.897707280893254"><ele>58.0</ele><time>2026-05-02T17:21:36.996Z</time></trkpt><trkpt lat="43.914078190157234" lon="10.898040872833736"><ele>58.0</ele><time>2026-05-02T17:21:37.996Z</time></trkpt><trkpt lat="43.914102445208655" lon="10.898368010232277"><ele>57.5</ele><time>2026-05-02T17:21:38.996Z</time></trkpt><trkpt lat="43.91412608550008" lon="10.898697442091072"><ele>57.0</ele><time>2026-05-02T17:21:39.996Z</time></trkpt><trkpt lat="43.91415044083522" lon="10.899031186121004"><ele>58.0</ele><time>2026-05-02T17:21:40.996Z</time></trkpt><trkpt lat="43.91417873333565" lon="10.89936601847326"><ele>59.0</ele><time>2026-05-02T17:21:41.999Z</time></trkpt><trkpt lat="43.91420692954054" lon="10.899702086758902"><ele>59.0</ele><time>2026-05-02T17:21:43Z</time></trkpt><trkpt lat="43.91423375354736" lon="10.900039567556798"><ele>59.0</ele><time>2026-05-02T17:21:43.999Z</time></trkpt><trkpt lat="43.91425867888337" lon="10.900377817090153"><ele>60.0</ele><time>2026-05-02T17:21:45Z</time></trkpt><trkpt lat="43.914284538175664" lon="10.900715101744584"><ele>61.0</ele><time>2026-05-02T17:21:46Z</time></trkpt><trkpt lat="43.91431405377593" lon="10.901050125911123"><ele>61.0</ele><time>2026-05-02T17:21:47Z</time></trkpt><trkpt lat="43.91434403317615" lon="10.901387544473726"><ele>61.0</ele><time>2026-05-02T17:21:48Z</time></trkpt><trkpt lat="43.91437290170803" lon="10.901727015028287"><ele>59.5</ele><time>2026-05-02T17:21:49Z</time></trkpt><trkpt lat="43.91440191850858" lon="10.902065115568494"><ele>58.0</ele><time>2026-05-02T17:21:50Z</time></trkpt><trkpt lat="43.91443288719048" lon="10.902404760825323"><ele>58.5</ele><time>2026-05-02T17:21:51Z</time></trkpt><trkpt lat="43.91446295402449" lon="10.902741681714405"><ele>59.0</ele><time>2026-05-02T17:21:52Z</time></trkpt><trkpt lat="43.91449406028622" lon="10.903077233846176"><ele>59.0</ele><time>2026-05-02T17:21:53Z</time></trkpt><trkpt lat="43.914524445592576" lon="10.903410315222297"><ele>59.0</ele><time>2026-05-02T17:21:54Z</time></trkpt><trkpt lat="43.91455089057802" lon="10.903744741708293"><ele>59.0</ele><time>2026-05-02T17:21:55Z</time></trkpt><trkpt lat="43.914580138005014" lon="10.90407826130635"><ele>59.0</ele><time>2026-05-02T17:21:56Z</time></trkpt><trkpt lat="43.914608079043575" lon="10.904414950291127"><ele>59.0</ele><time>2026-05-02T17:21:57Z</time></trkpt><trkpt lat="43.91463419884047" lon="10.904753287333111"><ele>59.0</ele><time>2026-05-02T17:21:58Z</time></trkpt><trkpt lat="43.91466392091792" lon="10.905096290439296"><ele>59.0</ele><time>2026-05-02T17:21:58.999Z</time></trkpt><trkpt lat="43.914692053561794" lon="10.905444409598328"><ele>59.0</ele><time>2026-05-02T17:21:59.999Z</time></trkpt><trkpt lat="43.91471733662698" lon="10.905801288009272"><ele>59.5</ele><time>2026-05-02T17:22:00.999Z</time></trkpt><trkpt lat="43.914740875698875" lon="10.906157578826143"><ele>60.0</ele><time>2026-05-02T17:22:01.999Z</time></trkpt><trkpt lat="43.91476533268633" lon="10.906513841408"><ele>59.0</ele><time>2026-05-02T17:22:02.999Z</time></trkpt><trkpt lat="43.91478977411157" lon="10.906871321799608"><ele>58.0</ele><time>2026-05-02T17:22:03.999Z</time></trkpt><trkpt lat="43.91481406156923" lon="10.90723533691655"><ele>57.5</ele><time>2026-05-02T17:22:04.999Z</time></trkpt><trkpt lat="43.91483638082864" lon="10.907600478312895"><ele>57.0</ele><time>2026-05-02T17:22:05.999Z</time></trkpt><trkpt lat="43.91485412936435" lon="10.907964026811763"><ele>57.0</ele><time>2026-05-02T17:22:06.999Z</time></trkpt><trkpt lat="43.91486338382938" lon="10.908329441261877"><ele>57.0</ele><time>2026-05-02T17:22:07.999Z</time></trkpt><trkpt lat="43.91486802915805" lon="10.908695772620012"><ele>56.0</ele><time>2026-05-02T17:22:08.999Z</time></trkpt><trkpt lat="43.914867827107166" lon="10.909061463251524"><ele>55.0</ele><time>2026-05-02T17:22:09.999Z</time></trkpt><trkpt lat="43.914864964716664" lon="10.909425532380554"><ele>55.0</ele><time>2026-05-02T17:22:10.999Z</time></trkpt><trkpt lat="43.914856728157986" lon="10.90979030646282"><ele>55.0</ele><time>2026-05-02T17:22:11.999Z</time></trkpt><trkpt lat="43.91484171329652" lon="10.910156617785784"><ele>56.0</ele><time>2026-05-02T17:22:12.999Z</time></trkpt><trkpt lat="43.9148218339435" lon="10.910521573962523"><ele>57.0</ele><time>2026-05-02T17:22:13.999Z</time></trkpt><trkpt lat="43.91479729818212" lon="10.910889458117305"><ele>58.0</ele><time>2026-05-02T17:22:14.999Z</time></trkpt><trkpt lat="43.91476690899897" lon="10.911255860798159"><ele>59.0</ele><time>2026-05-02T17:22:15.999Z</time></trkpt><trkpt lat="43.91472791821077" lon="10.911625525719574"><ele>57.5</ele><time>2026-05-02T17:22:16.999Z</time></trkpt><trkpt lat="43.9146858842585" lon="10.911994122367323"><ele>56.0</ele><time>2026-05-02T17:22:17.999Z</time></trkpt><trkpt lat="43.91464297184091" lon="10.912360938624095"><ele>56.0</ele><time>2026-05-02T17:22:18.999Z</time></trkpt><trkpt lat="43.9145975094777" lon="10.912729496183653"><ele>56.0</ele><time>2026-05-02T17:22:19.999Z</time></trkpt><trkpt lat="43.9145513982378" lon="10.913096712578621"><ele>54.5</ele><time>2026-05-02T17:22:20.999Z</time></trkpt><trkpt lat="43.91450291052892" lon="10.913462717790807"><ele>53.0</ele><time>2026-05-02T17:22:21.999Z</time></trkpt><trkpt lat="43.91445465872067" lon="10.913830057909427"><ele>53.0</ele><time>2026-05-02T17:22:22.999Z</time></trkpt><trkpt lat="43.91440680116165" lon="10.914196667132213"><ele>53.0</ele><time>2026-05-02T17:22:23.999Z</time></trkpt><trkpt lat="43.91435895539422" lon="10.914565245949492"><ele>53.0</ele><time>2026-05-02T17:22:24.999Z</time></trkpt><trkpt lat="43.914311291623754" lon="10.91493434642311"><ele>53.0</ele><time>2026-05-02T17:22:25.999Z</time></trkpt><trkpt lat="43.91426429173388" lon="10.915302847192137"><ele>53.5</ele><time>2026-05-02T17:22:26.999Z</time></trkpt><trkpt lat="43.91421699180158" lon="10.915671856809034"><ele>54.0</ele><time>2026-05-02T17:22:27.999Z</time></trkpt><trkpt lat="43.91416971388987" lon="10.916039143762061"><ele>54.5</ele><time>2026-05-02T17:22:28.999Z</time></trkpt><trkpt lat="43.91412180339502" lon="10.916407250301711"><ele>55.0</ele><time>2026-05-02T17:22:29.999Z</time></trkpt><trkpt lat="43.91407487337169" lon="10.916772484176207"><ele>55.0</ele><time>2026-05-02T17:22:30.999Z</time></trkpt><trkpt lat="43.91402891772833" lon="10.917133522152506"><ele>55.0</ele><time>2026-05-02T17:22:31.999Z</time></trkpt><trkpt lat="43.913981928857034" lon="10.917495110779662"><ele>54.5</ele><time>2026-05-02T17:22:32.999Z</time></trkpt><trkpt lat="43.913936960625264" lon="10.917857356061035"><ele>54.0</ele><time>2026-05-02T17:22:33.999Z</time></trkpt><trkpt lat="43.91389046230232" lon="10.918220950387541"><ele>53.0</ele><time>2026-05-02T17:22:34.999Z</time></trkpt><trkpt lat="43.91384462442894" lon="10.918583154905969"><ele>52.0</ele><time>2026-05-02T17:22:35.998Z</time></trkpt><trkpt lat="43.913798653833396" lon="10.918947920302525"><ele>52.0</ele><time>2026-05-02T17:22:36.998Z</time></trkpt><trkpt lat="43.91375272850314" lon="10.919313822960628"><ele>52.0</ele><time>2026-05-02T17:22:37.998Z</time></trkpt><trkpt lat="43.913706271137706" lon="10.919680404462905"><ele>52.0</ele><time>2026-05-02T17:22:38.998Z</time></trkpt><trkpt lat="43.91365747320544" lon="10.920051765895886"><ele>52.0</ele><time>2026-05-02T17:22:39.998Z</time></trkpt><trkpt lat="43.913607858288124" lon="10.920423825947983"><ele>52.5</ele><time>2026-05-02T17:22:40.998Z</time></trkpt><trkpt lat="43.91356021576878" lon="10.920799342996679"><ele>53.0</ele><time>2026-05-02T17:22:41.998Z</time></trkpt><trkpt lat="43.913511818655714" lon="10.921171585267517"><ele>53.0</ele><time>2026-05-02T17:22:42.998Z</time></trkpt><trkpt lat="43.913461940387386" lon="10.921549886403755"><ele>53.0</ele><time>2026-05-02T17:22:43.998Z</time></trkpt><trkpt lat="43.91341372821163" lon="10.921925739241798"><ele>52.0</ele><time>2026-05-02T17:22:44.998Z</time></trkpt><trkpt lat="43.91336580360062" lon="10.922302847213777"><ele>51.0</ele><time>2026-05-02T17:22:45.998Z</time></trkpt><trkpt lat="43.9133188789795" lon="10.922681996251185"><ele>51.0</ele><time>2026-05-02T17:22:46.998Z</time></trkpt><trkpt lat="43.913270529079085" lon="10.923065779410617"><ele>51.0</ele><time>2026-05-02T17:22:47.998Z</time></trkpt><trkpt lat="43.91322294775722" lon="10.923445738980003"><ele>51.0</ele><time>2026-05-02T17:22:48.998Z</time></trkpt><trkpt lat="43.9131751196972" lon="10.923826311547247"><ele>51.0</ele><time>2026-05-02T17:22:49.998Z</time></trkpt><trkpt lat="43.91312830525908" lon="10.924206202067527"><ele>50.5</ele><time>2026-05-02T17:22:50.998Z</time></trkpt><trkpt lat="43.91308209629859" lon="10.924586339252446"><ele>50.0</ele><time>2026-05-02T17:22:51.998Z</time></trkpt><trkpt lat="43.91303682689179" lon="10.92496463954668"><ele>50.5</ele><time>2026-05-02T17:22:52.998Z</time></trkpt><trkpt lat="43.912988882385015" lon="10.925345321633262"><ele>51.0</ele><time>2026-05-02T17:22:53.998Z</time></trkpt><trkpt lat="43.91293897489367" lon="10.92572536179413"><ele>51.5</ele><time>2026-05-02T17:22:54.998Z</time></trkpt><trkpt lat="43.912887005274406" lon="10.92610797654601"><ele>52.0</ele><time>2026-05-02T17:22:55.998Z</time></trkpt><trkpt lat="43.91283785620148" lon="10.926490553320784"><ele>51.0</ele><time>2026-05-02T17:22:56.998Z</time></trkpt><trkpt lat="43.9127883128424" lon="10.92687525461133"><ele>50.0</ele><time>2026-05-02T17:22:57.998Z</time></trkpt><trkpt lat="43.91273981762953" lon="10.92726315862907"><ele>50.5</ele><time>2026-05-02T17:22:58.998Z</time></trkpt><trkpt lat="43.91269137849327" lon="10.927654073511992"><ele>51.0</ele><time>2026-05-02T17:22:59.998Z</time></trkpt><trkpt lat="43.91264379997251" lon="10.928048413927884"><ele>50.0</ele><time>2026-05-02T17:23:00.998Z</time></trkpt><trkpt lat="43.91259756982122" lon="10.928454260001043"><ele>49.0</ele><time>2026-05-02T17:23:01.998Z</time></trkpt><trkpt lat="43.91255006346082" lon="10.928876326386805"><ele>49.5</ele><time>2026-05-02T17:23:02.998Z</time></trkpt><trkpt lat="43.91250157697635" lon="10.929316902912815"><ele>50.0</ele><time>2026-05-02T17:23:03.998Z</time></trkpt><trkpt lat="43.91244897715496" lon="10.929766925309643"><ele>50.0</ele><time>2026-05-02T17:23:04.998Z</time></trkpt><trkpt lat="43.91239229533409" lon="10.930224922530385"><ele>50.0</ele><time>2026-05-02T17:23:05.998Z</time></trkpt><trkpt lat="43.91233603406659" lon="10.930674918314908"><ele>49.5</ele><time>2026-05-02T17:23:06.998Z</time></trkpt><trkpt lat="43.912279517573" lon="10.931115080129866"><ele>49.0</ele><time>2026-05-02T17:23:07.998Z</time></trkpt><trkpt lat="43.912222264648236" lon="10.931553105860294"><ele>49.5</ele><time>2026-05-02T17:23:08.998Z</time></trkpt><trkpt lat="43.91215862155814" lon="10.931990347361525"><ele>50.0</ele><time>2026-05-02T17:23:09.998Z</time></trkpt><trkpt lat="43.9120959692525" lon="10.93242814961084"><ele>49.5</ele><time>2026-05-02T17:23:10.998Z</time></trkpt><trkpt lat="43.91202058977141" lon="10.932880833524289"><ele>49.0</ele><time>2026-05-02T17:23:11.998Z</time></trkpt><trkpt lat="43.91195334472539" lon="10.933347582014527"><ele>48.5</ele><time>2026-05-02T17:23:12.998Z</time></trkpt><trkpt lat="43.91190998589721" lon="10.933825957498915"><ele>48.0</ele><time>2026-05-02T17:23:13.997Z</time></trkpt><trkpt lat="43.91186098526647" lon="10.934294228747753"><ele>48.5</ele><time>2026-05-02T17:23:14.997Z</time></trkpt><trkpt lat="43.91180533155856" lon="10.934752234724266"><ele>49.0</ele><time>2026-05-02T17:23:15.997Z</time></trkpt><trkpt lat="43.91174772396432" lon="10.93520249088836"><ele>48.5</ele><time>2026-05-02T17:23:16.997Z</time></trkpt><trkpt lat="43.911691388298465" lon="10.93563367390508"><ele>48.0</ele><time>2026-05-02T17:23:17.997Z</time></trkpt><trkpt lat="43.911637132704044" lon="10.936053125822491"><ele>48.0</ele><time>2026-05-02T17:23:18.997Z</time></trkpt><trkpt lat="43.91158524616507" lon="10.936462326504744"><ele>48.0</ele><time>2026-05-02T17:23:19.997Z</time></trkpt><trkpt lat="43.91153265343783" lon="10.936860477740677"><ele>49.0</ele><time>2026-05-02T17:23:20.997Z</time></trkpt><trkpt lat="43.91147956249603" lon="10.937251128266485"><ele>50.0</ele><time>2026-05-02T17:23:21.997Z</time></trkpt><trkpt lat="43.91142801581431" lon="10.937637366012849"><ele>50.0</ele><time>2026-05-02T17:23:22.997Z</time></trkpt><trkpt lat="43.911378459498486" lon="10.938021009545404"><ele>50.0</ele><time>2026-05-02T17:23:23.997Z</time></trkpt><trkpt lat="43.911328724851266" lon="10.93840511243821"><ele>50.5</ele><time>2026-05-02T17:23:24.997Z</time></trkpt><trkpt lat="43.91128193774022" lon="10.938783853061615"><ele>51.0</ele><time>2026-05-02T17:23:25.997Z</time></trkpt><trkpt lat="43.91123597574335" lon="10.939152715338093"><ele>50.5</ele><time>2026-05-02T17:23:26.997Z</time></trkpt><trkpt lat="43.91118933419101" lon="10.939512504931674"><ele>50.0</ele><time>2026-05-02T17:23:27.997Z</time></trkpt><trkpt lat="43.911143699513154" lon="10.939870841290592"><ele>50.0</ele><time>2026-05-02T17:23:28.997Z</time></trkpt><trkpt lat="43.91109866700622" lon="10.94022284081591"><ele>50.0</ele><time>2026-05-02T17:23:29.997Z</time></trkpt><trkpt lat="43.911054064811" lon="10.940570548133136"><ele>49.0</ele><time>2026-05-02T17:23:30.997Z</time></trkpt><trkpt lat="43.911007885949246" lon="10.940914227899064"><ele>48.0</ele><time>2026-05-02T17:23:31.997Z</time></trkpt><trkpt lat="43.91096242727792" lon="10.941254457248553"><ele>48.0</ele><time>2026-05-02T17:23:32.997Z</time></trkpt><trkpt lat="43.910919455911966" lon="10.941587128341975"><ele>48.0</ele><time>2026-05-02T17:23:33.997Z</time></trkpt><trkpt lat="43.910874559143096" lon="10.941908370875366"><ele>48.0</ele><time>2026-05-02T17:23:34.997Z</time></trkpt><trkpt lat="43.910824488180296" lon="10.942226889636729"><ele>48.0</ele><time>2026-05-02T17:23:35.997Z</time></trkpt><trkpt lat="43.910769345913494" lon="10.942543812736314"><ele>48.0</ele><time>2026-05-02T17:23:36.997Z</time></trkpt><trkpt lat="43.910709335221114" lon="10.942862504657567"><ele>48.0</ele><time>2026-05-02T17:23:37.997Z</time></trkpt><trkpt lat="43.91064332845951" lon="10.943171586480371"><ele>48.0</ele><time>2026-05-02T17:23:38.997Z</time></trkpt><trkpt lat="43.91057375089387" lon="10.943470930647445"><ele>48.0</ele><time>2026-05-02T17:23:39.997Z</time></trkpt><trkpt lat="43.91050166446907" lon="10.94376431839668"><ele>48.0</ele><time>2026-05-02T17:23:40.997Z</time></trkpt><trkpt lat="43.910422966241676" lon="10.944066334266253"><ele>48.0</ele><time>2026-05-02T17:23:41.997Z</time></trkpt><trkpt lat="43.91033857126593" lon="10.944370876195226"><ele>48.0</ele><time>2026-05-02T17:23:42.997Z</time></trkpt><trkpt lat="43.9102508316827" lon="10.944673018572841"><ele>48.0</ele><time>2026-05-02T17:23:43.997Z</time></trkpt><trkpt lat="43.91016357217626" lon="10.94495899771765"><ele>47.666666666666664</ele><time>2026-05-02T17:23:44.997Z</time></trkpt><trkpt lat="43.91007619007269" lon="10.945223617536818"><ele>47.33333333333333</ele><time>2026-05-02T17:23:45.997Z</time></trkpt><trkpt lat="43.90998987470169" lon="10.945475285315762"><ele>47.0</ele><time>2026-05-02T17:23:47Z</time></trkpt><trkpt lat="43.90990378569434" lon="10.945728800240973"><ele>46.666666666666664</ele><time>2026-05-02T17:23:48Z</time></trkpt><trkpt lat="43.90981910946573" lon="10.945993641876917"><ele>46.333333333333336</ele><time>2026-05-02T17:23:49Z</time></trkpt><trkpt lat="43.90973674721341" lon="10.946265916794998"><ele>46.0</ele><time>2026-05-02T17:23:50Z</time></trkpt><trkpt lat="43.90965440879131" lon="10.946543892698697"><ele>45.66666666666667</ele><time>2026-05-02T17:23:51Z</time></trkpt><trkpt lat="43.90956815604978" lon="10.946822366736809"><ele>45.333333333333336</ele><time>2026-05-02T17:23:52Z</time></trkpt><trkpt lat="43.90947844861492" lon="10.947101637533802"><ele>45.0</ele><time>2026-05-02T17:23:53Z</time></trkpt><trkpt lat="43.909386856896745" lon="10.947384352571271"><ele>45.0</ele><time>2026-05-02T17:23:54Z</time></trkpt><trkpt lat="43.909296192559985" lon="10.947673893756209"><ele>45.0</ele><time>2026-05-02T17:23:55Z</time></trkpt><trkpt lat="43.90920825057185" lon="10.947968540917879"><ele>45.0</ele><time>2026-05-02T17:23:56Z</time></trkpt><trkpt lat="43.90912119580247" lon="10.948263543943632"><ele>45.0</ele><time>2026-05-02T17:23:57Z</time></trkpt><trkpt lat="43.909034412310255" lon="10.94855876817457"><ele>45.5</ele><time>2026-05-02T17:23:58Z</time></trkpt><trkpt lat="43.908947522696096" lon="10.948847938794401"><ele>46.0</ele><time>2026-05-02T17:23:59Z</time></trkpt><trkpt lat="43.90885447018996" lon="10.949141737537008"><ele>45.5</ele><time>2026-05-02T17:24:00Z</time></trkpt><trkpt lat="43.90875982537109" lon="10.949440167038658"><ele>45.0</ele><time>2026-05-02T17:24:01Z</time></trkpt><trkpt lat="43.90866749112849" lon="10.9497421945698"><ele>44.0</ele><time>2026-05-02T17:24:02Z</time></trkpt><trkpt lat="43.90857956298987" lon="10.95004375335707"><ele>43.0</ele><time>2026-05-02T17:24:03Z</time></trkpt><trkpt lat="43.908494908662014" lon="10.950341517995698"><ele>44.0</ele><time>2026-05-02T17:24:04Z</time></trkpt><trkpt lat="43.908407984122135" lon="10.950636673450903"><ele>45.0</ele><time>2026-05-02T17:24:05Z</time></trkpt><trkpt lat="43.90832232286377" lon="10.950925028623175"><ele>45.0</ele><time>2026-05-02T17:24:06Z</time></trkpt><trkpt lat="43.9082343352694" lon="10.951211928229581"><ele>45.0</ele><time>2026-05-02T17:24:07Z</time></trkpt><trkpt lat="43.90814586829014" lon="10.951499578474944"><ele>45.5</ele><time>2026-05-02T17:24:08Z</time></trkpt><trkpt lat="43.90805576267768" lon="10.951787698110524"><ele>46.0</ele><time>2026-05-02T17:24:09Z</time></trkpt><trkpt lat="43.907961757391895" lon="10.952076555395832"><ele>46.0</ele><time>2026-05-02T17:24:10Z</time></trkpt><trkpt lat="43.90786951603237" lon="10.952369245805846"><ele>46.0</ele><time>2026-05-02T17:24:10.999Z</time></trkpt><trkpt lat="43.907785260871" lon="10.952666656521451"><ele>46.0</ele><time>2026-05-02T17:24:11.999Z</time></trkpt><trkpt lat="43.90770249693271" lon="10.952963860398611"><ele>46.0</ele><time>2026-05-02T17:24:12.999Z</time></trkpt><trkpt lat="43.90761824609867" lon="10.95325536813463"><ele>45.66666666666667</ele><time>2026-05-02T17:24:13.999Z</time></trkpt><trkpt lat="43.90753256902939" lon="10.95354291408228"><ele>45.333333333333336</ele><time>2026-05-02T17:24:14.999Z</time></trkpt><trkpt lat="43.9074456709949" lon="10.95383130996951"><ele>45.0</ele><time>2026-05-02T17:24:15.999Z</time></trkpt><trkpt lat="43.90735745100876" lon="10.954117051627883"><ele>45.0</ele><time>2026-05-02T17:24:16.999Z</time></trkpt><trkpt lat="43.90726921083195" lon="10.954401089177514"><ele>45.0</ele><time>2026-05-02T17:24:17.999Z</time></trkpt><trkpt lat="43.907181657215055" lon="10.954684590482065"><ele>45.0</ele><time>2026-05-02T17:24:18.999Z</time></trkpt><trkpt lat="43.90709532572694" lon="10.954967421860001"><ele>45.333333333333336</ele><time>2026-05-02T17:24:19.999Z</time></trkpt><trkpt lat="43.90700904751763" lon="10.955251263070112"><ele>45.66666666666667</ele><time>2026-05-02T17:24:20.999Z</time></trkpt><trkpt lat="43.90692099568231" lon="10.955535839813178"><ele>46.0</ele><time>2026-05-02T17:24:21.999Z</time></trkpt><trkpt lat="43.906830873523624" lon="10.955823654588766"><ele>45.0</ele><time>2026-05-02T17:24:22.999Z</time></trkpt><trkpt lat="43.90673842891992" lon="10.956118315728258"><ele>44.0</ele><time>2026-05-02T17:24:23.999Z</time></trkpt><trkpt lat="43.906648458478834" lon="10.956415686804096"><ele>44.5</ele><time>2026-05-02T17:24:24.999Z</time></trkpt><trkpt lat="43.90655828882982" lon="10.956716607287532"><ele>45.0</ele><time>2026-05-02T17:24:25.999Z</time></trkpt><trkpt lat="43.90646994304053" lon="10.957014238918255"><ele>45.0</ele><time>2026-05-02T17:24:26.999Z</time></trkpt><trkpt lat="43.906378283741496" lon="10.95731213343826"><ele>45.0</ele><time>2026-05-02T17:24:27.999Z</time></trkpt><trkpt lat="43.90628428118512" lon="10.957611843208332"><ele>45.5</ele><time>2026-05-02T17:24:28.999Z</time></trkpt><trkpt lat="43.90619244307375" lon="10.957917300204043"><ele>46.0</ele><time>2026-05-02T17:24:29.999Z</time></trkpt><trkpt lat="43.90610351021036" lon="10.95823771593819"><ele>45.5</ele><time>2026-05-02T17:24:30.999Z</time></trkpt><trkpt lat="43.90601499103083" lon="10.958559710758417"><ele>45.0</ele><time>2026-05-02T17:24:31.999Z</time></trkpt><trkpt lat="43.90592244768102" lon="10.95888415336996"><ele>45.0</ele><time>2026-05-02T17:24:32.999Z</time></trkpt><trkpt lat="43.90582869568144" lon="10.959209705963188"><ele>45.0</ele><time>2026-05-02T17:24:33.999Z</time></trkpt><trkpt lat="43.90573383405587" lon="10.959535970333826"><ele>45.0</ele><time>2026-05-02T17:24:34.999Z</time></trkpt><trkpt lat="43.905635254780975" lon="10.95986953176115"><ele>45.0</ele><time>2026-05-02T17:24:35.999Z</time></trkpt><trkpt lat="43.90553790344842" lon="10.96020577690731"><ele>45.0</ele><time>2026-05-02T17:24:36.999Z</time></trkpt><trkpt lat="43.90544014809557" lon="10.960547678786188"><ele>45.0</ele><time>2026-05-02T17:24:37.999Z</time></trkpt><trkpt lat="43.90534120260078" lon="10.960897385214254"><ele>43.5</ele><time>2026-05-02T17:24:38.999Z</time></trkpt><trkpt lat="43.905237674193785" lon="10.961248108564265"><ele>42.0</ele><time>2026-05-02T17:24:39.999Z</time></trkpt><trkpt lat="43.905128528457354" lon="10.96159662114956"><ele>42.5</ele><time>2026-05-02T17:24:40.999Z</time></trkpt><trkpt lat="43.90501073159989" lon="10.961954286815626"><ele>43.0</ele><time>2026-05-02T17:24:41.999Z</time></trkpt><trkpt lat="43.90488998427561" lon="10.962315293963458"><ele>43.0</ele><time>2026-05-02T17:24:42.999Z</time></trkpt><trkpt lat="43.90477187738356" lon="10.962674953752567"><ele>43.0</ele><time>2026-05-02T17:24:43.999Z</time></trkpt><trkpt lat="43.904660368930294" lon="10.963032480874919"><ele>42.5</ele><time>2026-05-02T17:24:44.999Z</time></trkpt><trkpt lat="43.904552061177185" lon="10.963385406785756"><ele>42.0</ele><time>2026-05-02T17:24:45.999Z</time></trkpt><trkpt lat="43.90444979626899" lon="10.963730476376806"><ele>42.0</ele><time>2026-05-02T17:24:46.998Z</time></trkpt><trkpt lat="43.90434717798201" lon="10.964075137960876"><ele>42.0</ele><time>2026-05-02T17:24:47.998Z</time></trkpt><trkpt lat="43.90424767279277" lon="10.964410359618519"><ele>42.5</ele><time>2026-05-02T17:24:48.998Z</time></trkpt><trkpt lat="43.90414930761391" lon="10.964733522677449"><ele>43.0</ele><time>2026-05-02T17:24:49.998Z</time></trkpt><trkpt lat="43.90405352562346" lon="10.965051552534963"><ele>43.0</ele><time>2026-05-02T17:24:50.998Z</time></trkpt><trkpt lat="43.90396262967675" lon="10.96535398603819"><ele>43.0</ele><time>2026-05-02T17:24:51.998Z</time></trkpt><trkpt lat="43.90387377807742" lon="10.965644385166387"><ele>42.66666666666667</ele><time>2026-05-02T17:24:52.998Z</time></trkpt><trkpt lat="43.90378749424485" lon="10.96592955432899"><ele>42.333333333333336</ele><time>2026-05-02T17:24:53.998Z</time></trkpt><trkpt lat="43.90370079049965" lon="10.966211109031272"><ele>42.0</ele><time>2026-05-02T17:24:54.998Z</time></trkpt><trkpt lat="43.903611512833116" lon="10.966496678435899"><ele>42.0</ele><time>2026-05-02T17:24:55.998Z</time></trkpt><trkpt lat="43.903520506179696" lon="10.966790647265418"><ele>42.0</ele><time>2026-05-02T17:24:56.998Z</time></trkpt><trkpt lat="43.903428999861696" lon="10.96708938390014"><ele>42.0</ele><time>2026-05-02T17:24:57.998Z</time></trkpt><trkpt lat="43.903336505676684" lon="10.967388481476839"><ele>42.0</ele><time>2026-05-02T17:24:58.998Z</time></trkpt><trkpt lat="43.90324380624574" lon="10.967690207494792"><ele>42.0</ele><time>2026-05-02T17:24:59.998Z</time></trkpt><trkpt lat="43.90315423676284" lon="10.967991479013318"><ele>42.0</ele><time>2026-05-02T17:25:00.998Z</time></trkpt><trkpt lat="43.90306257743928" lon="10.968291570666569"><ele>42.0</ele><time>2026-05-02T17:25:01.998Z</time></trkpt><trkpt lat="43.902969821246955" lon="10.968592621118688"><ele>42.0</ele><time>2026-05-02T17:25:02.998Z</time></trkpt><trkpt lat="43.902877018694156" lon="10.968893528084855"><ele>42.5</ele><time>2026-05-02T17:25:03.998Z</time></trkpt><trkpt lat="43.90278344921281" lon="10.969196550120522"><ele>43.0</ele><time>2026-05-02T17:25:04.998Z</time></trkpt><trkpt lat="43.902691523424124" lon="10.969498455779812"><ele>43.0</ele><time>2026-05-02T17:25:05.998Z</time></trkpt><trkpt lat="43.902597551877456" lon="10.969802441184028"><ele>43.0</ele><time>2026-05-02T17:25:06.998Z</time></trkpt><trkpt lat="43.90250687136024" lon="10.970106562877877"><ele>43.0</ele><time>2026-05-02T17:25:07.998Z</time></trkpt><trkpt lat="43.90241412700372" lon="10.970414666317332"><ele>43.0</ele><time>2026-05-02T17:25:08.998Z</time></trkpt><trkpt lat="43.902317965911784" lon="10.97072160838608"><ele>42.5</ele><time>2026-05-02T17:25:09.998Z</time></trkpt><trkpt lat="43.90221889575852" lon="10.97102745038797"><ele>42.0</ele><time>2026-05-02T17:25:10.998Z</time></trkpt><trkpt lat="43.902121215566204" lon="10.971333613658164"><ele>42.0</ele><time>2026-05-02T17:25:11.998Z</time></trkpt><trkpt lat="43.902030528113" lon="10.971645687064996"><ele>42.0</ele><time>2026-05-02T17:25:12.998Z</time></trkpt><trkpt lat="43.90193682284472" lon="10.971954944695026"><ele>41.5</ele><time>2026-05-02T17:25:13.998Z</time></trkpt><trkpt lat="43.9018417597786" lon="10.972265546757383"><ele>41.0</ele><time>2026-05-02T17:25:14.998Z</time></trkpt><trkpt lat="43.90174525445992" lon="10.972578007219402"><ele>41.0</ele><time>2026-05-02T17:25:15.998Z</time></trkpt><trkpt lat="43.90165093565887" lon="10.972889436807426"><ele>41.0</ele><time>2026-05-02T17:25:16.998Z</time></trkpt><trkpt lat="43.9015590202297" lon="10.973207879254513"><ele>41.0</ele><time>2026-05-02T17:25:17.998Z</time></trkpt><trkpt lat="43.90146941153745" lon="10.973530611769368"><ele>41.0</ele><time>2026-05-02T17:25:18.998Z</time></trkpt><trkpt lat="43.90137923676776" lon="10.97385340043747"><ele>41.0</ele><time>2026-05-02T17:25:19.998Z</time></trkpt><trkpt lat="43.901281668181284" lon="10.9741702607031"><ele>41.0</ele><time>2026-05-02T17:25:20.998Z</time></trkpt><trkpt lat="43.90118221968477" lon="10.974489129104068"><ele>41.0</ele><time>2026-05-02T17:25:21.998Z</time></trkpt><trkpt lat="43.90108448472283" lon="10.974809221784085"><ele>41.0</ele><time>2026-05-02T17:25:22.998Z</time></trkpt><trkpt lat="43.900987188193604" lon="10.9751289297507"><ele>41.0</ele><time>2026-05-02T17:25:23.998Z</time></trkpt><trkpt lat="43.90089006183601" lon="10.975449281450764"><ele>41.0</ele><time>2026-05-02T17:25:24.997Z</time></trkpt><trkpt lat="43.90079314051126" lon="10.975768568477958"><ele>41.0</ele><time>2026-05-02T17:25:25.997Z</time></trkpt><trkpt lat="43.90069766554751" lon="10.976086361920329"><ele>41.0</ele><time>2026-05-02T17:25:26.997Z</time></trkpt><trkpt lat="43.900601856231965" lon="10.97640415365846"><ele>41.0</ele><time>2026-05-02T17:25:27.997Z</time></trkpt><trkpt lat="43.90050548094041" lon="10.97672245106554"><ele>41.0</ele><time>2026-05-02T17:25:28.997Z</time></trkpt><trkpt lat="43.900408162146874" lon="10.977041601184665"><ele>41.0</ele><time>2026-05-02T17:25:29.997Z</time></trkpt><trkpt lat="43.900310290515286" lon="10.977361059463608"><ele>41.0</ele><time>2026-05-02T17:25:30.997Z</time></trkpt><trkpt lat="43.90021430535958" lon="10.97767596302299"><ele>41.0</ele><time>2026-05-02T17:25:31.997Z</time></trkpt><trkpt lat="43.90011801380396" lon="10.977994413862096"><ele>41.0</ele><time>2026-05-02T17:25:32.997Z</time></trkpt><trkpt lat="43.9000209169368" lon="10.978312775990164"><ele>41.0</ele><time>2026-05-02T17:25:33.997Z</time></trkpt><trkpt lat="43.8999239944112" lon="10.978630925589915"><ele>41.0</ele><time>2026-05-02T17:25:34.997Z</time></trkpt><trkpt lat="43.899825328366674" lon="10.97895129028495"><ele>41.5</ele><time>2026-05-02T17:25:35.997Z</time></trkpt><trkpt lat="43.899726875348364" lon="10.979270295322973"><ele>42.0</ele><time>2026-05-02T17:25:36.997Z</time></trkpt><trkpt lat="43.899630743092395" lon="10.979588003603409"><ele>42.0</ele><time>2026-05-02T17:25:37.997Z</time></trkpt><trkpt lat="43.899534348669995" lon="10.979907311513612"><ele>42.0</ele><time>2026-05-02T17:25:38.997Z</time></trkpt><trkpt lat="43.89943871829865" lon="10.980224681206952"><ele>42.0</ele><time>2026-05-02T17:25:39.997Z</time></trkpt><trkpt lat="43.89934351138635" lon="10.98053750242425"><ele>42.0</ele><time>2026-05-02T17:25:40.997Z</time></trkpt><trkpt lat="43.899249147755725" lon="10.980848567096572"><ele>41.5</ele><time>2026-05-02T17:25:41.997Z</time></trkpt><trkpt lat="43.89915518149213" lon="10.981157923565528"><ele>41.0</ele><time>2026-05-02T17:25:42.997Z</time></trkpt><trkpt lat="43.89906044340044" lon="10.981467899756497"><ele>41.0</ele><time>2026-05-02T17:25:43.997Z</time></trkpt><trkpt lat="43.89896534285345" lon="10.981778497979796"><ele>41.0</ele><time>2026-05-02T17:25:44.997Z</time></trkpt><trkpt lat="43.89887192248177" lon="10.982089229388952"><ele>41.0</ele><time>2026-05-02T17:25:45.997Z</time></trkpt><trkpt lat="43.89878014027997" lon="10.982391003754959"><ele>41.0</ele><time>2026-05-02T17:25:46.997Z</time></trkpt><trkpt lat="43.89869215647678" lon="10.982686923405753"><ele>42.0</ele><time>2026-05-02T17:25:47.997Z</time></trkpt><trkpt lat="43.89860249970797" lon="10.982985686538589"><ele>43.0</ele><time>2026-05-02T17:25:48.997Z</time></trkpt><trkpt lat="43.8985121339791" lon="10.983283231978469"><ele>42.5</ele><time>2026-05-02T17:25:49.997Z</time></trkpt><trkpt lat="43.89841883138678" lon="10.983579425016975"><ele>42.0</ele><time>2026-05-02T17:25:50.997Z</time></trkpt><trkpt lat="43.89832328150364" lon="10.983880692113672"><ele>42.0</ele><time>2026-05-02T17:25:51.997Z</time></trkpt><trkpt lat="43.89823008291427" lon="10.984184912915316"><ele>42.0</ele><time>2026-05-02T17:25:53Z</time></trkpt><trkpt lat="43.898143689391055" lon="10.984489354157391"><ele>42.0</ele><time>2026-05-02T17:25:54Z</time></trkpt><trkpt lat="43.89806110743917" lon="10.984788566548824"><ele>42.0</ele><time>2026-05-02T17:25:55Z</time></trkpt><trkpt lat="43.8979780472041" lon="10.98508628691088"><ele>41.0</ele><time>2026-05-02T17:25:56Z</time></trkpt><trkpt lat="43.89789449920314" lon="10.985384977505603"><ele>40.0</ele><time>2026-05-02T17:25:57Z</time></trkpt><trkpt lat="43.8978091550885" lon="10.985689771257565"><ele>40.5</ele><time>2026-05-02T17:25:58Z</time></trkpt><trkpt lat="43.89772268288318" lon="10.985997941468224"><ele>41.0</ele><time>2026-05-02T17:25:59Z</time></trkpt><trkpt lat="43.89763116614847" lon="10.986311696099582"><ele>40.5</ele><time>2026-05-02T17:26:00Z</time></trkpt><trkpt lat="43.89752692892076" lon="10.98662278087541"><ele>40.0</ele><time>2026-05-02T17:26:01Z</time></trkpt><trkpt lat="43.89741962882166" lon="10.986931203456544"><ele>40.0</ele><time>2026-05-02T17:26:02Z</time></trkpt><trkpt lat="43.89732226443258" lon="10.987243241212699"><ele>40.0</ele><time>2026-05-02T17:26:03Z</time></trkpt><trkpt lat="43.897227567889615" lon="10.98755193283418"><ele>40.0</ele><time>2026-05-02T17:26:04Z</time></trkpt><trkpt lat="43.89713371495065" lon="10.987852573081407"><ele>40.0</ele><time>2026-05-02T17:26:05Z</time></trkpt><trkpt lat="43.897041872616036" lon="10.988148810572815"><ele>40.5</ele><time>2026-05-02T17:26:06Z</time></trkpt><trkpt lat="43.89694914423584" lon="10.98844574229474"><ele>41.0</ele><time>2026-05-02T17:26:07Z</time></trkpt><trkpt lat="43.89685656699327" lon="10.988741953507086"><ele>41.0</ele><time>2026-05-02T17:26:08Z</time></trkpt><trkpt lat="43.89676685653807" lon="10.989036476681031"><ele>41.0</ele><time>2026-05-02T17:26:09Z</time></trkpt><trkpt lat="43.896678864158744" lon="10.989322163102612"><ele>41.0</ele><time>2026-05-02T17:26:10Z</time></trkpt><trkpt lat="43.89659052553319" lon="10.989605847814722"><ele>41.0</ele><time>2026-05-02T17:26:11Z</time></trkpt><trkpt lat="43.89650010528684" lon="10.989891413291927"><ele>41.0</ele><time>2026-05-02T17:26:12Z</time></trkpt><trkpt lat="43.896407407632" lon="10.99018079987055"><ele>40.0</ele><time>2026-05-02T17:26:13Z</time></trkpt><trkpt lat="43.8963169102018" lon="10.99047415615088"><ele>39.0</ele><time>2026-05-02T17:26:14Z</time></trkpt><trkpt lat="43.896231137656436" lon="10.990768195560769"><ele>39.666666666666664</ele><time>2026-05-02T17:26:15Z</time></trkpt><trkpt lat="43.89614835963723" lon="10.991056336134205"><ele>40.33333333333333</ele><time>2026-05-02T17:26:16Z</time></trkpt><trkpt lat="43.89607375873507" lon="10.99133618189082"><ele>41.0</ele><time>2026-05-02T17:26:17Z</time></trkpt><trkpt lat="43.896002049140016" lon="10.991609317696392"><ele>41.0</ele><time>2026-05-02T17:26:18Z</time></trkpt><trkpt lat="43.89592709638258" lon="10.991892219775794"><ele>41.0</ele><time>2026-05-02T17:26:19Z</time></trkpt><trkpt lat="43.89584777912155" lon="10.992183968193165"><ele>41.0</ele><time>2026-05-02T17:26:20Z</time></trkpt><trkpt lat="43.89576160861223" lon="10.99247841297713"><ele>41.5</ele><time>2026-05-02T17:26:21Z</time></trkpt><trkpt lat="43.89566805623655" lon="10.992775903704311"><ele>42.0</ele><time>2026-05-02T17:26:22Z</time></trkpt><trkpt lat="43.895575512240754" lon="10.993071270471194"><ele>42.0</ele><time>2026-05-02T17:26:22.999Z</time></trkpt><trkpt lat="43.89548558193123" lon="10.993371125618872"><ele>42.0</ele><time>2026-05-02T17:26:23.999Z</time></trkpt><trkpt lat="43.89539569446058" lon="10.993674138171004"><ele>42.0</ele><time>2026-05-02T17:26:24.999Z</time></trkpt><trkpt lat="43.895303250106195" lon="10.993978906625978"><ele>42.0</ele><time>2026-05-02T17:26:25.999Z</time></trkpt><trkpt lat="43.89520849450802" lon="10.994285424247815"><ele>41.5</ele><time>2026-05-02T17:26:26.999Z</time></trkpt><trkpt lat="43.89511566121956" lon="10.994588927346488"><ele>41.0</ele><time>2026-05-02T17:26:27.999Z</time></trkpt><trkpt lat="43.895022902949925" lon="10.99489409040526"><ele>41.0</ele><time>2026-05-02T17:26:28.999Z</time></trkpt><trkpt lat="43.894930328581026" lon="10.995203603642588"><ele>41.0</ele><time>2026-05-02T17:26:29.999Z</time></trkpt><trkpt lat="43.89483664503282" lon="10.995516770850728"><ele>41.0</ele><time>2026-05-02T17:26:30.999Z</time></trkpt><trkpt lat="43.894741482709925" lon="10.99582908872188"><ele>41.0</ele><time>2026-05-02T17:26:31.999Z</time></trkpt><trkpt lat="43.89464700247306" lon="10.996141303793443"><ele>40.5</ele><time>2026-05-02T17:26:32.999Z</time></trkpt><trkpt lat="43.89455070469625" lon="10.996455915148688"><ele>40.0</ele><time>2026-05-02T17:26:33.999Z</time></trkpt><trkpt lat="43.894455060716226" lon="10.996767725781845"><ele>40.0</ele><time>2026-05-02T17:26:34.999Z</time></trkpt><trkpt lat="43.89435950481751" lon="10.997079144524326"><ele>40.0</ele><time>2026-05-02T17:26:35.999Z</time></trkpt><trkpt lat="43.89426401775503" lon="10.997392422206747"><ele>40.0</ele><time>2026-05-02T17:26:36.999Z</time></trkpt><trkpt lat="43.89417118708017" lon="10.997706133400886"><ele>40.0</ele><time>2026-05-02T17:26:37.999Z</time></trkpt><trkpt lat="43.89407657921575" lon="10.998021397487326"><ele>40.0</ele><time>2026-05-02T17:26:38.999Z</time></trkpt><trkpt lat="43.89398027353648" lon="10.998338768023835"><ele>40.0</ele><time>2026-05-02T17:26:39.999Z</time></trkpt><trkpt lat="43.893883317541494" lon="10.998657329456666"><ele>40.0</ele><time>2026-05-02T17:26:40.999Z</time></trkpt><trkpt lat="43.89378449519888" lon="10.998982017362284"><ele>40.0</ele><time>2026-05-02T17:26:41.999Z</time></trkpt><trkpt lat="43.89368505395232" lon="10.999310163181283"><ele>39.5</ele><time>2026-05-02T17:26:42.999Z</time></trkpt><trkpt lat="43.89358356447586" lon="10.999643755421307"><ele>39.0</ele><time>2026-05-02T17:26:43.999Z</time></trkpt><trkpt lat="43.89348035106573" lon="10.999983795234444"><ele>39.0</ele><time>2026-05-02T17:26:44.999Z</time></trkpt><trkpt lat="43.89337597347445" lon="11.00033100615253"><ele>39.0</ele><time>2026-05-02T17:26:45.999Z</time></trkpt><trkpt lat="43.89327090874108" lon="11.000684378454888"><ele>39.5</ele><time>2026-05-02T17:26:46.999Z</time></trkpt><trkpt lat="43.89316355421115" lon="11.00104229864987"><ele>40.0</ele><time>2026-05-02T17:26:47.999Z</time></trkpt><trkpt lat="43.89305143687778" lon="11.00140795521365"><ele>39.0</ele><time>2026-05-02T17:26:48.999Z</time></trkpt><trkpt lat="43.89293514172279" lon="11.001781988828107"><ele>38.0</ele><time>2026-05-02T17:26:49.999Z</time></trkpt><trkpt lat="43.89281971959612" lon="11.002160949184091"><ele>38.0</ele><time>2026-05-02T17:26:50.999Z</time></trkpt><trkpt lat="43.892702625283825" lon="11.002546878714618"><ele>38.0</ele><time>2026-05-02T17:26:51.999Z</time></trkpt><trkpt lat="43.89258321801651" lon="11.002940841305124"><ele>38.5</ele><time>2026-05-02T17:26:52.999Z</time></trkpt><trkpt lat="43.892464214759265" lon="11.003336946515894"><ele>39.0</ele><time>2026-05-02T17:26:53.999Z</time></trkpt><trkpt lat="43.892343039628805" lon="11.003736665017183"><ele>39.0</ele><time>2026-05-02T17:26:54.999Z</time></trkpt><trkpt lat="43.892219886969336" lon="11.004140554669746"><ele>39.0</ele><time>2026-05-02T17:26:55.999Z</time></trkpt><trkpt lat="43.89209499638962" lon="11.004551672557767"><ele>39.0</ele><time>2026-05-02T17:26:56.999Z</time></trkpt><trkpt lat="43.891969349290434" lon="11.004967470945601"><ele>39.0</ele><time>2026-05-02T17:26:57.999Z</time></trkpt><trkpt lat="43.89184175060476" lon="11.005389130633084"><ele>39.0</ele><time>2026-05-02T17:26:58.999Z</time></trkpt><trkpt lat="43.89171227702569" lon="11.005814907241271"><ele>39.0</ele><time>2026-05-02T17:26:59.999Z</time></trkpt><trkpt lat="43.891580803260304" lon="11.006253988282703"><ele>39.0</ele><time>2026-05-02T17:27:00.998Z</time></trkpt><trkpt lat="43.89144311580275" lon="11.006704658399368"><ele>39.0</ele><time>2026-05-02T17:27:01.998Z</time></trkpt><trkpt lat="43.89130448946146" lon="11.007158436985913"><ele>41.5</ele><time>2026-05-02T17:27:02.998Z</time></trkpt><trkpt lat="43.8911625622051" lon="11.007620103059974"><ele>44.0</ele><time>2026-05-02T17:27:03.998Z</time></trkpt><trkpt lat="43.89101574560541" lon="11.00808767368845"><ele>43.0</ele><time>2026-05-02T17:27:04.998Z</time></trkpt><trkpt lat="43.890871004198615" lon="11.0085544420925"><ele>42.0</ele><time>2026-05-02T17:27:05.998Z</time></trkpt><trkpt lat="43.890740558570386" lon="11.009011715584245"><ele>40.5</ele><time>2026-05-02T17:27:06.998Z</time></trkpt><trkpt lat="43.890626187230666" lon="11.00947349512363"><ele>39.0</ele><time>2026-05-02T17:27:07.998Z</time></trkpt><trkpt lat="43.89052317323382" lon="11.009944154835827"><ele>39.0</ele><time>2026-05-02T17:27:08.998Z</time></trkpt><trkpt lat="43.890419316812945" lon="11.010414661389065"><ele>39.0</ele><time>2026-05-02T17:27:09.998Z</time></trkpt><trkpt lat="43.89031648279505" lon="11.010879321804218"><ele>39.0</ele><time>2026-05-02T17:27:10.998Z</time></trkpt><trkpt lat="43.89021561721517" lon="11.011338588948398"><ele>39.0</ele><time>2026-05-02T17:27:11.998Z</time></trkpt><trkpt lat="43.89011684224879" lon="11.01179633022368"><ele>39.5</ele><time>2026-05-02T17:27:12.998Z</time></trkpt><trkpt lat="43.89001694551146" lon="11.012244477877788"><ele>40.0</ele><time>2026-05-02T17:27:13.998Z</time></trkpt><trkpt lat="43.88992001177849" lon="11.012692797503455"><ele>40.5</ele><time>2026-05-02T17:27:14.998Z</time></trkpt><trkpt lat="43.88982487479295" lon="11.013134805052582"><ele>41.0</ele><time>2026-05-02T17:27:15.998Z</time></trkpt><trkpt lat="43.88973062315539" lon="11.013574173543635"><ele>41.0</ele><time>2026-05-02T17:27:16.998Z</time></trkpt><trkpt lat="43.889635653448025" lon="11.013994088893732"><ele>41.0</ele><time>2026-05-02T17:27:17.998Z</time></trkpt><trkpt lat="43.88954808189382" lon="11.01439562002775"><ele>40.0</ele><time>2026-05-02T17:27:18.998Z</time></trkpt><trkpt lat="43.88946490655882" lon="11.01478071619709"><ele>39.0</ele><time>2026-05-02T17:27:19.998Z</time></trkpt><trkpt lat="43.88938486848902" lon="11.015148537684157"><ele>39.0</ele><time>2026-05-02T17:27:20.998Z</time></trkpt><trkpt lat="43.88930758709141" lon="11.015501277287788"><ele>39.0</ele><time>2026-05-02T17:27:21.998Z</time></trkpt><trkpt lat="43.88923398857261" lon="11.015837450992839"><ele>39.0</ele><time>2026-05-02T17:27:22.998Z</time></trkpt><trkpt lat="43.88916385575686" lon="11.016167083382294"><ele>39.0</ele><time>2026-05-02T17:27:23.998Z</time></trkpt><trkpt lat="43.889096420769" lon="11.016481988032558"><ele>39.0</ele><time>2026-05-02T17:27:24.998Z</time></trkpt><trkpt lat="43.88902867438848" lon="11.016801005820497"><ele>39.0</ele><time>2026-05-02T17:27:25.998Z</time></trkpt><trkpt lat="43.888958282285905" lon="11.017124625329021"><ele>39.0</ele><time>2026-05-02T17:27:26.998Z</time></trkpt><trkpt lat="43.88888778764328" lon="11.017449376079028"><ele>39.0</ele><time>2026-05-02T17:27:27.998Z</time></trkpt><trkpt lat="43.8888187197529" lon="11.017773722635063"><ele>39.5</ele><time>2026-05-02T17:27:28.998Z</time></trkpt><trkpt lat="43.88875023367871" lon="11.018098171186951"><ele>40.0</ele><time>2026-05-02T17:27:29.998Z</time></trkpt><trkpt lat="43.88868100584582" lon="11.018423471503816"><ele>40.5</ele><time>2026-05-02T17:27:30.998Z</time></trkpt><trkpt lat="43.88860947964971" lon="11.018751416014695"><ele>41.0</ele><time>2026-05-02T17:27:31.998Z</time></trkpt><trkpt lat="43.88853788208743" lon="11.019080587678665"><ele>41.0</ele><time>2026-05-02T17:27:32.998Z</time></trkpt><trkpt lat="43.888465972078755" lon="11.01941177724049"><ele>41.0</ele><time>2026-05-02T17:27:33.998Z</time></trkpt><trkpt lat="43.88839305302118" lon="11.019742464839078"><ele>41.5</ele><time>2026-05-02T17:27:34.998Z</time></trkpt><trkpt lat="43.8883170582733" lon="11.02007526887626"><ele>42.0</ele><time>2026-05-02T17:27:35.998Z</time></trkpt><trkpt lat="43.88823777587651" lon="11.02040821310955"><ele>42.0</ele><time>2026-05-02T17:27:36.998Z</time></trkpt><trkpt lat="43.88815230234232" lon="11.020740312417919"><ele>42.0</ele><time>2026-05-02T17:27:37.998Z</time></trkpt><trkpt lat="43.888058360577915" lon="11.021072492016842"><ele>42.5</ele><time>2026-05-02T17:27:38.997Z</time></trkpt><trkpt lat="43.887954196649154" lon="11.02140486521032"><ele>43.0</ele><time>2026-05-02T17:27:39.997Z</time></trkpt><trkpt lat="43.887847759481254" lon="11.021736575440949"><ele>43.0</ele><time>2026-05-02T17:27:40.997Z</time></trkpt><trkpt lat="43.88773603230584" lon="11.022067508429604"><ele>43.0</ele><time>2026-05-02T17:27:41.997Z</time></trkpt><trkpt lat="43.88761839192182" lon="11.022396282378148"><ele>42.0</ele><time>2026-05-02T17:27:42.997Z</time></trkpt><trkpt lat="43.887493240760634" lon="11.022722458834542"><ele>41.0</ele><time>2026-05-02T17:27:43.997Z</time></trkpt><trkpt lat="43.88736363885146" lon="11.023043489453949"><ele>40.5</ele><time>2026-05-02T17:27:44.997Z</time></trkpt><trkpt lat="43.88722646039875" lon="11.023362712743928"><ele>40.0</ele><time>2026-05-02T17:27:45.997Z</time></trkpt><trkpt lat="43.88708431926847" lon="11.02367708316902"><ele>40.0</ele><time>2026-05-02T17:27:46.997Z</time></trkpt><trkpt lat="43.88693623288563" lon="11.023986444182238"><ele>40.0</ele><time>2026-05-02T17:27:47.997Z</time></trkpt><trkpt lat="43.88678135992794" lon="11.024289666065147"><ele>40.0</ele><time>2026-05-02T17:27:48.997Z</time></trkpt><trkpt lat="43.88661791112008" lon="11.024593492164032"><ele>40.0</ele><time>2026-05-02T17:27:49.997Z</time></trkpt><trkpt lat="43.886452680819154" lon="11.024888823618557"><ele>40.5</ele><time>2026-05-02T17:27:50.997Z</time></trkpt><trkpt lat="43.886283650206124" lon="11.025175422713117"><ele>41.0</ele><time>2026-05-02T17:27:51.997Z</time></trkpt><trkpt lat="43.88610887230961" lon="11.025456785578921"><ele>41.0</ele><time>2026-05-02T17:27:52.997Z</time></trkpt><trkpt lat="43.885931969773154" lon="11.025731814775071"><ele>41.0</ele><time>2026-05-02T17:27:53.997Z</time></trkpt><trkpt lat="43.88574570066299" lon="11.026004554748777"><ele>40.0</ele><time>2026-05-02T17:27:54.997Z</time></trkpt><trkpt lat="43.885556165129096" lon="11.026268388108496"><ele>39.0</ele><time>2026-05-02T17:27:55.997Z</time></trkpt><trkpt lat="43.88536070645934" lon="11.026527872243962"><ele>39.5</ele><time>2026-05-02T17:27:56.997Z</time></trkpt><trkpt lat="43.88515876938195" lon="11.026779023121668"><ele>40.0</ele><time>2026-05-02T17:27:57.997Z</time></trkpt><trkpt lat="43.88494667754796" lon="11.027021122261017"><ele>40.0</ele><time>2026-05-02T17:27:59Z</time></trkpt><trkpt lat="43.88473169626141" lon="11.02725480673463"><ele>40.0</ele><time>2026-05-02T17:28:00Z</time></trkpt><trkpt lat="43.884510725071024" lon="11.02748013904691"><ele>40.0</ele><time>2026-05-02T17:28:01Z</time></trkpt><trkpt lat="43.884288401547636" lon="11.027697415190659"><ele>40.0</ele><time>2026-05-02T17:28:02Z</time></trkpt><trkpt lat="43.88406421761402" lon="11.027908652195553"><ele>39.0</ele><time>2026-05-02T17:28:03Z</time></trkpt><trkpt lat="43.8838389639297" lon="11.028113865049619"><ele>38.0</ele><time>2026-05-02T17:28:04Z</time></trkpt><trkpt lat="43.88361395650581" lon="11.028314078744357"><ele>38.5</ele><time>2026-05-02T17:28:05Z</time></trkpt><trkpt lat="43.883394470202035" lon="11.028509739882292"><ele>39.0</ele><time>2026-05-02T17:28:06Z</time></trkpt><trkpt lat="43.88318530341761" lon="11.028694732764851"><ele>39.0</ele><time>2026-05-02T17:28:07Z</time></trkpt><trkpt lat="43.88298507949349" lon="11.028869169057224"><ele>39.0</ele><time>2026-05-02T17:28:08Z</time></trkpt><trkpt lat="43.88278638862988" lon="11.029033619654761"><ele>39.0</ele><time>2026-05-02T17:28:09Z</time></trkpt><trkpt lat="43.88259218287744" lon="11.029183339480547"><ele>39.0</ele><time>2026-05-02T17:28:10Z</time></trkpt><trkpt lat="43.88239892573266" lon="11.029308031840277"><ele>39.0</ele><time>2026-05-02T17:28:11Z</time></trkpt><trkpt lat="43.88219357458825" lon="11.029416275723893"><ele>39.0</ele><time>2026-05-02T17:28:12Z</time></trkpt><trkpt lat="43.88198107843475" lon="11.029492117531785"><ele>39.0</ele><time>2026-05-02T17:28:13Z</time></trkpt><trkpt lat="43.88175798038693" lon="11.02953041992991"><ele>39.0</ele><time>2026-05-02T17:28:14Z</time></trkpt><trkpt lat="43.881534914320206" lon="11.029536450639233"><ele>38.333333333333336</ele><time>2026-05-02T17:28:15Z</time></trkpt><trkpt lat="43.88131258381488" lon="11.029509312139915"><ele>37.66666666666667</ele><time>2026-05-02T17:28:16Z</time></trkpt><trkpt lat="43.881097150508616" lon="11.02944987169024"><ele>37.0</ele><time>2026-05-02T17:28:17Z</time></trkpt><trkpt lat="43.88089849936278" lon="11.029395153659829"><ele>36.333333333333336</ele><time>2026-05-02T17:28:18Z</time></trkpt><trkpt lat="43.8807090517103" lon="11.02935630318624"><ele>35.666666666666664</ele><time>2026-05-02T17:28:19Z</time></trkpt><trkpt lat="43.88052406915531" lon="11.02934329529215"><ele>35.0</ele><time>2026-05-02T17:28:20Z</time></trkpt><trkpt lat="43.88034493943356" lon="11.029382747593516"><ele>35.0</ele><time>2026-05-02T17:28:21Z</time></trkpt><trkpt lat="43.880173975854525" lon="11.029469846142872"><ele>35.0</ele><time>2026-05-02T17:28:22Z</time></trkpt><trkpt lat="43.88003606232996" lon="11.029615118536576"><ele>35.0</ele><time>2026-05-02T17:28:23Z</time></trkpt><trkpt lat="43.87993581747639" lon="11.029786724629696"><ele>36.33333333333333</ele><time>2026-05-02T17:28:24Z</time></trkpt><trkpt lat="43.87988178132704" lon="11.030002163151181"><ele>37.666666666666664</ele><time>2026-05-02T17:28:25Z</time></trkpt><trkpt lat="43.879879492533206" lon="11.030235096172968"><ele>39.0</ele><time>2026-05-02T17:28:26Z</time></trkpt><trkpt lat="43.87991882191029" lon="11.03046513059788"><ele>39.0</ele><time>2026-05-02T17:28:27Z</time></trkpt><trkpt lat="43.8800074782891" lon="11.03067381225718"><ele>39.0</ele><time>2026-05-02T17:28:28Z</time></trkpt><trkpt lat="43.88011677903251" lon="11.030871773438957"><ele>39.0</ele><time>2026-05-02T17:28:29Z</time></trkpt><trkpt lat="43.880245990889506" lon="11.031030388557785"><ele>38.666666666666664</ele><time>2026-05-02T17:28:30Z</time></trkpt><trkpt lat="43.88038163637484" lon="11.031170420565303"><ele>38.33333333333333</ele><time>2026-05-02T17:28:31Z</time></trkpt><trkpt lat="43.88051163875789" lon="11.03132516358362"><ele>38.0</ele><time>2026-05-02T17:28:32Z</time></trkpt><trkpt lat="43.880637587151476" lon="11.031471713890246"><ele>38.0</ele><time>2026-05-02T17:28:33Z</time></trkpt><trkpt lat="43.880758762762916" lon="11.031613152379366"><ele>38.0</ele><time>2026-05-02T17:28:33.999Z</time></trkpt><trkpt lat="43.88087562032383" lon="11.031747522084236"><ele>38.0</ele><time>2026-05-02T17:28:34.999Z</time></trkpt><trkpt lat="43.880987296003575" lon="11.031879814178561"><ele>38.25</ele><time>2026-05-02T17:28:35.999Z</time></trkpt><trkpt lat="43.88109653455765" lon="11.032003898839454"><ele>38.5</ele><time>2026-05-02T17:28:36.999Z</time></trkpt><trkpt lat="43.8812059846179" lon="11.032124828481113"><ele>38.75</ele><time>2026-05-02T17:28:37.999Z</time></trkpt><trkpt lat="43.881307784873435" lon="11.03223702487476"><ele>39.0</ele><time>2026-05-02T17:28:38.999Z</time></trkpt><trkpt lat="43.88140828580457" lon="11.03234928278339"><ele>39.0</ele><time>2026-05-02T17:28:39.999Z</time></trkpt><trkpt lat="43.88150395761884" lon="11.032452282370803"><ele>39.0</ele><time>2026-05-02T17:28:40.999Z</time></trkpt><trkpt lat="43.88159436362884" lon="11.032546645104222"><ele>39.0</ele><time>2026-05-02T17:28:41.999Z</time></trkpt><trkpt lat="43.88167558356599" lon="11.03263479612582"><ele>39.0</ele><time>2026-05-02T17:28:42.999Z</time></trkpt><trkpt lat="43.88174777304701" lon="11.032717187397264"><ele>39.0</ele><time>2026-05-02T17:28:43.999Z</time></trkpt><trkpt lat="43.88180800446145" lon="11.03278941353031"><ele>39.0</ele><time>2026-05-02T17:28:44.999Z</time></trkpt><trkpt lat="43.88187342795951" lon="11.032884626036621"><ele>39.0</ele><time>2026-05-02T17:28:46.999Z</time></trkpt><trkpt lat="43.881921303629845" lon="11.032945618951226"><ele>39.0</ele><time>2026-05-02T17:29:18.998Z</time></trkpt><trkpt lat="43.881976594705144" lon="11.033030846621246"><ele>39.0</ele><time>2026-05-02T17:29:20.998Z</time></trkpt><trkpt lat="43.88201809336989" lon="11.033103140393372"><ele>39.0</ele><time>2026-05-02T17:29:22.998Z</time></trkpt><trkpt lat="43.88207647350346" lon="11.03319117461774"><ele>39.0</ele><time>2026-05-02T17:29:25.998Z</time></trkpt><trkpt lat="43.882156156067566" lon="11.033240851142398"><ele>39.5</ele><time>2026-05-02T17:29:27.998Z</time></trkpt><trkpt lat="43.88224339794159" lon="11.033327049822091"><ele>40.0</ele><time>2026-05-02T17:29:29.998Z</time></trkpt><trkpt lat="43.882338702263546" lon="11.033420209511972"><ele>40.5</ele><time>2026-05-02T17:29:31.998Z</time></trkpt><trkpt lat="43.88243953949159" lon="11.033519571215464"><ele>41.0</ele><time>2026-05-02T17:29:33.998Z</time></trkpt><trkpt lat="43.882534509245346" lon="11.03361422496617"><ele>41.0</ele><time>2026-05-02T17:29:35.998Z</time></trkpt><trkpt lat="43.88263639648669" lon="11.033717413327397"><ele>41.0</ele><time>2026-05-02T17:29:37.998Z</time></trkpt><trkpt lat="43.88269720986872" lon="11.033782884658951"><ele>41.0</ele><time>2026-05-02T17:29:38.998Z</time></trkpt><trkpt lat="43.88276072160136" lon="11.033853109586705"><ele>41.0</ele><time>2026-05-02T17:29:39.998Z</time></trkpt><trkpt lat="43.8828258077196" lon="11.033925075310838"><ele>41.0</ele><time>2026-05-02T17:29:40.998Z</time></trkpt><trkpt lat="43.8828985507118" lon="11.034006603987942"><ele>41.0</ele><time>2026-05-02T17:29:41.998Z</time></trkpt><trkpt lat="43.882970095945296" lon="11.034087455088775"><ele>41.0</ele><time>2026-05-02T17:29:42.998Z</time></trkpt><trkpt lat="43.88304590372277" lon="11.034173846633026"><ele>41.0</ele><time>2026-05-02T17:29:43.998Z</time></trkpt><trkpt lat="43.88312563801427" lon="11.034268104633272"><ele>41.0</ele><time>2026-05-02T17:29:44.998Z</time></trkpt><trkpt lat="43.88320156321889" lon="11.034375897483754"><ele>41.0</ele><time>2026-05-02T17:29:45.998Z</time></trkpt><trkpt lat="43.88329636640018" lon="11.034459745041516"><ele>41.0</ele><time>2026-05-02T17:29:46.998Z</time></trkpt><trkpt lat="43.88338880673769" lon="11.034550869932938"><ele>41.0</ele><time>2026-05-02T17:29:47.997Z</time></trkpt><trkpt lat="43.88348090987723" lon="11.034648414882673"><ele>41.0</ele><time>2026-05-02T17:29:48.997Z</time></trkpt><trkpt lat="43.88357618972175" lon="11.034752413094486"><ele>41.0</ele><time>2026-05-02T17:29:49.997Z</time></trkpt><trkpt lat="43.88367273451159" lon="11.034855297175827"><ele>40.5</ele><time>2026-05-02T17:29:50.997Z</time></trkpt><trkpt lat="43.88376823082987" lon="11.034959240428806"><ele>40.0</ele><time>2026-05-02T17:29:51.997Z</time></trkpt><trkpt lat="43.88386342032141" lon="11.03507127878588"><ele>39.5</ele><time>2026-05-02T17:29:52.997Z</time></trkpt><trkpt lat="43.88395497133584" lon="11.035190426236861"><ele>39.0</ele><time>2026-05-02T17:29:53.997Z</time></trkpt><trkpt lat="43.88403865856455" lon="11.035315129684497"><ele>40.0</ele><time>2026-05-02T17:29:54.997Z</time></trkpt><trkpt lat="43.88411766239948" lon="11.03544270279472"><ele>41.0</ele><time>2026-05-02T17:29:55.997Z</time></trkpt><trkpt lat="43.88418969274429" lon="11.035582411139401"><ele>42.0</ele><time>2026-05-02T17:29:56.997Z</time></trkpt><trkpt lat="43.88425300065251" lon="11.03573197780795"><ele>43.0</ele><time>2026-05-02T17:29:57.997Z</time></trkpt><trkpt lat="43.88430735013232" lon="11.035888232844373"><ele>43.0</ele><time>2026-05-02T17:29:58.997Z</time></trkpt><trkpt lat="43.88435289354016" lon="11.036049068350227"><ele>43.0</ele><time>2026-05-02T17:29:59.997Z</time></trkpt><trkpt lat="43.884389551069646" lon="11.036215867280195"><ele>43.0</ele><time>2026-05-02T17:30:00.997Z</time></trkpt><trkpt lat="43.884417753570276" lon="11.03638950885386"><ele>43.0</ele><time>2026-05-02T17:30:01.997Z</time></trkpt><trkpt lat="43.884435640514845" lon="11.036564282485873"><ele>43.25</ele><time>2026-05-02T17:30:02.997Z</time></trkpt><trkpt lat="43.884444136504904" lon="11.036743155979924"><ele>43.5</ele><time>2026-05-02T17:30:03.997Z</time></trkpt><trkpt lat="43.88443885405884" lon="11.036932331999099"><ele>43.75</ele><time>2026-05-02T17:30:05Z</time></trkpt><trkpt lat="43.88442075559263" lon="11.037120607650023"><ele>44.0</ele><time>2026-05-02T17:30:06Z</time></trkpt><trkpt lat="43.88439242072012" lon="11.037310744402216"><ele>44.0</ele><time>2026-05-02T17:30:07Z</time></trkpt><trkpt lat="43.88436224213324" lon="11.03749878190795"><ele>44.0</ele><time>2026-05-02T17:30:08Z</time></trkpt><trkpt lat="43.884327127778576" lon="11.037691335442622"><ele>44.0</ele><time>2026-05-02T17:30:09Z</time></trkpt><trkpt lat="43.88428938725006" lon="11.037890085784339"><ele>44.0</ele><time>2026-05-02T17:30:10Z</time></trkpt><trkpt lat="43.884247632040164" lon="11.038095116267082"><ele>43.666666666666664</ele><time>2026-05-02T17:30:11Z</time></trkpt><trkpt lat="43.88420541293452" lon="11.038299118030558"><ele>43.333333333333336</ele><time>2026-05-02T17:30:12Z</time></trkpt><trkpt lat="43.884161210244784" lon="11.038503339876089"><ele>43.0</ele><time>2026-05-02T17:30:13Z</time></trkpt><trkpt lat="43.88411598333927" lon="11.038694829444507"><ele>43.0</ele><time>2026-05-02T17:30:14Z</time></trkpt><trkpt lat="43.884070040911354" lon="11.038887812718372"><ele>43.0</ele><time>2026-05-02T17:30:15Z</time></trkpt><trkpt lat="43.88402241296997" lon="11.039073655988519"><ele>43.0</ele><time>2026-05-02T17:30:16Z</time></trkpt><trkpt lat="43.8839744950383" lon="11.039258344974854"><ele>43.0</ele><time>2026-05-02T17:30:17Z</time></trkpt><trkpt lat="43.88392905079031" lon="11.039425643594248"><ele>43.0</ele><time>2026-05-02T17:30:18Z</time></trkpt><trkpt lat="43.8838826506357" lon="11.039582417316733"><ele>43.0</ele><time>2026-05-02T17:30:19Z</time></trkpt><trkpt lat="43.88383407109225" lon="11.03972655235063"><ele>43.0</ele><time>2026-05-02T17:30:20Z</time></trkpt><trkpt lat="43.88377961006728" lon="11.039854776492911"><ele>43.0</ele><time>2026-05-02T17:30:21Z</time></trkpt><trkpt lat="43.883708345775716" lon="11.039968615677848"><ele>42.5</ele><time>2026-05-02T17:30:22Z</time></trkpt><trkpt lat="43.883619286534845" lon="11.040055983244315"><ele>42.0</ele><time>2026-05-02T17:30:23Z</time></trkpt><trkpt lat="43.88352915456938" lon="11.040143836593854"><ele>41.5</ele><time>2026-05-02T17:30:24Z</time></trkpt><trkpt lat="43.88344940288092" lon="11.040256418845454"><ele>41.0</ele><time>2026-05-02T17:30:25Z</time></trkpt><trkpt lat="43.8833810552408" lon="11.040387589274186"><ele>41.0</ele><time>2026-05-02T17:30:26Z</time></trkpt><trkpt lat="43.88333037021638" lon="11.040531388491097"><ele>41.0</ele><time>2026-05-02T17:30:27Z</time></trkpt><trkpt lat="43.88330080192344" lon="11.040691187149939"><ele>41.0</ele><time>2026-05-02T17:30:28Z</time></trkpt><trkpt lat="43.88329615017035" lon="11.040853583597483"><ele>41.0</ele><time>2026-05-02T17:30:29Z</time></trkpt><trkpt lat="43.883316510805585" lon="11.041007396649663"><ele>41.0</ele><time>2026-05-02T17:30:30Z</time></trkpt><trkpt lat="43.88336413259092" lon="11.041134663326549"><ele>41.0</ele><time>2026-05-02T17:30:31Z</time></trkpt><trkpt lat="43.88342028100599" lon="11.041246769045964"><ele>41.0</ele><time>2026-05-02T17:30:32Z</time></trkpt><trkpt lat="43.88347806024694" lon="11.041351301750675"><ele>41.0</ele><time>2026-05-02T17:30:33Z</time></trkpt><trkpt lat="43.88352233648916" lon="11.041467646116203"><ele>41.0</ele><time>2026-05-02T17:30:34Z</time></trkpt><trkpt lat="43.8835372437745" lon="11.041597348190525"><ele>41.25</ele><time>2026-05-02T17:30:35Z</time></trkpt><trkpt lat="43.88352653986491" lon="11.04173252712493"><ele>41.5</ele><time>2026-05-02T17:30:36Z</time></trkpt><trkpt lat="43.8834931954563" lon="11.041877494334818"><ele>41.75</ele><time>2026-05-02T17:30:37Z</time></trkpt><trkpt lat="43.88345972313783" lon="11.042038558744643"><ele>42.0</ele><time>2026-05-02T17:30:38Z</time></trkpt><trkpt lat="43.88342662436295" lon="11.042212655547972"><ele>42.0</ele><time>2026-05-02T17:30:39Z</time></trkpt><trkpt lat="43.88339353054766" lon="11.042397605990077"><ele>42.0</ele><time>2026-05-02T17:30:40Z</time></trkpt><trkpt lat="43.883357616868" lon="11.042595204712907"><ele>42.0</ele><time>2026-05-02T17:30:41Z</time></trkpt><trkpt lat="43.883320374243475" lon="11.042801404472511"><ele>42.0</ele><time>2026-05-02T17:30:42Z</time></trkpt><trkpt lat="43.883283147745786" lon="11.04301380940176"><ele>42.0</ele><time>2026-05-02T17:30:43Z</time></trkpt><trkpt lat="43.88324371380429" lon="11.043234819219228"><ele>42.0</ele><time>2026-05-02T17:30:44Z</time></trkpt><trkpt lat="43.883204643589984" lon="11.04344956609144"><ele>42.0</ele><time>2026-05-02T17:30:45Z</time></trkpt><trkpt lat="43.88316306512402" lon="11.043670633179618"><ele>42.0</ele><time>2026-05-02T17:30:45.999Z</time></trkpt><trkpt lat="43.88311961923121" lon="11.043894663569693"><ele>42.0</ele><time>2026-05-02T17:30:46.999Z</time></trkpt><trkpt lat="43.88307496938644" lon="11.044113248724905"><ele>42.0</ele><time>2026-05-02T17:30:47.999Z</time></trkpt><trkpt lat="43.88303019594157" lon="11.044322660732318"><ele>42.333333333333336</ele><time>2026-05-02T17:30:48.999Z</time></trkpt><trkpt lat="43.882986440256374" lon="11.04452827043092"><ele>42.66666666666667</ele><time>2026-05-02T17:30:49.999Z</time></trkpt><trkpt lat="43.88294567731926" lon="11.04472918528717"><ele>43.0</ele><time>2026-05-02T17:30:50.999Z</time></trkpt><trkpt lat="43.88290537302206" lon="11.044927909041718"><ele>43.25</ele><time>2026-05-02T17:30:51.999Z</time></trkpt><trkpt lat="43.88286465457257" lon="11.045118489075952"><ele>43.5</ele><time>2026-05-02T17:30:52.999Z</time></trkpt><trkpt lat="43.88282512957496" lon="11.045306083143064"><ele>43.75</ele><time>2026-05-02T17:30:53.999Z</time></trkpt><trkpt lat="43.882785708210875" lon="11.04549549024591"><ele>44.0</ele><time>2026-05-02T17:30:54.999Z</time></trkpt><trkpt lat="43.882746444406315" lon="11.045686665195017"><ele>44.0</ele><time>2026-05-02T17:30:55.999Z</time></trkpt><trkpt lat="43.88270730849243" lon="11.045876565817219"><ele>44.0</ele><time>2026-05-02T17:30:56.999Z</time></trkpt><trkpt lat="43.88266494177925" lon="11.04606653771387"><ele>44.0</ele><time>2026-05-02T17:30:57.999Z</time></trkpt><trkpt lat="43.882627754981606" lon="11.046254945589308"><ele>44.0</ele><time>2026-05-02T17:30:58.999Z</time></trkpt><trkpt lat="43.88258942433835" lon="11.046440948965184"><ele>44.25</ele><time>2026-05-02T17:30:59.999Z</time></trkpt><trkpt lat="43.88254791756495" lon="11.046624548536846"><ele>44.5</ele><time>2026-05-02T17:31:00.999Z</time></trkpt><trkpt lat="43.8825048792817" lon="11.046807901687611"><ele>44.75</ele><time>2026-05-02T17:31:01.999Z</time></trkpt><trkpt lat="43.88245968523263" lon="11.04699368700388"><ele>45.0</ele><time>2026-05-02T17:31:02.999Z</time></trkpt><trkpt lat="43.88241618888235" lon="11.047181907279873"><ele>45.0</ele><time>2026-05-02T17:31:03.999Z</time></trkpt><trkpt lat="43.8823730891452" lon="11.047372649889166"><ele>45.0</ele><time>2026-05-02T17:31:04.999Z</time></trkpt><trkpt lat="43.88233141742933" lon="11.047565602444392"><ele>45.0</ele><time>2026-05-02T17:31:05.999Z</time></trkpt><trkpt lat="43.8822884536586" lon="11.047762749038503"><ele>45.0</ele><time>2026-05-02T17:31:06.999Z</time></trkpt><trkpt lat="43.882244969967715" lon="11.047961542106746"><ele>45.0</ele><time>2026-05-02T17:31:07.999Z</time></trkpt><trkpt lat="43.88219993303993" lon="11.048159982613743"><ele>45.0</ele><time>2026-05-02T17:31:08.999Z</time></trkpt><trkpt lat="43.882153962989996" lon="11.048363219110254"><ele>45.0</ele><time>2026-05-02T17:31:09.999Z</time></trkpt><trkpt lat="43.88210815976231" lon="11.048567750774813"><ele>44.666666666666664</ele><time>2026-05-02T17:31:10.999Z</time></trkpt><trkpt lat="43.88206221007909" lon="11.048774912536196"><ele>44.33333333333333</ele><time>2026-05-02T17:31:11.999Z</time></trkpt><trkpt lat="43.88201592345779" lon="11.048985551682332"><ele>44.0</ele><time>2026-05-02T17:31:12.999Z</time></trkpt><trkpt lat="43.881970665476686" lon="11.049198658661687"><ele>44.0</ele><time>2026-05-02T17:31:13.999Z</time></trkpt><trkpt lat="43.881926005264596" lon="11.049412969656498"><ele>44.0</ele><time>2026-05-02T17:31:14.999Z</time></trkpt><trkpt lat="43.88188032259122" lon="11.049630661470221"><ele>44.0</ele><time>2026-05-02T17:31:15.999Z</time></trkpt><trkpt lat="43.88183410907695" lon="11.04984861987862"><ele>44.33333333333333</ele><time>2026-05-02T17:31:16.999Z</time></trkpt><trkpt lat="43.88178842174136" lon="11.050067358622698"><ele>44.666666666666664</ele><time>2026-05-02T17:31:17.999Z</time></trkpt><trkpt lat="43.881740587129855" lon="11.050291651882345"><ele>45.0</ele><time>2026-05-02T17:31:18.999Z</time></trkpt><trkpt lat="43.8816913660079" lon="11.050520712079788"><ele>44.333333333333336</ele><time>2026-05-02T17:31:19.999Z</time></trkpt><trkpt lat="43.881642220719456" lon="11.050755303295578"><ele>43.66666666666667</ele><time>2026-05-02T17:31:20.999Z</time></trkpt><trkpt lat="43.88159528109114" lon="11.050991371328044"><ele>43.0</ele><time>2026-05-02T17:31:21.999Z</time></trkpt><trkpt lat="43.88154829434629" lon="11.05122301305026"><ele>43.0</ele><time>2026-05-02T17:31:22.998Z</time></trkpt><trkpt lat="43.88149797475632" lon="11.051456377898072"><ele>43.0</ele><time>2026-05-02T17:31:23.998Z</time></trkpt><trkpt lat="43.881449444060195" lon="11.05168588377898"><ele>43.0</ele><time>2026-05-02T17:31:24.998Z</time></trkpt><trkpt lat="43.881399398440806" lon="11.05191229641788"><ele>43.333333333333336</ele><time>2026-05-02T17:31:25.998Z</time></trkpt><trkpt lat="43.88135036571504" lon="11.052141143095353"><ele>43.666666666666664</ele><time>2026-05-02T17:31:26.998Z</time></trkpt><trkpt lat="43.8813049018451" lon="11.052362202442604"><ele>44.0</ele><time>2026-05-02T17:31:27.998Z</time></trkpt><trkpt lat="43.88125837222369" lon="11.052581888372764"><ele>43.33333333333333</ele><time>2026-05-02T17:31:28.998Z</time></trkpt><trkpt lat="43.881213245825066" lon="11.052800137851678"><ele>42.666666666666664</ele><time>2026-05-02T17:31:29.998Z</time></trkpt><trkpt lat="43.88116618729223" lon="11.053018759197018"><ele>42.0</ele><time>2026-05-02T17:31:30.998Z</time></trkpt><trkpt lat="43.8811210413726" lon="11.053239247295764"><ele>42.666666666666664</ele><time>2026-05-02T17:31:31.998Z</time></trkpt><trkpt lat="43.881077892379814" lon="11.053464942957916"><ele>43.33333333333333</ele><time>2026-05-02T17:31:32.998Z</time></trkpt><trkpt lat="43.88103651822954" lon="11.053690427910844"><ele>44.0</ele><time>2026-05-02T17:31:33.998Z</time></trkpt><trkpt lat="43.88099113193137" lon="11.053922145572551"><ele>43.666666666666664</ele><time>2026-05-02T17:31:34.998Z</time></trkpt><trkpt lat="43.88094294752256" lon="11.054157077536585"><ele>43.333333333333336</ele><time>2026-05-02T17:31:35.998Z</time></trkpt><trkpt lat="43.88089564067871" lon="11.054389846063613"><ele>43.0</ele><time>2026-05-02T17:31:36.998Z</time></trkpt><trkpt lat="43.88084607896663" lon="11.05462688720095"><ele>43.0</ele><time>2026-05-02T17:31:37.998Z</time></trkpt><trkpt lat="43.88079685517122" lon="11.054866037032935"><ele>43.0</ele><time>2026-05-02T17:31:38.998Z</time></trkpt><trkpt lat="43.88074567351126" lon="11.055105743227324"><ele>43.0</ele><time>2026-05-02T17:31:39.998Z</time></trkpt><trkpt lat="43.88069433834784" lon="11.055345869856872"><ele>44.333333333333336</ele><time>2026-05-02T17:31:40.998Z</time></trkpt><trkpt lat="43.880641762505256" lon="11.055582656910572"><ele>45.666666666666664</ele><time>2026-05-02T17:31:41.998Z</time></trkpt><trkpt lat="43.88058995671048" lon="11.055813145077508"><ele>47.0</ele><time>2026-05-02T17:31:42.998Z</time></trkpt><trkpt lat="43.88053552461172" lon="11.056041706966226"><ele>47.0</ele><time>2026-05-02T17:31:43.998Z</time></trkpt><trkpt lat="43.88048337898423" lon="11.056262885456285"><ele>47.0</ele><time>2026-05-02T17:31:44.998Z</time></trkpt><trkpt lat="43.88043568926975" lon="11.056471961828128"><ele>47.0</ele><time>2026-05-02T17:31:45.998Z</time></trkpt><trkpt lat="43.880387514320695" lon="11.056674991899003"><ele>47.5</ele><time>2026-05-02T17:31:46.998Z</time></trkpt><trkpt lat="43.88034162994586" lon="11.056867659693832"><ele>48.0</ele><time>2026-05-02T17:31:47.998Z</time></trkpt><trkpt lat="43.88029724106787" lon="11.05705360149134"><ele>48.5</ele><time>2026-05-02T17:31:48.998Z</time></trkpt><trkpt lat="43.880253405147684" lon="11.057234030813236"><ele>49.0</ele><time>2026-05-02T17:31:49.998Z</time></trkpt><trkpt lat="43.88021106570364" lon="11.057414435130331"><ele>48.75</ele><time>2026-05-02T17:31:50.998Z</time></trkpt><trkpt lat="43.88016876683174" lon="11.057595297730195"><ele>48.5</ele><time>2026-05-02T17:31:51.998Z</time></trkpt><trkpt lat="43.88012863863229" lon="11.057774684506025"><ele>48.25</ele><time>2026-05-02T17:31:52.998Z</time></trkpt><trkpt lat="43.880087846273106" lon="11.057952177764262"><ele>48.0</ele><time>2026-05-02T17:31:53.998Z</time></trkpt><trkpt lat="43.880047222104544" lon="11.058131624112768"><ele>48.0</ele><time>2026-05-02T17:31:54.998Z</time></trkpt><trkpt lat="43.880005628776225" lon="11.058308722947679"><ele>48.0</ele><time>2026-05-02T17:31:55.998Z</time></trkpt><trkpt lat="43.87996384395109" lon="11.05848587405562"><ele>48.0</ele><time>2026-05-02T17:31:56.998Z</time></trkpt><trkpt lat="43.8799237583442" lon="11.058661109570364"><ele>48.0</ele><time>2026-05-02T17:31:57.998Z</time></trkpt><trkpt lat="43.879884936180375" lon="11.058831726241422"><ele>48.0</ele><time>2026-05-02T17:31:58.998Z</time></trkpt><trkpt lat="43.87984758257151" lon="11.058995095718215"><ele>48.0</ele><time>2026-05-02T17:31:59.998Z</time></trkpt><trkpt lat="43.8798091641344" lon="11.059158837818813"><ele>48.0</ele><time>2026-05-02T17:32:00.997Z</time></trkpt><trkpt lat="43.8797709764744" lon="11.05932399310653"><ele>48.0</ele><time>2026-05-02T17:32:01.997Z</time></trkpt><trkpt lat="43.879734412673066" lon="11.059489299919946"><ele>47.75</ele><time>2026-05-02T17:32:02.997Z</time></trkpt><trkpt lat="43.87969776859735" lon="11.059653323499978"><ele>47.5</ele><time>2026-05-02T17:32:03.997Z</time></trkpt><trkpt lat="43.87965881286872" lon="11.05982252206159"><ele>47.25</ele><time>2026-05-02T17:32:04.997Z</time></trkpt><trkpt lat="43.87961886465127" lon="11.059992720959965"><ele>47.0</ele><time>2026-05-02T17:32:05.997Z</time></trkpt><trkpt lat="43.87957934169033" lon="11.060166549329793"><ele>48.0</ele><time>2026-05-02T17:32:06.997Z</time></trkpt><trkpt lat="43.8795407623499" lon="11.060341135348516"><ele>49.0</ele><time>2026-05-02T17:32:07.997Z</time></trkpt><trkpt lat="43.879497043371465" lon="11.06051391040886"><ele>50.0</ele><time>2026-05-02T17:32:08.997Z</time></trkpt><trkpt lat="43.87944711097259" lon="11.060686904719207"><ele>51.0</ele><time>2026-05-02T17:32:10Z</time></trkpt><trkpt lat="43.87939338698446" lon="11.06086507016115"><ele>51.0</ele><time>2026-05-02T17:32:11Z</time></trkpt><trkpt lat="43.87934142234529" lon="11.061045249838019"><ele>51.0</ele><time>2026-05-02T17:32:12Z</time></trkpt><trkpt lat="43.87928771558581" lon="11.061228098511437"><ele>51.0</ele><time>2026-05-02T17:32:13Z</time></trkpt><trkpt lat="43.87923577382155" lon="11.06141356661792"><ele>51.0</ele><time>2026-05-02T17:32:14Z</time></trkpt><trkpt lat="43.87918839446938" lon="11.06160345360783"><ele>51.0</ele><time>2026-05-02T17:32:15Z</time></trkpt><trkpt lat="43.87914482831134" lon="11.061801017418722"><ele>51.0</ele><time>2026-05-02T17:32:16Z</time></trkpt><trkpt lat="43.879102889922166" lon="11.062007693159842"><ele>51.0</ele><time>2026-05-02T17:32:17Z</time></trkpt><trkpt lat="43.87906105234685" lon="11.062216539867753"><ele>51.0</ele><time>2026-05-02T17:32:18Z</time></trkpt><trkpt lat="43.879018617727475" lon="11.062431930413297"><ele>51.0</ele><time>2026-05-02T17:32:19Z</time></trkpt><trkpt lat="43.87897662117375" lon="11.062649566010162"><ele>51.0</ele><time>2026-05-02T17:32:20Z</time></trkpt><trkpt lat="43.87893307115885" lon="11.062873143651624"><ele>50.66666666666667</ele><time>2026-05-02T17:32:21Z</time></trkpt><trkpt lat="43.87888807894758" lon="11.063097470137143"><ele>50.333333333333336</ele><time>2026-05-02T17:32:22Z</time></trkpt><trkpt lat="43.87884559459062" lon="11.063322726850535"><ele>50.0</ele><time>2026-05-02T17:32:23Z</time></trkpt><trkpt lat="43.87880434591757" lon="11.063547371858423"><ele>50.0</ele><time>2026-05-02T17:32:24Z</time></trkpt><trkpt lat="43.87876415250138" lon="11.063773796158808"><ele>50.0</ele><time>2026-05-02T17:32:25Z</time></trkpt><trkpt lat="43.87872398927195" lon="11.063999973573685"><ele>50.0</ele><time>2026-05-02T17:32:26Z</time></trkpt><trkpt lat="43.878687955048726" lon="11.064239873450695"><ele>50.0</ele><time>2026-05-02T17:32:27Z</time></trkpt><trkpt lat="43.878628079473366" lon="11.0644803995627"><ele>50.0</ele><time>2026-05-02T17:32:28Z</time></trkpt><trkpt lat="43.87858496426508" lon="11.064715877898974"><ele>50.0</ele><time>2026-05-02T17:32:29Z</time></trkpt><trkpt lat="43.878541936076815" lon="11.064950812277866"><ele>50.333333333333336</ele><time>2026-05-02T17:32:30Z</time></trkpt><trkpt lat="43.87850160412242" lon="11.065187153357652"><ele>50.66666666666667</ele><time>2026-05-02T17:32:31Z</time></trkpt><trkpt lat="43.878459372143396" lon="11.065422982936397"><ele>51.0</ele><time>2026-05-02T17:32:32Z</time></trkpt><trkpt lat="43.87841423573325" lon="11.065663153716606"><ele>51.0</ele><time>2026-05-02T17:32:33Z</time></trkpt><trkpt lat="43.87836425344406" lon="11.06590821470597"><ele>51.0</ele><time>2026-05-02T17:32:34Z</time></trkpt><trkpt lat="43.87831051498875" lon="11.066157501451753"><ele>51.0</ele><time>2026-05-02T17:32:35Z</time></trkpt><trkpt lat="43.87824726325975" lon="11.066402853474685"><ele>51.0</ele><time>2026-05-02T17:32:36Z</time></trkpt><trkpt lat="43.87818774745312" lon="11.066647942923227"><ele>51.0</ele><time>2026-05-02T17:32:37Z</time></trkpt><trkpt lat="43.87813062791207" lon="11.066889053096965"><ele>51.0</ele><time>2026-05-02T17:32:38Z</time></trkpt><trkpt lat="43.87808309117373" lon="11.067130990114851"><ele>51.0</ele><time>2026-05-02T17:32:39Z</time></trkpt><trkpt lat="43.87803168444618" lon="11.067369130877742"><ele>51.0</ele><time>2026-05-02T17:32:40Z</time></trkpt><trkpt lat="43.87798092171935" lon="11.067606196497835"><ele>51.0</ele><time>2026-05-02T17:32:41Z</time></trkpt><trkpt lat="43.87793065307899" lon="11.067841951855781"><ele>51.66666666666667</ele><time>2026-05-02T17:32:42Z</time></trkpt><trkpt lat="43.8778838392792" lon="11.068078422737365"><ele>52.333333333333336</ele><time>2026-05-02T17:32:43Z</time></trkpt><trkpt lat="43.87783996069635" lon="11.068315440976827"><ele>53.0</ele><time>2026-05-02T17:32:44Z</time></trkpt><trkpt lat="43.87779592678268" lon="11.068555466616171"><ele>53.0</ele><time>2026-05-02T17:32:45Z</time></trkpt><trkpt lat="43.8777515828382" lon="11.068780294651894"><ele>53.0</ele><time>2026-05-02T17:32:46Z</time></trkpt><trkpt lat="43.87770855138015" lon="11.068991158750856"><ele>53.0</ele><time>2026-05-02T17:32:47Z</time></trkpt><trkpt lat="43.87766666173415" lon="11.069205411931765"><ele>52.66666666666667</ele><time>2026-05-02T17:32:48Z</time></trkpt><trkpt lat="43.877626374937876" lon="11.069429849475686"><ele>52.33333333333333</ele><time>2026-05-02T17:32:49Z</time></trkpt><trkpt lat="43.877586380255565" lon="11.069662058640542"><ele>52.0</ele><time>2026-05-02T17:32:50Z</time></trkpt><trkpt lat="43.877541626543206" lon="11.069898949235117"><ele>50.33333333333333</ele><time>2026-05-02T17:32:50.999Z</time></trkpt><trkpt lat="43.87749158540537" lon="11.070132863552102"><ele>48.666666666666664</ele><time>2026-05-02T17:32:51.999Z</time></trkpt><trkpt lat="43.87744163497621" lon="11.070365373745904"><ele>47.0</ele><time>2026-05-02T17:32:52.999Z</time></trkpt><trkpt lat="43.87739533077169" lon="11.070600869724364"><ele>49.0</ele><time>2026-05-02T17:32:53.999Z</time></trkpt><trkpt lat="43.87734865631317" lon="11.070828810021583"><ele>51.0</ele><time>2026-05-02T17:32:54.999Z</time></trkpt><trkpt lat="43.877300057605325" lon="11.071060146681479"><ele>53.0</ele><time>2026-05-02T17:32:55.999Z</time></trkpt><trkpt lat="43.877251517372265" lon="11.071290200218325"><ele>53.0</ele><time>2026-05-02T17:32:56.999Z</time></trkpt><trkpt lat="43.877207383539904" lon="11.071511732664998"><ele>53.0</ele><time>2026-05-02T17:32:57.999Z</time></trkpt><trkpt lat="43.87716251315057" lon="11.071734696871953"><ele>53.0</ele><time>2026-05-02T17:32:58.999Z</time></trkpt><trkpt lat="43.87711406756809" lon="11.071958488191429"><ele>54.333333333333336</ele><time>2026-05-02T17:32:59.999Z</time></trkpt><trkpt lat="43.87706261621815" lon="11.072189935541937"><ele>55.66666666666667</ele><time>2026-05-02T17:33:00.999Z</time></trkpt><trkpt lat="43.877007781925265" lon="11.072426336455685"><ele>57.0</ele><time>2026-05-02T17:33:01.999Z</time></trkpt><trkpt lat="43.87695329683138" lon="11.072665877193389"><ele>56.66666666666667</ele><time>2026-05-02T17:33:02.999Z</time></trkpt><trkpt lat="43.876895374682455" lon="11.072912608961962"><ele>56.333333333333336</ele><time>2026-05-02T17:33:03.999Z</time></trkpt><trkpt lat="43.87683856007199" lon="11.073160693665129"><ele>56.0</ele><time>2026-05-02T17:33:04.999Z</time></trkpt><trkpt lat="43.87678276976472" lon="11.073415230026724"><ele>54.333333333333336</ele><time>2026-05-02T17:33:05.999Z</time></trkpt><trkpt lat="43.876728225734766" lon="11.073668239825427"><ele>52.66666666666667</ele><time>2026-05-02T17:33:06.999Z</time></trkpt><trkpt lat="43.87667461630169" lon="11.073916706525559"><ele>51.0</ele><time>2026-05-02T17:33:07.999Z</time></trkpt><trkpt lat="43.876618804960124" lon="11.074169510736345"><ele>50.33333333333333</ele><time>2026-05-02T17:33:08.999Z</time></trkpt><trkpt lat="43.87655865745988" lon="11.074417502798166"><ele>49.666666666666664</ele><time>2026-05-02T17:33:09.999Z</time></trkpt><trkpt lat="43.87649385249026" lon="11.074663715097834"><ele>49.0</ele><time>2026-05-02T17:33:10.999Z</time></trkpt><trkpt lat="43.87642671261646" lon="11.074906723039936"><ele>50.0</ele><time>2026-05-02T17:33:11.999Z</time></trkpt><trkpt lat="43.87635650876736" lon="11.07514550600309"><ele>51.0</ele><time>2026-05-02T17:33:12.999Z</time></trkpt><trkpt lat="43.87628069732605" lon="11.075383525790105"><ele>52.0</ele><time>2026-05-02T17:33:13.999Z</time></trkpt><trkpt lat="43.87620283776727" lon="11.075622575325436"><ele>52.33333333333333</ele><time>2026-05-02T17:33:14.999Z</time></trkpt><trkpt lat="43.87612172511896" lon="11.075859314164083"><ele>52.66666666666667</ele><time>2026-05-02T17:33:15.999Z</time></trkpt><trkpt lat="43.87603258454988" lon="11.076093457894263"><ele>53.0</ele><time>2026-05-02T17:33:16.999Z</time></trkpt><trkpt lat="43.87593895823649" lon="11.076324073378673"><ele>53.0</ele><time>2026-05-02T17:33:17.999Z</time></trkpt><trkpt lat="43.87584667741562" lon="11.076556578379606"><ele>53.0</ele><time>2026-05-02T17:33:18.999Z</time></trkpt><trkpt lat="43.87575312846361" lon="11.076783786768292"><ele>53.0</ele><time>2026-05-02T17:33:19.999Z</time></trkpt><trkpt lat="43.875651353321324" lon="11.07701668822305"><ele>53.0</ele><time>2026-05-02T17:33:20.999Z</time></trkpt><trkpt lat="43.87554415321071" lon="11.077247062011104"><ele>53.0</ele><time>2026-05-02T17:33:21.999Z</time></trkpt><trkpt lat="43.87543596719615" lon="11.077473134559085"><ele>53.0</ele><time>2026-05-02T17:33:22.999Z</time></trkpt><trkpt lat="43.87532385007298" lon="11.077697312068276"><ele>53.0</ele><time>2026-05-02T17:33:23.999Z</time></trkpt><trkpt lat="43.87521258133694" lon="11.077918524116539"><ele>53.0</ele><time>2026-05-02T17:33:24.999Z</time></trkpt><trkpt lat="43.87509864735497" lon="11.078136727446413"><ele>53.0</ele><time>2026-05-02T17:33:25.999Z</time></trkpt><trkpt lat="43.8749857877053" lon="11.078352894164148"><ele>53.66666666666667</ele><time>2026-05-02T17:33:26.999Z</time></trkpt><trkpt lat="43.87487412933622" lon="11.078565433700636"><ele>54.33333333333333</ele><time>2026-05-02T17:33:27.998Z</time></trkpt><trkpt lat="43.87476686788561" lon="11.078782081057811"><ele>55.0</ele><time>2026-05-02T17:33:28.998Z</time></trkpt><trkpt lat="43.874655832696085" lon="11.078995003218765"><ele>54.666666666666664</ele><time>2026-05-02T17:33:29.998Z</time></trkpt><trkpt lat="43.874545246215554" lon="11.079206134414479"><ele>54.33333333333333</ele><time>2026-05-02T17:33:30.998Z</time></trkpt><trkpt lat="43.87443355652743" lon="11.079419488390126"><ele>54.0</ele><time>2026-05-02T17:33:31.998Z</time></trkpt><trkpt lat="43.874322556205556" lon="11.07963002693826"><ele>53.66666666666667</ele><time>2026-05-02T17:33:32.998Z</time></trkpt><trkpt lat="43.874213262765984" lon="11.079838644115634"><ele>53.333333333333336</ele><time>2026-05-02T17:33:33.998Z</time></trkpt><trkpt lat="43.87410838015413" lon="11.080039870813676"><ele>53.0</ele><time>2026-05-02T17:33:34.998Z</time></trkpt><trkpt lat="43.874007561185415" lon="11.080238753914752"><ele>53.0</ele><time>2026-05-02T17:33:35.998Z</time></trkpt><trkpt lat="43.873917140952" lon="11.080422094055256"><ele>53.0</ele><time>2026-05-02T17:33:36.998Z</time></trkpt><trkpt lat="43.87383349544911" lon="11.080592470162149"><ele>53.0</ele><time>2026-05-02T17:33:37.998Z</time></trkpt><trkpt lat="43.873752881255996" lon="11.080762724621371"><ele>53.333333333333336</ele><time>2026-05-02T17:33:38.998Z</time></trkpt><trkpt lat="43.87367182864701" lon="11.080939538894246"><ele>53.66666666666667</ele><time>2026-05-02T17:33:39.998Z</time></trkpt><trkpt lat="43.87358390410151" lon="11.081117616297913"><ele>54.0</ele><time>2026-05-02T17:33:40.998Z</time></trkpt><trkpt lat="43.87348907268647" lon="11.08129824633462"><ele>53.33333333333333</ele><time>2026-05-02T17:33:41.998Z</time></trkpt><trkpt lat="43.873391242256524" lon="11.08148911583289"><ele>52.666666666666664</ele><time>2026-05-02T17:33:42.998Z</time></trkpt><trkpt lat="43.8732907406005" lon="11.08168403055322"><ele>52.0</ele><time>2026-05-02T17:33:43.998Z</time></trkpt><trkpt lat="43.873191594526254" lon="11.08187962754975"><ele>51.666666666666664</ele><time>2026-05-02T17:33:44.998Z</time></trkpt><trkpt lat="43.87308719018742" lon="11.082085054729374"><ele>51.33333333333333</ele><time>2026-05-02T17:33:45.998Z</time></trkpt><trkpt lat="43.87298712568138" lon="11.082290927794935"><ele>51.0</ele><time>2026-05-02T17:33:46.998Z</time></trkpt><trkpt lat="43.87288707869116" lon="11.082493869398117"><ele>51.0</ele><time>2026-05-02T17:33:47.998Z</time></trkpt><trkpt lat="43.87278750312323" lon="11.082691307151055"><ele>51.0</ele><time>2026-05-02T17:33:48.998Z</time></trkpt><trkpt lat="43.87270112396743" lon="11.082850830371408"><ele>51.0</ele><time>2026-05-02T17:33:49.998Z</time></trkpt><trkpt lat="43.87263066309433" lon="11.083003485319598"><ele>51.0</ele><time>2026-05-02T17:33:50.998Z</time></trkpt><trkpt lat="43.87256128910924" lon="11.083133904726065"><ele>51.199999999999996</ele><time>2026-05-02T17:33:51.998Z</time></trkpt><trkpt lat="43.87249554505144" lon="11.083264673522297"><ele>51.4</ele><time>2026-05-02T17:33:52.998Z</time></trkpt><trkpt lat="43.872432821601095" lon="11.083380073590273"><ele>51.6</ele><time>2026-05-02T17:33:53.998Z</time></trkpt><trkpt lat="43.872377370733545" lon="11.083479176629961"><ele>51.8</ele><time>2026-05-02T17:33:54.998Z</time></trkpt><trkpt lat="43.87232810098964" lon="11.083571078614598"><ele>52.0</ele><time>2026-05-02T17:33:55.998Z</time></trkpt><trkpt lat="43.872284489682784" lon="11.083662330102324"><ele>52.0</ele><time>2026-05-02T17:33:56.998Z</time></trkpt><trkpt lat="43.872240156974314" lon="11.08375767887348"><ele>52.0</ele><time>2026-05-02T17:33:57.998Z</time></trkpt><trkpt lat="43.87219158440731" lon="11.083861234475766"><ele>52.0</ele><time>2026-05-02T17:33:58.998Z</time></trkpt><trkpt lat="43.87214015327631" lon="11.083974585728605"><ele>52.0</ele><time>2026-05-02T17:33:59.998Z</time></trkpt><trkpt lat="43.87208230198199" lon="11.084085542205937"><ele>52.0</ele><time>2026-05-02T17:34:00.998Z</time></trkpt><trkpt lat="43.87202676691988" lon="11.084191673732"><ele>52.2</ele><time>2026-05-02T17:34:01.998Z</time></trkpt><trkpt lat="43.871972388665" lon="11.08429778872886"><ele>52.400000000000006</ele><time>2026-05-02T17:34:02.998Z</time></trkpt><trkpt lat="43.87191741620215" lon="11.08440746340651"><ele>52.599999999999994</ele><time>2026-05-02T17:34:03.998Z</time></trkpt><trkpt lat="43.87186324146946" lon="11.084523211729401"><ele>52.8</ele><time>2026-05-02T17:34:04.998Z</time></trkpt><trkpt lat="43.87180495065684" lon="11.084639851405022"><ele>53.0</ele><time>2026-05-02T17:34:05.997Z</time></trkpt><trkpt lat="43.87174697009785" lon="11.08474847074655"><ele>53.0</ele><time>2026-05-02T17:34:06.997Z</time></trkpt><trkpt lat="43.8716913795941" lon="11.084858802167997"><ele>53.0</ele><time>2026-05-02T17:34:07.997Z</time></trkpt><trkpt lat="43.871634544345866" lon="11.08497328028332"><ele>53.0</ele><time>2026-05-02T17:34:08.997Z</time></trkpt><trkpt lat="43.87157492366673" lon="11.085092006330063"><ele>53.0</ele><time>2026-05-02T17:34:09.997Z</time></trkpt><trkpt lat="43.87151135273211" lon="11.085218850291117"><ele>53.0</ele><time>2026-05-02T17:34:10.997Z</time></trkpt><trkpt lat="43.871444466450406" lon="11.085351432516648"><ele>53.0</ele><time>2026-05-02T17:34:11.997Z</time></trkpt><trkpt lat="43.87137723190628" lon="11.085486092762284"><ele>53.0</ele><time>2026-05-02T17:34:12.997Z</time></trkpt><trkpt lat="43.871307962539895" lon="11.085623117188133"><ele>53.0</ele><time>2026-05-02T17:34:13.997Z</time></trkpt><trkpt lat="43.87123762076848" lon="11.085761676327824"><ele>53.0</ele><time>2026-05-02T17:34:14.997Z</time></trkpt><trkpt lat="43.871166490181324" lon="11.085902575340471"><ele>53.25</ele><time>2026-05-02T17:34:16Z</time></trkpt><trkpt lat="43.87109594539932" lon="11.086044593909614"><ele>53.5</ele><time>2026-05-02T17:34:17Z</time></trkpt><trkpt lat="43.871023973593395" lon="11.086188606776165"><ele>53.75</ele><time>2026-05-02T17:34:18Z</time></trkpt><trkpt lat="43.87095080751555" lon="11.086335779184576"><ele>54.0</ele><time>2026-05-02T17:34:19Z</time></trkpt><trkpt lat="43.87087935021528" lon="11.086482219585182"><ele>53.5</ele><time>2026-05-02T17:34:20Z</time></trkpt><trkpt lat="43.87080659271763" lon="11.086627477887614"><ele>53.0</ele><time>2026-05-02T17:34:21Z</time></trkpt><trkpt lat="43.87073116650339" lon="11.086775405464826"><ele>52.5</ele><time>2026-05-02T17:34:22Z</time></trkpt><trkpt lat="43.87065397092742" lon="11.08692531320211"><ele>52.0</ele><time>2026-05-02T17:34:23Z</time></trkpt><trkpt lat="43.87057638126376" lon="11.08708080471222"><ele>52.0</ele><time>2026-05-02T17:34:24Z</time></trkpt><trkpt lat="43.870498906722524" lon="11.087237396736054"><ele>52.0</ele><time>2026-05-02T17:34:25Z</time></trkpt><trkpt lat="43.87042109353273" lon="11.087396869538711"><ele>52.0</ele><time>2026-05-02T17:34:26Z</time></trkpt><trkpt lat="43.870340612344364" lon="11.087556622378665"><ele>52.0</ele><time>2026-05-02T17:34:27Z</time></trkpt><trkpt lat="43.87026110234218" lon="11.087715643822468"><ele>52.25</ele><time>2026-05-02T17:34:28Z</time></trkpt><trkpt lat="43.870180815586224" lon="11.087876975141873"><ele>52.5</ele><time>2026-05-02T17:34:29Z</time></trkpt><trkpt lat="43.87010118184393" lon="11.088038121420636"><ele>52.75</ele><time>2026-05-02T17:34:30Z</time></trkpt><trkpt lat="43.870017943262916" lon="11.0882009332538"><ele>53.0</ele><time>2026-05-02T17:34:31Z</time></trkpt><trkpt lat="43.86993565978716" lon="11.088360634074336"><ele>53.75</ele><time>2026-05-02T17:34:32Z</time></trkpt><trkpt lat="43.86985527141316" lon="11.088519396352737"><ele>54.5</ele><time>2026-05-02T17:34:33Z</time></trkpt><trkpt lat="43.86977932196883" lon="11.088672863736019"><ele>55.25</ele><time>2026-05-02T17:34:34Z</time></trkpt><trkpt lat="43.869702632944474" lon="11.088827668992563"><ele>56.0</ele><time>2026-05-02T17:34:35Z</time></trkpt><trkpt lat="43.869628332205124" lon="11.088976668391465"><ele>56.0</ele><time>2026-05-02T17:34:36Z</time></trkpt><trkpt lat="43.86955450487675" lon="11.089122521786072"><ele>56.0</ele><time>2026-05-02T17:34:37Z</time></trkpt><trkpt lat="43.869478343568304" lon="11.089271492480524"><ele>56.0</ele><time>2026-05-02T17:34:38Z</time></trkpt><trkpt lat="43.86939746769611" lon="11.089422945077887"><ele>56.0</ele><time>2026-05-02T17:34:39Z</time></trkpt><trkpt lat="43.869316447815066" lon="11.089577665287084"><ele>55.25</ele><time>2026-05-02T17:34:40Z</time></trkpt><trkpt lat="43.86923057185844" lon="11.08973921038774"><ele>54.5</ele><time>2026-05-02T17:34:41Z</time></trkpt><trkpt lat="43.86914056211185" lon="11.089898307800349"><ele>53.75</ele><time>2026-05-02T17:34:42Z</time></trkpt><trkpt lat="43.86905040618476" lon="11.090057029920027"><ele>53.0</ele><time>2026-05-02T17:34:43Z</time></trkpt><trkpt lat="43.8689613394036" lon="11.090223660702932"><ele>53.0</ele><time>2026-05-02T17:34:44Z</time></trkpt><trkpt lat="43.86887366317698" lon="11.090396423843208"><ele>53.0</ele><time>2026-05-02T17:34:45Z</time></trkpt><trkpt lat="43.868785607398515" lon="11.090566504825548"><ele>53.0</ele><time>2026-05-02T17:34:46Z</time></trkpt><trkpt lat="43.868694061881456" lon="11.090746337678402"><ele>53.333333333333336</ele><time>2026-05-02T17:34:47Z</time></trkpt><trkpt lat="43.86860704998549" lon="11.090918525415491"><ele>53.66666666666667</ele><time>2026-05-02T17:34:48Z</time></trkpt><trkpt lat="43.86852042297567" lon="11.091091785172784"><ele>54.0</ele><time>2026-05-02T17:34:49Z</time></trkpt><trkpt lat="43.86843189187451" lon="11.091271222553127"><ele>54.0</ele><time>2026-05-02T17:34:50Z</time></trkpt><trkpt lat="43.86834239736359" lon="11.091444577236432"><ele>54.0</ele><time>2026-05-02T17:34:51Z</time></trkpt><trkpt lat="43.86825087925903" lon="11.091624719614881"><ele>54.0</ele><time>2026-05-02T17:34:52Z</time></trkpt><trkpt lat="43.868162197261526" lon="11.09179854245691"><ele>53.66666666666667</ele><time>2026-05-02T17:34:53Z</time></trkpt><trkpt lat="43.86807013758317" lon="11.09197694135348"><ele>53.333333333333336</ele><time>2026-05-02T17:34:54Z</time></trkpt><trkpt lat="43.867981876550694" lon="11.092153857602481"><ele>53.0</ele><time>2026-05-02T17:34:55Z</time></trkpt><trkpt lat="43.86789206144687" lon="11.092335223591379"><ele>52.66666666666667</ele><time>2026-05-02T17:34:56Z</time></trkpt><trkpt lat="43.86780131263014" lon="11.092514051765955"><ele>52.33333333333333</ele><time>2026-05-02T17:34:57Z</time></trkpt><trkpt lat="43.86771165250206" lon="11.092692023909496"><ele>52.0</ele><time>2026-05-02T17:34:58Z</time></trkpt><trkpt lat="43.86761897267351" lon="11.092874437431055"><ele>51.0</ele><time>2026-05-02T17:34:59Z</time></trkpt><trkpt lat="43.86752806474368" lon="11.0930565724422"><ele>50.0</ele><time>2026-05-02T17:35:00Z</time></trkpt><trkpt lat="43.86743608037574" lon="11.093241219301824"><ele>49.0</ele><time>2026-05-02T17:35:00.999Z</time></trkpt><trkpt lat="43.86734206022096" lon="11.09342791082292"><ele>49.0</ele><time>2026-05-02T17:35:01.999Z</time></trkpt><trkpt lat="43.86724672792376" lon="11.093615754139156"><ele>49.0</ele><time>2026-05-02T17:35:02.999Z</time></trkpt><trkpt lat="43.867153322895426" lon="11.093805736738464"><ele>49.0</ele><time>2026-05-02T17:35:03.999Z</time></trkpt><trkpt lat="43.867061043167446" lon="11.093984708406744"><ele>49.5</ele><time>2026-05-02T17:35:04.999Z</time></trkpt><trkpt lat="43.866974346904726" lon="11.094152885950498"><ele>50.0</ele><time>2026-05-02T17:35:05.999Z</time></trkpt><trkpt lat="43.86689133370248" lon="11.094313404031023"><ele>50.5</ele><time>2026-05-02T17:35:06.999Z</time></trkpt><trkpt lat="43.86681866323016" lon="11.094465328528948"><ele>51.0</ele><time>2026-05-02T17:35:07.999Z</time></trkpt><trkpt lat="43.86674746915806" lon="11.094612480313712"><ele>51.0</ele><time>2026-05-02T17:35:08.999Z</time></trkpt><trkpt lat="43.866678674182495" lon="11.094748010025526"><ele>51.0</ele><time>2026-05-02T17:35:09.999Z</time></trkpt><trkpt lat="43.86661232569968" lon="11.094865531080321"><ele>51.0</ele><time>2026-05-02T17:35:10.999Z</time></trkpt><trkpt lat="43.866551073628315" lon="11.094971013538071"><ele>51.0</ele><time>2026-05-02T17:35:11.999Z</time></trkpt><trkpt lat="43.86650143018718" lon="11.095052438377207"><ele>51.0</ele><time>2026-05-02T17:35:12.999Z</time></trkpt><trkpt lat="43.866429244625195" lon="11.09515884762475"><ele>51.4</ele><time>2026-05-02T17:35:14.999Z</time></trkpt><trkpt lat="43.866383827289766" lon="11.09523060600095"><ele>51.8</ele><time>2026-05-02T17:35:16.999Z</time></trkpt><trkpt lat="43.86628422639313" lon="11.09526832309562"><ele>52.199999999999996</ele><time>2026-05-02T17:35:22.999Z</time></trkpt><trkpt lat="43.86620212110882" lon="11.095358826682256"><ele>52.599999999999994</ele><time>2026-05-02T17:35:24.999Z</time></trkpt><trkpt lat="43.86621169252884" lon="11.09553864019485"><ele>53.0</ele><time>2026-05-02T17:35:26.999Z</time></trkpt><trkpt lat="43.86626046036512" lon="11.095625952004626"><ele>53.00000000000001</ele><time>2026-05-02T17:35:27.999Z</time></trkpt><trkpt lat="43.866319181602876" lon="11.095688247687036"><ele>53.0</ele><time>2026-05-02T17:35:28.999Z</time></trkpt><trkpt lat="43.86638459490818" lon="11.095713735017366"><ele>53.0</ele><time>2026-05-02T17:35:29.999Z</time></trkpt><trkpt lat="43.86648966010183" lon="11.095739211813187"><ele>53.0</ele><time>2026-05-02T17:35:31.999Z</time></trkpt><trkpt lat="43.86658780140198" lon="11.09577943359473"><ele>53.00000000000001</ele><time>2026-05-02T17:35:33.999Z</time></trkpt><trkpt lat="43.866677021167305" lon="11.09583613147932"><ele>53.0</ele><time>2026-05-02T17:35:35.998Z</time></trkpt><trkpt lat="43.86677329259896" lon="11.0959119001526"><ele>53.142857142857146</ele><time>2026-05-02T17:35:37.998Z</time></trkpt><trkpt lat="43.86682949605149" lon="11.09595489068551"><ele>53.285714285714285</ele><time>2026-05-02T17:35:38.997Z</time></trkpt><trkpt lat="43.86688701429078" lon="11.096011274784464"><ele>53.42857142857143</ele><time>2026-05-02T17:35:39.997Z</time></trkpt><trkpt lat="43.86694585971475" lon="11.096065491762937"><ele>53.57142857142857</ele><time>2026-05-02T17:35:40.997Z</time></trkpt><trkpt lat="43.8670110880546" lon="11.09611837171757"><ele>53.71428571428571</ele><time>2026-05-02T17:35:41.997Z</time></trkpt><trkpt lat="43.86707729177154" lon="11.096180141868393"><ele>53.857142857142854</ele><time>2026-05-02T17:35:42.997Z</time></trkpt><trkpt lat="43.8671399145139" lon="11.096248142911884"><ele>54.0</ele><time>2026-05-02T17:35:43.997Z</time></trkpt><trkpt lat="43.86720436874894" lon="11.09631491338435"><ele>54.0</ele><time>2026-05-02T17:35:44.997Z</time></trkpt><trkpt lat="43.86727182307481" lon="11.096379314061798"><ele>54.0</ele><time>2026-05-02T17:35:45.997Z</time></trkpt><trkpt lat="43.86734092646226" lon="11.096447551224156"><ele>54.0</ele><time>2026-05-02T17:35:46.997Z</time></trkpt><trkpt lat="43.867410758738664" lon="11.096513042130999"><ele>54.0</ele><time>2026-05-02T17:35:47.997Z</time></trkpt><trkpt lat="43.86748126309861" lon="11.096575748889252"><ele>54.0</ele><time>2026-05-02T17:35:48.997Z</time></trkpt><trkpt lat="43.86755380506419" lon="11.096641850177784"><ele>54.0</ele><time>2026-05-02T17:35:49.997Z</time></trkpt><trkpt lat="43.8676285008997" lon="11.09670619760922"><ele>54.333333333333336</ele><time>2026-05-02T17:35:50.997Z</time></trkpt><trkpt lat="43.86770332398428" lon="11.096767264739514"><ele>54.66666666666667</ele><time>2026-05-02T17:35:51.997Z</time></trkpt><trkpt lat="43.86777281011099" lon="11.096839259387608"><ele>55.0</ele><time>2026-05-02T17:35:52.997Z</time></trkpt><trkpt lat="43.8678512653414" lon="11.096896005437694"><ele>55.333333333333336</ele><time>2026-05-02T17:35:53.997Z</time></trkpt><trkpt lat="43.8679379676382" lon="11.096929281093098"><ele>55.66666666666667</ele><time>2026-05-02T17:35:54.997Z</time></trkpt><trkpt lat="43.86801715655752" lon="11.09698061898287"><ele>56.0</ele><time>2026-05-02T17:35:55.997Z</time></trkpt><trkpt lat="43.86809364183827" lon="11.097046941802066"><ele>56.00000000000001</ele><time>2026-05-02T17:35:56.997Z</time></trkpt><trkpt lat="43.868174190668924" lon="11.097094868128499"><ele>56.0</ele><time>2026-05-02T17:35:57.997Z</time></trkpt><trkpt lat="43.86825533150785" lon="11.097138866682364"><ele>56.0</ele><time>2026-05-02T17:35:58.997Z</time></trkpt><trkpt lat="43.86832601820192" lon="11.09717632102103"><ele>56.0</ele><time>2026-05-02T17:35:59.997Z</time></trkpt><trkpt lat="43.86839728317154" lon="11.097215201325621"><ele>56.00000000000001</ele><time>2026-05-02T17:36:00.997Z</time></trkpt><trkpt lat="43.868466937660216" lon="11.097257798221923"><ele>56.0</ele><time>2026-05-02T17:36:01.997Z</time></trkpt><trkpt lat="43.86853368545824" lon="11.097297959435158"><ele>56.00000000000001</ele><time>2026-05-02T17:36:02.997Z</time></trkpt><trkpt lat="43.868611503161986" lon="11.097337436602743"><ele>56.0</ele><time>2026-05-02T17:36:03.997Z</time></trkpt><trkpt lat="43.86868506830831" lon="11.097376807340543"><ele>56.0</ele><time>2026-05-02T17:36:04.997Z</time></trkpt><trkpt lat="43.868759762653866" lon="11.097420728466734"><ele>56.0</ele><time>2026-05-02T17:36:05.997Z</time></trkpt><trkpt lat="43.86883812387943" lon="11.097469746723016"><ele>56.00000000000001</ele><time>2026-05-02T17:36:06.997Z</time></trkpt><trkpt lat="43.86891780266416" lon="11.097510135129363"><ele>56.0</ele><time>2026-05-02T17:36:07.997Z</time></trkpt><trkpt lat="43.86899997539828" lon="11.097554481425567"><ele>56.0</ele><time>2026-05-02T17:36:08.997Z</time></trkpt><trkpt lat="43.86908721176335" lon="11.097598177875614"><ele>55.99999999999999</ele><time>2026-05-02T17:36:09.997Z</time></trkpt><trkpt lat="43.86916612659168" lon="11.097651613398675"><ele>55.99999999999999</ele><time>2026-05-02T17:36:10.997Z</time></trkpt><trkpt lat="43.869254119494684" lon="11.097700250569668"><ele>56.0</ele><time>2026-05-02T17:36:11.997Z</time></trkpt><trkpt lat="43.86934066829628" lon="11.097749119187759"><ele>56.0</ele><time>2026-05-02T17:36:12.997Z</time></trkpt><trkpt lat="43.869430850534556" lon="11.097797764069755"><ele>56.0</ele><time>2026-05-02T17:36:13.997Z</time></trkpt><trkpt lat="43.86951858480414" lon="11.097847529772427"><ele>55.99999999999999</ele><time>2026-05-02T17:36:14.997Z</time></trkpt><trkpt lat="43.86960965354339" lon="11.097893667637724"><ele>55.99999999999999</ele><time>2026-05-02T17:36:15.997Z</time></trkpt><trkpt lat="43.86969636694329" lon="11.0979420200273"><ele>56.0</ele><time>2026-05-02T17:36:16.996Z</time></trkpt><trkpt lat="43.869785482489746" lon="11.097988628391084"><ele>56.0</ele><time>2026-05-02T17:36:17.996Z</time></trkpt><trkpt lat="43.869875958307" lon="11.09803514646881"><ele>56.00000000000001</ele><time>2026-05-02T17:36:18.996Z</time></trkpt><trkpt lat="43.86995725797891" lon="11.098083475220317"><ele>56.0</ele><time>2026-05-02T17:36:19.996Z</time></trkpt><trkpt lat="43.87003349070831" lon="11.09811711000995"><ele>56.0</ele><time>2026-05-02T17:36:20.996Z</time></trkpt><trkpt lat="43.870115397188854" lon="11.098160396182859"><ele>56.0</ele><time>2026-05-02T17:36:21.999Z</time></trkpt><trkpt lat="43.87019273412952" lon="11.098202566045602"><ele>56.00000000000001</ele><time>2026-05-02T17:36:22.999Z</time></trkpt><trkpt lat="43.87027310848007" lon="11.098254938025564"><ele>56.0</ele><time>2026-05-02T17:36:23.999Z</time></trkpt><trkpt lat="43.8703639911588" lon="11.098309217768964"><ele>55.8</ele><time>2026-05-02T17:36:24.999Z</time></trkpt><trkpt lat="43.8704583852841" lon="11.098363476935738"><ele>55.599999999999994</ele><time>2026-05-02T17:36:25.999Z</time></trkpt><trkpt lat="43.870552927056906" lon="11.098418401982117"><ele>55.4</ele><time>2026-05-02T17:36:26.999Z</time></trkpt><trkpt lat="43.870644534499384" lon="11.098477355078174"><ele>55.2</ele><time>2026-05-02T17:36:27.999Z</time></trkpt><trkpt lat="43.870735378297304" lon="11.098548348978712"><ele>55.0</ele><time>2026-05-02T17:36:28.999Z</time></trkpt><trkpt lat="43.87082515257007" lon="11.098618685754909"><ele>55.0</ele><time>2026-05-02T17:36:29.999Z</time></trkpt><trkpt lat="43.8709137520858" lon="11.09868405289984"><ele>55.0</ele><time>2026-05-02T17:36:30.999Z</time></trkpt><trkpt lat="43.871002581610824" lon="11.098752691375088"><ele>55.0</ele><time>2026-05-02T17:36:32Z</time></trkpt><trkpt lat="43.87108694570419" lon="11.098817989409403"><ele>55.0</ele><time>2026-05-02T17:36:32.999Z</time></trkpt><trkpt lat="43.87116791060273" lon="11.098877235817946"><ele>55.0</ele><time>2026-05-02T17:36:34Z</time></trkpt><trkpt lat="43.87124121193878" lon="11.098957608743342"><ele>54.99999999999999</ele><time>2026-05-02T17:36:35Z</time></trkpt><trkpt lat="43.87132404678091" lon="11.09899738695507"><ele>55.0</ele><time>2026-05-02T17:36:36Z</time></trkpt><trkpt lat="43.87139659183164" lon="11.099056170564017"><ele>55.0</ele><time>2026-05-02T17:36:36.999Z</time></trkpt><trkpt lat="43.87146287422162" lon="11.099109853426095"><ele>55.0</ele><time>2026-05-02T17:36:37.999Z</time></trkpt><trkpt lat="43.871526278760946" lon="11.099157559554605"><ele>54.99999999999999</ele><time>2026-05-02T17:36:38.999Z</time></trkpt><trkpt lat="43.87158625696696" lon="11.099202481384653"><ele>55.0</ele><time>2026-05-02T17:36:39.999Z</time></trkpt><trkpt lat="43.871678134229086" lon="11.099282844357719"><ele>55.2</ele><time>2026-05-02T17:36:41.999Z</time></trkpt><trkpt lat="43.87174624724545" lon="11.099338244337103"><ele>55.4</ele><time>2026-05-02T17:36:44.999Z</time></trkpt><trkpt lat="43.87182688569259" lon="11.09939973239119"><ele>55.599999999999994</ele><time>2026-05-02T17:37:12.999Z</time></trkpt><trkpt lat="43.871911011481366" lon="11.099468396825014"><ele>55.8</ele><time>2026-05-02T17:37:14.999Z</time></trkpt><trkpt lat="43.87199863474862" lon="11.099544328463745"><ele>56.0</ele><time>2026-05-02T17:37:16.998Z</time></trkpt><trkpt lat="43.87210310036556" lon="11.099630204102285"><ele>56.00000000000001</ele><time>2026-05-02T17:37:18.998Z</time></trkpt><trkpt lat="43.87216091211811" lon="11.099680160165082"><ele>56.0</ele><time>2026-05-02T17:37:19.998Z</time></trkpt><trkpt lat="43.87222472285375" lon="11.099732834949641"><ele>56.0</ele><time>2026-05-02T17:37:20.998Z</time></trkpt><trkpt lat="43.87229186691404" lon="11.099785139185597"><ele>56.0</ele><time>2026-05-02T17:37:21.998Z</time></trkpt><trkpt lat="43.87236562613" lon="11.099847361546548"><ele>56.00000000000001</ele><time>2026-05-02T17:37:22.998Z</time></trkpt><trkpt lat="43.872436446264615" lon="11.099909281917109"><ele>56.0</ele><time>2026-05-02T17:37:23.998Z</time></trkpt><trkpt lat="43.87251000429535" lon="11.099972981912378"><ele>56.00000000000001</ele><time>2026-05-02T17:37:24.998Z</time></trkpt><trkpt lat="43.87258659538557" lon="11.10003901800675"><ele>56.0</ele><time>2026-05-02T17:37:25.998Z</time></trkpt><trkpt lat="43.87266045222938" lon="11.100104133110655"><ele>56.0</ele><time>2026-05-02T17:37:26.998Z</time></trkpt><trkpt lat="43.87273344330721" lon="11.10016747033124"><ele>56.0</ele><time>2026-05-02T17:37:27.998Z</time></trkpt><trkpt lat="43.872806720933205" lon="11.100230189418369"><ele>56.00000000000001</ele><time>2026-05-02T17:37:28.998Z</time></trkpt><trkpt lat="43.87286908569366" lon="11.100286224772658"><ele>56.0</ele><time>2026-05-02T17:37:29.998Z</time></trkpt><trkpt lat="43.87293574543812" lon="11.100342433264254"><ele>56.00000000000001</ele><time>2026-05-02T17:37:31.998Z</time></trkpt><trkpt lat="43.8729884343035" lon="11.100393101878437"><ele>56.0</ele><time>2026-05-02T17:37:34.998Z</time></trkpt><trkpt lat="43.873057054809976" lon="11.100452088974873"><ele>56.0</ele><time>2026-05-02T17:37:40.998Z</time></trkpt><trkpt lat="43.87316083549552" lon="11.10055187771084"><ele>56.0</ele><time>2026-05-02T17:37:42.998Z</time></trkpt><trkpt lat="43.873224221190284" lon="11.10061615523537"><ele>56.00000000000001</ele><time>2026-05-02T17:37:43.998Z</time></trkpt><trkpt lat="43.87329320188102" lon="11.10068090899872"><ele>56.0</ele><time>2026-05-02T17:37:44.998Z</time></trkpt><trkpt lat="43.8733680404872" lon="11.100750190100259"><ele>56.4</ele><time>2026-05-02T17:37:45.998Z</time></trkpt><trkpt lat="43.87344399738531" lon="11.100823083118206"><ele>56.8</ele><time>2026-05-02T17:37:46.998Z</time></trkpt><trkpt lat="43.873523905262104" lon="11.100900921721323"><ele>57.199999999999996</ele><time>2026-05-02T17:37:47.998Z</time></trkpt><trkpt lat="43.87360883798" lon="11.100978416407157"><ele>57.599999999999994</ele><time>2026-05-02T17:37:48.998Z</time></trkpt><trkpt lat="43.87369544080865" lon="11.101057896088275"><ele>58.0</ele><time>2026-05-02T17:37:49.998Z</time></trkpt><trkpt lat="43.87378220100464" lon="11.101139927261427"><ele>58.0</ele><time>2026-05-02T17:37:50.998Z</time></trkpt><trkpt lat="43.87386959139346" lon="11.10122293376725"><ele>58.0</ele><time>2026-05-02T17:37:51.998Z</time></trkpt><trkpt lat="43.873957465361364" lon="11.101304440776683"><ele>58.0</ele><time>2026-05-02T17:37:52.998Z</time></trkpt><trkpt lat="43.874045453605284" lon="11.101388922731251"><ele>58.0</ele><time>2026-05-02T17:37:53.998Z</time></trkpt><trkpt lat="43.87413525562747" lon="11.10147355359038"><ele>58.0</ele><time>2026-05-02T17:37:54.998Z</time></trkpt><trkpt lat="43.87422444557671" lon="11.10156059843485"><ele>59.2</ele><time>2026-05-02T17:37:55.997Z</time></trkpt><trkpt lat="43.87431296871171" lon="11.101646287010352"><ele>60.4</ele><time>2026-05-02T17:37:56.997Z</time></trkpt><trkpt lat="43.87440104698774" lon="11.1017323610341"><ele>61.60000000000001</ele><time>2026-05-02T17:37:57.997Z</time></trkpt><trkpt lat="43.874488118515174" lon="11.101815794623985"><ele>62.800000000000004</ele><time>2026-05-02T17:37:58.997Z</time></trkpt><trkpt lat="43.874575889512926" lon="11.101896014568181"><ele>64.0</ele><time>2026-05-02T17:37:59.997Z</time></trkpt><trkpt lat="43.87466023610768" lon="11.1019698148051"><ele>63.99999999999999</ele><time>2026-05-02T17:38:00.997Z</time></trkpt><trkpt lat="43.87473741388721" lon="11.102036829877365"><ele>64.0</ele><time>2026-05-02T17:38:01.997Z</time></trkpt><trkpt lat="43.87480569298108" lon="11.102099982090316"><ele>64.0</ele><time>2026-05-02T17:38:02.997Z</time></trkpt><trkpt lat="43.87487235161837" lon="11.10216199993406"><ele>64.0</ele><time>2026-05-02T17:38:03.997Z</time></trkpt><trkpt lat="43.874937864422016" lon="11.102222583107743"><ele>63.99999999999999</ele><time>2026-05-02T17:38:04.997Z</time></trkpt><trkpt lat="43.87500166609168" lon="11.10227918413168"><ele>64.0</ele><time>2026-05-02T17:38:05.997Z</time></trkpt><trkpt lat="43.87506352242793" lon="11.102333994410825"><ele>63.83333333333333</ele><time>2026-05-02T17:38:06.997Z</time></trkpt><trkpt lat="43.87511878604377" lon="11.1023886578582"><ele>63.666666666666664</ele><time>2026-05-02T17:38:07.997Z</time></trkpt><trkpt lat="43.875171773061794" lon="11.102438951586972"><ele>63.5</ele><time>2026-05-02T17:38:08.997Z</time></trkpt><trkpt lat="43.87527193045783" lon="11.102531251653208"><ele>63.33333333333333</ele><time>2026-05-02T17:38:10.997Z</time></trkpt><trkpt lat="43.875349384879826" lon="11.102629812959698"><ele>63.166666666666664</ele><time>2026-05-02T17:38:12.997Z</time></trkpt><trkpt lat="43.87541395873958" lon="11.102691818085068"><ele>63.0</ele><time>2026-05-02T17:38:14.997Z</time></trkpt><trkpt lat="43.87548154768569" lon="11.102756718645097"><ele>63.0</ele><time>2026-05-02T17:38:37Z</time></trkpt><trkpt lat="43.8755311513444" lon="11.102839745955306"><ele>63.0</ele><time>2026-05-02T17:38:41Z</time></trkpt><trkpt lat="43.87550239296371" lon="11.102930060213751"><ele>63.0</ele><time>2026-05-02T17:38:42Z</time></trkpt><trkpt lat="43.87545586517314" lon="11.103033967684294"><ele>63.0</ele><time>2026-05-02T17:38:44Z</time></trkpt><trkpt lat="43.875397716361505" lon="11.103068686214687"><ele>63.0</ele><time>2026-05-02T17:38:45Z</time></trkpt><trkpt lat="43.875350493771585" lon="11.103146352688295"><ele>63.0</ele><time>2026-05-02T17:38:46Z</time></trkpt><trkpt lat="43.875287974981134" lon="11.10318563938325"><ele>63.0</ele><time>2026-05-02T17:38:47Z</time></trkpt><trkpt lat="43.875220004486486" lon="11.103228332392478"><ele>63.166666666666664</ele><time>2026-05-02T17:38:48Z</time></trkpt><trkpt lat="43.87514658970813" lon="11.103273519791287"><ele>63.33333333333333</ele><time>2026-05-02T17:38:49Z</time></trkpt><trkpt lat="43.87507417207086" lon="11.10331741524287"><ele>63.5</ele><time>2026-05-02T17:38:50Z</time></trkpt><trkpt lat="43.875002470961135" lon="11.103360876344492"><ele>63.666666666666664</ele><time>2026-05-02T17:38:51Z</time></trkpt><trkpt lat="43.87493419844596" lon="11.103402486139004"><ele>63.83333333333333</ele><time>2026-05-02T17:38:51.999Z</time></trkpt><trkpt lat="43.87487140534453" lon="11.103440977588733"><ele>64.0</ele><time>2026-05-02T17:38:52.999Z</time></trkpt><trkpt lat="43.87477706941196" lon="11.1034990280703"><ele>63.6</ele><time>2026-05-02T17:38:54.999Z</time></trkpt><trkpt lat="43.87471525097664" lon="11.103537273616219"><ele>63.2</ele><time>2026-05-02T17:38:56.999Z</time></trkpt><trkpt lat="43.87462930019624" lon="11.103365624155268"><ele>62.800000000000004</ele><time>2026-05-02T17:38:57.999Z</time></trkpt><trkpt lat="43.874573028030326" lon="11.103291083107974"><ele>62.400000000000006</ele><time>2026-05-02T17:38:58.999Z</time></trkpt><trkpt lat="43.87450805282441" lon="11.103220781362717"><ele>62.0</ele><time>2026-05-02T17:38:59.999Z</time></trkpt><trkpt lat="43.874436608196724" lon="11.103150786861763"><ele>62.00000000000001</ele><time>2026-05-02T17:39:00.999Z</time></trkpt><trkpt lat="43.874362970941554" lon="11.103078249510562"><ele>62.0</ele><time>2026-05-02T17:39:01.999Z</time></trkpt><trkpt lat="43.87428677195617" lon="11.10300550602041"><ele>62.0</ele><time>2026-05-02T17:39:02.999Z</time></trkpt><trkpt lat="43.87421423021706" lon="11.102935662165965"><ele>62.0</ele><time>2026-05-02T17:39:03.999Z</time></trkpt><trkpt lat="43.87414307018551" lon="11.102871379672278"><ele>62.00000000000001</ele><time>2026-05-02T17:39:04.999Z</time></trkpt><trkpt lat="43.87408240104636" lon="11.10281429880451"><ele>62.0</ele><time>2026-05-02T17:39:05.999Z</time></trkpt><trkpt lat="43.87400287090158" lon="11.102730300449647"><ele>61.8</ele><time>2026-05-02T17:39:07.999Z</time></trkpt><trkpt lat="43.87404967067177" lon="11.1025542288"><ele>61.6</ele><time>2026-05-02T17:39:11.999Z</time></trkpt><trkpt lat="43.874128696913985" lon="11.102401135524914"><ele>61.39999999999999</ele><time>2026-05-02T17:39:13.999Z</time></trkpt><trkpt lat="43.8741740355586" lon="11.102310792761564"><ele>61.199999999999996</ele><time>2026-05-02T17:39:14.999Z</time></trkpt><trkpt lat="43.87421781816986" lon="11.102216049236128"><ele>61.0</ele><time>2026-05-02T17:39:15.999Z</time></trkpt><trkpt lat="43.87426112888611" lon="11.102118952302513"><ele>61.49999999999999</ele><time>2026-05-02T17:39:16.999Z</time></trkpt><trkpt lat="43.874305400018045" lon="11.10203541989763"><ele>62.0</ele><time>2026-05-02T17:39:17.999Z</time></trkpt><trkpt lat="43.874343634140565" lon="11.101952902128566"><ele>62.5</ele><time>2026-05-02T17:39:18.999Z</time></trkpt><trkpt lat="43.87440019572348" lon="11.101822497860251"><ele>63.0</ele><time>2026-05-02T17:39:20.999Z</time></trkpt><trkpt lat="43.87445139148069" lon="11.101768717663834"><ele>63.49999999999999</ele><time>2026-05-02T17:39:23.999Z</time></trkpt><trkpt lat="43.87453105126677" lon="11.101849654165537"><ele>64.0</ele><time>2026-05-02T17:39:25.999Z</time></trkpt><trkpt lat="43.874601045192804" lon="11.101917266519436"><ele>63.99999999999999</ele><time>2026-05-02T17:39:26.999Z</time></trkpt><trkpt lat="43.87466730393393" lon="11.101981270766396"><ele>64.0</ele><time>2026-05-02T17:39:27.998Z</time></trkpt><trkpt lat="43.87473308302598" lon="11.10204302590062"><ele>64.0</ele><time>2026-05-02T17:39:28.998Z</time></trkpt><trkpt lat="43.87479858776671" lon="11.102104469074634"><ele>64.0</ele><time>2026-05-02T17:39:29.998Z</time></trkpt><trkpt lat="43.87486133794527" lon="11.102163328512153"><ele>63.99999999999999</ele><time>2026-05-02T17:39:30.998Z</time></trkpt><trkpt lat="43.87493159893938" lon="11.102207357503366"><ele>64.0</ele><time>2026-05-02T17:39:31.998Z</time></trkpt><trkpt lat="43.87499022855602" lon="11.102267013327333"><ele>64.0</ele><time>2026-05-02T17:39:32.998Z</time></trkpt><trkpt lat="43.875047488000305" lon="11.102319830671238"><ele>64.0</ele><time>2026-05-02T17:39:33.998Z</time></trkpt><trkpt lat="43.87512908409176" lon="11.10241971754096"><ele>64.0</ele><time>2026-05-02T17:39:35.998Z</time></trkpt><trkpt lat="43.87524208086668" lon="11.102300131639636"><ele>64.0</ele><time>2026-05-02T17:39:38.998Z</time></trkpt><trkpt lat="43.87528282116346" lon="11.102211818272773"><ele>64.0</ele><time>2026-05-02T17:39:40.998Z</time></trkpt><trkpt lat="43.8753293595199" lon="11.102140710357348"><ele>63.666666666666664</ele><time>2026-05-02T17:39:42.998Z</time></trkpt><trkpt lat="43.8753912405074" lon="11.102063195841868"><ele>63.33333333333333</ele><time>2026-05-02T17:39:45.998Z</time></trkpt><trkpt lat="43.87544475717794" lon="11.101989453795104"><ele>63.0</ele><time>2026-05-02T17:40:07.997Z</time></trkpt><trkpt lat="43.87547932414921" lon="11.101878333491122"><ele>62.66666666666667</ele><time>2026-05-02T17:40:24.997Z</time></trkpt><trkpt lat="43.875518414385404" lon="11.101775943036461"><ele>62.333333333333336</ele><time>2026-05-02T17:40:26.997Z</time></trkpt><trkpt lat="43.87556060482589" lon="11.10169197302757"><ele>62.0</ele><time>2026-05-02T17:40:28.997Z</time></trkpt><trkpt lat="43.875475440278926" lon="11.101531601950597"><ele>61.66666666666667</ele><time>2026-05-02T17:40:32.997Z</time></trkpt><trkpt lat="43.87540354078861" lon="11.101463115697129"><ele>61.333333333333336</ele><time>2026-05-02T17:40:35Z</time></trkpt><trkpt lat="43.875350696624125" lon="11.101399192290055"><ele>61.0</ele><time>2026-05-02T17:40:37Z</time></trkpt><trkpt lat="43.875319373845095" lon="11.101497658580973"><ele>60.66666666666667</ele><time>2026-05-02T17:40:58Z</time></trkpt><trkpt lat="43.875356693317435" lon="11.101419658890267"><ele>60.333333333333336</ele><time>2026-05-02T17:43:04Z</time></trkpt><trkpt lat="43.875301567189574" lon="11.101366815102951"><ele>60.0</ele><time>2026-05-02T17:45:21Z</time></trkpt><trkpt lat="43.87523779889495" lon="11.101492556299027"><ele>60.0</ele><time>2026-05-02T17:45:25Z</time></trkpt><trkpt lat="43.87533443960319" lon="11.101523546238417"><ele>60.0</ele><time>2026-05-02T17:47:19.545Z</time></trkpt><trkpt lat="43.87523894848043" lon="11.101727958345117"><ele>60.0</ele><time>2026-05-02T17:47:26.439Z</time></trkpt><trkpt lat="43.87530459118454" lon="11.101435464996005"><ele>60.0</ele><time>2026-05-02T17:47:33.266Z</time></trkpt><trkpt lat="43.875413293288155" lon="11.101328051020582"><ele>60.0</ele><time>2026-05-02T17:47:40.109Z</time></trkpt><trkpt lat="43.87541181254772" lon="11.101461028301971"><ele>60.0</ele><time>2026-05-02T17:48:07.046Z</time></trkpt><trkpt lat="43.87537426176409" lon="11.101539171505657"><ele>60.0</ele><time>2026-05-02T17:48:09.995Z</time></trkpt><trkpt lat="43.875305968628275" lon="11.101524553260035"><ele>60.0</ele><time>2026-05-02T17:56:11.997Z</time></trkpt><trkpt lat="43.875243224726866" lon="11.101532854718103"><ele>60.0</ele><time>2026-05-02T17:56:29.997Z</time></trkpt><trkpt lat="43.87520692710296" lon="11.101614966703064"><ele>60.0</ele><time>2026-05-02T17:56:40Z</time></trkpt><trkpt lat="43.87516379843956" lon="11.101693979252524"><ele>60.0</ele><time>2026-05-02T17:56:44Z</time></trkpt><trkpt lat="43.87523237296498" lon="11.101679263173468"><ele>60.0</ele><time>2026-05-02T17:56:56.885Z</time></trkpt><trkpt lat="43.875456732693415" lon="11.101535653996661"><ele>60.0</ele><time>2026-05-02T17:57:31.974Z</time></trkpt><trkpt lat="43.87539331618985" lon="11.101682519337505"><ele>60.0</ele><time>2026-05-02T17:59:43.271Z</time></trkpt><trkpt lat="43.87533858571701" lon="11.101853131296904"><ele>60.0</ele><time>2026-05-02T17:59:48.632Z</time></trkpt><trkpt lat="43.875517442704265" lon="11.101505495946036"><ele>60.0</ele><time>2026-05-02T18:00:16.675Z</time></trkpt><trkpt lat="43.875327697298026" lon="11.101711290368653"><ele>60.0</ele><time>2026-05-02T18:00:45.943Z</time></trkpt><trkpt lat="43.87524785510656" lon="11.101449619279466"><ele>60.0</ele><time>2026-05-02T18:12:26.762Z</time></trkpt><trkpt lat="43.87531005055449" lon="11.101613165856595"><ele>60.0</ele><time>2026-05-02T18:12:36.233Z</time></trkpt><trkpt lat="43.8753458339727" lon="11.10169899260446"><ele>60.0</ele><time>2026-05-02T18:12:40.94Z</time></trkpt><trkpt lat="43.875344040556634" lon="11.101486247269316"><ele>60.0</ele><time>2026-05-02T18:13:32.461Z</time></trkpt><trkpt lat="43.8752841746583" lon="11.10154557525098"><ele>60.0</ele><time>2026-05-02T18:17:44Z</time></trkpt><trkpt lat="43.875254758675375" lon="11.101464658386007"><ele>60.0</ele><time>2026-05-02T18:17:50Z</time></trkpt><trkpt lat="43.87519498647008" lon="11.101384463567639"><ele>60.0</ele><time>2026-05-02T18:17:53Z</time></trkpt><trkpt lat="43.87512907128055" lon="11.101319271972297"><ele>60.0</ele><time>2026-05-02T18:17:56Z</time></trkpt><trkpt lat="43.87509652864583" lon="11.101395515507338"><ele>60.0</ele><time>2026-05-02T18:18:15.999Z</time></trkpt><trkpt lat="43.87505738162714" lon="11.101503866253841"><ele>60.0</ele><time>2026-05-02T18:18:20.999Z</time></trkpt><trkpt lat="43.87503306173055" lon="11.101587864304513"><ele>60.0</ele><time>2026-05-02T18:18:23.999Z</time></trkpt><trkpt lat="43.87504094984112" lon="11.101704379115201"><ele>60.0</ele><time>2026-05-02T18:18:27.999Z</time></trkpt><trkpt lat="43.8751526210586" lon="11.10176495986086"><ele>60.0</ele><time>2026-05-02T18:18:31.999Z</time></trkpt><trkpt lat="43.87523015189286" lon="11.101767216154382"><ele>60.0</ele><time>2026-05-02T18:18:34.999Z</time></trkpt><trkpt lat="43.87526998332544" lon="11.101433156248381"><ele>60.0</ele><time>2026-05-02T18:21:13.503Z</time></trkpt><trkpt lat="43.87534889108434" lon="11.101619269088834"><ele>62.0</ele><time>2026-05-02T18:22:11.451Z</time></trkpt></trkseg></trk></gpx>